<?xml version='1.0' encoding='UTF-8'?><gpx version="1.1" creator="JPX - https://github.com/jenetics/jpx" xmlns="http://www.topografix.com/GPX/1/1"><trk><trkseg><trkpt lat="45.6286771" lon="9.3621388"><ele>209.0</ele><time>2026-05-01T06:47:20.508Z</time></trkpt><trkpt lat="45.628883" lon="9.3621907"><ele>209.0</ele><time>2026-05-01T06:47:21.527Z</time></trkpt><trkpt lat="45.6291257" lon="9.3622223"><ele>208.33333333333334</ele><time>2026-05-01T06:47:22.524Z</time></trkpt><trkpt lat="45.6293361" lon="9.3622981"><ele>207.66666666666669</ele><time>2026-05-01T06:47:23.52Z</time></trkpt><trkpt lat="45.6295497" lon="9.3623662"><ele>207.0</ele><time>2026-05-01T06:47:24.516Z</time></trkpt><trkpt lat="45.6297625" lon="9.3624083"><ele>206.5</ele><time>2026-05-01T06:47:25.521Z</time></trkpt><trkpt lat="45.630011" lon="9.3624616"><ele>206.0</ele><time>2026-05-01T06:47:26.516Z</time></trkpt><trkpt lat="45.6302479" lon="9.3624802"><ele>207.0</ele><time>2026-05-01T06:47:27.523Z</time></trkpt><trkpt lat="45.6304759" lon="9.3625525"><ele>208.0</ele><time>2026-05-01T06:47:28.523Z</time></trkpt><trkpt lat="45.6306608" lon="9.3625715"><ele>209.0</ele><time>2026-05-01T06:47:29.519Z</time></trkpt><trkpt lat="45.6308708" lon="9.3626097"><ele>209.0</ele><time>2026-05-01T06:47:30.524Z</time></trkpt><trkpt lat="45.6311126" lon="9.3626632"><ele>209.0</ele><time>2026-05-01T06:47:31.519Z</time></trkpt><trkpt lat="45.6314954" lon="9.3627423"><ele>209.0</ele><time>2026-05-01T06:47:33.521Z</time></trkpt><trkpt lat="45.6317121" lon="9.362783"><ele>209.0</ele><time>2026-05-01T06:47:34.53Z</time></trkpt><trkpt lat="45.6319344" lon="9.3628073"><ele>209.0</ele><time>2026-05-01T06:47:35.524Z</time></trkpt><trkpt lat="45.6321566" lon="9.362853"><ele>209.5</ele><time>2026-05-01T06:47:36.529Z</time></trkpt><trkpt lat="45.632424" lon="9.3629221"><ele>210.0</ele><time>2026-05-01T06:47:37.521Z</time></trkpt><trkpt lat="45.6326637" lon="9.3629574"><ele>210.0</ele><time>2026-05-01T06:47:38.525Z</time></trkpt><trkpt lat="45.6328796" lon="9.3630027"><ele>210.0</ele><time>2026-05-01T06:47:39.536Z</time></trkpt><trkpt lat="45.6333483" lon="9.3630887"><ele>210.5</ele><time>2026-05-01T06:47:41.328Z</time></trkpt><trkpt lat="45.6335648" lon="9.363125"><ele>211.0</ele><time>2026-05-01T06:47:42.24Z</time></trkpt><trkpt lat="45.633796" lon="9.363176"><ele>211.0</ele><time>2026-05-01T06:47:43.143Z</time></trkpt><trkpt lat="45.6340545" lon="9.3632327"><ele>211.0</ele><time>2026-05-01T06:47:44.143Z</time></trkpt><trkpt lat="45.6343185" lon="9.3632821"><ele>211.0</ele><time>2026-05-01T06:47:45.144Z</time></trkpt><trkpt lat="45.6345868" lon="9.3633375"><ele>211.0</ele><time>2026-05-01T06:47:46.147Z</time></trkpt><trkpt lat="45.6348585" lon="9.3633894"><ele>211.0</ele><time>2026-05-01T06:47:47.147Z</time></trkpt><trkpt lat="45.6351205" lon="9.3634359"><ele>211.0</ele><time>2026-05-01T06:47:48.14Z</time></trkpt><trkpt lat="45.635377" lon="9.3634864"><ele>211.0</ele><time>2026-05-01T06:47:49.15Z</time></trkpt><trkpt lat="45.6356302" lon="9.3635373"><ele>211.0</ele><time>2026-05-01T06:47:50.147Z</time></trkpt><trkpt lat="45.6358809" lon="9.3635915"><ele>211.0</ele><time>2026-05-01T06:47:51.146Z</time></trkpt><trkpt lat="45.6361332" lon="9.3636295"><ele>211.0</ele><time>2026-05-01T06:47:52.148Z</time></trkpt><trkpt lat="45.6363797" lon="9.3636753"><ele>211.0</ele><time>2026-05-01T06:47:53.163Z</time></trkpt><trkpt lat="45.636626" lon="9.3637244"><ele>211.0</ele><time>2026-05-01T06:47:54.145Z</time></trkpt><trkpt lat="45.6368647" lon="9.3637805"><ele>211.5</ele><time>2026-05-01T06:47:55.139Z</time></trkpt><trkpt lat="45.6371007" lon="9.3638456"><ele>212.0</ele><time>2026-05-01T06:47:56.14Z</time></trkpt><trkpt lat="45.6373405" lon="9.3639109"><ele>212.0</ele><time>2026-05-01T06:47:57.139Z</time></trkpt><trkpt lat="45.6375726" lon="9.3639851"><ele>212.0</ele><time>2026-05-01T06:47:58.154Z</time></trkpt><trkpt lat="45.6378053" lon="9.3640628"><ele>212.0</ele><time>2026-05-01T06:47:59.138Z</time></trkpt><trkpt lat="45.6380383" lon="9.3641308"><ele>212.0</ele><time>2026-05-01T06:48:00.141Z</time></trkpt><trkpt lat="45.6382655" lon="9.3641994"><ele>212.0</ele><time>2026-05-01T06:48:01.146Z</time></trkpt><trkpt lat="45.6385043" lon="9.3642483"><ele>212.0</ele><time>2026-05-01T06:48:02.151Z</time></trkpt><trkpt lat="45.6387583" lon="9.3643119"><ele>211.5</ele><time>2026-05-01T06:48:03.145Z</time></trkpt><trkpt lat="45.638992" lon="9.3643972"><ele>211.0</ele><time>2026-05-01T06:48:04.143Z</time></trkpt><trkpt lat="45.6392219" lon="9.3644832"><ele>211.0</ele><time>2026-05-01T06:48:05.143Z</time></trkpt><trkpt lat="45.6394671" lon="9.3645647"><ele>211.0</ele><time>2026-05-01T06:48:06.141Z</time></trkpt><trkpt lat="45.6397109" lon="9.3646426"><ele>211.0</ele><time>2026-05-01T06:48:07.142Z</time></trkpt><trkpt lat="45.6399596" lon="9.3647304"><ele>211.0</ele><time>2026-05-01T06:48:08.141Z</time></trkpt><trkpt lat="45.6401967" lon="9.3648226"><ele>211.5</ele><time>2026-05-01T06:48:09.147Z</time></trkpt><trkpt lat="45.6404323" lon="9.3649194"><ele>212.0</ele><time>2026-05-01T06:48:10.138Z</time></trkpt><trkpt lat="45.6406808" lon="9.365015"><ele>212.0</ele><time>2026-05-01T06:48:11.142Z</time></trkpt><trkpt lat="45.6409389" lon="9.3651064"><ele>212.0</ele><time>2026-05-01T06:48:12.142Z</time></trkpt><trkpt lat="45.6411876" lon="9.3651876"><ele>213.5</ele><time>2026-05-01T06:48:13.138Z</time></trkpt><trkpt lat="45.6414462" lon="9.3652774"><ele>215.0</ele><time>2026-05-01T06:48:14.136Z</time></trkpt><trkpt lat="45.6416862" lon="9.365369"><ele>215.0</ele><time>2026-05-01T06:48:15.148Z</time></trkpt><trkpt lat="45.6419214" lon="9.3654609"><ele>215.0</ele><time>2026-05-01T06:48:16.151Z</time></trkpt><trkpt lat="45.6421539" lon="9.3655505"><ele>215.5</ele><time>2026-05-01T06:48:17.147Z</time></trkpt><trkpt lat="45.6424117" lon="9.3656223"><ele>216.0</ele><time>2026-05-01T06:48:18.142Z</time></trkpt><trkpt lat="45.6426616" lon="9.3657075"><ele>216.0</ele><time>2026-05-01T06:48:19.147Z</time></trkpt><trkpt lat="45.6428975" lon="9.3658015"><ele>216.0</ele><time>2026-05-01T06:48:20.138Z</time></trkpt><trkpt lat="45.6431359" lon="9.3658876"><ele>216.0</ele><time>2026-05-01T06:48:21.147Z</time></trkpt><trkpt lat="45.6433603" lon="9.3659627"><ele>216.0</ele><time>2026-05-01T06:48:22.148Z</time></trkpt><trkpt lat="45.6435847" lon="9.3660342"><ele>217.5</ele><time>2026-05-01T06:48:23.153Z</time></trkpt><trkpt lat="45.6438198" lon="9.3661128"><ele>219.0</ele><time>2026-05-01T06:48:24.149Z</time></trkpt><trkpt lat="45.6440567" lon="9.366193"><ele>219.0</ele><time>2026-05-01T06:48:25.141Z</time></trkpt><trkpt lat="45.6443202" lon="9.3662729"><ele>219.0</ele><time>2026-05-01T06:48:26.147Z</time></trkpt><trkpt lat="45.6445875" lon="9.3663508"><ele>216.5</ele><time>2026-05-01T06:48:27.148Z</time></trkpt><trkpt lat="45.6448471" lon="9.3664345"><ele>214.0</ele><time>2026-05-01T06:48:28.14Z</time></trkpt><trkpt lat="45.6450855" lon="9.3665229"><ele>214.5</ele><time>2026-05-01T06:48:29.152Z</time></trkpt><trkpt lat="45.6453284" lon="9.3665968"><ele>215.0</ele><time>2026-05-01T06:48:30.153Z</time></trkpt><trkpt lat="45.6455382" lon="9.3666531"><ele>215.0</ele><time>2026-05-01T06:48:31.153Z</time></trkpt><trkpt lat="45.6457495" lon="9.3667256"><ele>215.0</ele><time>2026-05-01T06:48:32.148Z</time></trkpt><trkpt lat="45.6459484" lon="9.3667896"><ele>215.0</ele><time>2026-05-01T06:48:33.149Z</time></trkpt><trkpt lat="45.6461576" lon="9.3668555"><ele>216.66666666666669</ele><time>2026-05-01T06:48:34.157Z</time></trkpt><trkpt lat="45.6463425" lon="9.3669349"><ele>218.33333333333331</ele><time>2026-05-01T06:48:35.159Z</time></trkpt><trkpt lat="45.6465139" lon="9.3670102"><ele>220.0</ele><time>2026-05-01T06:48:36.151Z</time></trkpt><trkpt lat="45.6467024" lon="9.3670658"><ele>220.0</ele><time>2026-05-01T06:48:37.175Z</time></trkpt><trkpt lat="45.646907" lon="9.3671293"><ele>220.0</ele><time>2026-05-01T06:48:38.147Z</time></trkpt><trkpt lat="45.6470978" lon="9.3672016"><ele>220.0</ele><time>2026-05-01T06:48:39.156Z</time></trkpt><trkpt lat="45.6472871" lon="9.367277"><ele>219.66666666666666</ele><time>2026-05-01T06:48:40.152Z</time></trkpt><trkpt lat="45.6474726" lon="9.3673492"><ele>219.33333333333331</ele><time>2026-05-01T06:48:41.152Z</time></trkpt><trkpt lat="45.6476653" lon="9.3674283"><ele>219.0</ele><time>2026-05-01T06:48:42.158Z</time></trkpt><trkpt lat="45.6478759" lon="9.3674922"><ele>218.66666666666669</ele><time>2026-05-01T06:48:43.156Z</time></trkpt><trkpt lat="45.6480995" lon="9.3675647"><ele>218.33333333333334</ele><time>2026-05-01T06:48:44.157Z</time></trkpt><trkpt lat="45.6483108" lon="9.3676406"><ele>218.0</ele><time>2026-05-01T06:48:45.163Z</time></trkpt><trkpt lat="45.6485315" lon="9.367725"><ele>217.0</ele><time>2026-05-01T06:48:46.156Z</time></trkpt><trkpt lat="45.6487655" lon="9.3677955"><ele>216.0</ele><time>2026-05-01T06:48:47.161Z</time></trkpt><trkpt lat="45.6489857" lon="9.3678778"><ele>216.0</ele><time>2026-05-01T06:48:48.165Z</time></trkpt><trkpt lat="45.6492099" lon="9.3679595"><ele>216.0</ele><time>2026-05-01T06:48:49.158Z</time></trkpt><trkpt lat="45.6494425" lon="9.3680258"><ele>216.5</ele><time>2026-05-01T06:48:50.16Z</time></trkpt><trkpt lat="45.6496683" lon="9.3680932"><ele>217.0</ele><time>2026-05-01T06:48:51.164Z</time></trkpt><trkpt lat="45.6498972" lon="9.3681821"><ele>217.0</ele><time>2026-05-01T06:48:52.164Z</time></trkpt><trkpt lat="45.6501224" lon="9.3682755"><ele>217.0</ele><time>2026-05-01T06:48:53.159Z</time></trkpt><trkpt lat="45.6503345" lon="9.3683558"><ele>218.5</ele><time>2026-05-01T06:48:54.158Z</time></trkpt><trkpt lat="45.6505461" lon="9.3684373"><ele>220.0</ele><time>2026-05-01T06:48:55.161Z</time></trkpt><trkpt lat="45.6507708" lon="9.3685155"><ele>220.0</ele><time>2026-05-01T06:48:56.162Z</time></trkpt><trkpt lat="45.6509887" lon="9.3685974"><ele>220.0</ele><time>2026-05-01T06:48:57.16Z</time></trkpt><trkpt lat="45.6512284" lon="9.3686756"><ele>220.0</ele><time>2026-05-01T06:48:58.165Z</time></trkpt><trkpt lat="45.6514635" lon="9.3687643"><ele>220.0</ele><time>2026-05-01T06:48:59.161Z</time></trkpt><trkpt lat="45.6517177" lon="9.3688381"><ele>220.0</ele><time>2026-05-01T06:49:00.163Z</time></trkpt><trkpt lat="45.6519685" lon="9.3689241"><ele>220.0</ele><time>2026-05-01T06:49:01.166Z</time></trkpt><trkpt lat="45.6522064" lon="9.3690299"><ele>220.0</ele><time>2026-05-01T06:49:02.163Z</time></trkpt><trkpt lat="45.6524372" lon="9.3691398"><ele>220.0</ele><time>2026-05-01T06:49:03.164Z</time></trkpt><trkpt lat="45.6526713" lon="9.3692482"><ele>219.0</ele><time>2026-05-01T06:49:04.168Z</time></trkpt><trkpt lat="45.6528957" lon="9.3693736"><ele>218.0</ele><time>2026-05-01T06:49:05.167Z</time></trkpt><trkpt lat="45.6531105" lon="9.3695153"><ele>218.0</ele><time>2026-05-01T06:49:06.166Z</time></trkpt><trkpt lat="45.6533148" lon="9.3696351"><ele>218.0</ele><time>2026-05-01T06:49:07.169Z</time></trkpt><trkpt lat="45.6534975" lon="9.3697278"><ele>218.0</ele><time>2026-05-01T06:49:08.161Z</time></trkpt><trkpt lat="45.6536768" lon="9.369803"><ele>218.66666666666669</ele><time>2026-05-01T06:49:09.165Z</time></trkpt><trkpt lat="45.6538527" lon="9.369877"><ele>219.33333333333331</ele><time>2026-05-01T06:49:10.169Z</time></trkpt><trkpt lat="45.6540218" lon="9.3699459"><ele>220.0</ele><time>2026-05-01T06:49:11.164Z</time></trkpt><trkpt lat="45.6541869" lon="9.3700109"><ele>220.0</ele><time>2026-05-01T06:49:12.167Z</time></trkpt><trkpt lat="45.6543477" lon="9.3701123"><ele>220.0</ele><time>2026-05-01T06:49:13.173Z</time></trkpt><trkpt lat="45.6544905" lon="9.3702273"><ele>220.0</ele><time>2026-05-01T06:49:14.161Z</time></trkpt><trkpt lat="45.6546119" lon="9.3704054"><ele>222.33333333333331</ele><time>2026-05-01T06:49:15.162Z</time></trkpt><trkpt lat="45.654701" lon="9.3705947"><ele>224.66666666666669</ele><time>2026-05-01T06:49:16.179Z</time></trkpt><trkpt lat="45.6547895" lon="9.3707985"><ele>227.0</ele><time>2026-05-01T06:49:17.167Z</time></trkpt><trkpt lat="45.6548745" lon="9.3710101"><ele>227.0</ele><time>2026-05-01T06:49:18.171Z</time></trkpt><trkpt lat="45.6549179" lon="9.3712619"><ele>227.0</ele><time>2026-05-01T06:49:19.163Z</time></trkpt><trkpt lat="45.6549956" lon="9.3715144"><ele>227.0</ele><time>2026-05-01T06:49:20.162Z</time></trkpt><trkpt lat="45.6550909" lon="9.371774"><ele>225.66666666666669</ele><time>2026-05-01T06:49:21.173Z</time></trkpt><trkpt lat="45.6551959" lon="9.3720493"><ele>224.33333333333331</ele><time>2026-05-01T06:49:22.165Z</time></trkpt><trkpt lat="45.6552936" lon="9.3723459"><ele>223.0</ele><time>2026-05-01T06:49:23.164Z</time></trkpt><trkpt lat="45.655422" lon="9.3726685"><ele>225.0</ele><time>2026-05-01T06:49:24.156Z</time></trkpt><trkpt lat="45.6555426" lon="9.373006"><ele>227.0</ele><time>2026-05-01T06:49:25.164Z</time></trkpt><trkpt lat="45.6556444" lon="9.3733176"><ele>227.0</ele><time>2026-05-01T06:49:26.169Z</time></trkpt><trkpt lat="45.6557452" lon="9.3736001"><ele>227.0</ele><time>2026-05-01T06:49:27.176Z</time></trkpt><trkpt lat="45.6558474" lon="9.3738652"><ele>227.0</ele><time>2026-05-01T06:49:28.185Z</time></trkpt><trkpt lat="45.6559481" lon="9.3741211"><ele>226.0</ele><time>2026-05-01T06:49:29.169Z</time></trkpt><trkpt lat="45.6560461" lon="9.3743882"><ele>225.0</ele><time>2026-05-01T06:49:30.173Z</time></trkpt><trkpt lat="45.6561362" lon="9.3746525"><ele>224.0</ele><time>2026-05-01T06:49:31.173Z</time></trkpt><trkpt lat="45.6562448" lon="9.3749088"><ele>224.66666666666669</ele><time>2026-05-01T06:49:32.172Z</time></trkpt><trkpt lat="45.6563647" lon="9.3751665"><ele>225.33333333333331</ele><time>2026-05-01T06:49:33.171Z</time></trkpt><trkpt lat="45.656469" lon="9.3754284"><ele>226.0</ele><time>2026-05-01T06:49:34.168Z</time></trkpt><trkpt lat="45.6565943" lon="9.3756688"><ele>226.0</ele><time>2026-05-01T06:49:35.169Z</time></trkpt><trkpt lat="45.6567241" lon="9.3758876"><ele>226.0</ele><time>2026-05-01T06:49:36.163Z</time></trkpt><trkpt lat="45.6568438" lon="9.376098"><ele>226.0</ele><time>2026-05-01T06:49:37.171Z</time></trkpt><trkpt lat="45.6569491" lon="9.3763157"><ele>226.0</ele><time>2026-05-01T06:49:38.166Z</time></trkpt><trkpt lat="45.6570507" lon="9.3765334"><ele>226.0</ele><time>2026-05-01T06:49:39.176Z</time></trkpt><trkpt lat="45.6571766" lon="9.3767532"><ele>226.0</ele><time>2026-05-01T06:49:40.167Z</time></trkpt><trkpt lat="45.6573121" lon="9.3769568"><ele>226.0</ele><time>2026-05-01T06:49:41.188Z</time></trkpt><trkpt lat="45.6574613" lon="9.3771352"><ele>226.0</ele><time>2026-05-01T06:49:42.189Z</time></trkpt><trkpt lat="45.6576206" lon="9.3773025"><ele>226.0</ele><time>2026-05-01T06:49:43.197Z</time></trkpt><trkpt lat="45.6577731" lon="9.3774637"><ele>228.0</ele><time>2026-05-01T06:49:44.169Z</time></trkpt><trkpt lat="45.6579271" lon="9.3776302"><ele>230.0</ele><time>2026-05-01T06:49:45.17Z</time></trkpt><trkpt lat="45.6580783" lon="9.3778254"><ele>232.0</ele><time>2026-05-01T06:49:46.19Z</time></trkpt><trkpt lat="45.6582163" lon="9.3780382"><ele>232.0</ele><time>2026-05-01T06:49:47.188Z</time></trkpt><trkpt lat="45.6583454" lon="9.3782594"><ele>232.0</ele><time>2026-05-01T06:49:48.165Z</time></trkpt><trkpt lat="45.658477" lon="9.3784624"><ele>232.0</ele><time>2026-05-01T06:49:49.161Z</time></trkpt><trkpt lat="45.6585928" lon="9.3786709"><ele>233.0</ele><time>2026-05-01T06:49:50.169Z</time></trkpt><trkpt lat="45.6587373" lon="9.3788642"><ele>234.0</ele><time>2026-05-01T06:49:51.163Z</time></trkpt><trkpt lat="45.6588791" lon="9.379081"><ele>235.0</ele><time>2026-05-01T06:49:52.169Z</time></trkpt><trkpt lat="45.6590248" lon="9.3792939"><ele>235.0</ele><time>2026-05-01T06:49:53.167Z</time></trkpt><trkpt lat="45.6591712" lon="9.3795199"><ele>235.0</ele><time>2026-05-01T06:49:54.167Z</time></trkpt><trkpt lat="45.659312" lon="9.3797754"><ele>235.0</ele><time>2026-05-01T06:49:55.167Z</time></trkpt><trkpt lat="45.6594514" lon="9.3800363"><ele>234.0</ele><time>2026-05-01T06:49:56.165Z</time></trkpt><trkpt lat="45.6595978" lon="9.3803106"><ele>233.0</ele><time>2026-05-01T06:49:57.164Z</time></trkpt><trkpt lat="45.6597687" lon="9.3805668"><ele>233.0</ele><time>2026-05-01T06:49:58.167Z</time></trkpt><trkpt lat="45.6599507" lon="9.3808093"><ele>233.0</ele><time>2026-05-01T06:49:59.169Z</time></trkpt><trkpt lat="45.6601384" lon="9.3810386"><ele>234.5</ele><time>2026-05-01T06:50:00.175Z</time></trkpt><trkpt lat="45.6603273" lon="9.3812672"><ele>236.0</ele><time>2026-05-01T06:50:01.177Z</time></trkpt><trkpt lat="45.6605167" lon="9.3814977"><ele>236.0</ele><time>2026-05-01T06:50:02.173Z</time></trkpt><trkpt lat="45.6607067" lon="9.381726"><ele>236.0</ele><time>2026-05-01T06:50:03.171Z</time></trkpt><trkpt lat="45.6609041" lon="9.3819564"><ele>233.0</ele><time>2026-05-01T06:50:04.173Z</time></trkpt><trkpt lat="45.66111" lon="9.3821913"><ele>230.0</ele><time>2026-05-01T06:50:05.172Z</time></trkpt><trkpt lat="45.661311" lon="9.3824278"><ele>229.5</ele><time>2026-05-01T06:50:06.167Z</time></trkpt><trkpt lat="45.6615124" lon="9.3826468"><ele>229.0</ele><time>2026-05-01T06:50:07.171Z</time></trkpt><trkpt lat="45.6617161" lon="9.3828649"><ele>229.0</ele><time>2026-05-01T06:50:08.173Z</time></trkpt><trkpt lat="45.6619281" lon="9.3830807"><ele>229.0</ele><time>2026-05-01T06:50:09.176Z</time></trkpt><trkpt lat="45.6621234" lon="9.383286"><ele>229.0</ele><time>2026-05-01T06:50:10.197Z</time></trkpt><trkpt lat="45.6623134" lon="9.383466"><ele>229.0</ele><time>2026-05-01T06:50:11.181Z</time></trkpt><trkpt lat="45.6624954" lon="9.3836462"><ele>229.0</ele><time>2026-05-01T06:50:12.178Z</time></trkpt><trkpt lat="45.6626685" lon="9.3838204"><ele>229.66666666666666</ele><time>2026-05-01T06:50:13.175Z</time></trkpt><trkpt lat="45.6628498" lon="9.383993"><ele>230.33333333333331</ele><time>2026-05-01T06:50:14.177Z</time></trkpt><trkpt lat="45.6630302" lon="9.3841417"><ele>231.0</ele><time>2026-05-01T06:50:15.177Z</time></trkpt><trkpt lat="45.6631915" lon="9.3842835"><ele>231.0</ele><time>2026-05-01T06:50:16.17Z</time></trkpt><trkpt lat="45.6633494" lon="9.3844113"><ele>231.0</ele><time>2026-05-01T06:50:17.173Z</time></trkpt><trkpt lat="45.6635172" lon="9.3845346"><ele>231.0</ele><time>2026-05-01T06:50:18.183Z</time></trkpt><trkpt lat="45.6636677" lon="9.3846491"><ele>230.66666666666669</ele><time>2026-05-01T06:50:19.182Z</time></trkpt><trkpt lat="45.663821" lon="9.3847635"><ele>230.33333333333334</ele><time>2026-05-01T06:50:20.178Z</time></trkpt><trkpt lat="45.6639598" lon="9.3848958"><ele>230.0</ele><time>2026-05-01T06:50:21.182Z</time></trkpt><trkpt lat="45.664134" lon="9.3850312"><ele>230.0</ele><time>2026-05-01T06:50:22.183Z</time></trkpt><trkpt lat="45.6643" lon="9.3851728"><ele>230.0</ele><time>2026-05-01T06:50:23.182Z</time></trkpt><trkpt lat="45.6644522" lon="9.385317"><ele>230.0</ele><time>2026-05-01T06:50:24.182Z</time></trkpt><trkpt lat="45.6646028" lon="9.3854611"><ele>230.33333333333334</ele><time>2026-05-01T06:50:25.182Z</time></trkpt><trkpt lat="45.6647899" lon="9.3856"><ele>230.66666666666669</ele><time>2026-05-01T06:50:26.191Z</time></trkpt><trkpt lat="45.6649757" lon="9.3857444"><ele>231.0</ele><time>2026-05-01T06:50:27.179Z</time></trkpt><trkpt lat="45.6651496" lon="9.3858853"><ele>232.0</ele><time>2026-05-01T06:50:28.193Z</time></trkpt><trkpt lat="45.665325" lon="9.3860293"><ele>233.0</ele><time>2026-05-01T06:50:29.181Z</time></trkpt><trkpt lat="45.6654937" lon="9.3861812"><ele>234.0</ele><time>2026-05-01T06:50:30.185Z</time></trkpt><trkpt lat="45.6656784" lon="9.3863318"><ele>233.33333333333331</ele><time>2026-05-01T06:50:31.182Z</time></trkpt><trkpt lat="45.6658624" lon="9.3864865"><ele>232.66666666666666</ele><time>2026-05-01T06:50:32.19Z</time></trkpt><trkpt lat="45.6660621" lon="9.3866408"><ele>232.0</ele><time>2026-05-01T06:50:33.189Z</time></trkpt><trkpt lat="45.6662806" lon="9.386805"><ele>232.0</ele><time>2026-05-01T06:50:34.185Z</time></trkpt><trkpt lat="45.666495" lon="9.3869394"><ele>232.0</ele><time>2026-05-01T06:50:35.188Z</time></trkpt><trkpt lat="45.6667181" lon="9.3871027"><ele>233.0</ele><time>2026-05-01T06:50:36.184Z</time></trkpt><trkpt lat="45.6669253" lon="9.3872891"><ele>234.0</ele><time>2026-05-01T06:50:37.191Z</time></trkpt><trkpt lat="45.6671483" lon="9.3874771"><ele>234.0</ele><time>2026-05-01T06:50:38.184Z</time></trkpt><trkpt lat="45.6673971" lon="9.3876664"><ele>234.0</ele><time>2026-05-01T06:50:39.188Z</time></trkpt><trkpt lat="45.6676384" lon="9.3878611"><ele>235.0</ele><time>2026-05-01T06:50:40.193Z</time></trkpt><trkpt lat="45.6678725" lon="9.3880633"><ele>236.0</ele><time>2026-05-01T06:50:41.178Z</time></trkpt><trkpt lat="45.6680822" lon="9.3882636"><ele>236.0</ele><time>2026-05-01T06:50:42.185Z</time></trkpt><trkpt lat="45.6682996" lon="9.3884371"><ele>236.0</ele><time>2026-05-01T06:50:43.184Z</time></trkpt><trkpt lat="45.6685138" lon="9.3885852"><ele>235.66666666666669</ele><time>2026-05-01T06:50:44.187Z</time></trkpt><trkpt lat="45.6687033" lon="9.3887272"><ele>235.33333333333331</ele><time>2026-05-01T06:50:45.183Z</time></trkpt><trkpt lat="45.6688848" lon="9.3888619"><ele>235.0</ele><time>2026-05-01T06:50:46.188Z</time></trkpt><trkpt lat="45.6690534" lon="9.3890008"><ele>236.0</ele><time>2026-05-01T06:50:47.189Z</time></trkpt><trkpt lat="45.6692173" lon="9.3891529"><ele>237.0</ele><time>2026-05-01T06:50:48.182Z</time></trkpt><trkpt lat="45.6693794" lon="9.3892866"><ele>238.0</ele><time>2026-05-01T06:50:49.192Z</time></trkpt><trkpt lat="45.6695469" lon="9.3894016"><ele>238.33333333333331</ele><time>2026-05-01T06:50:50.188Z</time></trkpt><trkpt lat="45.6696951" lon="9.3895118"><ele>238.66666666666669</ele><time>2026-05-01T06:50:51.192Z</time></trkpt><trkpt lat="45.669842" lon="9.3896146"><ele>239.0</ele><time>2026-05-01T06:50:52.196Z</time></trkpt><trkpt lat="45.6700007" lon="9.3896954"><ele>239.33333333333334</ele><time>2026-05-01T06:50:53.191Z</time></trkpt><trkpt lat="45.6701723" lon="9.3897872"><ele>239.66666666666669</ele><time>2026-05-01T06:50:54.187Z</time></trkpt><trkpt lat="45.6703427" lon="9.3898949"><ele>240.0</ele><time>2026-05-01T06:50:55.191Z</time></trkpt><trkpt lat="45.6705091" lon="9.3900142"><ele>240.0</ele><time>2026-05-01T06:50:56.187Z</time></trkpt><trkpt lat="45.6706753" lon="9.3901361"><ele>240.0</ele><time>2026-05-01T06:50:57.192Z</time></trkpt><trkpt lat="45.670836" lon="9.3902643"><ele>240.0</ele><time>2026-05-01T06:50:58.217Z</time></trkpt><trkpt lat="45.6709891" lon="9.3903771"><ele>240.0</ele><time>2026-05-01T06:50:59.201Z</time></trkpt><trkpt lat="45.6711284" lon="9.3904811"><ele>240.0</ele><time>2026-05-01T06:51:00.197Z</time></trkpt><trkpt lat="45.6712576" lon="9.3905777"><ele>240.0</ele><time>2026-05-01T06:51:01.199Z</time></trkpt><trkpt lat="45.6713785" lon="9.3906592"><ele>240.0</ele><time>2026-05-01T06:51:02.206Z</time></trkpt><trkpt lat="45.6714824" lon="9.3907401"><ele>240.2</ele><time>2026-05-01T06:51:03.221Z</time></trkpt><trkpt lat="45.6715764" lon="9.3908317"><ele>240.4</ele><time>2026-05-01T06:51:04.199Z</time></trkpt><trkpt lat="45.6716638" lon="9.3909124"><ele>240.60000000000002</ele><time>2026-05-01T06:51:05.204Z</time></trkpt><trkpt lat="45.6717424" lon="9.3910043"><ele>240.8</ele><time>2026-05-01T06:51:06.201Z</time></trkpt><trkpt lat="45.6718128" lon="9.3910962"><ele>241.0</ele><time>2026-05-01T06:51:07.206Z</time></trkpt><trkpt lat="45.6718822" lon="9.3911802"><ele>240.99999999999997</ele><time>2026-05-01T06:51:08.208Z</time></trkpt><trkpt lat="45.6719408" lon="9.3912454"><ele>241.0</ele><time>2026-05-01T06:51:09.203Z</time></trkpt><trkpt lat="45.6719925" lon="9.391303"><ele>241.0</ele><time>2026-05-01T06:51:10.202Z</time></trkpt><trkpt lat="45.6720807" lon="9.3914103"><ele>241.0</ele><time>2026-05-01T06:51:12.209Z</time></trkpt><trkpt lat="45.6721342" lon="9.3914647"><ele>240.99999999999997</ele><time>2026-05-01T06:51:13.199Z</time></trkpt><trkpt lat="45.6721957" lon="9.3915334"><ele>241.0</ele><time>2026-05-01T06:51:14.204Z</time></trkpt><trkpt lat="45.6722679" lon="9.391616"><ele>241.0</ele><time>2026-05-01T06:51:15.209Z</time></trkpt><trkpt lat="45.6723424" lon="9.391712"><ele>241.00000000000003</ele><time>2026-05-01T06:51:16.209Z</time></trkpt><trkpt lat="45.6724201" lon="9.391812"><ele>241.00000000000003</ele><time>2026-05-01T06:51:17.209Z</time></trkpt><trkpt lat="45.672511" lon="9.3919227"><ele>241.0</ele><time>2026-05-01T06:51:18.211Z</time></trkpt><trkpt lat="45.6726061" lon="9.3920373"><ele>241.0</ele><time>2026-05-01T06:51:19.207Z</time></trkpt><trkpt lat="45.6727033" lon="9.3921524"><ele>242.0</ele><time>2026-05-01T06:51:20.202Z</time></trkpt><trkpt lat="45.6728021" lon="9.392282"><ele>243.0</ele><time>2026-05-01T06:51:21.212Z</time></trkpt><trkpt lat="45.6729128" lon="9.3924328"><ele>244.0</ele><time>2026-05-01T06:51:22.207Z</time></trkpt><trkpt lat="45.6730507" lon="9.3926236"><ele>244.0</ele><time>2026-05-01T06:51:23.211Z</time></trkpt><trkpt lat="45.6731893" lon="9.3928061"><ele>244.0</ele><time>2026-05-01T06:51:24.206Z</time></trkpt><trkpt lat="45.6733294" lon="9.3930144"><ele>244.0</ele><time>2026-05-01T06:51:25.205Z</time></trkpt><trkpt lat="45.6734548" lon="9.3932376"><ele>244.33333333333331</ele><time>2026-05-01T06:51:26.207Z</time></trkpt><trkpt lat="45.6735836" lon="9.393466"><ele>244.66666666666669</ele><time>2026-05-01T06:51:27.205Z</time></trkpt><trkpt lat="45.6737324" lon="9.3936931"><ele>245.0</ele><time>2026-05-01T06:51:28.207Z</time></trkpt><trkpt lat="45.6738667" lon="9.3939099"><ele>245.0</ele><time>2026-05-01T06:51:29.2Z</time></trkpt><trkpt lat="45.6739993" lon="9.3941123"><ele>245.0</ele><time>2026-05-01T06:51:30.201Z</time></trkpt><trkpt lat="45.674148" lon="9.3943021"><ele>245.0</ele><time>2026-05-01T06:51:31.202Z</time></trkpt><trkpt lat="45.6743052" lon="9.3944865"><ele>244.66666666666669</ele><time>2026-05-01T06:51:32.204Z</time></trkpt><trkpt lat="45.6744703" lon="9.3946461"><ele>244.33333333333331</ele><time>2026-05-01T06:51:33.201Z</time></trkpt><trkpt lat="45.6746445" lon="9.3948088"><ele>244.0</ele><time>2026-05-01T06:51:34.211Z</time></trkpt><trkpt lat="45.6748134" lon="9.3949586"><ele>244.0</ele><time>2026-05-01T06:51:35.203Z</time></trkpt><trkpt lat="45.6749741" lon="9.3950986"><ele>244.0</ele><time>2026-05-01T06:51:36.205Z</time></trkpt><trkpt lat="45.6751536" lon="9.3952292"><ele>244.0</ele><time>2026-05-01T06:51:37.207Z</time></trkpt><trkpt lat="45.6753491" lon="9.3953536"><ele>245.0</ele><time>2026-05-01T06:51:38.207Z</time></trkpt><trkpt lat="45.6755338" lon="9.3954724"><ele>246.0</ele><time>2026-05-01T06:51:39.2Z</time></trkpt><trkpt lat="45.6757178" lon="9.3955766"><ele>247.0</ele><time>2026-05-01T06:51:40.209Z</time></trkpt><trkpt lat="45.6759041" lon="9.39567"><ele>247.0</ele><time>2026-05-01T06:51:41.203Z</time></trkpt><trkpt lat="45.6760968" lon="9.3957665"><ele>247.0</ele><time>2026-05-01T06:51:42.206Z</time></trkpt><trkpt lat="45.6762964" lon="9.3958553"><ele>247.0</ele><time>2026-05-01T06:51:43.205Z</time></trkpt><trkpt lat="45.6764995" lon="9.3959412"><ele>247.66666666666666</ele><time>2026-05-01T06:51:44.206Z</time></trkpt><trkpt lat="45.676693" lon="9.396021"><ele>248.33333333333331</ele><time>2026-05-01T06:51:45.205Z</time></trkpt><trkpt lat="45.676907" lon="9.3960857"><ele>249.0</ele><time>2026-05-01T06:51:46.212Z</time></trkpt><trkpt lat="45.6771077" lon="9.3961366"><ele>249.0</ele><time>2026-05-01T06:51:47.21Z</time></trkpt><trkpt lat="45.6772809" lon="9.396191"><ele>249.0</ele><time>2026-05-01T06:51:48.207Z</time></trkpt><trkpt lat="45.6774605" lon="9.3962549"><ele>249.0</ele><time>2026-05-01T06:51:49.231Z</time></trkpt><trkpt lat="45.6776451" lon="9.3963329"><ele>249.0</ele><time>2026-05-01T06:51:50.207Z</time></trkpt><trkpt lat="45.6778358" lon="9.3964075"><ele>249.0</ele><time>2026-05-01T06:51:51.206Z</time></trkpt><trkpt lat="45.6780197" lon="9.3964803"><ele>249.0</ele><time>2026-05-01T06:51:52.215Z</time></trkpt><trkpt lat="45.6782103" lon="9.3965527"><ele>249.0</ele><time>2026-05-01T06:51:53.211Z</time></trkpt><trkpt lat="45.6784153" lon="9.396626"><ele>249.0</ele><time>2026-05-01T06:51:54.205Z</time></trkpt><trkpt lat="45.6785961" lon="9.3966992"><ele>249.0</ele><time>2026-05-01T06:51:55.21Z</time></trkpt><trkpt lat="45.6787666" lon="9.3967613"><ele>249.25</ele><time>2026-05-01T06:51:56.207Z</time></trkpt><trkpt lat="45.6789146" lon="9.3968129"><ele>249.5</ele><time>2026-05-01T06:51:57.21Z</time></trkpt><trkpt lat="45.6790477" lon="9.3968468"><ele>249.75</ele><time>2026-05-01T06:51:58.209Z</time></trkpt><trkpt lat="45.6791734" lon="9.3968735"><ele>250.0</ele><time>2026-05-01T06:51:59.209Z</time></trkpt><trkpt lat="45.6792669" lon="9.3969146"><ele>250.0</ele><time>2026-05-01T06:52:00.199Z</time></trkpt><trkpt lat="45.6793665" lon="9.3969789"><ele>250.0</ele><time>2026-05-01T06:52:01.205Z</time></trkpt><trkpt lat="45.6794335" lon="9.3970535"><ele>250.0</ele><time>2026-05-01T06:52:02.204Z</time></trkpt><trkpt lat="45.6794901" lon="9.3971562"><ele>250.0</ele><time>2026-05-01T06:52:03.209Z</time></trkpt><trkpt lat="45.6795644" lon="9.3972144"><ele>250.0</ele><time>2026-05-01T06:52:04.208Z</time></trkpt><trkpt lat="45.679687" lon="9.3971995"><ele>250.5</ele><time>2026-05-01T06:52:05.204Z</time></trkpt><trkpt lat="45.6798054" lon="9.3971395"><ele>251.0</ele><time>2026-05-01T06:52:06.203Z</time></trkpt><trkpt lat="45.6799251" lon="9.3971183"><ele>251.5</ele><time>2026-05-01T06:52:07.199Z</time></trkpt><trkpt lat="45.6800612" lon="9.3971126"><ele>252.0</ele><time>2026-05-01T06:52:08.194Z</time></trkpt><trkpt lat="45.6802033" lon="9.3971558"><ele>252.5</ele><time>2026-05-01T06:52:09.198Z</time></trkpt><trkpt lat="45.6803258" lon="9.3972382"><ele>253.0</ele><time>2026-05-01T06:52:10.19Z</time></trkpt><trkpt lat="45.6804676" lon="9.397314"><ele>253.5</ele><time>2026-05-01T06:52:11.208Z</time></trkpt><trkpt lat="45.6806169" lon="9.3973906"><ele>254.0</ele><time>2026-05-01T06:52:12.205Z</time></trkpt><trkpt lat="45.6807954" lon="9.3974411"><ele>254.0</ele><time>2026-05-01T06:52:13.202Z</time></trkpt><trkpt lat="45.6809735" lon="9.3975013"><ele>254.0</ele><time>2026-05-01T06:52:14.205Z</time></trkpt><trkpt lat="45.6811521" lon="9.3975697"><ele>254.0</ele><time>2026-05-01T06:52:15.198Z</time></trkpt><trkpt lat="45.6813341" lon="9.397626"><ele>254.33333333333334</ele><time>2026-05-01T06:52:16.202Z</time></trkpt><trkpt lat="45.6815179" lon="9.3976884"><ele>254.66666666666669</ele><time>2026-05-01T06:52:17.21Z</time></trkpt><trkpt lat="45.6817026" lon="9.397758"><ele>255.0</ele><time>2026-05-01T06:52:18.2Z</time></trkpt><trkpt lat="45.6818765" lon="9.397842"><ele>255.33333333333331</ele><time>2026-05-01T06:52:19.202Z</time></trkpt><trkpt lat="45.6820709" lon="9.397887"><ele>255.66666666666666</ele><time>2026-05-01T06:52:20.233Z</time></trkpt><trkpt lat="45.6822397" lon="9.3979493"><ele>256.0</ele><time>2026-05-01T06:52:21.224Z</time></trkpt><trkpt lat="45.6823717" lon="9.3980057"><ele>256.0</ele><time>2026-05-01T06:52:22.202Z</time></trkpt><trkpt lat="45.682498" lon="9.3980585"><ele>256.0</ele><time>2026-05-01T06:52:23.2Z</time></trkpt><trkpt lat="45.6826068" lon="9.3981473"><ele>256.0</ele><time>2026-05-01T06:52:24.204Z</time></trkpt><trkpt lat="45.6827004" lon="9.3982355"><ele>256.0</ele><time>2026-05-01T06:52:25.198Z</time></trkpt><trkpt lat="45.6827551" lon="9.3983525"><ele>255.4</ele><time>2026-05-01T06:52:26.202Z</time></trkpt><trkpt lat="45.6828027" lon="9.3984639"><ele>254.8</ele><time>2026-05-01T06:52:27.197Z</time></trkpt><trkpt lat="45.6828713" lon="9.3985268"><ele>254.20000000000002</ele><time>2026-05-01T06:52:28.204Z</time></trkpt><trkpt lat="45.6829657" lon="9.3985453"><ele>253.60000000000002</ele><time>2026-05-01T06:52:29.201Z</time></trkpt><trkpt lat="45.6830742" lon="9.3985091"><ele>253.0</ele><time>2026-05-01T06:52:30.2Z</time></trkpt><trkpt lat="45.6831902" lon="9.3984747"><ele>253.0</ele><time>2026-05-01T06:52:31.198Z</time></trkpt><trkpt lat="45.6832963" lon="9.3984428"><ele>253.0</ele><time>2026-05-01T06:52:32.22Z</time></trkpt><trkpt lat="45.6834363" lon="9.3984562"><ele>253.0</ele><time>2026-05-01T06:52:33.193Z</time></trkpt><trkpt lat="45.6836274" lon="9.3985059"><ele>253.0</ele><time>2026-05-01T06:52:34.203Z</time></trkpt><trkpt lat="45.683816" lon="9.3985665"><ele>253.0</ele><time>2026-05-01T06:52:35.203Z</time></trkpt><trkpt lat="45.6840017" lon="9.3986226"><ele>253.0</ele><time>2026-05-01T06:52:36.206Z</time></trkpt><trkpt lat="45.6841739" lon="9.3986849"><ele>253.0</ele><time>2026-05-01T06:52:37.202Z</time></trkpt><trkpt lat="45.684352" lon="9.3987439"><ele>253.33333333333331</ele><time>2026-05-01T06:52:38.201Z</time></trkpt><trkpt lat="45.6845324" lon="9.3988117"><ele>253.66666666666669</ele><time>2026-05-01T06:52:39.208Z</time></trkpt><trkpt lat="45.6847251" lon="9.3988831"><ele>254.0</ele><time>2026-05-01T06:52:40.204Z</time></trkpt><trkpt lat="45.6849186" lon="9.398957"><ele>253.66666666666669</ele><time>2026-05-01T06:52:41.205Z</time></trkpt><trkpt lat="45.6851127" lon="9.3990245"><ele>253.33333333333331</ele><time>2026-05-01T06:52:42.209Z</time></trkpt><trkpt lat="45.685319" lon="9.399092"><ele>253.0</ele><time>2026-05-01T06:52:43.205Z</time></trkpt><trkpt lat="45.6855268" lon="9.3991652"><ele>253.0</ele><time>2026-05-01T06:52:44.211Z</time></trkpt><trkpt lat="45.6857068" lon="9.3992384"><ele>253.0</ele><time>2026-05-01T06:52:45.209Z</time></trkpt><trkpt lat="45.6858916" lon="9.3993132"><ele>253.0</ele><time>2026-05-01T06:52:46.227Z</time></trkpt><trkpt lat="45.6861051" lon="9.3993888"><ele>254.33333333333331</ele><time>2026-05-01T06:52:47.205Z</time></trkpt><trkpt lat="45.6863141" lon="9.3994591"><ele>255.66666666666669</ele><time>2026-05-01T06:52:48.204Z</time></trkpt><trkpt lat="45.6865088" lon="9.3995199"><ele>257.0</ele><time>2026-05-01T06:52:49.21Z</time></trkpt><trkpt lat="45.6867113" lon="9.3995985"><ele>257.0</ele><time>2026-05-01T06:52:50.209Z</time></trkpt><trkpt lat="45.6869097" lon="9.3996697"><ele>257.0</ele><time>2026-05-01T06:52:51.207Z</time></trkpt><trkpt lat="45.6871097" lon="9.3997396"><ele>257.0</ele><time>2026-05-01T06:52:52.229Z</time></trkpt><trkpt lat="45.6873086" lon="9.3998098"><ele>257.33333333333337</ele><time>2026-05-01T06:52:53.229Z</time></trkpt><trkpt lat="45.6875003" lon="9.3998845"><ele>257.6666666666667</ele><time>2026-05-01T06:52:54.222Z</time></trkpt><trkpt lat="45.6876614" lon="9.399957"><ele>258.0</ele><time>2026-05-01T06:52:55.232Z</time></trkpt><trkpt lat="45.6878272" lon="9.4000105"><ele>259.0</ele><time>2026-05-01T06:52:56.231Z</time></trkpt><trkpt lat="45.6879714" lon="9.4000527"><ele>260.0</ele><time>2026-05-01T06:52:57.223Z</time></trkpt><trkpt lat="45.6880895" lon="9.4001044"><ele>261.0</ele><time>2026-05-01T06:52:58.227Z</time></trkpt><trkpt lat="45.6881975" lon="9.4001538"><ele>262.0</ele><time>2026-05-01T06:52:59.231Z</time></trkpt><trkpt lat="45.6883006" lon="9.40021"><ele>262.0</ele><time>2026-05-01T06:53:00.231Z</time></trkpt><trkpt lat="45.6883825" lon="9.4002662"><ele>262.0</ele><time>2026-05-01T06:53:01.234Z</time></trkpt><trkpt lat="45.6884617" lon="9.4003353"><ele>262.0</ele><time>2026-05-01T06:53:02.238Z</time></trkpt><trkpt lat="45.6885211" lon="9.4004206"><ele>262.0</ele><time>2026-05-01T06:53:03.226Z</time></trkpt><trkpt lat="45.6885559" lon="9.4005163"><ele>262.0</ele><time>2026-05-01T06:53:04.236Z</time></trkpt><trkpt lat="45.6886593" lon="9.4006121"><ele>262.2</ele><time>2026-05-01T06:53:06.234Z</time></trkpt><trkpt lat="45.6887343" lon="9.4006094"><ele>262.4</ele><time>2026-05-01T06:53:07.23Z</time></trkpt><trkpt lat="45.6888203" lon="9.4005693"><ele>262.6</ele><time>2026-05-01T06:53:08.205Z</time></trkpt><trkpt lat="45.6889097" lon="9.4005099"><ele>262.8</ele><time>2026-05-01T06:53:09.22Z</time></trkpt><trkpt lat="45.6890034" lon="9.4004773"><ele>263.0</ele><time>2026-05-01T06:53:10.223Z</time></trkpt><trkpt lat="45.6891145" lon="9.4004921"><ele>262.6666666666667</ele><time>2026-05-01T06:53:11.228Z</time></trkpt><trkpt lat="45.6892511" lon="9.4005294"><ele>262.3333333333333</ele><time>2026-05-01T06:53:12.216Z</time></trkpt><trkpt lat="45.6894183" lon="9.4005831"><ele>262.0</ele><time>2026-05-01T06:53:13.209Z</time></trkpt><trkpt lat="45.6896203" lon="9.4006457"><ele>262.0</ele><time>2026-05-01T06:53:14.231Z</time></trkpt><trkpt lat="45.6898159" lon="9.4006983"><ele>262.0</ele><time>2026-05-01T06:53:15.233Z</time></trkpt><trkpt lat="45.6899948" lon="9.400788"><ele>262.0</ele><time>2026-05-01T06:53:16.226Z</time></trkpt><trkpt lat="45.690191" lon="9.4009069"><ele>263.5</ele><time>2026-05-01T06:53:17.215Z</time></trkpt><trkpt lat="45.6904069" lon="9.4010042"><ele>265.0</ele><time>2026-05-01T06:53:18.213Z</time></trkpt><trkpt lat="45.690619" lon="9.4011111"><ele>265.0</ele><time>2026-05-01T06:53:19.21Z</time></trkpt><trkpt lat="45.6908308" lon="9.4012152"><ele>265.0</ele><time>2026-05-01T06:53:20.205Z</time></trkpt><trkpt lat="45.6910423" lon="9.4013279"><ele>266.0</ele><time>2026-05-01T06:53:21.205Z</time></trkpt><trkpt lat="45.6912372" lon="9.4014371"><ele>267.0</ele><time>2026-05-01T06:53:22.222Z</time></trkpt><trkpt lat="45.6914203" lon="9.40154"><ele>268.0</ele><time>2026-05-01T06:53:23.221Z</time></trkpt><trkpt lat="45.691619" lon="9.4016228"><ele>268.0</ele><time>2026-05-01T06:53:24.201Z</time></trkpt><trkpt lat="45.6917931" lon="9.4017161"><ele>268.0</ele><time>2026-05-01T06:53:25.204Z</time></trkpt><trkpt lat="45.6919873" lon="9.4018058"><ele>268.0</ele><time>2026-05-01T06:53:26.205Z</time></trkpt><trkpt lat="45.69217" lon="9.4018967"><ele>268.3333333333333</ele><time>2026-05-01T06:53:27.204Z</time></trkpt><trkpt lat="45.6923451" lon="9.401982"><ele>268.6666666666667</ele><time>2026-05-01T06:53:28.198Z</time></trkpt><trkpt lat="45.6925134" lon="9.4020738"><ele>269.0</ele><time>2026-05-01T06:53:29.199Z</time></trkpt><trkpt lat="45.6926632" lon="9.402171"><ele>269.0</ele><time>2026-05-01T06:53:30.2Z</time></trkpt><trkpt lat="45.6928284" lon="9.4022464"><ele>269.0</ele><time>2026-05-01T06:53:31.209Z</time></trkpt><trkpt lat="45.6929832" lon="9.4023016"><ele>269.0</ele><time>2026-05-01T06:53:32.203Z</time></trkpt><trkpt lat="45.693155" lon="9.4023152"><ele>269.0</ele><time>2026-05-01T06:53:33.211Z</time></trkpt><trkpt lat="45.6933049" lon="9.4023326"><ele>269.0</ele><time>2026-05-01T06:53:34.199Z</time></trkpt><trkpt lat="45.6934863" lon="9.4023026"><ele>269.0</ele><time>2026-05-01T06:53:35.205Z</time></trkpt><trkpt lat="45.6936629" lon="9.4022786"><ele>269.33333333333337</ele><time>2026-05-01T06:53:36.199Z</time></trkpt><trkpt lat="45.693845" lon="9.4022807"><ele>269.6666666666667</ele><time>2026-05-01T06:53:37.221Z</time></trkpt><trkpt lat="45.6940155" lon="9.4023331"><ele>270.0</ele><time>2026-05-01T06:53:38.205Z</time></trkpt><trkpt lat="45.6941869" lon="9.4024209"><ele>270.0</ele><time>2026-05-01T06:53:39.203Z</time></trkpt><trkpt lat="45.6943473" lon="9.4025118"><ele>270.0</ele><time>2026-05-01T06:53:40.204Z</time></trkpt><trkpt lat="45.6944968" lon="9.4026279"><ele>270.0</ele><time>2026-05-01T06:53:41.203Z</time></trkpt><trkpt lat="45.6946415" lon="9.4027428"><ele>271.0</ele><time>2026-05-01T06:53:42.203Z</time></trkpt><trkpt lat="45.6947902" lon="9.40289"><ele>272.0</ele><time>2026-05-01T06:53:43.203Z</time></trkpt><trkpt lat="45.6949397" lon="9.4030284"><ele>273.0</ele><time>2026-05-01T06:53:44.204Z</time></trkpt><trkpt lat="45.6950885" lon="9.4031789"><ele>273.0</ele><time>2026-05-01T06:53:45.205Z</time></trkpt><trkpt lat="45.6952371" lon="9.4033438"><ele>273.0</ele><time>2026-05-01T06:53:46.201Z</time></trkpt><trkpt lat="45.6953858" lon="9.403511"><ele>273.0</ele><time>2026-05-01T06:53:47.202Z</time></trkpt><trkpt lat="45.6955401" lon="9.4036664"><ele>273.3333333333333</ele><time>2026-05-01T06:53:48.212Z</time></trkpt><trkpt lat="45.6956975" lon="9.4038371"><ele>273.66666666666663</ele><time>2026-05-01T06:53:49.21Z</time></trkpt><trkpt lat="45.6958531" lon="9.4040025"><ele>274.0</ele><time>2026-05-01T06:53:50.207Z</time></trkpt><trkpt lat="45.6960027" lon="9.4041644"><ele>274.66666666666663</ele><time>2026-05-01T06:53:51.212Z</time></trkpt><trkpt lat="45.6961562" lon="9.4043108"><ele>275.3333333333333</ele><time>2026-05-01T06:53:52.21Z</time></trkpt><trkpt lat="45.6963156" lon="9.4044573"><ele>276.0</ele><time>2026-05-01T06:53:53.21Z</time></trkpt><trkpt lat="45.6964653" lon="9.4046011"><ele>276.0</ele><time>2026-05-01T06:53:54.209Z</time></trkpt><trkpt lat="45.6966091" lon="9.4047558"><ele>276.0</ele><time>2026-05-01T06:53:55.219Z</time></trkpt><trkpt lat="45.696766" lon="9.4048946"><ele>276.0</ele><time>2026-05-01T06:53:56.208Z</time></trkpt><trkpt lat="45.6969276" lon="9.4050392"><ele>276.0</ele><time>2026-05-01T06:53:57.208Z</time></trkpt><trkpt lat="45.6971202" lon="9.4051566"><ele>276.0</ele><time>2026-05-01T06:53:58.206Z</time></trkpt><trkpt lat="45.6972622" lon="9.4053046"><ele>276.0</ele><time>2026-05-01T06:53:59.214Z</time></trkpt><trkpt lat="45.6973921" lon="9.4054552"><ele>276.3333333333333</ele><time>2026-05-01T06:54:00.207Z</time></trkpt><trkpt lat="45.6975335" lon="9.405604"><ele>276.66666666666663</ele><time>2026-05-01T06:54:01.21Z</time></trkpt><trkpt lat="45.6976604" lon="9.4057583"><ele>277.0</ele><time>2026-05-01T06:54:02.203Z</time></trkpt><trkpt lat="45.697789" lon="9.4058861"><ele>277.25</ele><time>2026-05-01T06:54:03.212Z</time></trkpt><trkpt lat="45.6979025" lon="9.4060117"><ele>277.5</ele><time>2026-05-01T06:54:04.213Z</time></trkpt><trkpt lat="45.6980001" lon="9.4061335"><ele>277.75</ele><time>2026-05-01T06:54:05.213Z</time></trkpt><trkpt lat="45.6981014" lon="9.4062398"><ele>278.0</ele><time>2026-05-01T06:54:06.208Z</time></trkpt><trkpt lat="45.6981882" lon="9.406353"><ele>278.4</ele><time>2026-05-01T06:54:07.21Z</time></trkpt><trkpt lat="45.6982642" lon="9.4064427"><ele>278.8</ele><time>2026-05-01T06:54:08.212Z</time></trkpt><trkpt lat="45.6982879" lon="9.406574"><ele>279.2</ele><time>2026-05-01T06:54:10.206Z</time></trkpt><trkpt lat="45.6983534" lon="9.406705"><ele>279.6</ele><time>2026-05-01T06:54:13.223Z</time></trkpt><trkpt lat="45.6984175" lon="9.4068362"><ele>280.0</ele><time>2026-05-01T06:54:15.213Z</time></trkpt><trkpt lat="45.69849" lon="9.4068905"><ele>280.0</ele><time>2026-05-01T06:54:16.22Z</time></trkpt><trkpt lat="45.6985761" lon="9.4069355"><ele>280.0</ele><time>2026-05-01T06:54:17.215Z</time></trkpt><trkpt lat="45.6986649" lon="9.4069846"><ele>280.0</ele><time>2026-05-01T06:54:18.21Z</time></trkpt><trkpt lat="45.6987545" lon="9.4070408"><ele>280.0</ele><time>2026-05-01T06:54:19.211Z</time></trkpt><trkpt lat="45.6988425" lon="9.4071055"><ele>280.0</ele><time>2026-05-01T06:54:20.204Z</time></trkpt><trkpt lat="45.69893" lon="9.4071904"><ele>280.8</ele><time>2026-05-01T06:54:21.207Z</time></trkpt><trkpt lat="45.6990123" lon="9.4072932"><ele>281.6</ele><time>2026-05-01T06:54:22.214Z</time></trkpt><trkpt lat="45.699092" lon="9.4073958"><ele>282.4</ele><time>2026-05-01T06:54:23.216Z</time></trkpt><trkpt lat="45.6991674" lon="9.4075057"><ele>283.2</ele><time>2026-05-01T06:54:24.214Z</time></trkpt><trkpt lat="45.6992414" lon="9.4076199"><ele>284.0</ele><time>2026-05-01T06:54:25.214Z</time></trkpt><trkpt lat="45.6993193" lon="9.4077401"><ele>284.0</ele><time>2026-05-01T06:54:26.211Z</time></trkpt><trkpt lat="45.6994008" lon="9.4078522"><ele>284.0</ele><time>2026-05-01T06:54:27.216Z</time></trkpt><trkpt lat="45.69948" lon="9.4079543"><ele>284.0</ele><time>2026-05-01T06:54:28.215Z</time></trkpt><trkpt lat="45.6995508" lon="9.4080526"><ele>284.0</ele><time>2026-05-01T06:54:29.215Z</time></trkpt><trkpt lat="45.6996287" lon="9.4081557"><ele>284.0</ele><time>2026-05-01T06:54:30.216Z</time></trkpt><trkpt lat="45.6997104" lon="9.4082674"><ele>284.75</ele><time>2026-05-01T06:54:31.216Z</time></trkpt><trkpt lat="45.6997994" lon="9.4083875"><ele>285.5</ele><time>2026-05-01T06:54:32.211Z</time></trkpt><trkpt lat="45.6998849" lon="9.4085038"><ele>286.25</ele><time>2026-05-01T06:54:33.215Z</time></trkpt><trkpt lat="45.6999673" lon="9.4086256"><ele>287.0</ele><time>2026-05-01T06:54:34.211Z</time></trkpt><trkpt lat="45.7000493" lon="9.4087283"><ele>287.0</ele><time>2026-05-01T06:54:35.21Z</time></trkpt><trkpt lat="45.7001279" lon="9.4088203"><ele>287.0</ele><time>2026-05-01T06:54:36.213Z</time></trkpt><trkpt lat="45.7002221" lon="9.4089277"><ele>287.0</ele><time>2026-05-01T06:54:37.207Z</time></trkpt><trkpt lat="45.7003307" lon="9.4090533"><ele>287.0</ele><time>2026-05-01T06:54:38.212Z</time></trkpt><trkpt lat="45.7004496" lon="9.4091949"><ele>286.33333333333337</ele><time>2026-05-01T06:54:39.207Z</time></trkpt><trkpt lat="45.7006173" lon="9.4093749"><ele>285.6666666666667</ele><time>2026-05-01T06:54:40.207Z</time></trkpt><trkpt lat="45.70075" lon="9.4095474"><ele>285.0</ele><time>2026-05-01T06:54:41.213Z</time></trkpt><trkpt lat="45.7008923" lon="9.4097149"><ele>284.3333333333333</ele><time>2026-05-01T06:54:42.212Z</time></trkpt><trkpt lat="45.7010304" lon="9.4098725"><ele>283.66666666666663</ele><time>2026-05-01T06:54:43.211Z</time></trkpt><trkpt lat="45.7011718" lon="9.4100031"><ele>283.0</ele><time>2026-05-01T06:54:44.213Z</time></trkpt><trkpt lat="45.7012668" lon="9.4101396"><ele>283.0</ele><time>2026-05-01T06:54:45.239Z</time></trkpt><trkpt lat="45.7013602" lon="9.4102515"><ele>283.0</ele><time>2026-05-01T06:54:46.217Z</time></trkpt><trkpt lat="45.7014454" lon="9.4103741"><ele>283.0</ele><time>2026-05-01T06:54:47.219Z</time></trkpt><trkpt lat="45.7015438" lon="9.4105188"><ele>283.0</ele><time>2026-05-01T06:54:48.224Z</time></trkpt><trkpt lat="45.7016565" lon="9.4106418"><ele>284.25</ele><time>2026-05-01T06:54:49.225Z</time></trkpt><trkpt lat="45.7017735" lon="9.4107503"><ele>285.5</ele><time>2026-05-01T06:54:50.218Z</time></trkpt><trkpt lat="45.7018732" lon="9.4108336"><ele>286.75</ele><time>2026-05-01T06:54:51.209Z</time></trkpt><trkpt lat="45.7020107" lon="9.4109025"><ele>288.0</ele><time>2026-05-01T06:54:52.22Z</time></trkpt><trkpt lat="45.7021403" lon="9.4109527"><ele>288.0</ele><time>2026-05-01T06:54:53.216Z</time></trkpt><trkpt lat="45.7022794" lon="9.4110133"><ele>288.0</ele><time>2026-05-01T06:54:54.22Z</time></trkpt><trkpt lat="45.7024277" lon="9.4110595"><ele>288.0</ele><time>2026-05-01T06:54:55.209Z</time></trkpt><trkpt lat="45.7025689" lon="9.4111214"><ele>288.0</ele><time>2026-05-01T06:54:56.213Z</time></trkpt><trkpt lat="45.7027373" lon="9.4111966"><ele>288.6666666666667</ele><time>2026-05-01T06:54:57.212Z</time></trkpt><trkpt lat="45.7028968" lon="9.411298"><ele>289.33333333333337</ele><time>2026-05-01T06:54:58.209Z</time></trkpt><trkpt lat="45.7030719" lon="9.4113801"><ele>290.0</ele><time>2026-05-01T06:54:59.205Z</time></trkpt><trkpt lat="45.7032487" lon="9.4114653"><ele>290.0</ele><time>2026-05-01T06:55:00.217Z</time></trkpt><trkpt lat="45.7034077" lon="9.4115499"><ele>290.0</ele><time>2026-05-01T06:55:01.211Z</time></trkpt><trkpt lat="45.7035591" lon="9.4115903"><ele>290.0</ele><time>2026-05-01T06:55:02.214Z</time></trkpt><trkpt lat="45.7037027" lon="9.4116105"><ele>289.25</ele><time>2026-05-01T06:55:03.241Z</time></trkpt><trkpt lat="45.7038544" lon="9.4116141"><ele>288.5</ele><time>2026-05-01T06:55:04.216Z</time></trkpt><trkpt lat="45.7039884" lon="9.411599"><ele>287.75</ele><time>2026-05-01T06:55:05.214Z</time></trkpt><trkpt lat="45.7041176" lon="9.4115768"><ele>287.0</ele><time>2026-05-01T06:55:06.216Z</time></trkpt><trkpt lat="45.7042501" lon="9.4115349"><ele>287.0</ele><time>2026-05-01T06:55:07.211Z</time></trkpt><trkpt lat="45.7043646" lon="9.411507"><ele>287.0</ele><time>2026-05-01T06:55:08.22Z</time></trkpt><trkpt lat="45.7044838" lon="9.4114518"><ele>287.0</ele><time>2026-05-01T06:55:09.221Z</time></trkpt><trkpt lat="45.7046032" lon="9.4114115"><ele>287.0</ele><time>2026-05-01T06:55:10.219Z</time></trkpt><trkpt lat="45.7047126" lon="9.4113481"><ele>287.75</ele><time>2026-05-01T06:55:11.222Z</time></trkpt><trkpt lat="45.7048296" lon="9.4112675"><ele>288.5</ele><time>2026-05-01T06:55:12.222Z</time></trkpt><trkpt lat="45.7049589" lon="9.4111378"><ele>289.25</ele><time>2026-05-01T06:55:13.21Z</time></trkpt><trkpt lat="45.7050879" lon="9.4110141"><ele>290.0</ele><time>2026-05-01T06:55:14.21Z</time></trkpt><trkpt lat="45.7052205" lon="9.4108643"><ele>291.6666666666667</ele><time>2026-05-01T06:55:15.212Z</time></trkpt><trkpt lat="45.7053558" lon="9.4107446"><ele>293.3333333333333</ele><time>2026-05-01T06:55:16.209Z</time></trkpt><trkpt lat="45.7054916" lon="9.4106203"><ele>295.0</ele><time>2026-05-01T06:55:17.212Z</time></trkpt><trkpt lat="45.7056233" lon="9.4105069"><ele>294.0</ele><time>2026-05-01T06:55:18.204Z</time></trkpt><trkpt lat="45.7057491" lon="9.4104132"><ele>293.0</ele><time>2026-05-01T06:55:19.213Z</time></trkpt><trkpt lat="45.7058554" lon="9.4103239"><ele>292.0</ele><time>2026-05-01T06:55:20.213Z</time></trkpt><trkpt lat="45.7059375" lon="9.4102417"><ele>291.0</ele><time>2026-05-01T06:55:21.238Z</time></trkpt><trkpt lat="45.7060135" lon="9.410188"><ele>292.6</ele><time>2026-05-01T06:55:22.24Z</time></trkpt><trkpt lat="45.7061078" lon="9.4101308"><ele>294.20000000000005</ele><time>2026-05-01T06:55:24.209Z</time></trkpt><trkpt lat="45.7062325" lon="9.4101156"><ele>295.79999999999995</ele><time>2026-05-01T06:55:26.214Z</time></trkpt><trkpt lat="45.706315" lon="9.4101509"><ele>297.4</ele><time>2026-05-01T06:55:27.218Z</time></trkpt><trkpt lat="45.7063815" lon="9.4101791"><ele>299.0</ele><time>2026-05-01T06:55:28.226Z</time></trkpt><trkpt lat="45.7064609" lon="9.4101849"><ele>299.0</ele><time>2026-05-01T06:55:30.225Z</time></trkpt><trkpt lat="45.7065303" lon="9.4101076"><ele>299.0</ele><time>2026-05-01T06:55:34.217Z</time></trkpt><trkpt lat="45.706566" lon="9.4099733"><ele>299.0</ele><time>2026-05-01T06:55:36.215Z</time></trkpt><trkpt lat="45.7066053" lon="9.4098891"><ele>299.0</ele><time>2026-05-01T06:55:37.21Z</time></trkpt><trkpt lat="45.706655" lon="9.4098029"><ele>299.0</ele><time>2026-05-01T06:55:38.21Z</time></trkpt><trkpt lat="45.7067239" lon="9.409725"><ele>299.0</ele><time>2026-05-01T06:55:39.206Z</time></trkpt><trkpt lat="45.7068108" lon="9.4096649"><ele>299.5</ele><time>2026-05-01T06:55:40.206Z</time></trkpt><trkpt lat="45.7069029" lon="9.4095859"><ele>300.0</ele><time>2026-05-01T06:55:41.21Z</time></trkpt><trkpt lat="45.7070002" lon="9.4094928"><ele>300.5</ele><time>2026-05-01T06:55:42.212Z</time></trkpt><trkpt lat="45.7071076" lon="9.4093913"><ele>301.0</ele><time>2026-05-01T06:55:43.214Z</time></trkpt><trkpt lat="45.7072289" lon="9.4092875"><ele>301.0</ele><time>2026-05-01T06:55:44.218Z</time></trkpt><trkpt lat="45.7073765" lon="9.409174"><ele>301.0</ele><time>2026-05-01T06:55:45.21Z</time></trkpt><trkpt lat="45.7075946" lon="9.4090432"><ele>301.0</ele><time>2026-05-01T06:55:46.211Z</time></trkpt><trkpt lat="45.707756" lon="9.4089466"><ele>302.3333333333333</ele><time>2026-05-01T06:55:47.217Z</time></trkpt><trkpt lat="45.7079089" lon="9.4088158"><ele>303.6666666666667</ele><time>2026-05-01T06:55:48.21Z</time></trkpt><trkpt lat="45.708052" lon="9.4086709"><ele>305.0</ele><time>2026-05-01T06:55:49.221Z</time></trkpt><trkpt lat="45.7081749" lon="9.4085348"><ele>305.0</ele><time>2026-05-01T06:55:50.218Z</time></trkpt><trkpt lat="45.7082917" lon="9.4084344"><ele>305.0</ele><time>2026-05-01T06:55:51.213Z</time></trkpt><trkpt lat="45.7084171" lon="9.4083318"><ele>305.0</ele><time>2026-05-01T06:55:52.215Z</time></trkpt><trkpt lat="45.7085659" lon="9.4082466"><ele>305.0</ele><time>2026-05-01T06:55:53.212Z</time></trkpt><trkpt lat="45.7087226" lon="9.4081417"><ele>305.25</ele><time>2026-05-01T06:55:54.222Z</time></trkpt><trkpt lat="45.7088669" lon="9.4080404"><ele>305.5</ele><time>2026-05-01T06:55:55.22Z</time></trkpt><trkpt lat="45.7089895" lon="9.4079391"><ele>305.75</ele><time>2026-05-01T06:55:56.214Z</time></trkpt><trkpt lat="45.709111" lon="9.4078504"><ele>306.0</ele><time>2026-05-01T06:55:57.215Z</time></trkpt><trkpt lat="45.7092216" lon="9.4077521"><ele>306.25</ele><time>2026-05-01T06:55:58.212Z</time></trkpt><trkpt lat="45.7093001" lon="9.4076324"><ele>306.5</ele><time>2026-05-01T06:55:59.211Z</time></trkpt><trkpt lat="45.7094031" lon="9.4075168"><ele>306.75</ele><time>2026-05-01T06:56:00.211Z</time></trkpt><trkpt lat="45.7095173" lon="9.4074091"><ele>307.0</ele><time>2026-05-01T06:56:01.221Z</time></trkpt><trkpt lat="45.7096492" lon="9.4073058"><ele>307.75</ele><time>2026-05-01T06:56:02.205Z</time></trkpt><trkpt lat="45.709779" lon="9.4071943"><ele>308.5</ele><time>2026-05-01T06:56:03.217Z</time></trkpt><trkpt lat="45.7098925" lon="9.4070672"><ele>309.25</ele><time>2026-05-01T06:56:04.22Z</time></trkpt><trkpt lat="45.7100104" lon="9.4069621"><ele>310.0</ele><time>2026-05-01T06:56:05.218Z</time></trkpt><trkpt lat="45.7101318" lon="9.4068698"><ele>309.75</ele><time>2026-05-01T06:56:06.223Z</time></trkpt><trkpt lat="45.7102451" lon="9.4067803"><ele>309.5</ele><time>2026-05-01T06:56:07.217Z</time></trkpt><trkpt lat="45.7103769" lon="9.4066702"><ele>309.25</ele><time>2026-05-01T06:56:08.216Z</time></trkpt><trkpt lat="45.7105129" lon="9.4065407"><ele>309.0</ele><time>2026-05-01T06:56:09.22Z</time></trkpt><trkpt lat="45.7106777" lon="9.4064304"><ele>309.0</ele><time>2026-05-01T06:56:10.207Z</time></trkpt><trkpt lat="45.7108401" lon="9.4063918"><ele>309.0</ele><time>2026-05-01T06:56:11.234Z</time></trkpt><trkpt lat="45.7110014" lon="9.4063832"><ele>309.0</ele><time>2026-05-01T06:56:12.216Z</time></trkpt><trkpt lat="45.7111429" lon="9.4064175"><ele>308.6666666666667</ele><time>2026-05-01T06:56:13.217Z</time></trkpt><trkpt lat="45.7113151" lon="9.4063794"><ele>308.33333333333337</ele><time>2026-05-01T06:56:14.227Z</time></trkpt><trkpt lat="45.7114586" lon="9.4062962"><ele>308.0</ele><time>2026-05-01T06:56:15.222Z</time></trkpt><trkpt lat="45.7116232" lon="9.4062106"><ele>306.6666666666667</ele><time>2026-05-01T06:56:16.227Z</time></trkpt><trkpt lat="45.7118033" lon="9.406148"><ele>305.3333333333333</ele><time>2026-05-01T06:56:17.23Z</time></trkpt><trkpt lat="45.7120167" lon="9.406152"><ele>304.0</ele><time>2026-05-01T06:56:18.228Z</time></trkpt><trkpt lat="45.7122423" lon="9.4061848"><ele>303.66666666666663</ele><time>2026-05-01T06:56:19.229Z</time></trkpt><trkpt lat="45.7124563" lon="9.4062508"><ele>303.3333333333333</ele><time>2026-05-01T06:56:20.221Z</time></trkpt><trkpt lat="45.7126601" lon="9.4063218"><ele>303.0</ele><time>2026-05-01T06:56:21.215Z</time></trkpt><trkpt lat="45.7128529" lon="9.406418"><ele>303.0</ele><time>2026-05-01T06:56:22.227Z</time></trkpt><trkpt lat="45.7130383" lon="9.4065343"><ele>303.0</ele><time>2026-05-01T06:56:23.209Z</time></trkpt><trkpt lat="45.7132321" lon="9.4066215"><ele>303.0</ele><time>2026-05-01T06:56:24.214Z</time></trkpt><trkpt lat="45.7134358" lon="9.4067275"><ele>302.0</ele><time>2026-05-01T06:56:25.216Z</time></trkpt><trkpt lat="45.7136475" lon="9.4068011"><ele>301.0</ele><time>2026-05-01T06:56:26.211Z</time></trkpt><trkpt lat="45.7138553" lon="9.4068733"><ele>300.0</ele><time>2026-05-01T06:56:27.212Z</time></trkpt><trkpt lat="45.7140479" lon="9.4069699"><ele>300.0</ele><time>2026-05-01T06:56:28.217Z</time></trkpt><trkpt lat="45.714214" lon="9.4070893"><ele>300.0</ele><time>2026-05-01T06:56:29.215Z</time></trkpt><trkpt lat="45.7144037" lon="9.407178"><ele>300.0</ele><time>2026-05-01T06:56:30.214Z</time></trkpt><trkpt lat="45.7145924" lon="9.4072635"><ele>300.3333333333333</ele><time>2026-05-01T06:56:31.22Z</time></trkpt><trkpt lat="45.7147746" lon="9.407355"><ele>300.66666666666663</ele><time>2026-05-01T06:56:32.22Z</time></trkpt><trkpt lat="45.7149444" lon="9.4074438"><ele>301.0</ele><time>2026-05-01T06:56:33.221Z</time></trkpt><trkpt lat="45.715114" lon="9.4075316"><ele>300.66666666666663</ele><time>2026-05-01T06:56:34.222Z</time></trkpt><trkpt lat="45.7153119" lon="9.4076252"><ele>300.3333333333333</ele><time>2026-05-01T06:56:35.225Z</time></trkpt><trkpt lat="45.7155136" lon="9.4077026"><ele>300.0</ele><time>2026-05-01T06:56:36.225Z</time></trkpt><trkpt lat="45.7157272" lon="9.4077798"><ele>300.0</ele><time>2026-05-01T06:56:37.23Z</time></trkpt><trkpt lat="45.7159351" lon="9.4078538"><ele>300.0</ele><time>2026-05-01T06:56:38.226Z</time></trkpt><trkpt lat="45.716136" lon="9.4079339"><ele>300.0</ele><time>2026-05-01T06:56:39.219Z</time></trkpt><trkpt lat="45.7163159" lon="9.4079913"><ele>300.25</ele><time>2026-05-01T06:56:40.227Z</time></trkpt><trkpt lat="45.7164714" lon="9.4080533"><ele>300.5</ele><time>2026-05-01T06:56:41.222Z</time></trkpt><trkpt lat="45.7166063" lon="9.4080977"><ele>300.75</ele><time>2026-05-01T06:56:42.228Z</time></trkpt><trkpt lat="45.7167197" lon="9.4081435"><ele>301.0</ele><time>2026-05-01T06:56:43.222Z</time></trkpt><trkpt lat="45.7168218" lon="9.408189"><ele>300.3333333333333</ele><time>2026-05-01T06:56:44.231Z</time></trkpt><trkpt lat="45.7169069" lon="9.4082378"><ele>299.66666666666663</ele><time>2026-05-01T06:56:45.224Z</time></trkpt><trkpt lat="45.7169868" lon="9.4082783"><ele>299.0</ele><time>2026-05-01T06:56:46.224Z</time></trkpt><trkpt lat="45.7170538" lon="9.4083091"><ele>298.3333333333333</ele><time>2026-05-01T06:56:47.223Z</time></trkpt><trkpt lat="45.7171338" lon="9.4083057"><ele>297.6666666666667</ele><time>2026-05-01T06:56:48.243Z</time></trkpt><trkpt lat="45.717213" lon="9.4083226"><ele>297.0</ele><time>2026-05-01T06:56:49.227Z</time></trkpt><trkpt lat="45.7173331" lon="9.4083668"><ele>297.0</ele><time>2026-05-01T06:56:51.221Z</time></trkpt><trkpt lat="45.717414" lon="9.4084205"><ele>297.0</ele><time>2026-05-01T06:56:52.225Z</time></trkpt><trkpt lat="45.7175021" lon="9.4084916"><ele>297.0</ele><time>2026-05-01T06:56:53.229Z</time></trkpt><trkpt lat="45.7176034" lon="9.4085845"><ele>297.0</ele><time>2026-05-01T06:56:54.226Z</time></trkpt><trkpt lat="45.7177163" lon="9.4087043"><ele>297.3333333333333</ele><time>2026-05-01T06:56:55.231Z</time></trkpt><trkpt lat="45.7178391" lon="9.4088251"><ele>297.66666666666663</ele><time>2026-05-01T06:56:56.227Z</time></trkpt><trkpt lat="45.7179979" lon="9.4089817"><ele>298.0</ele><time>2026-05-01T06:56:57.23Z</time></trkpt><trkpt lat="45.7181365" lon="9.4091362"><ele>298.0</ele><time>2026-05-01T06:56:58.229Z</time></trkpt><trkpt lat="45.7182781" lon="9.4092952"><ele>298.0</ele><time>2026-05-01T06:56:59.235Z</time></trkpt><trkpt lat="45.7184283" lon="9.4094518"><ele>298.0</ele><time>2026-05-01T06:57:00.227Z</time></trkpt><trkpt lat="45.7185943" lon="9.4096109"><ele>298.3333333333333</ele><time>2026-05-01T06:57:01.233Z</time></trkpt><trkpt lat="45.7187585" lon="9.4097826"><ele>298.6666666666667</ele><time>2026-05-01T06:57:02.232Z</time></trkpt><trkpt lat="45.7189232" lon="9.4099561"><ele>299.0</ele><time>2026-05-01T06:57:03.233Z</time></trkpt><trkpt lat="45.7190905" lon="9.410146"><ele>299.0</ele><time>2026-05-01T06:57:04.235Z</time></trkpt><trkpt lat="45.7192498" lon="9.410321"><ele>299.0</ele><time>2026-05-01T06:57:05.232Z</time></trkpt><trkpt lat="45.719403" lon="9.4104867"><ele>299.0</ele><time>2026-05-01T06:57:06.231Z</time></trkpt><trkpt lat="45.7195482" lon="9.4106316"><ele>298.0</ele><time>2026-05-01T06:57:07.237Z</time></trkpt><trkpt lat="45.7196975" lon="9.4107785"><ele>297.0</ele><time>2026-05-01T06:57:08.234Z</time></trkpt><trkpt lat="45.7198388" lon="9.4109339"><ele>296.0</ele><time>2026-05-01T06:57:09.235Z</time></trkpt><trkpt lat="45.7199791" lon="9.4110882"><ele>296.0</ele><time>2026-05-01T06:57:10.23Z</time></trkpt><trkpt lat="45.7201244" lon="9.4112407"><ele>296.0</ele><time>2026-05-01T06:57:11.237Z</time></trkpt><trkpt lat="45.7202657" lon="9.4113917"><ele>296.0</ele><time>2026-05-01T06:57:12.233Z</time></trkpt><trkpt lat="45.7204063" lon="9.4115327"><ele>296.0</ele><time>2026-05-01T06:57:13.235Z</time></trkpt><trkpt lat="45.7205438" lon="9.4116743"><ele>296.0</ele><time>2026-05-01T06:57:14.235Z</time></trkpt><trkpt lat="45.7206751" lon="9.4118313"><ele>296.0</ele><time>2026-05-01T06:57:15.233Z</time></trkpt><trkpt lat="45.7208037" lon="9.4119877"><ele>296.0</ele><time>2026-05-01T06:57:16.235Z</time></trkpt><trkpt lat="45.72094" lon="9.412112"><ele>296.0</ele><time>2026-05-01T06:57:17.237Z</time></trkpt><trkpt lat="45.7210711" lon="9.4122376"><ele>296.0</ele><time>2026-05-01T06:57:18.238Z</time></trkpt><trkpt lat="45.7211888" lon="9.4123506"><ele>294.5</ele><time>2026-05-01T06:57:19.237Z</time></trkpt><trkpt lat="45.7212881" lon="9.4124677"><ele>293.0</ele><time>2026-05-01T06:57:20.239Z</time></trkpt><trkpt lat="45.7213832" lon="9.4125818"><ele>291.5</ele><time>2026-05-01T06:57:21.258Z</time></trkpt><trkpt lat="45.7214827" lon="9.4126718"><ele>290.0</ele><time>2026-05-01T06:57:22.263Z</time></trkpt><trkpt lat="45.7215688" lon="9.4127656"><ele>290.0</ele><time>2026-05-01T06:57:23.238Z</time></trkpt><trkpt lat="45.7216352" lon="9.4128768"><ele>290.0</ele><time>2026-05-01T06:57:24.261Z</time></trkpt><trkpt lat="45.72168" lon="9.4130013"><ele>290.0</ele><time>2026-05-01T06:57:25.235Z</time></trkpt><trkpt lat="45.7217069" lon="9.4131355"><ele>290.0</ele><time>2026-05-01T06:57:26.238Z</time></trkpt><trkpt lat="45.7217462" lon="9.4132508"><ele>290.0</ele><time>2026-05-01T06:57:27.237Z</time></trkpt><trkpt lat="45.721809" lon="9.4133292"><ele>290.0</ele><time>2026-05-01T06:57:28.24Z</time></trkpt><trkpt lat="45.7218978" lon="9.4133399"><ele>290.0</ele><time>2026-05-01T06:57:29.239Z</time></trkpt><trkpt lat="45.7219945" lon="9.4133404"><ele>290.0</ele><time>2026-05-01T06:57:30.236Z</time></trkpt><trkpt lat="45.7220978" lon="9.4133748"><ele>290.0</ele><time>2026-05-01T06:57:31.242Z</time></trkpt><trkpt lat="45.7222149" lon="9.4134427"><ele>290.0</ele><time>2026-05-01T06:57:32.233Z</time></trkpt><trkpt lat="45.7223419" lon="9.4135655"><ele>289.33333333333337</ele><time>2026-05-01T06:57:33.234Z</time></trkpt><trkpt lat="45.7225152" lon="9.4137332"><ele>288.6666666666667</ele><time>2026-05-01T06:57:34.233Z</time></trkpt><trkpt lat="45.722678" lon="9.4139111"><ele>288.0</ele><time>2026-05-01T06:57:35.239Z</time></trkpt><trkpt lat="45.7228227" lon="9.414066"><ele>287.3333333333333</ele><time>2026-05-01T06:57:36.237Z</time></trkpt><trkpt lat="45.7229864" lon="9.4142135"><ele>286.66666666666663</ele><time>2026-05-01T06:57:37.234Z</time></trkpt><trkpt lat="45.7231403" lon="9.414356"><ele>286.0</ele><time>2026-05-01T06:57:38.232Z</time></trkpt><trkpt lat="45.7232632" lon="9.414508"><ele>286.0</ele><time>2026-05-01T06:57:39.238Z</time></trkpt><trkpt lat="45.7233846" lon="9.4146385"><ele>286.0</ele><time>2026-05-01T06:57:40.26Z</time></trkpt><trkpt lat="45.7235059" lon="9.4147685"><ele>286.0</ele><time>2026-05-01T06:57:41.259Z</time></trkpt><trkpt lat="45.7236335" lon="9.4149042"><ele>285.5</ele><time>2026-05-01T06:57:42.243Z</time></trkpt><trkpt lat="45.7237674" lon="9.4150256"><ele>285.0</ele><time>2026-05-01T06:57:43.241Z</time></trkpt><trkpt lat="45.7238735" lon="9.4151489"><ele>284.5</ele><time>2026-05-01T06:57:44.238Z</time></trkpt><trkpt lat="45.7239764" lon="9.4152725"><ele>284.0</ele><time>2026-05-01T06:57:45.238Z</time></trkpt><trkpt lat="45.7240925" lon="9.4153911"><ele>284.0</ele><time>2026-05-01T06:57:46.237Z</time></trkpt><trkpt lat="45.7242098" lon="9.4155022"><ele>284.0</ele><time>2026-05-01T06:57:47.24Z</time></trkpt><trkpt lat="45.7243329" lon="9.4156019"><ele>284.0</ele><time>2026-05-01T06:57:48.235Z</time></trkpt><trkpt lat="45.7244525" lon="9.4156943"><ele>284.0</ele><time>2026-05-01T06:57:49.236Z</time></trkpt><trkpt lat="45.7245365" lon="9.4157596"><ele>284.0</ele><time>2026-05-01T06:57:50.232Z</time></trkpt><trkpt lat="45.7246031" lon="9.4158265"><ele>284.0</ele><time>2026-05-01T06:57:51.23Z</time></trkpt><trkpt lat="45.7246651" lon="9.4158873"><ele>284.0</ele><time>2026-05-01T06:57:52.237Z</time></trkpt><trkpt lat="45.7247515" lon="9.4159805"><ele>284.0</ele><time>2026-05-01T06:57:54.232Z</time></trkpt><trkpt lat="45.7248672" lon="9.4160611"><ele>284.0</ele><time>2026-05-01T06:57:56.23Z</time></trkpt><trkpt lat="45.7249338" lon="9.4160708"><ele>284.0</ele><time>2026-05-01T06:57:57.237Z</time></trkpt><trkpt lat="45.7250176" lon="9.4160386"><ele>284.0</ele><time>2026-05-01T06:57:58.23Z</time></trkpt><trkpt lat="45.7251105" lon="9.4159482"><ele>284.0</ele><time>2026-05-01T06:57:59.243Z</time></trkpt><trkpt lat="45.7252082" lon="9.4158584"><ele>284.0</ele><time>2026-05-01T06:58:00.252Z</time></trkpt><trkpt lat="45.7253172" lon="9.41578"><ele>284.0</ele><time>2026-05-01T06:58:01.226Z</time></trkpt><trkpt lat="45.7254286" lon="9.4157221"><ele>283.0</ele><time>2026-05-01T06:58:02.249Z</time></trkpt><trkpt lat="45.7255401" lon="9.4156714"><ele>282.0</ele><time>2026-05-01T06:58:03.254Z</time></trkpt><trkpt lat="45.7256595" lon="9.4156221"><ele>281.0</ele><time>2026-05-01T06:58:04.264Z</time></trkpt><trkpt lat="45.7257836" lon="9.4155845"><ele>280.0</ele><time>2026-05-01T06:58:05.263Z</time></trkpt><trkpt lat="45.7259123" lon="9.4155557"><ele>280.0</ele><time>2026-05-01T06:58:06.265Z</time></trkpt><trkpt lat="45.726049" lon="9.4155331"><ele>280.0</ele><time>2026-05-01T06:58:07.263Z</time></trkpt><trkpt lat="45.7261887" lon="9.4155159"><ele>280.0</ele><time>2026-05-01T06:58:08.258Z</time></trkpt><trkpt lat="45.7263245" lon="9.4155022"><ele>280.0</ele><time>2026-05-01T06:58:09.27Z</time></trkpt><trkpt lat="45.7264545" lon="9.4154886"><ele>279.75</ele><time>2026-05-01T06:58:10.261Z</time></trkpt><trkpt lat="45.7265913" lon="9.4154727"><ele>279.5</ele><time>2026-05-01T06:58:11.264Z</time></trkpt><trkpt lat="45.7267439" lon="9.4154847"><ele>279.25</ele><time>2026-05-01T06:58:12.261Z</time></trkpt><trkpt lat="45.7268935" lon="9.4154983"><ele>279.0</ele><time>2026-05-01T06:58:13.261Z</time></trkpt><trkpt lat="45.7270452" lon="9.415534"><ele>277.0</ele><time>2026-05-01T06:58:14.259Z</time></trkpt><trkpt lat="45.7271949" lon="9.4155785"><ele>275.0</ele><time>2026-05-01T06:58:15.239Z</time></trkpt><trkpt lat="45.7273494" lon="9.4156197"><ele>273.0</ele><time>2026-05-01T06:58:16.244Z</time></trkpt><trkpt lat="45.7275147" lon="9.41568"><ele>273.0</ele><time>2026-05-01T06:58:17.246Z</time></trkpt><trkpt lat="45.7277177" lon="9.4157587"><ele>273.0</ele><time>2026-05-01T06:58:18.243Z</time></trkpt><trkpt lat="45.7279354" lon="9.4158787"><ele>273.0</ele><time>2026-05-01T06:58:19.241Z</time></trkpt><trkpt lat="45.7281138" lon="9.4160203"><ele>271.0</ele><time>2026-05-01T06:58:20.244Z</time></trkpt><trkpt lat="45.7282691" lon="9.4161599"><ele>269.0</ele><time>2026-05-01T06:58:21.24Z</time></trkpt><trkpt lat="45.7284212" lon="9.4163165"><ele>267.0</ele><time>2026-05-01T06:58:22.241Z</time></trkpt><trkpt lat="45.7285601" lon="9.4164887"><ele>265.6666666666667</ele><time>2026-05-01T06:58:23.242Z</time></trkpt><trkpt lat="45.728704" lon="9.4166664"><ele>264.33333333333337</ele><time>2026-05-01T06:58:24.237Z</time></trkpt><trkpt lat="45.7288419" lon="9.4168759"><ele>263.0</ele><time>2026-05-01T06:58:25.261Z</time></trkpt><trkpt lat="45.7289755" lon="9.4170772"><ele>264.0</ele><time>2026-05-01T06:58:26.25Z</time></trkpt><trkpt lat="45.7290876" lon="9.4172949"><ele>265.0</ele><time>2026-05-01T06:58:27.235Z</time></trkpt><trkpt lat="45.7292048" lon="9.4175055"><ele>266.0</ele><time>2026-05-01T06:58:28.236Z</time></trkpt><trkpt lat="45.7293441" lon="9.417686"><ele>265.0</ele><time>2026-05-01T06:58:29.229Z</time></trkpt><trkpt lat="45.7294869" lon="9.4178266"><ele>264.0</ele><time>2026-05-01T06:58:30.24Z</time></trkpt><trkpt lat="45.7296406" lon="9.4179693"><ele>263.0</ele><time>2026-05-01T06:58:31.241Z</time></trkpt><trkpt lat="45.7297855" lon="9.4181035"><ele>263.0</ele><time>2026-05-01T06:58:32.245Z</time></trkpt><trkpt lat="45.7299413" lon="9.4182513"><ele>263.0</ele><time>2026-05-01T06:58:33.236Z</time></trkpt><trkpt lat="45.7300976" lon="9.4183935"><ele>263.0</ele><time>2026-05-01T06:58:34.239Z</time></trkpt><trkpt lat="45.7302542" lon="9.4185352"><ele>262.33333333333337</ele><time>2026-05-01T06:58:35.249Z</time></trkpt><trkpt lat="45.7304077" lon="9.4186875"><ele>261.6666666666667</ele><time>2026-05-01T06:58:36.243Z</time></trkpt><trkpt lat="45.7305593" lon="9.4188351"><ele>261.0</ele><time>2026-05-01T06:58:37.244Z</time></trkpt><trkpt lat="45.7307115" lon="9.4189746"><ele>261.0</ele><time>2026-05-01T06:58:38.248Z</time></trkpt><trkpt lat="45.7308652" lon="9.4191193"><ele>261.0</ele><time>2026-05-01T06:58:39.244Z</time></trkpt><trkpt lat="45.7310069" lon="9.4192678"><ele>261.0</ele><time>2026-05-01T06:58:40.229Z</time></trkpt><trkpt lat="45.731181" lon="9.4194033"><ele>260.3333333333333</ele><time>2026-05-01T06:58:41.245Z</time></trkpt><trkpt lat="45.7313408" lon="9.4195618"><ele>259.66666666666663</ele><time>2026-05-01T06:58:42.234Z</time></trkpt><trkpt lat="45.7314971" lon="9.4197114"><ele>259.0</ele><time>2026-05-01T06:58:43.232Z</time></trkpt><trkpt lat="45.7316157" lon="9.4198545"><ele>259.0</ele><time>2026-05-01T06:58:44.234Z</time></trkpt><trkpt lat="45.7317383" lon="9.4199527"><ele>259.0</ele><time>2026-05-01T06:58:45.235Z</time></trkpt><trkpt lat="45.7318737" lon="9.4199826"><ele>259.0</ele><time>2026-05-01T06:58:46.229Z</time></trkpt><trkpt lat="45.7320104" lon="9.4199628"><ele>259.0</ele><time>2026-05-01T06:58:47.222Z</time></trkpt><trkpt lat="45.7321463" lon="9.4199317"><ele>257.75</ele><time>2026-05-01T06:58:48.231Z</time></trkpt><trkpt lat="45.7322748" lon="9.4198429"><ele>256.5</ele><time>2026-05-01T06:58:49.225Z</time></trkpt><trkpt lat="45.7323834" lon="9.4197005"><ele>255.25</ele><time>2026-05-01T06:58:50.232Z</time></trkpt><trkpt lat="45.7324684" lon="9.4195619"><ele>254.0</ele><time>2026-05-01T06:58:51.244Z</time></trkpt><trkpt lat="45.7325381" lon="9.4193891"><ele>253.66666666666669</ele><time>2026-05-01T06:58:52.226Z</time></trkpt><trkpt lat="45.7326036" lon="9.4191996"><ele>253.33333333333331</ele><time>2026-05-01T06:58:53.228Z</time></trkpt><trkpt lat="45.7326666" lon="9.419006"><ele>253.0</ele><time>2026-05-01T06:58:54.22Z</time></trkpt><trkpt lat="45.7327168" lon="9.4187924"><ele>253.0</ele><time>2026-05-01T06:58:55.224Z</time></trkpt><trkpt lat="45.7327632" lon="9.4185826"><ele>253.0</ele><time>2026-05-01T06:58:56.222Z</time></trkpt><trkpt lat="45.7327902" lon="9.4183549"><ele>253.0</ele><time>2026-05-01T06:58:57.218Z</time></trkpt><trkpt lat="45.732799" lon="9.4181445"><ele>250.75</ele><time>2026-05-01T06:58:58.226Z</time></trkpt><trkpt lat="45.7328224" lon="9.4179406"><ele>248.5</ele><time>2026-05-01T06:58:59.229Z</time></trkpt><trkpt lat="45.7328614" lon="9.4177374"><ele>246.25</ele><time>2026-05-01T06:59:00.223Z</time></trkpt><trkpt lat="45.7329458" lon="9.4175621"><ele>244.0</ele><time>2026-05-01T06:59:01.238Z</time></trkpt><trkpt lat="45.7330285" lon="9.4174015"><ele>244.0</ele><time>2026-05-01T06:59:02.222Z</time></trkpt><trkpt lat="45.7331326" lon="9.4172807"><ele>244.0</ele><time>2026-05-01T06:59:03.226Z</time></trkpt><trkpt lat="45.7332323" lon="9.4171694"><ele>244.0</ele><time>2026-05-01T06:59:04.22Z</time></trkpt><trkpt lat="45.7333453" lon="9.4170837"><ele>244.0</ele><time>2026-05-01T06:59:05.237Z</time></trkpt><trkpt lat="45.7334911" lon="9.4170643"><ele>240.33333333333331</ele><time>2026-05-01T06:59:06.227Z</time></trkpt><trkpt lat="45.7336519" lon="9.4170667"><ele>236.66666666666669</ele><time>2026-05-01T06:59:07.23Z</time></trkpt><trkpt lat="45.7338133" lon="9.4170923"><ele>233.0</ele><time>2026-05-01T06:59:08.231Z</time></trkpt><trkpt lat="45.7339598" lon="9.4171683"><ele>233.0</ele><time>2026-05-01T06:59:09.23Z</time></trkpt><trkpt lat="45.734089" lon="9.417253"><ele>233.0</ele><time>2026-05-01T06:59:10.219Z</time></trkpt><trkpt lat="45.7341964" lon="9.4173361"><ele>233.0</ele><time>2026-05-01T06:59:11.229Z</time></trkpt><trkpt lat="45.7342805" lon="9.4174402"><ele>233.0</ele><time>2026-05-01T06:59:12.231Z</time></trkpt><trkpt lat="45.7343485" lon="9.4175479"><ele>231.50000000000003</ele><time>2026-05-01T06:59:13.234Z</time></trkpt><trkpt lat="45.7344072" lon="9.4176216"><ele>230.0</ele><time>2026-05-01T06:59:14.248Z</time></trkpt><trkpt lat="45.7344578" lon="9.4176922"><ele>228.5</ele><time>2026-05-01T06:59:15.239Z</time></trkpt><trkpt lat="45.7345173" lon="9.4177555"><ele>227.0</ele><time>2026-05-01T06:59:16.245Z</time></trkpt><trkpt lat="45.7345598" lon="9.4178368"><ele>225.50000000000003</ele><time>2026-05-01T06:59:17.243Z</time></trkpt><trkpt lat="45.7345814" lon="9.417988"><ele>224.0</ele><time>2026-05-01T06:59:19.247Z</time></trkpt><trkpt lat="45.7345835" lon="9.4180957"><ele>224.00000000000003</ele><time>2026-05-01T06:59:21.236Z</time></trkpt><trkpt lat="45.7345938" lon="9.4182123"><ele>224.0</ele><time>2026-05-01T06:59:23.243Z</time></trkpt><trkpt lat="45.7346105" lon="9.4183001"><ele>224.0</ele><time>2026-05-01T06:59:24.255Z</time></trkpt><trkpt lat="45.7346438" lon="9.4183965"><ele>224.0</ele><time>2026-05-01T06:59:25.267Z</time></trkpt><trkpt lat="45.7347111" lon="9.4184724"><ele>224.00000000000003</ele><time>2026-05-01T06:59:26.257Z</time></trkpt><trkpt lat="45.7348008" lon="9.4185083"><ele>224.0</ele><time>2026-05-01T06:59:27.257Z</time></trkpt><trkpt lat="45.7349099" lon="9.4184956"><ele>224.0</ele><time>2026-05-01T06:59:28.258Z</time></trkpt><trkpt lat="45.7350224" lon="9.4184847"><ele>224.0</ele><time>2026-05-01T06:59:29.258Z</time></trkpt><trkpt lat="45.7351411" lon="9.4185117"><ele>224.0</ele><time>2026-05-01T06:59:30.255Z</time></trkpt><trkpt lat="45.7352677" lon="9.4185733"><ele>224.0</ele><time>2026-05-01T06:59:31.257Z</time></trkpt><trkpt lat="45.7354169" lon="9.4187002"><ele>222.0</ele><time>2026-05-01T06:59:32.26Z</time></trkpt><trkpt lat="45.7356043" lon="9.4189068"><ele>220.0</ele><time>2026-05-01T06:59:33.24Z</time></trkpt><trkpt lat="45.7357995" lon="9.4190962"><ele>220.0</ele><time>2026-05-01T06:59:34.259Z</time></trkpt><trkpt lat="45.7359973" lon="9.4192552"><ele>220.0</ele><time>2026-05-01T06:59:35.264Z</time></trkpt><trkpt lat="45.7361943" lon="9.4193916"><ele>220.0</ele><time>2026-05-01T06:59:36.264Z</time></trkpt><trkpt lat="45.7363763" lon="9.4195405"><ele>220.0</ele><time>2026-05-01T06:59:37.267Z</time></trkpt><trkpt lat="45.7365649" lon="9.4196954"><ele>220.0</ele><time>2026-05-01T06:59:38.262Z</time></trkpt><trkpt lat="45.736755" lon="9.4198424"><ele>220.0</ele><time>2026-05-01T06:59:39.261Z</time></trkpt><trkpt lat="45.7369404" lon="9.419985"><ele>220.33333333333331</ele><time>2026-05-01T06:59:40.26Z</time></trkpt><trkpt lat="45.7371171" lon="9.4201263"><ele>220.66666666666669</ele><time>2026-05-01T06:59:41.263Z</time></trkpt><trkpt lat="45.7372978" lon="9.4202598"><ele>221.0</ele><time>2026-05-01T06:59:42.237Z</time></trkpt><trkpt lat="45.7374821" lon="9.4204048"><ele>220.33333333333334</ele><time>2026-05-01T06:59:43.239Z</time></trkpt><trkpt lat="45.7376683" lon="9.420545"><ele>219.66666666666669</ele><time>2026-05-01T06:59:44.253Z</time></trkpt><trkpt lat="45.7378531" lon="9.4206756"><ele>219.0</ele><time>2026-05-01T06:59:45.237Z</time></trkpt><trkpt lat="45.7380236" lon="9.4207931"><ele>219.0</ele><time>2026-05-01T06:59:46.24Z</time></trkpt><trkpt lat="45.7381882" lon="9.4209171"><ele>219.0</ele><time>2026-05-01T06:59:47.239Z</time></trkpt><trkpt lat="45.7383429" lon="9.4210487"><ele>219.0</ele><time>2026-05-01T06:59:48.236Z</time></trkpt><trkpt lat="45.7384949" lon="9.4211864"><ele>218.33333333333331</ele><time>2026-05-01T06:59:49.244Z</time></trkpt><trkpt lat="45.7386473" lon="9.4213167"><ele>217.66666666666666</ele><time>2026-05-01T06:59:50.251Z</time></trkpt><trkpt lat="45.7388128" lon="9.4214495"><ele>217.0</ele><time>2026-05-01T06:59:51.241Z</time></trkpt><trkpt lat="45.7389823" lon="9.4215765"><ele>217.0</ele><time>2026-05-01T06:59:52.253Z</time></trkpt><trkpt lat="45.7391441" lon="9.421697"><ele>217.0</ele><time>2026-05-01T06:59:53.242Z</time></trkpt><trkpt lat="45.7393144" lon="9.4218227"><ele>217.0</ele><time>2026-05-01T06:59:54.241Z</time></trkpt><trkpt lat="45.7394848" lon="9.4219478"><ele>217.66666666666666</ele><time>2026-05-01T06:59:55.247Z</time></trkpt><trkpt lat="45.7396549" lon="9.4220749"><ele>218.33333333333331</ele><time>2026-05-01T06:59:56.236Z</time></trkpt><trkpt lat="45.739831" lon="9.4222088"><ele>219.0</ele><time>2026-05-01T06:59:57.237Z</time></trkpt><trkpt lat="45.7400045" lon="9.4223314"><ele>219.0</ele><time>2026-05-01T06:59:58.24Z</time></trkpt><trkpt lat="45.7401883" lon="9.4224582"><ele>219.0</ele><time>2026-05-01T06:59:59.241Z</time></trkpt><trkpt lat="45.7403518" lon="9.4225986"><ele>219.0</ele><time>2026-05-01T07:00:00.239Z</time></trkpt><trkpt lat="45.7405162" lon="9.4227298"><ele>219.0</ele><time>2026-05-01T07:00:01.239Z</time></trkpt><trkpt lat="45.7406824" lon="9.4228646"><ele>219.0</ele><time>2026-05-01T07:00:02.241Z</time></trkpt><trkpt lat="45.7408663" lon="9.4230076"><ele>219.0</ele><time>2026-05-01T07:00:03.237Z</time></trkpt><trkpt lat="45.7410285" lon="9.4231209"><ele>219.0</ele><time>2026-05-01T07:00:04.236Z</time></trkpt><trkpt lat="45.741177" lon="9.4232415"><ele>219.0</ele><time>2026-05-01T07:00:05.238Z</time></trkpt><trkpt lat="45.7413368" lon="9.423363"><ele>219.0</ele><time>2026-05-01T07:00:06.237Z</time></trkpt><trkpt lat="45.7414971" lon="9.4234942"><ele>219.0</ele><time>2026-05-01T07:00:07.234Z</time></trkpt><trkpt lat="45.7416473" lon="9.423609"><ele>219.0</ele><time>2026-05-01T07:00:08.24Z</time></trkpt><trkpt lat="45.7417921" lon="9.4237211"><ele>219.0</ele><time>2026-05-01T07:00:09.243Z</time></trkpt><trkpt lat="45.7419309" lon="9.4238076"><ele>218.0</ele><time>2026-05-01T07:00:10.239Z</time></trkpt><trkpt lat="45.7420731" lon="9.4238856"><ele>217.0</ele><time>2026-05-01T07:00:11.239Z</time></trkpt><trkpt lat="45.7422169" lon="9.4239688"><ele>216.0</ele><time>2026-05-01T07:00:12.242Z</time></trkpt><trkpt lat="45.7423736" lon="9.4240624"><ele>216.0</ele><time>2026-05-01T07:00:13.239Z</time></trkpt><trkpt lat="45.7425576" lon="9.4241644"><ele>216.0</ele><time>2026-05-01T07:00:14.241Z</time></trkpt><trkpt lat="45.7427571" lon="9.4242869"><ele>216.0</ele><time>2026-05-01T07:00:15.241Z</time></trkpt><trkpt lat="45.7429405" lon="9.4243975"><ele>215.33333333333331</ele><time>2026-05-01T07:00:16.245Z</time></trkpt><trkpt lat="45.7431328" lon="9.4245049"><ele>214.66666666666666</ele><time>2026-05-01T07:00:17.248Z</time></trkpt><trkpt lat="45.7433382" lon="9.4246131"><ele>214.0</ele><time>2026-05-01T07:00:18.247Z</time></trkpt><trkpt lat="45.7435298" lon="9.4247251"><ele>215.33333333333331</ele><time>2026-05-01T07:00:19.248Z</time></trkpt><trkpt lat="45.7437174" lon="9.4248247"><ele>216.66666666666669</ele><time>2026-05-01T07:00:20.246Z</time></trkpt><trkpt lat="45.7439013" lon="9.424927"><ele>218.0</ele><time>2026-05-01T07:00:21.244Z</time></trkpt><trkpt lat="45.7440943" lon="9.42503"><ele>218.0</ele><time>2026-05-01T07:00:22.24Z</time></trkpt><trkpt lat="45.7442858" lon="9.4251341"><ele>218.0</ele><time>2026-05-01T07:00:23.24Z</time></trkpt><trkpt lat="45.744462" lon="9.4252421"><ele>218.0</ele><time>2026-05-01T07:00:24.24Z</time></trkpt><trkpt lat="45.7446276" lon="9.4253386"><ele>219.33333333333334</ele><time>2026-05-01T07:00:25.242Z</time></trkpt><trkpt lat="45.7447853" lon="9.4254385"><ele>220.66666666666669</ele><time>2026-05-01T07:00:26.242Z</time></trkpt><trkpt lat="45.7449354" lon="9.42553"><ele>222.0</ele><time>2026-05-01T07:00:27.244Z</time></trkpt><trkpt lat="45.7450786" lon="9.4256225"><ele>220.5</ele><time>2026-05-01T07:00:28.243Z</time></trkpt><trkpt lat="45.7452172" lon="9.4257127"><ele>219.0</ele><time>2026-05-01T07:00:29.24Z</time></trkpt><trkpt lat="45.7453537" lon="9.4257963"><ele>217.5</ele><time>2026-05-01T07:00:30.252Z</time></trkpt><trkpt lat="45.7454858" lon="9.4258777"><ele>216.0</ele><time>2026-05-01T07:00:31.242Z</time></trkpt><trkpt lat="45.7456135" lon="9.4259635"><ele>216.0</ele><time>2026-05-01T07:00:32.247Z</time></trkpt><trkpt lat="45.7457397" lon="9.4260298"><ele>216.0</ele><time>2026-05-01T07:00:33.246Z</time></trkpt><trkpt lat="45.745888" lon="9.4260772"><ele>216.0</ele><time>2026-05-01T07:00:34.248Z</time></trkpt><trkpt lat="45.746028" lon="9.4261233"><ele>216.0</ele><time>2026-05-01T07:00:35.244Z</time></trkpt><trkpt lat="45.7461659" lon="9.4261489"><ele>216.0</ele><time>2026-05-01T07:00:36.244Z</time></trkpt><trkpt lat="45.7463192" lon="9.4261569"><ele>216.0</ele><time>2026-05-01T07:00:37.238Z</time></trkpt><trkpt lat="45.7464674" lon="9.4261577"><ele>216.0</ele><time>2026-05-01T07:00:38.249Z</time></trkpt><trkpt lat="45.746637" lon="9.4261508"><ele>216.0</ele><time>2026-05-01T07:00:39.243Z</time></trkpt><trkpt lat="45.7468223" lon="9.4261669"><ele>216.0</ele><time>2026-05-01T07:00:40.246Z</time></trkpt><trkpt lat="45.7470151" lon="9.4262"><ele>216.0</ele><time>2026-05-01T07:00:41.262Z</time></trkpt><trkpt lat="45.7472075" lon="9.4262307"><ele>215.66666666666669</ele><time>2026-05-01T07:00:42.245Z</time></trkpt><trkpt lat="45.7474047" lon="9.4262568"><ele>215.33333333333334</ele><time>2026-05-01T07:00:43.247Z</time></trkpt><trkpt lat="45.747602" lon="9.4262674"><ele>215.0</ele><time>2026-05-01T07:00:44.248Z</time></trkpt><trkpt lat="45.7478012" lon="9.4262919"><ele>213.33333333333334</ele><time>2026-05-01T07:00:45.249Z</time></trkpt><trkpt lat="45.7479889" lon="9.426312"><ele>211.66666666666669</ele><time>2026-05-01T07:00:46.248Z</time></trkpt><trkpt lat="45.7481739" lon="9.4263296"><ele>210.0</ele><time>2026-05-01T07:00:47.243Z</time></trkpt><trkpt lat="45.7483486" lon="9.4263542"><ele>210.0</ele><time>2026-05-01T07:00:48.245Z</time></trkpt><trkpt lat="45.7485247" lon="9.4263576"><ele>210.0</ele><time>2026-05-01T07:00:49.243Z</time></trkpt><trkpt lat="45.748695" lon="9.426383"><ele>210.0</ele><time>2026-05-01T07:00:50.248Z</time></trkpt><trkpt lat="45.7488761" lon="9.4264341"><ele>210.0</ele><time>2026-05-01T07:00:51.247Z</time></trkpt><trkpt lat="45.7490383" lon="9.4264685"><ele>210.0</ele><time>2026-05-01T07:00:52.246Z</time></trkpt><trkpt lat="45.7491885" lon="9.4264926"><ele>210.0</ele><time>2026-05-01T07:00:53.241Z</time></trkpt><trkpt lat="45.7493353" lon="9.4265155"><ele>209.75</ele><time>2026-05-01T07:00:54.244Z</time></trkpt><trkpt lat="45.7494766" lon="9.4265376"><ele>209.5</ele><time>2026-05-01T07:00:55.251Z</time></trkpt><trkpt lat="45.7496231" lon="9.4265357"><ele>209.25</ele><time>2026-05-01T07:00:56.249Z</time></trkpt><trkpt lat="45.7497572" lon="9.4265591"><ele>209.0</ele><time>2026-05-01T07:00:57.249Z</time></trkpt><trkpt lat="45.7498877" lon="9.4265783"><ele>209.0</ele><time>2026-05-01T07:00:58.245Z</time></trkpt><trkpt lat="45.7500015" lon="9.4266077"><ele>209.0</ele><time>2026-05-01T07:00:59.249Z</time></trkpt><trkpt lat="45.7501051" lon="9.4266149"><ele>209.0</ele><time>2026-05-01T07:01:00.262Z</time></trkpt><trkpt lat="45.7502011" lon="9.4266244"><ele>209.0</ele><time>2026-05-01T07:01:01.245Z</time></trkpt><trkpt lat="45.7502875" lon="9.4266495"><ele>209.0</ele><time>2026-05-01T07:01:02.239Z</time></trkpt><trkpt lat="45.7503593" lon="9.4266931"><ele>208.83333333333334</ele><time>2026-05-01T07:01:03.259Z</time></trkpt><trkpt lat="45.7504255" lon="9.426738"><ele>208.66666666666669</ele><time>2026-05-01T07:01:04.262Z</time></trkpt><trkpt lat="45.7504898" lon="9.4267801"><ele>208.5</ele><time>2026-05-01T07:01:05.265Z</time></trkpt><trkpt lat="45.7505553" lon="9.426773"><ele>208.33333333333331</ele><time>2026-05-01T07:01:06.244Z</time></trkpt><trkpt lat="45.7506161" lon="9.4267154"><ele>208.16666666666666</ele><time>2026-05-01T07:01:07.261Z</time></trkpt><trkpt lat="45.7506807" lon="9.4266365"><ele>208.0</ele><time>2026-05-01T07:01:08.267Z</time></trkpt><trkpt lat="45.7507651" lon="9.4265871"><ele>208.0</ele><time>2026-05-01T07:01:09.272Z</time></trkpt><trkpt lat="45.7508678" lon="9.4265746"><ele>208.0</ele><time>2026-05-01T07:01:10.266Z</time></trkpt><trkpt lat="45.7509868" lon="9.4265773"><ele>208.0</ele><time>2026-05-01T07:01:11.268Z</time></trkpt><trkpt lat="45.7511299" lon="9.4265906"><ele>208.0</ele><time>2026-05-01T07:01:12.264Z</time></trkpt><trkpt lat="45.7512761" lon="9.4265985"><ele>208.66666666666666</ele><time>2026-05-01T07:01:13.266Z</time></trkpt><trkpt lat="45.7514518" lon="9.4265935"><ele>209.33333333333331</ele><time>2026-05-01T07:01:14.26Z</time></trkpt><trkpt lat="45.751643" lon="9.4265791"><ele>210.0</ele><time>2026-05-01T07:01:15.259Z</time></trkpt><trkpt lat="45.7518309" lon="9.4265731"><ele>211.33333333333331</ele><time>2026-05-01T07:01:16.266Z</time></trkpt><trkpt lat="45.7520232" lon="9.4265836"><ele>212.66666666666666</ele><time>2026-05-01T07:01:17.265Z</time></trkpt><trkpt lat="45.7521864" lon="9.4265896"><ele>214.0</ele><time>2026-05-01T07:01:18.269Z</time></trkpt><trkpt lat="45.7523363" lon="9.4265999"><ele>214.0</ele><time>2026-05-01T07:01:19.266Z</time></trkpt><trkpt lat="45.7524926" lon="9.4266123"><ele>214.0</ele><time>2026-05-01T07:01:20.265Z</time></trkpt><trkpt lat="45.7526667" lon="9.4266074"><ele>214.0</ele><time>2026-05-01T07:01:21.264Z</time></trkpt><trkpt lat="45.7528335" lon="9.4266055"><ele>214.66666666666666</ele><time>2026-05-01T07:01:22.27Z</time></trkpt><trkpt lat="45.7529984" lon="9.42662"><ele>215.33333333333331</ele><time>2026-05-01T07:01:23.259Z</time></trkpt><trkpt lat="45.7531502" lon="9.426632"><ele>216.0</ele><time>2026-05-01T07:01:24.266Z</time></trkpt><trkpt lat="45.7533072" lon="9.4266325"><ele>216.0</ele><time>2026-05-01T07:01:25.267Z</time></trkpt><trkpt lat="45.7534528" lon="9.4266237"><ele>216.0</ele><time>2026-05-01T07:01:26.264Z</time></trkpt><trkpt lat="45.7535925" lon="9.4266303"><ele>216.0</ele><time>2026-05-01T07:01:27.268Z</time></trkpt><trkpt lat="45.7537287" lon="9.4266505"><ele>216.0</ele><time>2026-05-01T07:01:28.265Z</time></trkpt><trkpt lat="45.7538574" lon="9.4266487"><ele>216.5</ele><time>2026-05-01T07:01:29.261Z</time></trkpt><trkpt lat="45.7540032" lon="9.4266537"><ele>217.0</ele><time>2026-05-01T07:01:30.261Z</time></trkpt><trkpt lat="45.7541493" lon="9.426652"><ele>217.5</ele><time>2026-05-01T07:01:31.247Z</time></trkpt><trkpt lat="45.7542841" lon="9.4266555"><ele>218.0</ele><time>2026-05-01T07:01:32.243Z</time></trkpt><trkpt lat="45.7543988" lon="9.4266712"><ele>218.4</ele><time>2026-05-01T07:01:33.247Z</time></trkpt><trkpt lat="45.7544962" lon="9.4266654"><ele>218.8</ele><time>2026-05-01T07:01:34.24Z</time></trkpt><trkpt lat="45.7546181" lon="9.4266684"><ele>219.2</ele><time>2026-05-01T07:01:35.239Z</time></trkpt><trkpt lat="45.7547363" lon="9.4266706"><ele>219.6</ele><time>2026-05-01T07:01:36.239Z</time></trkpt><trkpt lat="45.7548258" lon="9.4266843"><ele>220.0</ele><time>2026-05-01T07:01:37.257Z</time></trkpt><trkpt lat="45.7548904" lon="9.4266995"><ele>220.0</ele><time>2026-05-01T07:01:38.229Z</time></trkpt><trkpt lat="45.7549958" lon="9.4267816"><ele>220.0</ele><time>2026-05-01T07:01:40.234Z</time></trkpt><trkpt lat="45.7550742" lon="9.4268469"><ele>220.0</ele><time>2026-05-01T07:01:42.236Z</time></trkpt><trkpt lat="45.7551754" lon="9.4267701"><ele>220.0</ele><time>2026-05-01T07:01:44.236Z</time></trkpt><trkpt lat="45.7552301" lon="9.4267131"><ele>220.0</ele><time>2026-05-01T07:01:45.226Z</time></trkpt><trkpt lat="45.7552961" lon="9.4266795"><ele>219.66666666666666</ele><time>2026-05-01T07:01:46.23Z</time></trkpt><trkpt lat="45.755365" lon="9.4266837"><ele>219.33333333333331</ele><time>2026-05-01T07:01:47.24Z</time></trkpt><trkpt lat="45.7554314" lon="9.4266884"><ele>219.0</ele><time>2026-05-01T07:01:48.229Z</time></trkpt><trkpt lat="45.7555056" lon="9.4266853"><ele>218.66666666666669</ele><time>2026-05-01T07:01:49.251Z</time></trkpt><trkpt lat="45.7555835" lon="9.4266884"><ele>218.33333333333334</ele><time>2026-05-01T07:01:50.232Z</time></trkpt><trkpt lat="45.7556468" lon="9.4266987"><ele>218.0</ele><time>2026-05-01T07:01:51.236Z</time></trkpt><trkpt lat="45.7557543" lon="9.4267216"><ele>218.0</ele><time>2026-05-01T07:01:53.242Z</time></trkpt><trkpt lat="45.7558418" lon="9.4267883"><ele>218.0</ele><time>2026-05-01T07:01:55.249Z</time></trkpt><trkpt lat="45.7559109" lon="9.4268783"><ele>218.0</ele><time>2026-05-01T07:01:57.239Z</time></trkpt><trkpt lat="45.7560039" lon="9.4268817"><ele>218.0</ele><time>2026-05-01T07:01:59.244Z</time></trkpt><trkpt lat="45.756113" lon="9.4267976"><ele>218.0</ele><time>2026-05-01T07:02:01.237Z</time></trkpt><trkpt lat="45.7561761" lon="9.4267821"><ele>218.0</ele><time>2026-05-01T07:02:02.239Z</time></trkpt><trkpt lat="45.7562497" lon="9.426781"><ele>218.0</ele><time>2026-05-01T07:02:03.243Z</time></trkpt><trkpt lat="45.7563432" lon="9.4267776"><ele>218.0</ele><time>2026-05-01T07:02:04.241Z</time></trkpt><trkpt lat="45.7564593" lon="9.4267712"><ele>218.0</ele><time>2026-05-01T07:02:05.231Z</time></trkpt><trkpt lat="45.7566085" lon="9.4267666"><ele>218.0</ele><time>2026-05-01T07:02:06.249Z</time></trkpt><trkpt lat="45.7567928" lon="9.4267758"><ele>215.0</ele><time>2026-05-01T07:02:07.23Z</time></trkpt><trkpt lat="45.7570156" lon="9.4267891"><ele>212.0</ele><time>2026-05-01T07:02:08.234Z</time></trkpt><trkpt lat="45.7572556" lon="9.4268015"><ele>212.0</ele><time>2026-05-01T07:02:09.238Z</time></trkpt><trkpt lat="45.7574724" lon="9.426804"><ele>212.0</ele><time>2026-05-01T07:02:10.243Z</time></trkpt><trkpt lat="45.7576811" lon="9.4268035"><ele>212.0</ele><time>2026-05-01T07:02:11.248Z</time></trkpt><trkpt lat="45.7579019" lon="9.4268132"><ele>212.0</ele><time>2026-05-01T07:02:12.24Z</time></trkpt><trkpt lat="45.7581284" lon="9.426813"><ele>212.0</ele><time>2026-05-01T07:02:13.24Z</time></trkpt><trkpt lat="45.7583623" lon="9.4268399"><ele>215.33333333333334</ele><time>2026-05-01T07:02:14.243Z</time></trkpt><trkpt lat="45.7585843" lon="9.4268397"><ele>218.66666666666669</ele><time>2026-05-01T07:02:15.246Z</time></trkpt><trkpt lat="45.758811" lon="9.4268387"><ele>222.0</ele><time>2026-05-01T07:02:16.241Z</time></trkpt><trkpt lat="45.7590356" lon="9.4268248"><ele>222.0</ele><time>2026-05-01T07:02:17.234Z</time></trkpt><trkpt lat="45.7592539" lon="9.4268284"><ele>222.0</ele><time>2026-05-01T07:02:18.233Z</time></trkpt><trkpt lat="45.7594973" lon="9.4268281"><ele>218.0</ele><time>2026-05-01T07:02:19.235Z</time></trkpt><trkpt lat="45.7597544" lon="9.4268256"><ele>214.0</ele><time>2026-05-01T07:02:20.241Z</time></trkpt><trkpt lat="45.7599997" lon="9.4268018"><ele>212.66666666666666</ele><time>2026-05-01T07:02:21.238Z</time></trkpt><trkpt lat="45.7602143" lon="9.4267892"><ele>211.33333333333331</ele><time>2026-05-01T07:02:22.248Z</time></trkpt><trkpt lat="45.7604376" lon="9.4267743"><ele>210.0</ele><time>2026-05-01T07:02:23.235Z</time></trkpt><trkpt lat="45.7606489" lon="9.4267519"><ele>210.0</ele><time>2026-05-01T07:02:24.236Z</time></trkpt><trkpt lat="45.760847" lon="9.4267187"><ele>210.0</ele><time>2026-05-01T07:02:25.234Z</time></trkpt><trkpt lat="45.7610367" lon="9.4267094"><ele>210.0</ele><time>2026-05-01T07:02:26.227Z</time></trkpt><trkpt lat="45.7612199" lon="9.4266964"><ele>210.33333333333331</ele><time>2026-05-01T07:02:27.235Z</time></trkpt><trkpt lat="45.7613954" lon="9.4266876"><ele>210.66666666666666</ele><time>2026-05-01T07:02:28.242Z</time></trkpt><trkpt lat="45.7615731" lon="9.4266807"><ele>211.0</ele><time>2026-05-01T07:02:29.237Z</time></trkpt><trkpt lat="45.7617608" lon="9.4266682"><ele>212.33333333333331</ele><time>2026-05-01T07:02:30.245Z</time></trkpt><trkpt lat="45.7619603" lon="9.4266461"><ele>213.66666666666669</ele><time>2026-05-01T07:02:31.234Z</time></trkpt><trkpt lat="45.7621579" lon="9.426651"><ele>215.0</ele><time>2026-05-01T07:02:32.231Z</time></trkpt><trkpt lat="45.7623433" lon="9.4266353"><ele>215.0</ele><time>2026-05-01T07:02:33.237Z</time></trkpt><trkpt lat="45.7625358" lon="9.4266432"><ele>215.0</ele><time>2026-05-01T07:02:34.234Z</time></trkpt><trkpt lat="45.762708" lon="9.4266274"><ele>215.0</ele><time>2026-05-01T07:02:35.237Z</time></trkpt><trkpt lat="45.762884" lon="9.4266199"><ele>211.66666666666669</ele><time>2026-05-01T07:02:36.232Z</time></trkpt><trkpt lat="45.7630776" lon="9.4265881"><ele>208.33333333333331</ele><time>2026-05-01T07:02:37.231Z</time></trkpt><trkpt lat="45.7632685" lon="9.4265386"><ele>205.0</ele><time>2026-05-01T07:02:38.249Z</time></trkpt><trkpt lat="45.7634658" lon="9.4264622"><ele>202.66666666666666</ele><time>2026-05-01T07:02:39.236Z</time></trkpt><trkpt lat="45.7636326" lon="9.4264177"><ele>200.33333333333331</ele><time>2026-05-01T07:02:40.242Z</time></trkpt><trkpt lat="45.7638083" lon="9.4263552"><ele>198.0</ele><time>2026-05-01T07:02:41.23Z</time></trkpt><trkpt lat="45.7639828" lon="9.426264"><ele>199.66666666666669</ele><time>2026-05-01T07:02:42.23Z</time></trkpt><trkpt lat="45.7641362" lon="9.4262036"><ele>201.33333333333334</ele><time>2026-05-01T07:02:43.228Z</time></trkpt><trkpt lat="45.764274" lon="9.4261455"><ele>203.0</ele><time>2026-05-01T07:02:44.235Z</time></trkpt><trkpt lat="45.7644159" lon="9.4260567"><ele>203.0</ele><time>2026-05-01T07:02:45.236Z</time></trkpt><trkpt lat="45.7645565" lon="9.4259791"><ele>203.0</ele><time>2026-05-01T07:02:46.228Z</time></trkpt><trkpt lat="45.7646983" lon="9.4258911"><ele>203.0</ele><time>2026-05-01T07:02:47.232Z</time></trkpt><trkpt lat="45.764841" lon="9.4258143"><ele>203.0</ele><time>2026-05-01T07:02:48.234Z</time></trkpt><trkpt lat="45.7650111" lon="9.4257345"><ele>203.0</ele><time>2026-05-01T07:02:49.227Z</time></trkpt><trkpt lat="45.7651531" lon="9.4256686"><ele>203.0</ele><time>2026-05-01T07:02:50.238Z</time></trkpt><trkpt lat="45.7652893" lon="9.4256069"><ele>201.33333333333334</ele><time>2026-05-01T07:02:51.24Z</time></trkpt><trkpt lat="45.7654307" lon="9.4255562"><ele>199.66666666666669</ele><time>2026-05-01T07:02:52.233Z</time></trkpt><trkpt lat="45.7655715" lon="9.425473"><ele>198.0</ele><time>2026-05-01T07:02:53.241Z</time></trkpt><trkpt lat="45.7657245" lon="9.4253967"><ele>200.66666666666669</ele><time>2026-05-01T07:02:54.238Z</time></trkpt><trkpt lat="45.7658766" lon="9.4253158"><ele>203.33333333333334</ele><time>2026-05-01T07:02:55.229Z</time></trkpt><trkpt lat="45.7660603" lon="9.4252321"><ele>206.0</ele><time>2026-05-01T07:02:56.244Z</time></trkpt><trkpt lat="45.7662439" lon="9.4251907"><ele>206.0</ele><time>2026-05-01T07:02:57.236Z</time></trkpt><trkpt lat="45.7664304" lon="9.4251502"><ele>206.0</ele><time>2026-05-01T07:02:58.233Z</time></trkpt><trkpt lat="45.766629" lon="9.4250713"><ele>206.0</ele><time>2026-05-01T07:02:59.235Z</time></trkpt><trkpt lat="45.766852" lon="9.4249546"><ele>204.5</ele><time>2026-05-01T07:03:00.235Z</time></trkpt><trkpt lat="45.7670738" lon="9.4249132"><ele>203.0</ele><time>2026-05-01T07:03:01.24Z</time></trkpt><trkpt lat="45.7672963" lon="9.424844"><ele>203.0</ele><time>2026-05-01T07:03:02.232Z</time></trkpt><trkpt lat="45.7674971" lon="9.4248002"><ele>203.0</ele><time>2026-05-01T07:03:03.229Z</time></trkpt><trkpt lat="45.7676924" lon="9.4247826"><ele>203.0</ele><time>2026-05-01T07:03:04.249Z</time></trkpt><trkpt lat="45.7678941" lon="9.4247747"><ele>202.33333333333334</ele><time>2026-05-01T07:03:05.233Z</time></trkpt><trkpt lat="45.7680787" lon="9.4247864"><ele>201.66666666666669</ele><time>2026-05-01T07:03:06.233Z</time></trkpt><trkpt lat="45.7682522" lon="9.4248148"><ele>201.0</ele><time>2026-05-01T07:03:07.239Z</time></trkpt><trkpt lat="45.7684403" lon="9.4248075"><ele>201.33333333333331</ele><time>2026-05-01T07:03:08.242Z</time></trkpt><trkpt lat="45.7686331" lon="9.424817"><ele>201.66666666666666</ele><time>2026-05-01T07:03:09.237Z</time></trkpt><trkpt lat="45.7688317" lon="9.4248449"><ele>202.0</ele><time>2026-05-01T07:03:10.251Z</time></trkpt><trkpt lat="45.7690068" lon="9.4248765"><ele>202.0</ele><time>2026-05-01T07:03:11.237Z</time></trkpt><trkpt lat="45.7691748" lon="9.4248978"><ele>202.0</ele><time>2026-05-01T07:03:12.238Z</time></trkpt><trkpt lat="45.7693443" lon="9.4249219"><ele>202.0</ele><time>2026-05-01T07:03:13.249Z</time></trkpt><trkpt lat="45.769513" lon="9.4249403"><ele>202.33333333333331</ele><time>2026-05-01T07:03:14.241Z</time></trkpt><trkpt lat="45.7697014" lon="9.4249527"><ele>202.66666666666669</ele><time>2026-05-01T07:03:15.236Z</time></trkpt><trkpt lat="45.7699025" lon="9.424963"><ele>203.0</ele><time>2026-05-01T07:03:16.234Z</time></trkpt><trkpt lat="45.7701303" lon="9.4249747"><ele>201.5</ele><time>2026-05-01T07:03:17.237Z</time></trkpt><trkpt lat="45.7703663" lon="9.4250095"><ele>200.0</ele><time>2026-05-01T07:03:18.237Z</time></trkpt><trkpt lat="45.7705927" lon="9.4250175"><ele>200.0</ele><time>2026-05-01T07:03:19.236Z</time></trkpt><trkpt lat="45.770834" lon="9.4250272"><ele>200.0</ele><time>2026-05-01T07:03:20.245Z</time></trkpt><trkpt lat="45.7710784" lon="9.4250311"><ele>201.0</ele><time>2026-05-01T07:03:21.239Z</time></trkpt><trkpt lat="45.7713264" lon="9.4250307"><ele>202.0</ele><time>2026-05-01T07:03:22.24Z</time></trkpt><trkpt lat="45.771577" lon="9.4250509"><ele>202.0</ele><time>2026-05-01T07:03:23.242Z</time></trkpt><trkpt lat="45.7718166" lon="9.425086"><ele>202.0</ele><time>2026-05-01T07:03:24.246Z</time></trkpt><trkpt lat="45.7720432" lon="9.4251266"><ele>203.5</ele><time>2026-05-01T07:03:25.245Z</time></trkpt><trkpt lat="45.7722779" lon="9.4251349"><ele>205.0</ele><time>2026-05-01T07:03:26.248Z</time></trkpt><trkpt lat="45.7725123" lon="9.4251501"><ele>205.0</ele><time>2026-05-01T07:03:27.246Z</time></trkpt><trkpt lat="45.772741" lon="9.4251665"><ele>205.0</ele><time>2026-05-01T07:03:28.245Z</time></trkpt><trkpt lat="45.772959" lon="9.4251988"><ele>205.0</ele><time>2026-05-01T07:03:29.253Z</time></trkpt><trkpt lat="45.7731753" lon="9.4252147"><ele>205.0</ele><time>2026-05-01T07:03:30.243Z</time></trkpt><trkpt lat="45.7733955" lon="9.4252133"><ele>205.0</ele><time>2026-05-01T07:03:31.244Z</time></trkpt><trkpt lat="45.7736136" lon="9.4252088"><ele>205.0</ele><time>2026-05-01T07:03:32.231Z</time></trkpt><trkpt lat="45.7738365" lon="9.4252189"><ele>206.0</ele><time>2026-05-01T07:03:33.262Z</time></trkpt><trkpt lat="45.7740475" lon="9.4252471"><ele>207.0</ele><time>2026-05-01T07:03:34.238Z</time></trkpt><trkpt lat="45.7742268" lon="9.4252575"><ele>208.0</ele><time>2026-05-01T07:03:35.238Z</time></trkpt><trkpt lat="45.7744104" lon="9.4252838"><ele>208.33333333333331</ele><time>2026-05-01T07:03:36.243Z</time></trkpt><trkpt lat="45.7745822" lon="9.425297"><ele>208.66666666666669</ele><time>2026-05-01T07:03:37.245Z</time></trkpt><trkpt lat="45.7747554" lon="9.425324"><ele>209.0</ele><time>2026-05-01T07:03:38.242Z</time></trkpt><trkpt lat="45.7749073" lon="9.4253448"><ele>209.0</ele><time>2026-05-01T07:03:39.251Z</time></trkpt><trkpt lat="45.775043" lon="9.4253789"><ele>209.0</ele><time>2026-05-01T07:03:40.244Z</time></trkpt><trkpt lat="45.7751797" lon="9.4254225"><ele>209.0</ele><time>2026-05-01T07:03:41.243Z</time></trkpt><trkpt lat="45.7753078" lon="9.4254697"><ele>209.0</ele><time>2026-05-01T07:03:42.247Z</time></trkpt><trkpt lat="45.7754213" lon="9.4255075"><ele>208.33333333333334</ele><time>2026-05-01T07:03:43.242Z</time></trkpt><trkpt lat="45.7755157" lon="9.4255625"><ele>207.66666666666669</ele><time>2026-05-01T07:03:44.248Z</time></trkpt><trkpt lat="45.7756104" lon="9.4255966"><ele>207.0</ele><time>2026-05-01T07:03:45.244Z</time></trkpt><trkpt lat="45.77569" lon="9.4256288"><ele>206.33333333333331</ele><time>2026-05-01T07:03:46.241Z</time></trkpt><trkpt lat="45.7757604" lon="9.4256822"><ele>205.66666666666666</ele><time>2026-05-01T07:03:47.24Z</time></trkpt><trkpt lat="45.7758289" lon="9.4257564"><ele>205.0</ele><time>2026-05-01T07:03:48.237Z</time></trkpt><trkpt lat="45.77592" lon="9.4258348"><ele>206.5</ele><time>2026-05-01T07:03:49.241Z</time></trkpt><trkpt lat="45.7760447" lon="9.4258593"><ele>208.0</ele><time>2026-05-01T07:03:50.239Z</time></trkpt><trkpt lat="45.7761881" lon="9.4258575"><ele>209.5</ele><time>2026-05-01T07:03:51.247Z</time></trkpt><trkpt lat="45.7763556" lon="9.4258682"><ele>211.0</ele><time>2026-05-01T07:03:52.261Z</time></trkpt><trkpt lat="45.7765445" lon="9.4259025"><ele>211.0</ele><time>2026-05-01T07:03:53.269Z</time></trkpt><trkpt lat="45.7767424" lon="9.4259361"><ele>211.0</ele><time>2026-05-01T07:03:54.24Z</time></trkpt><trkpt lat="45.7769314" lon="9.4259405"><ele>211.0</ele><time>2026-05-01T07:03:55.235Z</time></trkpt><trkpt lat="45.7771138" lon="9.4259025"><ele>211.66666666666666</ele><time>2026-05-01T07:03:56.24Z</time></trkpt><trkpt lat="45.7772668" lon="9.4258531"><ele>212.33333333333331</ele><time>2026-05-01T07:03:57.236Z</time></trkpt><trkpt lat="45.7774326" lon="9.4257906"><ele>213.0</ele><time>2026-05-01T07:03:58.242Z</time></trkpt><trkpt lat="45.7776266" lon="9.4257163"><ele>214.5</ele><time>2026-05-01T07:03:59.235Z</time></trkpt><trkpt lat="45.7778373" lon="9.4256133"><ele>216.0</ele><time>2026-05-01T07:04:00.225Z</time></trkpt><trkpt lat="45.7780579" lon="9.4255245"><ele>222.5</ele><time>2026-05-01T07:04:01.234Z</time></trkpt><trkpt lat="45.7782771" lon="9.4253875"><ele>229.0</ele><time>2026-05-01T07:04:02.23Z</time></trkpt><trkpt lat="45.7784848" lon="9.4252815"><ele>225.0</ele><time>2026-05-01T07:04:03.233Z</time></trkpt><trkpt lat="45.7787242" lon="9.4251868"><ele>221.0</ele><time>2026-05-01T07:04:04.261Z</time></trkpt><trkpt lat="45.7789596" lon="9.4251025"><ele>221.0</ele><time>2026-05-01T07:04:05.252Z</time></trkpt><trkpt lat="45.7791903" lon="9.4250235"><ele>221.0</ele><time>2026-05-01T07:04:06.258Z</time></trkpt><trkpt lat="45.7794152" lon="9.4249558"><ele>220.0</ele><time>2026-05-01T07:04:07.233Z</time></trkpt><trkpt lat="45.7796421" lon="9.4248743"><ele>219.0</ele><time>2026-05-01T07:04:08.236Z</time></trkpt><trkpt lat="45.7798582" lon="9.4248238"><ele>219.0</ele><time>2026-05-01T07:04:09.232Z</time></trkpt><trkpt lat="45.780074" lon="9.4247651"><ele>219.0</ele><time>2026-05-01T07:04:10.242Z</time></trkpt><trkpt lat="45.7803016" lon="9.4247018"><ele>219.66666666666669</ele><time>2026-05-01T07:04:11.237Z</time></trkpt><trkpt lat="45.7805084" lon="9.4246324"><ele>220.33333333333334</ele><time>2026-05-01T07:04:12.23Z</time></trkpt><trkpt lat="45.780702" lon="9.4245709"><ele>221.0</ele><time>2026-05-01T07:04:13.234Z</time></trkpt><trkpt lat="45.7808873" lon="9.4245022"><ele>220.66666666666669</ele><time>2026-05-01T07:04:14.233Z</time></trkpt><trkpt lat="45.7810637" lon="9.4244489"><ele>220.33333333333331</ele><time>2026-05-01T07:04:15.234Z</time></trkpt><trkpt lat="45.7812385" lon="9.424409"><ele>220.0</ele><time>2026-05-01T07:04:16.241Z</time></trkpt><trkpt lat="45.7814051" lon="9.424387"><ele>220.0</ele><time>2026-05-01T07:04:17.237Z</time></trkpt><trkpt lat="45.781556" lon="9.4243686"><ele>220.0</ele><time>2026-05-01T07:04:18.237Z</time></trkpt><trkpt lat="45.7816861" lon="9.4243421"><ele>220.0</ele><time>2026-05-01T07:04:19.257Z</time></trkpt><trkpt lat="45.7818013" lon="9.4242969"><ele>220.0</ele><time>2026-05-01T07:04:20.237Z</time></trkpt><trkpt lat="45.7819078" lon="9.4242886"><ele>220.75</ele><time>2026-05-01T07:04:21.233Z</time></trkpt><trkpt lat="45.7820202" lon="9.4242697"><ele>221.5</ele><time>2026-05-01T07:04:22.238Z</time></trkpt><trkpt lat="45.782165" lon="9.4242193"><ele>222.25</ele><time>2026-05-01T07:04:23.241Z</time></trkpt><trkpt lat="45.7822805" lon="9.4241524"><ele>223.0</ele><time>2026-05-01T07:04:24.242Z</time></trkpt><trkpt lat="45.7824337" lon="9.4240938"><ele>223.0</ele><time>2026-05-01T07:04:25.24Z</time></trkpt><trkpt lat="45.7825916" lon="9.4240931"><ele>223.0</ele><time>2026-05-01T07:04:26.247Z</time></trkpt><trkpt lat="45.7827729" lon="9.4240542"><ele>223.0</ele><time>2026-05-01T07:04:27.246Z</time></trkpt><trkpt lat="45.7829615" lon="9.4240139"><ele>223.0</ele><time>2026-05-01T07:04:28.249Z</time></trkpt><trkpt lat="45.7831466" lon="9.4239621"><ele>223.0</ele><time>2026-05-01T07:04:29.247Z</time></trkpt><trkpt lat="45.7833036" lon="9.4238954"><ele>223.0</ele><time>2026-05-01T07:04:30.251Z</time></trkpt><trkpt lat="45.7834686" lon="9.4238319"><ele>222.25</ele><time>2026-05-01T07:04:31.239Z</time></trkpt><trkpt lat="45.7836125" lon="9.4237758"><ele>221.5</ele><time>2026-05-01T07:04:32.245Z</time></trkpt><trkpt lat="45.783736" lon="9.4236988"><ele>220.75</ele><time>2026-05-01T07:04:33.248Z</time></trkpt><trkpt lat="45.7838462" lon="9.4236205"><ele>220.0</ele><time>2026-05-01T07:04:34.243Z</time></trkpt><trkpt lat="45.7839726" lon="9.4235219"><ele>220.0</ele><time>2026-05-01T07:04:35.24Z</time></trkpt><trkpt lat="45.7841225" lon="9.4234252"><ele>220.0</ele><time>2026-05-01T07:04:36.24Z</time></trkpt><trkpt lat="45.784258" lon="9.4233088"><ele>220.0</ele><time>2026-05-01T07:04:37.243Z</time></trkpt><trkpt lat="45.7843706" lon="9.4232138"><ele>219.75</ele><time>2026-05-01T07:04:38.239Z</time></trkpt><trkpt lat="45.7844689" lon="9.4231257"><ele>219.5</ele><time>2026-05-01T07:04:39.245Z</time></trkpt><trkpt lat="45.7845518" lon="9.4230234"><ele>219.25</ele><time>2026-05-01T07:04:40.261Z</time></trkpt><trkpt lat="45.784653" lon="9.4229209"><ele>219.0</ele><time>2026-05-01T07:04:41.236Z</time></trkpt><trkpt lat="45.7847628" lon="9.4228279"><ele>219.5</ele><time>2026-05-01T07:04:42.229Z</time></trkpt><trkpt lat="45.7848763" lon="9.4227287"><ele>220.0</ele><time>2026-05-01T07:04:43.231Z</time></trkpt><trkpt lat="45.7849855" lon="9.4226598"><ele>220.5</ele><time>2026-05-01T07:04:44.233Z</time></trkpt><trkpt lat="45.7850936" lon="9.4225712"><ele>221.0</ele><time>2026-05-01T07:04:45.232Z</time></trkpt><trkpt lat="45.7851951" lon="9.4224818"><ele>220.4</ele><time>2026-05-01T07:04:46.238Z</time></trkpt><trkpt lat="45.7852906" lon="9.4224006"><ele>219.8</ele><time>2026-05-01T07:04:47.238Z</time></trkpt><trkpt lat="45.7853818" lon="9.4223318"><ele>219.20000000000002</ele><time>2026-05-01T07:04:48.242Z</time></trkpt><trkpt lat="45.7854691" lon="9.4222613"><ele>218.60000000000002</ele><time>2026-05-01T07:04:49.246Z</time></trkpt><trkpt lat="45.7855632" lon="9.4221879"><ele>218.0</ele><time>2026-05-01T07:04:50.246Z</time></trkpt><trkpt lat="45.7856646" lon="9.4221068"><ele>218.0</ele><time>2026-05-01T07:04:51.245Z</time></trkpt><trkpt lat="45.7857725" lon="9.4220216"><ele>218.0</ele><time>2026-05-01T07:04:52.247Z</time></trkpt><trkpt lat="45.7858776" lon="9.4219373"><ele>218.0</ele><time>2026-05-01T07:04:53.242Z</time></trkpt><trkpt lat="45.7859782" lon="9.4218562"><ele>218.0</ele><time>2026-05-01T07:04:54.239Z</time></trkpt><trkpt lat="45.7860791" lon="9.4217774"><ele>217.25</ele><time>2026-05-01T07:04:55.242Z</time></trkpt><trkpt lat="45.7861824" lon="9.421693"><ele>216.5</ele><time>2026-05-01T07:04:56.241Z</time></trkpt><trkpt lat="45.7862898" lon="9.4216089"><ele>215.75</ele><time>2026-05-01T07:04:57.244Z</time></trkpt><trkpt lat="45.7863944" lon="9.4215256"><ele>215.0</ele><time>2026-05-01T07:04:58.236Z</time></trkpt><trkpt lat="45.7864918" lon="9.4214385"><ele>215.0</ele><time>2026-05-01T07:04:59.245Z</time></trkpt><trkpt lat="45.7865881" lon="9.42135"><ele>215.0</ele><time>2026-05-01T07:05:00.242Z</time></trkpt><trkpt lat="45.7866851" lon="9.4212658"><ele>215.0</ele><time>2026-05-01T07:05:01.243Z</time></trkpt><trkpt lat="45.7867817" lon="9.4211841"><ele>215.0</ele><time>2026-05-01T07:05:02.247Z</time></trkpt><trkpt lat="45.7868849" lon="9.4210845"><ele>214.75</ele><time>2026-05-01T07:05:03.241Z</time></trkpt><trkpt lat="45.7869941" lon="9.4209932"><ele>214.5</ele><time>2026-05-01T07:05:04.239Z</time></trkpt><trkpt lat="45.7870992" lon="9.4209125"><ele>214.25</ele><time>2026-05-01T07:05:05.239Z</time></trkpt><trkpt lat="45.7872091" lon="9.4208203"><ele>214.0</ele><time>2026-05-01T07:05:06.241Z</time></trkpt><trkpt lat="45.7873277" lon="9.4207236"><ele>214.0</ele><time>2026-05-01T07:05:07.245Z</time></trkpt><trkpt lat="45.7874416" lon="9.4206261"><ele>214.0</ele><time>2026-05-01T07:05:08.258Z</time></trkpt><trkpt lat="45.7875574" lon="9.4205338"><ele>214.0</ele><time>2026-05-01T07:05:09.244Z</time></trkpt><trkpt lat="45.7876715" lon="9.4204456"><ele>214.0</ele><time>2026-05-01T07:05:10.244Z</time></trkpt><trkpt lat="45.7877883" lon="9.4203524"><ele>214.0</ele><time>2026-05-01T07:05:11.248Z</time></trkpt><trkpt lat="45.7879021" lon="9.420251"><ele>214.0</ele><time>2026-05-01T07:05:12.243Z</time></trkpt><trkpt lat="45.7880178" lon="9.4201528"><ele>214.0</ele><time>2026-05-01T07:05:13.251Z</time></trkpt><trkpt lat="45.78813" lon="9.4200522"><ele>214.0</ele><time>2026-05-01T07:05:14.238Z</time></trkpt><trkpt lat="45.7882504" lon="9.4199388"><ele>214.0</ele><time>2026-05-01T07:05:15.241Z</time></trkpt><trkpt lat="45.7883852" lon="9.4197759"><ele>214.0</ele><time>2026-05-01T07:05:16.234Z</time></trkpt><trkpt lat="45.7885639" lon="9.4196069"><ele>214.0</ele><time>2026-05-01T07:05:17.244Z</time></trkpt><trkpt lat="45.7887184" lon="9.4194585"><ele>213.33333333333331</ele><time>2026-05-01T07:05:18.243Z</time></trkpt><trkpt lat="45.7888673" lon="9.4193214"><ele>212.66666666666669</ele><time>2026-05-01T07:05:19.246Z</time></trkpt><trkpt lat="45.7890045" lon="9.4192022"><ele>212.0</ele><time>2026-05-01T07:05:20.243Z</time></trkpt><trkpt lat="45.7891032" lon="9.4190668"><ele>212.0</ele><time>2026-05-01T07:05:21.245Z</time></trkpt><trkpt lat="45.7891861" lon="9.4189739"><ele>212.0</ele><time>2026-05-01T07:05:22.244Z</time></trkpt><trkpt lat="45.7892489" lon="9.4188806"><ele>212.0</ele><time>2026-05-01T07:05:23.239Z</time></trkpt><trkpt lat="45.7893157" lon="9.418851"><ele>212.0</ele><time>2026-05-01T07:05:24.259Z</time></trkpt><trkpt lat="45.7894184" lon="9.4187923"><ele>212.0</ele><time>2026-05-01T07:05:26.244Z</time></trkpt><trkpt lat="45.7895339" lon="9.418754"><ele>211.6</ele><time>2026-05-01T07:05:28.287Z</time></trkpt><trkpt lat="45.7896389" lon="9.4186602"><ele>211.2</ele><time>2026-05-01T07:05:30.247Z</time></trkpt><trkpt lat="45.7896824" lon="9.4185882"><ele>210.8</ele><time>2026-05-01T07:05:31.265Z</time></trkpt><trkpt lat="45.7897204" lon="9.4184219"><ele>210.4</ele><time>2026-05-01T07:05:33.248Z</time></trkpt><trkpt lat="45.7897215" lon="9.4183177"><ele>210.0</ele><time>2026-05-01T07:05:34.246Z</time></trkpt><trkpt lat="45.7897298" lon="9.4182077"><ele>210.0</ele><time>2026-05-01T07:05:35.243Z</time></trkpt><trkpt lat="45.7897481" lon="9.4180825"><ele>210.0</ele><time>2026-05-01T07:05:36.245Z</time></trkpt><trkpt lat="45.7898135" lon="9.4179308"><ele>210.0</ele><time>2026-05-01T07:05:37.245Z</time></trkpt><trkpt lat="45.7899032" lon="9.4177513"><ele>210.0</ele><time>2026-05-01T07:05:38.242Z</time></trkpt><trkpt lat="45.7900363" lon="9.4175207"><ele>209.66666666666669</ele><time>2026-05-01T07:05:39.241Z</time></trkpt><trkpt lat="45.7901737" lon="9.4172895"><ele>209.33333333333334</ele><time>2026-05-01T07:05:40.247Z</time></trkpt><trkpt lat="45.7903214" lon="9.4170657"><ele>209.0</ele><time>2026-05-01T07:05:41.246Z</time></trkpt><trkpt lat="45.7904688" lon="9.4168407"><ele>209.0</ele><time>2026-05-01T07:05:42.245Z</time></trkpt><trkpt lat="45.7906061" lon="9.4165852"><ele>209.0</ele><time>2026-05-01T07:05:43.239Z</time></trkpt><trkpt lat="45.7907549" lon="9.4163145"><ele>209.5</ele><time>2026-05-01T07:05:44.242Z</time></trkpt><trkpt lat="45.790914" lon="9.4160346"><ele>210.0</ele><time>2026-05-01T07:05:45.235Z</time></trkpt><trkpt lat="45.7910802" lon="9.4157723"><ele>209.5</ele><time>2026-05-01T07:05:46.242Z</time></trkpt><trkpt lat="45.7912518" lon="9.4155211"><ele>209.0</ele><time>2026-05-01T07:05:47.249Z</time></trkpt><trkpt lat="45.7914046" lon="9.41527"><ele>209.0</ele><time>2026-05-01T07:05:48.253Z</time></trkpt><trkpt lat="45.7915598" lon="9.4150178"><ele>209.0</ele><time>2026-05-01T07:05:49.246Z</time></trkpt><trkpt lat="45.7917161" lon="9.4147622"><ele>208.5</ele><time>2026-05-01T07:05:50.24Z</time></trkpt><trkpt lat="45.7918604" lon="9.4145157"><ele>208.0</ele><time>2026-05-01T07:05:51.237Z</time></trkpt><trkpt lat="45.7920237" lon="9.4142829"><ele>208.0</ele><time>2026-05-01T07:05:52.235Z</time></trkpt><trkpt lat="45.7921926" lon="9.4140701"><ele>208.0</ele><time>2026-05-01T07:05:53.236Z</time></trkpt><trkpt lat="45.7923732" lon="9.4138743"><ele>209.0</ele><time>2026-05-01T07:05:54.233Z</time></trkpt><trkpt lat="45.7925623" lon="9.4136769"><ele>210.0</ele><time>2026-05-01T07:05:55.239Z</time></trkpt><trkpt lat="45.7927585" lon="9.4135213"><ele>210.33333333333331</ele><time>2026-05-01T07:05:56.238Z</time></trkpt><trkpt lat="45.792951" lon="9.4133804"><ele>210.66666666666666</ele><time>2026-05-01T07:05:57.236Z</time></trkpt><trkpt lat="45.7931391" lon="9.4132614"><ele>211.0</ele><time>2026-05-01T07:05:58.247Z</time></trkpt><trkpt lat="45.7933306" lon="9.4131788"><ele>210.66666666666666</ele><time>2026-05-01T07:05:59.239Z</time></trkpt><trkpt lat="45.7935333" lon="9.4130943"><ele>210.33333333333331</ele><time>2026-05-01T07:06:00.248Z</time></trkpt><trkpt lat="45.7937369" lon="9.4130012"><ele>210.0</ele><time>2026-05-01T07:06:01.253Z</time></trkpt><trkpt lat="45.793936" lon="9.4129"><ele>211.0</ele><time>2026-05-01T07:06:02.25Z</time></trkpt><trkpt lat="45.7941293" lon="9.4128129"><ele>212.0</ele><time>2026-05-01T07:06:03.251Z</time></trkpt><trkpt lat="45.794327" lon="9.4127074"><ele>213.0</ele><time>2026-05-01T07:06:04.253Z</time></trkpt><trkpt lat="45.7945213" lon="9.4126022"><ele>213.33333333333331</ele><time>2026-05-01T07:06:05.252Z</time></trkpt><trkpt lat="45.7947059" lon="9.4125199"><ele>213.66666666666666</ele><time>2026-05-01T07:06:06.244Z</time></trkpt><trkpt lat="45.794901" lon="9.4124294"><ele>214.0</ele><time>2026-05-01T07:06:07.242Z</time></trkpt><trkpt lat="45.7950943" lon="9.4123315"><ele>215.0</ele><time>2026-05-01T07:06:08.243Z</time></trkpt><trkpt lat="45.7952909" lon="9.4121904"><ele>216.0</ele><time>2026-05-01T07:06:09.245Z</time></trkpt><trkpt lat="45.7955164" lon="9.4120986"><ele>218.5</ele><time>2026-05-01T07:06:10.243Z</time></trkpt><trkpt lat="45.7957507" lon="9.4120156"><ele>221.0</ele><time>2026-05-01T07:06:11.245Z</time></trkpt><trkpt lat="45.7959624" lon="9.411936"><ele>221.5</ele><time>2026-05-01T07:06:12.248Z</time></trkpt><trkpt lat="45.7961704" lon="9.4118454"><ele>222.0</ele><time>2026-05-01T07:06:13.248Z</time></trkpt><trkpt lat="45.7963924" lon="9.4117265"><ele>222.0</ele><time>2026-05-01T07:06:14.245Z</time></trkpt><trkpt lat="45.7966079" lon="9.4116214"><ele>222.0</ele><time>2026-05-01T07:06:15.243Z</time></trkpt><trkpt lat="45.7968075" lon="9.4115188"><ele>222.0</ele><time>2026-05-01T07:06:16.25Z</time></trkpt><trkpt lat="45.7969954" lon="9.4114125"><ele>225.33333333333331</ele><time>2026-05-01T07:06:17.249Z</time></trkpt><trkpt lat="45.7971944" lon="9.4113015"><ele>228.66666666666666</ele><time>2026-05-01T07:06:18.248Z</time></trkpt><trkpt lat="45.7973902" lon="9.4111992"><ele>232.0</ele><time>2026-05-01T07:06:19.248Z</time></trkpt><trkpt lat="45.7975715" lon="9.4111191"><ele>230.33333333333331</ele><time>2026-05-01T07:06:20.245Z</time></trkpt><trkpt lat="45.7977349" lon="9.4110279"><ele>228.66666666666669</ele><time>2026-05-01T07:06:21.24Z</time></trkpt><trkpt lat="45.7978931" lon="9.4109484"><ele>227.0</ele><time>2026-05-01T07:06:22.244Z</time></trkpt><trkpt lat="45.7980376" lon="9.4108876"><ele>227.0</ele><time>2026-05-01T07:06:23.248Z</time></trkpt><trkpt lat="45.7981584" lon="9.4108446"><ele>227.0</ele><time>2026-05-01T07:06:24.235Z</time></trkpt><trkpt lat="45.7982758" lon="9.4108134"><ele>227.0</ele><time>2026-05-01T07:06:25.243Z</time></trkpt><trkpt lat="45.7984022" lon="9.4107584"><ele>227.0</ele><time>2026-05-01T07:06:26.247Z</time></trkpt><trkpt lat="45.7985486" lon="9.4106832"><ele>227.66666666666669</ele><time>2026-05-01T07:06:27.252Z</time></trkpt><trkpt lat="45.7987128" lon="9.4106073"><ele>228.33333333333331</ele><time>2026-05-01T07:06:28.248Z</time></trkpt><trkpt lat="45.7988829" lon="9.4105341"><ele>229.0</ele><time>2026-05-01T07:06:29.252Z</time></trkpt><trkpt lat="45.7990502" lon="9.4104538"><ele>229.0</ele><time>2026-05-01T07:06:30.243Z</time></trkpt><trkpt lat="45.7992247" lon="9.4103627"><ele>229.0</ele><time>2026-05-01T07:06:31.252Z</time></trkpt><trkpt lat="45.7994056" lon="9.4102845"><ele>229.0</ele><time>2026-05-01T07:06:32.247Z</time></trkpt><trkpt lat="45.7995794" lon="9.4102249"><ele>227.33333333333331</ele><time>2026-05-01T07:06:33.252Z</time></trkpt><trkpt lat="45.7997458" lon="9.4101542"><ele>225.66666666666669</ele><time>2026-05-01T07:06:34.252Z</time></trkpt><trkpt lat="45.7999017" lon="9.4100751"><ele>224.0</ele><time>2026-05-01T07:06:35.25Z</time></trkpt><trkpt lat="45.8000294" lon="9.4100194"><ele>224.0</ele><time>2026-05-01T07:06:36.254Z</time></trkpt><trkpt lat="45.8001482" lon="9.4099618"><ele>223.99999999999997</ele><time>2026-05-01T07:06:37.251Z</time></trkpt><trkpt lat="45.8002501" lon="9.4099185"><ele>223.99999999999997</ele><time>2026-05-01T07:06:38.248Z</time></trkpt><trkpt lat="45.8003278" lon="9.4098628"><ele>224.0</ele><time>2026-05-01T07:06:39.248Z</time></trkpt><trkpt lat="45.8004121" lon="9.4098281"><ele>224.0</ele><time>2026-05-01T07:06:40.253Z</time></trkpt><trkpt lat="45.8004984" lon="9.4097979"><ele>223.79999999999998</ele><time>2026-05-01T07:06:41.246Z</time></trkpt><trkpt lat="45.8005883" lon="9.4098122"><ele>223.59999999999997</ele><time>2026-05-01T07:06:42.252Z</time></trkpt><trkpt lat="45.8006624" lon="9.4097729"><ele>223.4</ele><time>2026-05-01T07:06:43.247Z</time></trkpt><trkpt lat="45.8007385" lon="9.4096982"><ele>223.2</ele><time>2026-05-01T07:06:44.257Z</time></trkpt><trkpt lat="45.8008206" lon="9.4096141"><ele>223.0</ele><time>2026-05-01T07:06:45.271Z</time></trkpt><trkpt lat="45.8009136" lon="9.4095375"><ele>221.75</ele><time>2026-05-01T07:06:46.25Z</time></trkpt><trkpt lat="45.8010189" lon="9.4094617"><ele>220.5</ele><time>2026-05-01T07:06:47.256Z</time></trkpt><trkpt lat="45.8011328" lon="9.4093764"><ele>219.25</ele><time>2026-05-01T07:06:48.249Z</time></trkpt><trkpt lat="45.8012469" lon="9.4092825"><ele>218.0</ele><time>2026-05-01T07:06:49.25Z</time></trkpt><trkpt lat="45.8013607" lon="9.4091793"><ele>218.0</ele><time>2026-05-01T07:06:50.256Z</time></trkpt><trkpt lat="45.8014779" lon="9.4090635"><ele>218.0</ele><time>2026-05-01T07:06:51.252Z</time></trkpt><trkpt lat="45.8016071" lon="9.4089105"><ele>218.0</ele><time>2026-05-01T07:06:52.256Z</time></trkpt><trkpt lat="45.801732" lon="9.4087142"><ele>217.33333333333334</ele><time>2026-05-01T07:06:53.249Z</time></trkpt><trkpt lat="45.801876" lon="9.4084756"><ele>216.66666666666669</ele><time>2026-05-01T07:06:54.266Z</time></trkpt><trkpt lat="45.8020383" lon="9.4082457"><ele>216.0</ele><time>2026-05-01T07:06:55.262Z</time></trkpt><trkpt lat="45.8022174" lon="9.4080312"><ele>216.0</ele><time>2026-05-01T07:06:56.249Z</time></trkpt><trkpt lat="45.8023758" lon="9.4077862"><ele>216.0</ele><time>2026-05-01T07:06:57.267Z</time></trkpt><trkpt lat="45.802521" lon="9.4075561"><ele>216.0</ele><time>2026-05-01T07:06:58.268Z</time></trkpt><trkpt lat="45.8026819" lon="9.4073719"><ele>214.0</ele><time>2026-05-01T07:06:59.27Z</time></trkpt><trkpt lat="45.8028265" lon="9.4071905"><ele>212.0</ele><time>2026-05-01T07:07:00.266Z</time></trkpt><trkpt lat="45.8029461" lon="9.4070008"><ele>210.0</ele><time>2026-05-01T07:07:01.246Z</time></trkpt><trkpt lat="45.8030672" lon="9.4068184"><ele>209.33333333333331</ele><time>2026-05-01T07:07:02.237Z</time></trkpt><trkpt lat="45.8031939" lon="9.4066446"><ele>208.66666666666666</ele><time>2026-05-01T07:07:03.267Z</time></trkpt><trkpt lat="45.8033055" lon="9.4064828"><ele>208.0</ele><time>2026-05-01T07:07:04.266Z</time></trkpt><trkpt lat="45.8034066" lon="9.4063282"><ele>206.75</ele><time>2026-05-01T07:07:05.269Z</time></trkpt><trkpt lat="45.8035196" lon="9.4061781"><ele>205.5</ele><time>2026-05-01T07:07:06.271Z</time></trkpt><trkpt lat="45.8036176" lon="9.4060488"><ele>204.25</ele><time>2026-05-01T07:07:07.266Z</time></trkpt><trkpt lat="45.8037191" lon="9.4059423"><ele>203.0</ele><time>2026-05-01T07:07:08.264Z</time></trkpt><trkpt lat="45.8038028" lon="9.40585"><ele>203.00000000000003</ele><time>2026-05-01T07:07:09.266Z</time></trkpt><trkpt lat="45.8038767" lon="9.4057674"><ele>203.0</ele><time>2026-05-01T07:07:10.245Z</time></trkpt><trkpt lat="45.8039507" lon="9.405711"><ele>203.0</ele><time>2026-05-01T07:07:11.245Z</time></trkpt><trkpt lat="45.8040115" lon="9.4056867"><ele>203.0</ele><time>2026-05-01T07:07:12.249Z</time></trkpt><trkpt lat="45.8040749" lon="9.4056522"><ele>203.00000000000003</ele><time>2026-05-01T07:07:13.244Z</time></trkpt><trkpt lat="45.8042024" lon="9.4055999"><ele>203.0</ele><time>2026-05-01T07:07:15.243Z</time></trkpt><trkpt lat="45.8042678" lon="9.4056118"><ele>202.4</ele><time>2026-05-01T07:07:16.26Z</time></trkpt><trkpt lat="45.8043837" lon="9.4055283"><ele>201.8</ele><time>2026-05-01T07:07:18.262Z</time></trkpt><trkpt lat="45.8044292" lon="9.4054214"><ele>201.2</ele><time>2026-05-01T07:07:19.246Z</time></trkpt><trkpt lat="45.8044777" lon="9.4052848"><ele>200.6</ele><time>2026-05-01T07:07:20.244Z</time></trkpt><trkpt lat="45.8045441" lon="9.4051433"><ele>200.0</ele><time>2026-05-01T07:07:21.24Z</time></trkpt><trkpt lat="45.8046308" lon="9.4050168"><ele>200.0</ele><time>2026-05-01T07:07:22.243Z</time></trkpt><trkpt lat="45.804721" lon="9.4048938"><ele>200.0</ele><time>2026-05-01T07:07:23.24Z</time></trkpt><trkpt lat="45.8048315" lon="9.4047695"><ele>200.0</ele><time>2026-05-01T07:07:24.243Z</time></trkpt><trkpt lat="45.8049676" lon="9.404632"><ele>200.0</ele><time>2026-05-01T07:07:25.247Z</time></trkpt><trkpt lat="45.8051043" lon="9.4044776"><ele>200.5</ele><time>2026-05-01T07:07:26.244Z</time></trkpt><trkpt lat="45.8052266" lon="9.4043658"><ele>201.0</ele><time>2026-05-01T07:07:27.242Z</time></trkpt><trkpt lat="45.8053437" lon="9.404248"><ele>201.5</ele><time>2026-05-01T07:07:28.249Z</time></trkpt><trkpt lat="45.8054533" lon="9.4041414"><ele>202.0</ele><time>2026-05-01T07:07:29.246Z</time></trkpt><trkpt lat="45.8055583" lon="9.4040252"><ele>202.0</ele><time>2026-05-01T07:07:30.244Z</time></trkpt><trkpt lat="45.8056616" lon="9.4039092"><ele>202.0</ele><time>2026-05-01T07:07:31.245Z</time></trkpt><trkpt lat="45.8057733" lon="9.40379"><ele>202.0</ele><time>2026-05-01T07:07:32.246Z</time></trkpt><trkpt lat="45.805881" lon="9.4036848"><ele>202.0</ele><time>2026-05-01T07:07:33.246Z</time></trkpt><trkpt lat="45.8059964" lon="9.4035738"><ele>202.0</ele><time>2026-05-01T07:07:34.251Z</time></trkpt><trkpt lat="45.8061134" lon="9.4034808"><ele>202.0</ele><time>2026-05-01T07:07:35.249Z</time></trkpt><trkpt lat="45.8062226" lon="9.4033807"><ele>202.0</ele><time>2026-05-01T07:07:36.246Z</time></trkpt><trkpt lat="45.806315" lon="9.4032833"><ele>202.0</ele><time>2026-05-01T07:07:37.245Z</time></trkpt><trkpt lat="45.8063676" lon="9.4031907"><ele>201.99999999999997</ele><time>2026-05-01T07:07:38.239Z</time></trkpt><trkpt lat="45.806452" lon="9.4031292"><ele>202.0</ele><time>2026-05-01T07:07:39.245Z</time></trkpt><trkpt lat="45.8065335" lon="9.4030716"><ele>202.0</ele><time>2026-05-01T07:07:40.242Z</time></trkpt><trkpt lat="45.8066032" lon="9.4029977"><ele>202.0</ele><time>2026-05-01T07:07:41.242Z</time></trkpt><trkpt lat="45.8066573" lon="9.402914"><ele>201.99999999999997</ele><time>2026-05-01T07:07:42.247Z</time></trkpt><trkpt lat="45.8067315" lon="9.4028411"><ele>202.0</ele><time>2026-05-01T07:07:43.242Z</time></trkpt><trkpt lat="45.806807" lon="9.4027587"><ele>202.0</ele><time>2026-05-01T07:07:44.235Z</time></trkpt><trkpt lat="45.8068927" lon="9.4026579"><ele>202.0</ele><time>2026-05-01T07:07:45.257Z</time></trkpt><trkpt lat="45.806989" lon="9.4025478"><ele>202.0</ele><time>2026-05-01T07:07:46.278Z</time></trkpt><trkpt lat="45.8071006" lon="9.4024523"><ele>202.0</ele><time>2026-05-01T07:07:47.264Z</time></trkpt><trkpt lat="45.807201" lon="9.4023764"><ele>202.0</ele><time>2026-05-01T07:07:48.288Z</time></trkpt><trkpt lat="45.8072872" lon="9.4023054"><ele>202.0</ele><time>2026-05-01T07:07:49.246Z</time></trkpt><trkpt lat="45.8073649" lon="9.4022266"><ele>202.0</ele><time>2026-05-01T07:07:50.246Z</time></trkpt><trkpt lat="45.8074374" lon="9.4021399"><ele>202.0</ele><time>2026-05-01T07:07:51.243Z</time></trkpt><trkpt lat="45.8075138" lon="9.4020588"><ele>202.0</ele><time>2026-05-01T07:07:52.267Z</time></trkpt><trkpt lat="45.8076005" lon="9.4019718"><ele>201.75</ele><time>2026-05-01T07:07:53.262Z</time></trkpt><trkpt lat="45.8076942" lon="9.4018821"><ele>201.5</ele><time>2026-05-01T07:07:54.236Z</time></trkpt><trkpt lat="45.807796" lon="9.4017862"><ele>201.25</ele><time>2026-05-01T07:07:55.247Z</time></trkpt><trkpt lat="45.8079032" lon="9.4016872"><ele>201.0</ele><time>2026-05-01T07:07:56.244Z</time></trkpt><trkpt lat="45.8080124" lon="9.4015805"><ele>201.0</ele><time>2026-05-01T07:07:57.238Z</time></trkpt><trkpt lat="45.8081293" lon="9.4014736"><ele>201.0</ele><time>2026-05-01T07:07:58.242Z</time></trkpt><trkpt lat="45.8082646" lon="9.40138"><ele>201.0</ele><time>2026-05-01T07:07:59.237Z</time></trkpt><trkpt lat="45.8084031" lon="9.4012805"><ele>201.0</ele><time>2026-05-01T07:08:00.237Z</time></trkpt><trkpt lat="45.8085575" lon="9.401178"><ele>201.25</ele><time>2026-05-01T07:08:01.243Z</time></trkpt><trkpt lat="45.8087184" lon="9.401124"><ele>201.5</ele><time>2026-05-01T07:08:02.236Z</time></trkpt><trkpt lat="45.8088566" lon="9.4010622"><ele>201.75</ele><time>2026-05-01T07:08:03.255Z</time></trkpt><trkpt lat="45.8089609" lon="9.4010109"><ele>202.0</ele><time>2026-05-01T07:08:04.257Z</time></trkpt><trkpt lat="45.8090676" lon="9.4009575"><ele>202.0</ele><time>2026-05-01T07:08:05.254Z</time></trkpt><trkpt lat="45.8091733" lon="9.4009072"><ele>202.0</ele><time>2026-05-01T07:08:06.234Z</time></trkpt><trkpt lat="45.8092801" lon="9.4008583"><ele>202.0</ele><time>2026-05-01T07:08:07.242Z</time></trkpt><trkpt lat="45.8093929" lon="9.4007828"><ele>202.0</ele><time>2026-05-01T07:08:08.23Z</time></trkpt><trkpt lat="45.8095136" lon="9.4007188"><ele>202.0</ele><time>2026-05-01T07:08:09.233Z</time></trkpt><trkpt lat="45.8096553" lon="9.4006441"><ele>202.0</ele><time>2026-05-01T07:08:10.235Z</time></trkpt><trkpt lat="45.8098074" lon="9.4005786"><ele>202.0</ele><time>2026-05-01T07:08:11.24Z</time></trkpt><trkpt lat="45.809961" lon="9.4005228"><ele>202.0</ele><time>2026-05-01T07:08:12.245Z</time></trkpt><trkpt lat="45.8101252" lon="9.400455"><ele>202.0</ele><time>2026-05-01T07:08:13.241Z</time></trkpt><trkpt lat="45.8103013" lon="9.4003586"><ele>202.0</ele><time>2026-05-01T07:08:14.237Z</time></trkpt><trkpt lat="45.8104947" lon="9.4002587"><ele>202.0</ele><time>2026-05-01T07:08:15.241Z</time></trkpt><trkpt lat="45.8106904" lon="9.4001677"><ele>202.0</ele><time>2026-05-01T07:08:16.246Z</time></trkpt><trkpt lat="45.8108783" lon="9.4000579"><ele>202.0</ele><time>2026-05-01T07:08:17.241Z</time></trkpt><trkpt lat="45.8110509" lon="9.399965"><ele>202.66666666666666</ele><time>2026-05-01T07:08:18.241Z</time></trkpt><trkpt lat="45.8112243" lon="9.3998968"><ele>203.33333333333331</ele><time>2026-05-01T07:08:19.241Z</time></trkpt><trkpt lat="45.8113707" lon="9.39982"><ele>204.0</ele><time>2026-05-01T07:08:20.243Z</time></trkpt><trkpt lat="45.8115162" lon="9.3997454"><ele>204.0</ele><time>2026-05-01T07:08:21.238Z</time></trkpt><trkpt lat="45.8116565" lon="9.3996824"><ele>204.0</ele><time>2026-05-01T07:08:22.246Z</time></trkpt><trkpt lat="45.811784" lon="9.3996278"><ele>204.0</ele><time>2026-05-01T07:08:23.237Z</time></trkpt><trkpt lat="45.8118932" lon="9.3995666"><ele>204.0</ele><time>2026-05-01T07:08:24.233Z</time></trkpt><trkpt lat="45.8120009" lon="9.3995192"><ele>204.39999999999998</ele><time>2026-05-01T07:08:25.239Z</time></trkpt><trkpt lat="45.8120904" lon="9.3994387"><ele>204.8</ele><time>2026-05-01T07:08:26.23Z</time></trkpt><trkpt lat="45.8121926" lon="9.3993921"><ele>205.2</ele><time>2026-05-01T07:08:27.237Z</time></trkpt><trkpt lat="45.8122696" lon="9.3993682"><ele>205.60000000000002</ele><time>2026-05-01T07:08:28.24Z</time></trkpt><trkpt lat="45.8123678" lon="9.3993095"><ele>206.0</ele><time>2026-05-01T07:08:30.236Z</time></trkpt><trkpt lat="45.812435" lon="9.3992794"><ele>206.00000000000003</ele><time>2026-05-01T07:08:32.246Z</time></trkpt><trkpt lat="45.8125165" lon="9.3992695"><ele>206.0</ele><time>2026-05-01T07:08:34.243Z</time></trkpt><trkpt lat="45.8125793" lon="9.3992583"><ele>206.0</ele><time>2026-05-01T07:08:35.239Z</time></trkpt><trkpt lat="45.8126531" lon="9.3992557"><ele>206.0</ele><time>2026-05-01T07:08:36.262Z</time></trkpt><trkpt lat="45.8127311" lon="9.3992379"><ele>206.00000000000003</ele><time>2026-05-01T07:08:37.231Z</time></trkpt><trkpt lat="45.8127972" lon="9.3991795"><ele>206.0</ele><time>2026-05-01T07:08:38.277Z</time></trkpt><trkpt lat="45.8128664" lon="9.3990958"><ele>206.0</ele><time>2026-05-01T07:08:39.238Z</time></trkpt><trkpt lat="45.8129426" lon="9.3990241"><ele>206.0</ele><time>2026-05-01T07:08:40.235Z</time></trkpt><trkpt lat="45.8130407" lon="9.3989658"><ele>206.0</ele><time>2026-05-01T07:08:41.237Z</time></trkpt><trkpt lat="45.8131542" lon="9.3989084"><ele>206.0</ele><time>2026-05-01T07:08:42.238Z</time></trkpt><trkpt lat="45.8132935" lon="9.3988406"><ele>206.66666666666669</ele><time>2026-05-01T07:08:43.239Z</time></trkpt><trkpt lat="45.8134475" lon="9.3987618"><ele>207.33333333333331</ele><time>2026-05-01T07:08:44.239Z</time></trkpt><trkpt lat="45.8136312" lon="9.3986803"><ele>208.0</ele><time>2026-05-01T07:08:45.233Z</time></trkpt><trkpt lat="45.8138259" lon="9.3985903"><ele>208.0</ele><time>2026-05-01T07:08:46.24Z</time></trkpt><trkpt lat="45.8140218" lon="9.3984985"><ele>208.0</ele><time>2026-05-01T07:08:47.236Z</time></trkpt><trkpt lat="45.8142171" lon="9.398402"><ele>208.0</ele><time>2026-05-01T07:08:48.238Z</time></trkpt><trkpt lat="45.8144069" lon="9.398328"><ele>207.33333333333331</ele><time>2026-05-01T07:08:49.242Z</time></trkpt><trkpt lat="45.8145856" lon="9.3982405"><ele>206.66666666666669</ele><time>2026-05-01T07:08:50.234Z</time></trkpt><trkpt lat="45.8147616" lon="9.3981466"><ele>206.0</ele><time>2026-05-01T07:08:51.238Z</time></trkpt><trkpt lat="45.8149224" lon="9.3980691"><ele>206.0</ele><time>2026-05-01T07:08:52.237Z</time></trkpt><trkpt lat="45.8150695" lon="9.3979898"><ele>206.0</ele><time>2026-05-01T07:08:53.241Z</time></trkpt><trkpt lat="45.8152152" lon="9.3979226"><ele>206.0</ele><time>2026-05-01T07:08:54.241Z</time></trkpt><trkpt lat="45.8153603" lon="9.397847"><ele>206.0</ele><time>2026-05-01T07:08:55.241Z</time></trkpt><trkpt lat="45.8155059" lon="9.3977681"><ele>206.0</ele><time>2026-05-01T07:08:56.238Z</time></trkpt><trkpt lat="45.8156583" lon="9.3976978"><ele>206.0</ele><time>2026-05-01T07:08:57.235Z</time></trkpt><trkpt lat="45.8158114" lon="9.3976291"><ele>206.0</ele><time>2026-05-01T07:08:58.245Z</time></trkpt><trkpt lat="45.8159611" lon="9.3975598"><ele>206.0</ele><time>2026-05-01T07:08:59.236Z</time></trkpt><trkpt lat="45.8161114" lon="9.3974994"><ele>206.0</ele><time>2026-05-01T07:09:00.247Z</time></trkpt><trkpt lat="45.8162549" lon="9.3974037"><ele>205.66666666666669</ele><time>2026-05-01T07:09:01.238Z</time></trkpt><trkpt lat="45.8164112" lon="9.3972979"><ele>205.33333333333331</ele><time>2026-05-01T07:09:02.237Z</time></trkpt><trkpt lat="45.8165776" lon="9.3971783"><ele>205.0</ele><time>2026-05-01T07:09:03.237Z</time></trkpt><trkpt lat="45.8167823" lon="9.3971056"><ele>204.0</ele><time>2026-05-01T07:09:04.238Z</time></trkpt><trkpt lat="45.8169979" lon="9.397009"><ele>203.0</ele><time>2026-05-01T07:09:05.238Z</time></trkpt><trkpt lat="45.817196" lon="9.3969109"><ele>202.0</ele><time>2026-05-01T07:09:06.238Z</time></trkpt><trkpt lat="45.8173883" lon="9.3968331"><ele>202.0</ele><time>2026-05-01T07:09:07.238Z</time></trkpt><trkpt lat="45.8175788" lon="9.3967519"><ele>202.0</ele><time>2026-05-01T07:09:08.241Z</time></trkpt><trkpt lat="45.8177483" lon="9.3966771"><ele>202.0</ele><time>2026-05-01T07:09:09.25Z</time></trkpt><trkpt lat="45.8179158" lon="9.3965731"><ele>202.66666666666666</ele><time>2026-05-01T07:09:10.233Z</time></trkpt><trkpt lat="45.8180875" lon="9.3964656"><ele>203.33333333333331</ele><time>2026-05-01T07:09:11.248Z</time></trkpt><trkpt lat="45.8182792" lon="9.3963727"><ele>204.0</ele><time>2026-05-01T07:09:12.236Z</time></trkpt><trkpt lat="45.8184438" lon="9.3962696"><ele>204.0</ele><time>2026-05-01T07:09:13.24Z</time></trkpt><trkpt lat="45.8185955" lon="9.3962017"><ele>204.0</ele><time>2026-05-01T07:09:14.244Z</time></trkpt><trkpt lat="45.8187499" lon="9.3961289"><ele>204.0</ele><time>2026-05-01T07:09:15.237Z</time></trkpt><trkpt lat="45.8189113" lon="9.3960487"><ele>204.0</ele><time>2026-05-01T07:09:16.244Z</time></trkpt><trkpt lat="45.819057" lon="9.3959744"><ele>204.0</ele><time>2026-05-01T07:09:17.245Z</time></trkpt><trkpt lat="45.8192131" lon="9.3958954"><ele>204.0</ele><time>2026-05-01T07:09:18.24Z</time></trkpt><trkpt lat="45.8193651" lon="9.3957916"><ele>203.0</ele><time>2026-05-01T07:09:19.237Z</time></trkpt><trkpt lat="45.8195292" lon="9.3957151"><ele>202.0</ele><time>2026-05-01T07:09:20.234Z</time></trkpt><trkpt lat="45.8196979" lon="9.3956473"><ele>201.0</ele><time>2026-05-01T07:09:21.237Z</time></trkpt><trkpt lat="45.8198659" lon="9.3955354"><ele>202.0</ele><time>2026-05-01T07:09:22.229Z</time></trkpt><trkpt lat="45.8200438" lon="9.3954333"><ele>203.0</ele><time>2026-05-01T07:09:23.23Z</time></trkpt><trkpt lat="45.8202538" lon="9.3953323"><ele>204.0</ele><time>2026-05-01T07:09:24.236Z</time></trkpt><trkpt lat="45.8204651" lon="9.3952434"><ele>204.0</ele><time>2026-05-01T07:09:25.233Z</time></trkpt><trkpt lat="45.8206563" lon="9.3951767"><ele>204.0</ele><time>2026-05-01T07:09:26.231Z</time></trkpt><trkpt lat="45.8208445" lon="9.3950759"><ele>204.0</ele><time>2026-05-01T07:09:27.228Z</time></trkpt><trkpt lat="45.8210334" lon="9.395018"><ele>203.33333333333331</ele><time>2026-05-01T07:09:28.232Z</time></trkpt><trkpt lat="45.8212215" lon="9.3949603"><ele>202.66666666666666</ele><time>2026-05-01T07:09:29.235Z</time></trkpt><trkpt lat="45.8213907" lon="9.3949371"><ele>202.0</ele><time>2026-05-01T07:09:30.237Z</time></trkpt><trkpt lat="45.8215528" lon="9.3949195"><ele>202.0</ele><time>2026-05-01T07:09:31.24Z</time></trkpt><trkpt lat="45.8217458" lon="9.3949322"><ele>202.0</ele><time>2026-05-01T07:09:32.241Z</time></trkpt><trkpt lat="45.8219217" lon="9.3949414"><ele>202.0</ele><time>2026-05-01T07:09:33.241Z</time></trkpt><trkpt lat="45.8220645" lon="9.3949499"><ele>203.0</ele><time>2026-05-01T07:09:34.242Z</time></trkpt><trkpt lat="45.822218" lon="9.3949799"><ele>204.0</ele><time>2026-05-01T07:09:35.228Z</time></trkpt><trkpt lat="45.8223811" lon="9.3950167"><ele>205.0</ele><time>2026-05-01T07:09:36.238Z</time></trkpt><trkpt lat="45.8225517" lon="9.3950647"><ele>204.66666666666666</ele><time>2026-05-01T07:09:37.229Z</time></trkpt><trkpt lat="45.8227034" lon="9.3951347"><ele>204.33333333333331</ele><time>2026-05-01T07:09:38.234Z</time></trkpt><trkpt lat="45.8228766" lon="9.3951326"><ele>204.0</ele><time>2026-05-01T07:09:39.237Z</time></trkpt><trkpt lat="45.8230445" lon="9.3951205"><ele>204.0</ele><time>2026-05-01T07:09:40.232Z</time></trkpt><trkpt lat="45.8232356" lon="9.395108"><ele>204.0</ele><time>2026-05-01T07:09:41.234Z</time></trkpt><trkpt lat="45.8234309" lon="9.3950953"><ele>204.0</ele><time>2026-05-01T07:09:42.24Z</time></trkpt><trkpt lat="45.8236142" lon="9.395097"><ele>204.33333333333331</ele><time>2026-05-01T07:09:43.239Z</time></trkpt><trkpt lat="45.8237883" lon="9.3951097"><ele>204.66666666666666</ele><time>2026-05-01T07:09:44.244Z</time></trkpt><trkpt lat="45.8239455" lon="9.3951285"><ele>205.0</ele><time>2026-05-01T07:09:45.235Z</time></trkpt><trkpt lat="45.8240993" lon="9.3951518"><ele>205.0</ele><time>2026-05-01T07:09:46.235Z</time></trkpt><trkpt lat="45.8242835" lon="9.3951804"><ele>205.0</ele><time>2026-05-01T07:09:47.236Z</time></trkpt><trkpt lat="45.8244729" lon="9.3952254"><ele>205.0</ele><time>2026-05-01T07:09:48.232Z</time></trkpt><trkpt lat="45.8246586" lon="9.3952818"><ele>205.0</ele><time>2026-05-01T07:09:49.234Z</time></trkpt><trkpt lat="45.8248231" lon="9.395338"><ele>205.0</ele><time>2026-05-01T07:09:50.233Z</time></trkpt><trkpt lat="45.8249816" lon="9.3953887"><ele>205.0</ele><time>2026-05-01T07:09:51.231Z</time></trkpt><trkpt lat="45.8251244" lon="9.3954199"><ele>205.0</ele><time>2026-05-01T07:09:52.239Z</time></trkpt><trkpt lat="45.8252751" lon="9.3954438"><ele>205.0</ele><time>2026-05-01T07:09:53.238Z</time></trkpt><trkpt lat="45.8254122" lon="9.3954661"><ele>205.0</ele><time>2026-05-01T07:09:54.24Z</time></trkpt><trkpt lat="45.825531" lon="9.3955"><ele>205.0</ele><time>2026-05-01T07:09:55.236Z</time></trkpt><trkpt lat="45.8256489" lon="9.3955046"><ele>205.0</ele><time>2026-05-01T07:09:56.234Z</time></trkpt><trkpt lat="45.825779" lon="9.3955048"><ele>205.0</ele><time>2026-05-01T07:09:57.235Z</time></trkpt><trkpt lat="45.8259271" lon="9.3955016"><ele>205.0</ele><time>2026-05-01T07:09:58.235Z</time></trkpt><trkpt lat="45.8260628" lon="9.3955367"><ele>205.0</ele><time>2026-05-01T07:09:59.236Z</time></trkpt><trkpt lat="45.826207" lon="9.3955591"><ele>205.0</ele><time>2026-05-01T07:10:00.239Z</time></trkpt><trkpt lat="45.8263636" lon="9.3955972"><ele>205.0</ele><time>2026-05-01T07:10:01.256Z</time></trkpt><trkpt lat="45.8265259" lon="9.3956267"><ele>205.0</ele><time>2026-05-01T07:10:02.237Z</time></trkpt><trkpt lat="45.8266821" lon="9.3956545"><ele>204.75</ele><time>2026-05-01T07:10:03.235Z</time></trkpt><trkpt lat="45.826814" lon="9.3956921"><ele>204.5</ele><time>2026-05-01T07:10:04.235Z</time></trkpt><trkpt lat="45.8269427" lon="9.395706"><ele>204.25</ele><time>2026-05-01T07:10:05.236Z</time></trkpt><trkpt lat="45.8270612" lon="9.3957256"><ele>204.0</ele><time>2026-05-01T07:10:06.235Z</time></trkpt><trkpt lat="45.8271766" lon="9.3957498"><ele>204.0</ele><time>2026-05-01T07:10:07.234Z</time></trkpt><trkpt lat="45.82729" lon="9.3957716"><ele>204.0</ele><time>2026-05-01T07:10:08.241Z</time></trkpt><trkpt lat="45.8274122" lon="9.3957853"><ele>204.0</ele><time>2026-05-01T07:10:09.241Z</time></trkpt><trkpt lat="45.8275286" lon="9.3958091"><ele>204.0</ele><time>2026-05-01T07:10:10.244Z</time></trkpt><trkpt lat="45.827627" lon="9.395828"><ele>204.2</ele><time>2026-05-01T07:10:11.242Z</time></trkpt><trkpt lat="45.8277171" lon="9.3958472"><ele>204.39999999999998</ele><time>2026-05-01T07:10:12.231Z</time></trkpt><trkpt lat="45.827814" lon="9.3958621"><ele>204.6</ele><time>2026-05-01T07:10:13.233Z</time></trkpt><trkpt lat="45.8279111" lon="9.3958731"><ele>204.8</ele><time>2026-05-01T07:10:14.234Z</time></trkpt><trkpt lat="45.8280019" lon="9.3958836"><ele>205.0</ele><time>2026-05-01T07:10:15.232Z</time></trkpt><trkpt lat="45.8280926" lon="9.3959003"><ele>205.0</ele><time>2026-05-01T07:10:16.229Z</time></trkpt><trkpt lat="45.8281985" lon="9.3959243"><ele>205.0</ele><time>2026-05-01T07:10:17.233Z</time></trkpt><trkpt lat="45.828332" lon="9.3959395"><ele>205.0</ele><time>2026-05-01T07:10:18.256Z</time></trkpt><trkpt lat="45.8284763" lon="9.395951"><ele>205.0</ele><time>2026-05-01T07:10:19.235Z</time></trkpt><trkpt lat="45.8286539" lon="9.3959616"><ele>205.0</ele><time>2026-05-01T07:10:20.238Z</time></trkpt><trkpt lat="45.8288129" lon="9.395958"><ele>205.0</ele><time>2026-05-01T07:10:21.258Z</time></trkpt><trkpt lat="45.8289614" lon="9.3959258"><ele>205.0</ele><time>2026-05-01T07:10:22.235Z</time></trkpt><trkpt lat="45.8291316" lon="9.3958936"><ele>204.66666666666666</ele><time>2026-05-01T07:10:23.245Z</time></trkpt><trkpt lat="45.8293201" lon="9.3958563"><ele>204.33333333333331</ele><time>2026-05-01T07:10:24.231Z</time></trkpt><trkpt lat="45.8295072" lon="9.3958258"><ele>204.0</ele><time>2026-05-01T07:10:25.239Z</time></trkpt><trkpt lat="45.829708" lon="9.3957744"><ele>204.0</ele><time>2026-05-01T07:10:26.24Z</time></trkpt><trkpt lat="45.8298926" lon="9.3957548"><ele>204.0</ele><time>2026-05-01T07:10:27.241Z</time></trkpt><trkpt lat="45.8300807" lon="9.395717"><ele>204.0</ele><time>2026-05-01T07:10:28.243Z</time></trkpt><trkpt lat="45.8302153" lon="9.3956947"><ele>203.25</ele><time>2026-05-01T07:10:29.234Z</time></trkpt><trkpt lat="45.8303556" lon="9.3956537"><ele>202.5</ele><time>2026-05-01T07:10:30.234Z</time></trkpt><trkpt lat="45.8305085" lon="9.3956211"><ele>201.75</ele><time>2026-05-01T07:10:31.227Z</time></trkpt><trkpt lat="45.8306566" lon="9.395596"><ele>201.0</ele><time>2026-05-01T07:10:32.229Z</time></trkpt><trkpt lat="45.8308016" lon="9.3955662"><ele>201.0</ele><time>2026-05-01T07:10:33.235Z</time></trkpt><trkpt lat="45.8309429" lon="9.3955219"><ele>201.0</ele><time>2026-05-01T07:10:34.236Z</time></trkpt><trkpt lat="45.8311037" lon="9.3954878"><ele>201.0</ele><time>2026-05-01T07:10:35.235Z</time></trkpt><trkpt lat="45.8312669" lon="9.3954574"><ele>203.33333333333331</ele><time>2026-05-01T07:10:36.241Z</time></trkpt><trkpt lat="45.8314213" lon="9.3954264"><ele>205.66666666666666</ele><time>2026-05-01T07:10:37.239Z</time></trkpt><trkpt lat="45.8315799" lon="9.3954118"><ele>208.0</ele><time>2026-05-01T07:10:38.24Z</time></trkpt><trkpt lat="45.8317392" lon="9.3954125"><ele>207.66666666666666</ele><time>2026-05-01T07:10:39.24Z</time></trkpt><trkpt lat="45.831922" lon="9.3953862"><ele>207.33333333333331</ele><time>2026-05-01T07:10:40.24Z</time></trkpt><trkpt lat="45.8321032" lon="9.3953282"><ele>207.0</ele><time>2026-05-01T07:10:41.237Z</time></trkpt><trkpt lat="45.8322979" lon="9.3952568"><ele>207.0</ele><time>2026-05-01T07:10:42.236Z</time></trkpt><trkpt lat="45.832448" lon="9.3951762"><ele>207.0</ele><time>2026-05-01T07:10:43.24Z</time></trkpt><trkpt lat="45.8325759" lon="9.3951034"><ele>207.0</ele><time>2026-05-01T07:10:44.24Z</time></trkpt><trkpt lat="45.8326953" lon="9.3950212"><ele>207.0</ele><time>2026-05-01T07:10:45.239Z</time></trkpt><trkpt lat="45.8328331" lon="9.3949029"><ele>206.5</ele><time>2026-05-01T07:10:46.239Z</time></trkpt><trkpt lat="45.8329602" lon="9.3947825"><ele>206.0</ele><time>2026-05-01T07:10:47.233Z</time></trkpt><trkpt lat="45.8331014" lon="9.3946748"><ele>205.5</ele><time>2026-05-01T07:10:48.244Z</time></trkpt><trkpt lat="45.8332191" lon="9.3945793"><ele>205.0</ele><time>2026-05-01T07:10:49.236Z</time></trkpt><trkpt lat="45.8333106" lon="9.3944848"><ele>204.99999999999997</ele><time>2026-05-01T07:10:50.233Z</time></trkpt><trkpt lat="45.833392" lon="9.3943886"><ele>205.0</ele><time>2026-05-01T07:10:51.24Z</time></trkpt><trkpt lat="45.8334477" lon="9.3942978"><ele>205.0</ele><time>2026-05-01T07:10:52.238Z</time></trkpt><trkpt lat="45.833502" lon="9.3942208"><ele>205.0</ele><time>2026-05-01T07:10:53.233Z</time></trkpt><trkpt lat="45.8335536" lon="9.394167"><ele>204.99999999999997</ele><time>2026-05-01T07:10:54.236Z</time></trkpt><trkpt lat="45.8336161" lon="9.3941163"><ele>205.0</ele><time>2026-05-01T07:10:55.237Z</time></trkpt><trkpt lat="45.8336803" lon="9.3940687"><ele>204.49999999999997</ele><time>2026-05-01T07:10:56.237Z</time></trkpt><trkpt lat="45.8337384" lon="9.3940151"><ele>204.0</ele><time>2026-05-01T07:10:57.234Z</time></trkpt><trkpt lat="45.8338025" lon="9.3939595"><ele>203.5</ele><time>2026-05-01T07:10:58.235Z</time></trkpt><trkpt lat="45.8338763" lon="9.3939114"><ele>203.0</ele><time>2026-05-01T07:10:59.256Z</time></trkpt><trkpt lat="45.8339512" lon="9.3938774"><ele>202.49999999999997</ele><time>2026-05-01T07:11:00.228Z</time></trkpt><trkpt lat="45.8340275" lon="9.3938614"><ele>202.0</ele><time>2026-05-01T07:11:01.257Z</time></trkpt><trkpt lat="45.8341062" lon="9.3938549"><ele>202.0</ele><time>2026-05-01T07:11:02.254Z</time></trkpt><trkpt lat="45.8341873" lon="9.393856"><ele>202.0</ele><time>2026-05-01T07:11:03.255Z</time></trkpt><trkpt lat="45.8342762" lon="9.3938588"><ele>202.0</ele><time>2026-05-01T07:11:04.258Z</time></trkpt><trkpt lat="45.8343722" lon="9.3938504"><ele>202.0</ele><time>2026-05-01T07:11:05.251Z</time></trkpt><trkpt lat="45.8344754" lon="9.3938402"><ele>202.0</ele><time>2026-05-01T07:11:06.236Z</time></trkpt><trkpt lat="45.8345827" lon="9.3938342"><ele>204.0</ele><time>2026-05-01T07:11:07.236Z</time></trkpt><trkpt lat="45.8346957" lon="9.3938242"><ele>206.0</ele><time>2026-05-01T07:11:08.235Z</time></trkpt><trkpt lat="45.8348163" lon="9.3938098"><ele>208.0</ele><time>2026-05-01T07:11:09.233Z</time></trkpt><trkpt lat="45.834941" lon="9.3937961"><ele>210.0</ele><time>2026-05-01T07:11:10.238Z</time></trkpt><trkpt lat="45.8350644" lon="9.3937962"><ele>210.25</ele><time>2026-05-01T07:11:11.234Z</time></trkpt><trkpt lat="45.8351855" lon="9.3938036"><ele>210.5</ele><time>2026-05-01T07:11:12.238Z</time></trkpt><trkpt lat="45.8353039" lon="9.3938279"><ele>210.75</ele><time>2026-05-01T07:11:13.231Z</time></trkpt><trkpt lat="45.8354181" lon="9.3938554"><ele>211.0</ele><time>2026-05-01T07:11:14.232Z</time></trkpt><trkpt lat="45.8355098" lon="9.3939013"><ele>209.60000000000002</ele><time>2026-05-01T07:11:15.232Z</time></trkpt><trkpt lat="45.8355903" lon="9.3939646"><ele>208.2</ele><time>2026-05-01T07:11:16.233Z</time></trkpt><trkpt lat="45.8356646" lon="9.3940478"><ele>206.8</ele><time>2026-05-01T07:11:17.233Z</time></trkpt><trkpt lat="45.8357423" lon="9.394158"><ele>205.39999999999998</ele><time>2026-05-01T07:11:18.241Z</time></trkpt><trkpt lat="45.8358221" lon="9.394289"><ele>204.0</ele><time>2026-05-01T07:11:19.233Z</time></trkpt><trkpt lat="45.8358989" lon="9.3944418"><ele>203.66666666666669</ele><time>2026-05-01T07:11:20.232Z</time></trkpt><trkpt lat="45.8359808" lon="9.3946063"><ele>203.33333333333334</ele><time>2026-05-01T07:11:21.25Z</time></trkpt><trkpt lat="45.8360811" lon="9.3948042"><ele>203.0</ele><time>2026-05-01T07:11:22.253Z</time></trkpt><trkpt lat="45.8361955" lon="9.3950451"><ele>203.0</ele><time>2026-05-01T07:11:23.227Z</time></trkpt><trkpt lat="45.8362865" lon="9.3953014"><ele>203.0</ele><time>2026-05-01T07:11:24.23Z</time></trkpt><trkpt lat="45.8363816" lon="9.3955643"><ele>203.0</ele><time>2026-05-01T07:11:25.225Z</time></trkpt><trkpt lat="45.8364698" lon="9.3958252"><ele>202.66666666666669</ele><time>2026-05-01T07:11:26.252Z</time></trkpt><trkpt lat="45.8365631" lon="9.3960744"><ele>202.33333333333331</ele><time>2026-05-01T07:11:27.252Z</time></trkpt><trkpt lat="45.8366565" lon="9.3963128"><ele>202.0</ele><time>2026-05-01T07:11:28.263Z</time></trkpt><trkpt lat="45.8367453" lon="9.3965247"><ele>202.0</ele><time>2026-05-01T07:11:29.264Z</time></trkpt><trkpt lat="45.8368401" lon="9.3967264"><ele>202.0</ele><time>2026-05-01T07:11:30.26Z</time></trkpt><trkpt lat="45.8369538" lon="9.3968713"><ele>202.0</ele><time>2026-05-01T07:11:31.264Z</time></trkpt><trkpt lat="45.8370844" lon="9.3969773"><ele>202.0</ele><time>2026-05-01T07:11:32.259Z</time></trkpt><trkpt lat="45.8372283" lon="9.3970578"><ele>202.0</ele><time>2026-05-01T07:11:33.261Z</time></trkpt><trkpt lat="45.8373653" lon="9.3971203"><ele>202.0</ele><time>2026-05-01T07:11:34.261Z</time></trkpt><trkpt lat="45.8375095" lon="9.3971628"><ele>202.0</ele><time>2026-05-01T07:11:35.238Z</time></trkpt><trkpt lat="45.8376469" lon="9.3971821"><ele>202.5</ele><time>2026-05-01T07:11:36.234Z</time></trkpt><trkpt lat="45.8377928" lon="9.397198"><ele>203.0</ele><time>2026-05-01T07:11:37.233Z</time></trkpt><trkpt lat="45.8379422" lon="9.3972202"><ele>203.5</ele><time>2026-05-01T07:11:38.238Z</time></trkpt><trkpt lat="45.8380741" lon="9.397229"><ele>204.0</ele><time>2026-05-01T07:11:39.255Z</time></trkpt><trkpt lat="45.838201" lon="9.3972423"><ele>204.0</ele><time>2026-05-01T07:11:40.259Z</time></trkpt><trkpt lat="45.8383124" lon="9.397253"><ele>204.0</ele><time>2026-05-01T07:11:41.253Z</time></trkpt><trkpt lat="45.8384052" lon="9.3973021"><ele>204.0</ele><time>2026-05-01T07:11:42.231Z</time></trkpt><trkpt lat="45.838475" lon="9.397379"><ele>204.0</ele><time>2026-05-01T07:11:43.23Z</time></trkpt><trkpt lat="45.8385216" lon="9.3974971"><ele>204.0</ele><time>2026-05-01T07:11:44.254Z</time></trkpt><trkpt lat="45.8385593" lon="9.397615"><ele>203.2</ele><time>2026-05-01T07:11:45.252Z</time></trkpt><trkpt lat="45.8385804" lon="9.3977471"><ele>202.39999999999998</ele><time>2026-05-01T07:11:46.248Z</time></trkpt><trkpt lat="45.8385962" lon="9.3978938"><ele>201.6</ele><time>2026-05-01T07:11:47.232Z</time></trkpt><trkpt lat="45.8386149" lon="9.3980506"><ele>200.8</ele><time>2026-05-01T07:11:48.234Z</time></trkpt><trkpt lat="45.8386355" lon="9.3982131"><ele>200.0</ele><time>2026-05-01T07:11:49.235Z</time></trkpt><trkpt lat="45.8386548" lon="9.3983632"><ele>199.6</ele><time>2026-05-01T07:11:50.238Z</time></trkpt><trkpt lat="45.838675" lon="9.3984993"><ele>199.2</ele><time>2026-05-01T07:11:51.241Z</time></trkpt><trkpt lat="45.8386949" lon="9.3986175"><ele>198.8</ele><time>2026-05-01T07:11:52.239Z</time></trkpt><trkpt lat="45.8387194" lon="9.3987556"><ele>198.4</ele><time>2026-05-01T07:11:53.242Z</time></trkpt><trkpt lat="45.8387526" lon="9.3989272"><ele>198.0</ele><time>2026-05-01T07:11:54.246Z</time></trkpt><trkpt lat="45.8387821" lon="9.399142"><ele>198.0</ele><time>2026-05-01T07:11:55.238Z</time></trkpt><trkpt lat="45.8388088" lon="9.3994589"><ele>198.0</ele><time>2026-05-01T07:11:56.242Z</time></trkpt><trkpt lat="45.8388176" lon="9.3997235"><ele>198.0</ele><time>2026-05-01T07:11:57.24Z</time></trkpt><trkpt lat="45.83885" lon="9.3999826"><ele>198.0</ele><time>2026-05-01T07:11:58.249Z</time></trkpt><trkpt lat="45.8388785" lon="9.4002323"><ele>198.0</ele><time>2026-05-01T07:11:59.242Z</time></trkpt><trkpt lat="45.8389095" lon="9.4004904"><ele>198.0</ele><time>2026-05-01T07:12:00.244Z</time></trkpt><trkpt lat="45.8389349" lon="9.4007746"><ele>198.33333333333331</ele><time>2026-05-01T07:12:01.243Z</time></trkpt><trkpt lat="45.8389718" lon="9.4010663"><ele>198.66666666666666</ele><time>2026-05-01T07:12:02.242Z</time></trkpt><trkpt lat="45.8390206" lon="9.4013476"><ele>199.0</ele><time>2026-05-01T07:12:03.241Z</time></trkpt><trkpt lat="45.8390693" lon="9.401617"><ele>199.66666666666666</ele><time>2026-05-01T07:12:04.24Z</time></trkpt><trkpt lat="45.8390993" lon="9.4018974"><ele>200.33333333333331</ele><time>2026-05-01T07:12:05.246Z</time></trkpt><trkpt lat="45.8391315" lon="9.4021685"><ele>201.0</ele><time>2026-05-01T07:12:06.241Z</time></trkpt><trkpt lat="45.8391701" lon="9.4024287"><ele>201.66666666666669</ele><time>2026-05-01T07:12:07.238Z</time></trkpt><trkpt lat="45.8392058" lon="9.4026827"><ele>202.33333333333334</ele><time>2026-05-01T07:12:08.235Z</time></trkpt><trkpt lat="45.8392622" lon="9.4029451"><ele>203.0</ele><time>2026-05-01T07:12:09.235Z</time></trkpt><trkpt lat="45.8393149" lon="9.4032021"><ele>203.33333333333334</ele><time>2026-05-01T07:12:10.236Z</time></trkpt><trkpt lat="45.8393925" lon="9.4034316"><ele>203.66666666666669</ele><time>2026-05-01T07:12:11.234Z</time></trkpt><trkpt lat="45.8394864" lon="9.4036261"><ele>204.0</ele><time>2026-05-01T07:12:12.238Z</time></trkpt><trkpt lat="45.8395915" lon="9.4038162"><ele>204.66666666666669</ele><time>2026-05-01T07:12:13.235Z</time></trkpt><trkpt lat="45.8397064" lon="9.4039965"><ele>205.33333333333334</ele><time>2026-05-01T07:12:14.246Z</time></trkpt><trkpt lat="45.8398269" lon="9.4041774"><ele>206.0</ele><time>2026-05-01T07:12:15.234Z</time></trkpt><trkpt lat="45.8399628" lon="9.4043277"><ele>206.0</ele><time>2026-05-01T07:12:16.241Z</time></trkpt><trkpt lat="45.8400972" lon="9.40448"><ele>206.0</ele><time>2026-05-01T07:12:17.232Z</time></trkpt><trkpt lat="45.8402274" lon="9.4045957"><ele>206.0</ele><time>2026-05-01T07:12:18.231Z</time></trkpt><trkpt lat="45.840363" lon="9.4046912"><ele>206.0</ele><time>2026-05-01T07:12:19.237Z</time></trkpt><trkpt lat="45.8404984" lon="9.4047601"><ele>206.0</ele><time>2026-05-01T07:12:20.237Z</time></trkpt><trkpt lat="45.8406345" lon="9.4048108"><ele>206.0</ele><time>2026-05-01T07:12:21.23Z</time></trkpt><trkpt lat="45.8407801" lon="9.4048487"><ele>206.0</ele><time>2026-05-01T07:12:22.245Z</time></trkpt><trkpt lat="45.8409123" lon="9.4048933"><ele>207.0</ele><time>2026-05-01T07:12:23.239Z</time></trkpt><trkpt lat="45.8410687" lon="9.404919"><ele>208.0</ele><time>2026-05-01T07:12:24.251Z</time></trkpt><trkpt lat="45.8412214" lon="9.4049344"><ele>209.0</ele><time>2026-05-01T07:12:25.234Z</time></trkpt><trkpt lat="45.8413952" lon="9.4049558"><ele>209.0</ele><time>2026-05-01T07:12:26.243Z</time></trkpt><trkpt lat="45.8415493" lon="9.4049824"><ele>209.0</ele><time>2026-05-01T07:12:27.239Z</time></trkpt><trkpt lat="45.8417159" lon="9.4050039"><ele>209.0</ele><time>2026-05-01T07:12:28.239Z</time></trkpt><trkpt lat="45.8418884" lon="9.4050371"><ele>209.0</ele><time>2026-05-01T07:12:29.236Z</time></trkpt><trkpt lat="45.8420646" lon="9.4050627"><ele>209.0</ele><time>2026-05-01T07:12:30.241Z</time></trkpt><trkpt lat="45.8422424" lon="9.4050849"><ele>209.0</ele><time>2026-05-01T07:12:31.237Z</time></trkpt><trkpt lat="45.8424059" lon="9.4050937"><ele>209.0</ele><time>2026-05-01T07:12:32.231Z</time></trkpt><trkpt lat="45.842583" lon="9.4051361"><ele>209.0</ele><time>2026-05-01T07:12:33.234Z</time></trkpt><trkpt lat="45.8427342" lon="9.4051887"><ele>209.0</ele><time>2026-05-01T07:12:34.241Z</time></trkpt><trkpt lat="45.842891" lon="9.4052373"><ele>208.66666666666669</ele><time>2026-05-01T07:12:35.234Z</time></trkpt><trkpt lat="45.8430692" lon="9.4052894"><ele>208.33333333333331</ele><time>2026-05-01T07:12:36.238Z</time></trkpt><trkpt lat="45.8432621" lon="9.4053714"><ele>208.0</ele><time>2026-05-01T07:12:37.235Z</time></trkpt><trkpt lat="45.8434615" lon="9.4054536"><ele>208.33333333333331</ele><time>2026-05-01T07:12:38.236Z</time></trkpt><trkpt lat="45.8436733" lon="9.4055418"><ele>208.66666666666669</ele><time>2026-05-01T07:12:39.24Z</time></trkpt><trkpt lat="45.8438818" lon="9.4056107"><ele>209.0</ele><time>2026-05-01T07:12:40.24Z</time></trkpt><trkpt lat="45.8440703" lon="9.4056646"><ele>209.0</ele><time>2026-05-01T07:12:41.236Z</time></trkpt><trkpt lat="45.8442654" lon="9.4056927"><ele>209.0</ele><time>2026-05-01T07:12:42.243Z</time></trkpt><trkpt lat="45.8444695" lon="9.4056708"><ele>209.0</ele><time>2026-05-01T07:12:43.24Z</time></trkpt><trkpt lat="45.8446795" lon="9.4055994"><ele>209.0</ele><time>2026-05-01T07:12:44.236Z</time></trkpt><trkpt lat="45.8449001" lon="9.4055059"><ele>209.0</ele><time>2026-05-01T07:12:45.235Z</time></trkpt><trkpt lat="45.8451197" lon="9.405426"><ele>211.5</ele><time>2026-05-01T07:12:46.238Z</time></trkpt><trkpt lat="45.8453551" lon="9.4053346"><ele>214.0</ele><time>2026-05-01T07:12:47.241Z</time></trkpt><trkpt lat="45.8455794" lon="9.4052538"><ele>214.0</ele><time>2026-05-01T07:12:48.24Z</time></trkpt><trkpt lat="45.8457865" lon="9.4051543"><ele>214.0</ele><time>2026-05-01T07:12:49.232Z</time></trkpt><trkpt lat="45.845992" lon="9.4050849"><ele>214.0</ele><time>2026-05-01T07:12:50.243Z</time></trkpt><trkpt lat="45.846202" lon="9.4050016"><ele>214.33333333333331</ele><time>2026-05-01T07:12:51.237Z</time></trkpt><trkpt lat="45.8464083" lon="9.4049225"><ele>214.66666666666669</ele><time>2026-05-01T07:12:52.247Z</time></trkpt><trkpt lat="45.8466245" lon="9.4048206"><ele>215.0</ele><time>2026-05-01T07:12:53.241Z</time></trkpt><trkpt lat="45.8468468" lon="9.4047217"><ele>214.0</ele><time>2026-05-01T07:12:54.241Z</time></trkpt><trkpt lat="45.8470604" lon="9.4046461"><ele>213.0</ele><time>2026-05-01T07:12:55.238Z</time></trkpt><trkpt lat="45.8472607" lon="9.4045571"><ele>212.0</ele><time>2026-05-01T07:12:56.239Z</time></trkpt><trkpt lat="45.8474622" lon="9.4044763"><ele>212.66666666666669</ele><time>2026-05-01T07:12:57.233Z</time></trkpt><trkpt lat="45.847668" lon="9.4043832"><ele>213.33333333333331</ele><time>2026-05-01T07:12:58.243Z</time></trkpt><trkpt lat="45.8478726" lon="9.4042803"><ele>214.0</ele><time>2026-05-01T07:12:59.255Z</time></trkpt><trkpt lat="45.8480627" lon="9.4041569"><ele>214.0</ele><time>2026-05-01T07:13:00.238Z</time></trkpt><trkpt lat="45.8482417" lon="9.4040181"><ele>214.0</ele><time>2026-05-01T07:13:01.249Z</time></trkpt><trkpt lat="45.848418" lon="9.4038822"><ele>214.0</ele><time>2026-05-01T07:13:02.24Z</time></trkpt><trkpt lat="45.8485968" lon="9.4037139"><ele>214.66666666666666</ele><time>2026-05-01T07:13:03.234Z</time></trkpt><trkpt lat="45.8487649" lon="9.4035269"><ele>215.33333333333331</ele><time>2026-05-01T07:13:04.238Z</time></trkpt><trkpt lat="45.8489494" lon="9.4033705"><ele>216.0</ele><time>2026-05-01T07:13:05.233Z</time></trkpt><trkpt lat="45.849119" lon="9.4032347"><ele>216.0</ele><time>2026-05-01T07:13:06.237Z</time></trkpt><trkpt lat="45.8492847" lon="9.4030984"><ele>216.0</ele><time>2026-05-01T07:13:07.24Z</time></trkpt><trkpt lat="45.8494644" lon="9.4029566"><ele>216.0</ele><time>2026-05-01T07:13:08.236Z</time></trkpt><trkpt lat="45.8496377" lon="9.4028017"><ele>216.0</ele><time>2026-05-01T07:13:09.237Z</time></trkpt><trkpt lat="45.8498081" lon="9.4026739"><ele>216.0</ele><time>2026-05-01T07:13:10.231Z</time></trkpt><trkpt lat="45.8499856" lon="9.402533"><ele>216.0</ele><time>2026-05-01T07:13:11.227Z</time></trkpt><trkpt lat="45.8501536" lon="9.4023915"><ele>216.0</ele><time>2026-05-01T07:13:12.23Z</time></trkpt><trkpt lat="45.8503152" lon="9.4022783"><ele>216.0</ele><time>2026-05-01T07:13:13.22Z</time></trkpt><trkpt lat="45.8505017" lon="9.4021467"><ele>216.0</ele><time>2026-05-01T07:13:14.219Z</time></trkpt><trkpt lat="45.8506724" lon="9.4020059"><ele>215.0</ele><time>2026-05-01T07:13:15.208Z</time></trkpt><trkpt lat="45.8508428" lon="9.4018657"><ele>214.0</ele><time>2026-05-01T07:13:16.184Z</time></trkpt><trkpt lat="45.8510132" lon="9.4017256"><ele>213.0</ele><time>2026-05-01T07:13:17.172Z</time></trkpt><trkpt lat="45.8800465" lon="9.3704038"><ele>213.0</ele><time>2026-05-01T07:16:14.221Z</time></trkpt><trkpt lat="45.8800897" lon="9.3701242"><ele>213.0</ele><time>2026-05-01T07:16:15.235Z</time></trkpt><trkpt lat="45.8802225" lon="9.3698479"><ele>213.0</ele><time>2026-05-01T07:16:16.223Z</time></trkpt><trkpt lat="45.8803112" lon="9.3695885"><ele>216.0</ele><time>2026-05-01T07:16:17.223Z</time></trkpt><trkpt lat="45.8804364" lon="9.3693423"><ele>219.0</ele><time>2026-05-01T07:16:18.227Z</time></trkpt><trkpt lat="45.8806007" lon="9.3691084"><ele>222.0</ele><time>2026-05-01T07:16:19.224Z</time></trkpt><trkpt lat="45.8807376" lon="9.3688662"><ele>226.0</ele><time>2026-05-01T07:16:20.224Z</time></trkpt><trkpt lat="45.8808729" lon="9.3686126"><ele>230.0</ele><time>2026-05-01T07:16:21.224Z</time></trkpt><trkpt lat="45.8810312" lon="9.3683505"><ele>230.0</ele><time>2026-05-01T07:16:22.231Z</time></trkpt><trkpt lat="45.8811786" lon="9.3680817"><ele>230.0</ele><time>2026-05-01T07:16:23.228Z</time></trkpt><trkpt lat="45.8813421" lon="9.3678011"><ele>224.0</ele><time>2026-05-01T07:16:24.294Z</time></trkpt><trkpt lat="45.8814919" lon="9.3675171"><ele>218.0</ele><time>2026-05-01T07:16:25.224Z</time></trkpt><trkpt lat="45.8816354" lon="9.3672347"><ele>225.5</ele><time>2026-05-01T07:16:26.227Z</time></trkpt><trkpt lat="45.8817917" lon="9.3669654"><ele>233.0</ele><time>2026-05-01T07:16:27.229Z</time></trkpt><trkpt lat="45.8819317" lon="9.36671"><ele>233.0</ele><time>2026-05-01T07:16:28.229Z</time></trkpt><trkpt lat="45.8820631" lon="9.3664389"><ele>233.0</ele><time>2026-05-01T07:16:29.234Z</time></trkpt><trkpt lat="45.8822001" lon="9.3661667"><ele>226.0</ele><time>2026-05-01T07:16:30.231Z</time></trkpt><trkpt lat="45.8823434" lon="9.3659084"><ele>219.0</ele><time>2026-05-01T07:16:31.245Z</time></trkpt><trkpt lat="45.8824747" lon="9.3656357"><ele>230.5</ele><time>2026-05-01T07:16:32.228Z</time></trkpt><trkpt lat="45.8826302" lon="9.3653786"><ele>242.0</ele><time>2026-05-01T07:16:33.235Z</time></trkpt><trkpt lat="45.8827957" lon="9.3650964"><ele>242.0</ele><time>2026-05-01T07:16:34.234Z</time></trkpt><trkpt lat="45.8829552" lon="9.3647879"><ele>242.0</ele><time>2026-05-01T07:16:35.231Z</time></trkpt><trkpt lat="45.8830802" lon="9.3644603"><ele>237.66666666666669</ele><time>2026-05-01T07:16:36.226Z</time></trkpt><trkpt lat="45.8831905" lon="9.3641875"><ele>233.33333333333331</ele><time>2026-05-01T07:16:37.227Z</time></trkpt><trkpt lat="45.8833001" lon="9.3639171"><ele>229.0</ele><time>2026-05-01T07:16:38.222Z</time></trkpt><trkpt lat="45.8834056" lon="9.3636446"><ele>227.0</ele><time>2026-05-01T07:16:39.22Z</time></trkpt><trkpt lat="45.8835199" lon="9.3633894"><ele>225.0</ele><time>2026-05-01T07:16:40.218Z</time></trkpt><trkpt lat="45.8836362" lon="9.3631075"><ele>223.0</ele><time>2026-05-01T07:16:41.206Z</time></trkpt><trkpt lat="45.8837555" lon="9.3628589"><ele>223.0</ele><time>2026-05-01T07:16:42.211Z</time></trkpt><trkpt lat="45.8838897" lon="9.3627501"><ele>223.0</ele><time>2026-05-01T07:16:43.201Z</time></trkpt><trkpt lat="45.8840419" lon="9.362597"><ele>223.0</ele><time>2026-05-01T07:16:44.21Z</time></trkpt><trkpt lat="45.8841573" lon="9.36242"><ele>225.5</ele><time>2026-05-01T07:16:45.222Z</time></trkpt><trkpt lat="45.8842702" lon="9.3622746"><ele>228.0</ele><time>2026-05-01T07:16:46.221Z</time></trkpt><trkpt lat="45.8843602" lon="9.3621198"><ele>230.5</ele><time>2026-05-01T07:16:47.226Z</time></trkpt><trkpt lat="45.8844575" lon="9.3619602"><ele>233.0</ele><time>2026-05-01T07:16:48.219Z</time></trkpt><trkpt lat="45.8845378" lon="9.3618073"><ele>233.0</ele><time>2026-05-01T07:16:49.221Z</time></trkpt><trkpt lat="45.8846021" lon="9.3616407"><ele>233.0</ele><time>2026-05-01T07:16:50.224Z</time></trkpt><trkpt lat="45.8846759" lon="9.3614811"><ele>233.0</ele><time>2026-05-01T07:16:51.219Z</time></trkpt><trkpt lat="45.8847408" lon="9.3613291"><ele>233.0</ele><time>2026-05-01T07:16:52.223Z</time></trkpt><trkpt lat="45.8848333" lon="9.361124"><ele>226.33333333333334</ele><time>2026-05-01T07:16:53.222Z</time></trkpt><trkpt lat="45.8849384" lon="9.3609976"><ele>219.66666666666669</ele><time>2026-05-01T07:16:54.201Z</time></trkpt><trkpt lat="45.8850421" lon="9.360879"><ele>213.0</ele><time>2026-05-01T07:16:55.177Z</time></trkpt><trkpt lat="45.886051" lon="9.360351"><ele>213.0</ele><time>2026-05-01T07:17:02.232Z</time></trkpt><trkpt lat="45.886195" lon="9.3602603"><ele>213.0</ele><time>2026-05-01T07:17:03.232Z</time></trkpt><trkpt lat="45.8863354" lon="9.3601634"><ele>213.0</ele><time>2026-05-01T07:17:04.234Z</time></trkpt><trkpt lat="45.8864803" lon="9.360048"><ele>213.0</ele><time>2026-05-01T07:17:05.233Z</time></trkpt><trkpt lat="45.8866237" lon="9.3599423"><ele>213.0</ele><time>2026-05-01T07:17:06.238Z</time></trkpt><trkpt lat="45.8867542" lon="9.3598576"><ele>213.0</ele><time>2026-05-01T07:17:07.236Z</time></trkpt><trkpt lat="45.8868804" lon="9.3597693"><ele>213.0</ele><time>2026-05-01T07:17:08.234Z</time></trkpt><trkpt lat="45.8870052" lon="9.3596821"><ele>211.5</ele><time>2026-05-01T07:17:09.23Z</time></trkpt><trkpt lat="45.887129" lon="9.3596054"><ele>210.0</ele><time>2026-05-01T07:17:10.236Z</time></trkpt><trkpt lat="45.8872577" lon="9.3595069"><ele>208.5</ele><time>2026-05-01T07:17:11.233Z</time></trkpt><trkpt lat="45.8873982" lon="9.3594052"><ele>207.0</ele><time>2026-05-01T07:17:12.237Z</time></trkpt><trkpt lat="45.8875388" lon="9.3593045"><ele>212.0</ele><time>2026-05-01T07:17:13.233Z</time></trkpt><trkpt lat="45.8876846" lon="9.3592309"><ele>217.0</ele><time>2026-05-01T07:17:14.233Z</time></trkpt><trkpt lat="45.8878561" lon="9.3591613"><ele>222.0</ele><time>2026-05-01T07:17:15.236Z</time></trkpt><trkpt lat="45.8880429" lon="9.3590848"><ele>222.0</ele><time>2026-05-01T07:17:16.23Z</time></trkpt><trkpt lat="45.8882475" lon="9.3589798"><ele>222.0</ele><time>2026-05-01T07:17:17.234Z</time></trkpt><trkpt lat="45.8884566" lon="9.358889"><ele>222.0</ele><time>2026-05-01T07:17:18.234Z</time></trkpt><trkpt lat="45.8886679" lon="9.3587695"><ele>223.66666666666669</ele><time>2026-05-01T07:17:19.234Z</time></trkpt><trkpt lat="45.8888747" lon="9.3586652"><ele>225.33333333333334</ele><time>2026-05-01T07:17:20.229Z</time></trkpt><trkpt lat="45.8890831" lon="9.3585692"><ele>227.0</ele><time>2026-05-01T07:17:21.233Z</time></trkpt><trkpt lat="45.8892807" lon="9.3584719"><ele>227.0</ele><time>2026-05-01T07:17:22.229Z</time></trkpt><trkpt lat="45.8894801" lon="9.3583416"><ele>227.0</ele><time>2026-05-01T07:17:23.232Z</time></trkpt><trkpt lat="45.8896646" lon="9.3582171"><ele>227.0</ele><time>2026-05-01T07:17:24.228Z</time></trkpt><trkpt lat="45.8898339" lon="9.3580609"><ele>227.0</ele><time>2026-05-01T07:17:25.232Z</time></trkpt><trkpt lat="45.8900106" lon="9.3578829"><ele>227.0</ele><time>2026-05-01T07:17:26.228Z</time></trkpt><trkpt lat="45.8901786" lon="9.3576728"><ele>227.0</ele><time>2026-05-01T07:17:27.237Z</time></trkpt><trkpt lat="45.8903182" lon="9.3574403"><ele>227.0</ele><time>2026-05-01T07:17:28.23Z</time></trkpt><trkpt lat="45.8904449" lon="9.3572154"><ele>227.0</ele><time>2026-05-01T07:17:29.226Z</time></trkpt><trkpt lat="45.8905843" lon="9.3570028"><ele>227.0</ele><time>2026-05-01T07:17:30.234Z</time></trkpt><trkpt lat="45.8907169" lon="9.3567628"><ele>224.0</ele><time>2026-05-01T07:17:31.236Z</time></trkpt><trkpt lat="45.8908427" lon="9.356502"><ele>221.0</ele><time>2026-05-01T07:17:32.229Z</time></trkpt><trkpt lat="45.8909597" lon="9.3562504"><ele>218.0</ele><time>2026-05-01T07:17:33.232Z</time></trkpt><trkpt lat="45.8910793" lon="9.3559978"><ele>218.0</ele><time>2026-05-01T07:17:34.284Z</time></trkpt><trkpt lat="45.8912001" lon="9.3557532"><ele>218.0</ele><time>2026-05-01T07:17:35.228Z</time></trkpt><trkpt lat="45.8913225" lon="9.3555244"><ele>218.0</ele><time>2026-05-01T07:17:36.227Z</time></trkpt><trkpt lat="45.8914313" lon="9.3552901"><ele>215.66666666666669</ele><time>2026-05-01T07:17:37.224Z</time></trkpt><trkpt lat="45.8915676" lon="9.3550697"><ele>213.33333333333331</ele><time>2026-05-01T07:17:38.232Z</time></trkpt><trkpt lat="45.8917219" lon="9.354871"><ele>211.0</ele><time>2026-05-01T07:17:39.233Z</time></trkpt><trkpt lat="45.8918798" lon="9.3546922"><ele>211.0</ele><time>2026-05-01T07:17:40.234Z</time></trkpt><trkpt lat="45.8920166" lon="9.3545335"><ele>211.0</ele><time>2026-05-01T07:17:41.226Z</time></trkpt><trkpt lat="45.8921636" lon="9.3543853"><ele>211.0</ele><time>2026-05-01T07:17:42.234Z</time></trkpt><trkpt lat="45.892319" lon="9.3541888"><ele>211.0</ele><time>2026-05-01T07:17:43.23Z</time></trkpt><trkpt lat="45.8924751" lon="9.3539884"><ele>211.0</ele><time>2026-05-01T07:17:44.236Z</time></trkpt><trkpt lat="45.8926233" lon="9.3537846"><ele>211.0</ele><time>2026-05-01T07:17:45.231Z</time></trkpt><trkpt lat="45.892759" lon="9.3535813"><ele>209.0</ele><time>2026-05-01T07:17:46.242Z</time></trkpt><trkpt lat="45.8929009" lon="9.3533868"><ele>207.0</ele><time>2026-05-01T07:17:47.229Z</time></trkpt><trkpt lat="45.8930365" lon="9.3532098"><ele>205.0</ele><time>2026-05-01T07:17:48.227Z</time></trkpt><trkpt lat="45.8931686" lon="9.353029"><ele>205.0</ele><time>2026-05-01T07:17:49.23Z</time></trkpt><trkpt lat="45.8932865" lon="9.3528186"><ele>205.0</ele><time>2026-05-01T07:17:50.232Z</time></trkpt><trkpt lat="45.8933871" lon="9.3525872"><ele>205.0</ele><time>2026-05-01T07:17:51.228Z</time></trkpt><trkpt lat="45.8934848" lon="9.3523723"><ele>214.33333333333331</ele><time>2026-05-01T07:17:52.228Z</time></trkpt><trkpt lat="45.8935719" lon="9.3521456"><ele>223.66666666666669</ele><time>2026-05-01T07:17:53.232Z</time></trkpt><trkpt lat="45.893646" lon="9.3519099"><ele>233.0</ele><time>2026-05-01T07:17:54.237Z</time></trkpt><trkpt lat="45.8937077" lon="9.3516884"><ele>233.0</ele><time>2026-05-01T07:17:55.229Z</time></trkpt><trkpt lat="45.8937704" lon="9.3514839"><ele>233.0</ele><time>2026-05-01T07:17:56.232Z</time></trkpt><trkpt lat="45.8938408" lon="9.3512782"><ele>233.0</ele><time>2026-05-01T07:17:57.309Z</time></trkpt><trkpt lat="45.8939188" lon="9.351065"><ele>226.33333333333334</ele><time>2026-05-01T07:17:58.386Z</time></trkpt><trkpt lat="45.8939814" lon="9.3508083"><ele>219.66666666666669</ele><time>2026-05-01T07:17:59.382Z</time></trkpt><trkpt lat="45.8940565" lon="9.3505408"><ele>213.0</ele><time>2026-05-01T07:18:00.39Z</time></trkpt><trkpt lat="45.8941242" lon="9.350307"><ele>210.66666666666669</ele><time>2026-05-01T07:18:01.386Z</time></trkpt><trkpt lat="45.8942118" lon="9.3500837"><ele>208.33333333333334</ele><time>2026-05-01T07:18:02.23Z</time></trkpt><trkpt lat="45.8943206" lon="9.3498569"><ele>206.0</ele><time>2026-05-01T07:18:03.391Z</time></trkpt><trkpt lat="45.8944102" lon="9.3496134"><ele>213.0</ele><time>2026-05-01T07:18:04.383Z</time></trkpt><trkpt lat="45.8944785" lon="9.349365"><ele>220.0</ele><time>2026-05-01T07:18:05.387Z</time></trkpt><trkpt lat="45.8945368" lon="9.3491272"><ele>227.0</ele><time>2026-05-01T07:18:06.39Z</time></trkpt><trkpt lat="45.8945904" lon="9.3489297"><ele>219.0</ele><time>2026-05-01T07:18:07.377Z</time></trkpt><trkpt lat="45.8947247" lon="9.3485292"><ele>211.0</ele><time>2026-05-01T07:18:09.221Z</time></trkpt><trkpt lat="45.8947924" lon="9.3483356"><ele>211.0</ele><time>2026-05-01T07:18:10.215Z</time></trkpt><trkpt lat="45.8949488" lon="9.3481047"><ele>211.0</ele><time>2026-05-01T07:18:11.218Z</time></trkpt><trkpt lat="45.895047" lon="9.3479112"><ele>211.0</ele><time>2026-05-01T07:18:12.223Z</time></trkpt><trkpt lat="45.8951261" lon="9.3477176"><ele>210.0</ele><time>2026-05-01T07:18:13.22Z</time></trkpt><trkpt lat="45.895206" lon="9.3475111"><ele>209.0</ele><time>2026-05-01T07:18:14.218Z</time></trkpt><trkpt lat="45.8952737" lon="9.3472789"><ele>208.0</ele><time>2026-05-01T07:18:15.212Z</time></trkpt><trkpt lat="45.8953427" lon="9.3470586"><ele>208.0</ele><time>2026-05-01T07:18:16.213Z</time></trkpt><trkpt lat="45.8954183" lon="9.3468411"><ele>208.0</ele><time>2026-05-01T07:18:17.213Z</time></trkpt><trkpt lat="45.8954912" lon="9.3466419"><ele>208.0</ele><time>2026-05-01T07:18:18.211Z</time></trkpt><trkpt lat="45.8955661" lon="9.3464273"><ele>212.0</ele><time>2026-05-01T07:18:19.189Z</time></trkpt><trkpt lat="45.8956411" lon="9.3462127"><ele>216.0</ele><time>2026-05-01T07:18:20.169Z</time></trkpt><trkpt lat="45.8952187" lon="9.3416275"><ele>216.0</ele><time>2026-05-01T07:18:43.22Z</time></trkpt><trkpt lat="45.8951198" lon="9.3414551"><ele>216.0</ele><time>2026-05-01T07:18:44.234Z</time></trkpt><trkpt lat="45.8949809" lon="9.341313"><ele>216.0</ele><time>2026-05-01T07:18:45.221Z</time></trkpt><trkpt lat="45.8948732" lon="9.3411664"><ele>214.33333333333331</ele><time>2026-05-01T07:18:46.233Z</time></trkpt><trkpt lat="45.8947305" lon="9.3410113"><ele>212.66666666666666</ele><time>2026-05-01T07:18:47.233Z</time></trkpt><trkpt lat="45.894622" lon="9.340821"><ele>211.0</ele><time>2026-05-01T07:18:48.23Z</time></trkpt><trkpt lat="45.8945783" lon="9.3405918"><ele>212.0</ele><time>2026-05-01T07:18:49.232Z</time></trkpt><trkpt lat="45.8945468" lon="9.3403579"><ele>213.0</ele><time>2026-05-01T07:18:50.234Z</time></trkpt><trkpt lat="45.8945278" lon="9.3401339"><ele>214.0</ele><time>2026-05-01T07:18:51.23Z</time></trkpt><trkpt lat="45.8945164" lon="9.339919"><ele>214.0</ele><time>2026-05-01T07:18:52.235Z</time></trkpt><trkpt lat="45.8945272" lon="9.3397253"><ele>214.0</ele><time>2026-05-01T07:18:53.24Z</time></trkpt><trkpt lat="45.8945143" lon="9.3395548"><ele>214.0</ele><time>2026-05-01T07:18:54.235Z</time></trkpt><trkpt lat="45.8945032" lon="9.339383"><ele>214.0</ele><time>2026-05-01T07:18:55.24Z</time></trkpt><trkpt lat="45.8944885" lon="9.3392534"><ele>213.79999999999998</ele><time>2026-05-01T07:18:56.238Z</time></trkpt><trkpt lat="45.8944754" lon="9.3391405"><ele>213.59999999999997</ele><time>2026-05-01T07:18:57.242Z</time></trkpt><trkpt lat="45.8944672" lon="9.3389755"><ele>213.4</ele><time>2026-05-01T07:18:59.246Z</time></trkpt><trkpt lat="45.8944883" lon="9.3388863"><ele>213.2</ele><time>2026-05-01T07:19:00.239Z</time></trkpt><trkpt lat="45.8944989" lon="9.3387186"><ele>213.0</ele><time>2026-05-01T07:19:02.249Z</time></trkpt><trkpt lat="45.8945126" lon="9.3386148"><ele>212.8</ele><time>2026-05-01T07:19:03.24Z</time></trkpt><trkpt lat="45.8945287" lon="9.3385016"><ele>212.60000000000002</ele><time>2026-05-01T07:19:04.245Z</time></trkpt><trkpt lat="45.8945417" lon="9.3383696"><ele>212.39999999999998</ele><time>2026-05-01T07:19:05.239Z</time></trkpt><trkpt lat="45.8945585" lon="9.3381966"><ele>212.2</ele><time>2026-05-01T07:19:06.245Z</time></trkpt><trkpt lat="45.8945901" lon="9.3379991"><ele>212.0</ele><time>2026-05-01T07:19:07.235Z</time></trkpt><trkpt lat="45.8946287" lon="9.3377431"><ele>212.0</ele><time>2026-05-01T07:19:08.243Z</time></trkpt><trkpt lat="45.8946617" lon="9.3374851"><ele>212.0</ele><time>2026-05-01T07:19:09.237Z</time></trkpt><trkpt lat="45.8947279" lon="9.3372558"><ele>212.0</ele><time>2026-05-01T07:19:10.24Z</time></trkpt><trkpt lat="45.8947862" lon="9.3370369"><ele>211.75</ele><time>2026-05-01T07:19:11.234Z</time></trkpt><trkpt lat="45.894831" lon="9.3368212"><ele>211.5</ele><time>2026-05-01T07:19:12.241Z</time></trkpt><trkpt lat="45.894866" lon="9.3366217"><ele>211.25</ele><time>2026-05-01T07:19:13.24Z</time></trkpt><trkpt lat="45.8948926" lon="9.3364393"><ele>211.0</ele><time>2026-05-01T07:19:14.232Z</time></trkpt><trkpt lat="45.8949084" lon="9.3362692"><ele>211.20000000000002</ele><time>2026-05-01T07:19:15.24Z</time></trkpt><trkpt lat="45.8949302" lon="9.3361079"><ele>211.4</ele><time>2026-05-01T07:19:16.234Z</time></trkpt><trkpt lat="45.8949603" lon="9.335965"><ele>211.6</ele><time>2026-05-01T07:19:17.232Z</time></trkpt><trkpt lat="45.8949995" lon="9.3358234"><ele>211.8</ele><time>2026-05-01T07:19:18.23Z</time></trkpt><trkpt lat="45.895032" lon="9.3356784"><ele>212.0</ele><time>2026-05-01T07:19:19.245Z</time></trkpt><trkpt lat="45.8950596" lon="9.3355317"><ele>212.0</ele><time>2026-05-01T07:19:20.312Z</time></trkpt><trkpt lat="45.8950874" lon="9.3353833"><ele>212.0</ele><time>2026-05-01T07:19:21.234Z</time></trkpt><trkpt lat="45.8951186" lon="9.3352411"><ele>212.0</ele><time>2026-05-01T07:19:22.234Z</time></trkpt><trkpt lat="45.8951399" lon="9.3351126"><ele>212.0</ele><time>2026-05-01T07:19:23.395Z</time></trkpt><trkpt lat="45.8951593" lon="9.3349947"><ele>212.0</ele><time>2026-05-01T07:19:24.392Z</time></trkpt><trkpt lat="45.8952242" lon="9.3347719"><ele>212.5</ele><time>2026-05-01T07:19:26.399Z</time></trkpt><trkpt lat="45.8952717" lon="9.3346521"><ele>213.0</ele><time>2026-05-01T07:19:27.4Z</time></trkpt><trkpt lat="45.8953959" lon="9.3344061"><ele>213.5</ele><time>2026-05-01T07:19:29.242Z</time></trkpt><trkpt lat="45.8954717" lon="9.3342888"><ele>214.0</ele><time>2026-05-01T07:19:30.399Z</time></trkpt><trkpt lat="45.8956406" lon="9.3341142"><ele>214.0</ele><time>2026-05-01T07:19:32.245Z</time></trkpt><trkpt lat="45.8957336" lon="9.3340357"><ele>214.0</ele><time>2026-05-01T07:19:33.236Z</time></trkpt><trkpt lat="45.8958303" lon="9.3339538"><ele>214.0</ele><time>2026-05-01T07:19:34.247Z</time></trkpt><trkpt lat="45.8959313" lon="9.3338723"><ele>214.0</ele><time>2026-05-01T07:19:35.242Z</time></trkpt><trkpt lat="45.8960316" lon="9.3337933"><ele>213.75</ele><time>2026-05-01T07:19:36.239Z</time></trkpt><trkpt lat="45.8961335" lon="9.3337173"><ele>213.5</ele><time>2026-05-01T07:19:37.243Z</time></trkpt><trkpt lat="45.8962361" lon="9.3336363"><ele>213.25</ele><time>2026-05-01T07:19:38.243Z</time></trkpt><trkpt lat="45.8963374" lon="9.3335499"><ele>213.0</ele><time>2026-05-01T07:19:39.235Z</time></trkpt><trkpt lat="45.8964407" lon="9.3334609"><ele>213.0</ele><time>2026-05-01T07:19:40.245Z</time></trkpt><trkpt lat="45.8965436" lon="9.333379"><ele>213.0</ele><time>2026-05-01T07:19:41.24Z</time></trkpt><trkpt lat="45.896642" lon="9.3333017"><ele>213.0</ele><time>2026-05-01T07:19:42.244Z</time></trkpt><trkpt lat="45.8967412" lon="9.3332302"><ele>213.0</ele><time>2026-05-01T07:19:43.246Z</time></trkpt><trkpt lat="45.8968435" lon="9.3331699"><ele>213.2</ele><time>2026-05-01T07:19:44.24Z</time></trkpt><trkpt lat="45.8969405" lon="9.3331118"><ele>213.4</ele><time>2026-05-01T07:19:45.24Z</time></trkpt><trkpt lat="45.8970405" lon="9.3330596"><ele>213.59999999999997</ele><time>2026-05-01T07:19:46.244Z</time></trkpt><trkpt lat="45.8971402" lon="9.3330044"><ele>213.79999999999998</ele><time>2026-05-01T07:19:47.248Z</time></trkpt><trkpt lat="45.8972458" lon="9.3329486"><ele>214.0</ele><time>2026-05-01T07:19:48.235Z</time></trkpt><trkpt lat="45.8973606" lon="9.3328877"><ele>213.25</ele><time>2026-05-01T07:19:49.322Z</time></trkpt><trkpt lat="45.8974827" lon="9.3328408"><ele>212.5</ele><time>2026-05-01T07:19:50.243Z</time></trkpt><trkpt lat="45.8976104" lon="9.3328055"><ele>211.75</ele><time>2026-05-01T07:19:51.243Z</time></trkpt><trkpt lat="45.8977399" lon="9.3327691"><ele>211.0</ele><time>2026-05-01T07:19:52.244Z</time></trkpt><trkpt lat="45.8978645" lon="9.3327362"><ele>211.0</ele><time>2026-05-01T07:19:53.238Z</time></trkpt><trkpt lat="45.897991" lon="9.3327103"><ele>211.0</ele><time>2026-05-01T07:19:54.248Z</time></trkpt><trkpt lat="45.8981235" lon="9.3326744"><ele>211.0</ele><time>2026-05-01T07:19:55.257Z</time></trkpt><trkpt lat="45.89826" lon="9.3326257"><ele>211.0</ele><time>2026-05-01T07:19:56.237Z</time></trkpt><trkpt lat="45.8984012" lon="9.3325462"><ele>211.0</ele><time>2026-05-01T07:19:57.246Z</time></trkpt><trkpt lat="45.8985445" lon="9.3325056"><ele>211.0</ele><time>2026-05-01T07:19:58.245Z</time></trkpt><trkpt lat="45.8986906" lon="9.3324672"><ele>211.0</ele><time>2026-05-01T07:19:59.235Z</time></trkpt><trkpt lat="45.8988398" lon="9.3324344"><ele>211.0</ele><time>2026-05-01T07:20:00.245Z</time></trkpt><trkpt lat="45.8989766" lon="9.3323835"><ele>211.0</ele><time>2026-05-01T07:20:01.249Z</time></trkpt><trkpt lat="45.8990837" lon="9.3323397"><ele>211.0</ele><time>2026-05-01T07:20:02.233Z</time></trkpt><trkpt lat="45.8991813" lon="9.3323047"><ele>211.0</ele><time>2026-05-01T07:20:03.239Z</time></trkpt><trkpt lat="45.8992785" lon="9.3322759"><ele>211.0</ele><time>2026-05-01T07:20:04.233Z</time></trkpt><trkpt lat="45.8993929" lon="9.3322347"><ele>211.0</ele><time>2026-05-01T07:20:05.313Z</time></trkpt><trkpt lat="45.8995068" lon="9.3322133"><ele>209.5</ele><time>2026-05-01T07:20:06.241Z</time></trkpt><trkpt lat="45.8996283" lon="9.3321716"><ele>208.0</ele><time>2026-05-01T07:20:07.229Z</time></trkpt><trkpt lat="45.8997441" lon="9.3321115"><ele>206.5</ele><time>2026-05-01T07:20:08.23Z</time></trkpt><trkpt lat="45.89986" lon="9.3320722"><ele>205.0</ele><time>2026-05-01T07:20:09.23Z</time></trkpt><trkpt lat="45.8999755" lon="9.3320344"><ele>205.0</ele><time>2026-05-01T07:20:10.226Z</time></trkpt><trkpt lat="45.9000926" lon="9.3320036"><ele>205.0</ele><time>2026-05-01T07:20:11.234Z</time></trkpt><trkpt lat="45.9002081" lon="9.331979"><ele>205.0</ele><time>2026-05-01T07:20:12.231Z</time></trkpt><trkpt lat="45.9003195" lon="9.331962"><ele>205.0</ele><time>2026-05-01T07:20:13.233Z</time></trkpt><trkpt lat="45.9004318" lon="9.3319468"><ele>205.0</ele><time>2026-05-01T07:20:14.231Z</time></trkpt><trkpt lat="45.9005427" lon="9.3319361"><ele>205.0</ele><time>2026-05-01T07:20:15.224Z</time></trkpt><trkpt lat="45.9006512" lon="9.3319288"><ele>205.0</ele><time>2026-05-01T07:20:16.233Z</time></trkpt><trkpt lat="45.9007658" lon="9.3319409"><ele>205.0</ele><time>2026-05-01T07:20:17.233Z</time></trkpt><trkpt lat="45.9008788" lon="9.3319517"><ele>205.0</ele><time>2026-05-01T07:20:18.232Z</time></trkpt><trkpt lat="45.9009956" lon="9.3319678"><ele>204.8</ele><time>2026-05-01T07:20:19.232Z</time></trkpt><trkpt lat="45.9011101" lon="9.3319914"><ele>204.6</ele><time>2026-05-01T07:20:20.232Z</time></trkpt><trkpt lat="45.9012189" lon="9.3320144"><ele>204.39999999999998</ele><time>2026-05-01T07:20:21.238Z</time></trkpt><trkpt lat="45.9013263" lon="9.3320403"><ele>204.2</ele><time>2026-05-01T07:20:22.228Z</time></trkpt><trkpt lat="45.9014257" lon="9.3320732"><ele>204.0</ele><time>2026-05-01T07:20:23.316Z</time></trkpt><trkpt lat="45.9015283" lon="9.3320981"><ele>204.0</ele><time>2026-05-01T07:20:24.234Z</time></trkpt><trkpt lat="45.9016358" lon="9.3321164"><ele>204.0</ele><time>2026-05-01T07:20:25.236Z</time></trkpt><trkpt lat="45.9017499" lon="9.3321361"><ele>204.0</ele><time>2026-05-01T07:20:26.231Z</time></trkpt><trkpt lat="45.9018785" lon="9.332135"><ele>204.0</ele><time>2026-05-01T07:20:27.24Z</time></trkpt><trkpt lat="45.9020106" lon="9.3321105"><ele>204.66666666666666</ele><time>2026-05-01T07:20:28.234Z</time></trkpt><trkpt lat="45.9021235" lon="9.3320838"><ele>205.33333333333331</ele><time>2026-05-01T07:20:29.237Z</time></trkpt><trkpt lat="45.902219" lon="9.3320495"><ele>206.0</ele><time>2026-05-01T07:20:30.242Z</time></trkpt><trkpt lat="45.9023086" lon="9.3320043"><ele>206.66666666666666</ele><time>2026-05-01T07:20:31.244Z</time></trkpt><trkpt lat="45.9023697" lon="9.3319673"><ele>207.33333333333331</ele><time>2026-05-01T07:20:32.235Z</time></trkpt><trkpt lat="45.9024307" lon="9.331939"><ele>208.0</ele><time>2026-05-01T07:20:33.239Z</time></trkpt><trkpt lat="45.9025343" lon="9.3318958"><ele>208.16666666666666</ele><time>2026-05-01T07:20:40.255Z</time></trkpt><trkpt lat="45.9026186" lon="9.3318664"><ele>208.33333333333331</ele><time>2026-05-01T07:20:43.414Z</time></trkpt><trkpt lat="45.9026885" lon="9.3318849"><ele>208.5</ele><time>2026-05-01T07:20:45.265Z</time></trkpt><trkpt lat="45.9028037" lon="9.3319221"><ele>208.66666666666669</ele><time>2026-05-01T07:20:47.238Z</time></trkpt><trkpt lat="45.9028654" lon="9.331882"><ele>208.83333333333334</ele><time>2026-05-01T07:20:48.239Z</time></trkpt><trkpt lat="45.902924" lon="9.3318106"><ele>209.0</ele><time>2026-05-01T07:20:49.239Z</time></trkpt><trkpt lat="45.9029937" lon="9.3317572"><ele>209.0</ele><time>2026-05-01T07:20:50.244Z</time></trkpt><trkpt lat="45.9030734" lon="9.3317017"><ele>209.0</ele><time>2026-05-01T07:20:51.235Z</time></trkpt><trkpt lat="45.9031609" lon="9.331667"><ele>209.0</ele><time>2026-05-01T07:20:52.241Z</time></trkpt><trkpt lat="45.9032596" lon="9.3316473"><ele>209.0</ele><time>2026-05-01T07:20:53.238Z</time></trkpt><trkpt lat="45.9033566" lon="9.3316186"><ele>209.0</ele><time>2026-05-01T07:20:54.238Z</time></trkpt><trkpt lat="45.9034546" lon="9.3315903"><ele>209.25</ele><time>2026-05-01T07:20:55.25Z</time></trkpt><trkpt lat="45.903561" lon="9.3315643"><ele>209.5</ele><time>2026-05-01T07:20:56.235Z</time></trkpt><trkpt lat="45.9036686" lon="9.3315067"><ele>209.75</ele><time>2026-05-01T07:20:57.232Z</time></trkpt><trkpt lat="45.9037767" lon="9.3314211"><ele>210.0</ele><time>2026-05-01T07:20:58.244Z</time></trkpt><trkpt lat="45.9038878" lon="9.3312778"><ele>210.0</ele><time>2026-05-01T07:20:59.239Z</time></trkpt><trkpt lat="45.9039958" lon="9.3310579"><ele>210.0</ele><time>2026-05-01T07:21:00.241Z</time></trkpt><trkpt lat="45.9041075" lon="9.3308662"><ele>210.0</ele><time>2026-05-01T07:21:01.247Z</time></trkpt><trkpt lat="45.9042032" lon="9.3306765"><ele>209.75</ele><time>2026-05-01T07:21:02.243Z</time></trkpt><trkpt lat="45.9042993" lon="9.3305334"><ele>209.5</ele><time>2026-05-01T07:21:03.24Z</time></trkpt><trkpt lat="45.9043911" lon="9.3304047"><ele>209.25</ele><time>2026-05-01T07:21:04.244Z</time></trkpt><trkpt lat="45.9044712" lon="9.3302632"><ele>209.0</ele><time>2026-05-01T07:21:05.241Z</time></trkpt><trkpt lat="45.9045739" lon="9.3301478"><ele>209.0</ele><time>2026-05-01T07:21:06.237Z</time></trkpt><trkpt lat="45.9046632" lon="9.3300075"><ele>209.0</ele><time>2026-05-01T07:21:07.237Z</time></trkpt><trkpt lat="45.9047586" lon="9.3298641"><ele>209.0</ele><time>2026-05-01T07:21:08.235Z</time></trkpt><trkpt lat="45.904833" lon="9.3297132"><ele>209.0</ele><time>2026-05-01T07:21:09.239Z</time></trkpt><trkpt lat="45.9049207" lon="9.3295929"><ele>209.0</ele><time>2026-05-01T07:21:10.236Z</time></trkpt><trkpt lat="45.9050209" lon="9.3294815"><ele>209.0</ele><time>2026-05-01T07:21:11.246Z</time></trkpt><trkpt lat="45.9051133" lon="9.3293632"><ele>209.0</ele><time>2026-05-01T07:21:12.234Z</time></trkpt><trkpt lat="45.9052043" lon="9.3292477"><ele>209.0</ele><time>2026-05-01T07:21:13.244Z</time></trkpt><trkpt lat="45.9052957" lon="9.3291417"><ele>209.0</ele><time>2026-05-01T07:21:14.241Z</time></trkpt><trkpt lat="45.9053953" lon="9.3290468"><ele>209.0</ele><time>2026-05-01T07:21:15.238Z</time></trkpt><trkpt lat="45.9055022" lon="9.3289584"><ele>209.0</ele><time>2026-05-01T07:21:16.243Z</time></trkpt><trkpt lat="45.9056145" lon="9.3288723"><ele>209.0</ele><time>2026-05-01T07:21:17.242Z</time></trkpt><trkpt lat="45.9057337" lon="9.3287934"><ele>208.0</ele><time>2026-05-01T07:21:18.271Z</time></trkpt><trkpt lat="45.9058629" lon="9.3287125"><ele>207.0</ele><time>2026-05-01T07:21:19.239Z</time></trkpt><trkpt lat="45.9060413" lon="9.3286439"><ele>206.0</ele><time>2026-05-01T07:21:20.243Z</time></trkpt><trkpt lat="45.9062706" lon="9.3285928"><ele>206.0</ele><time>2026-05-01T07:21:21.236Z</time></trkpt><trkpt lat="45.9064809" lon="9.3285089"><ele>206.0</ele><time>2026-05-01T07:21:22.235Z</time></trkpt><trkpt lat="45.9067146" lon="9.3284709"><ele>208.33333333333334</ele><time>2026-05-01T07:21:23.24Z</time></trkpt><trkpt lat="45.9069387" lon="9.3284214"><ele>210.66666666666669</ele><time>2026-05-01T07:21:24.236Z</time></trkpt><trkpt lat="45.9071179" lon="9.3283862"><ele>213.0</ele><time>2026-05-01T07:21:25.228Z</time></trkpt><trkpt lat="45.9072851" lon="9.328356"><ele>213.0</ele><time>2026-05-01T07:21:26.24Z</time></trkpt><trkpt lat="45.90743" lon="9.3283074"><ele>213.0</ele><time>2026-05-01T07:21:27.235Z</time></trkpt><trkpt lat="45.9075673" lon="9.328283"><ele>213.0</ele><time>2026-05-01T07:21:28.221Z</time></trkpt><trkpt lat="45.9076877" lon="9.3282651"><ele>213.0</ele><time>2026-05-01T07:21:29.231Z</time></trkpt><trkpt lat="45.9077956" lon="9.3282219"><ele>213.5</ele><time>2026-05-01T07:21:30.22Z</time></trkpt><trkpt lat="45.9078485" lon="9.3280928"><ele>214.0</ele><time>2026-05-01T07:21:31.232Z</time></trkpt><trkpt lat="45.9078903" lon="9.3279986"><ele>214.5</ele><time>2026-05-01T07:21:32.233Z</time></trkpt><trkpt lat="45.9079282" lon="9.3278984"><ele>215.0</ele><time>2026-05-01T07:21:33.235Z</time></trkpt><trkpt lat="45.9079778" lon="9.3278067"><ele>215.5</ele><time>2026-05-01T07:21:34.234Z</time></trkpt><trkpt lat="45.9080323" lon="9.3277268"><ele>216.0</ele><time>2026-05-01T07:21:35.31Z</time></trkpt><trkpt lat="45.9081117" lon="9.3276678"><ele>214.60000000000002</ele><time>2026-05-01T07:21:36.231Z</time></trkpt><trkpt lat="45.908188" lon="9.3275989"><ele>213.20000000000002</ele><time>2026-05-01T07:21:37.24Z</time></trkpt><trkpt lat="45.9082689" lon="9.3275323"><ele>211.8</ele><time>2026-05-01T07:21:38.231Z</time></trkpt><trkpt lat="45.9083615" lon="9.32747"><ele>210.39999999999998</ele><time>2026-05-01T07:21:39.237Z</time></trkpt><trkpt lat="45.9084655" lon="9.3274232"><ele>209.0</ele><time>2026-05-01T07:21:40.231Z</time></trkpt><trkpt lat="45.9085793" lon="9.3273916"><ele>209.0</ele><time>2026-05-01T07:21:41.387Z</time></trkpt><trkpt lat="45.9086984" lon="9.3273682"><ele>209.0</ele><time>2026-05-01T07:21:42.428Z</time></trkpt><trkpt lat="45.9089255" lon="9.3273054"><ele>209.0</ele><time>2026-05-01T07:21:44.233Z</time></trkpt><trkpt lat="45.9090239" lon="9.3272538"><ele>208.79999999999998</ele><time>2026-05-01T07:21:45.237Z</time></trkpt><trkpt lat="45.9090964" lon="9.3272044"><ele>208.6</ele><time>2026-05-01T07:21:46.28Z</time></trkpt><trkpt lat="45.9091792" lon="9.3271135"><ele>208.4</ele><time>2026-05-01T07:21:48.236Z</time></trkpt><trkpt lat="45.9092629" lon="9.326982"><ele>208.2</ele><time>2026-05-01T07:21:50.24Z</time></trkpt><trkpt lat="45.9093113" lon="9.3269054"><ele>208.0</ele><time>2026-05-01T07:21:51.234Z</time></trkpt><trkpt lat="45.9093568" lon="9.326829"><ele>208.0</ele><time>2026-05-01T07:21:52.236Z</time></trkpt><trkpt lat="45.9094136" lon="9.3267566"><ele>208.0</ele><time>2026-05-01T07:21:53.24Z</time></trkpt><trkpt lat="45.9094833" lon="9.3266789"><ele>208.0</ele><time>2026-05-01T07:21:54.233Z</time></trkpt><trkpt lat="45.9095672" lon="9.3266038"><ele>208.0</ele><time>2026-05-01T07:21:55.234Z</time></trkpt><trkpt lat="45.9096571" lon="9.3265394"><ele>208.0</ele><time>2026-05-01T07:21:56.238Z</time></trkpt><trkpt lat="45.909742" lon="9.3264794"><ele>208.0</ele><time>2026-05-01T07:21:57.228Z</time></trkpt><trkpt lat="45.9098312" lon="9.3264222"><ele>208.0</ele><time>2026-05-01T07:21:58.232Z</time></trkpt><trkpt lat="45.9099315" lon="9.3263655"><ele>208.0</ele><time>2026-05-01T07:21:59.231Z</time></trkpt><trkpt lat="45.9100416" lon="9.3263214"><ele>208.0</ele><time>2026-05-01T07:22:00.223Z</time></trkpt><trkpt lat="45.9101551" lon="9.3262851"><ele>208.0</ele><time>2026-05-01T07:22:01.235Z</time></trkpt><trkpt lat="45.9102591" lon="9.3262643"><ele>208.66666666666666</ele><time>2026-05-01T07:22:02.229Z</time></trkpt><trkpt lat="45.910352" lon="9.3262447"><ele>209.33333333333331</ele><time>2026-05-01T07:22:03.226Z</time></trkpt><trkpt lat="45.9104402" lon="9.3262252"><ele>210.0</ele><time>2026-05-01T07:22:04.229Z</time></trkpt><trkpt lat="45.9105208" lon="9.3262052"><ele>210.66666666666669</ele><time>2026-05-01T07:22:05.232Z</time></trkpt><trkpt lat="45.910605" lon="9.3261839"><ele>211.33333333333334</ele><time>2026-05-01T07:22:06.229Z</time></trkpt><trkpt lat="45.910691" lon="9.3261596"><ele>212.0</ele><time>2026-05-01T07:22:07.234Z</time></trkpt><trkpt lat="45.910772" lon="9.3261267"><ele>212.0</ele><time>2026-05-01T07:22:08.233Z</time></trkpt><trkpt lat="45.9108392" lon="9.3260787"><ele>212.0</ele><time>2026-05-01T07:22:09.232Z</time></trkpt><trkpt lat="45.9108958" lon="9.3260111"><ele>212.0</ele><time>2026-05-01T07:22:10.231Z</time></trkpt><trkpt lat="45.9109637" lon="9.3259253"><ele>212.0</ele><time>2026-05-01T07:22:11.305Z</time></trkpt><trkpt lat="45.9110405" lon="9.3258301"><ele>212.0</ele><time>2026-05-01T07:22:12.374Z</time></trkpt><trkpt lat="45.9111366" lon="9.3257066"><ele>212.8</ele><time>2026-05-01T07:22:13.456Z</time></trkpt><trkpt lat="45.9112153" lon="9.3255612"><ele>213.6</ele><time>2026-05-01T07:22:14.529Z</time></trkpt><trkpt lat="45.9112763" lon="9.3254204"><ele>214.40000000000003</ele><time>2026-05-01T07:22:15.53Z</time></trkpt><trkpt lat="45.911313" lon="9.325307"><ele>215.20000000000002</ele><time>2026-05-01T07:22:16.537Z</time></trkpt><trkpt lat="45.9113488" lon="9.3251912"><ele>216.0</ele><time>2026-05-01T07:22:17.53Z</time></trkpt><trkpt lat="45.9113842" lon="9.3250685"><ele>216.0</ele><time>2026-05-01T07:22:18.537Z</time></trkpt><trkpt lat="45.9114284" lon="9.3249575"><ele>216.00000000000003</ele><time>2026-05-01T07:22:19.488Z</time></trkpt><trkpt lat="45.9114727" lon="9.3248362"><ele>216.00000000000003</ele><time>2026-05-01T07:22:20.419Z</time></trkpt><trkpt lat="45.9115445" lon="9.3245975"><ele>216.0</ele><time>2026-05-01T07:22:22.249Z</time></trkpt><trkpt lat="45.9115654" lon="9.3244957"><ele>216.0</ele><time>2026-05-01T07:22:23.239Z</time></trkpt><trkpt lat="45.9116024" lon="9.3244142"><ele>213.8</ele><time>2026-05-01T07:22:24.232Z</time></trkpt><trkpt lat="45.911658" lon="9.3243435"><ele>211.60000000000002</ele><time>2026-05-01T07:22:25.23Z</time></trkpt><trkpt lat="45.9117362" lon="9.3242947"><ele>209.4</ele><time>2026-05-01T07:22:26.237Z</time></trkpt><trkpt lat="45.9118199" lon="9.3242547"><ele>207.2</ele><time>2026-05-01T07:22:27.231Z</time></trkpt><trkpt lat="45.9119146" lon="9.3242093"><ele>205.0</ele><time>2026-05-01T07:22:28.236Z</time></trkpt><trkpt lat="45.9120212" lon="9.3241611"><ele>205.0</ele><time>2026-05-01T07:22:29.232Z</time></trkpt><trkpt lat="45.9121399" lon="9.3241147"><ele>205.0</ele><time>2026-05-01T07:22:30.25Z</time></trkpt><trkpt lat="45.9122665" lon="9.3240588"><ele>205.0</ele><time>2026-05-01T07:22:31.236Z</time></trkpt><trkpt lat="45.9123974" lon="9.3240041"><ele>205.0</ele><time>2026-05-01T07:22:32.229Z</time></trkpt><trkpt lat="45.9125197" lon="9.323957"><ele>204.99999999999997</ele><time>2026-05-01T07:22:33.232Z</time></trkpt><trkpt lat="45.9126273" lon="9.3239184"><ele>205.0</ele><time>2026-05-01T07:22:34.234Z</time></trkpt><trkpt lat="45.9127148" lon="9.3238837"><ele>205.0</ele><time>2026-05-01T07:22:35.236Z</time></trkpt><trkpt lat="45.9127866" lon="9.3238483"><ele>205.0</ele><time>2026-05-01T07:22:36.231Z</time></trkpt><trkpt lat="45.9128522" lon="9.323809"><ele>204.99999999999997</ele><time>2026-05-01T07:22:37.237Z</time></trkpt><trkpt lat="45.9129166" lon="9.323768"><ele>205.0</ele><time>2026-05-01T07:22:38.237Z</time></trkpt><trkpt lat="45.9129854" lon="9.3237331"><ele>205.0</ele><time>2026-05-01T07:22:39.231Z</time></trkpt><trkpt lat="45.9130595" lon="9.3236987"><ele>205.0</ele><time>2026-05-01T07:22:40.24Z</time></trkpt><trkpt lat="45.9131394" lon="9.3236569"><ele>205.0</ele><time>2026-05-01T07:22:41.242Z</time></trkpt><trkpt lat="45.9132301" lon="9.3236006"><ele>205.0</ele><time>2026-05-01T07:22:42.231Z</time></trkpt><trkpt lat="45.9133408" lon="9.3235387"><ele>205.0</ele><time>2026-05-01T07:22:43.238Z</time></trkpt><trkpt lat="45.9134663" lon="9.3234755"><ele>206.5</ele><time>2026-05-01T07:22:44.241Z</time></trkpt><trkpt lat="45.9135961" lon="9.3234087"><ele>208.0</ele><time>2026-05-01T07:22:45.227Z</time></trkpt><trkpt lat="45.9137314" lon="9.3233496"><ele>209.5</ele><time>2026-05-01T07:22:46.235Z</time></trkpt><trkpt lat="45.9138445" lon="9.3233001"><ele>211.0</ele><time>2026-05-01T07:22:47.238Z</time></trkpt><trkpt lat="45.9139476" lon="9.3232322"><ele>210.99999999999997</ele><time>2026-05-01T07:22:48.232Z</time></trkpt><trkpt lat="45.9140377" lon="9.3232134"><ele>211.0</ele><time>2026-05-01T07:22:49.237Z</time></trkpt><trkpt lat="45.9141299" lon="9.3232041"><ele>211.0</ele><time>2026-05-01T07:22:50.233Z</time></trkpt><trkpt lat="45.9142294" lon="9.3232455"><ele>211.0</ele><time>2026-05-01T07:22:51.25Z</time></trkpt><trkpt lat="45.9143119" lon="9.3232561"><ele>210.99999999999997</ele><time>2026-05-01T07:22:52.25Z</time></trkpt><trkpt lat="45.9143795" lon="9.3232371"><ele>211.0</ele><time>2026-05-01T07:22:53.236Z</time></trkpt><trkpt lat="45.9144368" lon="9.3231669"><ele>211.20000000000002</ele><time>2026-05-01T07:22:54.233Z</time></trkpt><trkpt lat="45.9144664" lon="9.3230498"><ele>211.4</ele><time>2026-05-01T07:22:55.235Z</time></trkpt><trkpt lat="45.9144688" lon="9.3229042"><ele>211.6</ele><time>2026-05-01T07:22:56.235Z</time></trkpt><trkpt lat="45.9144937" lon="9.322754"><ele>211.8</ele><time>2026-05-01T07:22:57.229Z</time></trkpt><trkpt lat="45.9145461" lon="9.3226078"><ele>212.0</ele><time>2026-05-01T07:22:58.238Z</time></trkpt><trkpt lat="45.9146081" lon="9.322449"><ele>212.0</ele><time>2026-05-01T07:22:59.237Z</time></trkpt><trkpt lat="45.914688" lon="9.3222785"><ele>212.0</ele><time>2026-05-01T07:23:00.228Z</time></trkpt><trkpt lat="45.9147755" lon="9.3220992"><ele>212.0</ele><time>2026-05-01T07:23:01.237Z</time></trkpt><trkpt lat="45.9148765" lon="9.3218905"><ele>212.33333333333334</ele><time>2026-05-01T07:23:02.237Z</time></trkpt><trkpt lat="45.9149945" lon="9.3216987"><ele>212.66666666666669</ele><time>2026-05-01T07:23:03.225Z</time></trkpt><trkpt lat="45.9150823" lon="9.3214892"><ele>213.0</ele><time>2026-05-01T07:23:04.233Z</time></trkpt><trkpt lat="45.9151759" lon="9.3212967"><ele>213.0</ele><time>2026-05-01T07:23:05.227Z</time></trkpt><trkpt lat="45.9152653" lon="9.3210955"><ele>213.0</ele><time>2026-05-01T07:23:06.231Z</time></trkpt><trkpt lat="45.9153587" lon="9.3209077"><ele>213.0</ele><time>2026-05-01T07:23:07.223Z</time></trkpt><trkpt lat="45.9154624" lon="9.3207395"><ele>213.0</ele><time>2026-05-01T07:23:08.249Z</time></trkpt><trkpt lat="45.9155572" lon="9.3205649"><ele>213.0</ele><time>2026-05-01T07:23:09.231Z</time></trkpt><trkpt lat="45.915654" lon="9.3203996"><ele>213.0</ele><time>2026-05-01T07:23:10.228Z</time></trkpt><trkpt lat="45.9157443" lon="9.3202145"><ele>213.0</ele><time>2026-05-01T07:23:11.251Z</time></trkpt><trkpt lat="45.9158455" lon="9.3200301"><ele>213.0</ele><time>2026-05-01T07:23:12.229Z</time></trkpt><trkpt lat="45.9159324" lon="9.3198495"><ele>213.0</ele><time>2026-05-01T07:23:13.23Z</time></trkpt><trkpt lat="45.9160275" lon="9.3196812"><ele>213.5</ele><time>2026-05-01T07:23:14.235Z</time></trkpt><trkpt lat="45.9161151" lon="9.3195119"><ele>214.0</ele><time>2026-05-01T07:23:15.232Z</time></trkpt><trkpt lat="45.9162053" lon="9.3193478"><ele>214.5</ele><time>2026-05-01T07:23:16.226Z</time></trkpt><trkpt lat="45.9162941" lon="9.3191738"><ele>215.0</ele><time>2026-05-01T07:23:17.231Z</time></trkpt><trkpt lat="45.9163828" lon="9.3190109"><ele>214.25</ele><time>2026-05-01T07:23:18.232Z</time></trkpt><trkpt lat="45.9164613" lon="9.3188547"><ele>213.5</ele><time>2026-05-01T07:23:19.232Z</time></trkpt><trkpt lat="45.916544" lon="9.3187106"><ele>212.75</ele><time>2026-05-01T07:23:20.23Z</time></trkpt><trkpt lat="45.9166756" lon="9.3185858"><ele>212.0</ele><time>2026-05-01T07:23:21.232Z</time></trkpt><trkpt lat="45.9168322" lon="9.3184838"><ele>214.0</ele><time>2026-05-01T07:23:22.238Z</time></trkpt><trkpt lat="45.9169823" lon="9.3183906"><ele>216.0</ele><time>2026-05-01T07:23:23.239Z</time></trkpt><trkpt lat="45.9171229" lon="9.3182894"><ele>218.0</ele><time>2026-05-01T07:23:24.235Z</time></trkpt><trkpt lat="45.9172197" lon="9.3181564"><ele>217.0</ele><time>2026-05-01T07:23:25.237Z</time></trkpt><trkpt lat="45.9173199" lon="9.3180115"><ele>216.0</ele><time>2026-05-01T07:23:26.234Z</time></trkpt><trkpt lat="45.9173864" lon="9.317806"><ele>215.0</ele><time>2026-05-01T07:23:27.229Z</time></trkpt><trkpt lat="45.9174749" lon="9.3176258"><ele>215.66666666666669</ele><time>2026-05-01T07:23:28.244Z</time></trkpt><trkpt lat="45.917582" lon="9.3174392"><ele>216.33333333333331</ele><time>2026-05-01T07:23:29.246Z</time></trkpt><trkpt lat="45.917679" lon="9.3172654"><ele>217.0</ele><time>2026-05-01T07:23:30.238Z</time></trkpt><trkpt lat="45.9177683" lon="9.3170743"><ele>217.0</ele><time>2026-05-01T07:23:31.249Z</time></trkpt><trkpt lat="45.9178657" lon="9.3169189"><ele>217.0</ele><time>2026-05-01T07:23:32.249Z</time></trkpt><trkpt lat="45.9179668" lon="9.316764"><ele>217.0</ele><time>2026-05-01T07:23:33.243Z</time></trkpt><trkpt lat="45.918068" lon="9.3166212"><ele>217.0</ele><time>2026-05-01T07:23:34.252Z</time></trkpt><trkpt lat="45.9181527" lon="9.3164965"><ele>216.8</ele><time>2026-05-01T07:23:35.244Z</time></trkpt><trkpt lat="45.918219" lon="9.3163716"><ele>216.6</ele><time>2026-05-01T07:23:36.235Z</time></trkpt><trkpt lat="45.9182896" lon="9.3162883"><ele>216.40000000000003</ele><time>2026-05-01T07:23:37.252Z</time></trkpt><trkpt lat="45.9183653" lon="9.3162213"><ele>216.20000000000002</ele><time>2026-05-01T07:23:38.254Z</time></trkpt><trkpt lat="45.9184102" lon="9.3161215"><ele>216.0</ele><time>2026-05-01T07:23:39.239Z</time></trkpt><trkpt lat="45.9184606" lon="9.316029"><ele>215.66666666666666</ele><time>2026-05-01T07:23:40.253Z</time></trkpt><trkpt lat="45.9185175" lon="9.3159512"><ele>215.33333333333331</ele><time>2026-05-01T07:23:41.253Z</time></trkpt><trkpt lat="45.918577" lon="9.3158731"><ele>215.0</ele><time>2026-05-01T07:23:42.25Z</time></trkpt><trkpt lat="45.9186341" lon="9.3157953"><ele>214.66666666666666</ele><time>2026-05-01T07:23:43.25Z</time></trkpt><trkpt lat="45.9186911" lon="9.3157146"><ele>214.33333333333331</ele><time>2026-05-01T07:23:44.257Z</time></trkpt><trkpt lat="45.9187467" lon="9.3156213"><ele>214.0</ele><time>2026-05-01T07:23:45.249Z</time></trkpt><trkpt lat="45.9188071" lon="9.3155306"><ele>213.99999999999997</ele><time>2026-05-01T07:23:46.255Z</time></trkpt><trkpt lat="45.9188612" lon="9.315445"><ele>214.0</ele><time>2026-05-01T07:23:47.253Z</time></trkpt><trkpt lat="45.9189153" lon="9.3153677"><ele>214.0</ele><time>2026-05-01T07:23:48.252Z</time></trkpt><trkpt lat="45.9189816" lon="9.315303"><ele>214.0</ele><time>2026-05-01T07:23:49.255Z</time></trkpt><trkpt lat="45.9190626" lon="9.3152272"><ele>213.99999999999997</ele><time>2026-05-01T07:23:50.244Z</time></trkpt><trkpt lat="45.9191462" lon="9.3151376"><ele>214.0</ele><time>2026-05-01T07:23:51.251Z</time></trkpt><trkpt lat="45.9192428" lon="9.3150435"><ele>214.33333333333331</ele><time>2026-05-01T07:23:52.248Z</time></trkpt><trkpt lat="45.9193597" lon="9.31493"><ele>214.66666666666669</ele><time>2026-05-01T07:23:53.25Z</time></trkpt><trkpt lat="45.9195049" lon="9.3147807"><ele>215.0</ele><time>2026-05-01T07:23:54.255Z</time></trkpt><trkpt lat="45.9196561" lon="9.3146191"><ele>215.0</ele><time>2026-05-01T07:23:55.25Z</time></trkpt><trkpt lat="45.9198144" lon="9.3144449"><ele>215.0</ele><time>2026-05-01T07:23:56.248Z</time></trkpt><trkpt lat="45.9199641" lon="9.3142954"><ele>215.0</ele><time>2026-05-01T07:23:57.246Z</time></trkpt><trkpt lat="45.9201081" lon="9.3141539"><ele>215.33333333333334</ele><time>2026-05-01T07:23:58.251Z</time></trkpt><trkpt lat="45.920251" lon="9.3140142"><ele>215.66666666666669</ele><time>2026-05-01T07:23:59.25Z</time></trkpt><trkpt lat="45.9204024" lon="9.3138737"><ele>216.0</ele><time>2026-05-01T07:24:00.247Z</time></trkpt><trkpt lat="45.9205574" lon="9.3137305"><ele>216.0</ele><time>2026-05-01T07:24:01.263Z</time></trkpt><trkpt lat="45.9207099" lon="9.3135897"><ele>216.0</ele><time>2026-05-01T07:24:02.249Z</time></trkpt><trkpt lat="45.9208584" lon="9.3134373"><ele>216.0</ele><time>2026-05-01T07:24:03.246Z</time></trkpt><trkpt lat="45.9210333" lon="9.313329"><ele>215.66666666666669</ele><time>2026-05-01T07:24:04.251Z</time></trkpt><trkpt lat="45.9211827" lon="9.3132104"><ele>215.33333333333334</ele><time>2026-05-01T07:24:05.247Z</time></trkpt><trkpt lat="45.9213475" lon="9.3131369"><ele>215.0</ele><time>2026-05-01T07:24:06.248Z</time></trkpt><trkpt lat="45.9215098" lon="9.3130597"><ele>215.0</ele><time>2026-05-01T07:24:07.243Z</time></trkpt><trkpt lat="45.9216929" lon="9.3130194"><ele>215.0</ele><time>2026-05-01T07:24:08.243Z</time></trkpt><trkpt lat="45.9218824" lon="9.3129609"><ele>215.0</ele><time>2026-05-01T07:24:09.238Z</time></trkpt><trkpt lat="45.9220729" lon="9.3129054"><ele>215.66666666666669</ele><time>2026-05-01T07:24:10.243Z</time></trkpt><trkpt lat="45.9222629" lon="9.31285"><ele>216.33333333333331</ele><time>2026-05-01T07:24:11.246Z</time></trkpt><trkpt lat="45.9224548" lon="9.3127981"><ele>217.0</ele><time>2026-05-01T07:24:12.24Z</time></trkpt><trkpt lat="45.9226264" lon="9.3127487"><ele>217.66666666666666</ele><time>2026-05-01T07:24:13.249Z</time></trkpt><trkpt lat="45.9228024" lon="9.3126959"><ele>218.33333333333331</ele><time>2026-05-01T07:24:14.244Z</time></trkpt><trkpt lat="45.9229887" lon="9.3126721"><ele>219.0</ele><time>2026-05-01T07:24:15.245Z</time></trkpt><trkpt lat="45.9231753" lon="9.3126233"><ele>219.0</ele><time>2026-05-01T07:24:16.247Z</time></trkpt><trkpt lat="45.9233644" lon="9.3125628"><ele>219.0</ele><time>2026-05-01T07:24:17.251Z</time></trkpt><trkpt lat="45.9235563" lon="9.3125074"><ele>219.0</ele><time>2026-05-01T07:24:18.247Z</time></trkpt><trkpt lat="45.9237403" lon="9.3124656"><ele>219.33333333333331</ele><time>2026-05-01T07:24:19.246Z</time></trkpt><trkpt lat="45.923928" lon="9.3124038"><ele>219.66666666666666</ele><time>2026-05-01T07:24:20.253Z</time></trkpt><trkpt lat="45.9241087" lon="9.3123621"><ele>220.0</ele><time>2026-05-01T07:24:21.247Z</time></trkpt><trkpt lat="45.9242646" lon="9.3123248"><ele>220.33333333333331</ele><time>2026-05-01T07:24:22.247Z</time></trkpt><trkpt lat="45.9244563" lon="9.3122993"><ele>220.66666666666669</ele><time>2026-05-01T07:24:23.248Z</time></trkpt><trkpt lat="45.9246407" lon="9.3122631"><ele>221.0</ele><time>2026-05-01T07:24:24.245Z</time></trkpt><trkpt lat="45.9248298" lon="9.3122011"><ele>219.66666666666669</ele><time>2026-05-01T07:24:25.248Z</time></trkpt><trkpt lat="45.9250194" lon="9.3121377"><ele>218.33333333333331</ele><time>2026-05-01T07:24:26.24Z</time></trkpt><trkpt lat="45.925201" lon="9.3120789"><ele>217.0</ele><time>2026-05-01T07:24:27.25Z</time></trkpt><trkpt lat="45.9253889" lon="9.3120227"><ele>217.0</ele><time>2026-05-01T07:24:28.247Z</time></trkpt><trkpt lat="45.9255764" lon="9.3119873"><ele>217.0</ele><time>2026-05-01T07:24:29.25Z</time></trkpt><trkpt lat="45.9257681" lon="9.3119661"><ele>217.0</ele><time>2026-05-01T07:24:30.243Z</time></trkpt><trkpt lat="45.9259319" lon="9.3119144"><ele>215.66666666666666</ele><time>2026-05-01T07:24:31.244Z</time></trkpt><trkpt lat="45.9261151" lon="9.3118974"><ele>214.33333333333331</ele><time>2026-05-01T07:24:32.243Z</time></trkpt><trkpt lat="45.9263117" lon="9.3118948"><ele>213.0</ele><time>2026-05-01T07:24:33.236Z</time></trkpt><trkpt lat="45.9265023" lon="9.3119073"><ele>213.0</ele><time>2026-05-01T07:24:34.244Z</time></trkpt><trkpt lat="45.9266732" lon="9.3119204"><ele>213.0</ele><time>2026-05-01T07:24:35.238Z</time></trkpt><trkpt lat="45.9268551" lon="9.3119252"><ele>213.0</ele><time>2026-05-01T07:24:36.248Z</time></trkpt><trkpt lat="45.9270502" lon="9.311931"><ele>211.33333333333331</ele><time>2026-05-01T07:24:37.253Z</time></trkpt><trkpt lat="45.9272578" lon="9.3119374"><ele>209.66666666666666</ele><time>2026-05-01T07:24:38.246Z</time></trkpt><trkpt lat="45.927458" lon="9.3119666"><ele>208.0</ele><time>2026-05-01T07:24:39.248Z</time></trkpt><trkpt lat="45.9276313" lon="9.3120287"><ele>206.33333333333331</ele><time>2026-05-01T07:24:40.244Z</time></trkpt><trkpt lat="45.9278221" lon="9.31211"><ele>204.66666666666669</ele><time>2026-05-01T07:24:41.244Z</time></trkpt><trkpt lat="45.9280106" lon="9.3122113"><ele>203.0</ele><time>2026-05-01T07:24:42.243Z</time></trkpt><trkpt lat="45.9281951" lon="9.3122976"><ele>205.0</ele><time>2026-05-01T07:24:43.248Z</time></trkpt><trkpt lat="45.9283856" lon="9.3123797"><ele>207.0</ele><time>2026-05-01T07:24:44.243Z</time></trkpt><trkpt lat="45.9285615" lon="9.3124568"><ele>209.0</ele><time>2026-05-01T07:24:45.242Z</time></trkpt><trkpt lat="45.928758" lon="9.3125415"><ele>209.0</ele><time>2026-05-01T07:24:46.241Z</time></trkpt><trkpt lat="45.9289324" lon="9.3126313"><ele>209.0</ele><time>2026-05-01T07:24:47.241Z</time></trkpt><trkpt lat="45.9291077" lon="9.3127029"><ele>209.0</ele><time>2026-05-01T07:24:48.244Z</time></trkpt><trkpt lat="45.9292804" lon="9.3127607"><ele>210.66666666666669</ele><time>2026-05-01T07:24:49.243Z</time></trkpt><trkpt lat="45.9294463" lon="9.3127926"><ele>212.33333333333331</ele><time>2026-05-01T07:24:50.242Z</time></trkpt><trkpt lat="45.9295928" lon="9.3127798"><ele>214.0</ele><time>2026-05-01T07:24:51.242Z</time></trkpt><trkpt lat="45.9297589" lon="9.3127415"><ele>214.0</ele><time>2026-05-01T07:24:52.241Z</time></trkpt><trkpt lat="45.9299324" lon="9.3126141"><ele>214.0</ele><time>2026-05-01T07:24:53.238Z</time></trkpt><trkpt lat="45.930075" lon="9.3124736"><ele>214.0</ele><time>2026-05-01T07:24:54.235Z</time></trkpt><trkpt lat="45.9302244" lon="9.3122968"><ele>211.33333333333331</ele><time>2026-05-01T07:24:55.243Z</time></trkpt><trkpt lat="45.9303667" lon="9.3121377"><ele>208.66666666666669</ele><time>2026-05-01T07:24:56.232Z</time></trkpt><trkpt lat="45.930532" lon="9.312017"><ele>206.0</ele><time>2026-05-01T07:24:57.241Z</time></trkpt><trkpt lat="45.9306981" lon="9.3119152"><ele>206.0</ele><time>2026-05-01T07:24:58.239Z</time></trkpt><trkpt lat="45.9308781" lon="9.3118356"><ele>206.0</ele><time>2026-05-01T07:24:59.244Z</time></trkpt><trkpt lat="45.9310486" lon="9.3117582"><ele>206.0</ele><time>2026-05-01T07:25:00.244Z</time></trkpt><trkpt lat="45.9312002" lon="9.3116739"><ele>207.66666666666669</ele><time>2026-05-01T07:25:01.237Z</time></trkpt><trkpt lat="45.9313615" lon="9.3116093"><ele>209.33333333333331</ele><time>2026-05-01T07:25:02.233Z</time></trkpt><trkpt lat="45.9315182" lon="9.3115846"><ele>211.0</ele><time>2026-05-01T07:25:03.233Z</time></trkpt><trkpt lat="45.9316927" lon="9.3116039"><ele>207.66666666666666</ele><time>2026-05-01T07:25:04.239Z</time></trkpt><trkpt lat="45.9318476" lon="9.3116961"><ele>204.33333333333331</ele><time>2026-05-01T07:25:05.232Z</time></trkpt><trkpt lat="45.9319818" lon="9.3118478"><ele>201.0</ele><time>2026-05-01T07:25:06.238Z</time></trkpt><trkpt lat="45.9321212" lon="9.312022"><ele>201.0</ele><time>2026-05-01T07:25:07.235Z</time></trkpt><trkpt lat="45.9322414" lon="9.3122029"><ele>201.0</ele><time>2026-05-01T07:25:08.241Z</time></trkpt><trkpt lat="45.932373" lon="9.3123582"><ele>201.0</ele><time>2026-05-01T07:25:09.237Z</time></trkpt><trkpt lat="45.9325177" lon="9.3124704"><ele>203.66666666666669</ele><time>2026-05-01T07:25:10.235Z</time></trkpt><trkpt lat="45.9327011" lon="9.3125248"><ele>206.33333333333334</ele><time>2026-05-01T07:25:11.314Z</time></trkpt><trkpt lat="45.9328924" lon="9.3125265"><ele>209.0</ele><time>2026-05-01T07:25:12.317Z</time></trkpt><trkpt lat="45.9330603" lon="9.3125193"><ele>209.0</ele><time>2026-05-01T07:25:13.262Z</time></trkpt><trkpt lat="45.9332485" lon="9.3125211"><ele>209.0</ele><time>2026-05-01T07:25:14.265Z</time></trkpt><trkpt lat="45.933422" lon="9.3125413"><ele>209.0</ele><time>2026-05-01T07:25:15.234Z</time></trkpt><trkpt lat="45.9336149" lon="9.3125426"><ele>208.66666666666669</ele><time>2026-05-01T07:25:16.243Z</time></trkpt><trkpt lat="45.9338105" lon="9.3125503"><ele>208.33333333333331</ele><time>2026-05-01T07:25:17.239Z</time></trkpt><trkpt lat="45.9340015" lon="9.3125751"><ele>208.0</ele><time>2026-05-01T07:25:18.241Z</time></trkpt><trkpt lat="45.9341745" lon="9.312583"><ele>206.0</ele><time>2026-05-01T07:25:19.235Z</time></trkpt><trkpt lat="45.9343435" lon="9.3125933"><ele>204.0</ele><time>2026-05-01T07:25:20.234Z</time></trkpt><trkpt lat="45.9345106" lon="9.3126459"><ele>202.0</ele><time>2026-05-01T07:25:21.229Z</time></trkpt><trkpt lat="45.9346873" lon="9.3126931"><ele>202.0</ele><time>2026-05-01T07:25:22.239Z</time></trkpt><trkpt lat="45.9348647" lon="9.3127356"><ele>202.0</ele><time>2026-05-01T07:25:23.235Z</time></trkpt><trkpt lat="45.9350318" lon="9.3127764"><ele>202.0</ele><time>2026-05-01T07:25:24.238Z</time></trkpt><trkpt lat="45.9351954" lon="9.3128064"><ele>201.33333333333331</ele><time>2026-05-01T07:25:25.258Z</time></trkpt><trkpt lat="45.9353473" lon="9.312837"><ele>200.66666666666669</ele><time>2026-05-01T07:25:26.235Z</time></trkpt><trkpt lat="45.9354924" lon="9.312873"><ele>200.0</ele><time>2026-05-01T07:25:27.24Z</time></trkpt><trkpt lat="45.9356626" lon="9.31287"><ele>200.0</ele><time>2026-05-01T07:25:28.261Z</time></trkpt><trkpt lat="45.9358361" lon="9.3128735"><ele>200.0</ele><time>2026-05-01T07:25:29.249Z</time></trkpt><trkpt lat="45.9359899" lon="9.3128746"><ele>200.0</ele><time>2026-05-01T07:25:30.24Z</time></trkpt><trkpt lat="45.9361264" lon="9.3128614"><ele>200.25</ele><time>2026-05-01T07:25:31.243Z</time></trkpt><trkpt lat="45.9362465" lon="9.3128372"><ele>200.5</ele><time>2026-05-01T07:25:32.238Z</time></trkpt><trkpt lat="45.936345" lon="9.3128248"><ele>200.75</ele><time>2026-05-01T07:25:33.241Z</time></trkpt><trkpt lat="45.9364619" lon="9.3127686"><ele>201.0</ele><time>2026-05-01T07:25:34.239Z</time></trkpt><trkpt lat="45.9365943" lon="9.3127389"><ele>201.0</ele><time>2026-05-01T07:25:35.238Z</time></trkpt><trkpt lat="45.9367426" lon="9.3127862"><ele>201.0</ele><time>2026-05-01T07:25:36.236Z</time></trkpt><trkpt lat="45.9368984" lon="9.3127852"><ele>201.0</ele><time>2026-05-01T07:25:37.244Z</time></trkpt><trkpt lat="45.9370809" lon="9.3127784"><ele>201.0</ele><time>2026-05-01T07:25:38.24Z</time></trkpt><trkpt lat="45.9372571" lon="9.3127955"><ele>201.0</ele><time>2026-05-01T07:25:39.241Z</time></trkpt><trkpt lat="45.9374235" lon="9.3127964"><ele>201.0</ele><time>2026-05-01T07:25:40.237Z</time></trkpt><trkpt lat="45.9375932" lon="9.3127932"><ele>202.0</ele><time>2026-05-01T07:25:41.239Z</time></trkpt><trkpt lat="45.9377774" lon="9.3128095"><ele>203.0</ele><time>2026-05-01T07:25:42.245Z</time></trkpt><trkpt lat="45.9379624" lon="9.3127934"><ele>204.0</ele><time>2026-05-01T07:25:43.24Z</time></trkpt><trkpt lat="45.9381438" lon="9.3127695"><ele>204.0</ele><time>2026-05-01T07:25:44.241Z</time></trkpt><trkpt lat="45.9383164" lon="9.312749"><ele>204.0</ele><time>2026-05-01T07:25:45.238Z</time></trkpt><trkpt lat="45.9384813" lon="9.3127197"><ele>204.0</ele><time>2026-05-01T07:25:46.237Z</time></trkpt><trkpt lat="45.9386504" lon="9.3126802"><ele>204.33333333333331</ele><time>2026-05-01T07:25:47.237Z</time></trkpt><trkpt lat="45.938828" lon="9.3126653"><ele>204.66666666666666</ele><time>2026-05-01T07:25:48.236Z</time></trkpt><trkpt lat="45.9389923" lon="9.3126447"><ele>205.0</ele><time>2026-05-01T07:25:49.24Z</time></trkpt><trkpt lat="45.9391441" lon="9.3126312"><ele>204.66666666666666</ele><time>2026-05-01T07:25:50.232Z</time></trkpt><trkpt lat="45.9392988" lon="9.3126168"><ele>204.33333333333331</ele><time>2026-05-01T07:25:51.23Z</time></trkpt><trkpt lat="45.9394616" lon="9.3125975"><ele>204.0</ele><time>2026-05-01T07:25:52.258Z</time></trkpt><trkpt lat="45.9396174" lon="9.3125681"><ele>204.0</ele><time>2026-05-01T07:25:53.225Z</time></trkpt><trkpt lat="45.9397967" lon="9.3126412"><ele>204.0</ele><time>2026-05-01T07:25:54.242Z</time></trkpt><trkpt lat="45.9399511" lon="9.3127093"><ele>204.0</ele><time>2026-05-01T07:25:55.26Z</time></trkpt><trkpt lat="45.9401013" lon="9.3127395"><ele>210.33333333333331</ele><time>2026-05-01T07:25:56.23Z</time></trkpt><trkpt lat="45.9402557" lon="9.3127153"><ele>216.66666666666666</ele><time>2026-05-01T07:25:57.232Z</time></trkpt><trkpt lat="45.9404203" lon="9.3126344"><ele>223.0</ele><time>2026-05-01T07:25:58.231Z</time></trkpt><trkpt lat="45.9405831" lon="9.3125089"><ele>223.0</ele><time>2026-05-01T07:25:59.229Z</time></trkpt><trkpt lat="45.9407501" lon="9.3123406"><ele>223.0</ele><time>2026-05-01T07:26:00.234Z</time></trkpt><trkpt lat="45.9409016" lon="9.3121793"><ele>223.0</ele><time>2026-05-01T07:26:01.231Z</time></trkpt><trkpt lat="45.9410647" lon="9.3120235"><ele>222.66666666666666</ele><time>2026-05-01T07:26:02.227Z</time></trkpt><trkpt lat="45.9412305" lon="9.3118919"><ele>222.33333333333331</ele><time>2026-05-01T07:26:03.231Z</time></trkpt><trkpt lat="45.9413893" lon="9.3117676"><ele>222.0</ele><time>2026-05-01T07:26:04.23Z</time></trkpt><trkpt lat="45.9415457" lon="9.3116537"><ele>222.0</ele><time>2026-05-01T07:26:05.228Z</time></trkpt><trkpt lat="45.9416971" lon="9.3115125"><ele>222.0</ele><time>2026-05-01T07:26:06.232Z</time></trkpt><trkpt lat="45.9418454" lon="9.311373"><ele>222.0</ele><time>2026-05-01T07:26:07.23Z</time></trkpt><trkpt lat="45.9419913" lon="9.3112353"><ele>222.0</ele><time>2026-05-01T07:26:08.226Z</time></trkpt><trkpt lat="45.9421362" lon="9.3110891"><ele>222.0</ele><time>2026-05-01T07:26:09.229Z</time></trkpt><trkpt lat="45.9422532" lon="9.3109092"><ele>222.0</ele><time>2026-05-01T07:26:10.227Z</time></trkpt><trkpt lat="45.9424058" lon="9.3107726"><ele>221.33333333333331</ele><time>2026-05-01T07:26:11.228Z</time></trkpt><trkpt lat="45.9425492" lon="9.3106263"><ele>220.66666666666666</ele><time>2026-05-01T07:26:12.235Z</time></trkpt><trkpt lat="45.9426949" lon="9.3104988"><ele>220.0</ele><time>2026-05-01T07:26:13.229Z</time></trkpt><trkpt lat="45.9428422" lon="9.3103708"><ele>220.0</ele><time>2026-05-01T07:26:14.233Z</time></trkpt><trkpt lat="45.9429932" lon="9.3102497"><ele>220.0</ele><time>2026-05-01T07:26:15.23Z</time></trkpt><trkpt lat="45.9431357" lon="9.3101074"><ele>220.0</ele><time>2026-05-01T07:26:16.229Z</time></trkpt><trkpt lat="45.94328" lon="9.309973"><ele>221.66666666666666</ele><time>2026-05-01T07:26:17.231Z</time></trkpt><trkpt lat="45.9434255" lon="9.3098249"><ele>223.33333333333331</ele><time>2026-05-01T07:26:18.232Z</time></trkpt><trkpt lat="45.9435646" lon="9.3096239"><ele>225.0</ele><time>2026-05-01T07:26:19.227Z</time></trkpt><trkpt lat="45.9437208" lon="9.3094972"><ele>225.0</ele><time>2026-05-01T07:26:20.218Z</time></trkpt><trkpt lat="45.9438706" lon="9.3093535"><ele>225.0</ele><time>2026-05-01T07:26:21.218Z</time></trkpt><trkpt lat="45.9440288" lon="9.3092546"><ele>225.0</ele><time>2026-05-01T07:26:22.223Z</time></trkpt><trkpt lat="45.9441867" lon="9.3091063"><ele>206.0</ele><time>2026-05-01T07:26:23.199Z</time></trkpt><trkpt lat="45.9490223" lon="9.302768"><ele>206.0</ele><time>2026-05-01T07:27:10.239Z</time></trkpt><trkpt lat="45.9491455" lon="9.3026488"><ele>206.0</ele><time>2026-05-01T07:27:11.244Z</time></trkpt><trkpt lat="45.9492722" lon="9.3024781"><ele>206.0</ele><time>2026-05-01T07:27:12.235Z</time></trkpt><trkpt lat="45.9493917" lon="9.3023136"><ele>207.0</ele><time>2026-05-01T07:27:13.243Z</time></trkpt><trkpt lat="45.9495112" lon="9.3021484"><ele>208.0</ele><time>2026-05-01T07:27:14.396Z</time></trkpt><trkpt lat="45.9497281" lon="9.3018657"><ele>208.0</ele><time>2026-05-01T07:27:16.243Z</time></trkpt><trkpt lat="45.9498266" lon="9.3017715"><ele>208.0</ele><time>2026-05-01T07:27:17.4Z</time></trkpt><trkpt lat="45.9499692" lon="9.3016861"><ele>208.0</ele><time>2026-05-01T07:27:19.246Z</time></trkpt><trkpt lat="45.9500411" lon="9.3016512"><ele>208.0</ele><time>2026-05-01T07:27:21.232Z</time></trkpt><trkpt lat="45.9501039" lon="9.3016402"><ele>208.0</ele><time>2026-05-01T07:27:44.249Z</time></trkpt><trkpt lat="45.9501811" lon="9.30159"><ele>208.7142857142857</ele><time>2026-05-01T07:27:46.251Z</time></trkpt><trkpt lat="45.9502414" lon="9.3015496"><ele>209.42857142857144</ele><time>2026-05-01T07:27:47.237Z</time></trkpt><trkpt lat="45.9503151" lon="9.3015218"><ele>210.14285714285714</ele><time>2026-05-01T07:27:48.236Z</time></trkpt><trkpt lat="45.9503903" lon="9.3015073"><ele>210.85714285714283</ele><time>2026-05-01T07:27:49.238Z</time></trkpt><trkpt lat="45.9504547" lon="9.301499"><ele>211.57142857142856</ele><time>2026-05-01T07:27:50.239Z</time></trkpt><trkpt lat="45.9505299" lon="9.3014858"><ele>212.28571428571428</ele><time>2026-05-01T07:27:52.26Z</time></trkpt><trkpt lat="45.9506097" lon="9.3014695"><ele>213.0</ele><time>2026-05-01T07:27:54.253Z</time></trkpt><trkpt lat="45.9506813" lon="9.3014549"><ele>213.0</ele><time>2026-05-01T07:27:55.254Z</time></trkpt><trkpt lat="45.9507584" lon="9.3014368"><ele>213.0</ele><time>2026-05-01T07:27:56.246Z</time></trkpt><trkpt lat="45.9508516" lon="9.3014162"><ele>213.0</ele><time>2026-05-01T07:27:57.243Z</time></trkpt><trkpt lat="45.9509519" lon="9.3013926"><ele>213.0</ele><time>2026-05-01T07:27:58.242Z</time></trkpt><trkpt lat="45.9510827" lon="9.3013647"><ele>213.0</ele><time>2026-05-01T07:27:59.248Z</time></trkpt><trkpt lat="45.9512115" lon="9.3013468"><ele>210.0</ele><time>2026-05-01T07:28:00.244Z</time></trkpt><trkpt lat="45.9513596" lon="9.3013177"><ele>207.0</ele><time>2026-05-01T07:28:01.238Z</time></trkpt><trkpt lat="45.9515082" lon="9.3012854"><ele>204.0</ele><time>2026-05-01T07:28:02.247Z</time></trkpt><trkpt lat="45.9516827" lon="9.3012503"><ele>204.0</ele><time>2026-05-01T07:28:03.24Z</time></trkpt><trkpt lat="45.9518701" lon="9.3012301"><ele>204.0</ele><time>2026-05-01T07:28:04.248Z</time></trkpt><trkpt lat="45.9520378" lon="9.3012448"><ele>204.0</ele><time>2026-05-01T07:28:05.244Z</time></trkpt><trkpt lat="45.9521902" lon="9.3012232"><ele>204.0</ele><time>2026-05-01T07:28:06.247Z</time></trkpt><trkpt lat="45.9523273" lon="9.3012149"><ele>204.0</ele><time>2026-05-01T07:28:07.253Z</time></trkpt><trkpt lat="45.9524601" lon="9.30116"><ele>204.0</ele><time>2026-05-01T07:28:08.249Z</time></trkpt><trkpt lat="45.9526109" lon="9.3011461"><ele>204.0</ele><time>2026-05-01T07:28:09.249Z</time></trkpt><trkpt lat="45.9527492" lon="9.3011934"><ele>203.5</ele><time>2026-05-01T07:28:10.244Z</time></trkpt><trkpt lat="45.9528685" lon="9.3012425"><ele>203.0</ele><time>2026-05-01T07:28:11.247Z</time></trkpt><trkpt lat="45.9529901" lon="9.301317"><ele>202.5</ele><time>2026-05-01T07:28:12.245Z</time></trkpt><trkpt lat="45.9531332" lon="9.3013787"><ele>202.0</ele><time>2026-05-01T07:28:13.245Z</time></trkpt><trkpt lat="45.9532793" lon="9.3014437"><ele>205.66666666666666</ele><time>2026-05-01T07:28:14.25Z</time></trkpt><trkpt lat="45.9534332" lon="9.3015103"><ele>209.33333333333331</ele><time>2026-05-01T07:28:15.236Z</time></trkpt><trkpt lat="45.9535891" lon="9.3015803"><ele>213.0</ele><time>2026-05-01T07:28:16.239Z</time></trkpt><trkpt lat="45.9537595" lon="9.301643"><ele>213.0</ele><time>2026-05-01T07:28:17.241Z</time></trkpt><trkpt lat="45.9539077" lon="9.3017178"><ele>213.0</ele><time>2026-05-01T07:28:18.229Z</time></trkpt><trkpt lat="45.9540545" lon="9.3017927"><ele>213.0</ele><time>2026-05-01T07:28:19.239Z</time></trkpt><trkpt lat="45.9542209" lon="9.3018281"><ele>211.0</ele><time>2026-05-01T07:28:20.239Z</time></trkpt><trkpt lat="45.9543813" lon="9.30184"><ele>209.0</ele><time>2026-05-01T07:28:21.235Z</time></trkpt><trkpt lat="45.9545342" lon="9.3018416"><ele>207.0</ele><time>2026-05-01T07:28:22.24Z</time></trkpt><trkpt lat="45.9546843" lon="9.3018411"><ele>207.0</ele><time>2026-05-01T07:28:23.237Z</time></trkpt><trkpt lat="45.9548344" lon="9.3018418"><ele>207.0</ele><time>2026-05-01T07:28:24.237Z</time></trkpt><trkpt lat="45.9550248" lon="9.3018295"><ele>207.0</ele><time>2026-05-01T07:28:25.243Z</time></trkpt><trkpt lat="45.9552126" lon="9.3018516"><ele>205.66666666666669</ele><time>2026-05-01T07:28:26.238Z</time></trkpt><trkpt lat="45.9553915" lon="9.301881"><ele>204.33333333333334</ele><time>2026-05-01T07:28:27.235Z</time></trkpt><trkpt lat="45.9555589" lon="9.3019122"><ele>203.0</ele><time>2026-05-01T07:28:28.239Z</time></trkpt><trkpt lat="45.9557171" lon="9.3019493"><ele>202.0</ele><time>2026-05-01T07:28:29.238Z</time></trkpt><trkpt lat="45.9558954" lon="9.3019796"><ele>201.0</ele><time>2026-05-01T07:28:30.259Z</time></trkpt><trkpt lat="45.9560676" lon="9.3020115"><ele>200.0</ele><time>2026-05-01T07:28:31.256Z</time></trkpt><trkpt lat="45.9562514" lon="9.3020298"><ele>200.0</ele><time>2026-05-01T07:28:32.256Z</time></trkpt><trkpt lat="45.9564467" lon="9.3020069"><ele>200.0</ele><time>2026-05-01T07:28:33.26Z</time></trkpt><trkpt lat="45.9566375" lon="9.3019603"><ele>200.0</ele><time>2026-05-01T07:28:34.26Z</time></trkpt><trkpt lat="45.9568418" lon="9.3019309"><ele>203.33333333333334</ele><time>2026-05-01T07:28:35.238Z</time></trkpt><trkpt lat="45.9570362" lon="9.3018963"><ele>206.66666666666669</ele><time>2026-05-01T07:28:36.242Z</time></trkpt><trkpt lat="45.9572205" lon="9.3018725"><ele>210.0</ele><time>2026-05-01T07:28:37.24Z</time></trkpt><trkpt lat="45.9574103" lon="9.301863"><ele>208.66666666666669</ele><time>2026-05-01T07:28:38.238Z</time></trkpt><trkpt lat="45.9575978" lon="9.3018725"><ele>207.33333333333334</ele><time>2026-05-01T07:28:39.233Z</time></trkpt><trkpt lat="45.9577715" lon="9.3018679"><ele>206.0</ele><time>2026-05-01T07:28:40.239Z</time></trkpt><trkpt lat="45.9579431" lon="9.3018565"><ele>206.0</ele><time>2026-05-01T07:28:41.232Z</time></trkpt><trkpt lat="45.9581038" lon="9.3018267"><ele>206.0</ele><time>2026-05-01T07:28:42.241Z</time></trkpt><trkpt lat="45.9582715" lon="9.3018172"><ele>206.0</ele><time>2026-05-01T07:28:43.231Z</time></trkpt><trkpt lat="45.9584375" lon="9.3017968"><ele>208.0</ele><time>2026-05-01T07:28:44.237Z</time></trkpt><trkpt lat="45.9586008" lon="9.3017656"><ele>210.0</ele><time>2026-05-01T07:28:45.238Z</time></trkpt><trkpt lat="45.9587516" lon="9.3017404"><ele>212.0</ele><time>2026-05-01T07:28:46.237Z</time></trkpt><trkpt lat="45.9589183" lon="9.3017053"><ele>212.0</ele><time>2026-05-01T07:28:47.237Z</time></trkpt><trkpt lat="45.9590632" lon="9.3016454"><ele>212.0</ele><time>2026-05-01T07:28:48.236Z</time></trkpt><trkpt lat="45.9591849" lon="9.3016022"><ele>212.0</ele><time>2026-05-01T07:28:49.229Z</time></trkpt><trkpt lat="45.9592616" lon="9.3015878"><ele>212.0</ele><time>2026-05-01T07:28:50.229Z</time></trkpt><trkpt lat="45.9593369" lon="9.3016145"><ele>212.0</ele><time>2026-05-01T07:28:55.243Z</time></trkpt><trkpt lat="45.9594014" lon="9.301607"><ele>212.0</ele><time>2026-05-01T07:28:57.247Z</time></trkpt><trkpt lat="45.9595006" lon="9.3015799"><ele>212.0</ele><time>2026-05-01T07:28:59.248Z</time></trkpt><trkpt lat="45.9595648" lon="9.3015537"><ele>212.0</ele><time>2026-05-01T07:29:00.306Z</time></trkpt><trkpt lat="45.9596388" lon="9.3014959"><ele>212.0</ele><time>2026-05-01T07:29:01.241Z</time></trkpt><trkpt lat="45.9597489" lon="9.30149"><ele>212.0</ele><time>2026-05-01T07:29:02.234Z</time></trkpt><trkpt lat="45.9598751" lon="9.3015237"><ele>212.0</ele><time>2026-05-01T07:29:03.238Z</time></trkpt><trkpt lat="45.9600129" lon="9.3015594"><ele>212.0</ele><time>2026-05-01T07:29:04.237Z</time></trkpt><trkpt lat="45.9601509" lon="9.3015982"><ele>212.0</ele><time>2026-05-01T07:29:05.233Z</time></trkpt><trkpt lat="45.9602828" lon="9.3015987"><ele>212.0</ele><time>2026-05-01T07:29:06.234Z</time></trkpt><trkpt lat="45.9604224" lon="9.3015978"><ele>212.0</ele><time>2026-05-01T07:29:07.233Z</time></trkpt><trkpt lat="45.960578" lon="9.3016108"><ele>212.0</ele><time>2026-05-01T07:29:08.225Z</time></trkpt><trkpt lat="45.9607478" lon="9.3015989"><ele>212.0</ele><time>2026-05-01T07:29:09.232Z</time></trkpt><trkpt lat="45.9609179" lon="9.301544"><ele>213.33333333333334</ele><time>2026-05-01T07:29:10.231Z</time></trkpt><trkpt lat="45.9610969" lon="9.3014744"><ele>214.66666666666669</ele><time>2026-05-01T07:29:11.32Z</time></trkpt><trkpt lat="45.961245" lon="9.3014282"><ele>216.0</ele><time>2026-05-01T07:29:12.24Z</time></trkpt><trkpt lat="45.9613893" lon="9.301351"><ele>212.33333333333331</ele><time>2026-05-01T07:29:13.23Z</time></trkpt><trkpt lat="45.9615069" lon="9.301335"><ele>208.66666666666666</ele><time>2026-05-01T07:29:14.398Z</time></trkpt><trkpt lat="45.9617643" lon="9.3013282"><ele>205.0</ele><time>2026-05-01T07:29:16.238Z</time></trkpt><trkpt lat="45.9619088" lon="9.3013506"><ele>205.0</ele><time>2026-05-01T07:29:17.243Z</time></trkpt><trkpt lat="45.9620684" lon="9.3013519"><ele>205.0</ele><time>2026-05-01T07:29:18.249Z</time></trkpt><trkpt lat="45.9621997" lon="9.3014003"><ele>205.0</ele><time>2026-05-01T07:29:19.394Z</time></trkpt><trkpt lat="45.9623389" lon="9.3014328"><ele>205.0</ele><time>2026-05-01T07:29:20.398Z</time></trkpt><trkpt lat="45.9624712" lon="9.3014914"><ele>210.0</ele><time>2026-05-01T07:29:21.396Z</time></trkpt><trkpt lat="45.962715" lon="9.3016094"><ele>215.0</ele><time>2026-05-01T07:29:23.321Z</time></trkpt><trkpt lat="45.9628367" lon="9.3016717"><ele>220.0</ele><time>2026-05-01T07:29:24.392Z</time></trkpt><trkpt lat="45.9630945" lon="9.3017757"><ele>220.0</ele><time>2026-05-01T07:29:26.234Z</time></trkpt><trkpt lat="45.9632301" lon="9.3018269"><ele>220.0</ele><time>2026-05-01T07:29:27.233Z</time></trkpt><trkpt lat="45.9633669" lon="9.301893"><ele>220.0</ele><time>2026-05-01T07:29:28.234Z</time></trkpt><trkpt lat="45.963516" lon="9.3019525"><ele>220.0</ele><time>2026-05-01T07:29:29.238Z</time></trkpt><trkpt lat="45.9636766" lon="9.3019746"><ele>217.0</ele><time>2026-05-01T07:29:30.234Z</time></trkpt><trkpt lat="45.9638392" lon="9.3020258"><ele>214.0</ele><time>2026-05-01T07:29:31.237Z</time></trkpt><trkpt lat="45.9640053" lon="9.3020624"><ele>211.0</ele><time>2026-05-01T07:29:32.389Z</time></trkpt><trkpt lat="45.9641742" lon="9.3020979"><ele>211.25</ele><time>2026-05-01T07:29:33.233Z</time></trkpt><trkpt lat="45.9643291" lon="9.3021625"><ele>211.5</ele><time>2026-05-01T07:29:34.239Z</time></trkpt><trkpt lat="45.964473" lon="9.3022301"><ele>211.75</ele><time>2026-05-01T07:29:35.239Z</time></trkpt><trkpt lat="45.964603" lon="9.3022843"><ele>212.0</ele><time>2026-05-01T07:29:36.231Z</time></trkpt><trkpt lat="45.9647177" lon="9.302369"><ele>212.0</ele><time>2026-05-01T07:29:37.238Z</time></trkpt><trkpt lat="45.9648471" lon="9.3024449"><ele>212.0</ele><time>2026-05-01T07:29:38.236Z</time></trkpt><trkpt lat="45.9649638" lon="9.3025184"><ele>212.0</ele><time>2026-05-01T07:29:39.239Z</time></trkpt><trkpt lat="45.9650991" lon="9.3026122"><ele>212.0</ele><time>2026-05-01T07:29:40.237Z</time></trkpt><trkpt lat="45.965226" lon="9.3027389"><ele>210.33333333333334</ele><time>2026-05-01T07:29:41.229Z</time></trkpt><trkpt lat="45.9653444" lon="9.3027768"><ele>208.66666666666669</ele><time>2026-05-01T07:29:42.232Z</time></trkpt><trkpt lat="45.9654585" lon="9.3028581"><ele>207.0</ele><time>2026-05-01T07:29:43.546Z</time></trkpt><trkpt lat="45.9656418" lon="9.303005"><ele>207.0</ele><time>2026-05-01T07:29:45.256Z</time></trkpt><trkpt lat="45.9657314" lon="9.3030781"><ele>207.0</ele><time>2026-05-01T07:29:46.236Z</time></trkpt><trkpt lat="45.9658399" lon="9.303166"><ele>207.0</ele><time>2026-05-01T07:29:47.232Z</time></trkpt><trkpt lat="45.9659465" lon="9.3032618"><ele>207.0</ele><time>2026-05-01T07:29:48.23Z</time></trkpt><trkpt lat="45.9660467" lon="9.3033571"><ele>206.5</ele><time>2026-05-01T07:29:49.229Z</time></trkpt><trkpt lat="45.9661474" lon="9.3034524"><ele>206.0</ele><time>2026-05-01T07:29:50.231Z</time></trkpt><trkpt lat="45.9662611" lon="9.3035492"><ele>205.5</ele><time>2026-05-01T07:29:51.231Z</time></trkpt><trkpt lat="45.9663805" lon="9.3036468"><ele>205.0</ele><time>2026-05-01T07:29:52.236Z</time></trkpt><trkpt lat="45.9665124" lon="9.3037371"><ele>205.0</ele><time>2026-05-01T07:29:53.236Z</time></trkpt><trkpt lat="45.9666607" lon="9.3037453"><ele>205.0</ele><time>2026-05-01T07:29:54.227Z</time></trkpt><trkpt lat="45.9668093" lon="9.3037346"><ele>205.0</ele><time>2026-05-01T07:29:55.235Z</time></trkpt><trkpt lat="45.9669727" lon="9.3037364"><ele>205.75</ele><time>2026-05-01T07:29:56.23Z</time></trkpt><trkpt lat="45.9670941" lon="9.303692"><ele>206.5</ele><time>2026-05-01T07:29:57.225Z</time></trkpt><trkpt lat="45.9672361" lon="9.3035769"><ele>207.25</ele><time>2026-05-01T07:29:58.225Z</time></trkpt><trkpt lat="45.9673883" lon="9.3035055"><ele>208.0</ele><time>2026-05-01T07:29:59.232Z</time></trkpt><trkpt lat="45.967523" lon="9.3034071"><ele>207.33333333333331</ele><time>2026-05-01T07:30:00.227Z</time></trkpt><trkpt lat="45.9676502" lon="9.3032572"><ele>206.66666666666669</ele><time>2026-05-01T07:30:01.228Z</time></trkpt><trkpt lat="45.9678154" lon="9.3030989"><ele>206.0</ele><time>2026-05-01T07:30:02.227Z</time></trkpt><trkpt lat="45.9679898" lon="9.3029565"><ele>206.0</ele><time>2026-05-01T07:30:03.228Z</time></trkpt><trkpt lat="45.9681903" lon="9.302816"><ele>206.0</ele><time>2026-05-01T07:30:04.225Z</time></trkpt><trkpt lat="45.968422" lon="9.3026913"><ele>212.5</ele><time>2026-05-01T07:30:05.225Z</time></trkpt><trkpt lat="45.9686454" lon="9.3025672"><ele>219.0</ele><time>2026-05-01T07:30:06.304Z</time></trkpt><trkpt lat="45.9688465" lon="9.302435"><ele>219.0</ele><time>2026-05-01T07:30:07.378Z</time></trkpt><trkpt lat="45.9690288" lon="9.3022663"><ele>219.0</ele><time>2026-05-01T07:30:08.461Z</time></trkpt><trkpt lat="45.9692138" lon="9.3020687"><ele>219.0</ele><time>2026-05-01T07:30:09.382Z</time></trkpt><trkpt lat="45.9694001" lon="9.3019086"><ele>219.66666666666669</ele><time>2026-05-01T07:30:10.386Z</time></trkpt><trkpt lat="45.9695364" lon="9.3017286"><ele>220.33333333333334</ele><time>2026-05-01T07:30:11.38Z</time></trkpt><trkpt lat="45.9696538" lon="9.3015526"><ele>221.0</ele><time>2026-05-01T07:30:12.542Z</time></trkpt><trkpt lat="45.9697743" lon="9.3013528"><ele>217.0</ele><time>2026-05-01T07:30:13.545Z</time></trkpt><trkpt lat="45.97001" lon="9.3010261"><ele>213.0</ele><time>2026-05-01T07:30:15.54Z</time></trkpt><trkpt lat="45.9702519" lon="9.3007951"><ele>213.0</ele><time>2026-05-01T07:30:17.384Z</time></trkpt><trkpt lat="45.9704015" lon="9.3007482"><ele>213.0</ele><time>2026-05-01T07:30:18.382Z</time></trkpt><trkpt lat="45.970777" lon="9.3006729"><ele>211.33333333333331</ele><time>2026-05-01T07:30:20.23Z</time></trkpt><trkpt lat="45.9709538" lon="9.3005824"><ele>209.66666666666666</ele><time>2026-05-01T07:30:21.387Z</time></trkpt><trkpt lat="45.9711693" lon="9.3005519"><ele>208.0</ele><time>2026-05-01T07:30:22.387Z</time></trkpt><trkpt lat="45.9713529" lon="9.3004045"><ele>208.0</ele><time>2026-05-01T07:30:23.548Z</time></trkpt><trkpt lat="45.9715202" lon="9.3002403"><ele>208.0</ele><time>2026-05-01T07:30:24.538Z</time></trkpt><trkpt lat="45.9717052" lon="9.3000992"><ele>208.0</ele><time>2026-05-01T07:30:25.544Z</time></trkpt><trkpt lat="45.9718876" lon="9.2999811"><ele>206.33333333333331</ele><time>2026-05-01T07:30:26.541Z</time></trkpt><trkpt lat="45.9720876" lon="9.2998807"><ele>204.66666666666669</ele><time>2026-05-01T07:30:27.542Z</time></trkpt><trkpt lat="45.9722681" lon="9.299742"><ele>203.0</ele><time>2026-05-01T07:30:28.49Z</time></trkpt><trkpt lat="45.9725525" lon="9.2996811"><ele>210.0</ele><time>2026-05-01T07:30:29.487Z</time></trkpt><trkpt lat="45.9727994" lon="9.2992832"><ele>217.0</ele><time>2026-05-01T07:30:31.248Z</time></trkpt><trkpt lat="45.972973" lon="9.2991439"><ele>217.0</ele><time>2026-05-01T07:30:32.256Z</time></trkpt><trkpt lat="45.9731583" lon="9.299051"><ele>217.0</ele><time>2026-05-01T07:30:33.244Z</time></trkpt><trkpt lat="45.9733022" lon="9.2988954"><ele>217.0</ele><time>2026-05-01T07:30:34.25Z</time></trkpt><trkpt lat="45.9734964" lon="9.2988254"><ele>214.0</ele><time>2026-05-01T07:30:35.224Z</time></trkpt><trkpt lat="45.9736953" lon="9.2987441"><ele>211.0</ele><time>2026-05-01T07:30:36.229Z</time></trkpt><trkpt lat="45.9738764" lon="9.2986676"><ele>208.0</ele><time>2026-05-01T07:30:37.224Z</time></trkpt><trkpt lat="45.9740682" lon="9.2986007"><ele>216.33333333333331</ele><time>2026-05-01T07:30:38.227Z</time></trkpt><trkpt lat="45.9742293" lon="9.2985272"><ele>224.66666666666669</ele><time>2026-05-01T07:30:39.232Z</time></trkpt><trkpt lat="45.9743987" lon="9.2984435"><ele>233.0</ele><time>2026-05-01T07:30:40.225Z</time></trkpt><trkpt lat="45.9745463" lon="9.2983063"><ele>233.0</ele><time>2026-05-01T07:30:41.263Z</time></trkpt><trkpt lat="45.974682" lon="9.2981415"><ele>233.0</ele><time>2026-05-01T07:30:42.231Z</time></trkpt><trkpt lat="45.9748147" lon="9.297958"><ele>233.0</ele><time>2026-05-01T07:30:43.232Z</time></trkpt><trkpt lat="45.9749327" lon="9.2977667"><ele>236.66666666666669</ele><time>2026-05-01T07:30:44.227Z</time></trkpt><trkpt lat="45.9750203" lon="9.2975211"><ele>240.33333333333331</ele><time>2026-05-01T07:30:45.229Z</time></trkpt><trkpt lat="45.9751346" lon="9.2973245"><ele>244.0</ele><time>2026-05-01T07:30:46.232Z</time></trkpt><trkpt lat="45.975258" lon="9.2971243"><ele>233.0</ele><time>2026-05-01T07:30:47.227Z</time></trkpt><trkpt lat="45.9753906" lon="9.2970044"><ele>222.0</ele><time>2026-05-01T07:30:48.256Z</time></trkpt><trkpt lat="45.9755605" lon="9.2969896"><ele>211.0</ele><time>2026-05-01T07:30:49.233Z</time></trkpt><trkpt lat="45.9757357" lon="9.2969591"><ele>219.0</ele><time>2026-05-01T07:30:50.252Z</time></trkpt><trkpt lat="45.9759293" lon="9.2968873"><ele>227.0</ele><time>2026-05-01T07:30:51.234Z</time></trkpt><trkpt lat="45.9760945" lon="9.2967517"><ele>235.0</ele><time>2026-05-01T07:30:52.227Z</time></trkpt><trkpt lat="45.9762673" lon="9.296596"><ele>235.0</ele><time>2026-05-01T07:30:53.23Z</time></trkpt><trkpt lat="45.9764319" lon="9.29646"><ele>235.0</ele><time>2026-05-01T07:30:54.23Z</time></trkpt><trkpt lat="45.9765825" lon="9.2963458"><ele>235.0</ele><time>2026-05-01T07:30:55.25Z</time></trkpt><trkpt lat="45.9767283" lon="9.2962554"><ele>228.0</ele><time>2026-05-01T07:30:56.222Z</time></trkpt><trkpt lat="45.9768534" lon="9.296118"><ele>221.0</ele><time>2026-05-01T07:30:57.225Z</time></trkpt><trkpt lat="45.9769842" lon="9.2960207"><ele>214.0</ele><time>2026-05-01T07:30:58.23Z</time></trkpt><trkpt lat="45.9771369" lon="9.2959968"><ele>214.0</ele><time>2026-05-01T07:30:59.227Z</time></trkpt><trkpt lat="45.9773137" lon="9.2960654"><ele>214.0</ele><time>2026-05-01T07:31:00.224Z</time></trkpt><trkpt lat="45.9774721" lon="9.2962234"><ele>214.0</ele><time>2026-05-01T07:31:01.228Z</time></trkpt><trkpt lat="45.9776091" lon="9.2963892"><ele>212.33333333333331</ele><time>2026-05-01T07:31:02.227Z</time></trkpt><trkpt lat="45.9777168" lon="9.2965374"><ele>210.66666666666669</ele><time>2026-05-01T07:31:03.225Z</time></trkpt><trkpt lat="45.9778477" lon="9.2966624"><ele>209.0</ele><time>2026-05-01T07:31:04.222Z</time></trkpt><trkpt lat="45.9779996" lon="9.296823"><ele>209.0</ele><time>2026-05-01T07:31:05.225Z</time></trkpt><trkpt lat="45.9781412" lon="9.2969635"><ele>209.0</ele><time>2026-05-01T07:31:06.226Z</time></trkpt><trkpt lat="45.9782319" lon="9.2971609"><ele>209.0</ele><time>2026-05-01T07:31:07.229Z</time></trkpt><trkpt lat="45.9783705" lon="9.2972687"><ele>214.33333333333334</ele><time>2026-05-01T07:31:08.229Z</time></trkpt><trkpt lat="45.9785079" lon="9.2973814"><ele>219.66666666666669</ele><time>2026-05-01T07:31:09.227Z</time></trkpt><trkpt lat="45.978657" lon="9.2974289"><ele>225.0</ele><time>2026-05-01T07:31:10.228Z</time></trkpt><trkpt lat="45.9788073" lon="9.2973931"><ele>225.0</ele><time>2026-05-01T07:31:11.226Z</time></trkpt><trkpt lat="45.9789849" lon="9.2973068"><ele>225.0</ele><time>2026-05-01T07:31:12.227Z</time></trkpt><trkpt lat="45.9791306" lon="9.2972104"><ele>225.0</ele><time>2026-05-01T07:31:13.221Z</time></trkpt><trkpt lat="45.9792752" lon="9.2971794"><ele>218.75</ele><time>2026-05-01T07:31:14.217Z</time></trkpt><trkpt lat="45.9794049" lon="9.2971825"><ele>212.5</ele><time>2026-05-01T07:31:15.218Z</time></trkpt><trkpt lat="45.9795268" lon="9.2971585"><ele>206.25</ele><time>2026-05-01T07:31:16.224Z</time></trkpt><trkpt lat="45.9797007" lon="9.2971952"><ele>200.0</ele><time>2026-05-01T07:31:17.223Z</time></trkpt><trkpt lat="45.979872" lon="9.2972284"><ele>201.0</ele><time>2026-05-01T07:31:18.221Z</time></trkpt><trkpt lat="45.9800331" lon="9.2972282"><ele>202.0</ele><time>2026-05-01T07:31:19.231Z</time></trkpt><trkpt lat="45.9801865" lon="9.297259"><ele>203.0</ele><time>2026-05-01T07:31:20.223Z</time></trkpt><trkpt lat="45.9803448" lon="9.297289"><ele>211.33333333333334</ele><time>2026-05-01T07:31:21.228Z</time></trkpt><trkpt lat="45.9804989" lon="9.2973017"><ele>219.66666666666669</ele><time>2026-05-01T07:31:22.237Z</time></trkpt><trkpt lat="45.9806528" lon="9.2972981"><ele>228.0</ele><time>2026-05-01T07:31:23.229Z</time></trkpt><trkpt lat="45.9807959" lon="9.2972644"><ele>223.0</ele><time>2026-05-01T07:31:24.23Z</time></trkpt><trkpt lat="45.9809431" lon="9.2972264"><ele>218.0</ele><time>2026-05-01T07:31:25.231Z</time></trkpt><trkpt lat="45.981098" lon="9.2971387"><ele>213.0</ele><time>2026-05-01T07:31:26.227Z</time></trkpt><trkpt lat="45.9812769" lon="9.2970569"><ele>213.0</ele><time>2026-05-01T07:31:27.227Z</time></trkpt><trkpt lat="45.9814597" lon="9.2969405"><ele>213.0</ele><time>2026-05-01T07:31:28.228Z</time></trkpt><trkpt lat="45.9816385" lon="9.2968193"><ele>213.0</ele><time>2026-05-01T07:31:29.222Z</time></trkpt><trkpt lat="45.981792" lon="9.2966823"><ele>213.66666666666669</ele><time>2026-05-01T07:31:30.224Z</time></trkpt><trkpt lat="45.9819555" lon="9.2965792"><ele>214.33333333333334</ele><time>2026-05-01T07:31:31.221Z</time></trkpt><trkpt lat="45.9821604" lon="9.2964827"><ele>215.0</ele><time>2026-05-01T07:31:32.224Z</time></trkpt><trkpt lat="45.9823301" lon="9.2963962"><ele>215.0</ele><time>2026-05-01T07:31:33.225Z</time></trkpt><trkpt lat="45.9825019" lon="9.2963013"><ele>215.0</ele><time>2026-05-01T07:31:34.224Z</time></trkpt><trkpt lat="45.9826417" lon="9.2962164"><ele>215.0</ele><time>2026-05-01T07:31:35.212Z</time></trkpt><trkpt lat="45.9827624" lon="9.296097"><ele>226.66666666666669</ele><time>2026-05-01T07:31:36.227Z</time></trkpt><trkpt lat="45.9828709" lon="9.2959372"><ele>238.33333333333331</ele><time>2026-05-01T07:31:37.22Z</time></trkpt><trkpt lat="45.9829845" lon="9.2957761"><ele>250.0</ele><time>2026-05-01T07:31:38.222Z</time></trkpt><trkpt lat="45.9830804" lon="9.2956232"><ele>243.25</ele><time>2026-05-01T07:31:39.227Z</time></trkpt><trkpt lat="45.983175" lon="9.2954942"><ele>236.5</ele><time>2026-05-01T07:31:40.227Z</time></trkpt><trkpt lat="45.9832555" lon="9.2953579"><ele>229.75</ele><time>2026-05-01T07:31:41.227Z</time></trkpt><trkpt lat="45.983352" lon="9.2952483"><ele>223.0</ele><time>2026-05-01T07:31:42.224Z</time></trkpt><trkpt lat="45.9834353" lon="9.2951471"><ele>223.0</ele><time>2026-05-01T07:31:43.218Z</time></trkpt><trkpt lat="45.9835476" lon="9.2951025"><ele>223.0</ele><time>2026-05-01T07:31:44.228Z</time></trkpt><trkpt lat="45.983675" lon="9.295073"><ele>223.0</ele><time>2026-05-01T07:31:45.226Z</time></trkpt><trkpt lat="45.9838137" lon="9.2950669"><ele>223.0</ele><time>2026-05-01T07:31:46.232Z</time></trkpt><trkpt lat="45.9839497" lon="9.2950644"><ele>223.0</ele><time>2026-05-01T07:31:47.235Z</time></trkpt><trkpt lat="45.9840945" lon="9.2950539"><ele>223.0</ele><time>2026-05-01T07:31:48.233Z</time></trkpt><trkpt lat="45.9842334" lon="9.2950216"><ele>223.0</ele><time>2026-05-01T07:31:49.232Z</time></trkpt><trkpt lat="45.9843755" lon="9.2949483"><ele>223.0</ele><time>2026-05-01T07:31:50.226Z</time></trkpt><trkpt lat="45.9845113" lon="9.2948962"><ele>221.25</ele><time>2026-05-01T07:31:51.224Z</time></trkpt><trkpt lat="45.9846302" lon="9.2948491"><ele>219.5</ele><time>2026-05-01T07:31:52.226Z</time></trkpt><trkpt lat="45.9847619" lon="9.2947945"><ele>217.75</ele><time>2026-05-01T07:31:53.225Z</time></trkpt><trkpt lat="45.9848752" lon="9.2947488"><ele>216.0</ele><time>2026-05-01T07:31:54.22Z</time></trkpt><trkpt lat="45.9850006" lon="9.2947198"><ele>226.25</ele><time>2026-05-01T07:31:55.216Z</time></trkpt><trkpt lat="45.9851275" lon="9.2946403"><ele>236.5</ele><time>2026-05-01T07:31:56.213Z</time></trkpt><trkpt lat="45.9852178" lon="9.2945253"><ele>246.75</ele><time>2026-05-01T07:31:57.207Z</time></trkpt><trkpt lat="45.9852975" lon="9.2943018"><ele>257.0</ele><time>2026-05-01T07:31:58.219Z</time></trkpt><trkpt lat="45.9853964" lon="9.2940611"><ele>242.33333333333334</ele><time>2026-05-01T07:31:59.221Z</time></trkpt><trkpt lat="45.9854799" lon="9.2938192"><ele>227.66666666666669</ele><time>2026-05-01T07:32:00.22Z</time></trkpt><trkpt lat="45.9855767" lon="9.2936227"><ele>213.0</ele><time>2026-05-01T07:32:01.227Z</time></trkpt><trkpt lat="45.9856933" lon="9.2934664"><ele>213.0</ele><time>2026-05-01T07:32:02.221Z</time></trkpt><trkpt lat="45.9858062" lon="9.2932882"><ele>213.0</ele><time>2026-05-01T07:32:03.227Z</time></trkpt><trkpt lat="45.9859338" lon="9.2931571"><ele>213.0</ele><time>2026-05-01T07:32:04.23Z</time></trkpt><trkpt lat="45.9860583" lon="9.2930699"><ele>213.66666666666669</ele><time>2026-05-01T07:32:05.225Z</time></trkpt><trkpt lat="45.9861952" lon="9.2930229"><ele>214.33333333333334</ele><time>2026-05-01T07:32:06.225Z</time></trkpt><trkpt lat="45.9863366" lon="9.2929234"><ele>215.0</ele><time>2026-05-01T07:32:07.237Z</time></trkpt><trkpt lat="45.9864559" lon="9.2927849"><ele>215.0</ele><time>2026-05-01T07:32:08.214Z</time></trkpt><trkpt lat="45.986557" lon="9.2926704"><ele>215.0</ele><time>2026-05-01T07:32:09.224Z</time></trkpt><trkpt lat="45.9866444" lon="9.2925355"><ele>215.0</ele><time>2026-05-01T07:32:10.224Z</time></trkpt><trkpt lat="45.9867447" lon="9.2923799"><ele>215.0</ele><time>2026-05-01T07:32:11.223Z</time></trkpt><trkpt lat="45.9868504" lon="9.2922444"><ele>209.33333333333334</ele><time>2026-05-01T07:32:12.223Z</time></trkpt><trkpt lat="45.9869732" lon="9.2921619"><ele>203.66666666666669</ele><time>2026-05-01T07:32:13.222Z</time></trkpt><trkpt lat="45.9871312" lon="9.2921488"><ele>198.0</ele><time>2026-05-01T07:32:14.234Z</time></trkpt><trkpt lat="45.9873025" lon="9.2921825"><ele>198.0</ele><time>2026-05-01T07:32:15.223Z</time></trkpt><trkpt lat="45.9874501" lon="9.2921723"><ele>198.0</ele><time>2026-05-01T07:32:16.227Z</time></trkpt><trkpt lat="45.9875984" lon="9.2921889"><ele>198.0</ele><time>2026-05-01T07:32:17.227Z</time></trkpt><trkpt lat="45.9877684" lon="9.2921759"><ele>198.0</ele><time>2026-05-01T07:32:18.224Z</time></trkpt><trkpt lat="45.9879498" lon="9.2921787"><ele>198.0</ele><time>2026-05-01T07:32:19.22Z</time></trkpt><trkpt lat="45.9881819" lon="9.2922058"><ele>198.0</ele><time>2026-05-01T07:32:20.226Z</time></trkpt><trkpt lat="45.9884134" lon="9.2922076"><ele>198.0</ele><time>2026-05-01T07:32:21.226Z</time></trkpt><trkpt lat="45.9886539" lon="9.292192"><ele>198.0</ele><time>2026-05-01T07:32:22.232Z</time></trkpt><trkpt lat="45.9888476" lon="9.2921322"><ele>198.0</ele><time>2026-05-01T07:32:23.234Z</time></trkpt><trkpt lat="45.9890426" lon="9.2921171"><ele>198.33333333333331</ele><time>2026-05-01T07:32:24.224Z</time></trkpt><trkpt lat="45.9892282" lon="9.2921218"><ele>198.66666666666666</ele><time>2026-05-01T07:32:25.228Z</time></trkpt><trkpt lat="45.9894062" lon="9.2921478"><ele>199.0</ele><time>2026-05-01T07:32:26.221Z</time></trkpt><trkpt lat="45.9895804" lon="9.2921603"><ele>199.0</ele><time>2026-05-01T07:32:27.235Z</time></trkpt><trkpt lat="45.9897602" lon="9.2921852"><ele>199.0</ele><time>2026-05-01T07:32:28.233Z</time></trkpt><trkpt lat="45.989936" lon="9.2921853"><ele>199.0</ele><time>2026-05-01T07:32:29.232Z</time></trkpt><trkpt lat="45.9901121" lon="9.2921883"><ele>199.66666666666666</ele><time>2026-05-01T07:32:30.235Z</time></trkpt><trkpt lat="45.9903054" lon="9.2921462"><ele>200.33333333333331</ele><time>2026-05-01T07:32:31.236Z</time></trkpt><trkpt lat="45.990478" lon="9.292119"><ele>201.0</ele><time>2026-05-01T07:32:32.23Z</time></trkpt><trkpt lat="45.9906645" lon="9.292052"><ele>201.0</ele><time>2026-05-01T07:32:33.235Z</time></trkpt><trkpt lat="45.9908381" lon="9.2919695"><ele>201.0</ele><time>2026-05-01T07:32:34.234Z</time></trkpt><trkpt lat="45.9910278" lon="9.2919098"><ele>201.0</ele><time>2026-05-01T07:32:35.227Z</time></trkpt><trkpt lat="45.9912133" lon="9.2918536"><ele>202.33333333333331</ele><time>2026-05-01T07:32:36.23Z</time></trkpt><trkpt lat="45.9913921" lon="9.2918301"><ele>203.66666666666666</ele><time>2026-05-01T07:32:37.224Z</time></trkpt><trkpt lat="45.9915706" lon="9.2917892"><ele>205.0</ele><time>2026-05-01T07:32:38.226Z</time></trkpt><trkpt lat="45.9917546" lon="9.291711"><ele>208.33333333333331</ele><time>2026-05-01T07:32:39.246Z</time></trkpt><trkpt lat="45.9919388" lon="9.2916479"><ele>211.66666666666669</ele><time>2026-05-01T07:32:40.237Z</time></trkpt><trkpt lat="45.9921211" lon="9.2916017"><ele>215.0</ele><time>2026-05-01T07:32:41.241Z</time></trkpt><trkpt lat="45.9923017" lon="9.2915458"><ele>215.0</ele><time>2026-05-01T07:32:42.236Z</time></trkpt><trkpt lat="45.9924881" lon="9.2915071"><ele>215.0</ele><time>2026-05-01T07:32:43.238Z</time></trkpt><trkpt lat="45.9926677" lon="9.2914677"><ele>215.0</ele><time>2026-05-01T07:32:44.243Z</time></trkpt><trkpt lat="45.992851" lon="9.2914066"><ele>210.66666666666669</ele><time>2026-05-01T07:32:45.231Z</time></trkpt><trkpt lat="45.993021" lon="9.2913511"><ele>206.33333333333331</ele><time>2026-05-01T07:32:46.24Z</time></trkpt><trkpt lat="45.9931975" lon="9.2913286"><ele>202.0</ele><time>2026-05-01T07:32:47.233Z</time></trkpt><trkpt lat="45.9933577" lon="9.2912418"><ele>201.66666666666666</ele><time>2026-05-01T07:32:48.226Z</time></trkpt><trkpt lat="45.99352" lon="9.2911992"><ele>201.33333333333331</ele><time>2026-05-01T07:32:49.237Z</time></trkpt><trkpt lat="45.9936731" lon="9.2911821"><ele>201.0</ele><time>2026-05-01T07:32:50.232Z</time></trkpt><trkpt lat="45.9938258" lon="9.2911264"><ele>201.0</ele><time>2026-05-01T07:32:51.23Z</time></trkpt><trkpt lat="45.9939666" lon="9.2910924"><ele>201.0</ele><time>2026-05-01T07:32:52.323Z</time></trkpt><trkpt lat="45.9941123" lon="9.2910821"><ele>201.0</ele><time>2026-05-01T07:32:53.238Z</time></trkpt><trkpt lat="45.9942604" lon="9.2910428"><ele>201.0</ele><time>2026-05-01T07:32:54.392Z</time></trkpt><trkpt lat="45.9943977" lon="9.291034"><ele>200.5</ele><time>2026-05-01T07:32:55.391Z</time></trkpt><trkpt lat="45.9945085" lon="9.2910231"><ele>200.0</ele><time>2026-05-01T07:32:56.392Z</time></trkpt><trkpt lat="45.9946457" lon="9.2910651"><ele>199.5</ele><time>2026-05-01T07:32:57.475Z</time></trkpt><trkpt lat="45.9947809" lon="9.291134"><ele>199.0</ele><time>2026-05-01T07:32:58.551Z</time></trkpt><trkpt lat="45.9950864" lon="9.2912308"><ele>198.66666666666666</ele><time>2026-05-01T07:33:00.394Z</time></trkpt><trkpt lat="45.9952327" lon="9.2912838"><ele>198.33333333333331</ele><time>2026-05-01T07:33:01.549Z</time></trkpt><trkpt lat="45.9953971" lon="9.2913314"><ele>198.0</ele><time>2026-05-01T07:33:02.548Z</time></trkpt><trkpt lat="45.9955681" lon="9.2913759"><ele>198.0</ele><time>2026-05-01T07:33:03.549Z</time></trkpt><trkpt lat="45.995732" lon="9.2914148"><ele>198.0</ele><time>2026-05-01T07:33:04.548Z</time></trkpt><trkpt lat="45.9958878" lon="9.2914792"><ele>198.0</ele><time>2026-05-01T07:33:05.554Z</time></trkpt><trkpt lat="45.9960466" lon="9.2915171"><ele>199.33333333333331</ele><time>2026-05-01T07:33:06.489Z</time></trkpt><trkpt lat="45.9962905" lon="9.2915676"><ele>200.66666666666666</ele><time>2026-05-01T07:33:08.391Z</time></trkpt><trkpt lat="45.9964679" lon="9.2916227"><ele>202.0</ele><time>2026-05-01T07:33:09.386Z</time></trkpt><trkpt lat="45.9966667" lon="9.2917285"><ele>202.33333333333331</ele><time>2026-05-01T07:33:10.384Z</time></trkpt><trkpt lat="45.996836" lon="9.2918162"><ele>202.66666666666669</ele><time>2026-05-01T07:33:11.392Z</time></trkpt><trkpt lat="45.9970028" lon="9.2919063"><ele>203.0</ele><time>2026-05-01T07:33:12.549Z</time></trkpt><trkpt lat="45.9971481" lon="9.2920009"><ele>203.0</ele><time>2026-05-01T07:33:13.418Z</time></trkpt><trkpt lat="45.9973109" lon="9.29209"><ele>203.0</ele><time>2026-05-01T07:33:14.262Z</time></trkpt><trkpt lat="45.9974388" lon="9.2920344"><ele>203.0</ele><time>2026-05-01T07:33:15.246Z</time></trkpt><trkpt lat="45.9975768" lon="9.2921489"><ele>202.5</ele><time>2026-05-01T07:33:16.24Z</time></trkpt><trkpt lat="45.9977019" lon="9.2921783"><ele>202.0</ele><time>2026-05-01T07:33:17.231Z</time></trkpt><trkpt lat="45.9978136" lon="9.2922086"><ele>201.5</ele><time>2026-05-01T07:33:18.228Z</time></trkpt><trkpt lat="45.9979238" lon="9.292225"><ele>201.0</ele><time>2026-05-01T07:33:19.23Z</time></trkpt><trkpt lat="45.9980229" lon="9.2922351"><ele>201.0</ele><time>2026-05-01T07:33:20.245Z</time></trkpt><trkpt lat="45.9981368" lon="9.292244"><ele>201.0</ele><time>2026-05-01T07:33:21.247Z</time></trkpt><trkpt lat="45.9982538" lon="9.2922515"><ele>201.0</ele><time>2026-05-01T07:33:22.227Z</time></trkpt><trkpt lat="45.9983676" lon="9.2922388"><ele>201.0</ele><time>2026-05-01T07:33:23.228Z</time></trkpt><trkpt lat="45.9984904" lon="9.2922049"><ele>200.75</ele><time>2026-05-01T07:33:24.228Z</time></trkpt><trkpt lat="45.9986178" lon="9.2921688"><ele>200.5</ele><time>2026-05-01T07:33:25.226Z</time></trkpt><trkpt lat="45.9987472" lon="9.2921294"><ele>200.25</ele><time>2026-05-01T07:33:26.226Z</time></trkpt><trkpt lat="45.9988789" lon="9.2920842"><ele>200.0</ele><time>2026-05-01T07:33:27.228Z</time></trkpt><trkpt lat="45.9990227" lon="9.292036"><ele>200.0</ele><time>2026-05-01T07:33:28.227Z</time></trkpt><trkpt lat="45.9991633" lon="9.2920044"><ele>200.0</ele><time>2026-05-01T07:33:29.224Z</time></trkpt><trkpt lat="45.9993132" lon="9.2919776"><ele>200.0</ele><time>2026-05-01T07:33:30.222Z</time></trkpt><trkpt lat="45.9994516" lon="9.2919639"><ele>200.0</ele><time>2026-05-01T07:33:31.231Z</time></trkpt><trkpt lat="45.9996102" lon="9.2919181"><ele>200.66666666666669</ele><time>2026-05-01T07:33:32.23Z</time></trkpt><trkpt lat="45.9997731" lon="9.2918899"><ele>201.33333333333331</ele><time>2026-05-01T07:33:33.229Z</time></trkpt><trkpt lat="45.9999435" lon="9.2918665"><ele>202.0</ele><time>2026-05-01T07:33:34.228Z</time></trkpt><trkpt lat="46.0001052" lon="9.2918176"><ele>202.0</ele><time>2026-05-01T07:33:35.236Z</time></trkpt><trkpt lat="46.0002678" lon="9.2917703"><ele>202.0</ele><time>2026-05-01T07:33:36.311Z</time></trkpt><trkpt lat="46.0004239" lon="9.2917368"><ele>202.0</ele><time>2026-05-01T07:33:37.255Z</time></trkpt><trkpt lat="46.0005538" lon="9.2917272"><ele>202.0</ele><time>2026-05-01T07:33:38.233Z</time></trkpt><trkpt lat="46.0006792" lon="9.2916931"><ele>202.0</ele><time>2026-05-01T07:33:39.232Z</time></trkpt><trkpt lat="46.0008043" lon="9.2916597"><ele>202.0</ele><time>2026-05-01T07:33:40.228Z</time></trkpt><trkpt lat="46.0009485" lon="9.2916356"><ele>202.0</ele><time>2026-05-01T07:33:41.236Z</time></trkpt><trkpt lat="46.0010867" lon="9.2916623"><ele>202.25</ele><time>2026-05-01T07:33:42.237Z</time></trkpt><trkpt lat="46.0011996" lon="9.2917186"><ele>202.5</ele><time>2026-05-01T07:33:43.217Z</time></trkpt><trkpt lat="46.0013101" lon="9.2918195"><ele>202.75</ele><time>2026-05-01T07:33:44.251Z</time></trkpt><trkpt lat="46.0014244" lon="9.2919267"><ele>203.0</ele><time>2026-05-01T07:33:45.251Z</time></trkpt><trkpt lat="46.0015673" lon="9.292002"><ele>204.33333333333334</ele><time>2026-05-01T07:33:46.248Z</time></trkpt><trkpt lat="46.0017386" lon="9.2920306"><ele>205.66666666666669</ele><time>2026-05-01T07:33:47.266Z</time></trkpt><trkpt lat="46.0019091" lon="9.2920268"><ele>207.0</ele><time>2026-05-01T07:33:48.228Z</time></trkpt><trkpt lat="46.0020855" lon="9.2919945"><ele>207.0</ele><time>2026-05-01T07:33:49.23Z</time></trkpt><trkpt lat="46.0022455" lon="9.2919649"><ele>207.0</ele><time>2026-05-01T07:33:50.231Z</time></trkpt><trkpt lat="46.0023786" lon="9.2919927"><ele>207.0</ele><time>2026-05-01T07:33:51.228Z</time></trkpt><trkpt lat="46.0024923" lon="9.2920091"><ele>207.0</ele><time>2026-05-01T07:33:52.234Z</time></trkpt><trkpt lat="46.0025899" lon="9.2920374"><ele>206.8</ele><time>2026-05-01T07:33:53.223Z</time></trkpt><trkpt lat="46.0027243" lon="9.2920088"><ele>206.6</ele><time>2026-05-01T07:33:55.23Z</time></trkpt><trkpt lat="46.002809" lon="9.2919744"><ele>206.4</ele><time>2026-05-01T07:33:56.234Z</time></trkpt><trkpt lat="46.0028949" lon="9.2919408"><ele>206.20000000000002</ele><time>2026-05-01T07:33:57.224Z</time></trkpt><trkpt lat="46.0029972" lon="9.2919388"><ele>206.0</ele><time>2026-05-01T07:33:58.25Z</time></trkpt><trkpt lat="46.0031489" lon="9.2918925"><ele>206.0</ele><time>2026-05-01T07:33:59.228Z</time></trkpt><trkpt lat="46.0033046" lon="9.2918166"><ele>206.0</ele><time>2026-05-01T07:34:00.224Z</time></trkpt><trkpt lat="46.0034985" lon="9.2917337"><ele>206.0</ele><time>2026-05-01T07:34:01.23Z</time></trkpt><trkpt lat="46.0037016" lon="9.291604"><ele>209.0</ele><time>2026-05-01T07:34:02.246Z</time></trkpt><trkpt lat="46.0039159" lon="9.291471"><ele>212.0</ele><time>2026-05-01T07:34:03.221Z</time></trkpt><trkpt lat="46.004127" lon="9.2913565"><ele>208.66666666666669</ele><time>2026-05-01T07:34:04.228Z</time></trkpt><trkpt lat="46.0043059" lon="9.2913857"><ele>205.33333333333331</ele><time>2026-05-01T07:34:05.225Z</time></trkpt><trkpt lat="46.0044828" lon="9.2913737"><ele>202.0</ele><time>2026-05-01T07:34:06.227Z</time></trkpt><trkpt lat="46.0046186" lon="9.29138"><ele>202.0</ele><time>2026-05-01T07:34:07.225Z</time></trkpt><trkpt lat="46.0047526" lon="9.2913559"><ele>202.0</ele><time>2026-05-01T07:34:08.243Z</time></trkpt><trkpt lat="46.0049279" lon="9.2913629"><ele>202.0</ele><time>2026-05-01T07:34:09.249Z</time></trkpt><trkpt lat="46.0050836" lon="9.2913188"><ele>207.33333333333331</ele><time>2026-05-01T07:34:10.231Z</time></trkpt><trkpt lat="46.0052094" lon="9.2911979"><ele>212.66666666666669</ele><time>2026-05-01T07:34:11.231Z</time></trkpt><trkpt lat="46.0053424" lon="9.2910647"><ele>218.0</ele><time>2026-05-01T07:34:12.244Z</time></trkpt><trkpt lat="46.0054662" lon="9.2909129"><ele>218.0</ele><time>2026-05-01T07:34:13.249Z</time></trkpt><trkpt lat="46.00561" lon="9.29076"><ele>218.0</ele><time>2026-05-01T07:34:14.248Z</time></trkpt><trkpt lat="46.0057488" lon="9.290625"><ele>218.0</ele><time>2026-05-01T07:34:15.249Z</time></trkpt><trkpt lat="46.0058991" lon="9.2905096"><ele>217.75</ele><time>2026-05-01T07:34:16.223Z</time></trkpt><trkpt lat="46.0060034" lon="9.2904086"><ele>217.5</ele><time>2026-05-01T07:34:17.221Z</time></trkpt><trkpt lat="46.006112" lon="9.2902789"><ele>217.25</ele><time>2026-05-01T07:34:18.224Z</time></trkpt><trkpt lat="46.0062511" lon="9.2901677"><ele>217.0</ele><time>2026-05-01T07:34:19.209Z</time></trkpt><trkpt lat="46.0064002" lon="9.2900531"><ele>263.0</ele><time>2026-05-01T07:34:20.193Z</time></trkpt><trkpt lat="46.014991" lon="9.2884512"><ele>263.0</ele><time>2026-05-01T07:35:01.228Z</time></trkpt><trkpt lat="46.0151344" lon="9.2885314"><ele>263.0</ele><time>2026-05-01T07:35:02.218Z</time></trkpt><trkpt lat="46.0151294" lon="9.288398"><ele>263.0</ele><time>2026-05-01T07:35:03.204Z</time></trkpt><trkpt lat="46.0184866" lon="9.2876872"><ele>254.33333333333334</ele><time>2026-05-01T07:35:22.225Z</time></trkpt><trkpt lat="46.0185987" lon="9.287633"><ele>245.66666666666669</ele><time>2026-05-01T07:35:23.225Z</time></trkpt><trkpt lat="46.0187031" lon="9.2874672"><ele>237.0</ele><time>2026-05-01T07:35:24.234Z</time></trkpt><trkpt lat="46.0187924" lon="9.2872408"><ele>226.66666666666669</ele><time>2026-05-01T07:35:25.221Z</time></trkpt><trkpt lat="46.0188977" lon="9.2870732"><ele>216.33333333333334</ele><time>2026-05-01T07:35:26.226Z</time></trkpt><trkpt lat="46.0190268" lon="9.2869658"><ele>206.0</ele><time>2026-05-01T07:35:27.226Z</time></trkpt><trkpt lat="46.0191728" lon="9.2868681"><ele>206.0</ele><time>2026-05-01T07:35:28.23Z</time></trkpt><trkpt lat="46.0193092" lon="9.2868292"><ele>206.0</ele><time>2026-05-01T07:35:29.229Z</time></trkpt><trkpt lat="46.019445" lon="9.2867698"><ele>206.0</ele><time>2026-05-01T07:35:30.22Z</time></trkpt><trkpt lat="46.0195869" lon="9.2867725"><ele>206.0</ele><time>2026-05-01T07:35:31.222Z</time></trkpt><trkpt lat="46.0197214" lon="9.2867621"><ele>206.0</ele><time>2026-05-01T07:35:32.214Z</time></trkpt><trkpt lat="46.0198751" lon="9.286764"><ele>206.0</ele><time>2026-05-01T07:35:33.214Z</time></trkpt><trkpt lat="46.0200278" lon="9.2867557"><ele>206.0</ele><time>2026-05-01T07:35:34.195Z</time></trkpt><trkpt lat="46.0201776" lon="9.2867475"><ele>202.0</ele><time>2026-05-01T07:35:35.188Z</time></trkpt><trkpt lat="46.0203278" lon="9.2867388"><ele>198.0</ele><time>2026-05-01T07:35:36.177Z</time></trkpt><trkpt lat="46.0242941" lon="9.28461"><ele>198.0</ele><time>2026-05-01T07:36:04.221Z</time></trkpt><trkpt lat="46.024556" lon="9.2847939"><ele>198.0</ele><time>2026-05-01T07:36:05.216Z</time></trkpt><trkpt lat="46.0247308" lon="9.2846125"><ele>198.0</ele><time>2026-05-01T07:36:06.216Z</time></trkpt><trkpt lat="46.0248882" lon="9.2846264"><ele>198.0</ele><time>2026-05-01T07:36:07.211Z</time></trkpt><trkpt lat="46.0250635" lon="9.2845418"><ele>198.0</ele><time>2026-05-01T07:36:08.219Z</time></trkpt><trkpt lat="46.025205" lon="9.2844322"><ele>203.33333333333331</ele><time>2026-05-01T07:36:09.216Z</time></trkpt><trkpt lat="46.025358" lon="9.2843309"><ele>208.66666666666666</ele><time>2026-05-01T07:36:10.214Z</time></trkpt><trkpt lat="46.025534" lon="9.2842146"><ele>214.0</ele><time>2026-05-01T07:36:11.197Z</time></trkpt><trkpt lat="46.0257185" lon="9.2841401"><ele>213.0</ele><time>2026-05-01T07:36:12.204Z</time></trkpt><trkpt lat="46.0258578" lon="9.284045"><ele>212.0</ele><time>2026-05-01T07:36:13.191Z</time></trkpt><trkpt lat="46.0260388" lon="9.2839629"><ele>211.0</ele><time>2026-05-01T07:36:14.184Z</time></trkpt><trkpt lat="46.0262058" lon="9.2838649"><ele>211.0</ele><time>2026-05-01T07:36:15.184Z</time></trkpt><trkpt lat="46.0264487" lon="9.2839748"><ele>211.0</ele><time>2026-05-01T07:36:16.212Z</time></trkpt><trkpt lat="46.0265911" lon="9.2840133"><ele>211.0</ele><time>2026-05-01T07:36:17.217Z</time></trkpt><trkpt lat="46.0266808" lon="9.2841166"><ele>212.66666666666666</ele><time>2026-05-01T07:36:18.212Z</time></trkpt><trkpt lat="46.0267274" lon="9.2843193"><ele>214.33333333333331</ele><time>2026-05-01T07:36:19.22Z</time></trkpt><trkpt lat="46.026715" lon="9.2846561"><ele>216.0</ele><time>2026-05-01T07:36:20.224Z</time></trkpt><trkpt lat="46.0267294" lon="9.284963"><ele>216.0</ele><time>2026-05-01T07:36:21.226Z</time></trkpt><trkpt lat="46.0268066" lon="9.285195"><ele>216.0</ele><time>2026-05-01T07:36:22.227Z</time></trkpt><trkpt lat="46.0268974" lon="9.2853989"><ele>216.0</ele><time>2026-05-01T07:36:23.231Z</time></trkpt><trkpt lat="46.0270176" lon="9.2855732"><ele>228.66666666666669</ele><time>2026-05-01T07:36:24.27Z</time></trkpt><trkpt lat="46.0271367" lon="9.2857574"><ele>241.33333333333334</ele><time>2026-05-01T07:36:25.237Z</time></trkpt><trkpt lat="46.0272538" lon="9.2859508"><ele>254.0</ele><time>2026-05-01T07:36:26.24Z</time></trkpt><trkpt lat="46.0273744" lon="9.2861484"><ele>245.33333333333334</ele><time>2026-05-01T07:36:27.237Z</time></trkpt><trkpt lat="46.0275098" lon="9.2863135"><ele>236.66666666666669</ele><time>2026-05-01T07:36:28.234Z</time></trkpt><trkpt lat="46.0276423" lon="9.2864633"><ele>228.0</ele><time>2026-05-01T07:36:29.241Z</time></trkpt><trkpt lat="46.027764" lon="9.2866126"><ele>228.0</ele><time>2026-05-01T07:36:30.236Z</time></trkpt><trkpt lat="46.0278961" lon="9.2868194"><ele>228.0</ele><time>2026-05-01T07:36:31.243Z</time></trkpt><trkpt lat="46.0279901" lon="9.2869787"><ele>228.0</ele><time>2026-05-01T07:36:32.235Z</time></trkpt><trkpt lat="46.0280691" lon="9.2871876"><ele>234.66666666666669</ele><time>2026-05-01T07:36:33.242Z</time></trkpt><trkpt lat="46.0281143" lon="9.2874168"><ele>241.33333333333334</ele><time>2026-05-01T07:36:34.235Z</time></trkpt><trkpt lat="46.0281343" lon="9.2876487"><ele>248.0</ele><time>2026-05-01T07:36:35.231Z</time></trkpt><trkpt lat="46.0281922" lon="9.2878331"><ele>248.0</ele><time>2026-05-01T07:36:36.239Z</time></trkpt><trkpt lat="46.0283047" lon="9.2879644"><ele>248.0</ele><time>2026-05-01T07:36:37.235Z</time></trkpt><trkpt lat="46.0284457" lon="9.2880725"><ele>248.0</ele><time>2026-05-01T07:36:38.232Z</time></trkpt><trkpt lat="46.0285816" lon="9.2881494"><ele>241.66666666666669</ele><time>2026-05-01T07:36:39.235Z</time></trkpt><trkpt lat="46.0287169" lon="9.2882333"><ele>235.33333333333331</ele><time>2026-05-01T07:36:40.232Z</time></trkpt><trkpt lat="46.028886" lon="9.2883174"><ele>229.0</ele><time>2026-05-01T07:36:41.233Z</time></trkpt><trkpt lat="46.029033" lon="9.2884643"><ele>227.66666666666666</ele><time>2026-05-01T07:36:42.234Z</time></trkpt><trkpt lat="46.0291896" lon="9.2886266"><ele>226.33333333333331</ele><time>2026-05-01T07:36:43.233Z</time></trkpt><trkpt lat="46.0293155" lon="9.2888079"><ele>225.0</ele><time>2026-05-01T07:36:44.234Z</time></trkpt><trkpt lat="46.0294595" lon="9.2889753"><ele>225.0</ele><time>2026-05-01T07:36:45.24Z</time></trkpt><trkpt lat="46.0296027" lon="9.2891452"><ele>225.0</ele><time>2026-05-01T07:36:46.239Z</time></trkpt><trkpt lat="46.0297277" lon="9.2893181"><ele>225.0</ele><time>2026-05-01T07:36:47.237Z</time></trkpt><trkpt lat="46.0298329" lon="9.2894439"><ele>225.0</ele><time>2026-05-01T07:36:48.255Z</time></trkpt><trkpt lat="46.0299459" lon="9.2895667"><ele>225.0</ele><time>2026-05-01T07:36:49.246Z</time></trkpt><trkpt lat="46.0300681" lon="9.2897162"><ele>225.0</ele><time>2026-05-01T07:36:50.237Z</time></trkpt><trkpt lat="46.0301546" lon="9.2898992"><ele>223.66666666666669</ele><time>2026-05-01T07:36:51.239Z</time></trkpt><trkpt lat="46.0302414" lon="9.2900806"><ele>222.33333333333334</ele><time>2026-05-01T07:36:52.241Z</time></trkpt><trkpt lat="46.0303262" lon="9.2902502"><ele>221.0</ele><time>2026-05-01T07:36:53.244Z</time></trkpt><trkpt lat="46.0304044" lon="9.2904578"><ele>227.33333333333334</ele><time>2026-05-01T07:36:54.244Z</time></trkpt><trkpt lat="46.0304699" lon="9.2906682"><ele>233.66666666666669</ele><time>2026-05-01T07:36:55.239Z</time></trkpt><trkpt lat="46.0304809" lon="9.2909098"><ele>240.0</ele><time>2026-05-01T07:36:56.243Z</time></trkpt><trkpt lat="46.0304884" lon="9.291162"><ele>240.0</ele><time>2026-05-01T07:36:57.237Z</time></trkpt><trkpt lat="46.0305099" lon="9.2913963"><ele>240.0</ele><time>2026-05-01T07:36:58.241Z</time></trkpt><trkpt lat="46.0305425" lon="9.2916318"><ele>240.0</ele><time>2026-05-01T07:36:59.241Z</time></trkpt><trkpt lat="46.0305448" lon="9.291869"><ele>236.66666666666669</ele><time>2026-05-01T07:37:00.234Z</time></trkpt><trkpt lat="46.0306154" lon="9.292088"><ele>233.33333333333334</ele><time>2026-05-01T07:37:01.243Z</time></trkpt><trkpt lat="46.0307167" lon="9.2922828"><ele>230.0</ele><time>2026-05-01T07:37:02.233Z</time></trkpt><trkpt lat="46.0308225" lon="9.2924815"><ele>230.0</ele><time>2026-05-01T07:37:03.235Z</time></trkpt><trkpt lat="46.0309328" lon="9.2926919"><ele>230.0</ele><time>2026-05-01T07:37:04.236Z</time></trkpt><trkpt lat="46.0310559" lon="9.2928955"><ele>230.0</ele><time>2026-05-01T07:37:05.231Z</time></trkpt><trkpt lat="46.0311936" lon="9.2930751"><ele>236.66666666666669</ele><time>2026-05-01T07:37:06.238Z</time></trkpt><trkpt lat="46.0313292" lon="9.2932276"><ele>243.33333333333331</ele><time>2026-05-01T07:37:07.242Z</time></trkpt><trkpt lat="46.0314767" lon="9.2933878"><ele>250.0</ele><time>2026-05-01T07:37:08.241Z</time></trkpt><trkpt lat="46.0316191" lon="9.2935591"><ele>244.33333333333331</ele><time>2026-05-01T07:37:09.245Z</time></trkpt><trkpt lat="46.0317267" lon="9.2937333"><ele>238.66666666666669</ele><time>2026-05-01T07:37:10.233Z</time></trkpt><trkpt lat="46.0318411" lon="9.2939595"><ele>233.0</ele><time>2026-05-01T07:37:11.237Z</time></trkpt><trkpt lat="46.0319456" lon="9.2942021"><ele>233.0</ele><time>2026-05-01T07:37:12.235Z</time></trkpt><trkpt lat="46.0320717" lon="9.2943997"><ele>233.0</ele><time>2026-05-01T07:37:13.24Z</time></trkpt><trkpt lat="46.032208" lon="9.2945977"><ele>233.0</ele><time>2026-05-01T07:37:14.239Z</time></trkpt><trkpt lat="46.0323273" lon="9.2948186"><ele>232.66666666666669</ele><time>2026-05-01T07:37:15.241Z</time></trkpt><trkpt lat="46.032437" lon="9.2950145"><ele>232.33333333333331</ele><time>2026-05-01T07:37:16.231Z</time></trkpt><trkpt lat="46.032549" lon="9.2952874"><ele>232.0</ele><time>2026-05-01T07:37:17.228Z</time></trkpt><trkpt lat="46.0326476" lon="9.29552"><ele>251.0</ele><time>2026-05-01T07:37:18.225Z</time></trkpt><trkpt lat="46.032734" lon="9.2958006"><ele>270.0</ele><time>2026-05-01T07:37:19.215Z</time></trkpt><trkpt lat="46.0329904" lon="9.2960258"><ele>270.0</ele><time>2026-05-01T07:37:20.218Z</time></trkpt><trkpt lat="46.0331323" lon="9.2961999"><ele>270.0</ele><time>2026-05-01T07:37:21.219Z</time></trkpt><trkpt lat="46.0332003" lon="9.2963421"><ele>270.0</ele><time>2026-05-01T07:37:22.281Z</time></trkpt><trkpt lat="46.0333213" lon="9.2964822"><ele>263.3333333333333</ele><time>2026-05-01T07:37:23.227Z</time></trkpt><trkpt lat="46.0334933" lon="9.2966368"><ele>256.66666666666663</ele><time>2026-05-01T07:37:24.233Z</time></trkpt><trkpt lat="46.033584" lon="9.296887"><ele>250.0</ele><time>2026-05-01T07:37:25.228Z</time></trkpt><trkpt lat="46.0337214" lon="9.297109"><ele>259.0</ele><time>2026-05-01T07:37:26.233Z</time></trkpt><trkpt lat="46.0338674" lon="9.2973358"><ele>268.0</ele><time>2026-05-01T07:37:27.228Z</time></trkpt><trkpt lat="46.0340282" lon="9.2975257"><ele>277.0</ele><time>2026-05-01T07:37:28.234Z</time></trkpt><trkpt lat="46.0341406" lon="9.2977275"><ele>269.0</ele><time>2026-05-01T07:37:29.236Z</time></trkpt><trkpt lat="46.0342598" lon="9.2979867"><ele>261.0</ele><time>2026-05-01T07:37:30.234Z</time></trkpt><trkpt lat="46.0344" lon="9.2982104"><ele>253.0</ele><time>2026-05-01T07:37:31.249Z</time></trkpt><trkpt lat="46.0345507" lon="9.2983559"><ele>253.0</ele><time>2026-05-01T07:37:32.222Z</time></trkpt><trkpt lat="46.0347133" lon="9.2984763"><ele>253.0</ele><time>2026-05-01T07:37:33.223Z</time></trkpt><trkpt lat="46.0348579" lon="9.2986022"><ele>253.0</ele><time>2026-05-01T07:37:34.22Z</time></trkpt><trkpt lat="46.0349994" lon="9.2987606"><ele>248.5</ele><time>2026-05-01T07:37:35.219Z</time></trkpt><trkpt lat="46.0350577" lon="9.2989414"><ele>244.0</ele><time>2026-05-01T07:37:36.222Z</time></trkpt><trkpt lat="46.0350999" lon="9.299124"><ele>239.5</ele><time>2026-05-01T07:37:37.219Z</time></trkpt><trkpt lat="46.0351862" lon="9.2992552"><ele>235.0</ele><time>2026-05-01T07:37:38.213Z</time></trkpt><trkpt lat="46.0353064" lon="9.2993451"><ele>235.0</ele><time>2026-05-01T07:37:39.22Z</time></trkpt><trkpt lat="46.0354233" lon="9.2994094"><ele>235.0</ele><time>2026-05-01T07:37:40.222Z</time></trkpt><trkpt lat="46.035558" lon="9.2994231"><ele>235.0</ele><time>2026-05-01T07:37:41.229Z</time></trkpt><trkpt lat="46.0356337" lon="9.2994235"><ele>235.0</ele><time>2026-05-01T07:37:42.231Z</time></trkpt><trkpt lat="46.0357147" lon="9.2994347"><ele>235.0</ele><time>2026-05-01T07:37:43.23Z</time></trkpt><trkpt lat="46.0358375" lon="9.2994253"><ele>230.66666666666666</ele><time>2026-05-01T07:37:45.236Z</time></trkpt><trkpt lat="46.0359086" lon="9.2994272"><ele>226.33333333333331</ele><time>2026-05-01T07:37:46.236Z</time></trkpt><trkpt lat="46.0359857" lon="9.2994203"><ele>222.0</ele><time>2026-05-01T07:37:47.232Z</time></trkpt><trkpt lat="46.0360717" lon="9.2994175"><ele>217.66666666666669</ele><time>2026-05-01T07:37:48.233Z</time></trkpt><trkpt lat="46.0361654" lon="9.2994482"><ele>213.33333333333334</ele><time>2026-05-01T07:37:49.228Z</time></trkpt><trkpt lat="46.0362496" lon="9.299503"><ele>209.0</ele><time>2026-05-01T07:37:50.229Z</time></trkpt><trkpt lat="46.0363318" lon="9.2995708"><ele>209.0</ele><time>2026-05-01T07:37:51.23Z</time></trkpt><trkpt lat="46.0364203" lon="9.2996575"><ele>209.0</ele><time>2026-05-01T07:37:52.224Z</time></trkpt><trkpt lat="46.0365227" lon="9.2997497"><ele>209.0</ele><time>2026-05-01T07:37:53.235Z</time></trkpt><trkpt lat="46.0366354" lon="9.2998516"><ele>209.0</ele><time>2026-05-01T07:37:54.239Z</time></trkpt><trkpt lat="46.0367386" lon="9.2999532"><ele>210.25</ele><time>2026-05-01T07:37:55.238Z</time></trkpt><trkpt lat="46.0368422" lon="9.3000548"><ele>211.5</ele><time>2026-05-01T07:37:56.239Z</time></trkpt><trkpt lat="46.0369496" lon="9.3001561"><ele>212.75</ele><time>2026-05-01T07:37:57.234Z</time></trkpt><trkpt lat="46.0370552" lon="9.3002486"><ele>214.0</ele><time>2026-05-01T07:37:58.229Z</time></trkpt><trkpt lat="46.0371619" lon="9.3003316"><ele>214.0</ele><time>2026-05-01T07:37:59.295Z</time></trkpt><trkpt lat="46.0372639" lon="9.300409"><ele>213.99999999999997</ele><time>2026-05-01T07:38:00.226Z</time></trkpt><trkpt lat="46.037355" lon="9.3004884"><ele>213.99999999999997</ele><time>2026-05-01T07:38:01.231Z</time></trkpt><trkpt lat="46.0374389" lon="9.3005691"><ele>214.0</ele><time>2026-05-01T07:38:02.229Z</time></trkpt><trkpt lat="46.0375099" lon="9.3006481"><ele>214.0</ele><time>2026-05-01T07:38:03.222Z</time></trkpt><trkpt lat="46.0375717" lon="9.3007309"><ele>214.79999999999998</ele><time>2026-05-01T07:38:04.231Z</time></trkpt><trkpt lat="46.0376234" lon="9.3008428"><ele>215.59999999999997</ele><time>2026-05-01T07:38:05.307Z</time></trkpt><trkpt lat="46.037667" lon="9.3009739"><ele>216.4</ele><time>2026-05-01T07:38:06.221Z</time></trkpt><trkpt lat="46.0377014" lon="9.3011117"><ele>217.2</ele><time>2026-05-01T07:38:07.224Z</time></trkpt><trkpt lat="46.0377319" lon="9.3012599"><ele>218.0</ele><time>2026-05-01T07:38:08.227Z</time></trkpt><trkpt lat="46.0377674" lon="9.3014045"><ele>223.0</ele><time>2026-05-01T07:38:09.224Z</time></trkpt><trkpt lat="46.0378003" lon="9.3015538"><ele>228.0</ele><time>2026-05-01T07:38:10.237Z</time></trkpt><trkpt lat="46.0378432" lon="9.3017002"><ele>233.0</ele><time>2026-05-01T07:38:11.226Z</time></trkpt><trkpt lat="46.0378883" lon="9.3018544"><ele>238.0</ele><time>2026-05-01T07:38:12.226Z</time></trkpt><trkpt lat="46.0379477" lon="9.3019934"><ele>243.0</ele><time>2026-05-01T07:38:13.231Z</time></trkpt><trkpt lat="46.0380143" lon="9.3021093"><ele>243.0</ele><time>2026-05-01T07:38:14.227Z</time></trkpt><trkpt lat="46.0380854" lon="9.3022037"><ele>243.0</ele><time>2026-05-01T07:38:15.278Z</time></trkpt><trkpt lat="46.0381674" lon="9.3022684"><ele>243.0</ele><time>2026-05-01T07:38:16.27Z</time></trkpt><trkpt lat="46.0382539" lon="9.3023074"><ele>243.0</ele><time>2026-05-01T07:38:17.225Z</time></trkpt><trkpt lat="46.0383483" lon="9.3023188"><ele>243.0</ele><time>2026-05-01T07:38:18.225Z</time></trkpt><trkpt lat="46.038457" lon="9.3023139"><ele>239.4</ele><time>2026-05-01T07:38:19.226Z</time></trkpt><trkpt lat="46.0385697" lon="9.302314"><ele>235.8</ele><time>2026-05-01T07:38:20.225Z</time></trkpt><trkpt lat="46.0386876" lon="9.3023168"><ele>232.2</ele><time>2026-05-01T07:38:21.229Z</time></trkpt><trkpt lat="46.0387994" lon="9.3023201"><ele>228.6</ele><time>2026-05-01T07:38:22.23Z</time></trkpt><trkpt lat="46.0388981" lon="9.3023093"><ele>225.0</ele><time>2026-05-01T07:38:23.235Z</time></trkpt><trkpt lat="46.0389809" lon="9.302296"><ele>225.0</ele><time>2026-05-01T07:38:24.226Z</time></trkpt><trkpt lat="46.0390508" lon="9.3022812"><ele>225.0</ele><time>2026-05-01T07:38:25.223Z</time></trkpt><trkpt lat="46.0391537" lon="9.3022692"><ele>225.0</ele><time>2026-05-01T07:38:27.227Z</time></trkpt><trkpt lat="46.0392454" lon="9.3022723"><ele>225.0</ele><time>2026-05-01T07:38:29.241Z</time></trkpt><trkpt lat="46.0393391" lon="9.3022822"><ele>225.0</ele><time>2026-05-01T07:38:31.24Z</time></trkpt><trkpt lat="46.0394752" lon="9.3023015"><ele>222.83333333333334</ele><time>2026-05-01T07:38:33.237Z</time></trkpt><trkpt lat="46.0395529" lon="9.3023198"><ele>220.66666666666669</ele><time>2026-05-01T07:38:34.228Z</time></trkpt><trkpt lat="46.039634" lon="9.3023163"><ele>218.5</ele><time>2026-05-01T07:38:35.233Z</time></trkpt><trkpt lat="46.0397194" lon="9.3023343"><ele>216.33333333333334</ele><time>2026-05-01T07:38:36.223Z</time></trkpt><trkpt lat="46.0398066" lon="9.3023309"><ele>214.16666666666669</ele><time>2026-05-01T07:38:37.236Z</time></trkpt><trkpt lat="46.0399046" lon="9.302315"><ele>212.0</ele><time>2026-05-01T07:38:38.227Z</time></trkpt><trkpt lat="46.039996" lon="9.3023238"><ele>211.16666666666669</ele><time>2026-05-01T07:38:39.226Z</time></trkpt><trkpt lat="46.0400857" lon="9.3023084"><ele>210.33333333333334</ele><time>2026-05-01T07:38:40.228Z</time></trkpt><trkpt lat="46.0401694" lon="9.3022956"><ele>209.5</ele><time>2026-05-01T07:38:41.23Z</time></trkpt><trkpt lat="46.0402475" lon="9.302279"><ele>208.66666666666669</ele><time>2026-05-01T07:38:42.25Z</time></trkpt><trkpt lat="46.0403145" lon="9.3022682"><ele>207.83333333333334</ele><time>2026-05-01T07:38:43.255Z</time></trkpt><trkpt lat="46.0403781" lon="9.3022637"><ele>207.0</ele><time>2026-05-01T07:38:44.228Z</time></trkpt><trkpt lat="46.0405112" lon="9.30227"><ele>207.0</ele><time>2026-05-01T07:38:46.25Z</time></trkpt><trkpt lat="46.0405832" lon="9.3022682"><ele>207.0</ele><time>2026-05-01T07:38:47.248Z</time></trkpt><trkpt lat="46.0406518" lon="9.3022656"><ele>207.0</ele><time>2026-05-01T07:38:48.256Z</time></trkpt><trkpt lat="46.040719" lon="9.3022655"><ele>207.0</ele><time>2026-05-01T07:38:49.25Z</time></trkpt><trkpt lat="46.0407879" lon="9.302268"><ele>207.0</ele><time>2026-05-01T07:38:50.227Z</time></trkpt><trkpt lat="46.0408529" lon="9.3022741"><ele>207.0</ele><time>2026-05-01T07:38:51.228Z</time></trkpt><trkpt lat="46.040968" lon="9.3022807"><ele>207.0</ele><time>2026-05-01T07:38:53.228Z</time></trkpt><trkpt lat="46.0410435" lon="9.3022987"><ele>207.0</ele><time>2026-05-01T07:38:55.26Z</time></trkpt><trkpt lat="46.041146" lon="9.3023086"><ele>207.0</ele><time>2026-05-01T07:38:57.24Z</time></trkpt><trkpt lat="46.0412924" lon="9.302304"><ele>207.0</ele><time>2026-05-01T07:38:59.387Z</time></trkpt><trkpt lat="46.0415177" lon="9.3022964"><ele>207.0</ele><time>2026-05-01T07:39:01.235Z</time></trkpt><trkpt lat="46.0416312" lon="9.3023044"><ele>207.0</ele><time>2026-05-01T07:39:02.229Z</time></trkpt><trkpt lat="46.0417372" lon="9.3023105"><ele>207.0</ele><time>2026-05-01T07:39:03.225Z</time></trkpt><trkpt lat="46.0418374" lon="9.3023225"><ele>207.0</ele><time>2026-05-01T07:39:04.222Z</time></trkpt><trkpt lat="46.0419388" lon="9.3023452"><ele>207.0</ele><time>2026-05-01T07:39:05.24Z</time></trkpt><trkpt lat="46.0420392" lon="9.3023598"><ele>207.0</ele><time>2026-05-01T07:39:06.272Z</time></trkpt><trkpt lat="46.0421354" lon="9.3023466"><ele>207.0</ele><time>2026-05-01T07:39:07.229Z</time></trkpt><trkpt lat="46.0422299" lon="9.3023346"><ele>207.0</ele><time>2026-05-01T07:39:08.227Z</time></trkpt><trkpt lat="46.0423323" lon="9.3023124"><ele>207.0</ele><time>2026-05-01T07:39:09.229Z</time></trkpt><trkpt lat="46.0424335" lon="9.3022913"><ele>207.0</ele><time>2026-05-01T07:39:10.223Z</time></trkpt><trkpt lat="46.0425349" lon="9.3023065"><ele>207.39999999999998</ele><time>2026-05-01T07:39:11.225Z</time></trkpt><trkpt lat="46.0426382" lon="9.3023201"><ele>207.79999999999998</ele><time>2026-05-01T07:39:12.233Z</time></trkpt><trkpt lat="46.0427313" lon="9.3023312"><ele>208.2</ele><time>2026-05-01T07:39:13.227Z</time></trkpt><trkpt lat="46.0428264" lon="9.3023308"><ele>208.6</ele><time>2026-05-01T07:39:14.23Z</time></trkpt><trkpt lat="46.04292" lon="9.3023233"><ele>209.0</ele><time>2026-05-01T07:39:15.233Z</time></trkpt><trkpt lat="46.0430128" lon="9.3023181"><ele>209.0</ele><time>2026-05-01T07:39:16.238Z</time></trkpt><trkpt lat="46.0431064" lon="9.3023126"><ele>209.0</ele><time>2026-05-01T07:39:17.254Z</time></trkpt><trkpt lat="46.0432006" lon="9.3023119"><ele>209.0</ele><time>2026-05-01T07:39:18.243Z</time></trkpt><trkpt lat="46.0432921" lon="9.3023074"><ele>209.0</ele><time>2026-05-01T07:39:19.227Z</time></trkpt><trkpt lat="46.0433809" lon="9.3023083"><ele>209.0</ele><time>2026-05-01T07:39:20.245Z</time></trkpt><trkpt lat="46.0434709" lon="9.3023281"><ele>209.39999999999998</ele><time>2026-05-01T07:39:21.221Z</time></trkpt><trkpt lat="46.0435632" lon="9.3023688"><ele>209.8</ele><time>2026-05-01T07:39:22.225Z</time></trkpt><trkpt lat="46.0436438" lon="9.3024326"><ele>210.2</ele><time>2026-05-01T07:39:23.215Z</time></trkpt><trkpt lat="46.0437314" lon="9.3024977"><ele>210.60000000000002</ele><time>2026-05-01T07:39:24.238Z</time></trkpt><trkpt lat="46.0438187" lon="9.3025654"><ele>211.0</ele><time>2026-05-01T07:39:25.238Z</time></trkpt><trkpt lat="46.0438848" lon="9.3026704"><ele>211.0</ele><time>2026-05-01T07:39:26.25Z</time></trkpt><trkpt lat="46.0439513" lon="9.3027822"><ele>211.0</ele><time>2026-05-01T07:39:27.27Z</time></trkpt><trkpt lat="46.0440174" lon="9.3028891"><ele>211.0</ele><time>2026-05-01T07:39:28.265Z</time></trkpt><trkpt lat="46.0440923" lon="9.3029996"><ele>211.0</ele><time>2026-05-01T07:39:29.272Z</time></trkpt><trkpt lat="46.044167" lon="9.303106"><ele>211.0</ele><time>2026-05-01T07:39:30.271Z</time></trkpt><trkpt lat="46.0442402" lon="9.3031944"><ele>210.4</ele><time>2026-05-01T07:39:31.268Z</time></trkpt><trkpt lat="46.0443143" lon="9.3032854"><ele>209.8</ele><time>2026-05-01T07:39:32.28Z</time></trkpt><trkpt lat="46.0443899" lon="9.3033779"><ele>209.20000000000002</ele><time>2026-05-01T07:39:33.271Z</time></trkpt><trkpt lat="46.0444633" lon="9.3034707"><ele>208.60000000000002</ele><time>2026-05-01T07:39:34.269Z</time></trkpt><trkpt lat="46.044533" lon="9.303563"><ele>208.0</ele><time>2026-05-01T07:39:35.25Z</time></trkpt><trkpt lat="46.0445979" lon="9.3036525"><ele>207.99999999999997</ele><time>2026-05-01T07:39:36.252Z</time></trkpt><trkpt lat="46.0446576" lon="9.3037367"><ele>208.0</ele><time>2026-05-01T07:39:37.223Z</time></trkpt><trkpt lat="46.0447179" lon="9.3038211"><ele>208.0</ele><time>2026-05-01T07:39:38.231Z</time></trkpt><trkpt lat="46.0447829" lon="9.3039056"><ele>208.0</ele><time>2026-05-01T07:39:39.222Z</time></trkpt><trkpt lat="46.0448456" lon="9.3040014"><ele>207.99999999999997</ele><time>2026-05-01T07:39:40.215Z</time></trkpt><trkpt lat="46.044908" lon="9.3041064"><ele>208.0</ele><time>2026-05-01T07:39:41.223Z</time></trkpt><trkpt lat="46.0449572" lon="9.3042138"><ele>208.33333333333331</ele><time>2026-05-01T07:39:42.228Z</time></trkpt><trkpt lat="46.0450058" lon="9.3043097"><ele>208.66666666666666</ele><time>2026-05-01T07:39:43.234Z</time></trkpt><trkpt lat="46.0450579" lon="9.3043992"><ele>209.0</ele><time>2026-05-01T07:39:44.234Z</time></trkpt><trkpt lat="46.0451048" lon="9.3044896"><ele>209.33333333333331</ele><time>2026-05-01T07:39:45.235Z</time></trkpt><trkpt lat="46.045146" lon="9.3045784"><ele>209.66666666666666</ele><time>2026-05-01T07:39:46.248Z</time></trkpt><trkpt lat="46.0451836" lon="9.3046614"><ele>210.0</ele><time>2026-05-01T07:39:47.231Z</time></trkpt><trkpt lat="46.0452167" lon="9.304756"><ele>210.0</ele><time>2026-05-01T07:39:48.236Z</time></trkpt><trkpt lat="46.0452502" lon="9.3048539"><ele>210.0</ele><time>2026-05-01T07:39:49.235Z</time></trkpt><trkpt lat="46.0452805" lon="9.3049403"><ele>210.0</ele><time>2026-05-01T07:39:50.233Z</time></trkpt><trkpt lat="46.0453525" lon="9.3051138"><ele>210.0</ele><time>2026-05-01T07:39:52.233Z</time></trkpt><trkpt lat="46.045397" lon="9.3052403"><ele>210.0</ele><time>2026-05-01T07:39:53.228Z</time></trkpt><trkpt lat="46.0454676" lon="9.3053877"><ele>210.0</ele><time>2026-05-01T07:39:54.256Z</time></trkpt><trkpt lat="46.0455506" lon="9.3055062"><ele>210.0</ele><time>2026-05-01T07:39:55.247Z</time></trkpt><trkpt lat="46.0456476" lon="9.3056009"><ele>210.0</ele><time>2026-05-01T07:39:56.24Z</time></trkpt><trkpt lat="46.0457673" lon="9.3056731"><ele>210.0</ele><time>2026-05-01T07:39:57.244Z</time></trkpt><trkpt lat="46.0459184" lon="9.3057157"><ele>207.66666666666669</ele><time>2026-05-01T07:39:58.242Z</time></trkpt><trkpt lat="46.0460973" lon="9.305738"><ele>205.33333333333334</ele><time>2026-05-01T07:39:59.266Z</time></trkpt><trkpt lat="46.0463342" lon="9.3056559"><ele>203.0</ele><time>2026-05-01T07:40:00.261Z</time></trkpt><trkpt lat="46.0465113" lon="9.3055421"><ele>203.0</ele><time>2026-05-01T07:40:01.231Z</time></trkpt><trkpt lat="46.0466725" lon="9.3054591"><ele>203.0</ele><time>2026-05-01T07:40:02.215Z</time></trkpt><trkpt lat="46.0468406" lon="9.3053916"><ele>203.0</ele><time>2026-05-01T07:40:03.211Z</time></trkpt><trkpt lat="46.0470027" lon="9.3053747"><ele>203.0</ele><time>2026-05-01T07:40:04.215Z</time></trkpt><trkpt lat="46.0471467" lon="9.3054454"><ele>203.0</ele><time>2026-05-01T07:40:05.22Z</time></trkpt><trkpt lat="46.0473023" lon="9.30555"><ele>203.0</ele><time>2026-05-01T07:40:06.219Z</time></trkpt><trkpt lat="46.0474349" lon="9.3056637"><ele>205.5</ele><time>2026-05-01T07:40:07.229Z</time></trkpt><trkpt lat="46.0475495" lon="9.3057494"><ele>208.0</ele><time>2026-05-01T07:40:08.222Z</time></trkpt><trkpt lat="46.0476311" lon="9.3059299"><ele>210.5</ele><time>2026-05-01T07:40:09.223Z</time></trkpt><trkpt lat="46.0476789" lon="9.3061044"><ele>213.0</ele><time>2026-05-01T07:40:10.224Z</time></trkpt><trkpt lat="46.0477487" lon="9.3063023"><ele>219.0</ele><time>2026-05-01T07:40:11.229Z</time></trkpt><trkpt lat="46.0478175" lon="9.3065197"><ele>225.0</ele><time>2026-05-01T07:40:12.226Z</time></trkpt><trkpt lat="46.0479004" lon="9.3067237"><ele>231.0</ele><time>2026-05-01T07:40:13.221Z</time></trkpt><trkpt lat="46.0480027" lon="9.3068919"><ele>231.0</ele><time>2026-05-01T07:40:14.221Z</time></trkpt><trkpt lat="46.0481174" lon="9.3070288"><ele>231.0</ele><time>2026-05-01T07:40:15.213Z</time></trkpt><trkpt lat="46.0482567" lon="9.3071268"><ele>231.0</ele><time>2026-05-01T07:40:16.237Z</time></trkpt><trkpt lat="46.0484142" lon="9.3072033"><ele>228.0</ele><time>2026-05-01T07:40:17.217Z</time></trkpt><trkpt lat="46.0485929" lon="9.3072718"><ele>225.0</ele><time>2026-05-01T07:40:18.217Z</time></trkpt><trkpt lat="46.0487552" lon="9.3073574"><ele>222.0</ele><time>2026-05-01T07:40:19.215Z</time></trkpt><trkpt lat="46.0489322" lon="9.307418"><ele>222.0</ele><time>2026-05-01T07:40:20.216Z</time></trkpt><trkpt lat="46.0490975" lon="9.3075015"><ele>222.0</ele><time>2026-05-01T07:40:21.219Z</time></trkpt><trkpt lat="46.0492459" lon="9.3076007"><ele>222.0</ele><time>2026-05-01T07:40:22.238Z</time></trkpt><trkpt lat="46.0493689" lon="9.3077788"><ele>222.0</ele><time>2026-05-01T07:40:23.238Z</time></trkpt><trkpt lat="46.0494789" lon="9.3079639"><ele>222.0</ele><time>2026-05-01T07:40:24.245Z</time></trkpt><trkpt lat="46.0495843" lon="9.3081391"><ele>222.0</ele><time>2026-05-01T07:40:25.242Z</time></trkpt><trkpt lat="46.0496966" lon="9.3083267"><ele>222.0</ele><time>2026-05-01T07:40:26.22Z</time></trkpt><trkpt lat="46.0497961" lon="9.3085397"><ele>222.0</ele><time>2026-05-01T07:40:27.245Z</time></trkpt><trkpt lat="46.0498898" lon="9.308734"><ele>222.0</ele><time>2026-05-01T07:40:28.217Z</time></trkpt><trkpt lat="46.0499873" lon="9.3089309"><ele>219.0</ele><time>2026-05-01T07:40:29.23Z</time></trkpt><trkpt lat="46.0500704" lon="9.3091372"><ele>216.0</ele><time>2026-05-01T07:40:30.304Z</time></trkpt><trkpt lat="46.0501676" lon="9.3093361"><ele>213.0</ele><time>2026-05-01T07:40:31.245Z</time></trkpt><trkpt lat="46.050283" lon="9.3095331"><ele>213.0</ele><time>2026-05-01T07:40:32.246Z</time></trkpt><trkpt lat="46.0503941" lon="9.3097"><ele>213.0</ele><time>2026-05-01T07:40:33.25Z</time></trkpt><trkpt lat="46.0505088" lon="9.3098357"><ele>213.0</ele><time>2026-05-01T07:40:34.224Z</time></trkpt><trkpt lat="46.0506041" lon="9.309981"><ele>213.0</ele><time>2026-05-01T07:40:35.224Z</time></trkpt><trkpt lat="46.0507105" lon="9.3101217"><ele>212.0</ele><time>2026-05-01T07:40:36.226Z</time></trkpt><trkpt lat="46.0507962" lon="9.3102408"><ele>211.0</ele><time>2026-05-01T07:40:37.218Z</time></trkpt><trkpt lat="46.0508991" lon="9.3103494"><ele>210.0</ele><time>2026-05-01T07:40:38.263Z</time></trkpt><trkpt lat="46.0510106" lon="9.3104354"><ele>209.0</ele><time>2026-05-01T07:40:39.268Z</time></trkpt><trkpt lat="46.0511388" lon="9.3105227"><ele>216.0</ele><time>2026-05-01T07:40:40.239Z</time></trkpt><trkpt lat="46.051286" lon="9.3106181"><ele>223.0</ele><time>2026-05-01T07:40:41.241Z</time></trkpt><trkpt lat="46.0514167" lon="9.3107198"><ele>230.0</ele><time>2026-05-01T07:40:42.243Z</time></trkpt><trkpt lat="46.0515529" lon="9.3108208"><ele>226.0</ele><time>2026-05-01T07:40:43.244Z</time></trkpt><trkpt lat="46.0516872" lon="9.3108995"><ele>222.0</ele><time>2026-05-01T07:40:44.243Z</time></trkpt><trkpt lat="46.0517734" lon="9.3109804"><ele>218.0</ele><time>2026-05-01T07:40:45.238Z</time></trkpt><trkpt lat="46.0518798" lon="9.3110768"><ele>214.0</ele><time>2026-05-01T07:40:46.25Z</time></trkpt><trkpt lat="46.0519686" lon="9.3111881"><ele>214.0</ele><time>2026-05-01T07:40:47.227Z</time></trkpt><trkpt lat="46.0520801" lon="9.3112907"><ele>214.0</ele><time>2026-05-01T07:40:48.246Z</time></trkpt><trkpt lat="46.0521999" lon="9.3113783"><ele>214.0</ele><time>2026-05-01T07:40:49.228Z</time></trkpt><trkpt lat="46.052308" lon="9.3115058"><ele>214.0</ele><time>2026-05-01T07:40:50.223Z</time></trkpt><trkpt lat="46.052449" lon="9.3116461"><ele>213.66666666666666</ele><time>2026-05-01T07:40:51.227Z</time></trkpt><trkpt lat="46.0526167" lon="9.3117512"><ele>213.33333333333331</ele><time>2026-05-01T07:40:52.224Z</time></trkpt><trkpt lat="46.0527682" lon="9.3118695"><ele>213.0</ele><time>2026-05-01T07:40:53.233Z</time></trkpt><trkpt lat="46.0529544" lon="9.3120034"><ele>213.0</ele><time>2026-05-01T07:40:54.225Z</time></trkpt><trkpt lat="46.0531202" lon="9.3121478"><ele>213.0</ele><time>2026-05-01T07:40:55.227Z</time></trkpt><trkpt lat="46.0533068" lon="9.3122791"><ele>213.0</ele><time>2026-05-01T07:40:56.23Z</time></trkpt><trkpt lat="46.0534802" lon="9.3123987"><ele>216.66666666666669</ele><time>2026-05-01T07:40:57.224Z</time></trkpt><trkpt lat="46.0536563" lon="9.3124792"><ele>220.33333333333334</ele><time>2026-05-01T07:40:58.235Z</time></trkpt><trkpt lat="46.0538262" lon="9.3125402"><ele>224.0</ele><time>2026-05-01T07:40:59.215Z</time></trkpt><trkpt lat="46.0540115" lon="9.3125559"><ele>221.0</ele><time>2026-05-01T07:41:00.227Z</time></trkpt><trkpt lat="46.054192" lon="9.3125297"><ele>218.0</ele><time>2026-05-01T07:41:01.225Z</time></trkpt><trkpt lat="46.0543811" lon="9.3124993"><ele>215.0</ele><time>2026-05-01T07:41:02.232Z</time></trkpt><trkpt lat="46.0545606" lon="9.3124712"><ele>215.0</ele><time>2026-05-01T07:41:03.225Z</time></trkpt><trkpt lat="46.0547148" lon="9.3125084"><ele>215.0</ele><time>2026-05-01T07:41:04.223Z</time></trkpt><trkpt lat="46.0548723" lon="9.3125839"><ele>215.0</ele><time>2026-05-01T07:41:05.219Z</time></trkpt><trkpt lat="46.055016" lon="9.3127078"><ele>215.0</ele><time>2026-05-01T07:41:06.233Z</time></trkpt><trkpt lat="46.0551518" lon="9.3127917"><ele>215.0</ele><time>2026-05-01T07:41:07.242Z</time></trkpt><trkpt lat="46.0553313" lon="9.3128747"><ele>215.0</ele><time>2026-05-01T07:41:08.224Z</time></trkpt><trkpt lat="46.0555347" lon="9.3129083"><ele>215.0</ele><time>2026-05-01T07:41:09.222Z</time></trkpt><trkpt lat="46.0557237" lon="9.3129289"><ele>215.0</ele><time>2026-05-01T07:41:10.225Z</time></trkpt><trkpt lat="46.0559236" lon="9.3129551"><ele>215.0</ele><time>2026-05-01T07:41:11.225Z</time></trkpt><trkpt lat="46.0561283" lon="9.3129634"><ele>211.66666666666669</ele><time>2026-05-01T07:41:12.224Z</time></trkpt><trkpt lat="46.056313" lon="9.3130015"><ele>208.33333333333331</ele><time>2026-05-01T07:41:13.225Z</time></trkpt><trkpt lat="46.0564924" lon="9.3130592"><ele>205.0</ele><time>2026-05-01T07:41:14.226Z</time></trkpt><trkpt lat="46.0566902" lon="9.3130862"><ele>204.66666666666666</ele><time>2026-05-01T07:41:15.223Z</time></trkpt><trkpt lat="46.0568848" lon="9.3130914"><ele>204.33333333333331</ele><time>2026-05-01T07:41:16.228Z</time></trkpt><trkpt lat="46.0570807" lon="9.3131044"><ele>204.0</ele><time>2026-05-01T07:41:17.225Z</time></trkpt><trkpt lat="46.0572605" lon="9.313056"><ele>204.0</ele><time>2026-05-01T07:41:18.225Z</time></trkpt><trkpt lat="46.0574478" lon="9.312963"><ele>204.0</ele><time>2026-05-01T07:41:19.226Z</time></trkpt><trkpt lat="46.057625" lon="9.3128484"><ele>204.0</ele><time>2026-05-01T07:41:20.221Z</time></trkpt><trkpt lat="46.0578241" lon="9.3127913"><ele>206.0</ele><time>2026-05-01T07:41:21.223Z</time></trkpt><trkpt lat="46.05804" lon="9.3126442"><ele>208.0</ele><time>2026-05-01T07:41:22.224Z</time></trkpt><trkpt lat="46.0582529" lon="9.3125314"><ele>210.33333333333331</ele><time>2026-05-01T07:41:23.212Z</time></trkpt><trkpt lat="46.0584454" lon="9.3124437"><ele>212.66666666666669</ele><time>2026-05-01T07:41:24.21Z</time></trkpt><trkpt lat="46.0586346" lon="9.312375"><ele>215.0</ele><time>2026-05-01T07:41:25.213Z</time></trkpt><trkpt lat="46.0588327" lon="9.3124092"><ele>215.0</ele><time>2026-05-01T07:41:26.218Z</time></trkpt><trkpt lat="46.0590063" lon="9.3123903"><ele>215.0</ele><time>2026-05-01T07:41:27.217Z</time></trkpt><trkpt lat="46.0592166" lon="9.3123978"><ele>215.0</ele><time>2026-05-01T07:41:28.217Z</time></trkpt><trkpt lat="46.0593704" lon="9.312382"><ele>216.0</ele><time>2026-05-01T07:41:29.222Z</time></trkpt><trkpt lat="46.0595385" lon="9.3124381"><ele>217.0</ele><time>2026-05-01T07:41:30.225Z</time></trkpt><trkpt lat="46.059704" lon="9.3125315"><ele>218.0</ele><time>2026-05-01T07:41:31.292Z</time></trkpt><trkpt lat="46.0598702" lon="9.3126071"><ele>217.0</ele><time>2026-05-01T07:41:32.217Z</time></trkpt><trkpt lat="46.0600309" lon="9.3126491"><ele>216.0</ele><time>2026-05-01T07:41:33.221Z</time></trkpt><trkpt lat="46.0601941" lon="9.3126866"><ele>215.0</ele><time>2026-05-01T07:41:34.221Z</time></trkpt><trkpt lat="46.0603499" lon="9.312704"><ele>215.0</ele><time>2026-05-01T07:41:35.228Z</time></trkpt><trkpt lat="46.0605073" lon="9.3127535"><ele>215.0</ele><time>2026-05-01T07:41:36.225Z</time></trkpt><trkpt lat="46.0606654" lon="9.3127567"><ele>215.0</ele><time>2026-05-01T07:41:37.223Z</time></trkpt><trkpt lat="46.0608012" lon="9.3127554"><ele>220.33333333333334</ele><time>2026-05-01T07:41:38.218Z</time></trkpt><trkpt lat="46.0609614" lon="9.3126679"><ele>225.66666666666669</ele><time>2026-05-01T07:41:39.216Z</time></trkpt><trkpt lat="46.0611298" lon="9.3125477"><ele>231.0</ele><time>2026-05-01T07:41:40.222Z</time></trkpt><trkpt lat="46.0612808" lon="9.3123539"><ele>220.66666666666669</ele><time>2026-05-01T07:41:41.224Z</time></trkpt><trkpt lat="46.0614407" lon="9.3122101"><ele>210.33333333333334</ele><time>2026-05-01T07:41:42.221Z</time></trkpt><trkpt lat="46.0616356" lon="9.31218"><ele>200.0</ele><time>2026-05-01T07:41:43.22Z</time></trkpt><trkpt lat="46.0618257" lon="9.3121763"><ele>200.0</ele><time>2026-05-01T07:41:44.22Z</time></trkpt><trkpt lat="46.0620147" lon="9.3121428"><ele>200.0</ele><time>2026-05-01T07:41:45.222Z</time></trkpt><trkpt lat="46.0621937" lon="9.3120994"><ele>200.0</ele><time>2026-05-01T07:41:46.217Z</time></trkpt><trkpt lat="46.0623909" lon="9.3120417"><ele>203.0</ele><time>2026-05-01T07:41:47.217Z</time></trkpt><trkpt lat="46.0625605" lon="9.3118618"><ele>206.0</ele><time>2026-05-01T07:41:48.216Z</time></trkpt><trkpt lat="46.0627464" lon="9.3117393"><ele>209.0</ele><time>2026-05-01T07:41:49.242Z</time></trkpt><trkpt lat="46.0628943" lon="9.3116097"><ele>209.0</ele><time>2026-05-01T07:41:50.222Z</time></trkpt><trkpt lat="46.0630282" lon="9.3115138"><ele>209.0</ele><time>2026-05-01T07:41:51.214Z</time></trkpt><trkpt lat="46.0632051" lon="9.311511"><ele>209.0</ele><time>2026-05-01T07:41:52.238Z</time></trkpt><trkpt lat="46.0634002" lon="9.3115101"><ele>207.33333333333334</ele><time>2026-05-01T07:41:53.208Z</time></trkpt><trkpt lat="46.0636172" lon="9.311514"><ele>205.66666666666669</ele><time>2026-05-01T07:41:54.196Z</time></trkpt><trkpt lat="46.0637907" lon="9.3114914"><ele>204.0</ele><time>2026-05-01T07:41:55.189Z</time></trkpt><trkpt lat="46.0663342" lon="9.3099168"><ele>204.0</ele><time>2026-05-01T07:42:14.226Z</time></trkpt><trkpt lat="46.0664827" lon="9.3097809"><ele>204.0</ele><time>2026-05-01T07:42:15.313Z</time></trkpt><trkpt lat="46.0666606" lon="9.3097597"><ele>204.0</ele><time>2026-05-01T07:42:16.222Z</time></trkpt><trkpt lat="46.0668066" lon="9.3097069"><ele>203.33333333333331</ele><time>2026-05-01T07:42:17.223Z</time></trkpt><trkpt lat="46.0670075" lon="9.3097531"><ele>202.66666666666666</ele><time>2026-05-01T07:42:18.221Z</time></trkpt><trkpt lat="46.0671491" lon="9.3097062"><ele>202.0</ele><time>2026-05-01T07:42:19.221Z</time></trkpt><trkpt lat="46.0673106" lon="9.3096764"><ele>203.33333333333331</ele><time>2026-05-01T07:42:20.22Z</time></trkpt><trkpt lat="46.0674886" lon="9.3096764"><ele>204.66666666666669</ele><time>2026-05-01T07:42:21.219Z</time></trkpt><trkpt lat="46.0676786" lon="9.3096968"><ele>206.0</ele><time>2026-05-01T07:42:22.22Z</time></trkpt><trkpt lat="46.0678739" lon="9.3097183"><ele>206.0</ele><time>2026-05-01T07:42:23.223Z</time></trkpt><trkpt lat="46.068048" lon="9.309732"><ele>206.0</ele><time>2026-05-01T07:42:24.227Z</time></trkpt><trkpt lat="46.0682076" lon="9.3097556"><ele>206.0</ele><time>2026-05-01T07:42:25.228Z</time></trkpt><trkpt lat="46.0683665" lon="9.3097474"><ele>205.66666666666669</ele><time>2026-05-01T07:42:26.225Z</time></trkpt><trkpt lat="46.0685142" lon="9.3097232"><ele>205.33333333333331</ele><time>2026-05-01T07:42:27.23Z</time></trkpt><trkpt lat="46.0686608" lon="9.3096391"><ele>205.0</ele><time>2026-05-01T07:42:28.225Z</time></trkpt><trkpt lat="46.0688209" lon="9.3095319"><ele>205.0</ele><time>2026-05-01T07:42:29.231Z</time></trkpt><trkpt lat="46.0689639" lon="9.3094126"><ele>205.0</ele><time>2026-05-01T07:42:30.227Z</time></trkpt><trkpt lat="46.0691218" lon="9.309299"><ele>205.0</ele><time>2026-05-01T07:42:31.231Z</time></trkpt><trkpt lat="46.0692908" lon="9.3091913"><ele>205.33333333333331</ele><time>2026-05-01T07:42:32.225Z</time></trkpt><trkpt lat="46.069456" lon="9.3090835"><ele>205.66666666666669</ele><time>2026-05-01T07:42:33.226Z</time></trkpt><trkpt lat="46.0695906" lon="9.3089739"><ele>206.0</ele><time>2026-05-01T07:42:34.23Z</time></trkpt><trkpt lat="46.0697205" lon="9.308894"><ele>205.5</ele><time>2026-05-01T07:42:35.226Z</time></trkpt><trkpt lat="46.0698542" lon="9.3088106"><ele>205.0</ele><time>2026-05-01T07:42:36.223Z</time></trkpt><trkpt lat="46.0699716" lon="9.3087123"><ele>204.5</ele><time>2026-05-01T07:42:37.225Z</time></trkpt><trkpt lat="46.0700977" lon="9.3086143"><ele>204.0</ele><time>2026-05-01T07:42:38.227Z</time></trkpt><trkpt lat="46.0702123" lon="9.3085138"><ele>203.75</ele><time>2026-05-01T07:42:39.223Z</time></trkpt><trkpt lat="46.0703293" lon="9.3083861"><ele>203.5</ele><time>2026-05-01T07:42:40.224Z</time></trkpt><trkpt lat="46.0704294" lon="9.3082372"><ele>203.25</ele><time>2026-05-01T07:42:41.226Z</time></trkpt><trkpt lat="46.0705431" lon="9.3081095"><ele>203.0</ele><time>2026-05-01T07:42:42.226Z</time></trkpt><trkpt lat="46.0706658" lon="9.3080121"><ele>203.75</ele><time>2026-05-01T07:42:43.227Z</time></trkpt><trkpt lat="46.0707918" lon="9.3079067"><ele>204.5</ele><time>2026-05-01T07:42:44.222Z</time></trkpt><trkpt lat="46.0709176" lon="9.30779"><ele>205.25</ele><time>2026-05-01T07:42:45.229Z</time></trkpt><trkpt lat="46.0710387" lon="9.3076682"><ele>206.0</ele><time>2026-05-01T07:42:46.224Z</time></trkpt><trkpt lat="46.071161" lon="9.3075352"><ele>206.0</ele><time>2026-05-01T07:42:47.233Z</time></trkpt><trkpt lat="46.0712803" lon="9.307402"><ele>206.0</ele><time>2026-05-01T07:42:48.235Z</time></trkpt><trkpt lat="46.0714041" lon="9.307278"><ele>206.0</ele><time>2026-05-01T07:42:49.227Z</time></trkpt><trkpt lat="46.0715306" lon="9.3071382"><ele>206.25</ele><time>2026-05-01T07:42:50.237Z</time></trkpt><trkpt lat="46.071658" lon="9.3070342"><ele>206.5</ele><time>2026-05-01T07:42:51.233Z</time></trkpt><trkpt lat="46.0717782" lon="9.3069069"><ele>206.75</ele><time>2026-05-01T07:42:52.246Z</time></trkpt><trkpt lat="46.0718985" lon="9.3067932"><ele>207.0</ele><time>2026-05-01T07:42:53.247Z</time></trkpt><trkpt lat="46.0720225" lon="9.3066899"><ele>207.0</ele><time>2026-05-01T07:42:54.237Z</time></trkpt><trkpt lat="46.0721341" lon="9.3066011"><ele>207.0</ele><time>2026-05-01T07:42:55.246Z</time></trkpt><trkpt lat="46.0722582" lon="9.3065064"><ele>207.0</ele><time>2026-05-01T07:42:56.242Z</time></trkpt><trkpt lat="46.0723695" lon="9.3063957"><ele>207.0</ele><time>2026-05-01T07:42:57.235Z</time></trkpt><trkpt lat="46.0725002" lon="9.3063134"><ele>207.75</ele><time>2026-05-01T07:42:58.238Z</time></trkpt><trkpt lat="46.0726147" lon="9.306223"><ele>208.5</ele><time>2026-05-01T07:42:59.244Z</time></trkpt><trkpt lat="46.0727267" lon="9.3061107"><ele>209.25</ele><time>2026-05-01T07:43:00.234Z</time></trkpt><trkpt lat="46.0728372" lon="9.3060233"><ele>210.0</ele><time>2026-05-01T07:43:01.242Z</time></trkpt><trkpt lat="46.0729468" lon="9.3059368"><ele>210.0</ele><time>2026-05-01T07:43:02.242Z</time></trkpt><trkpt lat="46.0730512" lon="9.305837"><ele>210.0</ele><time>2026-05-01T07:43:03.238Z</time></trkpt><trkpt lat="46.0731588" lon="9.3057488"><ele>210.0</ele><time>2026-05-01T07:43:04.242Z</time></trkpt><trkpt lat="46.0732671" lon="9.3056629"><ele>210.0</ele><time>2026-05-01T07:43:05.235Z</time></trkpt><trkpt lat="46.0733745" lon="9.3055797"><ele>210.0</ele><time>2026-05-01T07:43:06.236Z</time></trkpt><trkpt lat="46.0734748" lon="9.3054971"><ele>210.0</ele><time>2026-05-01T07:43:07.231Z</time></trkpt><trkpt lat="46.0735755" lon="9.3054118"><ele>210.0</ele><time>2026-05-01T07:43:08.23Z</time></trkpt><trkpt lat="46.0736734" lon="9.3053328"><ele>210.0</ele><time>2026-05-01T07:43:09.237Z</time></trkpt><trkpt lat="46.0737745" lon="9.3052594"><ele>210.0</ele><time>2026-05-01T07:43:10.241Z</time></trkpt><trkpt lat="46.0738764" lon="9.305183"><ele>210.0</ele><time>2026-05-01T07:43:11.236Z</time></trkpt><trkpt lat="46.0739751" lon="9.3051041"><ele>210.0</ele><time>2026-05-01T07:43:12.234Z</time></trkpt><trkpt lat="46.0740714" lon="9.3050199"><ele>210.0</ele><time>2026-05-01T07:43:13.241Z</time></trkpt><trkpt lat="46.0741706" lon="9.3049433"><ele>210.0</ele><time>2026-05-01T07:43:14.236Z</time></trkpt><trkpt lat="46.074272" lon="9.3048699"><ele>210.0</ele><time>2026-05-01T07:43:15.233Z</time></trkpt><trkpt lat="46.0743706" lon="9.3048076"><ele>210.0</ele><time>2026-05-01T07:43:16.245Z</time></trkpt><trkpt lat="46.074467" lon="9.3047578"><ele>210.0</ele><time>2026-05-01T07:43:17.232Z</time></trkpt><trkpt lat="46.0745633" lon="9.3047058"><ele>210.0</ele><time>2026-05-01T07:43:18.233Z</time></trkpt><trkpt lat="46.0746543" lon="9.304654"><ele>209.8</ele><time>2026-05-01T07:43:19.242Z</time></trkpt><trkpt lat="46.074745" lon="9.3046017"><ele>209.6</ele><time>2026-05-01T07:43:20.239Z</time></trkpt><trkpt lat="46.0748435" lon="9.3045642"><ele>209.39999999999998</ele><time>2026-05-01T07:43:21.231Z</time></trkpt><trkpt lat="46.0749463" lon="9.3045331"><ele>209.2</ele><time>2026-05-01T07:43:22.236Z</time></trkpt><trkpt lat="46.0750556" lon="9.3045115"><ele>209.0</ele><time>2026-05-01T07:43:23.247Z</time></trkpt><trkpt lat="46.0751674" lon="9.3044865"><ele>209.0</ele><time>2026-05-01T07:43:24.239Z</time></trkpt><trkpt lat="46.0752786" lon="9.3044608"><ele>209.0</ele><time>2026-05-01T07:43:25.244Z</time></trkpt><trkpt lat="46.0753885" lon="9.3044419"><ele>209.0</ele><time>2026-05-01T07:43:26.243Z</time></trkpt><trkpt lat="46.0754982" lon="9.3044302"><ele>209.0</ele><time>2026-05-01T07:43:27.236Z</time></trkpt><trkpt lat="46.0756112" lon="9.3044184"><ele>209.0</ele><time>2026-05-01T07:43:28.249Z</time></trkpt><trkpt lat="46.0757271" lon="9.3044155"><ele>209.39999999999998</ele><time>2026-05-01T07:43:29.242Z</time></trkpt><trkpt lat="46.0758447" lon="9.3044174"><ele>209.8</ele><time>2026-05-01T07:43:30.237Z</time></trkpt><trkpt lat="46.0759565" lon="9.3044176"><ele>210.2</ele><time>2026-05-01T07:43:31.239Z</time></trkpt><trkpt lat="46.0760689" lon="9.3044296"><ele>210.60000000000002</ele><time>2026-05-01T07:43:32.237Z</time></trkpt><trkpt lat="46.0761758" lon="9.3044438"><ele>211.0</ele><time>2026-05-01T07:43:33.237Z</time></trkpt><trkpt lat="46.0762869" lon="9.3044563"><ele>211.0</ele><time>2026-05-01T07:43:34.229Z</time></trkpt><trkpt lat="46.0763978" lon="9.3044708"><ele>211.0</ele><time>2026-05-01T07:43:35.235Z</time></trkpt><trkpt lat="46.0765134" lon="9.3044877"><ele>211.0</ele><time>2026-05-01T07:43:36.231Z</time></trkpt><trkpt lat="46.0766306" lon="9.3045202"><ele>211.0</ele><time>2026-05-01T07:43:37.241Z</time></trkpt><trkpt lat="46.0767451" lon="9.3045559"><ele>210.75</ele><time>2026-05-01T07:43:38.238Z</time></trkpt><trkpt lat="46.0768607" lon="9.3045896"><ele>210.5</ele><time>2026-05-01T07:43:39.239Z</time></trkpt><trkpt lat="46.0769785" lon="9.3046247"><ele>210.25</ele><time>2026-05-01T07:43:40.244Z</time></trkpt><trkpt lat="46.0771048" lon="9.3046558"><ele>210.0</ele><time>2026-05-01T07:43:41.239Z</time></trkpt><trkpt lat="46.0772294" lon="9.3046854"><ele>210.0</ele><time>2026-05-01T07:43:42.237Z</time></trkpt><trkpt lat="46.0773482" lon="9.3047257"><ele>210.0</ele><time>2026-05-01T07:43:43.237Z</time></trkpt><trkpt lat="46.0774695" lon="9.3047786"><ele>210.0</ele><time>2026-05-01T07:43:44.235Z</time></trkpt><trkpt lat="46.0775905" lon="9.3048358"><ele>210.0</ele><time>2026-05-01T07:43:45.235Z</time></trkpt><trkpt lat="46.0777186" lon="9.3049119"><ele>210.75</ele><time>2026-05-01T07:43:46.237Z</time></trkpt><trkpt lat="46.0778426" lon="9.3050013"><ele>211.5</ele><time>2026-05-01T07:43:47.234Z</time></trkpt><trkpt lat="46.0779653" lon="9.305098"><ele>212.25</ele><time>2026-05-01T07:43:48.232Z</time></trkpt><trkpt lat="46.0780914" lon="9.3052346"><ele>213.0</ele><time>2026-05-01T07:43:49.245Z</time></trkpt><trkpt lat="46.0782109" lon="9.3053521"><ele>213.25</ele><time>2026-05-01T07:43:50.242Z</time></trkpt><trkpt lat="46.078322" lon="9.3054715"><ele>213.5</ele><time>2026-05-01T07:43:51.227Z</time></trkpt><trkpt lat="46.078444" lon="9.3055986"><ele>213.75</ele><time>2026-05-01T07:43:52.231Z</time></trkpt><trkpt lat="46.0785383" lon="9.305735"><ele>214.0</ele><time>2026-05-01T07:43:53.237Z</time></trkpt><trkpt lat="46.0786309" lon="9.3058811"><ele>214.25</ele><time>2026-05-01T07:43:54.231Z</time></trkpt><trkpt lat="46.0786988" lon="9.3060313"><ele>214.5</ele><time>2026-05-01T07:43:55.238Z</time></trkpt><trkpt lat="46.0787622" lon="9.3061707"><ele>214.75</ele><time>2026-05-01T07:43:56.245Z</time></trkpt><trkpt lat="46.0788148" lon="9.3063085"><ele>215.0</ele><time>2026-05-01T07:43:57.237Z</time></trkpt><trkpt lat="46.0788719" lon="9.3064311"><ele>214.6</ele><time>2026-05-01T07:43:58.242Z</time></trkpt><trkpt lat="46.0789382" lon="9.3065346"><ele>214.2</ele><time>2026-05-01T07:43:59.245Z</time></trkpt><trkpt lat="46.0789889" lon="9.3066505"><ele>213.8</ele><time>2026-05-01T07:44:00.241Z</time></trkpt><trkpt lat="46.0790376" lon="9.3067741"><ele>213.4</ele><time>2026-05-01T07:44:01.251Z</time></trkpt><trkpt lat="46.0790974" lon="9.3069081"><ele>213.0</ele><time>2026-05-01T07:44:02.242Z</time></trkpt><trkpt lat="46.0791679" lon="9.3070464"><ele>212.75</ele><time>2026-05-01T07:44:03.246Z</time></trkpt><trkpt lat="46.0792462" lon="9.3071903"><ele>212.5</ele><time>2026-05-01T07:44:04.248Z</time></trkpt><trkpt lat="46.0793224" lon="9.307348"><ele>212.25</ele><time>2026-05-01T07:44:05.241Z</time></trkpt><trkpt lat="46.0794006" lon="9.3075078"><ele>212.0</ele><time>2026-05-01T07:44:06.24Z</time></trkpt><trkpt lat="46.0795031" lon="9.3076717"><ele>212.0</ele><time>2026-05-01T07:44:07.241Z</time></trkpt><trkpt lat="46.0795921" lon="9.3078176"><ele>212.0</ele><time>2026-05-01T07:44:08.244Z</time></trkpt><trkpt lat="46.0796612" lon="9.3079504"><ele>212.0</ele><time>2026-05-01T07:44:09.242Z</time></trkpt><trkpt lat="46.0797134" lon="9.308091"><ele>212.0</ele><time>2026-05-01T07:44:10.25Z</time></trkpt><trkpt lat="46.0797755" lon="9.3082408"><ele>212.25</ele><time>2026-05-01T07:44:11.245Z</time></trkpt><trkpt lat="46.0798255" lon="9.3083881"><ele>212.5</ele><time>2026-05-01T07:44:12.244Z</time></trkpt><trkpt lat="46.0798786" lon="9.3085381"><ele>212.75</ele><time>2026-05-01T07:44:13.231Z</time></trkpt><trkpt lat="46.0799481" lon="9.3086873"><ele>213.0</ele><time>2026-05-01T07:44:14.232Z</time></trkpt><trkpt lat="46.0800214" lon="9.308835"><ele>213.25</ele><time>2026-05-01T07:44:15.232Z</time></trkpt><trkpt lat="46.0801012" lon="9.3089837"><ele>213.5</ele><time>2026-05-01T07:44:16.231Z</time></trkpt><trkpt lat="46.0801776" lon="9.3091342"><ele>213.75</ele><time>2026-05-01T07:44:17.242Z</time></trkpt><trkpt lat="46.0802556" lon="9.3092818"><ele>214.0</ele><time>2026-05-01T07:44:18.238Z</time></trkpt><trkpt lat="46.0803289" lon="9.3094374"><ele>214.0</ele><time>2026-05-01T07:44:19.232Z</time></trkpt><trkpt lat="46.0804081" lon="9.3095951"><ele>214.0</ele><time>2026-05-01T07:44:20.234Z</time></trkpt><trkpt lat="46.0804932" lon="9.3097512"><ele>214.0</ele><time>2026-05-01T07:44:21.222Z</time></trkpt><trkpt lat="46.0805814" lon="9.3099119"><ele>214.0</ele><time>2026-05-01T07:44:22.232Z</time></trkpt><trkpt lat="46.0806566" lon="9.3100694"><ele>212.75</ele><time>2026-05-01T07:44:23.236Z</time></trkpt><trkpt lat="46.0807524" lon="9.3102181"><ele>211.5</ele><time>2026-05-01T07:44:24.233Z</time></trkpt><trkpt lat="46.0808485" lon="9.3103741"><ele>210.25</ele><time>2026-05-01T07:44:25.243Z</time></trkpt><trkpt lat="46.0809618" lon="9.310512"><ele>209.0</ele><time>2026-05-01T07:44:26.234Z</time></trkpt><trkpt lat="46.0810883" lon="9.3106212"><ele>213.33333333333334</ele><time>2026-05-01T07:44:27.227Z</time></trkpt><trkpt lat="46.0812247" lon="9.310722"><ele>217.66666666666669</ele><time>2026-05-01T07:44:28.236Z</time></trkpt><trkpt lat="46.0813713" lon="9.3108059"><ele>222.0</ele><time>2026-05-01T07:44:29.237Z</time></trkpt><trkpt lat="46.0815163" lon="9.310857"><ele>219.75</ele><time>2026-05-01T07:44:30.228Z</time></trkpt><trkpt lat="46.0816591" lon="9.3108759"><ele>217.5</ele><time>2026-05-01T07:44:31.236Z</time></trkpt><trkpt lat="46.0817881" lon="9.3108983"><ele>215.25</ele><time>2026-05-01T07:44:32.23Z</time></trkpt><trkpt lat="46.0819198" lon="9.3109061"><ele>213.0</ele><time>2026-05-01T07:44:33.227Z</time></trkpt><trkpt lat="46.0820722" lon="9.3109093"><ele>213.0</ele><time>2026-05-01T07:44:34.221Z</time></trkpt><trkpt lat="46.0821923" lon="9.3109294"><ele>213.0</ele><time>2026-05-01T07:44:35.22Z</time></trkpt><trkpt lat="46.082312" lon="9.3110075"><ele>213.0</ele><time>2026-05-01T07:44:36.213Z</time></trkpt><trkpt lat="46.0824395" lon="9.3111343"><ele>213.0</ele><time>2026-05-01T07:44:37.223Z</time></trkpt><trkpt lat="46.0825402" lon="9.3112446"><ele>211.25</ele><time>2026-05-01T07:44:38.22Z</time></trkpt><trkpt lat="46.0826457" lon="9.311275"><ele>209.5</ele><time>2026-05-01T07:44:39.224Z</time></trkpt><trkpt lat="46.0827602" lon="9.311324"><ele>207.75</ele><time>2026-05-01T07:44:40.22Z</time></trkpt><trkpt lat="46.0829009" lon="9.3113211"><ele>206.0</ele><time>2026-05-01T07:44:41.299Z</time></trkpt><trkpt lat="46.0830415" lon="9.3112962"><ele>206.0</ele><time>2026-05-01T07:44:42.22Z</time></trkpt><trkpt lat="46.0832236" lon="9.3112339"><ele>206.0</ele><time>2026-05-01T07:44:43.223Z</time></trkpt><trkpt lat="46.0834469" lon="9.3111619"><ele>206.0</ele><time>2026-05-01T07:44:44.221Z</time></trkpt><trkpt lat="46.0836809" lon="9.3111304"><ele>208.5</ele><time>2026-05-01T07:44:45.221Z</time></trkpt><trkpt lat="46.0839142" lon="9.3110994"><ele>211.0</ele><time>2026-05-01T07:44:46.224Z</time></trkpt><trkpt lat="46.0841426" lon="9.311026"><ele>213.33333333333331</ele><time>2026-05-01T07:44:47.219Z</time></trkpt><trkpt lat="46.0843463" lon="9.3109912"><ele>215.66666666666669</ele><time>2026-05-01T07:44:48.224Z</time></trkpt><trkpt lat="46.0845491" lon="9.3109478"><ele>218.0</ele><time>2026-05-01T07:44:49.222Z</time></trkpt><trkpt lat="46.0847549" lon="9.3108651"><ele>219.0</ele><time>2026-05-01T07:44:50.225Z</time></trkpt><trkpt lat="46.0849665" lon="9.3107587"><ele>220.0</ele><time>2026-05-01T07:44:51.219Z</time></trkpt><trkpt lat="46.0851749" lon="9.3106503"><ele>221.0</ele><time>2026-05-01T07:44:52.249Z</time></trkpt><trkpt lat="46.0853661" lon="9.3105436"><ele>216.0</ele><time>2026-05-01T07:44:53.219Z</time></trkpt><trkpt lat="46.0855683" lon="9.3104568"><ele>211.0</ele><time>2026-05-01T07:44:54.227Z</time></trkpt><trkpt lat="46.0857349" lon="9.3103615"><ele>206.0</ele><time>2026-05-01T07:44:55.223Z</time></trkpt><trkpt lat="46.0859201" lon="9.3102711"><ele>206.0</ele><time>2026-05-01T07:44:56.222Z</time></trkpt><trkpt lat="46.086097" lon="9.3101898"><ele>206.0</ele><time>2026-05-01T07:44:57.219Z</time></trkpt><trkpt lat="46.0862647" lon="9.3101135"><ele>206.0</ele><time>2026-05-01T07:44:58.23Z</time></trkpt><trkpt lat="46.086455" lon="9.3100495"><ele>210.0</ele><time>2026-05-01T07:44:59.221Z</time></trkpt><trkpt lat="46.0866462" lon="9.310014"><ele>214.0</ele><time>2026-05-01T07:45:00.215Z</time></trkpt><trkpt lat="46.0868292" lon="9.3099793"><ele>218.0</ele><time>2026-05-01T07:45:01.224Z</time></trkpt><trkpt lat="46.0869973" lon="9.3099988"><ele>218.0</ele><time>2026-05-01T07:45:02.219Z</time></trkpt><trkpt lat="46.0871294" lon="9.3099802"><ele>218.0</ele><time>2026-05-01T07:45:03.221Z</time></trkpt><trkpt lat="46.0872383" lon="9.3100238"><ele>218.0</ele><time>2026-05-01T07:45:04.217Z</time></trkpt><trkpt lat="46.0873542" lon="9.3101059"><ele>218.0</ele><time>2026-05-01T07:45:05.215Z</time></trkpt><trkpt lat="46.0874904" lon="9.3102265"><ele>216.33333333333334</ele><time>2026-05-01T07:45:06.215Z</time></trkpt><trkpt lat="46.0876351" lon="9.3103659"><ele>214.66666666666669</ele><time>2026-05-01T07:45:07.217Z</time></trkpt><trkpt lat="46.087804" lon="9.3104927"><ele>213.0</ele><time>2026-05-01T07:45:08.219Z</time></trkpt><trkpt lat="46.0879701" lon="9.3106291"><ele>217.33333333333331</ele><time>2026-05-01T07:45:09.22Z</time></trkpt><trkpt lat="46.0881489" lon="9.3107487"><ele>221.66666666666666</ele><time>2026-05-01T07:45:10.216Z</time></trkpt><trkpt lat="46.0883093" lon="9.3108661"><ele>226.0</ele><time>2026-05-01T07:45:11.219Z</time></trkpt><trkpt lat="46.0884896" lon="9.3109999"><ele>226.0</ele><time>2026-05-01T07:45:12.221Z</time></trkpt><trkpt lat="46.088669" lon="9.3111367"><ele>226.0</ele><time>2026-05-01T07:45:13.219Z</time></trkpt><trkpt lat="46.0888056" lon="9.3112482"><ele>226.0</ele><time>2026-05-01T07:45:14.222Z</time></trkpt><trkpt lat="46.0889577" lon="9.3113455"><ele>229.75</ele><time>2026-05-01T07:45:15.217Z</time></trkpt><trkpt lat="46.0891035" lon="9.3114228"><ele>233.5</ele><time>2026-05-01T07:45:16.22Z</time></trkpt><trkpt lat="46.0892439" lon="9.3114738"><ele>237.25</ele><time>2026-05-01T07:45:17.217Z</time></trkpt><trkpt lat="46.0893663" lon="9.311518"><ele>241.0</ele><time>2026-05-01T07:45:18.223Z</time></trkpt><trkpt lat="46.0895091" lon="9.3115279"><ele>241.0</ele><time>2026-05-01T07:45:19.225Z</time></trkpt><trkpt lat="46.0896381" lon="9.3115553"><ele>241.0</ele><time>2026-05-01T07:45:20.219Z</time></trkpt><trkpt lat="46.0897984" lon="9.3115811"><ele>241.0</ele><time>2026-05-01T07:45:21.218Z</time></trkpt><trkpt lat="46.089948" lon="9.3116138"><ele>241.0</ele><time>2026-05-01T07:45:22.222Z</time></trkpt><trkpt lat="46.0900729" lon="9.3116631"><ele>241.25</ele><time>2026-05-01T07:45:23.225Z</time></trkpt><trkpt lat="46.090194" lon="9.3116994"><ele>241.5</ele><time>2026-05-01T07:45:24.254Z</time></trkpt><trkpt lat="46.090309" lon="9.3117028"><ele>241.75</ele><time>2026-05-01T07:45:25.217Z</time></trkpt><trkpt lat="46.0904456" lon="9.3117397"><ele>242.0</ele><time>2026-05-01T07:45:26.221Z</time></trkpt><trkpt lat="46.0905713" lon="9.3118054"><ele>242.0</ele><time>2026-05-01T07:45:27.215Z</time></trkpt><trkpt lat="46.0907019" lon="9.3118873"><ele>242.0</ele><time>2026-05-01T07:45:28.243Z</time></trkpt><trkpt lat="46.090836" lon="9.3119756"><ele>242.0</ele><time>2026-05-01T07:45:29.237Z</time></trkpt><trkpt lat="46.0909766" lon="9.3121031"><ele>249.66666666666669</ele><time>2026-05-01T07:45:30.221Z</time></trkpt><trkpt lat="46.0910853" lon="9.3122477"><ele>257.3333333333333</ele><time>2026-05-01T07:45:31.233Z</time></trkpt><trkpt lat="46.0911967" lon="9.3123784"><ele>265.0</ele><time>2026-05-01T07:45:32.22Z</time></trkpt><trkpt lat="46.0913398" lon="9.3124825"><ele>265.0</ele><time>2026-05-01T07:45:33.222Z</time></trkpt><trkpt lat="46.0914737" lon="9.3125658"><ele>265.0</ele><time>2026-05-01T07:45:34.228Z</time></trkpt><trkpt lat="46.0916447" lon="9.3125946"><ele>265.0</ele><time>2026-05-01T07:45:35.23Z</time></trkpt><trkpt lat="46.0918225" lon="9.3126397"><ele>252.0</ele><time>2026-05-01T07:45:36.225Z</time></trkpt><trkpt lat="46.0919966" lon="9.3127252"><ele>239.0</ele><time>2026-05-01T07:45:37.223Z</time></trkpt><trkpt lat="46.0921854" lon="9.3128501"><ele>226.0</ele><time>2026-05-01T07:45:38.225Z</time></trkpt><trkpt lat="46.0923514" lon="9.3129756"><ele>226.66666666666666</ele><time>2026-05-01T07:45:39.228Z</time></trkpt><trkpt lat="46.0925261" lon="9.3130811"><ele>227.33333333333331</ele><time>2026-05-01T07:45:40.224Z</time></trkpt><trkpt lat="46.0927108" lon="9.3131898"><ele>228.0</ele><time>2026-05-01T07:45:41.225Z</time></trkpt><trkpt lat="46.0928857" lon="9.3133068"><ele>228.0</ele><time>2026-05-01T07:45:42.226Z</time></trkpt><trkpt lat="46.0930673" lon="9.313427"><ele>228.0</ele><time>2026-05-01T07:45:43.223Z</time></trkpt><trkpt lat="46.0932518" lon="9.3136108"><ele>228.0</ele><time>2026-05-01T07:45:44.22Z</time></trkpt><trkpt lat="46.0934295" lon="9.3137979"><ele>229.66666666666669</ele><time>2026-05-01T07:45:45.227Z</time></trkpt><trkpt lat="46.0935535" lon="9.3139813"><ele>231.33333333333334</ele><time>2026-05-01T07:45:46.233Z</time></trkpt><trkpt lat="46.0937025" lon="9.3141545"><ele>233.0</ele><time>2026-05-01T07:45:47.218Z</time></trkpt><trkpt lat="46.0938579" lon="9.3143159"><ele>233.0</ele><time>2026-05-01T07:45:48.223Z</time></trkpt><trkpt lat="46.0939814" lon="9.3144981"><ele>233.0</ele><time>2026-05-01T07:45:49.235Z</time></trkpt><trkpt lat="46.094103" lon="9.3146911"><ele>233.0</ele><time>2026-05-01T07:45:50.228Z</time></trkpt><trkpt lat="46.0942401" lon="9.31488"><ele>230.33333333333334</ele><time>2026-05-01T07:45:51.231Z</time></trkpt><trkpt lat="46.094375" lon="9.315069"><ele>227.66666666666669</ele><time>2026-05-01T07:45:52.234Z</time></trkpt><trkpt lat="46.0944927" lon="9.3152713"><ele>225.0</ele><time>2026-05-01T07:45:53.233Z</time></trkpt><trkpt lat="46.0946161" lon="9.3154692"><ele>222.66666666666669</ele><time>2026-05-01T07:45:54.225Z</time></trkpt><trkpt lat="46.0947482" lon="9.3156608"><ele>220.33333333333334</ele><time>2026-05-01T07:45:55.226Z</time></trkpt><trkpt lat="46.094871" lon="9.3158336"><ele>218.0</ele><time>2026-05-01T07:45:56.229Z</time></trkpt><trkpt lat="46.0949685" lon="9.3160173"><ele>218.0</ele><time>2026-05-01T07:45:57.23Z</time></trkpt><trkpt lat="46.0950969" lon="9.316166"><ele>218.0</ele><time>2026-05-01T07:45:58.232Z</time></trkpt><trkpt lat="46.0952176" lon="9.3162961"><ele>218.0</ele><time>2026-05-01T07:45:59.236Z</time></trkpt><trkpt lat="46.0953627" lon="9.3163906"><ele>220.0</ele><time>2026-05-01T07:46:00.222Z</time></trkpt><trkpt lat="46.0955135" lon="9.3164619"><ele>222.0</ele><time>2026-05-01T07:46:01.229Z</time></trkpt><trkpt lat="46.0956792" lon="9.3164982"><ele>224.0</ele><time>2026-05-01T07:46:02.222Z</time></trkpt><trkpt lat="46.0958536" lon="9.3165325"><ele>224.0</ele><time>2026-05-01T07:46:03.228Z</time></trkpt><trkpt lat="46.0960248" lon="9.3165936"><ele>224.0</ele><time>2026-05-01T07:46:04.226Z</time></trkpt><trkpt lat="46.0961918" lon="9.3166233"><ele>224.0</ele><time>2026-05-01T07:46:05.227Z</time></trkpt><trkpt lat="46.0963565" lon="9.3166336"><ele>224.0</ele><time>2026-05-01T07:46:06.231Z</time></trkpt><trkpt lat="46.0965167" lon="9.316641"><ele>224.0</ele><time>2026-05-01T07:46:07.221Z</time></trkpt><trkpt lat="46.0966584" lon="9.3166313"><ele>224.0</ele><time>2026-05-01T07:46:08.216Z</time></trkpt><trkpt lat="46.0968204" lon="9.3165662"><ele>223.5</ele><time>2026-05-01T07:46:09.221Z</time></trkpt><trkpt lat="46.0969814" lon="9.3165198"><ele>223.0</ele><time>2026-05-01T07:46:10.223Z</time></trkpt><trkpt lat="46.0971198" lon="9.3164844"><ele>222.5</ele><time>2026-05-01T07:46:11.226Z</time></trkpt><trkpt lat="46.0972614" lon="9.3164764"><ele>222.0</ele><time>2026-05-01T07:46:12.216Z</time></trkpt><trkpt lat="46.0973989" lon="9.3165584"><ele>220.33333333333331</ele><time>2026-05-01T07:46:13.222Z</time></trkpt><trkpt lat="46.0975345" lon="9.3166709"><ele>218.66666666666666</ele><time>2026-05-01T07:46:14.216Z</time></trkpt><trkpt lat="46.097659" lon="9.3168254"><ele>217.0</ele><time>2026-05-01T07:46:15.218Z</time></trkpt><trkpt lat="46.0977898" lon="9.3169755"><ele>217.0</ele><time>2026-05-01T07:46:16.22Z</time></trkpt><trkpt lat="46.0979392" lon="9.3171406"><ele>217.0</ele><time>2026-05-01T07:46:17.215Z</time></trkpt><trkpt lat="46.0981205" lon="9.3172363"><ele>217.0</ele><time>2026-05-01T07:46:18.219Z</time></trkpt><trkpt lat="46.098296" lon="9.3172798"><ele>223.66666666666666</ele><time>2026-05-01T07:46:19.227Z</time></trkpt><trkpt lat="46.0984719" lon="9.3173308"><ele>230.33333333333331</ele><time>2026-05-01T07:46:20.218Z</time></trkpt><trkpt lat="46.0986633" lon="9.3173318"><ele>237.0</ele><time>2026-05-01T07:46:21.223Z</time></trkpt><trkpt lat="46.0988685" lon="9.3173198"><ele>237.0</ele><time>2026-05-01T07:46:22.221Z</time></trkpt><trkpt lat="46.0990505" lon="9.3172821"><ele>237.0</ele><time>2026-05-01T07:46:23.216Z</time></trkpt><trkpt lat="46.099247" lon="9.3172644"><ele>237.0</ele><time>2026-05-01T07:46:24.219Z</time></trkpt><trkpt lat="46.0994336" lon="9.3172522"><ele>236.33333333333331</ele><time>2026-05-01T07:46:25.219Z</time></trkpt><trkpt lat="46.099621" lon="9.3172547"><ele>235.66666666666666</ele><time>2026-05-01T07:46:26.219Z</time></trkpt><trkpt lat="46.0998106" lon="9.3172715"><ele>235.0</ele><time>2026-05-01T07:46:27.218Z</time></trkpt><trkpt lat="46.0999842" lon="9.3173241"><ele>232.0</ele><time>2026-05-01T07:46:28.228Z</time></trkpt><trkpt lat="46.1001835" lon="9.3173537"><ele>229.0</ele><time>2026-05-01T07:46:29.225Z</time></trkpt><trkpt lat="46.100366" lon="9.3174535"><ele>226.0</ele><time>2026-05-01T07:46:30.218Z</time></trkpt><trkpt lat="46.1005411" lon="9.3175623"><ele>226.0</ele><time>2026-05-01T07:46:31.225Z</time></trkpt><trkpt lat="46.1007197" lon="9.3176655"><ele>226.0</ele><time>2026-05-01T07:46:32.217Z</time></trkpt><trkpt lat="46.1008781" lon="9.3177772"><ele>226.0</ele><time>2026-05-01T07:46:33.219Z</time></trkpt><trkpt lat="46.1010548" lon="9.3178332"><ele>228.0</ele><time>2026-05-01T07:46:34.223Z</time></trkpt><trkpt lat="46.1012122" lon="9.3179238"><ele>230.0</ele><time>2026-05-01T07:46:35.216Z</time></trkpt><trkpt lat="46.10136" lon="9.3180156"><ele>232.0</ele><time>2026-05-01T07:46:36.226Z</time></trkpt><trkpt lat="46.1015068" lon="9.3181169"><ele>228.75</ele><time>2026-05-01T07:46:37.221Z</time></trkpt><trkpt lat="46.1016172" lon="9.3182044"><ele>225.5</ele><time>2026-05-01T07:46:38.216Z</time></trkpt><trkpt lat="46.1017077" lon="9.3182752"><ele>222.25</ele><time>2026-05-01T07:46:39.219Z</time></trkpt><trkpt lat="46.1018071" lon="9.3183947"><ele>219.0</ele><time>2026-05-01T07:46:40.218Z</time></trkpt><trkpt lat="46.1019016" lon="9.3185225"><ele>219.0</ele><time>2026-05-01T07:46:41.214Z</time></trkpt><trkpt lat="46.1019876" lon="9.3186593"><ele>219.0</ele><time>2026-05-01T07:46:42.218Z</time></trkpt><trkpt lat="46.1020761" lon="9.3188111"><ele>219.0</ele><time>2026-05-01T07:46:43.227Z</time></trkpt><trkpt lat="46.1021994" lon="9.3189534"><ele>219.0</ele><time>2026-05-01T07:46:44.223Z</time></trkpt><trkpt lat="46.1023" lon="9.3191109"><ele>219.0</ele><time>2026-05-01T07:46:45.227Z</time></trkpt><trkpt lat="46.1023918" lon="9.3192631"><ele>219.0</ele><time>2026-05-01T07:46:46.228Z</time></trkpt><trkpt lat="46.1025174" lon="9.3193771"><ele>219.0</ele><time>2026-05-01T07:46:47.224Z</time></trkpt><trkpt lat="46.1026867" lon="9.3194757"><ele>219.0</ele><time>2026-05-01T07:46:48.234Z</time></trkpt><trkpt lat="46.102835" lon="9.319595"><ele>219.0</ele><time>2026-05-01T07:46:49.227Z</time></trkpt><trkpt lat="46.1029777" lon="9.3197166"><ele>219.0</ele><time>2026-05-01T07:46:50.219Z</time></trkpt><trkpt lat="46.1031332" lon="9.319827"><ele>217.0</ele><time>2026-05-01T07:46:51.219Z</time></trkpt><trkpt lat="46.1033046" lon="9.3199585"><ele>215.0</ele><time>2026-05-01T07:46:52.224Z</time></trkpt><trkpt lat="46.1034224" lon="9.3201108"><ele>213.0</ele><time>2026-05-01T07:46:53.22Z</time></trkpt><trkpt lat="46.1035543" lon="9.3202615"><ele>213.0</ele><time>2026-05-01T07:46:54.229Z</time></trkpt><trkpt lat="46.1037005" lon="9.3204048"><ele>213.0</ele><time>2026-05-01T07:46:55.22Z</time></trkpt><trkpt lat="46.1038434" lon="9.3205413"><ele>213.0</ele><time>2026-05-01T07:46:56.227Z</time></trkpt><trkpt lat="46.1039784" lon="9.3206607"><ele>215.66666666666669</ele><time>2026-05-01T07:46:57.224Z</time></trkpt><trkpt lat="46.1041088" lon="9.3207999"><ele>218.33333333333334</ele><time>2026-05-01T07:46:58.224Z</time></trkpt><trkpt lat="46.1042514" lon="9.320912"><ele>221.0</ele><time>2026-05-01T07:46:59.225Z</time></trkpt><trkpt lat="46.1043907" lon="9.3210032"><ele>221.0</ele><time>2026-05-01T07:47:00.221Z</time></trkpt><trkpt lat="46.1045197" lon="9.3211063"><ele>221.0</ele><time>2026-05-01T07:47:01.232Z</time></trkpt><trkpt lat="46.1046715" lon="9.3211683"><ele>221.0</ele><time>2026-05-01T07:47:02.222Z</time></trkpt><trkpt lat="46.1048137" lon="9.3212355"><ele>220.75</ele><time>2026-05-01T07:47:03.212Z</time></trkpt><trkpt lat="46.1049399" lon="9.3213047"><ele>220.5</ele><time>2026-05-01T07:47:04.218Z</time></trkpt><trkpt lat="46.1050681" lon="9.32131"><ele>220.25</ele><time>2026-05-01T07:47:05.216Z</time></trkpt><trkpt lat="46.1051858" lon="9.3212493"><ele>220.0</ele><time>2026-05-01T07:47:06.226Z</time></trkpt><trkpt lat="46.1053489" lon="9.321148"><ele>220.0</ele><time>2026-05-01T07:47:07.218Z</time></trkpt><trkpt lat="46.1055117" lon="9.3210674"><ele>220.0</ele><time>2026-05-01T07:47:08.219Z</time></trkpt><trkpt lat="46.1056775" lon="9.3209668"><ele>220.0</ele><time>2026-05-01T07:47:09.215Z</time></trkpt><trkpt lat="46.1058288" lon="9.320873"><ele>218.33333333333331</ele><time>2026-05-01T07:47:10.226Z</time></trkpt><trkpt lat="46.1059644" lon="9.3207665"><ele>216.66666666666669</ele><time>2026-05-01T07:47:11.217Z</time></trkpt><trkpt lat="46.1061609" lon="9.3207349"><ele>215.0</ele><time>2026-05-01T07:47:12.221Z</time></trkpt><trkpt lat="46.1063129" lon="9.3206674"><ele>215.0</ele><time>2026-05-01T07:47:13.221Z</time></trkpt><trkpt lat="46.1064795" lon="9.3205732"><ele>215.0</ele><time>2026-05-01T07:47:14.214Z</time></trkpt><trkpt lat="46.1066453" lon="9.3204488"><ele>215.0</ele><time>2026-05-01T07:47:15.221Z</time></trkpt><trkpt lat="46.1068052" lon="9.3203586"><ele>214.66666666666669</ele><time>2026-05-01T07:47:16.215Z</time></trkpt><trkpt lat="46.1069503" lon="9.3202379"><ele>214.33333333333331</ele><time>2026-05-01T07:47:17.216Z</time></trkpt><trkpt lat="46.1070864" lon="9.3201111"><ele>214.0</ele><time>2026-05-01T07:47:18.222Z</time></trkpt><trkpt lat="46.1072192" lon="9.3199947"><ele>214.0</ele><time>2026-05-01T07:47:19.212Z</time></trkpt><trkpt lat="46.1073723" lon="9.3199263"><ele>214.0</ele><time>2026-05-01T07:47:20.21Z</time></trkpt><trkpt lat="46.1075511" lon="9.3198988"><ele>214.0</ele><time>2026-05-01T07:47:21.213Z</time></trkpt><trkpt lat="46.1077229" lon="9.319886"><ele>218.33333333333331</ele><time>2026-05-01T07:47:22.213Z</time></trkpt><trkpt lat="46.1078891" lon="9.3198387"><ele>222.66666666666669</ele><time>2026-05-01T07:47:23.213Z</time></trkpt><trkpt lat="46.1080561" lon="9.3197849"><ele>227.0</ele><time>2026-05-01T07:47:24.212Z</time></trkpt><trkpt lat="46.1082015" lon="9.3197352"><ele>222.33333333333334</ele><time>2026-05-01T07:47:25.219Z</time></trkpt><trkpt lat="46.1083617" lon="9.3196959"><ele>217.66666666666669</ele><time>2026-05-01T07:47:26.221Z</time></trkpt><trkpt lat="46.1085061" lon="9.3196525"><ele>213.0</ele><time>2026-05-01T07:47:27.3Z</time></trkpt><trkpt lat="46.1086521" lon="9.3196162"><ele>213.0</ele><time>2026-05-01T07:47:28.383Z</time></trkpt><trkpt lat="46.1089215" lon="9.3195978"><ele>213.0</ele><time>2026-05-01T07:47:30.224Z</time></trkpt><trkpt lat="46.1090705" lon="9.3196039"><ele>213.0</ele><time>2026-05-01T07:47:31.384Z</time></trkpt><trkpt lat="46.1092234" lon="9.319544"><ele>217.66666666666669</ele><time>2026-05-01T07:47:32.373Z</time></trkpt><trkpt lat="46.1093641" lon="9.3194296"><ele>222.33333333333334</ele><time>2026-05-01T07:47:33.375Z</time></trkpt><trkpt lat="46.1094885" lon="9.3192929"><ele>227.0</ele><time>2026-05-01T07:47:34.371Z</time></trkpt><trkpt lat="46.1095954" lon="9.3191216"><ele>227.0</ele><time>2026-05-01T07:47:35.382Z</time></trkpt><trkpt lat="46.1096981" lon="9.3189384"><ele>227.0</ele><time>2026-05-01T07:47:36.38Z</time></trkpt><trkpt lat="46.1097786" lon="9.3187666"><ele>227.0</ele><time>2026-05-01T07:47:37.379Z</time></trkpt><trkpt lat="46.1098685" lon="9.3186429"><ele>227.0</ele><time>2026-05-01T07:47:38.38Z</time></trkpt><trkpt lat="46.1099449" lon="9.318512"><ele>226.0</ele><time>2026-05-01T07:47:39.371Z</time></trkpt><trkpt lat="46.1100012" lon="9.3183737"><ele>225.0</ele><time>2026-05-01T07:47:40.386Z</time></trkpt><trkpt lat="46.1101874" lon="9.3182272"><ele>224.0</ele><time>2026-05-01T07:47:42.227Z</time></trkpt><trkpt lat="46.1102732" lon="9.3181833"><ele>223.0</ele><time>2026-05-01T07:47:43.222Z</time></trkpt><trkpt lat="46.1103455" lon="9.3181499"><ele>222.99999999999997</ele><time>2026-05-01T07:47:44.245Z</time></trkpt><trkpt lat="46.1104079" lon="9.3181139"><ele>223.0</ele><time>2026-05-01T07:47:45.242Z</time></trkpt><trkpt lat="46.110481" lon="9.3180929"><ele>223.0</ele><time>2026-05-01T07:47:46.246Z</time></trkpt><trkpt lat="46.1105587" lon="9.3180724"><ele>223.0</ele><time>2026-05-01T07:47:47.223Z</time></trkpt><trkpt lat="46.1106516" lon="9.3180521"><ele>222.99999999999997</ele><time>2026-05-01T07:47:48.223Z</time></trkpt><trkpt lat="46.1107532" lon="9.3180135"><ele>223.0</ele><time>2026-05-01T07:47:49.225Z</time></trkpt><trkpt lat="46.1108447" lon="9.3179607"><ele>225.0</ele><time>2026-05-01T07:47:50.22Z</time></trkpt><trkpt lat="46.1109292" lon="9.3178744"><ele>227.0</ele><time>2026-05-01T07:47:51.229Z</time></trkpt><trkpt lat="46.1109952" lon="9.317771"><ele>229.0</ele><time>2026-05-01T07:47:52.222Z</time></trkpt><trkpt lat="46.1110532" lon="9.3176842"><ele>231.0</ele><time>2026-05-01T07:47:53.227Z</time></trkpt><trkpt lat="46.1111044" lon="9.3175974"><ele>233.0</ele><time>2026-05-01T07:47:54.225Z</time></trkpt><trkpt lat="46.1111457" lon="9.3174808"><ele>233.0</ele><time>2026-05-01T07:47:55.224Z</time></trkpt><trkpt lat="46.1112002" lon="9.3174071"><ele>233.0</ele><time>2026-05-01T07:47:56.22Z</time></trkpt><trkpt lat="46.1112622" lon="9.3173277"><ele>233.0</ele><time>2026-05-01T07:47:57.228Z</time></trkpt><trkpt lat="46.1113379" lon="9.3172495"><ele>233.0</ele><time>2026-05-01T07:47:58.232Z</time></trkpt><trkpt lat="46.1114172" lon="9.3171587"><ele>233.0</ele><time>2026-05-01T07:47:59.228Z</time></trkpt><trkpt lat="46.1115027" lon="9.3170598"><ele>234.0</ele><time>2026-05-01T07:48:00.224Z</time></trkpt><trkpt lat="46.1115957" lon="9.3169494"><ele>235.0</ele><time>2026-05-01T07:48:01.238Z</time></trkpt><trkpt lat="46.1116972" lon="9.3168348"><ele>236.0</ele><time>2026-05-01T07:48:02.232Z</time></trkpt><trkpt lat="46.1118084" lon="9.3167329"><ele>237.0</ele><time>2026-05-01T07:48:03.231Z</time></trkpt><trkpt lat="46.111925" lon="9.3166608"><ele>237.0</ele><time>2026-05-01T07:48:04.232Z</time></trkpt><trkpt lat="46.1120467" lon="9.3166183"><ele>237.0</ele><time>2026-05-01T07:48:05.233Z</time></trkpt><trkpt lat="46.1121681" lon="9.3166056"><ele>237.0</ele><time>2026-05-01T07:48:06.227Z</time></trkpt><trkpt lat="46.1122902" lon="9.316616"><ele>237.0</ele><time>2026-05-01T07:48:07.224Z</time></trkpt><trkpt lat="46.1124054" lon="9.3166275"><ele>239.16666666666666</ele><time>2026-05-01T07:48:08.227Z</time></trkpt><trkpt lat="46.112511" lon="9.316642"><ele>241.33333333333331</ele><time>2026-05-01T07:48:09.217Z</time></trkpt><trkpt lat="46.1125968" lon="9.3166534"><ele>243.5</ele><time>2026-05-01T07:48:10.218Z</time></trkpt><trkpt lat="46.1126716" lon="9.3166493"><ele>245.66666666666666</ele><time>2026-05-01T07:48:11.221Z</time></trkpt><trkpt lat="46.1127473" lon="9.3166249"><ele>247.83333333333331</ele><time>2026-05-01T07:48:13.225Z</time></trkpt><trkpt lat="46.112813" lon="9.3165864"><ele>250.0</ele><time>2026-05-01T07:48:16.231Z</time></trkpt><trkpt lat="46.1129206" lon="9.3165343"><ele>250.0</ele><time>2026-05-01T07:48:18.218Z</time></trkpt><trkpt lat="46.1129985" lon="9.3165015"><ele>250.0</ele><time>2026-05-01T07:48:19.226Z</time></trkpt><trkpt lat="46.1130833" lon="9.3164705"><ele>250.0</ele><time>2026-05-01T07:48:20.457Z</time></trkpt><trkpt lat="46.1131781" lon="9.3164475"><ele>250.0</ele><time>2026-05-01T07:48:21.379Z</time></trkpt><trkpt lat="46.1132827" lon="9.3164386"><ele>250.0</ele><time>2026-05-01T07:48:22.374Z</time></trkpt><trkpt lat="46.1133979" lon="9.3164668"><ele>251.0</ele><time>2026-05-01T07:48:23.377Z</time></trkpt><trkpt lat="46.1135197" lon="9.3165681"><ele>252.0</ele><time>2026-05-01T07:48:24.383Z</time></trkpt><trkpt lat="46.1136395" lon="9.3166926"><ele>253.0</ele><time>2026-05-01T07:48:25.543Z</time></trkpt><trkpt lat="46.1137482" lon="9.3167885"><ele>254.0</ele><time>2026-05-01T07:48:26.549Z</time></trkpt><trkpt lat="46.1139106" lon="9.3169975"><ele>254.0</ele><time>2026-05-01T07:48:28.388Z</time></trkpt><trkpt lat="46.1139947" lon="9.3171023"><ele>254.0</ele><time>2026-05-01T07:48:29.398Z</time></trkpt><trkpt lat="46.1141826" lon="9.3173335"><ele>254.0</ele><time>2026-05-01T07:48:31.265Z</time></trkpt><trkpt lat="46.1142701" lon="9.3174695"><ele>254.25</ele><time>2026-05-01T07:48:32.261Z</time></trkpt><trkpt lat="46.1143396" lon="9.3176123"><ele>254.5</ele><time>2026-05-01T07:48:33.265Z</time></trkpt><trkpt lat="46.1143901" lon="9.317761"><ele>254.75</ele><time>2026-05-01T07:48:34.24Z</time></trkpt><trkpt lat="46.1144317" lon="9.3179286"><ele>255.0</ele><time>2026-05-01T07:48:35.237Z</time></trkpt><trkpt lat="46.1144674" lon="9.3180966"><ele>256.0</ele><time>2026-05-01T07:48:36.235Z</time></trkpt><trkpt lat="46.1144978" lon="9.3182644"><ele>257.0</ele><time>2026-05-01T07:48:37.232Z</time></trkpt><trkpt lat="46.1145223" lon="9.3184296"><ele>258.0</ele><time>2026-05-01T07:48:38.242Z</time></trkpt><trkpt lat="46.1145346" lon="9.3185938"><ele>259.0</ele><time>2026-05-01T07:48:39.238Z</time></trkpt><trkpt lat="46.1145435" lon="9.318754"><ele>260.75</ele><time>2026-05-01T07:48:40.279Z</time></trkpt><trkpt lat="46.1145502" lon="9.3189202"><ele>262.5</ele><time>2026-05-01T07:48:41.243Z</time></trkpt><trkpt lat="46.1145551" lon="9.3190986"><ele>264.25</ele><time>2026-05-01T07:48:42.272Z</time></trkpt><trkpt lat="46.1145478" lon="9.3192826"><ele>266.0</ele><time>2026-05-01T07:48:43.264Z</time></trkpt><trkpt lat="46.1145347" lon="9.3194852"><ele>266.0</ele><time>2026-05-01T07:48:44.257Z</time></trkpt><trkpt lat="46.1145043" lon="9.3197232"><ele>266.0</ele><time>2026-05-01T07:48:45.267Z</time></trkpt><trkpt lat="46.1144945" lon="9.3199478"><ele>266.0</ele><time>2026-05-01T07:48:46.261Z</time></trkpt><trkpt lat="46.1145047" lon="9.3201563"><ele>266.25</ele><time>2026-05-01T07:48:47.265Z</time></trkpt><trkpt lat="46.1145037" lon="9.3203588"><ele>266.5</ele><time>2026-05-01T07:48:48.265Z</time></trkpt><trkpt lat="46.1144982" lon="9.3205558"><ele>266.75</ele><time>2026-05-01T07:48:49.269Z</time></trkpt><trkpt lat="46.1144943" lon="9.3207417"><ele>267.0</ele><time>2026-05-01T07:48:50.258Z</time></trkpt><trkpt lat="46.1144866" lon="9.3209257"><ele>267.0</ele><time>2026-05-01T07:48:51.265Z</time></trkpt><trkpt lat="46.1144839" lon="9.3210968"><ele>267.0</ele><time>2026-05-01T07:48:52.256Z</time></trkpt><trkpt lat="46.1144799" lon="9.3212739"><ele>267.0</ele><time>2026-05-01T07:48:53.268Z</time></trkpt><trkpt lat="46.114469" lon="9.321453"><ele>267.0</ele><time>2026-05-01T07:48:54.262Z</time></trkpt><trkpt lat="46.1144595" lon="9.3216349"><ele>267.5</ele><time>2026-05-01T07:48:55.26Z</time></trkpt><trkpt lat="46.1144577" lon="9.321816"><ele>268.0</ele><time>2026-05-01T07:48:56.262Z</time></trkpt><trkpt lat="46.1144594" lon="9.3219965"><ele>268.5</ele><time>2026-05-01T07:48:57.27Z</time></trkpt><trkpt lat="46.1144733" lon="9.3221741"><ele>269.0</ele><time>2026-05-01T07:48:58.266Z</time></trkpt><trkpt lat="46.1144827" lon="9.3223531"><ele>269.25</ele><time>2026-05-01T07:48:59.263Z</time></trkpt><trkpt lat="46.1144921" lon="9.3225289"><ele>269.5</ele><time>2026-05-01T07:49:00.236Z</time></trkpt><trkpt lat="46.1145039" lon="9.3226989"><ele>269.75</ele><time>2026-05-01T07:49:01.263Z</time></trkpt><trkpt lat="46.1145147" lon="9.3228649"><ele>270.0</ele><time>2026-05-01T07:49:02.255Z</time></trkpt><trkpt lat="46.114523" lon="9.3230315"><ele>270.5</ele><time>2026-05-01T07:49:03.236Z</time></trkpt><trkpt lat="46.1145365" lon="9.3232005"><ele>271.0</ele><time>2026-05-01T07:49:04.245Z</time></trkpt><trkpt lat="46.114563" lon="9.3233632"><ele>271.5</ele><time>2026-05-01T07:49:05.23Z</time></trkpt><trkpt lat="46.1146028" lon="9.3235238"><ele>272.0</ele><time>2026-05-01T07:49:06.235Z</time></trkpt><trkpt lat="46.1146427" lon="9.3236806"><ele>272.0</ele><time>2026-05-01T07:49:07.238Z</time></trkpt><trkpt lat="46.1146783" lon="9.3238384"><ele>272.0</ele><time>2026-05-01T07:49:08.233Z</time></trkpt><trkpt lat="46.1147043" lon="9.3239997"><ele>272.0</ele><time>2026-05-01T07:49:09.231Z</time></trkpt><trkpt lat="46.1147181" lon="9.3241597"><ele>272.0</ele><time>2026-05-01T07:49:10.255Z</time></trkpt><trkpt lat="46.1147187" lon="9.3243187"><ele>271.25</ele><time>2026-05-01T07:49:11.39Z</time></trkpt><trkpt lat="46.1146945" lon="9.3246138"><ele>270.5</ele><time>2026-05-01T07:49:13.226Z</time></trkpt><trkpt lat="46.1146629" lon="9.3247463"><ele>269.75</ele><time>2026-05-01T07:49:14.232Z</time></trkpt><trkpt lat="46.114621" lon="9.3248669"><ele>269.0</ele><time>2026-05-01T07:49:15.226Z</time></trkpt><trkpt lat="46.1145752" lon="9.3249753"><ele>266.0</ele><time>2026-05-01T07:49:16.236Z</time></trkpt><trkpt lat="46.1145227" lon="9.3250784"><ele>263.0</ele><time>2026-05-01T07:49:17.236Z</time></trkpt><trkpt lat="46.1144632" lon="9.3251961"><ele>260.0</ele><time>2026-05-01T07:49:18.238Z</time></trkpt><trkpt lat="46.1144059" lon="9.3253258"><ele>257.0</ele><time>2026-05-01T07:49:19.238Z</time></trkpt><trkpt lat="46.1143597" lon="9.325471"><ele>254.0</ele><time>2026-05-01T07:49:20.258Z</time></trkpt><trkpt lat="46.1143208" lon="9.325621"><ele>250.79999999999998</ele><time>2026-05-01T07:49:21.241Z</time></trkpt><trkpt lat="46.1142874" lon="9.3257665"><ele>247.59999999999997</ele><time>2026-05-01T07:49:22.242Z</time></trkpt><trkpt lat="46.1142551" lon="9.3259161"><ele>244.4</ele><time>2026-05-01T07:49:23.244Z</time></trkpt><trkpt lat="46.1142195" lon="9.326066"><ele>241.2</ele><time>2026-05-01T07:49:24.242Z</time></trkpt><trkpt lat="46.1141863" lon="9.3262213"><ele>238.0</ele><time>2026-05-01T07:49:25.241Z</time></trkpt><trkpt lat="46.1141567" lon="9.3263656"><ele>235.60000000000002</ele><time>2026-05-01T07:49:26.245Z</time></trkpt><trkpt lat="46.1141278" lon="9.326495"><ele>233.20000000000002</ele><time>2026-05-01T07:49:27.241Z</time></trkpt><trkpt lat="46.1140972" lon="9.3266211"><ele>230.8</ele><time>2026-05-01T07:49:28.254Z</time></trkpt><trkpt lat="46.1140794" lon="9.32676"><ele>228.4</ele><time>2026-05-01T07:49:29.245Z</time></trkpt><trkpt lat="46.1140631" lon="9.3269128"><ele>226.0</ele><time>2026-05-01T07:49:30.24Z</time></trkpt><trkpt lat="46.1140561" lon="9.3270864"><ele>237.60000000000002</ele><time>2026-05-01T07:49:31.248Z</time></trkpt><trkpt lat="46.1140567" lon="9.3272587"><ele>249.20000000000002</ele><time>2026-05-01T07:49:32.241Z</time></trkpt><trkpt lat="46.1140569" lon="9.3274175"><ele>260.79999999999995</ele><time>2026-05-01T07:49:33.242Z</time></trkpt><trkpt lat="46.1140558" lon="9.3275639"><ele>272.4</ele><time>2026-05-01T07:49:34.244Z</time></trkpt><trkpt lat="46.1140568" lon="9.3277027"><ele>284.0</ele><time>2026-05-01T07:49:35.24Z</time></trkpt><trkpt lat="46.1140577" lon="9.3278452"><ele>284.0</ele><time>2026-05-01T07:49:36.244Z</time></trkpt><trkpt lat="46.1140545" lon="9.3280036"><ele>284.0</ele><time>2026-05-01T07:49:37.248Z</time></trkpt><trkpt lat="46.114067" lon="9.3281638"><ele>284.0</ele><time>2026-05-01T07:49:38.239Z</time></trkpt><trkpt lat="46.1140966" lon="9.3283216"><ele>284.0</ele><time>2026-05-01T07:49:39.243Z</time></trkpt><trkpt lat="46.114148" lon="9.328462"><ele>284.0</ele><time>2026-05-01T07:49:40.236Z</time></trkpt><trkpt lat="46.11422" lon="9.3285996"><ele>271.5</ele><time>2026-05-01T07:49:41.242Z</time></trkpt><trkpt lat="46.1142957" lon="9.3287454"><ele>259.0</ele><time>2026-05-01T07:49:42.243Z</time></trkpt><trkpt lat="46.11435" lon="9.3288945"><ele>246.5</ele><time>2026-05-01T07:49:43.239Z</time></trkpt><trkpt lat="46.1143848" lon="9.3290363"><ele>234.0</ele><time>2026-05-01T07:49:44.241Z</time></trkpt><trkpt lat="46.1143976" lon="9.3291939"><ele>234.0</ele><time>2026-05-01T07:49:45.245Z</time></trkpt><trkpt lat="46.1144001" lon="9.3293646"><ele>233.99999999999997</ele><time>2026-05-01T07:49:46.245Z</time></trkpt><trkpt lat="46.1143985" lon="9.3295271"><ele>233.99999999999997</ele><time>2026-05-01T07:49:47.25Z</time></trkpt><trkpt lat="46.1143936" lon="9.3296837"><ele>234.0</ele><time>2026-05-01T07:49:48.242Z</time></trkpt><trkpt lat="46.1143911" lon="9.3298353"><ele>234.0</ele><time>2026-05-01T07:49:49.253Z</time></trkpt><trkpt lat="46.1143911" lon="9.3299933"><ele>234.6</ele><time>2026-05-01T07:49:50.243Z</time></trkpt><trkpt lat="46.1143917" lon="9.3301426"><ele>235.2</ele><time>2026-05-01T07:49:51.245Z</time></trkpt><trkpt lat="46.114394" lon="9.3302857"><ele>235.79999999999998</ele><time>2026-05-01T07:49:52.247Z</time></trkpt><trkpt lat="46.1143989" lon="9.330422"><ele>236.39999999999998</ele><time>2026-05-01T07:49:53.249Z</time></trkpt><trkpt lat="46.1144046" lon="9.3305703"><ele>237.0</ele><time>2026-05-01T07:49:54.249Z</time></trkpt><trkpt lat="46.1144176" lon="9.3307339"><ele>239.0</ele><time>2026-05-01T07:49:55.247Z</time></trkpt><trkpt lat="46.1144371" lon="9.3309132"><ele>241.0</ele><time>2026-05-01T07:49:56.244Z</time></trkpt><trkpt lat="46.1144763" lon="9.3310958"><ele>243.0</ele><time>2026-05-01T07:49:57.241Z</time></trkpt><trkpt lat="46.1145283" lon="9.3312765"><ele>245.0</ele><time>2026-05-01T07:49:58.24Z</time></trkpt><trkpt lat="46.1145815" lon="9.3314598"><ele>246.75</ele><time>2026-05-01T07:49:59.251Z</time></trkpt><trkpt lat="46.1146365" lon="9.3316325"><ele>248.5</ele><time>2026-05-01T07:50:00.248Z</time></trkpt><trkpt lat="46.1146984" lon="9.3318119"><ele>250.25</ele><time>2026-05-01T07:50:01.281Z</time></trkpt><trkpt lat="46.1147709" lon="9.3320045"><ele>252.0</ele><time>2026-05-01T07:50:02.263Z</time></trkpt><trkpt lat="46.1148428" lon="9.3322031"><ele>256.5</ele><time>2026-05-01T07:50:03.243Z</time></trkpt><trkpt lat="46.1148874" lon="9.3323812"><ele>261.0</ele><time>2026-05-01T07:50:04.243Z</time></trkpt><trkpt lat="46.1149343" lon="9.3325633"><ele>265.5</ele><time>2026-05-01T07:50:05.241Z</time></trkpt><trkpt lat="46.114985" lon="9.3327311"><ele>270.0</ele><time>2026-05-01T07:50:06.264Z</time></trkpt><trkpt lat="46.1150581" lon="9.332885"><ele>264.25</ele><time>2026-05-01T07:50:07.239Z</time></trkpt><trkpt lat="46.1151535" lon="9.3330442"><ele>258.5</ele><time>2026-05-01T07:50:08.266Z</time></trkpt><trkpt lat="46.1152613" lon="9.3331927"><ele>252.75</ele><time>2026-05-01T07:50:09.272Z</time></trkpt><trkpt lat="46.1153417" lon="9.3333634"><ele>247.0</ele><time>2026-05-01T07:50:10.264Z</time></trkpt><trkpt lat="46.1154088" lon="9.3335105"><ele>247.0</ele><time>2026-05-01T07:50:11.268Z</time></trkpt><trkpt lat="46.1154778" lon="9.3336543"><ele>247.0</ele><time>2026-05-01T07:50:12.244Z</time></trkpt><trkpt lat="46.1155416" lon="9.3338015"><ele>247.0</ele><time>2026-05-01T07:50:13.243Z</time></trkpt><trkpt lat="46.1155993" lon="9.3339612"><ele>247.0</ele><time>2026-05-01T07:50:14.245Z</time></trkpt><trkpt lat="46.11566" lon="9.3340946"><ele>246.0</ele><time>2026-05-01T07:50:15.248Z</time></trkpt><trkpt lat="46.1157305" lon="9.3342098"><ele>245.0</ele><time>2026-05-01T07:50:16.24Z</time></trkpt><trkpt lat="46.1157775" lon="9.3343371"><ele>244.0</ele><time>2026-05-01T07:50:17.248Z</time></trkpt><trkpt lat="46.1158231" lon="9.3344732"><ele>243.0</ele><time>2026-05-01T07:50:18.248Z</time></trkpt><trkpt lat="46.1158624" lon="9.3346314"><ele>242.0</ele><time>2026-05-01T07:50:19.239Z</time></trkpt><trkpt lat="46.1158923" lon="9.3348006"><ele>242.0</ele><time>2026-05-01T07:50:20.245Z</time></trkpt><trkpt lat="46.1159094" lon="9.3349776"><ele>242.0</ele><time>2026-05-01T07:50:21.242Z</time></trkpt><trkpt lat="46.1159217" lon="9.3351589"><ele>242.0</ele><time>2026-05-01T07:50:22.237Z</time></trkpt><trkpt lat="46.1159485" lon="9.3353297"><ele>242.0</ele><time>2026-05-01T07:50:23.233Z</time></trkpt><trkpt lat="46.1159874" lon="9.3354843"><ele>246.2</ele><time>2026-05-01T07:50:24.249Z</time></trkpt><trkpt lat="46.1160443" lon="9.3356134"><ele>250.39999999999998</ele><time>2026-05-01T07:50:25.25Z</time></trkpt><trkpt lat="46.1161059" lon="9.3357372"><ele>254.60000000000002</ele><time>2026-05-01T07:50:26.255Z</time></trkpt><trkpt lat="46.1161706" lon="9.3358664"><ele>258.8</ele><time>2026-05-01T07:50:27.261Z</time></trkpt><trkpt lat="46.1162404" lon="9.3359914"><ele>263.0</ele><time>2026-05-01T07:50:28.25Z</time></trkpt><trkpt lat="46.1163094" lon="9.3361195"><ele>263.0</ele><time>2026-05-01T07:50:29.241Z</time></trkpt><trkpt lat="46.1163798" lon="9.3362557"><ele>263.0</ele><time>2026-05-01T07:50:30.258Z</time></trkpt><trkpt lat="46.1164458" lon="9.3364026"><ele>263.0</ele><time>2026-05-01T07:50:31.235Z</time></trkpt><trkpt lat="46.1165136" lon="9.3365541"><ele>263.0</ele><time>2026-05-01T07:50:32.232Z</time></trkpt><trkpt lat="46.1165817" lon="9.3367056"><ele>255.75</ele><time>2026-05-01T07:50:33.237Z</time></trkpt><trkpt lat="46.1166479" lon="9.3368641"><ele>248.5</ele><time>2026-05-01T07:50:34.238Z</time></trkpt><trkpt lat="46.1167066" lon="9.3370254"><ele>241.25</ele><time>2026-05-01T07:50:35.245Z</time></trkpt><trkpt lat="46.1167587" lon="9.3371743"><ele>234.0</ele><time>2026-05-01T07:50:36.245Z</time></trkpt><trkpt lat="46.1168046" lon="9.3373257"><ele>234.0</ele><time>2026-05-01T07:50:37.24Z</time></trkpt><trkpt lat="46.1168475" lon="9.337479"><ele>234.0</ele><time>2026-05-01T07:50:38.245Z</time></trkpt><trkpt lat="46.1168833" lon="9.3376386"><ele>234.0</ele><time>2026-05-01T07:50:39.242Z</time></trkpt><trkpt lat="46.1169187" lon="9.3377947"><ele>234.0</ele><time>2026-05-01T07:50:40.245Z</time></trkpt><trkpt lat="46.1169533" lon="9.3379442"><ele>235.2</ele><time>2026-05-01T07:50:41.246Z</time></trkpt><trkpt lat="46.1169703" lon="9.3381014"><ele>236.39999999999998</ele><time>2026-05-01T07:50:42.24Z</time></trkpt><trkpt lat="46.1169656" lon="9.33826"><ele>237.6</ele><time>2026-05-01T07:50:43.264Z</time></trkpt><trkpt lat="46.1169543" lon="9.3384142"><ele>238.8</ele><time>2026-05-01T07:50:44.258Z</time></trkpt><trkpt lat="46.1169462" lon="9.3385671"><ele>240.0</ele><time>2026-05-01T07:50:45.257Z</time></trkpt><trkpt lat="46.1169353" lon="9.3387217"><ele>240.0</ele><time>2026-05-01T07:50:46.262Z</time></trkpt><trkpt lat="46.1169248" lon="9.3388821"><ele>240.0</ele><time>2026-05-01T07:50:47.237Z</time></trkpt><trkpt lat="46.1169025" lon="9.339054"><ele>240.0</ele><time>2026-05-01T07:50:48.236Z</time></trkpt><trkpt lat="46.1168836" lon="9.3392406"><ele>240.0</ele><time>2026-05-01T07:50:49.238Z</time></trkpt><trkpt lat="46.1168527" lon="9.3394627"><ele>235.0</ele><time>2026-05-01T07:50:50.241Z</time></trkpt><trkpt lat="46.1168124" lon="9.3397373"><ele>230.0</ele><time>2026-05-01T07:50:51.245Z</time></trkpt><trkpt lat="46.1167416" lon="9.3399949"><ele>225.0</ele><time>2026-05-01T07:50:52.239Z</time></trkpt><trkpt lat="46.1167009" lon="9.3402139"><ele>225.0</ele><time>2026-05-01T07:50:53.242Z</time></trkpt><trkpt lat="46.1166487" lon="9.340388"><ele>225.0</ele><time>2026-05-01T07:50:54.253Z</time></trkpt><trkpt lat="46.1166118" lon="9.3405655"><ele>225.0</ele><time>2026-05-01T07:50:55.244Z</time></trkpt><trkpt lat="46.1165635" lon="9.3407496"><ele>225.0</ele><time>2026-05-01T07:50:56.252Z</time></trkpt><trkpt lat="46.1165393" lon="9.3409731"><ele>233.66666666666669</ele><time>2026-05-01T07:50:57.254Z</time></trkpt><trkpt lat="46.1164832" lon="9.3412192"><ele>242.33333333333334</ele><time>2026-05-01T07:50:58.251Z</time></trkpt><trkpt lat="46.1164095" lon="9.3414773"><ele>251.0</ele><time>2026-05-01T07:50:59.254Z</time></trkpt><trkpt lat="46.116369" lon="9.3417651"><ele>251.0</ele><time>2026-05-01T07:51:00.245Z</time></trkpt><trkpt lat="46.1163033" lon="9.3419835"><ele>251.0</ele><time>2026-05-01T07:51:01.241Z</time></trkpt><trkpt lat="46.1162478" lon="9.3422071"><ele>251.0</ele><time>2026-05-01T07:51:02.248Z</time></trkpt><trkpt lat="46.1162222" lon="9.3424331"><ele>248.0</ele><time>2026-05-01T07:51:03.237Z</time></trkpt><trkpt lat="46.1162082" lon="9.3426639"><ele>245.0</ele><time>2026-05-01T07:51:04.235Z</time></trkpt><trkpt lat="46.1161978" lon="9.3429075"><ele>242.0</ele><time>2026-05-01T07:51:05.244Z</time></trkpt><trkpt lat="46.1162099" lon="9.343142"><ele>239.0</ele><time>2026-05-01T07:51:06.244Z</time></trkpt><trkpt lat="46.1162363" lon="9.3433827"><ele>236.0</ele><time>2026-05-01T07:51:07.238Z</time></trkpt><trkpt lat="46.11626" lon="9.3436126"><ele>233.0</ele><time>2026-05-01T07:51:08.245Z</time></trkpt><trkpt lat="46.1162812" lon="9.3438484"><ele>232.33333333333334</ele><time>2026-05-01T07:51:09.248Z</time></trkpt><trkpt lat="46.1163004" lon="9.3440975"><ele>231.66666666666669</ele><time>2026-05-01T07:51:10.241Z</time></trkpt><trkpt lat="46.1163101" lon="9.3443511"><ele>231.0</ele><time>2026-05-01T07:51:11.246Z</time></trkpt><trkpt lat="46.1163304" lon="9.3446042"><ele>234.0</ele><time>2026-05-01T07:51:12.249Z</time></trkpt><trkpt lat="46.116378" lon="9.3448336"><ele>237.0</ele><time>2026-05-01T07:51:13.244Z</time></trkpt><trkpt lat="46.1164048" lon="9.3450497"><ele>240.0</ele><time>2026-05-01T07:51:14.241Z</time></trkpt><trkpt lat="46.1164303" lon="9.3452657"><ele>240.0</ele><time>2026-05-01T07:51:15.245Z</time></trkpt><trkpt lat="46.1164628" lon="9.3455076"><ele>240.0</ele><time>2026-05-01T07:51:16.249Z</time></trkpt><trkpt lat="46.1165354" lon="9.345724"><ele>240.0</ele><time>2026-05-01T07:51:17.248Z</time></trkpt><trkpt lat="46.1166334" lon="9.3459133"><ele>236.0</ele><time>2026-05-01T07:51:18.248Z</time></trkpt><trkpt lat="46.1167354" lon="9.3460904"><ele>232.0</ele><time>2026-05-01T07:51:19.244Z</time></trkpt><trkpt lat="46.1168438" lon="9.3462528"><ele>228.0</ele><time>2026-05-01T07:51:20.241Z</time></trkpt><trkpt lat="46.1169247" lon="9.3464058"><ele>224.0</ele><time>2026-05-01T07:51:21.239Z</time></trkpt><trkpt lat="46.1170191" lon="9.3465717"><ele>224.0</ele><time>2026-05-01T07:51:22.241Z</time></trkpt><trkpt lat="46.1171101" lon="9.3467438"><ele>224.0</ele><time>2026-05-01T07:51:23.246Z</time></trkpt><trkpt lat="46.1171563" lon="9.3469514"><ele>224.0</ele><time>2026-05-01T07:51:24.245Z</time></trkpt><trkpt lat="46.1171954" lon="9.3471433"><ele>224.0</ele><time>2026-05-01T07:51:25.239Z</time></trkpt><trkpt lat="46.1172031" lon="9.3473301"><ele>228.0</ele><time>2026-05-01T07:51:26.253Z</time></trkpt><trkpt lat="46.1172079" lon="9.3475243"><ele>232.0</ele><time>2026-05-01T07:51:27.249Z</time></trkpt><trkpt lat="46.1171636" lon="9.3476952"><ele>236.0</ele><time>2026-05-01T07:51:28.258Z</time></trkpt><trkpt lat="46.1171363" lon="9.3478675"><ele>240.0</ele><time>2026-05-01T07:51:29.274Z</time></trkpt><trkpt lat="46.1171519" lon="9.3480563"><ele>243.5</ele><time>2026-05-01T07:51:30.237Z</time></trkpt><trkpt lat="46.1171959" lon="9.3482356"><ele>247.0</ele><time>2026-05-01T07:51:31.245Z</time></trkpt><trkpt lat="46.1172414" lon="9.3483966"><ele>250.5</ele><time>2026-05-01T07:51:32.241Z</time></trkpt><trkpt lat="46.1173388" lon="9.3485101"><ele>254.0</ele><time>2026-05-01T07:51:33.242Z</time></trkpt><trkpt lat="46.1174542" lon="9.3485963"><ele>244.25</ele><time>2026-05-01T07:51:34.237Z</time></trkpt><trkpt lat="46.1175818" lon="9.3486505"><ele>234.5</ele><time>2026-05-01T07:51:35.238Z</time></trkpt><trkpt lat="46.11772" lon="9.348673"><ele>224.75</ele><time>2026-05-01T07:51:36.264Z</time></trkpt><trkpt lat="46.1178728" lon="9.3486691"><ele>215.0</ele><time>2026-05-01T07:51:37.26Z</time></trkpt><trkpt lat="46.1180673" lon="9.3486233"><ele>213.33333333333334</ele><time>2026-05-01T07:51:38.272Z</time></trkpt><trkpt lat="46.118286" lon="9.3486035"><ele>211.66666666666669</ele><time>2026-05-01T07:51:39.271Z</time></trkpt><trkpt lat="46.1184859" lon="9.3486047"><ele>210.0</ele><time>2026-05-01T07:51:40.26Z</time></trkpt><trkpt lat="46.1186893" lon="9.3486238"><ele>210.0</ele><time>2026-05-01T07:51:41.271Z</time></trkpt><trkpt lat="46.1188698" lon="9.3486863"><ele>210.0</ele><time>2026-05-01T07:51:42.268Z</time></trkpt><trkpt lat="46.1190475" lon="9.3487586"><ele>210.0</ele><time>2026-05-01T07:51:43.26Z</time></trkpt><trkpt lat="46.1191825" lon="9.3488186"><ele>210.5</ele><time>2026-05-01T07:51:44.266Z</time></trkpt><trkpt lat="46.1192641" lon="9.3488791"><ele>211.0</ele><time>2026-05-01T07:51:45.268Z</time></trkpt><trkpt lat="46.1193279" lon="9.3489687"><ele>211.5</ele><time>2026-05-01T07:51:46.27Z</time></trkpt><trkpt lat="46.1193804" lon="9.3490759"><ele>212.0</ele><time>2026-05-01T07:51:47.247Z</time></trkpt><trkpt lat="46.1194022" lon="9.3491721"><ele>212.5</ele><time>2026-05-01T07:51:48.244Z</time></trkpt><trkpt lat="46.1194126" lon="9.3492865"><ele>213.0</ele><time>2026-05-01T07:51:49.251Z</time></trkpt><trkpt lat="46.1194434" lon="9.3493985"><ele>213.0</ele><time>2026-05-01T07:51:50.246Z</time></trkpt><trkpt lat="46.119485" lon="9.3494904"><ele>213.0</ele><time>2026-05-01T07:51:51.267Z</time></trkpt><trkpt lat="46.1195479" lon="9.3495136"><ele>213.0</ele><time>2026-05-01T07:51:52.264Z</time></trkpt><trkpt lat="46.1196202" lon="9.3494576"><ele>213.0</ele><time>2026-05-01T07:51:53.263Z</time></trkpt><trkpt lat="46.1196998" lon="9.3493604"><ele>213.0</ele><time>2026-05-01T07:51:54.272Z</time></trkpt><trkpt lat="46.1197877" lon="9.3492703"><ele>213.0</ele><time>2026-05-01T07:51:55.286Z</time></trkpt><trkpt lat="46.1198969" lon="9.3492163"><ele>213.0</ele><time>2026-05-01T07:51:56.3Z</time></trkpt><trkpt lat="46.120031" lon="9.3492048"><ele>213.0</ele><time>2026-05-01T07:51:57.291Z</time></trkpt><trkpt lat="46.120185" lon="9.3492334"><ele>213.0</ele><time>2026-05-01T07:51:58.268Z</time></trkpt><trkpt lat="46.1203906" lon="9.3492874"><ele>213.0</ele><time>2026-05-01T07:51:59.278Z</time></trkpt><trkpt lat="46.1205556" lon="9.3493557"><ele>213.0</ele><time>2026-05-01T07:52:00.274Z</time></trkpt><trkpt lat="46.1207194" lon="9.3494178"><ele>213.0</ele><time>2026-05-01T07:52:01.272Z</time></trkpt><trkpt lat="46.1208844" lon="9.3494923"><ele>212.0</ele><time>2026-05-01T07:52:02.275Z</time></trkpt><trkpt lat="46.1210575" lon="9.3495524"><ele>211.0</ele><time>2026-05-01T07:52:03.269Z</time></trkpt><trkpt lat="46.1212358" lon="9.3496165"><ele>210.0</ele><time>2026-05-01T07:52:04.273Z</time></trkpt><trkpt lat="46.1214209" lon="9.3496861"><ele>211.0</ele><time>2026-05-01T07:52:05.27Z</time></trkpt><trkpt lat="46.1215969" lon="9.3497419"><ele>212.0</ele><time>2026-05-01T07:52:06.274Z</time></trkpt><trkpt lat="46.1217607" lon="9.3498174"><ele>213.0</ele><time>2026-05-01T07:52:07.266Z</time></trkpt><trkpt lat="46.1219174" lon="9.3498803"><ele>213.0</ele><time>2026-05-01T07:52:08.276Z</time></trkpt><trkpt lat="46.1220771" lon="9.3499483"><ele>213.0</ele><time>2026-05-01T07:52:09.279Z</time></trkpt><trkpt lat="46.1222323" lon="9.3500053"><ele>213.0</ele><time>2026-05-01T07:52:10.271Z</time></trkpt><trkpt lat="46.122377" lon="9.3500618"><ele>212.66666666666669</ele><time>2026-05-01T07:52:11.279Z</time></trkpt><trkpt lat="46.1225291" lon="9.3501162"><ele>212.33333333333334</ele><time>2026-05-01T07:52:12.297Z</time></trkpt><trkpt lat="46.1226822" lon="9.3501643"><ele>212.0</ele><time>2026-05-01T07:52:13.276Z</time></trkpt><trkpt lat="46.1228433" lon="9.3502189"><ele>212.0</ele><time>2026-05-01T07:52:14.281Z</time></trkpt><trkpt lat="46.1230099" lon="9.3502887"><ele>212.0</ele><time>2026-05-01T07:52:15.265Z</time></trkpt><trkpt lat="46.1231793" lon="9.3503453"><ele>212.0</ele><time>2026-05-01T07:52:16.273Z</time></trkpt><trkpt lat="46.1233366" lon="9.350424"><ele>211.66666666666669</ele><time>2026-05-01T07:52:17.278Z</time></trkpt><trkpt lat="46.1235004" lon="9.3504925"><ele>211.33333333333331</ele><time>2026-05-01T07:52:18.275Z</time></trkpt><trkpt lat="46.1236419" lon="9.3505718"><ele>211.0</ele><time>2026-05-01T07:52:19.276Z</time></trkpt><trkpt lat="46.1237674" lon="9.3506427"><ele>211.5</ele><time>2026-05-01T07:52:20.279Z</time></trkpt><trkpt lat="46.1238867" lon="9.350695"><ele>212.0</ele><time>2026-05-01T07:52:21.27Z</time></trkpt><trkpt lat="46.1240214" lon="9.3507199"><ele>212.5</ele><time>2026-05-01T07:52:22.278Z</time></trkpt><trkpt lat="46.1241487" lon="9.3507647"><ele>213.0</ele><time>2026-05-01T07:52:23.279Z</time></trkpt><trkpt lat="46.1242959" lon="9.3508159"><ele>213.0</ele><time>2026-05-01T07:52:24.276Z</time></trkpt><trkpt lat="46.1244407" lon="9.3508533"><ele>213.0</ele><time>2026-05-01T07:52:25.285Z</time></trkpt><trkpt lat="46.1245675" lon="9.3509031"><ele>213.0</ele><time>2026-05-01T07:52:26.277Z</time></trkpt><trkpt lat="46.124697" lon="9.3509457"><ele>213.0</ele><time>2026-05-01T07:52:27.273Z</time></trkpt><trkpt lat="46.1248293" lon="9.3509935"><ele>212.75</ele><time>2026-05-01T07:52:28.283Z</time></trkpt><trkpt lat="46.1249592" lon="9.3510487"><ele>212.5</ele><time>2026-05-01T07:52:29.281Z</time></trkpt><trkpt lat="46.1250989" lon="9.3511034"><ele>212.25</ele><time>2026-05-01T07:52:30.269Z</time></trkpt><trkpt lat="46.12523" lon="9.3512075"><ele>212.0</ele><time>2026-05-01T07:52:31.274Z</time></trkpt><trkpt lat="46.1253547" lon="9.3513387"><ele>212.0</ele><time>2026-05-01T07:52:32.267Z</time></trkpt><trkpt lat="46.1254553" lon="9.351479"><ele>212.0</ele><time>2026-05-01T07:52:33.265Z</time></trkpt><trkpt lat="46.1255486" lon="9.3516388"><ele>212.0</ele><time>2026-05-01T07:52:34.249Z</time></trkpt><trkpt lat="46.1256592" lon="9.3517913"><ele>212.0</ele><time>2026-05-01T07:52:35.251Z</time></trkpt><trkpt lat="46.1257817" lon="9.351949"><ele>212.0</ele><time>2026-05-01T07:52:36.244Z</time></trkpt><trkpt lat="46.1259095" lon="9.3520973"><ele>212.0</ele><time>2026-05-01T07:52:37.25Z</time></trkpt><trkpt lat="46.1260257" lon="9.3522543"><ele>212.0</ele><time>2026-05-01T07:52:38.254Z</time></trkpt><trkpt lat="46.1261471" lon="9.3524136"><ele>212.33333333333334</ele><time>2026-05-01T07:52:39.254Z</time></trkpt><trkpt lat="46.1262679" lon="9.3525778"><ele>212.66666666666669</ele><time>2026-05-01T07:52:40.253Z</time></trkpt><trkpt lat="46.1263815" lon="9.3527382"><ele>213.0</ele><time>2026-05-01T07:52:41.252Z</time></trkpt><trkpt lat="46.1265151" lon="9.3528812"><ele>212.66666666666669</ele><time>2026-05-01T07:52:42.256Z</time></trkpt><trkpt lat="46.1266321" lon="9.3530194"><ele>212.33333333333334</ele><time>2026-05-01T07:52:43.277Z</time></trkpt><trkpt lat="46.1267391" lon="9.3531737"><ele>212.0</ele><time>2026-05-01T07:52:44.25Z</time></trkpt><trkpt lat="46.1268462" lon="9.3533281"><ele>213.0</ele><time>2026-05-01T07:52:45.254Z</time></trkpt><trkpt lat="46.1269581" lon="9.353485"><ele>214.0</ele><time>2026-05-01T07:52:46.257Z</time></trkpt><trkpt lat="46.1270667" lon="9.3536413"><ele>215.0</ele><time>2026-05-01T07:52:47.25Z</time></trkpt><trkpt lat="46.1271928" lon="9.3537814"><ele>215.5</ele><time>2026-05-01T07:52:48.247Z</time></trkpt><trkpt lat="46.127286" lon="9.3539265"><ele>216.0</ele><time>2026-05-01T07:52:49.252Z</time></trkpt><trkpt lat="46.1273831" lon="9.3540676"><ele>216.5</ele><time>2026-05-01T07:52:50.254Z</time></trkpt><trkpt lat="46.1274892" lon="9.3541969"><ele>217.0</ele><time>2026-05-01T07:52:51.244Z</time></trkpt><trkpt lat="46.1275857" lon="9.3543311"><ele>217.0</ele><time>2026-05-01T07:52:52.25Z</time></trkpt><trkpt lat="46.1276871" lon="9.354463"><ele>217.0</ele><time>2026-05-01T07:52:53.248Z</time></trkpt><trkpt lat="46.1277892" lon="9.3545904"><ele>217.0</ele><time>2026-05-01T07:52:54.25Z</time></trkpt><trkpt lat="46.1278936" lon="9.3547206"><ele>217.0</ele><time>2026-05-01T07:52:55.249Z</time></trkpt><trkpt lat="46.1279951" lon="9.3548575"><ele>217.0</ele><time>2026-05-01T07:52:56.253Z</time></trkpt><trkpt lat="46.1281048" lon="9.354992"><ele>217.0</ele><time>2026-05-01T07:52:57.245Z</time></trkpt><trkpt lat="46.128215" lon="9.3551222"><ele>217.0</ele><time>2026-05-01T07:52:58.256Z</time></trkpt><trkpt lat="46.1283198" lon="9.3552553"><ele>217.0</ele><time>2026-05-01T07:52:59.25Z</time></trkpt><trkpt lat="46.1284234" lon="9.3553943"><ele>217.0</ele><time>2026-05-01T07:53:00.244Z</time></trkpt><trkpt lat="46.1285303" lon="9.3555272"><ele>217.0</ele><time>2026-05-01T07:53:01.259Z</time></trkpt><trkpt lat="46.1286339" lon="9.3556655"><ele>217.0</ele><time>2026-05-01T07:53:02.25Z</time></trkpt><trkpt lat="46.1287298" lon="9.3558111"><ele>217.0</ele><time>2026-05-01T07:53:03.248Z</time></trkpt><trkpt lat="46.1288334" lon="9.3559435"><ele>217.5</ele><time>2026-05-01T07:53:04.257Z</time></trkpt><trkpt lat="46.1289427" lon="9.3560792"><ele>218.0</ele><time>2026-05-01T07:53:05.248Z</time></trkpt><trkpt lat="46.1290388" lon="9.3562215"><ele>218.5</ele><time>2026-05-01T07:53:06.25Z</time></trkpt><trkpt lat="46.1291333" lon="9.3563729"><ele>219.0</ele><time>2026-05-01T07:53:07.248Z</time></trkpt><trkpt lat="46.1292261" lon="9.3565322"><ele>219.0</ele><time>2026-05-01T07:53:08.246Z</time></trkpt><trkpt lat="46.1293167" lon="9.3566905"><ele>219.0</ele><time>2026-05-01T07:53:09.254Z</time></trkpt><trkpt lat="46.1294018" lon="9.3568622"><ele>219.0</ele><time>2026-05-01T07:53:10.252Z</time></trkpt><trkpt lat="46.1295" lon="9.3570344"><ele>219.0</ele><time>2026-05-01T07:53:11.275Z</time></trkpt><trkpt lat="46.1295933" lon="9.3572098"><ele>219.5</ele><time>2026-05-01T07:53:12.271Z</time></trkpt><trkpt lat="46.1296846" lon="9.3573838"><ele>220.0</ele><time>2026-05-01T07:53:13.27Z</time></trkpt><trkpt lat="46.1297627" lon="9.357561"><ele>220.5</ele><time>2026-05-01T07:53:14.273Z</time></trkpt><trkpt lat="46.1298287" lon="9.3577548"><ele>221.0</ele><time>2026-05-01T07:53:15.267Z</time></trkpt><trkpt lat="46.1299055" lon="9.3579441"><ele>219.33333333333334</ele><time>2026-05-01T07:53:16.275Z</time></trkpt><trkpt lat="46.1299853" lon="9.3581313"><ele>217.66666666666669</ele><time>2026-05-01T07:53:17.284Z</time></trkpt><trkpt lat="46.1300803" lon="9.3583564"><ele>216.0</ele><time>2026-05-01T07:53:18.269Z</time></trkpt><trkpt lat="46.1301803" lon="9.3586041"><ele>216.0</ele><time>2026-05-01T07:53:19.273Z</time></trkpt><trkpt lat="46.130277" lon="9.3588617"><ele>216.0</ele><time>2026-05-01T07:53:20.276Z</time></trkpt><trkpt lat="46.1303614" lon="9.3591386"><ele>216.0</ele><time>2026-05-01T07:53:21.273Z</time></trkpt><trkpt lat="46.1304409" lon="9.3594028"><ele>216.33333333333331</ele><time>2026-05-01T07:53:22.278Z</time></trkpt><trkpt lat="46.1305328" lon="9.3596528"><ele>216.66666666666666</ele><time>2026-05-01T07:53:23.256Z</time></trkpt><trkpt lat="46.1306214" lon="9.359886"><ele>217.0</ele><time>2026-05-01T07:53:24.25Z</time></trkpt><trkpt lat="46.1307035" lon="9.3601175"><ele>216.66666666666666</ele><time>2026-05-01T07:53:25.255Z</time></trkpt><trkpt lat="46.130774" lon="9.3603467"><ele>216.33333333333331</ele><time>2026-05-01T07:53:26.25Z</time></trkpt><trkpt lat="46.1308479" lon="9.3605656"><ele>216.0</ele><time>2026-05-01T07:53:27.252Z</time></trkpt><trkpt lat="46.1309318" lon="9.3607706"><ele>216.5</ele><time>2026-05-01T07:53:28.253Z</time></trkpt><trkpt lat="46.1310101" lon="9.3609689"><ele>217.0</ele><time>2026-05-01T07:53:29.259Z</time></trkpt><trkpt lat="46.1310748" lon="9.361157"><ele>217.5</ele><time>2026-05-01T07:53:30.253Z</time></trkpt><trkpt lat="46.1311299" lon="9.3613379"><ele>218.0</ele><time>2026-05-01T07:53:31.255Z</time></trkpt><trkpt lat="46.1311912" lon="9.361518"><ele>218.0</ele><time>2026-05-01T07:53:32.25Z</time></trkpt><trkpt lat="46.1312621" lon="9.361694"><ele>218.0</ele><time>2026-05-01T07:53:33.255Z</time></trkpt><trkpt lat="46.1313266" lon="9.3618824"><ele>218.0</ele><time>2026-05-01T07:53:34.252Z</time></trkpt><trkpt lat="46.1313986" lon="9.362075"><ele>218.0</ele><time>2026-05-01T07:53:35.255Z</time></trkpt><trkpt lat="46.1314617" lon="9.3622676"><ele>218.5</ele><time>2026-05-01T07:53:36.246Z</time></trkpt><trkpt lat="46.1315308" lon="9.3624496"><ele>219.0</ele><time>2026-05-01T07:53:37.252Z</time></trkpt><trkpt lat="46.1316006" lon="9.3626323"><ele>219.5</ele><time>2026-05-01T07:53:38.249Z</time></trkpt><trkpt lat="46.131662" lon="9.3628187"><ele>220.0</ele><time>2026-05-01T07:53:39.249Z</time></trkpt><trkpt lat="46.131725" lon="9.3629937"><ele>218.25</ele><time>2026-05-01T07:53:40.257Z</time></trkpt><trkpt lat="46.1317978" lon="9.3631725"><ele>216.5</ele><time>2026-05-01T07:53:41.256Z</time></trkpt><trkpt lat="46.1318695" lon="9.3633517"><ele>214.75</ele><time>2026-05-01T07:53:42.246Z</time></trkpt><trkpt lat="46.1319372" lon="9.3635278"><ele>213.0</ele><time>2026-05-01T07:53:43.252Z</time></trkpt><trkpt lat="46.131997" lon="9.3636988"><ele>213.0</ele><time>2026-05-01T07:53:44.254Z</time></trkpt><trkpt lat="46.132051" lon="9.3638462"><ele>213.0</ele><time>2026-05-01T07:53:45.248Z</time></trkpt><trkpt lat="46.1321037" lon="9.3639949"><ele>213.0</ele><time>2026-05-01T07:53:46.26Z</time></trkpt><trkpt lat="46.1321542" lon="9.3641371"><ele>213.0</ele><time>2026-05-01T07:53:47.258Z</time></trkpt><trkpt lat="46.1322047" lon="9.3642759"><ele>213.33333333333334</ele><time>2026-05-01T07:53:48.251Z</time></trkpt><trkpt lat="46.1322359" lon="9.3643779"><ele>213.66666666666669</ele><time>2026-05-01T07:53:49.258Z</time></trkpt><trkpt lat="46.1322607" lon="9.364475"><ele>214.0</ele><time>2026-05-01T07:53:51.255Z</time></trkpt><trkpt lat="46.1322871" lon="9.3645834"><ele>214.33333333333334</ele><time>2026-05-01T07:53:53.259Z</time></trkpt><trkpt lat="46.1323152" lon="9.3647447"><ele>214.66666666666669</ele><time>2026-05-01T07:53:55.248Z</time></trkpt><trkpt lat="46.1323422" lon="9.3648447"><ele>215.0</ele><time>2026-05-01T07:53:56.251Z</time></trkpt><trkpt lat="46.132391" lon="9.3649418"><ele>215.0</ele><time>2026-05-01T07:53:57.246Z</time></trkpt><trkpt lat="46.1324465" lon="9.3650426"><ele>215.0</ele><time>2026-05-01T07:53:58.249Z</time></trkpt><trkpt lat="46.1325089" lon="9.3651636"><ele>215.0</ele><time>2026-05-01T07:53:59.26Z</time></trkpt><trkpt lat="46.132573" lon="9.3653109"><ele>215.0</ele><time>2026-05-01T07:54:00.253Z</time></trkpt><trkpt lat="46.1326339" lon="9.3654701"><ele>215.0</ele><time>2026-05-01T07:54:01.286Z</time></trkpt><trkpt lat="46.1326966" lon="9.365633"><ele>215.25</ele><time>2026-05-01T07:54:02.276Z</time></trkpt><trkpt lat="46.1327571" lon="9.3658048"><ele>215.5</ele><time>2026-05-01T07:54:03.275Z</time></trkpt><trkpt lat="46.1328199" lon="9.365988"><ele>215.75</ele><time>2026-05-01T07:54:04.276Z</time></trkpt><trkpt lat="46.1328858" lon="9.3661955"><ele>216.0</ele><time>2026-05-01T07:54:05.279Z</time></trkpt><trkpt lat="46.132961" lon="9.3663813"><ele>215.75</ele><time>2026-05-01T07:54:06.276Z</time></trkpt><trkpt lat="46.1330414" lon="9.3665549"><ele>215.5</ele><time>2026-05-01T07:54:07.254Z</time></trkpt><trkpt lat="46.1331315" lon="9.3667273"><ele>215.25</ele><time>2026-05-01T07:54:08.255Z</time></trkpt><trkpt lat="46.1332288" lon="9.3668771"><ele>215.0</ele><time>2026-05-01T07:54:09.275Z</time></trkpt><trkpt lat="46.1333372" lon="9.36702"><ele>215.0</ele><time>2026-05-01T07:54:10.279Z</time></trkpt><trkpt lat="46.1334307" lon="9.3671683"><ele>215.0</ele><time>2026-05-01T07:54:11.279Z</time></trkpt><trkpt lat="46.1335199" lon="9.3673219"><ele>215.0</ele><time>2026-05-01T07:54:12.255Z</time></trkpt><trkpt lat="46.1336083" lon="9.3674586"><ele>215.0</ele><time>2026-05-01T07:54:13.261Z</time></trkpt><trkpt lat="46.1336894" lon="9.3676192"><ele>215.5</ele><time>2026-05-01T07:54:14.257Z</time></trkpt><trkpt lat="46.1337757" lon="9.3677679"><ele>216.0</ele><time>2026-05-01T07:54:15.249Z</time></trkpt><trkpt lat="46.133859" lon="9.3679055"><ele>216.5</ele><time>2026-05-01T07:54:16.263Z</time></trkpt><trkpt lat="46.1339436" lon="9.3680414"><ele>217.0</ele><time>2026-05-01T07:54:17.255Z</time></trkpt><trkpt lat="46.1340345" lon="9.3681787"><ele>215.75</ele><time>2026-05-01T07:54:18.253Z</time></trkpt><trkpt lat="46.134108" lon="9.3683134"><ele>214.5</ele><time>2026-05-01T07:54:19.258Z</time></trkpt><trkpt lat="46.1341928" lon="9.3684436"><ele>213.25</ele><time>2026-05-01T07:54:20.256Z</time></trkpt><trkpt lat="46.1342776" lon="9.3685756"><ele>212.0</ele><time>2026-05-01T07:54:21.249Z</time></trkpt><trkpt lat="46.1343617" lon="9.3687069"><ele>212.0</ele><time>2026-05-01T07:54:22.259Z</time></trkpt><trkpt lat="46.1344397" lon="9.3688349"><ele>212.0</ele><time>2026-05-01T07:54:23.254Z</time></trkpt><trkpt lat="46.134516" lon="9.3689605"><ele>212.0</ele><time>2026-05-01T07:54:24.248Z</time></trkpt><trkpt lat="46.1345934" lon="9.3690908"><ele>212.0</ele><time>2026-05-01T07:54:25.256Z</time></trkpt><trkpt lat="46.1346721" lon="9.3692234"><ele>212.0</ele><time>2026-05-01T07:54:26.257Z</time></trkpt><trkpt lat="46.1347484" lon="9.3693651"><ele>212.0</ele><time>2026-05-01T07:54:27.248Z</time></trkpt><trkpt lat="46.1348201" lon="9.3695131"><ele>212.0</ele><time>2026-05-01T07:54:28.262Z</time></trkpt><trkpt lat="46.1348935" lon="9.3696645"><ele>212.0</ele><time>2026-05-01T07:54:29.254Z</time></trkpt><trkpt lat="46.1349612" lon="9.3698173"><ele>212.2</ele><time>2026-05-01T07:54:30.253Z</time></trkpt><trkpt lat="46.1350224" lon="9.3699544"><ele>212.39999999999998</ele><time>2026-05-01T07:54:31.252Z</time></trkpt><trkpt lat="46.1350796" lon="9.3700841"><ele>212.60000000000002</ele><time>2026-05-01T07:54:32.253Z</time></trkpt><trkpt lat="46.135138" lon="9.3702049"><ele>212.8</ele><time>2026-05-01T07:54:33.251Z</time></trkpt><trkpt lat="46.1351915" lon="9.3703179"><ele>213.0</ele><time>2026-05-01T07:54:34.252Z</time></trkpt><trkpt lat="46.1352445" lon="9.3704199"><ele>213.0</ele><time>2026-05-01T07:54:35.25Z</time></trkpt><trkpt lat="46.1352947" lon="9.3705208"><ele>213.0</ele><time>2026-05-01T07:54:36.27Z</time></trkpt><trkpt lat="46.1353356" lon="9.3706073"><ele>213.0</ele><time>2026-05-01T07:54:37.246Z</time></trkpt><trkpt lat="46.1353826" lon="9.3707181"><ele>213.0</ele><time>2026-05-01T07:54:39.246Z</time></trkpt><trkpt lat="46.135403" lon="9.370849"><ele>213.0</ele><time>2026-05-01T07:54:43.255Z</time></trkpt><trkpt lat="46.1354654" lon="9.3709765"><ele>212.83333333333334</ele><time>2026-05-01T07:54:45.247Z</time></trkpt><trkpt lat="46.1355622" lon="9.371094"><ele>212.66666666666669</ele><time>2026-05-01T07:54:47.294Z</time></trkpt><trkpt lat="46.1356067" lon="9.3711748"><ele>212.5</ele><time>2026-05-01T07:54:48.27Z</time></trkpt><trkpt lat="46.1356441" lon="9.3712648"><ele>212.33333333333334</ele><time>2026-05-01T07:54:49.273Z</time></trkpt><trkpt lat="46.1356819" lon="9.3713576"><ele>212.16666666666669</ele><time>2026-05-01T07:54:50.275Z</time></trkpt><trkpt lat="46.1357257" lon="9.371455"><ele>212.0</ele><time>2026-05-01T07:54:51.266Z</time></trkpt><trkpt lat="46.1357755" lon="9.3715595"><ele>212.00000000000003</ele><time>2026-05-01T07:54:52.258Z</time></trkpt><trkpt lat="46.1358192" lon="9.3716688"><ele>212.0</ele><time>2026-05-01T07:54:53.278Z</time></trkpt><trkpt lat="46.1358559" lon="9.3717689"><ele>212.0</ele><time>2026-05-01T07:54:54.252Z</time></trkpt><trkpt lat="46.1358899" lon="9.3718541"><ele>212.0</ele><time>2026-05-01T07:54:55.254Z</time></trkpt><trkpt lat="46.1359239" lon="9.3719361"><ele>212.00000000000003</ele><time>2026-05-01T07:54:56.255Z</time></trkpt><trkpt lat="46.1359886" lon="9.3720573"><ele>212.0</ele><time>2026-05-01T07:54:58.258Z</time></trkpt><trkpt lat="46.1360785" lon="9.3720216"><ele>212.00000000000003</ele><time>2026-05-01T07:55:00.268Z</time></trkpt><trkpt lat="46.136139" lon="9.371916"><ele>212.0</ele><time>2026-05-01T07:55:02.273Z</time></trkpt><trkpt lat="46.1361877" lon="9.3718205"><ele>212.0</ele><time>2026-05-01T07:55:04.271Z</time></trkpt><trkpt lat="46.1362362" lon="9.3717493"><ele>212.0</ele><time>2026-05-01T07:55:14.29Z</time></trkpt><trkpt lat="46.1362925" lon="9.3716853"><ele>212.00000000000003</ele><time>2026-05-01T07:55:18.285Z</time></trkpt><trkpt lat="46.1363626" lon="9.3717042"><ele>212.0</ele><time>2026-05-01T07:55:22.285Z</time></trkpt><trkpt lat="46.1364084" lon="9.3717892"><ele>212.0</ele><time>2026-05-01T07:55:24.28Z</time></trkpt><trkpt lat="46.1364508" lon="9.371883"><ele>212.0</ele><time>2026-05-01T07:55:27.291Z</time></trkpt><trkpt lat="46.1365106" lon="9.3720392"><ele>212.0</ele><time>2026-05-01T07:55:30.282Z</time></trkpt><trkpt lat="46.1365621" lon="9.3721426"><ele>212.0</ele><time>2026-05-01T07:55:31.282Z</time></trkpt><trkpt lat="46.1366216" lon="9.3722433"><ele>212.0</ele><time>2026-05-01T07:55:32.275Z</time></trkpt><trkpt lat="46.1366759" lon="9.3723372"><ele>211.50000000000003</ele><time>2026-05-01T07:55:33.279Z</time></trkpt><trkpt lat="46.1367317" lon="9.3724235"><ele>211.0</ele><time>2026-05-01T07:55:34.28Z</time></trkpt><trkpt lat="46.136781" lon="9.3725107"><ele>210.5</ele><time>2026-05-01T07:55:35.284Z</time></trkpt><trkpt lat="46.1368208" lon="9.3725898"><ele>210.0</ele><time>2026-05-01T07:55:36.281Z</time></trkpt><trkpt lat="46.1368694" lon="9.372701"><ele>209.50000000000003</ele><time>2026-05-01T07:55:38.264Z</time></trkpt><trkpt lat="46.1369157" lon="9.372774"><ele>209.0</ele><time>2026-05-01T07:55:42.284Z</time></trkpt><trkpt lat="46.1368999" lon="9.3726571"><ele>209.00000000000003</ele><time>2026-05-01T07:56:01.315Z</time></trkpt><trkpt lat="46.1368535" lon="9.3725606"><ele>209.0</ele><time>2026-05-01T07:56:03.31Z</time></trkpt><trkpt lat="46.1368224" lon="9.3724669"><ele>209.0</ele><time>2026-05-01T07:56:04.297Z</time></trkpt><trkpt lat="46.1367831" lon="9.3723714"><ele>209.0</ele><time>2026-05-01T07:56:05.276Z</time></trkpt><trkpt lat="46.1367339" lon="9.3722642"><ele>209.00000000000003</ele><time>2026-05-01T07:56:06.272Z</time></trkpt><trkpt lat="46.1366821" lon="9.3721467"><ele>209.0</ele><time>2026-05-01T07:56:07.279Z</time></trkpt><trkpt lat="46.1366308" lon="9.3720304"><ele>208.66666666666669</ele><time>2026-05-01T07:56:08.252Z</time></trkpt><trkpt lat="46.1365851" lon="9.3719214"><ele>208.33333333333334</ele><time>2026-05-01T07:56:09.245Z</time></trkpt><trkpt lat="46.1365451" lon="9.3718298"><ele>208.0</ele><time>2026-05-01T07:56:10.248Z</time></trkpt><trkpt lat="46.136486" lon="9.3716915"><ele>207.66666666666669</ele><time>2026-05-01T07:56:12.251Z</time></trkpt><trkpt lat="46.1364598" lon="9.3715882"><ele>207.33333333333334</ele><time>2026-05-01T07:56:14.26Z</time></trkpt><trkpt lat="46.1364146" lon="9.3714961"><ele>207.0</ele><time>2026-05-01T07:56:25.273Z</time></trkpt><trkpt lat="46.1363258" lon="9.3715535"><ele>207.71428571428572</ele><time>2026-05-01T07:56:27.252Z</time></trkpt><trkpt lat="46.1362663" lon="9.371614"><ele>208.42857142857144</ele><time>2026-05-01T07:56:28.26Z</time></trkpt><trkpt lat="46.1361853" lon="9.3717085"><ele>209.14285714285717</ele><time>2026-05-01T07:56:30.253Z</time></trkpt><trkpt lat="46.1361435" lon="9.3717798"><ele>209.85714285714286</ele><time>2026-05-01T07:56:45.268Z</time></trkpt><trkpt lat="46.1360806" lon="9.3718224"><ele>210.57142857142856</ele><time>2026-05-01T07:57:00.281Z</time></trkpt><trkpt lat="46.13602" lon="9.3717913"><ele>211.2857142857143</ele><time>2026-05-01T07:57:03.259Z</time></trkpt><trkpt lat="46.1359765" lon="9.3717103"><ele>212.0</ele><time>2026-05-01T07:57:04.278Z</time></trkpt><trkpt lat="46.1359401" lon="9.3716248"><ele>212.00000000000003</ele><time>2026-05-01T07:57:05.247Z</time></trkpt><trkpt lat="46.1358965" lon="9.3715376"><ele>212.0</ele><time>2026-05-01T07:57:06.246Z</time></trkpt><trkpt lat="46.1358427" lon="9.3714504"><ele>212.0</ele><time>2026-05-01T07:57:07.259Z</time></trkpt><trkpt lat="46.1357839" lon="9.3713589"><ele>212.0</ele><time>2026-05-01T07:57:09.257Z</time></trkpt><trkpt lat="46.135745" lon="9.3712868"><ele>212.00000000000003</ele><time>2026-05-01T07:57:12.283Z</time></trkpt><trkpt lat="46.1356985" lon="9.3711838"><ele>212.0</ele><time>2026-05-01T07:57:15.288Z</time></trkpt><trkpt lat="46.1356619" lon="9.3710798"><ele>211.66666666666669</ele><time>2026-05-01T07:57:17.269Z</time></trkpt><trkpt lat="46.1356256" lon="9.3709805"><ele>211.33333333333334</ele><time>2026-05-01T07:57:19.26Z</time></trkpt><trkpt lat="46.1355917" lon="9.3708893"><ele>211.0</ele><time>2026-05-01T07:57:21.268Z</time></trkpt><trkpt lat="46.1355718" lon="9.3708024"><ele>210.66666666666669</ele><time>2026-05-01T07:57:23.266Z</time></trkpt><trkpt lat="46.135646" lon="9.3706842"><ele>210.33333333333334</ele><time>2026-05-01T07:57:26.266Z</time></trkpt><trkpt lat="46.1357118" lon="9.370621"><ele>210.0</ele><time>2026-05-01T07:57:27.253Z</time></trkpt><trkpt lat="46.135799" lon="9.3705533"><ele>209.6</ele><time>2026-05-01T07:57:28.253Z</time></trkpt><trkpt lat="46.1358884" lon="9.3704856"><ele>209.2</ele><time>2026-05-01T07:57:29.256Z</time></trkpt><trkpt lat="46.1359735" lon="9.3704137"><ele>208.8</ele><time>2026-05-01T07:57:30.259Z</time></trkpt><trkpt lat="46.136053" lon="9.3703483"><ele>208.4</ele><time>2026-05-01T07:57:31.258Z</time></trkpt><trkpt lat="46.136129" lon="9.3702814"><ele>208.0</ele><time>2026-05-01T07:57:32.257Z</time></trkpt><trkpt lat="46.1362027" lon="9.3702188"><ele>207.99999999999997</ele><time>2026-05-01T07:57:33.256Z</time></trkpt><trkpt lat="46.1362693" lon="9.3701556"><ele>208.0</ele><time>2026-05-01T07:57:34.257Z</time></trkpt><trkpt lat="46.1363342" lon="9.3700937"><ele>208.0</ele><time>2026-05-01T07:57:35.257Z</time></trkpt><trkpt lat="46.1363987" lon="9.3700282"><ele>208.0</ele><time>2026-05-01T07:57:36.257Z</time></trkpt><trkpt lat="46.1364625" lon="9.3699579"><ele>207.99999999999997</ele><time>2026-05-01T07:57:37.273Z</time></trkpt><trkpt lat="46.1365198" lon="9.3698895"><ele>208.0</ele><time>2026-05-01T07:57:38.256Z</time></trkpt><trkpt lat="46.1365749" lon="9.3698379"><ele>207.99999999999997</ele><time>2026-05-01T07:57:39.257Z</time></trkpt><trkpt lat="46.1366589" lon="9.3697204"><ele>208.0</ele><time>2026-05-01T07:57:41.259Z</time></trkpt><trkpt lat="46.136654" lon="9.3696034"><ele>208.0</ele><time>2026-05-01T07:57:43.27Z</time></trkpt><trkpt lat="46.1366159" lon="9.3695258"><ele>208.0</ele><time>2026-05-01T07:57:44.26Z</time></trkpt><trkpt lat="46.1365699" lon="9.3694293"><ele>207.99999999999997</ele><time>2026-05-01T07:57:45.249Z</time></trkpt><trkpt lat="46.136517" lon="9.3693186"><ele>208.0</ele><time>2026-05-01T07:57:46.249Z</time></trkpt><trkpt lat="46.1364591" lon="9.3691991"><ele>207.99999999999997</ele><time>2026-05-01T07:57:47.25Z</time></trkpt><trkpt lat="46.1364064" lon="9.3690848"><ele>208.0</ele><time>2026-05-01T07:57:48.252Z</time></trkpt><trkpt lat="46.1363549" lon="9.3689947"><ele>208.0</ele><time>2026-05-01T07:57:49.246Z</time></trkpt><trkpt lat="46.1363133" lon="9.368921"><ele>208.0</ele><time>2026-05-01T07:57:50.249Z</time></trkpt><trkpt lat="46.1362602" lon="9.3688019"><ele>207.99999999999997</ele><time>2026-05-01T07:57:52.255Z</time></trkpt><trkpt lat="46.1362757" lon="9.3686824"><ele>208.0</ele><time>2026-05-01T07:57:55.262Z</time></trkpt><trkpt lat="46.1363667" lon="9.3686751"><ele>207.83333333333331</ele><time>2026-05-01T07:57:57.258Z</time></trkpt><trkpt lat="46.1364358" lon="9.3686679"><ele>207.66666666666666</ele><time>2026-05-01T07:57:58.287Z</time></trkpt><trkpt lat="46.1365122" lon="9.3686634"><ele>207.5</ele><time>2026-05-01T07:57:59.252Z</time></trkpt><trkpt lat="46.136592" lon="9.3686575"><ele>207.33333333333331</ele><time>2026-05-01T07:58:00.253Z</time></trkpt><trkpt lat="46.1366775" lon="9.3686469"><ele>207.16666666666666</ele><time>2026-05-01T07:58:01.256Z</time></trkpt><trkpt lat="46.1367586" lon="9.368626"><ele>207.0</ele><time>2026-05-01T07:58:02.256Z</time></trkpt><trkpt lat="46.1368319" lon="9.3686076"><ele>206.66666666666666</ele><time>2026-05-01T07:58:03.256Z</time></trkpt><trkpt lat="46.1368969" lon="9.3685791"><ele>206.33333333333331</ele><time>2026-05-01T07:58:04.255Z</time></trkpt><trkpt lat="46.1370054" lon="9.3685217"><ele>206.0</ele><time>2026-05-01T07:58:06.254Z</time></trkpt><trkpt lat="46.1370947" lon="9.3685054"><ele>205.66666666666666</ele><time>2026-05-01T07:58:08.256Z</time></trkpt><trkpt lat="46.137178" lon="9.3685261"><ele>205.33333333333331</ele><time>2026-05-01T07:58:10.264Z</time></trkpt><trkpt lat="46.1372569" lon="9.3685432"><ele>205.0</ele><time>2026-05-01T07:58:12.265Z</time></trkpt><trkpt lat="46.1373258" lon="9.3685506"><ele>205.0</ele><time>2026-05-01T07:58:17.449Z</time></trkpt><trkpt lat="46.1374157" lon="9.3685654"><ele>200.0</ele><time>2026-05-01T07:58:21.27Z</time></trkpt></trkseg><trkseg><trkpt lat="46.1373257" lon="9.3684784"><ele>204.99999999999997</ele><time>2026-05-01T08:45:25.287Z</time></trkpt><trkpt lat="46.1373084" lon="9.368356"><ele>205.0</ele><time>2026-05-01T08:47:15.244Z</time></trkpt><trkpt lat="46.1372547" lon="9.3682452"><ele>205.0</ele><time>2026-05-01T08:47:17.228Z</time></trkpt><trkpt lat="46.1371959" lon="9.3680957"><ele>205.0</ele><time>2026-05-01T08:47:19.229Z</time></trkpt><trkpt lat="46.1371604" lon="9.3680186"><ele>204.99999999999997</ele><time>2026-05-01T08:47:20.227Z</time></trkpt><trkpt lat="46.1371212" lon="9.367935"><ele>205.0</ele><time>2026-05-01T08:47:21.231Z</time></trkpt><trkpt lat="46.1370857" lon="9.3678534"><ele>204.49999999999997</ele><time>2026-05-01T08:47:22.229Z</time></trkpt><trkpt lat="46.13705" lon="9.3677775"><ele>204.0</ele><time>2026-05-01T08:47:23.221Z</time></trkpt><trkpt lat="46.1370107" lon="9.3676934"><ele>203.5</ele><time>2026-05-01T08:47:24.234Z</time></trkpt><trkpt lat="46.1369757" lon="9.3676143"><ele>203.0</ele><time>2026-05-01T08:47:25.235Z</time></trkpt><trkpt lat="46.1369409" lon="9.3675314"><ele>202.49999999999997</ele><time>2026-05-01T08:47:26.244Z</time></trkpt><trkpt lat="46.1368797" lon="9.3673847"><ele>202.0</ele><time>2026-05-01T08:47:28.239Z</time></trkpt><trkpt lat="46.1368199" lon="9.3672422"><ele>201.6</ele><time>2026-05-01T08:47:30.241Z</time></trkpt><trkpt lat="46.1367694" lon="9.3670845"><ele>201.2</ele><time>2026-05-01T08:47:32.231Z</time></trkpt><trkpt lat="46.1367519" lon="9.3669943"><ele>200.8</ele><time>2026-05-01T08:47:33.235Z</time></trkpt><trkpt lat="46.1367368" lon="9.3669051"><ele>200.4</ele><time>2026-05-01T08:47:34.222Z</time></trkpt><trkpt lat="46.1367098" lon="9.3667283"><ele>200.0</ele><time>2026-05-01T08:47:36.233Z</time></trkpt><trkpt lat="46.1366941" lon="9.3665533"><ele>200.00000000000003</ele><time>2026-05-01T08:47:38.223Z</time></trkpt><trkpt lat="46.1366831" lon="9.36637"><ele>200.0</ele><time>2026-05-01T08:47:40.231Z</time></trkpt><trkpt lat="46.1366765" lon="9.3662662"><ele>200.0</ele><time>2026-05-01T08:47:41.238Z</time></trkpt><trkpt lat="46.136666" lon="9.3661723"><ele>200.0</ele><time>2026-05-01T08:47:42.225Z</time></trkpt><trkpt lat="46.1366497" lon="9.3660691"><ele>200.00000000000003</ele><time>2026-05-01T08:47:43.232Z</time></trkpt><trkpt lat="46.1366148" lon="9.3659658"><ele>200.0</ele><time>2026-05-01T08:47:44.237Z</time></trkpt><trkpt lat="46.1365658" lon="9.3658725"><ele>200.16666666666669</ele><time>2026-05-01T08:47:45.24Z</time></trkpt><trkpt lat="46.136508" lon="9.365791"><ele>200.33333333333334</ele><time>2026-05-01T08:47:46.234Z</time></trkpt><trkpt lat="46.1364439" lon="9.3657207"><ele>200.5</ele><time>2026-05-01T08:47:47.245Z</time></trkpt><trkpt lat="46.1363716" lon="9.3656567"><ele>200.66666666666669</ele><time>2026-05-01T08:47:48.233Z</time></trkpt><trkpt lat="46.1362967" lon="9.3655934"><ele>200.83333333333334</ele><time>2026-05-01T08:47:49.235Z</time></trkpt><trkpt lat="46.1362269" lon="9.3655123"><ele>201.0</ele><time>2026-05-01T08:47:50.229Z</time></trkpt><trkpt lat="46.1361616" lon="9.3654281"><ele>201.0</ele><time>2026-05-01T08:47:51.233Z</time></trkpt><trkpt lat="46.1361058" lon="9.3653383"><ele>201.0</ele><time>2026-05-01T08:47:52.234Z</time></trkpt><trkpt lat="46.1360627" lon="9.3652376"><ele>201.0</ele><time>2026-05-01T08:47:53.234Z</time></trkpt><trkpt lat="46.1360265" lon="9.3651259"><ele>201.0</ele><time>2026-05-01T08:47:54.228Z</time></trkpt><trkpt lat="46.1359991" lon="9.3650125"><ele>201.0</ele><time>2026-05-01T08:47:55.246Z</time></trkpt><trkpt lat="46.1359682" lon="9.364904"><ele>201.0</ele><time>2026-05-01T08:47:56.233Z</time></trkpt><trkpt lat="46.1359341" lon="9.3647942"><ele>200.83333333333334</ele><time>2026-05-01T08:47:57.234Z</time></trkpt><trkpt lat="46.1359013" lon="9.3646811"><ele>200.66666666666669</ele><time>2026-05-01T08:47:58.24Z</time></trkpt><trkpt lat="46.1358702" lon="9.364572"><ele>200.5</ele><time>2026-05-01T08:47:59.239Z</time></trkpt><trkpt lat="46.1358417" lon="9.3644612"><ele>200.33333333333334</ele><time>2026-05-01T08:48:00.232Z</time></trkpt><trkpt lat="46.1358166" lon="9.3643523"><ele>200.16666666666669</ele><time>2026-05-01T08:48:01.24Z</time></trkpt><trkpt lat="46.1357918" lon="9.3642435"><ele>200.0</ele><time>2026-05-01T08:48:02.236Z</time></trkpt><trkpt lat="46.1357673" lon="9.3641338"><ele>200.00000000000003</ele><time>2026-05-01T08:48:03.241Z</time></trkpt><trkpt lat="46.1357447" lon="9.3640268"><ele>200.0</ele><time>2026-05-01T08:48:04.236Z</time></trkpt><trkpt lat="46.1357264" lon="9.3639154"><ele>200.0</ele><time>2026-05-01T08:48:05.241Z</time></trkpt><trkpt lat="46.1357126" lon="9.363803"><ele>200.0</ele><time>2026-05-01T08:48:06.235Z</time></trkpt><trkpt lat="46.1357084" lon="9.3636873"><ele>200.00000000000003</ele><time>2026-05-01T08:48:07.23Z</time></trkpt><trkpt lat="46.1357057" lon="9.3635704"><ele>200.0</ele><time>2026-05-01T08:48:08.236Z</time></trkpt><trkpt lat="46.135703" lon="9.3634581"><ele>200.16666666666669</ele><time>2026-05-01T08:48:09.225Z</time></trkpt><trkpt lat="46.1356974" lon="9.3633512"><ele>200.33333333333334</ele><time>2026-05-01T08:48:10.234Z</time></trkpt><trkpt lat="46.1356897" lon="9.3632431"><ele>200.5</ele><time>2026-05-01T08:48:11.236Z</time></trkpt><trkpt lat="46.1356831" lon="9.3631376"><ele>200.66666666666669</ele><time>2026-05-01T08:48:12.231Z</time></trkpt><trkpt lat="46.135678" lon="9.362966"><ele>200.83333333333334</ele><time>2026-05-01T08:48:14.235Z</time></trkpt><trkpt lat="46.1356826" lon="9.3628196"><ele>201.0</ele><time>2026-05-01T08:48:16.24Z</time></trkpt><trkpt lat="46.1356523" lon="9.3627074"><ele>201.0</ele><time>2026-05-01T08:48:19.246Z</time></trkpt><trkpt lat="46.1355635" lon="9.3626821"><ele>201.0</ele><time>2026-05-01T08:48:22.248Z</time></trkpt><trkpt lat="46.1354836" lon="9.3627468"><ele>201.0</ele><time>2026-05-01T08:48:24.24Z</time></trkpt><trkpt lat="46.1354295" lon="9.3627933"><ele>201.0</ele><time>2026-05-01T08:48:25.239Z</time></trkpt><trkpt lat="46.1353626" lon="9.362845"><ele>201.0</ele><time>2026-05-01T08:48:26.234Z</time></trkpt><trkpt lat="46.1352898" lon="9.3628997"><ele>201.0</ele><time>2026-05-01T08:48:27.233Z</time></trkpt><trkpt lat="46.1352101" lon="9.362954"><ele>201.0</ele><time>2026-05-01T08:48:28.236Z</time></trkpt><trkpt lat="46.1351313" lon="9.3630025"><ele>201.0</ele><time>2026-05-01T08:48:29.232Z</time></trkpt><trkpt lat="46.1350532" lon="9.3630533"><ele>201.0</ele><time>2026-05-01T08:48:30.247Z</time></trkpt><trkpt lat="46.134974" lon="9.3631038"><ele>201.0</ele><time>2026-05-01T08:48:31.234Z</time></trkpt><trkpt lat="46.1348964" lon="9.363157"><ele>201.0</ele><time>2026-05-01T08:48:32.238Z</time></trkpt><trkpt lat="46.1348264" lon="9.3632013"><ele>201.0</ele><time>2026-05-01T08:48:33.239Z</time></trkpt><trkpt lat="46.1347618" lon="9.3632408"><ele>201.60000000000002</ele><time>2026-05-01T08:48:34.239Z</time></trkpt><trkpt lat="46.1347013" lon="9.3632775"><ele>202.2</ele><time>2026-05-01T08:48:35.237Z</time></trkpt><trkpt lat="46.1346003" lon="9.3633301"><ele>202.8</ele><time>2026-05-01T08:48:37.235Z</time></trkpt><trkpt lat="46.134535" lon="9.3633723"><ele>203.39999999999998</ele><time>2026-05-01T08:48:39.247Z</time></trkpt><trkpt lat="46.1344595" lon="9.3634226"><ele>204.0</ele><time>2026-05-01T08:48:41.241Z</time></trkpt><trkpt lat="46.134337" lon="9.3635128"><ele>204.0</ele><time>2026-05-01T08:48:43.232Z</time></trkpt><trkpt lat="46.1342491" lon="9.3635723"><ele>204.0</ele><time>2026-05-01T08:48:44.225Z</time></trkpt><trkpt lat="46.1341532" lon="9.3636405"><ele>204.0</ele><time>2026-05-01T08:48:45.235Z</time></trkpt><trkpt lat="46.1340609" lon="9.3637052"><ele>204.0</ele><time>2026-05-01T08:48:46.24Z</time></trkpt><trkpt lat="46.133969" lon="9.3637648"><ele>204.0</ele><time>2026-05-01T08:48:47.237Z</time></trkpt><trkpt lat="46.1338774" lon="9.363825"><ele>205.2</ele><time>2026-05-01T08:48:48.242Z</time></trkpt><trkpt lat="46.1337829" lon="9.3638816"><ele>206.39999999999998</ele><time>2026-05-01T08:48:49.237Z</time></trkpt><trkpt lat="46.1336892" lon="9.3639338"><ele>207.6</ele><time>2026-05-01T08:48:50.238Z</time></trkpt><trkpt lat="46.1335924" lon="9.3639895"><ele>208.8</ele><time>2026-05-01T08:48:51.227Z</time></trkpt><trkpt lat="46.1334866" lon="9.364038"><ele>210.0</ele><time>2026-05-01T08:48:52.234Z</time></trkpt><trkpt lat="46.1333676" lon="9.364086"><ele>210.0</ele><time>2026-05-01T08:48:53.234Z</time></trkpt><trkpt lat="46.133233" lon="9.3641422"><ele>210.0</ele><time>2026-05-01T08:48:54.226Z</time></trkpt><trkpt lat="46.1331069" lon="9.3642049"><ele>210.0</ele><time>2026-05-01T08:48:55.23Z</time></trkpt><trkpt lat="46.1329733" lon="9.3642855"><ele>210.0</ele><time>2026-05-01T08:48:56.236Z</time></trkpt><trkpt lat="46.1328819" lon="9.3643536"><ele>210.66666666666666</ele><time>2026-05-01T08:48:57.255Z</time></trkpt><trkpt lat="46.1328058" lon="9.3644347"><ele>211.33333333333331</ele><time>2026-05-01T08:48:58.23Z</time></trkpt><trkpt lat="46.1327371" lon="9.3645108"><ele>212.0</ele><time>2026-05-01T08:48:59.243Z</time></trkpt><trkpt lat="46.1326766" lon="9.3645606"><ele>212.66666666666666</ele><time>2026-05-01T08:49:00.228Z</time></trkpt><trkpt lat="46.1326115" lon="9.3645949"><ele>213.33333333333331</ele><time>2026-05-01T08:49:02.234Z</time></trkpt><trkpt lat="46.1325264" lon="9.3645713"><ele>214.0</ele><time>2026-05-01T08:49:05.249Z</time></trkpt><trkpt lat="46.1324622" lon="9.3645757"><ele>214.2</ele><time>2026-05-01T08:49:15.237Z</time></trkpt><trkpt lat="46.1323699" lon="9.3646016"><ele>214.39999999999998</ele><time>2026-05-01T08:49:17.245Z</time></trkpt><trkpt lat="46.1323128" lon="9.3646566"><ele>214.6</ele><time>2026-05-01T08:49:18.232Z</time></trkpt><trkpt lat="46.1323481" lon="9.3648342"><ele>214.8</ele><time>2026-05-01T08:49:20.23Z</time></trkpt><trkpt lat="46.1324026" lon="9.364928"><ele>215.0</ele><time>2026-05-01T08:49:21.237Z</time></trkpt><trkpt lat="46.1324673" lon="9.3650243"><ele>215.0</ele><time>2026-05-01T08:49:22.23Z</time></trkpt><trkpt lat="46.1325235" lon="9.3651479"><ele>215.0</ele><time>2026-05-01T08:49:23.23Z</time></trkpt><trkpt lat="46.1325804" lon="9.3652868"><ele>215.0</ele><time>2026-05-01T08:49:24.237Z</time></trkpt><trkpt lat="46.1326311" lon="9.3654353"><ele>215.0</ele><time>2026-05-01T08:49:25.232Z</time></trkpt><trkpt lat="46.1326848" lon="9.365591"><ele>215.0</ele><time>2026-05-01T08:49:26.24Z</time></trkpt><trkpt lat="46.1327424" lon="9.3657479"><ele>215.25</ele><time>2026-05-01T08:49:27.235Z</time></trkpt><trkpt lat="46.132799" lon="9.3659085"><ele>215.5</ele><time>2026-05-01T08:49:28.244Z</time></trkpt><trkpt lat="46.1328552" lon="9.3660718"><ele>215.75</ele><time>2026-05-01T08:49:29.232Z</time></trkpt><trkpt lat="46.1329144" lon="9.36624"><ele>216.0</ele><time>2026-05-01T08:49:30.234Z</time></trkpt><trkpt lat="46.1329787" lon="9.3664055"><ele>215.75</ele><time>2026-05-01T08:49:31.237Z</time></trkpt><trkpt lat="46.1330467" lon="9.36657"><ele>215.5</ele><time>2026-05-01T08:49:32.233Z</time></trkpt><trkpt lat="46.1331198" lon="9.3667276"><ele>215.25</ele><time>2026-05-01T08:49:33.243Z</time></trkpt><trkpt lat="46.1332045" lon="9.3668728"><ele>215.0</ele><time>2026-05-01T08:49:34.236Z</time></trkpt><trkpt lat="46.1332912" lon="9.3670103"><ele>215.0</ele><time>2026-05-01T08:49:35.24Z</time></trkpt><trkpt lat="46.1333742" lon="9.367143"><ele>215.0</ele><time>2026-05-01T08:49:36.237Z</time></trkpt><trkpt lat="46.1334584" lon="9.3672745"><ele>215.0</ele><time>2026-05-01T08:49:37.234Z</time></trkpt><trkpt lat="46.1335389" lon="9.3674102"><ele>215.0</ele><time>2026-05-01T08:49:38.238Z</time></trkpt><trkpt lat="46.1336228" lon="9.3675441"><ele>215.5</ele><time>2026-05-01T08:49:39.237Z</time></trkpt><trkpt lat="46.1337099" lon="9.367673"><ele>216.0</ele><time>2026-05-01T08:49:40.241Z</time></trkpt><trkpt lat="46.1337937" lon="9.3678002"><ele>216.5</ele><time>2026-05-01T08:49:41.234Z</time></trkpt><trkpt lat="46.1338723" lon="9.3679291"><ele>217.0</ele><time>2026-05-01T08:49:42.26Z</time></trkpt><trkpt lat="46.1339553" lon="9.368054"><ele>217.25</ele><time>2026-05-01T08:49:43.238Z</time></trkpt><trkpt lat="46.134036" lon="9.368184"><ele>217.5</ele><time>2026-05-01T08:49:44.238Z</time></trkpt><trkpt lat="46.1341165" lon="9.3683107"><ele>217.75</ele><time>2026-05-01T08:49:45.238Z</time></trkpt><trkpt lat="46.1341946" lon="9.3684395"><ele>218.0</ele><time>2026-05-01T08:49:46.267Z</time></trkpt><trkpt lat="46.1342765" lon="9.3685663"><ele>217.75</ele><time>2026-05-01T08:49:47.24Z</time></trkpt><trkpt lat="46.1343645" lon="9.3686959"><ele>217.5</ele><time>2026-05-01T08:49:48.243Z</time></trkpt><trkpt lat="46.1344536" lon="9.3688318"><ele>217.25</ele><time>2026-05-01T08:49:49.244Z</time></trkpt><trkpt lat="46.1345452" lon="9.3689806"><ele>217.0</ele><time>2026-05-01T08:49:50.228Z</time></trkpt><trkpt lat="46.1346363" lon="9.3691584"><ele>217.0</ele><time>2026-05-01T08:49:51.231Z</time></trkpt><trkpt lat="46.1347319" lon="9.369335"><ele>217.0</ele><time>2026-05-01T08:49:52.237Z</time></trkpt><trkpt lat="46.1347998" lon="9.3694827"><ele>217.0</ele><time>2026-05-01T08:49:53.234Z</time></trkpt><trkpt lat="46.1348686" lon="9.3696235"><ele>217.0</ele><time>2026-05-01T08:49:54.236Z</time></trkpt><trkpt lat="46.1349371" lon="9.3697713"><ele>216.2</ele><time>2026-05-01T08:49:55.23Z</time></trkpt><trkpt lat="46.1349992" lon="9.3698995"><ele>215.39999999999998</ele><time>2026-05-01T08:49:56.23Z</time></trkpt><trkpt lat="46.1350782" lon="9.3700228"><ele>214.60000000000002</ele><time>2026-05-01T08:49:57.226Z</time></trkpt><trkpt lat="46.1351334" lon="9.3701428"><ele>213.8</ele><time>2026-05-01T08:49:58.234Z</time></trkpt><trkpt lat="46.1351894" lon="9.370255"><ele>213.0</ele><time>2026-05-01T08:49:59.233Z</time></trkpt><trkpt lat="46.1352434" lon="9.3703498"><ele>213.0</ele><time>2026-05-01T08:50:00.23Z</time></trkpt><trkpt lat="46.1352951" lon="9.3704434"><ele>213.0</ele><time>2026-05-01T08:50:01.241Z</time></trkpt><trkpt lat="46.1353436" lon="9.3705333"><ele>213.0</ele><time>2026-05-01T08:50:02.234Z</time></trkpt><trkpt lat="46.1353866" lon="9.3706145"><ele>213.0</ele><time>2026-05-01T08:50:03.232Z</time></trkpt><trkpt lat="46.1354257" lon="9.3706941"><ele>213.0</ele><time>2026-05-01T08:50:04.232Z</time></trkpt><trkpt lat="46.1354586" lon="9.3708497"><ele>213.0</ele><time>2026-05-01T08:50:06.239Z</time></trkpt><trkpt lat="46.135513" lon="9.3709639"><ele>212.83333333333334</ele><time>2026-05-01T08:50:08.234Z</time></trkpt><trkpt lat="46.1355825" lon="9.3710469"><ele>212.66666666666669</ele><time>2026-05-01T08:50:10.224Z</time></trkpt><trkpt lat="46.135635" lon="9.3711339"><ele>212.5</ele><time>2026-05-01T08:50:12.243Z</time></trkpt><trkpt lat="46.1356767" lon="9.3712202"><ele>212.33333333333334</ele><time>2026-05-01T08:50:14.248Z</time></trkpt><trkpt lat="46.1357267" lon="9.3713062"><ele>212.16666666666669</ele><time>2026-05-01T08:50:16.248Z</time></trkpt><trkpt lat="46.1357847" lon="9.3714308"><ele>212.0</ele><time>2026-05-01T08:50:18.238Z</time></trkpt><trkpt lat="46.1358264" lon="9.3715664"><ele>212.00000000000003</ele><time>2026-05-01T08:50:20.234Z</time></trkpt><trkpt lat="46.1358509" lon="9.3716624"><ele>212.0</ele><time>2026-05-01T08:50:22.243Z</time></trkpt><trkpt lat="46.1358792" lon="9.3717523"><ele>212.0</ele><time>2026-05-01T08:50:24.27Z</time></trkpt><trkpt lat="46.1359365" lon="9.3718811"><ele>212.0</ele><time>2026-05-01T08:50:27.239Z</time></trkpt><trkpt lat="46.1359852" lon="9.3719606"><ele>212.00000000000003</ele><time>2026-05-01T08:50:36.233Z</time></trkpt><trkpt lat="46.1360461" lon="9.3720849"><ele>212.0</ele><time>2026-05-01T08:50:39.247Z</time></trkpt><trkpt lat="46.1360783" lon="9.3721777"><ele>212.16666666666669</ele><time>2026-05-01T08:50:45.239Z</time></trkpt><trkpt lat="46.1361276" lon="9.3723301"><ele>212.33333333333334</ele><time>2026-05-01T08:50:48.235Z</time></trkpt><trkpt lat="46.1361546" lon="9.3724146"><ele>212.5</ele><time>2026-05-01T08:50:49.228Z</time></trkpt><trkpt lat="46.1361882" lon="9.3725077"><ele>212.66666666666669</ele><time>2026-05-01T08:50:50.235Z</time></trkpt><trkpt lat="46.1362198" lon="9.3726013"><ele>212.83333333333334</ele><time>2026-05-01T08:50:51.225Z</time></trkpt><trkpt lat="46.1362545" lon="9.3726906"><ele>213.0</ele><time>2026-05-01T08:50:52.229Z</time></trkpt><trkpt lat="46.1363044" lon="9.3727897"><ele>213.0</ele><time>2026-05-01T08:50:53.225Z</time></trkpt><trkpt lat="46.1363566" lon="9.3728807"><ele>213.0</ele><time>2026-05-01T08:50:54.232Z</time></trkpt><trkpt lat="46.1364005" lon="9.3729826"><ele>213.0</ele><time>2026-05-01T08:50:55.225Z</time></trkpt><trkpt lat="46.1364503" lon="9.3730816"><ele>213.0</ele><time>2026-05-01T08:50:56.227Z</time></trkpt><trkpt lat="46.1364955" lon="9.3731614"><ele>213.0</ele><time>2026-05-01T08:50:57.23Z</time></trkpt><trkpt lat="46.1365361" lon="9.3732334"><ele>213.0</ele><time>2026-05-01T08:50:58.234Z</time></trkpt><trkpt lat="46.1365725" lon="9.3733598"><ele>212.8</ele><time>2026-05-01T08:51:00.233Z</time></trkpt><trkpt lat="46.1366123" lon="9.3734688"><ele>212.60000000000002</ele><time>2026-05-01T08:51:02.238Z</time></trkpt><trkpt lat="46.1366763" lon="9.373588"><ele>212.39999999999998</ele><time>2026-05-01T08:51:04.229Z</time></trkpt><trkpt lat="46.1367484" lon="9.3737091"><ele>212.2</ele><time>2026-05-01T08:51:06.228Z</time></trkpt><trkpt lat="46.1368152" lon="9.3738408"><ele>212.0</ele><time>2026-05-01T08:51:08.232Z</time></trkpt><trkpt lat="46.1368724" lon="9.373959"><ele>212.39999999999998</ele><time>2026-05-01T08:51:10.234Z</time></trkpt><trkpt lat="46.1369324" lon="9.3740711"><ele>212.79999999999998</ele><time>2026-05-01T08:51:12.229Z</time></trkpt><trkpt lat="46.1369973" lon="9.3741875"><ele>213.2</ele><time>2026-05-01T08:51:14.235Z</time></trkpt><trkpt lat="46.1370484" lon="9.374304"><ele>213.6</ele><time>2026-05-01T08:51:16.239Z</time></trkpt><trkpt lat="46.1371025" lon="9.3744223"><ele>214.0</ele><time>2026-05-01T08:51:18.239Z</time></trkpt><trkpt lat="46.1371574" lon="9.3745439"><ele>214.0</ele><time>2026-05-01T08:51:20.233Z</time></trkpt><trkpt lat="46.1372027" lon="9.3746485"><ele>213.99999999999997</ele><time>2026-05-01T08:51:22.242Z</time></trkpt><trkpt lat="46.1372434" lon="9.3747686"><ele>213.99999999999997</ele><time>2026-05-01T08:51:24.245Z</time></trkpt><trkpt lat="46.1372799" lon="9.3748716"><ele>214.0</ele><time>2026-05-01T08:51:26.242Z</time></trkpt><trkpt lat="46.1373476" lon="9.374982"><ele>214.0</ele><time>2026-05-01T08:51:28.235Z</time></trkpt><trkpt lat="46.1374103" lon="9.3751271"><ele>213.66666666666666</ele><time>2026-05-01T08:51:30.229Z</time></trkpt><trkpt lat="46.1374466" lon="9.3752052"><ele>213.33333333333331</ele><time>2026-05-01T08:51:31.236Z</time></trkpt><trkpt lat="46.1374989" lon="9.375276"><ele>213.0</ele><time>2026-05-01T08:51:32.233Z</time></trkpt><trkpt lat="46.1375771" lon="9.3754131"><ele>212.66666666666669</ele><time>2026-05-01T08:51:34.235Z</time></trkpt><trkpt lat="46.1376215" lon="9.3754794"><ele>212.33333333333334</ele><time>2026-05-01T08:51:35.231Z</time></trkpt><trkpt lat="46.1376669" lon="9.3755461"><ele>212.0</ele><time>2026-05-01T08:51:36.237Z</time></trkpt><trkpt lat="46.1377115" lon="9.375619"><ele>212.0</ele><time>2026-05-01T08:51:37.232Z</time></trkpt><trkpt lat="46.1377437" lon="9.3756998"><ele>212.0</ele><time>2026-05-01T08:51:38.235Z</time></trkpt><trkpt lat="46.1377776" lon="9.3757898"><ele>212.0</ele><time>2026-05-01T08:51:39.238Z</time></trkpt><trkpt lat="46.1378143" lon="9.3758772"><ele>212.0</ele><time>2026-05-01T08:51:40.234Z</time></trkpt><trkpt lat="46.1378545" lon="9.3759611"><ele>212.0</ele><time>2026-05-01T08:51:41.241Z</time></trkpt><trkpt lat="46.1378958" lon="9.3760496"><ele>212.0</ele><time>2026-05-01T08:51:42.24Z</time></trkpt><trkpt lat="46.1379348" lon="9.3761363"><ele>212.0</ele><time>2026-05-01T08:51:43.237Z</time></trkpt><trkpt lat="46.1379707" lon="9.3762319"><ele>212.0</ele><time>2026-05-01T08:51:44.246Z</time></trkpt><trkpt lat="46.1380052" lon="9.3763276"><ele>212.0</ele><time>2026-05-01T08:51:45.233Z</time></trkpt><trkpt lat="46.1380414" lon="9.3764144"><ele>212.0</ele><time>2026-05-01T08:51:46.243Z</time></trkpt><trkpt lat="46.1380781" lon="9.3764981"><ele>212.0</ele><time>2026-05-01T08:51:47.237Z</time></trkpt><trkpt lat="46.1381128" lon="9.3765844"><ele>212.0</ele><time>2026-05-01T08:51:48.241Z</time></trkpt><trkpt lat="46.1381463" lon="9.3766692"><ele>212.0</ele><time>2026-05-01T08:51:49.233Z</time></trkpt><trkpt lat="46.1381838" lon="9.3767559"><ele>212.0</ele><time>2026-05-01T08:51:50.229Z</time></trkpt><trkpt lat="46.1382204" lon="9.3768489"><ele>211.83333333333334</ele><time>2026-05-01T08:51:51.236Z</time></trkpt><trkpt lat="46.1382587" lon="9.3769436"><ele>211.66666666666669</ele><time>2026-05-01T08:51:52.227Z</time></trkpt><trkpt lat="46.1382881" lon="9.3770347"><ele>211.5</ele><time>2026-05-01T08:51:53.237Z</time></trkpt><trkpt lat="46.1383388" lon="9.3771664"><ele>211.33333333333331</ele><time>2026-05-01T08:51:55.222Z</time></trkpt><trkpt lat="46.1384021" lon="9.3773153"><ele>211.16666666666666</ele><time>2026-05-01T08:51:57.235Z</time></trkpt><trkpt lat="46.1384439" lon="9.3774006"><ele>211.0</ele><time>2026-05-01T08:51:58.232Z</time></trkpt><trkpt lat="46.1384868" lon="9.3774987"><ele>210.99999999999997</ele><time>2026-05-01T08:51:59.241Z</time></trkpt><trkpt lat="46.1385243" lon="9.3776063"><ele>211.0</ele><time>2026-05-01T08:52:00.23Z</time></trkpt><trkpt lat="46.1385626" lon="9.3777067"><ele>211.0</ele><time>2026-05-01T08:52:01.234Z</time></trkpt><trkpt lat="46.1385986" lon="9.3777824"><ele>211.0</ele><time>2026-05-01T08:52:02.239Z</time></trkpt><trkpt lat="46.1386641" lon="9.3778831"><ele>210.99999999999997</ele><time>2026-05-01T08:52:04.24Z</time></trkpt><trkpt lat="46.1387227" lon="9.3779934"><ele>211.0</ele><time>2026-05-01T08:52:06.234Z</time></trkpt><trkpt lat="46.1387727" lon="9.378082"><ele>210.8</ele><time>2026-05-01T08:52:07.237Z</time></trkpt><trkpt lat="46.1388302" lon="9.3781928"><ele>210.60000000000002</ele><time>2026-05-01T08:52:08.218Z</time></trkpt><trkpt lat="46.1388828" lon="9.3783255"><ele>210.4</ele><time>2026-05-01T08:52:09.239Z</time></trkpt><trkpt lat="46.1389428" lon="9.3784661"><ele>210.2</ele><time>2026-05-01T08:52:10.226Z</time></trkpt><trkpt lat="46.1390033" lon="9.378632"><ele>210.0</ele><time>2026-05-01T08:52:11.232Z</time></trkpt><trkpt lat="46.1390613" lon="9.3788106"><ele>210.25</ele><time>2026-05-01T08:52:12.234Z</time></trkpt><trkpt lat="46.1391141" lon="9.3789906"><ele>210.5</ele><time>2026-05-01T08:52:13.237Z</time></trkpt><trkpt lat="46.1391564" lon="9.3791732"><ele>210.75</ele><time>2026-05-01T08:52:14.235Z</time></trkpt><trkpt lat="46.1391984" lon="9.3793538"><ele>211.0</ele><time>2026-05-01T08:52:15.246Z</time></trkpt><trkpt lat="46.139237" lon="9.3795351"><ele>211.5</ele><time>2026-05-01T08:52:16.231Z</time></trkpt><trkpt lat="46.1392674" lon="9.3797199"><ele>212.0</ele><time>2026-05-01T08:52:17.241Z</time></trkpt><trkpt lat="46.1392861" lon="9.3799076"><ele>212.5</ele><time>2026-05-01T08:52:18.233Z</time></trkpt><trkpt lat="46.1393005" lon="9.3800968"><ele>213.0</ele><time>2026-05-01T08:52:19.241Z</time></trkpt><trkpt lat="46.1393082" lon="9.3802857"><ele>213.0</ele><time>2026-05-01T08:52:20.232Z</time></trkpt><trkpt lat="46.1393156" lon="9.3804742"><ele>213.0</ele><time>2026-05-01T08:52:21.238Z</time></trkpt><trkpt lat="46.1393285" lon="9.3806575"><ele>213.0</ele><time>2026-05-01T08:52:22.235Z</time></trkpt><trkpt lat="46.1393444" lon="9.3808445"><ele>213.0</ele><time>2026-05-01T08:52:23.246Z</time></trkpt><trkpt lat="46.1393585" lon="9.3810296"><ele>213.60000000000002</ele><time>2026-05-01T08:52:24.237Z</time></trkpt><trkpt lat="46.1393681" lon="9.3812086"><ele>214.20000000000002</ele><time>2026-05-01T08:52:25.237Z</time></trkpt><trkpt lat="46.1393791" lon="9.381371"><ele>214.8</ele><time>2026-05-01T08:52:26.241Z</time></trkpt><trkpt lat="46.1393888" lon="9.3815225"><ele>215.4</ele><time>2026-05-01T08:52:27.236Z</time></trkpt><trkpt lat="46.1393947" lon="9.3816551"><ele>216.0</ele><time>2026-05-01T08:52:28.243Z</time></trkpt><trkpt lat="46.1393987" lon="9.3817751"><ele>216.33333333333334</ele><time>2026-05-01T08:52:29.231Z</time></trkpt><trkpt lat="46.1394023" lon="9.3818885"><ele>216.66666666666669</ele><time>2026-05-01T08:52:30.23Z</time></trkpt><trkpt lat="46.139407" lon="9.3820053"><ele>217.0</ele><time>2026-05-01T08:52:31.241Z</time></trkpt><trkpt lat="46.1394186" lon="9.3821304"><ele>217.33333333333334</ele><time>2026-05-01T08:52:32.237Z</time></trkpt><trkpt lat="46.1394319" lon="9.3822702"><ele>217.66666666666669</ele><time>2026-05-01T08:52:33.246Z</time></trkpt><trkpt lat="46.1394446" lon="9.3824138"><ele>218.0</ele><time>2026-05-01T08:52:34.245Z</time></trkpt><trkpt lat="46.1394524" lon="9.382569"><ele>218.2</ele><time>2026-05-01T08:52:35.238Z</time></trkpt><trkpt lat="46.139457" lon="9.3827331"><ele>218.4</ele><time>2026-05-01T08:52:36.236Z</time></trkpt><trkpt lat="46.1394692" lon="9.3829008"><ele>218.59999999999997</ele><time>2026-05-01T08:52:37.242Z</time></trkpt><trkpt lat="46.1394828" lon="9.3830612"><ele>218.79999999999998</ele><time>2026-05-01T08:52:38.233Z</time></trkpt><trkpt lat="46.1394961" lon="9.3832124"><ele>219.0</ele><time>2026-05-01T08:52:39.233Z</time></trkpt><trkpt lat="46.1395077" lon="9.3833579"><ele>219.2</ele><time>2026-05-01T08:52:40.242Z</time></trkpt><trkpt lat="46.1395172" lon="9.3834974"><ele>219.39999999999998</ele><time>2026-05-01T08:52:41.236Z</time></trkpt><trkpt lat="46.1395278" lon="9.3836265"><ele>219.6</ele><time>2026-05-01T08:52:42.243Z</time></trkpt><trkpt lat="46.1395305" lon="9.383743"><ele>219.8</ele><time>2026-05-01T08:52:43.237Z</time></trkpt><trkpt lat="46.1395342" lon="9.3838483"><ele>220.0</ele><time>2026-05-01T08:52:44.24Z</time></trkpt><trkpt lat="46.1395251" lon="9.3840174"><ele>220.0</ele><time>2026-05-01T08:52:46.241Z</time></trkpt><trkpt lat="46.1394939" lon="9.3841874"><ele>220.0</ele><time>2026-05-01T08:52:48.234Z</time></trkpt><trkpt lat="46.139512" lon="9.3842893"><ele>220.0</ele><time>2026-05-01T08:52:49.234Z</time></trkpt><trkpt lat="46.1395477" lon="9.3844042"><ele>220.0</ele><time>2026-05-01T08:52:50.228Z</time></trkpt><trkpt lat="46.1395732" lon="9.3845356"><ele>220.0</ele><time>2026-05-01T08:52:51.228Z</time></trkpt><trkpt lat="46.139595" lon="9.384673"><ele>220.0</ele><time>2026-05-01T08:52:52.227Z</time></trkpt><trkpt lat="46.1396118" lon="9.3848285"><ele>220.0</ele><time>2026-05-01T08:52:53.23Z</time></trkpt><trkpt lat="46.1396238" lon="9.3849987"><ele>220.0</ele><time>2026-05-01T08:52:54.234Z</time></trkpt><trkpt lat="46.139634" lon="9.3851791"><ele>220.0</ele><time>2026-05-01T08:52:55.225Z</time></trkpt><trkpt lat="46.1396423" lon="9.3853605"><ele>220.25</ele><time>2026-05-01T08:52:56.238Z</time></trkpt><trkpt lat="46.1396537" lon="9.3855464"><ele>220.5</ele><time>2026-05-01T08:52:57.227Z</time></trkpt><trkpt lat="46.1396695" lon="9.3857367"><ele>220.75</ele><time>2026-05-01T08:52:58.239Z</time></trkpt><trkpt lat="46.1396812" lon="9.385926"><ele>221.0</ele><time>2026-05-01T08:52:59.22Z</time></trkpt><trkpt lat="46.1396915" lon="9.3861196"><ele>221.0</ele><time>2026-05-01T08:53:00.234Z</time></trkpt><trkpt lat="46.1397024" lon="9.3863084"><ele>221.0</ele><time>2026-05-01T08:53:01.231Z</time></trkpt><trkpt lat="46.1397148" lon="9.3864789"><ele>221.0</ele><time>2026-05-01T08:53:02.23Z</time></trkpt><trkpt lat="46.1397282" lon="9.3866362"><ele>221.0</ele><time>2026-05-01T08:53:03.232Z</time></trkpt><trkpt lat="46.1397392" lon="9.3867915"><ele>221.0</ele><time>2026-05-01T08:53:04.232Z</time></trkpt><trkpt lat="46.1397531" lon="9.3869501"><ele>221.0</ele><time>2026-05-01T08:53:05.244Z</time></trkpt><trkpt lat="46.1397679" lon="9.3871134"><ele>221.0</ele><time>2026-05-01T08:53:06.225Z</time></trkpt><trkpt lat="46.1397782" lon="9.3872917"><ele>221.0</ele><time>2026-05-01T08:53:07.259Z</time></trkpt><trkpt lat="46.1397907" lon="9.3874731"><ele>220.75</ele><time>2026-05-01T08:53:08.232Z</time></trkpt><trkpt lat="46.1398023" lon="9.3876644"><ele>220.5</ele><time>2026-05-01T08:53:09.233Z</time></trkpt><trkpt lat="46.139817" lon="9.3878582"><ele>220.25</ele><time>2026-05-01T08:53:10.236Z</time></trkpt><trkpt lat="46.1398311" lon="9.3880551"><ele>220.0</ele><time>2026-05-01T08:53:11.237Z</time></trkpt><trkpt lat="46.13985" lon="9.3882798"><ele>220.0</ele><time>2026-05-01T08:53:12.24Z</time></trkpt><trkpt lat="46.1398606" lon="9.3884781"><ele>220.0</ele><time>2026-05-01T08:53:13.237Z</time></trkpt><trkpt lat="46.1398767" lon="9.3886845"><ele>220.0</ele><time>2026-05-01T08:53:14.238Z</time></trkpt><trkpt lat="46.1398856" lon="9.3889034"><ele>220.0</ele><time>2026-05-01T08:53:15.227Z</time></trkpt><trkpt lat="46.1398944" lon="9.3890974"><ele>219.5</ele><time>2026-05-01T08:53:16.239Z</time></trkpt><trkpt lat="46.1399198" lon="9.3892843"><ele>219.0</ele><time>2026-05-01T08:53:17.224Z</time></trkpt><trkpt lat="46.139932" lon="9.3894562"><ele>218.5</ele><time>2026-05-01T08:53:18.238Z</time></trkpt><trkpt lat="46.1399453" lon="9.3896251"><ele>218.0</ele><time>2026-05-01T08:53:19.234Z</time></trkpt><trkpt lat="46.1399531" lon="9.3898233"><ele>218.0</ele><time>2026-05-01T08:53:20.237Z</time></trkpt><trkpt lat="46.1399533" lon="9.3899921"><ele>218.0</ele><time>2026-05-01T08:53:21.232Z</time></trkpt><trkpt lat="46.1399725" lon="9.3901687"><ele>218.0</ele><time>2026-05-01T08:53:22.235Z</time></trkpt><trkpt lat="46.1399849" lon="9.3903428"><ele>218.0</ele><time>2026-05-01T08:53:23.241Z</time></trkpt><trkpt lat="46.1399984" lon="9.3905209"><ele>218.25</ele><time>2026-05-01T08:53:24.237Z</time></trkpt><trkpt lat="46.1400053" lon="9.3907051"><ele>218.5</ele><time>2026-05-01T08:53:25.244Z</time></trkpt><trkpt lat="46.1400175" lon="9.3908862"><ele>218.75</ele><time>2026-05-01T08:53:26.234Z</time></trkpt><trkpt lat="46.1400259" lon="9.3910747"><ele>219.0</ele><time>2026-05-01T08:53:27.236Z</time></trkpt><trkpt lat="46.140033" lon="9.3912625"><ele>218.5</ele><time>2026-05-01T08:53:28.238Z</time></trkpt><trkpt lat="46.1400369" lon="9.3914548"><ele>218.0</ele><time>2026-05-01T08:53:29.235Z</time></trkpt><trkpt lat="46.140038" lon="9.3916434"><ele>217.5</ele><time>2026-05-01T08:53:30.24Z</time></trkpt><trkpt lat="46.1400425" lon="9.3918301"><ele>217.0</ele><time>2026-05-01T08:53:31.234Z</time></trkpt><trkpt lat="46.1400499" lon="9.3920168"><ele>217.5</ele><time>2026-05-01T08:53:32.238Z</time></trkpt><trkpt lat="46.1400539" lon="9.3922067"><ele>218.0</ele><time>2026-05-01T08:53:33.226Z</time></trkpt><trkpt lat="46.140052" lon="9.3923914"><ele>218.5</ele><time>2026-05-01T08:53:34.231Z</time></trkpt><trkpt lat="46.1400528" lon="9.392568"><ele>219.0</ele><time>2026-05-01T08:53:35.233Z</time></trkpt><trkpt lat="46.1400543" lon="9.3927342"><ele>219.0</ele><time>2026-05-01T08:53:36.232Z</time></trkpt><trkpt lat="46.1400576" lon="9.3928984"><ele>219.0</ele><time>2026-05-01T08:53:37.238Z</time></trkpt><trkpt lat="46.1400557" lon="9.3930671"><ele>219.0</ele><time>2026-05-01T08:53:38.23Z</time></trkpt><trkpt lat="46.1400614" lon="9.3932395"><ele>219.0</ele><time>2026-05-01T08:53:39.236Z</time></trkpt><trkpt lat="46.1400651" lon="9.3934138"><ele>218.75</ele><time>2026-05-01T08:53:40.243Z</time></trkpt><trkpt lat="46.1400678" lon="9.3935875"><ele>218.5</ele><time>2026-05-01T08:53:41.239Z</time></trkpt><trkpt lat="46.1400733" lon="9.3937644"><ele>218.25</ele><time>2026-05-01T08:53:42.241Z</time></trkpt><trkpt lat="46.1400851" lon="9.3939385"><ele>218.0</ele><time>2026-05-01T08:53:43.235Z</time></trkpt><trkpt lat="46.1401016" lon="9.3941098"><ele>217.25</ele><time>2026-05-01T08:53:44.23Z</time></trkpt><trkpt lat="46.1401275" lon="9.3942825"><ele>216.5</ele><time>2026-05-01T08:53:45.236Z</time></trkpt><trkpt lat="46.140155" lon="9.3944634"><ele>215.75</ele><time>2026-05-01T08:53:46.238Z</time></trkpt><trkpt lat="46.1401951" lon="9.3946497"><ele>215.0</ele><time>2026-05-01T08:53:47.232Z</time></trkpt><trkpt lat="46.1402509" lon="9.3948294"><ele>214.5</ele><time>2026-05-01T08:53:48.245Z</time></trkpt><trkpt lat="46.140315" lon="9.3950094"><ele>214.0</ele><time>2026-05-01T08:53:49.234Z</time></trkpt><trkpt lat="46.1403971" lon="9.3952031"><ele>213.5</ele><time>2026-05-01T08:53:50.235Z</time></trkpt><trkpt lat="46.1404711" lon="9.3953837"><ele>213.0</ele><time>2026-05-01T08:53:51.235Z</time></trkpt><trkpt lat="46.1405498" lon="9.3955771"><ele>212.33333333333331</ele><time>2026-05-01T08:53:52.242Z</time></trkpt><trkpt lat="46.1406229" lon="9.3957784"><ele>211.66666666666666</ele><time>2026-05-01T08:53:53.241Z</time></trkpt><trkpt lat="46.1406906" lon="9.3959696"><ele>211.0</ele><time>2026-05-01T08:53:54.24Z</time></trkpt><trkpt lat="46.1407642" lon="9.3961489"><ele>210.5</ele><time>2026-05-01T08:53:55.239Z</time></trkpt><trkpt lat="46.1408313" lon="9.3963219"><ele>210.0</ele><time>2026-05-01T08:53:56.249Z</time></trkpt><trkpt lat="46.1408943" lon="9.3964969"><ele>209.5</ele><time>2026-05-01T08:53:57.238Z</time></trkpt><trkpt lat="46.1409703" lon="9.3966712"><ele>209.0</ele><time>2026-05-01T08:53:58.251Z</time></trkpt><trkpt lat="46.1410287" lon="9.3968303"><ele>209.0</ele><time>2026-05-01T08:53:59.242Z</time></trkpt><trkpt lat="46.1410949" lon="9.3970123"><ele>209.0</ele><time>2026-05-01T08:54:00.238Z</time></trkpt><trkpt lat="46.1411621" lon="9.3971859"><ele>209.0</ele><time>2026-05-01T08:54:01.237Z</time></trkpt><trkpt lat="46.1412301" lon="9.3973547"><ele>209.0</ele><time>2026-05-01T08:54:02.241Z</time></trkpt><trkpt lat="46.1412932" lon="9.3975162"><ele>208.79999999999998</ele><time>2026-05-01T08:54:03.239Z</time></trkpt><trkpt lat="46.1413552" lon="9.3976752"><ele>208.6</ele><time>2026-05-01T08:54:04.244Z</time></trkpt><trkpt lat="46.1414171" lon="9.3978276"><ele>208.4</ele><time>2026-05-01T08:54:05.237Z</time></trkpt><trkpt lat="46.1414605" lon="9.3979627"><ele>208.2</ele><time>2026-05-01T08:54:06.245Z</time></trkpt><trkpt lat="46.1414956" lon="9.3980901"><ele>208.0</ele><time>2026-05-01T08:54:07.232Z</time></trkpt><trkpt lat="46.1415294" lon="9.3982006"><ele>207.66666666666666</ele><time>2026-05-01T08:54:08.244Z</time></trkpt><trkpt lat="46.1415593" lon="9.3983165"><ele>207.33333333333331</ele><time>2026-05-01T08:54:09.237Z</time></trkpt><trkpt lat="46.141585" lon="9.3984371"><ele>207.0</ele><time>2026-05-01T08:54:10.243Z</time></trkpt><trkpt lat="46.1416029" lon="9.3985544"><ele>206.66666666666669</ele><time>2026-05-01T08:54:11.234Z</time></trkpt><trkpt lat="46.1416056" lon="9.3986676"><ele>206.33333333333334</ele><time>2026-05-01T08:54:12.242Z</time></trkpt><trkpt lat="46.1416003" lon="9.3987793"><ele>206.0</ele><time>2026-05-01T08:54:13.239Z</time></trkpt><trkpt lat="46.1416145" lon="9.398889"><ele>205.60000000000002</ele><time>2026-05-01T08:54:14.236Z</time></trkpt><trkpt lat="46.1416648" lon="9.3989912"><ele>205.2</ele><time>2026-05-01T08:54:15.236Z</time></trkpt><trkpt lat="46.1417454" lon="9.399057"><ele>204.8</ele><time>2026-05-01T08:54:16.241Z</time></trkpt><trkpt lat="46.1418303" lon="9.3991126"><ele>204.39999999999998</ele><time>2026-05-01T08:54:17.251Z</time></trkpt><trkpt lat="46.1419235" lon="9.3991742"><ele>204.0</ele><time>2026-05-01T08:54:18.24Z</time></trkpt><trkpt lat="46.1419886" lon="9.3993028"><ele>204.0</ele><time>2026-05-01T08:54:19.237Z</time></trkpt><trkpt lat="46.142044" lon="9.3994581"><ele>204.0</ele><time>2026-05-01T08:54:20.247Z</time></trkpt><trkpt lat="46.1421028" lon="9.3996189"><ele>204.0</ele><time>2026-05-01T08:54:21.232Z</time></trkpt><trkpt lat="46.1421658" lon="9.3997875"><ele>204.0</ele><time>2026-05-01T08:54:22.241Z</time></trkpt><trkpt lat="46.1422345" lon="9.3999614"><ele>203.66666666666669</ele><time>2026-05-01T08:54:23.236Z</time></trkpt><trkpt lat="46.1423047" lon="9.4001436"><ele>203.33333333333334</ele><time>2026-05-01T08:54:24.239Z</time></trkpt><trkpt lat="46.1423862" lon="9.4003436"><ele>203.0</ele><time>2026-05-01T08:54:25.232Z</time></trkpt><trkpt lat="46.1424556" lon="9.4005312"><ele>203.0</ele><time>2026-05-01T08:54:26.236Z</time></trkpt><trkpt lat="46.1425191" lon="9.4007103"><ele>203.0</ele><time>2026-05-01T08:54:27.236Z</time></trkpt><trkpt lat="46.142591" lon="9.4008864"><ele>203.0</ele><time>2026-05-01T08:54:28.234Z</time></trkpt><trkpt lat="46.1426552" lon="9.4010811"><ele>203.0</ele><time>2026-05-01T08:54:29.236Z</time></trkpt><trkpt lat="46.1427096" lon="9.4012866"><ele>202.66666666666669</ele><time>2026-05-01T08:54:30.233Z</time></trkpt><trkpt lat="46.1427779" lon="9.4014842"><ele>202.33333333333331</ele><time>2026-05-01T08:54:31.242Z</time></trkpt><trkpt lat="46.1428421" lon="9.4016793"><ele>202.0</ele><time>2026-05-01T08:54:32.236Z</time></trkpt><trkpt lat="46.1429092" lon="9.4018684"><ele>202.0</ele><time>2026-05-01T08:54:33.24Z</time></trkpt><trkpt lat="46.1429846" lon="9.4020669"><ele>202.0</ele><time>2026-05-01T08:54:34.238Z</time></trkpt><trkpt lat="46.1430502" lon="9.4022709"><ele>202.0</ele><time>2026-05-01T08:54:35.235Z</time></trkpt><trkpt lat="46.1431016" lon="9.4024744"><ele>201.66666666666666</ele><time>2026-05-01T08:54:36.235Z</time></trkpt><trkpt lat="46.1431581" lon="9.4026686"><ele>201.33333333333331</ele><time>2026-05-01T08:54:37.234Z</time></trkpt><trkpt lat="46.1432019" lon="9.4028823"><ele>201.0</ele><time>2026-05-01T08:54:38.23Z</time></trkpt><trkpt lat="46.1432437" lon="9.4031032"><ele>201.75</ele><time>2026-05-01T08:54:39.231Z</time></trkpt><trkpt lat="46.1432839" lon="9.4033115"><ele>202.5</ele><time>2026-05-01T08:54:40.231Z</time></trkpt><trkpt lat="46.1433149" lon="9.4035153"><ele>203.25</ele><time>2026-05-01T08:54:41.231Z</time></trkpt><trkpt lat="46.1433578" lon="9.403729"><ele>204.0</ele><time>2026-05-01T08:54:42.229Z</time></trkpt><trkpt lat="46.1433935" lon="9.4039255"><ele>204.0</ele><time>2026-05-01T08:54:43.232Z</time></trkpt><trkpt lat="46.1434157" lon="9.4041273"><ele>204.0</ele><time>2026-05-01T08:54:44.229Z</time></trkpt><trkpt lat="46.143434" lon="9.404333"><ele>204.0</ele><time>2026-05-01T08:54:45.238Z</time></trkpt><trkpt lat="46.1434618" lon="9.4045481"><ele>204.0</ele><time>2026-05-01T08:54:46.24Z</time></trkpt><trkpt lat="46.1434654" lon="9.4047397"><ele>204.0</ele><time>2026-05-01T08:54:47.232Z</time></trkpt><trkpt lat="46.1434751" lon="9.404933"><ele>204.0</ele><time>2026-05-01T08:54:48.245Z</time></trkpt><trkpt lat="46.1434779" lon="9.405117"><ele>204.0</ele><time>2026-05-01T08:54:49.241Z</time></trkpt><trkpt lat="46.1434888" lon="9.4053031"><ele>204.0</ele><time>2026-05-01T08:54:50.241Z</time></trkpt><trkpt lat="46.1434976" lon="9.4054853"><ele>203.5</ele><time>2026-05-01T08:54:51.237Z</time></trkpt><trkpt lat="46.1435007" lon="9.4056612"><ele>203.0</ele><time>2026-05-01T08:54:52.242Z</time></trkpt><trkpt lat="46.1435122" lon="9.4058561"><ele>202.5</ele><time>2026-05-01T08:54:53.234Z</time></trkpt><trkpt lat="46.1435209" lon="9.4060313"><ele>202.0</ele><time>2026-05-01T08:54:54.235Z</time></trkpt><trkpt lat="46.1435301" lon="9.4061877"><ele>201.99999999999997</ele><time>2026-05-01T08:54:55.24Z</time></trkpt><trkpt lat="46.1435344" lon="9.4063205"><ele>202.0</ele><time>2026-05-01T08:54:56.24Z</time></trkpt><trkpt lat="46.1435377" lon="9.4064474"><ele>202.0</ele><time>2026-05-01T08:54:57.248Z</time></trkpt><trkpt lat="46.1435426" lon="9.4065714"><ele>202.0</ele><time>2026-05-01T08:54:58.237Z</time></trkpt><trkpt lat="46.1435458" lon="9.4066927"><ele>201.99999999999997</ele><time>2026-05-01T08:54:59.248Z</time></trkpt><trkpt lat="46.143557" lon="9.4068091"><ele>202.0</ele><time>2026-05-01T08:55:00.236Z</time></trkpt><trkpt lat="46.1435754" lon="9.4069178"><ele>202.0</ele><time>2026-05-01T08:55:01.242Z</time></trkpt><trkpt lat="46.1436" lon="9.4070346"><ele>202.0</ele><time>2026-05-01T08:55:02.24Z</time></trkpt><trkpt lat="46.1436214" lon="9.4071585"><ele>202.0</ele><time>2026-05-01T08:55:03.234Z</time></trkpt><trkpt lat="46.1436336" lon="9.4072882"><ele>202.0</ele><time>2026-05-01T08:55:04.233Z</time></trkpt><trkpt lat="46.1436362" lon="9.4074304"><ele>202.0</ele><time>2026-05-01T08:55:05.244Z</time></trkpt><trkpt lat="46.1436308" lon="9.4075812"><ele>202.0</ele><time>2026-05-01T08:55:06.244Z</time></trkpt><trkpt lat="46.1436222" lon="9.4077362"><ele>202.0</ele><time>2026-05-01T08:55:07.246Z</time></trkpt><trkpt lat="46.1436079" lon="9.4078986"><ele>202.0</ele><time>2026-05-01T08:55:08.236Z</time></trkpt><trkpt lat="46.1435754" lon="9.4080684"><ele>202.0</ele><time>2026-05-01T08:55:09.245Z</time></trkpt><trkpt lat="46.1435325" lon="9.4082426"><ele>202.0</ele><time>2026-05-01T08:55:10.239Z</time></trkpt><trkpt lat="46.1434861" lon="9.4084254"><ele>202.0</ele><time>2026-05-01T08:55:11.241Z</time></trkpt><trkpt lat="46.143441" lon="9.4086135"><ele>202.0</ele><time>2026-05-01T08:55:12.241Z</time></trkpt><trkpt lat="46.1433942" lon="9.4088226"><ele>202.0</ele><time>2026-05-01T08:55:13.241Z</time></trkpt><trkpt lat="46.1433512" lon="9.409039"><ele>202.0</ele><time>2026-05-01T08:55:14.248Z</time></trkpt><trkpt lat="46.1433157" lon="9.4092406"><ele>202.0</ele><time>2026-05-01T08:55:15.233Z</time></trkpt><trkpt lat="46.1432583" lon="9.4094146"><ele>202.0</ele><time>2026-05-01T08:55:16.247Z</time></trkpt><trkpt lat="46.1431921" lon="9.4095599"><ele>202.0</ele><time>2026-05-01T08:55:17.234Z</time></trkpt><trkpt lat="46.1431189" lon="9.4096845"><ele>202.2</ele><time>2026-05-01T08:55:18.242Z</time></trkpt><trkpt lat="46.1430482" lon="9.4098072"><ele>202.39999999999998</ele><time>2026-05-01T08:55:19.234Z</time></trkpt><trkpt lat="46.1429776" lon="9.4099159"><ele>202.60000000000002</ele><time>2026-05-01T08:55:20.24Z</time></trkpt><trkpt lat="46.1429143" lon="9.4100172"><ele>202.8</ele><time>2026-05-01T08:55:21.239Z</time></trkpt><trkpt lat="46.1428539" lon="9.4100919"><ele>203.0</ele><time>2026-05-01T08:55:22.237Z</time></trkpt><trkpt lat="46.1427906" lon="9.4101644"><ele>203.00000000000003</ele><time>2026-05-01T08:55:23.24Z</time></trkpt><trkpt lat="46.1427388" lon="9.4102286"><ele>203.0</ele><time>2026-05-01T08:55:24.244Z</time></trkpt><trkpt lat="46.1426357" lon="9.4102923"><ele>203.0</ele><time>2026-05-01T08:55:26.238Z</time></trkpt><trkpt lat="46.1425655" lon="9.4103253"><ele>203.0</ele><time>2026-05-01T08:55:28.257Z</time></trkpt><trkpt lat="46.142466" lon="9.4103677"><ele>203.00000000000003</ele><time>2026-05-01T08:55:48.248Z</time></trkpt><trkpt lat="46.1423957" lon="9.4103979"><ele>203.0</ele><time>2026-05-01T08:55:49.263Z</time></trkpt><trkpt lat="46.1423127" lon="9.4104279"><ele>203.0</ele><time>2026-05-01T08:55:50.266Z</time></trkpt><trkpt lat="46.1422083" lon="9.4104722"><ele>203.0</ele><time>2026-05-01T08:55:51.243Z</time></trkpt><trkpt lat="46.1420797" lon="9.4105313"><ele>203.0</ele><time>2026-05-01T08:55:52.271Z</time></trkpt><trkpt lat="46.141949" lon="9.4105978"><ele>203.0</ele><time>2026-05-01T08:55:53.256Z</time></trkpt><trkpt lat="46.1418148" lon="9.410694"><ele>202.75</ele><time>2026-05-01T08:55:54.259Z</time></trkpt><trkpt lat="46.1416932" lon="9.4108104"><ele>202.5</ele><time>2026-05-01T08:55:55.262Z</time></trkpt><trkpt lat="46.1415848" lon="9.4109459"><ele>202.25</ele><time>2026-05-01T08:55:56.264Z</time></trkpt><trkpt lat="46.1414951" lon="9.411099"><ele>202.0</ele><time>2026-05-01T08:55:57.253Z</time></trkpt><trkpt lat="46.1414228" lon="9.4112603"><ele>202.25</ele><time>2026-05-01T08:55:58.265Z</time></trkpt><trkpt lat="46.1413623" lon="9.4114297"><ele>202.5</ele><time>2026-05-01T08:55:59.229Z</time></trkpt><trkpt lat="46.1413175" lon="9.411616"><ele>202.75</ele><time>2026-05-01T08:56:00.215Z</time></trkpt><trkpt lat="46.1412996" lon="9.4118416"><ele>203.0</ele><time>2026-05-01T08:56:01.241Z</time></trkpt><trkpt lat="46.141323" lon="9.4121108"><ele>202.66666666666669</ele><time>2026-05-01T08:56:02.269Z</time></trkpt><trkpt lat="46.1413919" lon="9.4123277"><ele>202.33333333333331</ele><time>2026-05-01T08:56:03.271Z</time></trkpt><trkpt lat="46.141467" lon="9.4125318"><ele>202.0</ele><time>2026-05-01T08:56:04.286Z</time></trkpt><trkpt lat="46.1415408" lon="9.4127323"><ele>201.66666666666666</ele><time>2026-05-01T08:56:05.278Z</time></trkpt><trkpt lat="46.1416516" lon="9.4128971"><ele>201.33333333333331</ele><time>2026-05-01T08:56:06.284Z</time></trkpt><trkpt lat="46.1417943" lon="9.4130084"><ele>201.0</ele><time>2026-05-01T08:56:07.265Z</time></trkpt><trkpt lat="46.141913" lon="9.4130931"><ele>201.0</ele><time>2026-05-01T08:56:08.293Z</time></trkpt><trkpt lat="46.1420152" lon="9.4131858"><ele>201.0</ele><time>2026-05-01T08:56:09.277Z</time></trkpt><trkpt lat="46.1421306" lon="9.4132397"><ele>201.0</ele><time>2026-05-01T08:56:10.281Z</time></trkpt><trkpt lat="46.1422542" lon="9.4132708"><ele>201.0</ele><time>2026-05-01T08:56:11.284Z</time></trkpt><trkpt lat="46.1423865" lon="9.4132873"><ele>201.25</ele><time>2026-05-01T08:56:12.274Z</time></trkpt><trkpt lat="46.1425197" lon="9.4132849"><ele>201.5</ele><time>2026-05-01T08:56:13.292Z</time></trkpt><trkpt lat="46.1426351" lon="9.4133057"><ele>201.75</ele><time>2026-05-01T08:56:14.272Z</time></trkpt><trkpt lat="46.1427372" lon="9.4133596"><ele>202.0</ele><time>2026-05-01T08:56:15.229Z</time></trkpt><trkpt lat="46.1428307" lon="9.4134673"><ele>202.0</ele><time>2026-05-01T08:56:16.287Z</time></trkpt><trkpt lat="46.142889" lon="9.4136314"><ele>202.0</ele><time>2026-05-01T08:56:17.272Z</time></trkpt><trkpt lat="46.1429555" lon="9.4138204"><ele>202.0</ele><time>2026-05-01T08:56:18.28Z</time></trkpt><trkpt lat="46.1430193" lon="9.4140446"><ele>202.0</ele><time>2026-05-01T08:56:19.272Z</time></trkpt><trkpt lat="46.1430809" lon="9.4143751"><ele>201.66666666666666</ele><time>2026-05-01T08:56:20.278Z</time></trkpt><trkpt lat="46.1431359" lon="9.4146334"><ele>201.33333333333331</ele><time>2026-05-01T08:56:21.288Z</time></trkpt><trkpt lat="46.1431874" lon="9.414856"><ele>201.0</ele><time>2026-05-01T08:56:22.278Z</time></trkpt><trkpt lat="46.1432504" lon="9.415068"><ele>201.0</ele><time>2026-05-01T08:56:23.245Z</time></trkpt><trkpt lat="46.1433345" lon="9.4153018"><ele>201.0</ele><time>2026-05-01T08:56:24.239Z</time></trkpt><trkpt lat="46.1434171" lon="9.4155528"><ele>201.0</ele><time>2026-05-01T08:56:25.237Z</time></trkpt><trkpt lat="46.1434951" lon="9.4158086"><ele>201.0</ele><time>2026-05-01T08:56:26.247Z</time></trkpt><trkpt lat="46.1435752" lon="9.4160549"><ele>201.0</ele><time>2026-05-01T08:56:27.237Z</time></trkpt><trkpt lat="46.1436449" lon="9.4163307"><ele>201.0</ele><time>2026-05-01T08:56:28.269Z</time></trkpt><trkpt lat="46.1437008" lon="9.4166112"><ele>200.33333333333331</ele><time>2026-05-01T08:56:29.248Z</time></trkpt><trkpt lat="46.1437455" lon="9.4169093"><ele>199.66666666666666</ele><time>2026-05-01T08:56:30.243Z</time></trkpt><trkpt lat="46.143796" lon="9.4172364"><ele>199.0</ele><time>2026-05-01T08:56:31.245Z</time></trkpt><trkpt lat="46.1438549" lon="9.4175798"><ele>199.0</ele><time>2026-05-01T08:56:32.249Z</time></trkpt><trkpt lat="46.1439174" lon="9.4179391"><ele>199.0</ele><time>2026-05-01T08:56:33.246Z</time></trkpt><trkpt lat="46.1439789" lon="9.4182965"><ele>199.0</ele><time>2026-05-01T08:56:34.252Z</time></trkpt><trkpt lat="46.144035" lon="9.418652"><ele>199.0</ele><time>2026-05-01T08:56:35.24Z</time></trkpt><trkpt lat="46.1440804" lon="9.4190032"><ele>199.0</ele><time>2026-05-01T08:56:36.246Z</time></trkpt><trkpt lat="46.1441302" lon="9.419338"><ele>199.0</ele><time>2026-05-01T08:56:37.243Z</time></trkpt><trkpt lat="46.144184" lon="9.4196706"><ele>199.0</ele><time>2026-05-01T08:56:38.253Z</time></trkpt><trkpt lat="46.144238" lon="9.4200112"><ele>199.0</ele><time>2026-05-01T08:56:39.25Z</time></trkpt><trkpt lat="46.1442977" lon="9.420353"><ele>198.5</ele><time>2026-05-01T08:56:40.257Z</time></trkpt><trkpt lat="46.1443499" lon="9.4207012"><ele>198.0</ele><time>2026-05-01T08:56:41.247Z</time></trkpt><trkpt lat="46.144395" lon="9.4210545"><ele>198.5</ele><time>2026-05-01T08:56:42.247Z</time></trkpt><trkpt lat="46.1444433" lon="9.4213985"><ele>199.0</ele><time>2026-05-01T08:56:43.245Z</time></trkpt><trkpt lat="46.1444854" lon="9.4217491"><ele>199.0</ele><time>2026-05-01T08:56:44.243Z</time></trkpt><trkpt lat="46.1445328" lon="9.4220941"><ele>199.0</ele><time>2026-05-01T08:56:45.239Z</time></trkpt><trkpt lat="46.1445738" lon="9.4224278"><ele>199.5</ele><time>2026-05-01T08:56:46.243Z</time></trkpt><trkpt lat="46.1446217" lon="9.422784"><ele>200.0</ele><time>2026-05-01T08:56:47.249Z</time></trkpt><trkpt lat="46.1446624" lon="9.4231355"><ele>200.0</ele><time>2026-05-01T08:56:48.235Z</time></trkpt><trkpt lat="46.1447097" lon="9.4234742"><ele>200.0</ele><time>2026-05-01T08:56:49.248Z</time></trkpt><trkpt lat="46.1447611" lon="9.423816"><ele>201.0</ele><time>2026-05-01T08:56:50.239Z</time></trkpt><trkpt lat="46.1448051" lon="9.4241571"><ele>202.0</ele><time>2026-05-01T08:56:51.245Z</time></trkpt><trkpt lat="46.1448535" lon="9.4244924"><ele>201.0</ele><time>2026-05-01T08:56:52.242Z</time></trkpt><trkpt lat="46.1448972" lon="9.4248333"><ele>200.0</ele><time>2026-05-01T08:56:53.245Z</time></trkpt><trkpt lat="46.1449422" lon="9.4251891"><ele>200.0</ele><time>2026-05-01T08:56:54.246Z</time></trkpt><trkpt lat="46.1449833" lon="9.4255336"><ele>200.0</ele><time>2026-05-01T08:56:55.238Z</time></trkpt><trkpt lat="46.1450211" lon="9.4258766"><ele>200.0</ele><time>2026-05-01T08:56:56.248Z</time></trkpt><trkpt lat="46.1450534" lon="9.4262164"><ele>200.0</ele><time>2026-05-01T08:56:57.241Z</time></trkpt><trkpt lat="46.1450648" lon="9.4265553"><ele>200.5</ele><time>2026-05-01T08:56:58.257Z</time></trkpt><trkpt lat="46.1450747" lon="9.4268913"><ele>201.0</ele><time>2026-05-01T08:56:59.242Z</time></trkpt><trkpt lat="46.1450763" lon="9.4272255"><ele>201.5</ele><time>2026-05-01T08:57:00.246Z</time></trkpt><trkpt lat="46.14508" lon="9.4275673"><ele>202.0</ele><time>2026-05-01T08:57:01.247Z</time></trkpt><trkpt lat="46.1450851" lon="9.4278974"><ele>201.5</ele><time>2026-05-01T08:57:02.242Z</time></trkpt><trkpt lat="46.1451039" lon="9.4282486"><ele>201.0</ele><time>2026-05-01T08:57:03.254Z</time></trkpt><trkpt lat="46.1450899" lon="9.4285868"><ele>200.5</ele><time>2026-05-01T08:57:04.247Z</time></trkpt><trkpt lat="46.1450729" lon="9.4289337"><ele>200.0</ele><time>2026-05-01T08:57:05.247Z</time></trkpt><trkpt lat="46.1450509" lon="9.4292904"><ele>200.0</ele><time>2026-05-01T08:57:06.239Z</time></trkpt><trkpt lat="46.1450442" lon="9.4296357"><ele>200.0</ele><time>2026-05-01T08:57:07.246Z</time></trkpt><trkpt lat="46.1450186" lon="9.4299907"><ele>200.0</ele><time>2026-05-01T08:57:08.242Z</time></trkpt><trkpt lat="46.1449881" lon="9.4303422"><ele>200.0</ele><time>2026-05-01T08:57:09.239Z</time></trkpt><trkpt lat="46.144953" lon="9.4306859"><ele>200.5</ele><time>2026-05-01T08:57:10.24Z</time></trkpt><trkpt lat="46.1449177" lon="9.4310446"><ele>201.0</ele><time>2026-05-01T08:57:11.237Z</time></trkpt><trkpt lat="46.1448548" lon="9.4313846"><ele>200.0</ele><time>2026-05-01T08:57:12.244Z</time></trkpt><trkpt lat="46.1448129" lon="9.4317491"><ele>199.0</ele><time>2026-05-01T08:57:13.233Z</time></trkpt><trkpt lat="46.1447495" lon="9.4320908"><ele>199.0</ele><time>2026-05-01T08:57:14.234Z</time></trkpt><trkpt lat="46.144695" lon="9.4324449"><ele>199.0</ele><time>2026-05-01T08:57:15.233Z</time></trkpt><trkpt lat="46.1446317" lon="9.4328044"><ele>199.5</ele><time>2026-05-01T08:57:16.246Z</time></trkpt><trkpt lat="46.1445603" lon="9.4331458"><ele>200.0</ele><time>2026-05-01T08:57:17.243Z</time></trkpt><trkpt lat="46.1444855" lon="9.4334971"><ele>200.5</ele><time>2026-05-01T08:57:18.243Z</time></trkpt><trkpt lat="46.1444158" lon="9.4338463"><ele>201.0</ele><time>2026-05-01T08:57:19.244Z</time></trkpt><trkpt lat="46.144343" lon="9.4341903"><ele>201.0</ele><time>2026-05-01T08:57:20.238Z</time></trkpt><trkpt lat="46.1442619" lon="9.4345353"><ele>201.0</ele><time>2026-05-01T08:57:21.244Z</time></trkpt><trkpt lat="46.1441753" lon="9.434874"><ele>201.0</ele><time>2026-05-01T08:57:22.244Z</time></trkpt><trkpt lat="46.1440969" lon="9.4352202"><ele>201.0</ele><time>2026-05-01T08:57:23.251Z</time></trkpt><trkpt lat="46.1440326" lon="9.4355565"><ele>201.0</ele><time>2026-05-01T08:57:24.243Z</time></trkpt><trkpt lat="46.1439481" lon="9.4359118"><ele>201.0</ele><time>2026-05-01T08:57:25.242Z</time></trkpt><trkpt lat="46.1438619" lon="9.4362735"><ele>200.5</ele><time>2026-05-01T08:57:26.244Z</time></trkpt><trkpt lat="46.1437758" lon="9.4366069"><ele>200.0</ele><time>2026-05-01T08:57:27.23Z</time></trkpt><trkpt lat="46.1436906" lon="9.4369607"><ele>200.5</ele><time>2026-05-01T08:57:28.25Z</time></trkpt><trkpt lat="46.1436112" lon="9.4373153"><ele>201.0</ele><time>2026-05-01T08:57:29.242Z</time></trkpt><trkpt lat="46.1435349" lon="9.4376658"><ele>200.5</ele><time>2026-05-01T08:57:30.245Z</time></trkpt><trkpt lat="46.1434568" lon="9.4380031"><ele>200.0</ele><time>2026-05-01T08:57:31.243Z</time></trkpt><trkpt lat="46.1433843" lon="9.4383468"><ele>200.0</ele><time>2026-05-01T08:57:32.246Z</time></trkpt><trkpt lat="46.1433118" lon="9.4386975"><ele>200.0</ele><time>2026-05-01T08:57:33.248Z</time></trkpt><trkpt lat="46.1432462" lon="9.4390483"><ele>200.0</ele><time>2026-05-01T08:57:34.251Z</time></trkpt><trkpt lat="46.1431747" lon="9.4393744"><ele>200.0</ele><time>2026-05-01T08:57:35.239Z</time></trkpt><trkpt lat="46.143098" lon="9.4397235"><ele>200.0</ele><time>2026-05-01T08:57:36.242Z</time></trkpt><trkpt lat="46.1430117" lon="9.4400715"><ele>200.0</ele><time>2026-05-01T08:57:37.245Z</time></trkpt><trkpt lat="46.1429263" lon="9.4404177"><ele>200.0</ele><time>2026-05-01T08:57:38.244Z</time></trkpt><trkpt lat="46.1428402" lon="9.4407631"><ele>200.0</ele><time>2026-05-01T08:57:39.248Z</time></trkpt><trkpt lat="46.1427588" lon="9.4411141"><ele>200.5</ele><time>2026-05-01T08:57:40.246Z</time></trkpt><trkpt lat="46.1426761" lon="9.4414633"><ele>201.0</ele><time>2026-05-01T08:57:41.241Z</time></trkpt><trkpt lat="46.1425988" lon="9.4417994"><ele>201.0</ele><time>2026-05-01T08:57:42.249Z</time></trkpt><trkpt lat="46.1425197" lon="9.4421481"><ele>201.0</ele><time>2026-05-01T08:57:43.24Z</time></trkpt><trkpt lat="46.1424308" lon="9.4424773"><ele>201.5</ele><time>2026-05-01T08:57:44.246Z</time></trkpt><trkpt lat="46.1423308" lon="9.4428375"><ele>202.0</ele><time>2026-05-01T08:57:45.246Z</time></trkpt><trkpt lat="46.1422676" lon="9.4431701"><ele>202.0</ele><time>2026-05-01T08:57:46.244Z</time></trkpt><trkpt lat="46.1422068" lon="9.4435055"><ele>202.0</ele><time>2026-05-01T08:57:47.245Z</time></trkpt><trkpt lat="46.1421451" lon="9.4438613"><ele>201.5</ele><time>2026-05-01T08:57:48.242Z</time></trkpt><trkpt lat="46.1420864" lon="9.4442126"><ele>201.0</ele><time>2026-05-01T08:57:49.237Z</time></trkpt><trkpt lat="46.1420207" lon="9.444556"><ele>201.5</ele><time>2026-05-01T08:57:50.243Z</time></trkpt><trkpt lat="46.1419663" lon="9.444924"><ele>202.0</ele><time>2026-05-01T08:57:51.245Z</time></trkpt><trkpt lat="46.1419384" lon="9.4452666"><ele>202.5</ele><time>2026-05-01T08:57:52.249Z</time></trkpt><trkpt lat="46.1419001" lon="9.4456075"><ele>203.0</ele><time>2026-05-01T08:57:53.246Z</time></trkpt><trkpt lat="46.1418651" lon="9.4459552"><ele>202.0</ele><time>2026-05-01T08:57:54.24Z</time></trkpt><trkpt lat="46.1418317" lon="9.4463128"><ele>201.0</ele><time>2026-05-01T08:57:55.242Z</time></trkpt><trkpt lat="46.1418085" lon="9.4466781"><ele>201.0</ele><time>2026-05-01T08:57:56.264Z</time></trkpt><trkpt lat="46.1417909" lon="9.4470475"><ele>201.0</ele><time>2026-05-01T08:57:57.262Z</time></trkpt><trkpt lat="46.1417728" lon="9.4474126"><ele>201.0</ele><time>2026-05-01T08:57:58.238Z</time></trkpt><trkpt lat="46.1417505" lon="9.4477887"><ele>201.0</ele><time>2026-05-01T08:57:59.244Z</time></trkpt><trkpt lat="46.1417496" lon="9.44814"><ele>201.0</ele><time>2026-05-01T08:58:00.261Z</time></trkpt><trkpt lat="46.1417519" lon="9.4484948"><ele>201.0</ele><time>2026-05-01T08:58:01.268Z</time></trkpt><trkpt lat="46.1417519" lon="9.4488487"><ele>201.5</ele><time>2026-05-01T08:58:02.263Z</time></trkpt><trkpt lat="46.1417591" lon="9.4492022"><ele>202.0</ele><time>2026-05-01T08:58:03.27Z</time></trkpt><trkpt lat="46.141772" lon="9.4495507"><ele>202.0</ele><time>2026-05-01T08:58:04.266Z</time></trkpt><trkpt lat="46.1417805" lon="9.4499129"><ele>202.0</ele><time>2026-05-01T08:58:05.267Z</time></trkpt><trkpt lat="46.1417845" lon="9.4502622"><ele>202.5</ele><time>2026-05-01T08:58:06.251Z</time></trkpt><trkpt lat="46.1417956" lon="9.4506176"><ele>203.0</ele><time>2026-05-01T08:58:07.266Z</time></trkpt><trkpt lat="46.1418234" lon="9.4509795"><ele>203.0</ele><time>2026-05-01T08:58:08.262Z</time></trkpt><trkpt lat="46.1418638" lon="9.4513394"><ele>203.0</ele><time>2026-05-01T08:58:09.261Z</time></trkpt><trkpt lat="46.1419156" lon="9.4517057"><ele>203.0</ele><time>2026-05-01T08:58:10.267Z</time></trkpt><trkpt lat="46.1419658" lon="9.4520888"><ele>203.0</ele><time>2026-05-01T08:58:11.267Z</time></trkpt><trkpt lat="46.1420202" lon="9.4524641"><ele>203.0</ele><time>2026-05-01T08:58:12.253Z</time></trkpt><trkpt lat="46.1420649" lon="9.4528304"><ele>203.0</ele><time>2026-05-01T08:58:13.273Z</time></trkpt><trkpt lat="46.1421221" lon="9.4531808"><ele>203.5</ele><time>2026-05-01T08:58:14.26Z</time></trkpt><trkpt lat="46.1421819" lon="9.4535443"><ele>204.0</ele><time>2026-05-01T08:58:15.258Z</time></trkpt><trkpt lat="46.1422436" lon="9.4539141"><ele>205.0</ele><time>2026-05-01T08:58:16.265Z</time></trkpt><trkpt lat="46.1423088" lon="9.4542581"><ele>206.0</ele><time>2026-05-01T08:58:17.271Z</time></trkpt><trkpt lat="46.14238" lon="9.4546131"><ele>204.5</ele><time>2026-05-01T08:58:18.267Z</time></trkpt><trkpt lat="46.1424502" lon="9.4549527"><ele>203.0</ele><time>2026-05-01T08:58:19.274Z</time></trkpt><trkpt lat="46.1425162" lon="9.4552881"><ele>203.0</ele><time>2026-05-01T08:58:20.268Z</time></trkpt><trkpt lat="46.1425966" lon="9.455629"><ele>203.0</ele><time>2026-05-01T08:58:21.266Z</time></trkpt><trkpt lat="46.142678" lon="9.4559698"><ele>203.0</ele><time>2026-05-01T08:58:22.268Z</time></trkpt><trkpt lat="46.1427703" lon="9.4563169"><ele>203.0</ele><time>2026-05-01T08:58:23.258Z</time></trkpt><trkpt lat="46.1428618" lon="9.4566744"><ele>203.0</ele><time>2026-05-01T08:58:24.274Z</time></trkpt><trkpt lat="46.1429462" lon="9.457021"><ele>203.0</ele><time>2026-05-01T08:58:25.268Z</time></trkpt><trkpt lat="46.1430466" lon="9.4573638"><ele>203.5</ele><time>2026-05-01T08:58:26.265Z</time></trkpt><trkpt lat="46.1431543" lon="9.4577036"><ele>204.0</ele><time>2026-05-01T08:58:27.266Z</time></trkpt><trkpt lat="46.1432454" lon="9.458039"><ele>204.0</ele><time>2026-05-01T08:58:28.273Z</time></trkpt><trkpt lat="46.1433396" lon="9.4583814"><ele>204.0</ele><time>2026-05-01T08:58:29.266Z</time></trkpt><trkpt lat="46.1434315" lon="9.4587303"><ele>205.0</ele><time>2026-05-01T08:58:30.27Z</time></trkpt><trkpt lat="46.1435088" lon="9.4590596"><ele>206.0</ele><time>2026-05-01T08:58:31.262Z</time></trkpt><trkpt lat="46.1435964" lon="9.4594048"><ele>205.0</ele><time>2026-05-01T08:58:32.26Z</time></trkpt><trkpt lat="46.1436844" lon="9.4597468"><ele>204.0</ele><time>2026-05-01T08:58:33.246Z</time></trkpt><trkpt lat="46.1437643" lon="9.4600888"><ele>204.0</ele><time>2026-05-01T08:58:34.252Z</time></trkpt><trkpt lat="46.1438484" lon="9.4604262"><ele>204.0</ele><time>2026-05-01T08:58:35.243Z</time></trkpt><trkpt lat="46.1439359" lon="9.4607696"><ele>203.5</ele><time>2026-05-01T08:58:36.248Z</time></trkpt><trkpt lat="46.1439965" lon="9.4611276"><ele>203.0</ele><time>2026-05-01T08:58:37.241Z</time></trkpt><trkpt lat="46.1440643" lon="9.4614864"><ele>203.0</ele><time>2026-05-01T08:58:38.238Z</time></trkpt><trkpt lat="46.1441377" lon="9.4618412"><ele>203.0</ele><time>2026-05-01T08:58:39.246Z</time></trkpt><trkpt lat="46.14419" lon="9.4621795"><ele>203.0</ele><time>2026-05-01T08:58:40.24Z</time></trkpt><trkpt lat="46.1442593" lon="9.4625271"><ele>203.0</ele><time>2026-05-01T08:58:41.25Z</time></trkpt><trkpt lat="46.1443169" lon="9.462883"><ele>202.5</ele><time>2026-05-01T08:58:42.246Z</time></trkpt><trkpt lat="46.1443823" lon="9.4632297"><ele>202.0</ele><time>2026-05-01T08:58:43.243Z</time></trkpt><trkpt lat="46.1444161" lon="9.4635789"><ele>203.0</ele><time>2026-05-01T08:58:44.25Z</time></trkpt><trkpt lat="46.1444467" lon="9.4639265"><ele>204.0</ele><time>2026-05-01T08:58:45.243Z</time></trkpt><trkpt lat="46.1444822" lon="9.4642773"><ele>204.5</ele><time>2026-05-01T08:58:46.259Z</time></trkpt><trkpt lat="46.1445338" lon="9.4646396"><ele>205.0</ele><time>2026-05-01T08:58:47.245Z</time></trkpt><trkpt lat="46.1445795" lon="9.464983"><ele>205.0</ele><time>2026-05-01T08:58:48.246Z</time></trkpt><trkpt lat="46.1446083" lon="9.4653328"><ele>205.0</ele><time>2026-05-01T08:58:49.249Z</time></trkpt><trkpt lat="46.1446339" lon="9.4656908"><ele>205.0</ele><time>2026-05-01T08:58:50.248Z</time></trkpt><trkpt lat="46.1446571" lon="9.4660399"><ele>205.0</ele><time>2026-05-01T08:58:51.247Z</time></trkpt><trkpt lat="46.1446784" lon="9.4664009"><ele>204.5</ele><time>2026-05-01T08:58:52.246Z</time></trkpt><trkpt lat="46.1446922" lon="9.4667574"><ele>204.0</ele><time>2026-05-01T08:58:53.246Z</time></trkpt><trkpt lat="46.1447106" lon="9.4671195"><ele>205.5</ele><time>2026-05-01T08:58:54.239Z</time></trkpt><trkpt lat="46.1447241" lon="9.4674847"><ele>207.0</ele><time>2026-05-01T08:58:55.251Z</time></trkpt><trkpt lat="46.1447352" lon="9.4678476"><ele>207.0</ele><time>2026-05-01T08:58:56.241Z</time></trkpt><trkpt lat="46.1447469" lon="9.4682054"><ele>207.0</ele><time>2026-05-01T08:58:57.242Z</time></trkpt><trkpt lat="46.1447506" lon="9.4685655"><ele>206.5</ele><time>2026-05-01T08:58:58.249Z</time></trkpt><trkpt lat="46.1447482" lon="9.4689184"><ele>206.0</ele><time>2026-05-01T08:58:59.249Z</time></trkpt><trkpt lat="46.1447729" lon="9.4692888"><ele>205.0</ele><time>2026-05-01T08:59:00.251Z</time></trkpt><trkpt lat="46.144789" lon="9.4696662"><ele>204.0</ele><time>2026-05-01T08:59:01.244Z</time></trkpt><trkpt lat="46.1448019" lon="9.4700273"><ele>204.0</ele><time>2026-05-01T08:59:02.253Z</time></trkpt><trkpt lat="46.1448114" lon="9.4703901"><ele>204.0</ele><time>2026-05-01T08:59:03.24Z</time></trkpt><trkpt lat="46.144819" lon="9.470764"><ele>206.0</ele><time>2026-05-01T08:59:04.25Z</time></trkpt><trkpt lat="46.144826" lon="9.4711427"><ele>208.0</ele><time>2026-05-01T08:59:05.245Z</time></trkpt><trkpt lat="46.1448468" lon="9.4715053"><ele>209.5</ele><time>2026-05-01T08:59:06.25Z</time></trkpt><trkpt lat="46.144859" lon="9.4718672"><ele>211.0</ele><time>2026-05-01T08:59:07.246Z</time></trkpt><trkpt lat="46.1448767" lon="9.4722312"><ele>211.5</ele><time>2026-05-01T08:59:08.254Z</time></trkpt><trkpt lat="46.144887" lon="9.4726089"><ele>212.0</ele><time>2026-05-01T08:59:09.245Z</time></trkpt><trkpt lat="46.1448944" lon="9.4729614"><ele>212.0</ele><time>2026-05-01T08:59:10.249Z</time></trkpt><trkpt lat="46.1448942" lon="9.473319"><ele>212.0</ele><time>2026-05-01T08:59:11.248Z</time></trkpt><trkpt lat="46.1449004" lon="9.4736821"><ele>211.5</ele><time>2026-05-01T08:59:12.248Z</time></trkpt><trkpt lat="46.1449029" lon="9.4740398"><ele>211.0</ele><time>2026-05-01T08:59:13.249Z</time></trkpt><trkpt lat="46.1449009" lon="9.4743999"><ele>212.5</ele><time>2026-05-01T08:59:14.248Z</time></trkpt><trkpt lat="46.1449071" lon="9.4747559"><ele>214.0</ele><time>2026-05-01T08:59:15.245Z</time></trkpt><trkpt lat="46.1449142" lon="9.4751198"><ele>214.5</ele><time>2026-05-01T08:59:16.244Z</time></trkpt><trkpt lat="46.1449296" lon="9.4754812"><ele>215.0</ele><time>2026-05-01T08:59:17.243Z</time></trkpt><trkpt lat="46.1449516" lon="9.4758417"><ele>215.0</ele><time>2026-05-01T08:59:18.245Z</time></trkpt><trkpt lat="46.144972" lon="9.4762185"><ele>215.0</ele><time>2026-05-01T08:59:19.253Z</time></trkpt><trkpt lat="46.1449803" lon="9.4765902"><ele>212.0</ele><time>2026-05-01T08:59:20.251Z</time></trkpt><trkpt lat="46.1449941" lon="9.4769674"><ele>209.0</ele><time>2026-05-01T08:59:21.242Z</time></trkpt><trkpt lat="46.1450017" lon="9.4773286"><ele>207.0</ele><time>2026-05-01T08:59:22.242Z</time></trkpt><trkpt lat="46.1450053" lon="9.4776934"><ele>205.0</ele><time>2026-05-01T08:59:23.249Z</time></trkpt><trkpt lat="46.145008" lon="9.4780556"><ele>205.0</ele><time>2026-05-01T08:59:24.247Z</time></trkpt><trkpt lat="46.1450114" lon="9.4784112"><ele>205.0</ele><time>2026-05-01T08:59:25.255Z</time></trkpt><trkpt lat="46.1450209" lon="9.4787736"><ele>204.5</ele><time>2026-05-01T08:59:26.249Z</time></trkpt><trkpt lat="46.1450292" lon="9.4791259"><ele>204.0</ele><time>2026-05-01T08:59:27.248Z</time></trkpt><trkpt lat="46.1450396" lon="9.4794848"><ele>204.0</ele><time>2026-05-01T08:59:28.248Z</time></trkpt><trkpt lat="46.1450519" lon="9.4798598"><ele>204.0</ele><time>2026-05-01T08:59:29.251Z</time></trkpt><trkpt lat="46.1450579" lon="9.4802166"><ele>204.0</ele><time>2026-05-01T08:59:30.252Z</time></trkpt><trkpt lat="46.1450741" lon="9.4805873"><ele>204.0</ele><time>2026-05-01T08:59:31.251Z</time></trkpt><trkpt lat="46.1450848" lon="9.4809427"><ele>203.5</ele><time>2026-05-01T08:59:32.252Z</time></trkpt><trkpt lat="46.1450951" lon="9.4812918"><ele>203.0</ele><time>2026-05-01T08:59:33.247Z</time></trkpt><trkpt lat="46.1451036" lon="9.4816627"><ele>203.0</ele><time>2026-05-01T08:59:34.242Z</time></trkpt><trkpt lat="46.1451148" lon="9.4820309"><ele>203.0</ele><time>2026-05-01T08:59:35.253Z</time></trkpt><trkpt lat="46.1451365" lon="9.4824023"><ele>203.0</ele><time>2026-05-01T08:59:36.247Z</time></trkpt><trkpt lat="46.1451536" lon="9.4827903"><ele>203.0</ele><time>2026-05-01T08:59:37.243Z</time></trkpt><trkpt lat="46.1451777" lon="9.4831695"><ele>202.5</ele><time>2026-05-01T08:59:38.244Z</time></trkpt><trkpt lat="46.1451874" lon="9.4835499"><ele>202.0</ele><time>2026-05-01T08:59:39.242Z</time></trkpt><trkpt lat="46.1452274" lon="9.4839432"><ele>202.0</ele><time>2026-05-01T08:59:40.253Z</time></trkpt><trkpt lat="46.1452668" lon="9.4843324"><ele>202.0</ele><time>2026-05-01T08:59:41.237Z</time></trkpt><trkpt lat="46.1453161" lon="9.4847036"><ele>203.5</ele><time>2026-05-01T08:59:42.24Z</time></trkpt><trkpt lat="46.1453751" lon="9.4850801"><ele>205.0</ele><time>2026-05-01T08:59:43.244Z</time></trkpt><trkpt lat="46.1454343" lon="9.4854669"><ele>205.5</ele><time>2026-05-01T08:59:44.236Z</time></trkpt><trkpt lat="46.1455038" lon="9.4858602"><ele>206.0</ele><time>2026-05-01T08:59:45.239Z</time></trkpt><trkpt lat="46.1455693" lon="9.486252"><ele>206.0</ele><time>2026-05-01T08:59:46.239Z</time></trkpt><trkpt lat="46.1456503" lon="9.4866258"><ele>206.0</ele><time>2026-05-01T08:59:47.248Z</time></trkpt><trkpt lat="46.1457395" lon="9.4869867"><ele>206.0</ele><time>2026-05-01T08:59:48.241Z</time></trkpt><trkpt lat="46.1458149" lon="9.4873576"><ele>206.0</ele><time>2026-05-01T08:59:49.253Z</time></trkpt><trkpt lat="46.1458977" lon="9.4877075"><ele>206.0</ele><time>2026-05-01T08:59:50.237Z</time></trkpt><trkpt lat="46.1459828" lon="9.4880716"><ele>206.0</ele><time>2026-05-01T08:59:51.243Z</time></trkpt><trkpt lat="46.1460673" lon="9.4884258"><ele>206.5</ele><time>2026-05-01T08:59:52.246Z</time></trkpt><trkpt lat="46.1461548" lon="9.4887955"><ele>207.0</ele><time>2026-05-01T08:59:53.252Z</time></trkpt><trkpt lat="46.1462448" lon="9.489155"><ele>207.0</ele><time>2026-05-01T08:59:54.243Z</time></trkpt><trkpt lat="46.1463328" lon="9.4895163"><ele>207.0</ele><time>2026-05-01T08:59:55.253Z</time></trkpt><trkpt lat="46.1464091" lon="9.4898844"><ele>207.0</ele><time>2026-05-01T08:59:56.244Z</time></trkpt><trkpt lat="46.1464896" lon="9.4902483"><ele>207.0</ele><time>2026-05-01T08:59:57.249Z</time></trkpt><trkpt lat="46.1465744" lon="9.4906202"><ele>207.0</ele><time>2026-05-01T08:59:58.244Z</time></trkpt><trkpt lat="46.1466422" lon="9.4909901"><ele>207.0</ele><time>2026-05-01T08:59:59.244Z</time></trkpt><trkpt lat="46.14673" lon="9.4913468"><ele>208.0</ele><time>2026-05-01T09:00:00.25Z</time></trkpt><trkpt lat="46.1468064" lon="9.4916951"><ele>209.0</ele><time>2026-05-01T09:00:01.245Z</time></trkpt><trkpt lat="46.1468733" lon="9.492066"><ele>209.0</ele><time>2026-05-01T09:00:02.245Z</time></trkpt><trkpt lat="46.1469395" lon="9.4924401"><ele>209.0</ele><time>2026-05-01T09:00:03.232Z</time></trkpt><trkpt lat="46.1469963" lon="9.4928035"><ele>208.0</ele><time>2026-05-01T09:00:04.229Z</time></trkpt><trkpt lat="46.1470377" lon="9.4931683"><ele>207.0</ele><time>2026-05-01T09:00:05.237Z</time></trkpt><trkpt lat="46.1470963" lon="9.4935358"><ele>206.5</ele><time>2026-05-01T09:00:06.234Z</time></trkpt><trkpt lat="46.1471541" lon="9.4939052"><ele>206.0</ele><time>2026-05-01T09:00:07.242Z</time></trkpt><trkpt lat="46.147205" lon="9.4942716"><ele>205.5</ele><time>2026-05-01T09:00:08.232Z</time></trkpt><trkpt lat="46.1472478" lon="9.4946393"><ele>205.0</ele><time>2026-05-01T09:00:09.237Z</time></trkpt><trkpt lat="46.147273" lon="9.4949887"><ele>205.0</ele><time>2026-05-01T09:00:10.237Z</time></trkpt><trkpt lat="46.1472938" lon="9.4953459"><ele>205.0</ele><time>2026-05-01T09:00:11.24Z</time></trkpt><trkpt lat="46.1473159" lon="9.495726"><ele>206.5</ele><time>2026-05-01T09:00:12.237Z</time></trkpt><trkpt lat="46.1473273" lon="9.4960889"><ele>208.0</ele><time>2026-05-01T09:00:13.248Z</time></trkpt><trkpt lat="46.1473295" lon="9.4964607"><ele>208.0</ele><time>2026-05-01T09:00:14.24Z</time></trkpt><trkpt lat="46.1473172" lon="9.4968286"><ele>208.0</ele><time>2026-05-01T09:00:15.239Z</time></trkpt><trkpt lat="46.1473088" lon="9.4971948"><ele>208.0</ele><time>2026-05-01T09:00:16.248Z</time></trkpt><trkpt lat="46.1472798" lon="9.497557"><ele>208.0</ele><time>2026-05-01T09:00:17.253Z</time></trkpt><trkpt lat="46.147259" lon="9.4979359"><ele>209.0</ele><time>2026-05-01T09:00:18.245Z</time></trkpt><trkpt lat="46.1472308" lon="9.4983173"><ele>210.0</ele><time>2026-05-01T09:00:19.255Z</time></trkpt><trkpt lat="46.1471842" lon="9.498682"><ele>210.0</ele><time>2026-05-01T09:00:20.241Z</time></trkpt><trkpt lat="46.1471444" lon="9.4990488"><ele>210.0</ele><time>2026-05-01T09:00:21.246Z</time></trkpt><trkpt lat="46.1470922" lon="9.4994128"><ele>208.5</ele><time>2026-05-01T09:00:22.247Z</time></trkpt><trkpt lat="46.1470358" lon="9.4997761"><ele>207.0</ele><time>2026-05-01T09:00:23.243Z</time></trkpt><trkpt lat="46.1469636" lon="9.5001354"><ele>206.5</ele><time>2026-05-01T09:00:24.235Z</time></trkpt><trkpt lat="46.1468917" lon="9.5005222"><ele>206.0</ele><time>2026-05-01T09:00:25.242Z</time></trkpt><trkpt lat="46.1468131" lon="9.5009034"><ele>206.5</ele><time>2026-05-01T09:00:26.244Z</time></trkpt><trkpt lat="46.1467221" lon="9.5012524"><ele>207.0</ele><time>2026-05-01T09:00:27.241Z</time></trkpt><trkpt lat="46.1466376" lon="9.5016203"><ele>207.0</ele><time>2026-05-01T09:00:28.25Z</time></trkpt><trkpt lat="46.1465508" lon="9.5019886"><ele>207.0</ele><time>2026-05-01T09:00:29.244Z</time></trkpt><trkpt lat="46.1464458" lon="9.5023567"><ele>206.5</ele><time>2026-05-01T09:00:30.245Z</time></trkpt><trkpt lat="46.1463314" lon="9.5027166"><ele>206.0</ele><time>2026-05-01T09:00:31.247Z</time></trkpt><trkpt lat="46.1462147" lon="9.5030876"><ele>206.5</ele><time>2026-05-01T09:00:32.246Z</time></trkpt><trkpt lat="46.1460985" lon="9.5034565"><ele>207.0</ele><time>2026-05-01T09:00:33.243Z</time></trkpt><trkpt lat="46.1459604" lon="9.5038097"><ele>207.0</ele><time>2026-05-01T09:00:34.245Z</time></trkpt><trkpt lat="46.1458277" lon="9.5041406"><ele>207.0</ele><time>2026-05-01T09:00:35.242Z</time></trkpt><trkpt lat="46.1456809" lon="9.5044498"><ele>206.5</ele><time>2026-05-01T09:00:36.241Z</time></trkpt><trkpt lat="46.1455519" lon="9.5047686"><ele>206.0</ele><time>2026-05-01T09:00:37.259Z</time></trkpt><trkpt lat="46.1454185" lon="9.5050755"><ele>206.0</ele><time>2026-05-01T09:00:38.248Z</time></trkpt><trkpt lat="46.1452817" lon="9.5053782"><ele>206.0</ele><time>2026-05-01T09:00:39.272Z</time></trkpt><trkpt lat="46.1451529" lon="9.5056497"><ele>206.66666666666669</ele><time>2026-05-01T09:00:40.248Z</time></trkpt><trkpt lat="46.1450101" lon="9.505909"><ele>207.33333333333331</ele><time>2026-05-01T09:00:41.239Z</time></trkpt><trkpt lat="46.1448737" lon="9.5061484"><ele>208.0</ele><time>2026-05-01T09:00:42.237Z</time></trkpt><trkpt lat="46.1447392" lon="9.5063839"><ele>208.33333333333331</ele><time>2026-05-01T09:00:43.245Z</time></trkpt><trkpt lat="46.1446045" lon="9.5066131"><ele>208.66666666666669</ele><time>2026-05-01T09:00:44.242Z</time></trkpt><trkpt lat="46.1444616" lon="9.5068515"><ele>209.0</ele><time>2026-05-01T09:00:45.263Z</time></trkpt><trkpt lat="46.144321" lon="9.5070845"><ele>208.33333333333334</ele><time>2026-05-01T09:00:46.27Z</time></trkpt><trkpt lat="46.1441846" lon="9.50732"><ele>207.66666666666669</ele><time>2026-05-01T09:00:47.262Z</time></trkpt><trkpt lat="46.144046" lon="9.507541"><ele>207.0</ele><time>2026-05-01T09:00:48.27Z</time></trkpt><trkpt lat="46.1439149" lon="9.5077591"><ele>207.0</ele><time>2026-05-01T09:00:49.272Z</time></trkpt><trkpt lat="46.1437739" lon="9.5079634"><ele>207.0</ele><time>2026-05-01T09:00:50.266Z</time></trkpt><trkpt lat="46.1436346" lon="9.5081598"><ele>207.0</ele><time>2026-05-01T09:00:51.267Z</time></trkpt><trkpt lat="46.1435006" lon="9.5083407"><ele>207.0</ele><time>2026-05-01T09:00:52.258Z</time></trkpt><trkpt lat="46.1433576" lon="9.5085305"><ele>207.0</ele><time>2026-05-01T09:00:53.261Z</time></trkpt><trkpt lat="46.1432172" lon="9.5087362"><ele>207.0</ele><time>2026-05-01T09:00:54.257Z</time></trkpt><trkpt lat="46.1430745" lon="9.5089335"><ele>207.0</ele><time>2026-05-01T09:00:55.267Z</time></trkpt><trkpt lat="46.1429188" lon="9.5091446"><ele>207.0</ele><time>2026-05-01T09:00:56.258Z</time></trkpt><trkpt lat="46.1427898" lon="9.5093625"><ele>207.0</ele><time>2026-05-01T09:00:57.269Z</time></trkpt><trkpt lat="46.1426448" lon="9.5095761"><ele>207.0</ele><time>2026-05-01T09:00:58.26Z</time></trkpt><trkpt lat="46.1424937" lon="9.5097882"><ele>207.0</ele><time>2026-05-01T09:00:59.259Z</time></trkpt><trkpt lat="46.1423415" lon="9.5100153"><ele>207.0</ele><time>2026-05-01T09:01:00.246Z</time></trkpt><trkpt lat="46.1421894" lon="9.510243"><ele>207.5</ele><time>2026-05-01T09:01:01.266Z</time></trkpt><trkpt lat="46.1420248" lon="9.5104874"><ele>208.0</ele><time>2026-05-01T09:01:02.261Z</time></trkpt><trkpt lat="46.1418608" lon="9.5107341"><ele>208.0</ele><time>2026-05-01T09:01:03.24Z</time></trkpt><trkpt lat="46.1417093" lon="9.510966"><ele>208.0</ele><time>2026-05-01T09:01:04.26Z</time></trkpt><trkpt lat="46.1415529" lon="9.5112059"><ele>208.0</ele><time>2026-05-01T09:01:05.269Z</time></trkpt><trkpt lat="46.1413984" lon="9.5114302"><ele>207.5</ele><time>2026-05-01T09:01:06.269Z</time></trkpt><trkpt lat="46.1412277" lon="9.5116643"><ele>207.0</ele><time>2026-05-01T09:01:07.258Z</time></trkpt><trkpt lat="46.141057" lon="9.511908"><ele>206.5</ele><time>2026-05-01T09:01:08.266Z</time></trkpt><trkpt lat="46.1408949" lon="9.5121548"><ele>206.0</ele><time>2026-05-01T09:01:09.27Z</time></trkpt><trkpt lat="46.1407366" lon="9.5124132"><ele>207.5</ele><time>2026-05-01T09:01:10.263Z</time></trkpt><trkpt lat="46.1405742" lon="9.5126592"><ele>209.0</ele><time>2026-05-01T09:01:11.278Z</time></trkpt><trkpt lat="46.1404139" lon="9.5129062"><ele>209.5</ele><time>2026-05-01T09:01:12.267Z</time></trkpt><trkpt lat="46.140257" lon="9.5131621"><ele>210.0</ele><time>2026-05-01T09:01:13.263Z</time></trkpt><trkpt lat="46.1401306" lon="9.5134496"><ele>210.0</ele><time>2026-05-01T09:01:14.266Z</time></trkpt><trkpt lat="46.1399715" lon="9.5137218"><ele>210.0</ele><time>2026-05-01T09:01:15.268Z</time></trkpt><trkpt lat="46.1398219" lon="9.5139827"><ele>209.0</ele><time>2026-05-01T09:01:16.236Z</time></trkpt><trkpt lat="46.1396678" lon="9.5142562"><ele>208.0</ele><time>2026-05-01T09:01:17.252Z</time></trkpt><trkpt lat="46.1395341" lon="9.5145288"><ele>208.0</ele><time>2026-05-01T09:01:18.244Z</time></trkpt><trkpt lat="46.1393933" lon="9.5147878"><ele>208.0</ele><time>2026-05-01T09:01:19.245Z</time></trkpt><trkpt lat="46.139255" lon="9.5150539"><ele>208.0</ele><time>2026-05-01T09:01:20.245Z</time></trkpt><trkpt lat="46.1391233" lon="9.5153395"><ele>208.0</ele><time>2026-05-01T09:01:21.244Z</time></trkpt><trkpt lat="46.1389952" lon="9.5156198"><ele>207.5</ele><time>2026-05-01T09:01:22.248Z</time></trkpt><trkpt lat="46.1388776" lon="9.5159147"><ele>207.0</ele><time>2026-05-01T09:01:23.245Z</time></trkpt><trkpt lat="46.1387557" lon="9.5162032"><ele>209.0</ele><time>2026-05-01T09:01:24.259Z</time></trkpt><trkpt lat="46.1386499" lon="9.5165067"><ele>211.0</ele><time>2026-05-01T09:01:25.247Z</time></trkpt><trkpt lat="46.1385464" lon="9.5168089"><ele>210.5</ele><time>2026-05-01T09:01:26.246Z</time></trkpt><trkpt lat="46.1384507" lon="9.5171164"><ele>210.0</ele><time>2026-05-01T09:01:27.252Z</time></trkpt><trkpt lat="46.1383509" lon="9.5174221"><ele>210.0</ele><time>2026-05-01T09:01:28.25Z</time></trkpt><trkpt lat="46.1382536" lon="9.5177368"><ele>210.0</ele><time>2026-05-01T09:01:29.254Z</time></trkpt><trkpt lat="46.1381807" lon="9.5180463"><ele>208.5</ele><time>2026-05-01T09:01:30.245Z</time></trkpt><trkpt lat="46.1381216" lon="9.5183626"><ele>207.0</ele><time>2026-05-01T09:01:31.258Z</time></trkpt><trkpt lat="46.1380691" lon="9.5186804"><ele>207.66666666666669</ele><time>2026-05-01T09:01:32.262Z</time></trkpt><trkpt lat="46.13801" lon="9.5189914"><ele>208.33333333333334</ele><time>2026-05-01T09:01:33.287Z</time></trkpt><trkpt lat="46.137945" lon="9.5193032"><ele>209.0</ele><time>2026-05-01T09:01:34.263Z</time></trkpt><trkpt lat="46.137906" lon="9.5196085"><ele>209.0</ele><time>2026-05-01T09:01:35.287Z</time></trkpt><trkpt lat="46.1378589" lon="9.5199068"><ele>209.0</ele><time>2026-05-01T09:01:36.289Z</time></trkpt><trkpt lat="46.1378182" lon="9.5202142"><ele>209.0</ele><time>2026-05-01T09:01:37.289Z</time></trkpt><trkpt lat="46.137786" lon="9.5205078"><ele>209.0</ele><time>2026-05-01T09:01:38.292Z</time></trkpt><trkpt lat="46.1377693" lon="9.5208134"><ele>209.0</ele><time>2026-05-01T09:01:39.284Z</time></trkpt><trkpt lat="46.1377593" lon="9.5211124"><ele>209.0</ele><time>2026-05-01T09:01:40.287Z</time></trkpt><trkpt lat="46.1377357" lon="9.5214201"><ele>209.0</ele><time>2026-05-01T09:01:41.281Z</time></trkpt><trkpt lat="46.1377281" lon="9.5217272"><ele>209.0</ele><time>2026-05-01T09:01:42.288Z</time></trkpt><trkpt lat="46.1377112" lon="9.5220235"><ele>209.0</ele><time>2026-05-01T09:01:43.286Z</time></trkpt><trkpt lat="46.1377059" lon="9.5223451"><ele>209.0</ele><time>2026-05-01T09:01:44.285Z</time></trkpt><trkpt lat="46.1377091" lon="9.5226705"><ele>209.0</ele><time>2026-05-01T09:01:45.275Z</time></trkpt><trkpt lat="46.1377061" lon="9.5230097"><ele>209.5</ele><time>2026-05-01T09:01:46.289Z</time></trkpt><trkpt lat="46.1377134" lon="9.5233629"><ele>210.0</ele><time>2026-05-01T09:01:47.283Z</time></trkpt><trkpt lat="46.1377175" lon="9.5237191"><ele>210.0</ele><time>2026-05-01T09:01:48.293Z</time></trkpt><trkpt lat="46.1377226" lon="9.5240717"><ele>210.0</ele><time>2026-05-01T09:01:49.282Z</time></trkpt><trkpt lat="46.1377302" lon="9.5244315"><ele>209.0</ele><time>2026-05-01T09:01:50.288Z</time></trkpt><trkpt lat="46.1377325" lon="9.5247873"><ele>208.0</ele><time>2026-05-01T09:01:51.289Z</time></trkpt><trkpt lat="46.1377446" lon="9.5251459"><ele>208.5</ele><time>2026-05-01T09:01:52.28Z</time></trkpt><trkpt lat="46.1377668" lon="9.5255098"><ele>209.0</ele><time>2026-05-01T09:01:53.29Z</time></trkpt><trkpt lat="46.1377765" lon="9.5258702"><ele>209.5</ele><time>2026-05-01T09:01:54.296Z</time></trkpt><trkpt lat="46.1377943" lon="9.5262487"><ele>210.0</ele><time>2026-05-01T09:01:55.288Z</time></trkpt><trkpt lat="46.1378068" lon="9.5266277"><ele>210.0</ele><time>2026-05-01T09:01:56.29Z</time></trkpt><trkpt lat="46.1378271" lon="9.5269912"><ele>210.0</ele><time>2026-05-01T09:01:57.287Z</time></trkpt><trkpt lat="46.1378362" lon="9.5273437"><ele>210.5</ele><time>2026-05-01T09:01:58.294Z</time></trkpt><trkpt lat="46.1378453" lon="9.5276974"><ele>211.0</ele><time>2026-05-01T09:01:59.291Z</time></trkpt><trkpt lat="46.1378534" lon="9.5280589"><ele>211.0</ele><time>2026-05-01T09:02:00.284Z</time></trkpt><trkpt lat="46.1378445" lon="9.5284051"><ele>211.0</ele><time>2026-05-01T09:02:01.29Z</time></trkpt><trkpt lat="46.1378398" lon="9.528761"><ele>211.5</ele><time>2026-05-01T09:02:02.281Z</time></trkpt><trkpt lat="46.1378217" lon="9.529104"><ele>212.0</ele><time>2026-05-01T09:02:03.274Z</time></trkpt><trkpt lat="46.1378035" lon="9.5294279"><ele>213.0</ele><time>2026-05-01T09:02:04.265Z</time></trkpt><trkpt lat="46.137786" lon="9.5297691"><ele>214.0</ele><time>2026-05-01T09:02:05.282Z</time></trkpt><trkpt lat="46.1377734" lon="9.5301072"><ele>215.0</ele><time>2026-05-01T09:02:06.266Z</time></trkpt><trkpt lat="46.1377384" lon="9.5304372"><ele>216.0</ele><time>2026-05-01T09:02:07.264Z</time></trkpt><trkpt lat="46.1377123" lon="9.530767"><ele>216.0</ele><time>2026-05-01T09:02:08.266Z</time></trkpt><trkpt lat="46.1376855" lon="9.5310902"><ele>216.0</ele><time>2026-05-01T09:02:09.262Z</time></trkpt><trkpt lat="46.1376558" lon="9.5314196"><ele>216.0</ele><time>2026-05-01T09:02:10.275Z</time></trkpt><trkpt lat="46.1376263" lon="9.5317398"><ele>216.0</ele><time>2026-05-01T09:02:11.258Z</time></trkpt><trkpt lat="46.1375916" lon="9.5320527"><ele>216.0</ele><time>2026-05-01T09:02:12.261Z</time></trkpt><trkpt lat="46.1375545" lon="9.5323703"><ele>215.5</ele><time>2026-05-01T09:02:13.262Z</time></trkpt><trkpt lat="46.1375212" lon="9.5326891"><ele>215.0</ele><time>2026-05-01T09:02:14.287Z</time></trkpt><trkpt lat="46.1374921" lon="9.5330154"><ele>214.0</ele><time>2026-05-01T09:02:15.281Z</time></trkpt><trkpt lat="46.1374517" lon="9.5333408"><ele>213.0</ele><time>2026-05-01T09:02:16.266Z</time></trkpt><trkpt lat="46.1374269" lon="9.5336745"><ele>214.0</ele><time>2026-05-01T09:02:17.262Z</time></trkpt><trkpt lat="46.1374004" lon="9.5339981"><ele>215.0</ele><time>2026-05-01T09:02:18.285Z</time></trkpt><trkpt lat="46.1373694" lon="9.5343182"><ele>214.0</ele><time>2026-05-01T09:02:19.265Z</time></trkpt><trkpt lat="46.1373455" lon="9.5346641"><ele>213.0</ele><time>2026-05-01T09:02:20.283Z</time></trkpt><trkpt lat="46.1373196" lon="9.5350072"><ele>213.0</ele><time>2026-05-01T09:02:21.278Z</time></trkpt><trkpt lat="46.1373039" lon="9.5353405"><ele>213.0</ele><time>2026-05-01T09:02:22.284Z</time></trkpt><trkpt lat="46.1372831" lon="9.5356769"><ele>213.0</ele><time>2026-05-01T09:02:23.281Z</time></trkpt><trkpt lat="46.1372664" lon="9.5360057"><ele>213.0</ele><time>2026-05-01T09:02:24.285Z</time></trkpt><trkpt lat="46.1372459" lon="9.5363267"><ele>213.0</ele><time>2026-05-01T09:02:25.281Z</time></trkpt><trkpt lat="46.1372389" lon="9.5366678"><ele>213.0</ele><time>2026-05-01T09:02:26.284Z</time></trkpt><trkpt lat="46.1372342" lon="9.5370104"><ele>212.5</ele><time>2026-05-01T09:02:27.284Z</time></trkpt><trkpt lat="46.1372187" lon="9.5373536"><ele>212.0</ele><time>2026-05-01T09:02:28.284Z</time></trkpt><trkpt lat="46.1372307" lon="9.5376908"><ele>213.0</ele><time>2026-05-01T09:02:29.287Z</time></trkpt><trkpt lat="46.1372409" lon="9.538024"><ele>214.0</ele><time>2026-05-01T09:02:30.288Z</time></trkpt><trkpt lat="46.1372556" lon="9.538363"><ele>214.0</ele><time>2026-05-01T09:02:31.276Z</time></trkpt><trkpt lat="46.1372799" lon="9.538693"><ele>214.0</ele><time>2026-05-01T09:02:32.282Z</time></trkpt><trkpt lat="46.1373083" lon="9.5390213"><ele>214.0</ele><time>2026-05-01T09:02:33.283Z</time></trkpt><trkpt lat="46.1373365" lon="9.539356"><ele>214.0</ele><time>2026-05-01T09:02:34.283Z</time></trkpt><trkpt lat="46.1373733" lon="9.5396797"><ele>213.5</ele><time>2026-05-01T09:02:35.276Z</time></trkpt><trkpt lat="46.1374053" lon="9.5400055"><ele>213.0</ele><time>2026-05-01T09:02:36.24Z</time></trkpt><trkpt lat="46.1374463" lon="9.5403205"><ele>213.0</ele><time>2026-05-01T09:02:37.232Z</time></trkpt><trkpt lat="46.1374908" lon="9.5406305"><ele>213.0</ele><time>2026-05-01T09:02:38.228Z</time></trkpt><trkpt lat="46.1375323" lon="9.5409347"><ele>213.0</ele><time>2026-05-01T09:02:39.238Z</time></trkpt><trkpt lat="46.1375854" lon="9.5412387"><ele>212.66666666666669</ele><time>2026-05-01T09:02:40.244Z</time></trkpt><trkpt lat="46.1376554" lon="9.5415451"><ele>212.33333333333334</ele><time>2026-05-01T09:02:41.237Z</time></trkpt><trkpt lat="46.1377237" lon="9.5418493"><ele>212.0</ele><time>2026-05-01T09:02:42.245Z</time></trkpt><trkpt lat="46.1377921" lon="9.5421559"><ele>213.0</ele><time>2026-05-01T09:02:43.241Z</time></trkpt><trkpt lat="46.1378589" lon="9.5424671"><ele>214.0</ele><time>2026-05-01T09:02:44.242Z</time></trkpt><trkpt lat="46.137933" lon="9.5427668"><ele>215.0</ele><time>2026-05-01T09:02:45.236Z</time></trkpt><trkpt lat="46.1380051" lon="9.5430794"><ele>215.0</ele><time>2026-05-01T09:02:46.242Z</time></trkpt><trkpt lat="46.1380968" lon="9.5433763"><ele>215.0</ele><time>2026-05-01T09:02:47.239Z</time></trkpt><trkpt lat="46.1381756" lon="9.5436609"><ele>215.0</ele><time>2026-05-01T09:02:48.234Z</time></trkpt><trkpt lat="46.1382689" lon="9.5439624"><ele>215.0</ele><time>2026-05-01T09:02:49.241Z</time></trkpt><trkpt lat="46.1383658" lon="9.5442569"><ele>215.0</ele><time>2026-05-01T09:02:50.235Z</time></trkpt><trkpt lat="46.1384731" lon="9.5445557"><ele>215.33333333333334</ele><time>2026-05-01T09:02:51.249Z</time></trkpt><trkpt lat="46.1385583" lon="9.5448253"><ele>215.66666666666669</ele><time>2026-05-01T09:02:52.244Z</time></trkpt><trkpt lat="46.1386754" lon="9.5451143"><ele>216.0</ele><time>2026-05-01T09:02:53.241Z</time></trkpt><trkpt lat="46.1387894" lon="9.5453976"><ele>217.0</ele><time>2026-05-01T09:02:54.238Z</time></trkpt><trkpt lat="46.1389073" lon="9.5456816"><ele>218.0</ele><time>2026-05-01T09:02:55.232Z</time></trkpt><trkpt lat="46.1390329" lon="9.5459545"><ele>217.5</ele><time>2026-05-01T09:02:56.243Z</time></trkpt><trkpt lat="46.1391561" lon="9.5462208"><ele>217.0</ele><time>2026-05-01T09:02:57.243Z</time></trkpt><trkpt lat="46.1392706" lon="9.5465058"><ele>217.0</ele><time>2026-05-01T09:02:58.237Z</time></trkpt><trkpt lat="46.1394038" lon="9.5467705"><ele>217.0</ele><time>2026-05-01T09:02:59.243Z</time></trkpt><trkpt lat="46.1395396" lon="9.5470273"><ele>217.66666666666666</ele><time>2026-05-01T09:03:00.234Z</time></trkpt><trkpt lat="46.1396633" lon="9.5472832"><ele>218.33333333333331</ele><time>2026-05-01T09:03:01.247Z</time></trkpt><trkpt lat="46.1397935" lon="9.5475404"><ele>219.0</ele><time>2026-05-01T09:03:02.241Z</time></trkpt><trkpt lat="46.1399077" lon="9.5478044"><ele>218.66666666666669</ele><time>2026-05-01T09:03:03.236Z</time></trkpt><trkpt lat="46.1400182" lon="9.5480915"><ele>218.33333333333334</ele><time>2026-05-01T09:03:04.237Z</time></trkpt><trkpt lat="46.1401135" lon="9.5483772"><ele>218.0</ele><time>2026-05-01T09:03:05.233Z</time></trkpt><trkpt lat="46.1402188" lon="9.5486502"><ele>217.66666666666669</ele><time>2026-05-01T09:03:06.24Z</time></trkpt><trkpt lat="46.1403167" lon="9.5489241"><ele>217.33333333333331</ele><time>2026-05-01T09:03:07.237Z</time></trkpt><trkpt lat="46.1404112" lon="9.5492018"><ele>217.0</ele><time>2026-05-01T09:03:08.233Z</time></trkpt><trkpt lat="46.1404922" lon="9.5494737"><ele>217.0</ele><time>2026-05-01T09:03:09.245Z</time></trkpt><trkpt lat="46.1405777" lon="9.5497574"><ele>217.0</ele><time>2026-05-01T09:03:10.232Z</time></trkpt><trkpt lat="46.140659" lon="9.5500655"><ele>217.0</ele><time>2026-05-01T09:03:11.251Z</time></trkpt><trkpt lat="46.1407337" lon="9.5503502"><ele>216.66666666666666</ele><time>2026-05-01T09:03:12.251Z</time></trkpt><trkpt lat="46.1408073" lon="9.5506368"><ele>216.33333333333331</ele><time>2026-05-01T09:03:13.241Z</time></trkpt><trkpt lat="46.1408742" lon="9.5509325"><ele>216.0</ele><time>2026-05-01T09:03:14.248Z</time></trkpt><trkpt lat="46.140944" lon="9.5512505"><ele>218.0</ele><time>2026-05-01T09:03:15.236Z</time></trkpt><trkpt lat="46.1410256" lon="9.5515969"><ele>220.0</ele><time>2026-05-01T09:03:16.247Z</time></trkpt><trkpt lat="46.1410981" lon="9.5519416"><ele>221.0</ele><time>2026-05-01T09:03:17.239Z</time></trkpt><trkpt lat="46.141183" lon="9.5522776"><ele>222.0</ele><time>2026-05-01T09:03:18.236Z</time></trkpt><trkpt lat="46.1412775" lon="9.5525952"><ele>221.0</ele><time>2026-05-01T09:03:19.237Z</time></trkpt><trkpt lat="46.1414" lon="9.5529182"><ele>220.0</ele><time>2026-05-01T09:03:20.235Z</time></trkpt><trkpt lat="46.1415198" lon="9.5532471"><ele>219.0</ele><time>2026-05-01T09:03:21.241Z</time></trkpt><trkpt lat="46.1416463" lon="9.5535604"><ele>218.0</ele><time>2026-05-01T09:03:22.243Z</time></trkpt><trkpt lat="46.1417904" lon="9.553883"><ele>220.0</ele><time>2026-05-01T09:03:23.246Z</time></trkpt><trkpt lat="46.1419303" lon="9.5542131"><ele>222.0</ele><time>2026-05-01T09:03:24.242Z</time></trkpt><trkpt lat="46.1420849" lon="9.5545323"><ele>222.0</ele><time>2026-05-01T09:03:25.242Z</time></trkpt><trkpt lat="46.142245" lon="9.5548375"><ele>222.0</ele><time>2026-05-01T09:03:26.244Z</time></trkpt><trkpt lat="46.142414" lon="9.5551524"><ele>220.5</ele><time>2026-05-01T09:03:27.234Z</time></trkpt><trkpt lat="46.1425819" lon="9.5554397"><ele>219.0</ele><time>2026-05-01T09:03:28.243Z</time></trkpt><trkpt lat="46.1427564" lon="9.5557245"><ele>219.0</ele><time>2026-05-01T09:03:29.237Z</time></trkpt><trkpt lat="46.1429412" lon="9.5560096"><ele>219.0</ele><time>2026-05-01T09:03:30.239Z</time></trkpt><trkpt lat="46.1431246" lon="9.5562945"><ele>219.5</ele><time>2026-05-01T09:03:31.239Z</time></trkpt><trkpt lat="46.1433268" lon="9.5565724"><ele>220.0</ele><time>2026-05-01T09:03:32.237Z</time></trkpt><trkpt lat="46.1435377" lon="9.5568525"><ele>218.5</ele><time>2026-05-01T09:03:33.24Z</time></trkpt><trkpt lat="46.1437318" lon="9.5571281"><ele>217.0</ele><time>2026-05-01T09:03:34.239Z</time></trkpt><trkpt lat="46.1439375" lon="9.5573918"><ele>218.5</ele><time>2026-05-01T09:03:35.241Z</time></trkpt><trkpt lat="46.1441663" lon="9.5576215"><ele>220.0</ele><time>2026-05-01T09:03:36.241Z</time></trkpt><trkpt lat="46.1443853" lon="9.5578428"><ele>220.5</ele><time>2026-05-01T09:03:37.241Z</time></trkpt><trkpt lat="46.1446095" lon="9.5580814"><ele>221.0</ele><time>2026-05-01T09:03:38.248Z</time></trkpt><trkpt lat="46.1448237" lon="9.5583195"><ele>223.5</ele><time>2026-05-01T09:03:39.242Z</time></trkpt><trkpt lat="46.145059" lon="9.5585484"><ele>226.0</ele><time>2026-05-01T09:03:40.248Z</time></trkpt><trkpt lat="46.1452562" lon="9.5587924"><ele>226.0</ele><time>2026-05-01T09:03:41.243Z</time></trkpt><trkpt lat="46.1454348" lon="9.5590446"><ele>226.0</ele><time>2026-05-01T09:03:42.239Z</time></trkpt><trkpt lat="46.1456271" lon="9.5592959"><ele>244.5</ele><time>2026-05-01T09:03:43.233Z</time></trkpt><trkpt lat="46.1458338" lon="9.5595542"><ele>263.0</ele><time>2026-05-01T09:03:44.228Z</time></trkpt><trkpt lat="46.1460268" lon="9.5598152"><ele>263.0</ele><time>2026-05-01T09:03:45.22Z</time></trkpt><trkpt lat="46.1462453" lon="9.560084"><ele>263.0</ele><time>2026-05-01T09:03:46.222Z</time></trkpt><trkpt lat="46.1464478" lon="9.5603316"><ele>269.0</ele><time>2026-05-01T09:03:47.213Z</time></trkpt><trkpt lat="46.1466417" lon="9.5605816"><ele>275.0</ele><time>2026-05-01T09:03:48.186Z</time></trkpt><trkpt lat="46.1478808" lon="9.5945284"><ele>275.0</ele><time>2026-05-01T09:05:33.232Z</time></trkpt><trkpt lat="46.1477142" lon="9.5948344"><ele>275.0</ele><time>2026-05-01T09:05:34.23Z</time></trkpt><trkpt lat="46.1476067" lon="9.5950884"><ele>278.33333333333337</ele><time>2026-05-01T09:05:35.251Z</time></trkpt><trkpt lat="46.147518" lon="9.5953622"><ele>281.6666666666667</ele><time>2026-05-01T09:05:36.236Z</time></trkpt><trkpt lat="46.147409" lon="9.5956539"><ele>285.0</ele><time>2026-05-01T09:05:37.237Z</time></trkpt><trkpt lat="46.1473345" lon="9.5959404"><ele>273.6666666666667</ele><time>2026-05-01T09:05:38.246Z</time></trkpt><trkpt lat="46.147255" lon="9.5962313"><ele>262.33333333333337</ele><time>2026-05-01T09:05:39.241Z</time></trkpt><trkpt lat="46.1471772" lon="9.5965217"><ele>251.0</ele><time>2026-05-01T09:05:40.244Z</time></trkpt><trkpt lat="46.14711" lon="9.5968125"><ele>250.33333333333334</ele><time>2026-05-01T09:05:41.241Z</time></trkpt><trkpt lat="46.1470419" lon="9.5971051"><ele>249.66666666666669</ele><time>2026-05-01T09:05:42.238Z</time></trkpt><trkpt lat="46.1469705" lon="9.5974129"><ele>249.0</ele><time>2026-05-01T09:05:43.242Z</time></trkpt><trkpt lat="46.1469033" lon="9.59772"><ele>249.0</ele><time>2026-05-01T09:05:44.246Z</time></trkpt><trkpt lat="46.1468605" lon="9.5980357"><ele>249.0</ele><time>2026-05-01T09:05:45.242Z</time></trkpt><trkpt lat="46.1468217" lon="9.598359"><ele>251.0</ele><time>2026-05-01T09:05:46.244Z</time></trkpt><trkpt lat="46.1467888" lon="9.5986936"><ele>253.0</ele><time>2026-05-01T09:05:47.243Z</time></trkpt><trkpt lat="46.1467501" lon="9.5990269"><ele>253.0</ele><time>2026-05-01T09:05:48.243Z</time></trkpt><trkpt lat="46.146725" lon="9.599353"><ele>253.0</ele><time>2026-05-01T09:05:49.243Z</time></trkpt><trkpt lat="46.1467068" lon="9.5996876"><ele>256.5</ele><time>2026-05-01T09:05:50.239Z</time></trkpt><trkpt lat="46.1467014" lon="9.6000245"><ele>260.0</ele><time>2026-05-01T09:05:51.24Z</time></trkpt><trkpt lat="46.1466986" lon="9.6003511"><ele>266.5</ele><time>2026-05-01T09:05:52.24Z</time></trkpt><trkpt lat="46.1466907" lon="9.6006964"><ele>273.0</ele><time>2026-05-01T09:05:53.238Z</time></trkpt><trkpt lat="46.1466548" lon="9.6010523"><ele>280.5</ele><time>2026-05-01T09:05:54.224Z</time></trkpt><trkpt lat="46.1466497" lon="9.6013989"><ele>288.0</ele><time>2026-05-01T09:05:55.221Z</time></trkpt><trkpt lat="46.1466101" lon="9.6017737"><ele>289.5</ele><time>2026-05-01T09:05:56.21Z</time></trkpt><trkpt lat="46.14664" lon="9.6021367"><ele>291.0</ele><time>2026-05-01T09:05:57.207Z</time></trkpt><trkpt lat="46.1466243" lon="9.6024762"><ele>291.0</ele><time>2026-05-01T09:05:58.171Z</time></trkpt><trkpt lat="46.1466086" lon="9.6028158"><ele>291.0</ele><time>2026-05-01T09:05:59.162Z</time></trkpt><trkpt lat="46.1506078" lon="9.6302084"><ele>282.6666666666667</ele><time>2026-05-01T09:07:55.232Z</time></trkpt><trkpt lat="46.1506524" lon="9.6304665"><ele>274.33333333333337</ele><time>2026-05-01T09:07:56.251Z</time></trkpt><trkpt lat="46.1506812" lon="9.6307212"><ele>266.0</ele><time>2026-05-01T09:07:57.241Z</time></trkpt><trkpt lat="46.1506823" lon="9.6309343"><ele>266.0</ele><time>2026-05-01T09:07:58.239Z</time></trkpt><trkpt lat="46.150673" lon="9.6311398"><ele>266.0</ele><time>2026-05-01T09:07:59.243Z</time></trkpt><trkpt lat="46.1506785" lon="9.6313078"><ele>266.0</ele><time>2026-05-01T09:08:00.235Z</time></trkpt><trkpt lat="46.1506738" lon="9.6314801"><ele>266.0</ele><time>2026-05-01T09:08:01.24Z</time></trkpt><trkpt lat="46.1506689" lon="9.6316462"><ele>266.1666666666667</ele><time>2026-05-01T09:08:02.243Z</time></trkpt><trkpt lat="46.1506871" lon="9.6317829"><ele>266.33333333333337</ele><time>2026-05-01T09:08:03.24Z</time></trkpt><trkpt lat="46.1506951" lon="9.631908"><ele>266.5</ele><time>2026-05-01T09:08:04.25Z</time></trkpt><trkpt lat="46.1506984" lon="9.6320258"><ele>266.6666666666667</ele><time>2026-05-01T09:08:05.245Z</time></trkpt><trkpt lat="46.150706" lon="9.6321411"><ele>266.8333333333333</ele><time>2026-05-01T09:08:06.246Z</time></trkpt><trkpt lat="46.1507104" lon="9.6322569"><ele>267.0</ele><time>2026-05-01T09:08:07.24Z</time></trkpt><trkpt lat="46.1507056" lon="9.6323619"><ele>267.8</ele><time>2026-05-01T09:08:08.246Z</time></trkpt><trkpt lat="46.1506955" lon="9.6324586"><ele>268.6</ele><time>2026-05-01T09:08:09.251Z</time></trkpt><trkpt lat="46.150668" lon="9.6326325"><ele>269.40000000000003</ele><time>2026-05-01T09:08:11.249Z</time></trkpt><trkpt lat="46.1506281" lon="9.6327538"><ele>270.2</ele><time>2026-05-01T09:08:13.248Z</time></trkpt><trkpt lat="46.1505378" lon="9.6328434"><ele>271.0</ele><time>2026-05-01T09:08:15.249Z</time></trkpt><trkpt lat="46.1504808" lon="9.6328942"><ele>271.0</ele><time>2026-05-01T09:08:16.245Z</time></trkpt><trkpt lat="46.1504335" lon="9.6329621"><ele>271.0</ele><time>2026-05-01T09:08:17.248Z</time></trkpt><trkpt lat="46.1504138" lon="9.6331348"><ele>271.0</ele><time>2026-05-01T09:08:19.248Z</time></trkpt><trkpt lat="46.1504316" lon="9.6332231"><ele>271.0</ele><time>2026-05-01T09:08:20.257Z</time></trkpt><trkpt lat="46.1504626" lon="9.6333046"><ele>271.0</ele><time>2026-05-01T09:08:21.251Z</time></trkpt><trkpt lat="46.1505143" lon="9.6333742"><ele>271.0</ele><time>2026-05-01T09:08:22.244Z</time></trkpt><trkpt lat="46.1505805" lon="9.6334218"><ele>271.0</ele><time>2026-05-01T09:08:23.254Z</time></trkpt><trkpt lat="46.1506618" lon="9.6334229"><ele>271.0</ele><time>2026-05-01T09:08:24.242Z</time></trkpt><trkpt lat="46.1507449" lon="9.6333822"><ele>271.0</ele><time>2026-05-01T09:08:25.239Z</time></trkpt><trkpt lat="46.1508143" lon="9.6333087"><ele>271.0</ele><time>2026-05-01T09:08:26.245Z</time></trkpt><trkpt lat="46.1508678" lon="9.6332077"><ele>271.0</ele><time>2026-05-01T09:08:27.239Z</time></trkpt><trkpt lat="46.1509067" lon="9.6330965"><ele>271.0</ele><time>2026-05-01T09:08:28.244Z</time></trkpt><trkpt lat="46.1509534" lon="9.6329961"><ele>270.40000000000003</ele><time>2026-05-01T09:08:29.246Z</time></trkpt><trkpt lat="46.1510154" lon="9.6329103"><ele>269.8</ele><time>2026-05-01T09:08:30.24Z</time></trkpt><trkpt lat="46.1510996" lon="9.6328558"><ele>269.20000000000005</ele><time>2026-05-01T09:08:31.241Z</time></trkpt><trkpt lat="46.1512074" lon="9.6328316"><ele>268.6</ele><time>2026-05-01T09:08:32.241Z</time></trkpt><trkpt lat="46.1513284" lon="9.6328275"><ele>268.0</ele><time>2026-05-01T09:08:33.24Z</time></trkpt><trkpt lat="46.1514554" lon="9.6328497"><ele>267.5</ele><time>2026-05-01T09:08:34.24Z</time></trkpt><trkpt lat="46.1515773" lon="9.6328952"><ele>267.0</ele><time>2026-05-01T09:08:35.236Z</time></trkpt><trkpt lat="46.1517035" lon="9.6329501"><ele>266.5</ele><time>2026-05-01T09:08:36.243Z</time></trkpt><trkpt lat="46.1518376" lon="9.6330101"><ele>266.0</ele><time>2026-05-01T09:08:37.243Z</time></trkpt><trkpt lat="46.1519899" lon="9.6330686"><ele>266.0</ele><time>2026-05-01T09:08:38.238Z</time></trkpt><trkpt lat="46.1521781" lon="9.6331733"><ele>266.0</ele><time>2026-05-01T09:08:39.246Z</time></trkpt><trkpt lat="46.1523373" lon="9.633246"><ele>266.0</ele><time>2026-05-01T09:08:40.24Z</time></trkpt><trkpt lat="46.1524807" lon="9.6333155"><ele>265.25</ele><time>2026-05-01T09:08:41.247Z</time></trkpt><trkpt lat="46.1526241" lon="9.633356"><ele>264.5</ele><time>2026-05-01T09:08:42.242Z</time></trkpt><trkpt lat="46.1527624" lon="9.6333988"><ele>263.75</ele><time>2026-05-01T09:08:43.24Z</time></trkpt><trkpt lat="46.1528701" lon="9.6334719"><ele>263.0</ele><time>2026-05-01T09:08:44.238Z</time></trkpt><trkpt lat="46.1529654" lon="9.6335101"><ele>263.0</ele><time>2026-05-01T09:08:45.239Z</time></trkpt><trkpt lat="46.1530441" lon="9.6335518"><ele>263.0</ele><time>2026-05-01T09:08:46.245Z</time></trkpt><trkpt lat="46.1531471" lon="9.6335818"><ele>263.0</ele><time>2026-05-01T09:08:47.241Z</time></trkpt><trkpt lat="46.1532519" lon="9.6336154"><ele>263.0</ele><time>2026-05-01T09:08:48.242Z</time></trkpt><trkpt lat="46.1533748" lon="9.6336365"><ele>263.0</ele><time>2026-05-01T09:08:49.245Z</time></trkpt><trkpt lat="46.1534975" lon="9.6336812"><ele>262.5</ele><time>2026-05-01T09:08:50.245Z</time></trkpt><trkpt lat="46.1536213" lon="9.6337373"><ele>262.0</ele><time>2026-05-01T09:08:51.236Z</time></trkpt><trkpt lat="46.1537574" lon="9.6337909"><ele>261.5</ele><time>2026-05-01T09:08:52.245Z</time></trkpt><trkpt lat="46.1539108" lon="9.6338466"><ele>261.0</ele><time>2026-05-01T09:08:53.246Z</time></trkpt><trkpt lat="46.1540659" lon="9.6338987"><ele>261.0</ele><time>2026-05-01T09:08:54.237Z</time></trkpt><trkpt lat="46.154221" lon="9.6339656"><ele>261.0</ele><time>2026-05-01T09:08:55.241Z</time></trkpt><trkpt lat="46.1543418" lon="9.634032"><ele>261.0</ele><time>2026-05-01T09:08:56.245Z</time></trkpt><trkpt lat="46.1544583" lon="9.6341037"><ele>261.0</ele><time>2026-05-01T09:08:57.242Z</time></trkpt><trkpt lat="46.1545548" lon="9.6342007"><ele>261.0</ele><time>2026-05-01T09:08:58.246Z</time></trkpt><trkpt lat="46.1546348" lon="9.6343023"><ele>261.0</ele><time>2026-05-01T09:08:59.239Z</time></trkpt><trkpt lat="46.1547167" lon="9.6343867"><ele>261.0</ele><time>2026-05-01T09:09:00.241Z</time></trkpt><trkpt lat="46.154784" lon="9.6344785"><ele>261.0</ele><time>2026-05-01T09:09:01.244Z</time></trkpt><trkpt lat="46.1548464" lon="9.6345778"><ele>261.0</ele><time>2026-05-01T09:09:02.244Z</time></trkpt><trkpt lat="46.154908" lon="9.63469"><ele>261.25</ele><time>2026-05-01T09:09:03.244Z</time></trkpt><trkpt lat="46.154967" lon="9.6348133"><ele>261.5</ele><time>2026-05-01T09:09:04.242Z</time></trkpt><trkpt lat="46.1550257" lon="9.6349484"><ele>261.75</ele><time>2026-05-01T09:09:05.244Z</time></trkpt><trkpt lat="46.155082" lon="9.6350988"><ele>262.0</ele><time>2026-05-01T09:09:06.24Z</time></trkpt><trkpt lat="46.1551351" lon="9.6352682"><ele>262.0</ele><time>2026-05-01T09:09:07.24Z</time></trkpt><trkpt lat="46.1551845" lon="9.6354444"><ele>262.0</ele><time>2026-05-01T09:09:08.242Z</time></trkpt><trkpt lat="46.1552223" lon="9.6356102"><ele>262.0</ele><time>2026-05-01T09:09:09.237Z</time></trkpt><trkpt lat="46.1552602" lon="9.63576"><ele>262.0</ele><time>2026-05-01T09:09:10.244Z</time></trkpt><trkpt lat="46.1553041" lon="9.6359062"><ele>262.0</ele><time>2026-05-01T09:09:11.244Z</time></trkpt><trkpt lat="46.1553619" lon="9.6360504"><ele>262.0</ele><time>2026-05-01T09:09:12.244Z</time></trkpt><trkpt lat="46.1554363" lon="9.6362013"><ele>262.0</ele><time>2026-05-01T09:09:13.243Z</time></trkpt><trkpt lat="46.1555187" lon="9.6363542"><ele>262.0</ele><time>2026-05-01T09:09:14.25Z</time></trkpt><trkpt lat="46.1556018" lon="9.6364933"><ele>262.0</ele><time>2026-05-01T09:09:15.241Z</time></trkpt><trkpt lat="46.1556863" lon="9.6366146"><ele>262.0</ele><time>2026-05-01T09:09:16.244Z</time></trkpt><trkpt lat="46.1557785" lon="9.6367074"><ele>262.0</ele><time>2026-05-01T09:09:17.244Z</time></trkpt><trkpt lat="46.15587" lon="9.6367921"><ele>262.0</ele><time>2026-05-01T09:09:18.24Z</time></trkpt><trkpt lat="46.1559629" lon="9.6368738"><ele>262.0</ele><time>2026-05-01T09:09:19.24Z</time></trkpt><trkpt lat="46.1560567" lon="9.6369567"><ele>262.4</ele><time>2026-05-01T09:09:20.239Z</time></trkpt><trkpt lat="46.1561503" lon="9.6370248"><ele>262.79999999999995</ele><time>2026-05-01T09:09:21.244Z</time></trkpt><trkpt lat="46.1562401" lon="9.637071"><ele>263.2</ele><time>2026-05-01T09:09:22.246Z</time></trkpt><trkpt lat="46.1563362" lon="9.6371058"><ele>263.59999999999997</ele><time>2026-05-01T09:09:23.248Z</time></trkpt><trkpt lat="46.1564411" lon="9.6371496"><ele>264.0</ele><time>2026-05-01T09:09:24.242Z</time></trkpt><trkpt lat="46.1565521" lon="9.6371973"><ele>264.3333333333333</ele><time>2026-05-01T09:09:25.249Z</time></trkpt><trkpt lat="46.1566521" lon="9.6372549"><ele>264.6666666666667</ele><time>2026-05-01T09:09:26.235Z</time></trkpt><trkpt lat="46.1567425" lon="9.637311"><ele>265.0</ele><time>2026-05-01T09:09:27.238Z</time></trkpt><trkpt lat="46.1568209" lon="9.637355"><ele>265.33333333333337</ele><time>2026-05-01T09:09:28.236Z</time></trkpt><trkpt lat="46.1568941" lon="9.6373838"><ele>265.6666666666667</ele><time>2026-05-01T09:09:29.236Z</time></trkpt><trkpt lat="46.1569679" lon="9.6374082"><ele>266.0</ele><time>2026-05-01T09:09:30.245Z</time></trkpt><trkpt lat="46.1570401" lon="9.6374283"><ele>266.0</ele><time>2026-05-01T09:09:31.237Z</time></trkpt><trkpt lat="46.1571173" lon="9.6374548"><ele>266.0</ele><time>2026-05-01T09:09:32.24Z</time></trkpt><trkpt lat="46.1572118" lon="9.6374889"><ele>266.0</ele><time>2026-05-01T09:09:33.242Z</time></trkpt><trkpt lat="46.1573233" lon="9.6375261"><ele>266.0</ele><time>2026-05-01T09:09:34.242Z</time></trkpt><trkpt lat="46.1574469" lon="9.6375726"><ele>266.0</ele><time>2026-05-01T09:09:35.239Z</time></trkpt><trkpt lat="46.1575774" lon="9.6376218"><ele>267.33333333333337</ele><time>2026-05-01T09:09:36.241Z</time></trkpt><trkpt lat="46.1577144" lon="9.6376697"><ele>268.6666666666667</ele><time>2026-05-01T09:09:37.242Z</time></trkpt><trkpt lat="46.1578593" lon="9.6377147"><ele>270.0</ele><time>2026-05-01T09:09:38.238Z</time></trkpt><trkpt lat="46.1580285" lon="9.6377712"><ele>270.0</ele><time>2026-05-01T09:09:39.24Z</time></trkpt><trkpt lat="46.1581628" lon="9.6378443"><ele>270.0</ele><time>2026-05-01T09:09:40.236Z</time></trkpt><trkpt lat="46.1582697" lon="9.6378799"><ele>270.0</ele><time>2026-05-01T09:09:41.241Z</time></trkpt><trkpt lat="46.1583576" lon="9.6379291"><ele>270.0</ele><time>2026-05-01T09:09:42.24Z</time></trkpt><trkpt lat="46.1584447" lon="9.6379826"><ele>270.0</ele><time>2026-05-01T09:09:43.245Z</time></trkpt><trkpt lat="46.1585562" lon="9.6380286"><ele>269.75</ele><time>2026-05-01T09:09:44.245Z</time></trkpt><trkpt lat="46.1586858" lon="9.6380854"><ele>269.5</ele><time>2026-05-01T09:09:45.244Z</time></trkpt><trkpt lat="46.1588018" lon="9.6381601"><ele>269.25</ele><time>2026-05-01T09:09:46.242Z</time></trkpt><trkpt lat="46.1589129" lon="9.6382549"><ele>269.0</ele><time>2026-05-01T09:09:47.245Z</time></trkpt><trkpt lat="46.1589988" lon="9.6383715"><ele>269.4</ele><time>2026-05-01T09:09:48.24Z</time></trkpt><trkpt lat="46.1590586" lon="9.6384991"><ele>269.79999999999995</ele><time>2026-05-01T09:09:49.243Z</time></trkpt><trkpt lat="46.1591007" lon="9.6386319"><ele>270.20000000000005</ele><time>2026-05-01T09:09:50.235Z</time></trkpt><trkpt lat="46.159139" lon="9.6387692"><ele>270.6</ele><time>2026-05-01T09:09:51.246Z</time></trkpt><trkpt lat="46.1591621" lon="9.6389024"><ele>271.0</ele><time>2026-05-01T09:09:52.24Z</time></trkpt><trkpt lat="46.1591692" lon="9.6390298"><ele>271.0</ele><time>2026-05-01T09:09:53.257Z</time></trkpt><trkpt lat="46.1591612" lon="9.6391566"><ele>271.0</ele><time>2026-05-01T09:09:54.248Z</time></trkpt><trkpt lat="46.1591494" lon="9.6392796"><ele>271.0</ele><time>2026-05-01T09:09:55.24Z</time></trkpt><trkpt lat="46.1591362" lon="9.6394028"><ele>271.0</ele><time>2026-05-01T09:09:56.244Z</time></trkpt><trkpt lat="46.1591248" lon="9.6395323"><ele>271.0</ele><time>2026-05-01T09:09:57.269Z</time></trkpt><trkpt lat="46.1591094" lon="9.6396726"><ele>271.0</ele><time>2026-05-01T09:09:58.236Z</time></trkpt><trkpt lat="46.1590937" lon="9.639818"><ele>270.8</ele><time>2026-05-01T09:09:59.249Z</time></trkpt><trkpt lat="46.1590741" lon="9.6399586"><ele>270.6</ele><time>2026-05-01T09:10:00.246Z</time></trkpt><trkpt lat="46.159054" lon="9.6400989"><ele>270.4</ele><time>2026-05-01T09:10:01.248Z</time></trkpt><trkpt lat="46.1590319" lon="9.6402455"><ele>270.2</ele><time>2026-05-01T09:10:02.245Z</time></trkpt><trkpt lat="46.1590078" lon="9.6403925"><ele>270.0</ele><time>2026-05-01T09:10:03.248Z</time></trkpt><trkpt lat="46.1589826" lon="9.6405344"><ele>269.75</ele><time>2026-05-01T09:10:04.239Z</time></trkpt><trkpt lat="46.1589664" lon="9.6406778"><ele>269.5</ele><time>2026-05-01T09:10:05.245Z</time></trkpt><trkpt lat="46.1589625" lon="9.6408365"><ele>269.25</ele><time>2026-05-01T09:10:06.269Z</time></trkpt><trkpt lat="46.1589702" lon="9.641021"><ele>269.0</ele><time>2026-05-01T09:10:07.265Z</time></trkpt><trkpt lat="46.1589903" lon="9.641219"><ele>268.6666666666667</ele><time>2026-05-01T09:10:08.248Z</time></trkpt><trkpt lat="46.159028" lon="9.6414267"><ele>268.3333333333333</ele><time>2026-05-01T09:10:09.245Z</time></trkpt><trkpt lat="46.1591005" lon="9.6416537"><ele>268.0</ele><time>2026-05-01T09:10:10.244Z</time></trkpt><trkpt lat="46.1591617" lon="9.6418614"><ele>268.66666666666663</ele><time>2026-05-01T09:10:11.246Z</time></trkpt><trkpt lat="46.1592199" lon="9.6420646"><ele>269.3333333333333</ele><time>2026-05-01T09:10:12.24Z</time></trkpt><trkpt lat="46.1592795" lon="9.642271"><ele>270.0</ele><time>2026-05-01T09:10:13.244Z</time></trkpt><trkpt lat="46.1593303" lon="9.6424854"><ele>270.0</ele><time>2026-05-01T09:10:14.237Z</time></trkpt><trkpt lat="46.1593926" lon="9.6427073"><ele>270.0</ele><time>2026-05-01T09:10:15.234Z</time></trkpt><trkpt lat="46.1594544" lon="9.6429162"><ele>270.0</ele><time>2026-05-01T09:10:16.238Z</time></trkpt><trkpt lat="46.1595221" lon="9.6431376"><ele>269.3333333333333</ele><time>2026-05-01T09:10:17.244Z</time></trkpt><trkpt lat="46.1596011" lon="9.6433638"><ele>268.66666666666663</ele><time>2026-05-01T09:10:18.242Z</time></trkpt><trkpt lat="46.1596834" lon="9.6436047"><ele>268.0</ele><time>2026-05-01T09:10:19.248Z</time></trkpt><trkpt lat="46.1597495" lon="9.6438686"><ele>268.0</ele><time>2026-05-01T09:10:20.239Z</time></trkpt><trkpt lat="46.1598211" lon="9.6441197"><ele>268.0</ele><time>2026-05-01T09:10:21.242Z</time></trkpt><trkpt lat="46.1598859" lon="9.6443644"><ele>268.0</ele><time>2026-05-01T09:10:22.241Z</time></trkpt><trkpt lat="46.1599557" lon="9.6446174"><ele>268.0</ele><time>2026-05-01T09:10:23.251Z</time></trkpt><trkpt lat="46.1600392" lon="9.6448779"><ele>268.0</ele><time>2026-05-01T09:10:24.251Z</time></trkpt><trkpt lat="46.1601115" lon="9.645126"><ele>268.0</ele><time>2026-05-01T09:10:25.242Z</time></trkpt><trkpt lat="46.1601895" lon="9.6453813"><ele>267.0</ele><time>2026-05-01T09:10:26.248Z</time></trkpt><trkpt lat="46.1602718" lon="9.6456339"><ele>266.0</ele><time>2026-05-01T09:10:27.244Z</time></trkpt><trkpt lat="46.1603534" lon="9.6458811"><ele>265.0</ele><time>2026-05-01T09:10:28.248Z</time></trkpt><trkpt lat="46.1604304" lon="9.646131"><ele>264.66666666666663</ele><time>2026-05-01T09:10:29.244Z</time></trkpt><trkpt lat="46.1605046" lon="9.646365"><ele>264.3333333333333</ele><time>2026-05-01T09:10:30.243Z</time></trkpt><trkpt lat="46.160581" lon="9.6465835"><ele>264.0</ele><time>2026-05-01T09:10:31.242Z</time></trkpt><trkpt lat="46.1606388" lon="9.6468047"><ele>264.3333333333333</ele><time>2026-05-01T09:10:32.242Z</time></trkpt><trkpt lat="46.1606957" lon="9.6470149"><ele>264.66666666666663</ele><time>2026-05-01T09:10:33.244Z</time></trkpt><trkpt lat="46.160748" lon="9.6472206"><ele>265.0</ele><time>2026-05-01T09:10:34.245Z</time></trkpt><trkpt lat="46.160814" lon="9.6474329"><ele>265.3333333333333</ele><time>2026-05-01T09:10:35.242Z</time></trkpt><trkpt lat="46.1608721" lon="9.6476362"><ele>265.6666666666667</ele><time>2026-05-01T09:10:36.246Z</time></trkpt><trkpt lat="46.1609286" lon="9.6478444"><ele>266.0</ele><time>2026-05-01T09:10:37.242Z</time></trkpt><trkpt lat="46.1609871" lon="9.6480366"><ele>265.5</ele><time>2026-05-01T09:10:38.242Z</time></trkpt><trkpt lat="46.1610416" lon="9.6482403"><ele>265.0</ele><time>2026-05-01T09:10:39.239Z</time></trkpt><trkpt lat="46.1610951" lon="9.6484249"><ele>264.5</ele><time>2026-05-01T09:10:40.239Z</time></trkpt><trkpt lat="46.1611477" lon="9.648608"><ele>264.0</ele><time>2026-05-01T09:10:41.242Z</time></trkpt><trkpt lat="46.1612166" lon="9.6488099"><ele>263.6666666666667</ele><time>2026-05-01T09:10:42.246Z</time></trkpt><trkpt lat="46.1612751" lon="9.6490229"><ele>263.33333333333337</ele><time>2026-05-01T09:10:43.24Z</time></trkpt><trkpt lat="46.1613448" lon="9.6492397"><ele>263.0</ele><time>2026-05-01T09:10:44.247Z</time></trkpt><trkpt lat="46.1614045" lon="9.649452"><ele>263.0</ele><time>2026-05-01T09:10:45.244Z</time></trkpt><trkpt lat="46.1614669" lon="9.649667"><ele>263.0</ele><time>2026-05-01T09:10:46.243Z</time></trkpt><trkpt lat="46.1615434" lon="9.6498926"><ele>263.0</ele><time>2026-05-01T09:10:47.244Z</time></trkpt><trkpt lat="46.161613" lon="9.650141"><ele>263.33333333333337</ele><time>2026-05-01T09:10:48.241Z</time></trkpt><trkpt lat="46.1616902" lon="9.6503888"><ele>263.6666666666667</ele><time>2026-05-01T09:10:49.238Z</time></trkpt><trkpt lat="46.1617802" lon="9.6506422"><ele>264.0</ele><time>2026-05-01T09:10:50.247Z</time></trkpt><trkpt lat="46.1618506" lon="9.6509052"><ele>264.0</ele><time>2026-05-01T09:10:51.241Z</time></trkpt><trkpt lat="46.1619163" lon="9.6511616"><ele>264.0</ele><time>2026-05-01T09:10:52.24Z</time></trkpt><trkpt lat="46.1619907" lon="9.6514232"><ele>264.0</ele><time>2026-05-01T09:10:53.245Z</time></trkpt><trkpt lat="46.1620688" lon="9.6516719"><ele>264.0</ele><time>2026-05-01T09:10:54.243Z</time></trkpt><trkpt lat="46.1621479" lon="9.6519347"><ele>264.0</ele><time>2026-05-01T09:10:55.251Z</time></trkpt><trkpt lat="46.162232" lon="9.6522047"><ele>264.0</ele><time>2026-05-01T09:10:56.244Z</time></trkpt><trkpt lat="46.1623013" lon="9.6524679"><ele>264.0</ele><time>2026-05-01T09:10:57.241Z</time></trkpt><trkpt lat="46.1623716" lon="9.6527172"><ele>264.0</ele><time>2026-05-01T09:10:58.244Z</time></trkpt><trkpt lat="46.162456" lon="9.6529554"><ele>264.0</ele><time>2026-05-01T09:10:59.243Z</time></trkpt><trkpt lat="46.1625369" lon="9.6532028"><ele>263.6666666666667</ele><time>2026-05-01T09:11:00.251Z</time></trkpt><trkpt lat="46.1626049" lon="9.6534349"><ele>263.33333333333337</ele><time>2026-05-01T09:11:01.248Z</time></trkpt><trkpt lat="46.1626753" lon="9.6536601"><ele>263.0</ele><time>2026-05-01T09:11:02.24Z</time></trkpt><trkpt lat="46.1627578" lon="9.6538921"><ele>262.6666666666667</ele><time>2026-05-01T09:11:03.247Z</time></trkpt><trkpt lat="46.1628268" lon="9.6541226"><ele>262.3333333333333</ele><time>2026-05-01T09:11:04.253Z</time></trkpt><trkpt lat="46.1628908" lon="9.6543626"><ele>262.0</ele><time>2026-05-01T09:11:05.242Z</time></trkpt><trkpt lat="46.1629639" lon="9.6546041"><ele>261.66666666666663</ele><time>2026-05-01T09:11:06.247Z</time></trkpt><trkpt lat="46.1630462" lon="9.6548552"><ele>261.3333333333333</ele><time>2026-05-01T09:11:07.245Z</time></trkpt><trkpt lat="46.1631093" lon="9.6551152"><ele>261.0</ele><time>2026-05-01T09:11:08.242Z</time></trkpt><trkpt lat="46.1631801" lon="9.655372"><ele>262.0</ele><time>2026-05-01T09:11:09.238Z</time></trkpt><trkpt lat="46.1632554" lon="9.6556447"><ele>263.0</ele><time>2026-05-01T09:11:10.241Z</time></trkpt><trkpt lat="46.1633317" lon="9.6559169"><ele>264.0</ele><time>2026-05-01T09:11:11.241Z</time></trkpt><trkpt lat="46.1634048" lon="9.6561765"><ele>264.0</ele><time>2026-05-01T09:11:12.244Z</time></trkpt><trkpt lat="46.1634819" lon="9.6564382"><ele>264.0</ele><time>2026-05-01T09:11:13.241Z</time></trkpt><trkpt lat="46.1635786" lon="9.6567103"><ele>264.0</ele><time>2026-05-01T09:11:14.247Z</time></trkpt><trkpt lat="46.1636733" lon="9.6570184"><ele>263.3333333333333</ele><time>2026-05-01T09:11:15.234Z</time></trkpt><trkpt lat="46.1637567" lon="9.6573144"><ele>262.66666666666663</ele><time>2026-05-01T09:11:16.239Z</time></trkpt><trkpt lat="46.16384" lon="9.6575944"><ele>262.0</ele><time>2026-05-01T09:11:17.247Z</time></trkpt><trkpt lat="46.1639175" lon="9.6578707"><ele>262.0</ele><time>2026-05-01T09:11:18.248Z</time></trkpt><trkpt lat="46.1639964" lon="9.6581564"><ele>262.0</ele><time>2026-05-01T09:11:19.247Z</time></trkpt><trkpt lat="46.1640768" lon="9.6584303"><ele>262.0</ele><time>2026-05-01T09:11:20.251Z</time></trkpt><trkpt lat="46.164168" lon="9.658702"><ele>262.0</ele><time>2026-05-01T09:11:21.254Z</time></trkpt><trkpt lat="46.1642661" lon="9.6589959"><ele>262.0</ele><time>2026-05-01T09:11:22.249Z</time></trkpt><trkpt lat="46.1643585" lon="9.659269"><ele>262.0</ele><time>2026-05-01T09:11:23.25Z</time></trkpt><trkpt lat="46.1644539" lon="9.6595589"><ele>262.0</ele><time>2026-05-01T09:11:24.255Z</time></trkpt><trkpt lat="46.1645244" lon="9.6598375"><ele>262.0</ele><time>2026-05-01T09:11:25.245Z</time></trkpt><trkpt lat="46.1645992" lon="9.6601069"><ele>262.0</ele><time>2026-05-01T09:11:26.259Z</time></trkpt><trkpt lat="46.1646521" lon="9.660384"><ele>262.0</ele><time>2026-05-01T09:11:27.248Z</time></trkpt><trkpt lat="46.1646968" lon="9.6606856"><ele>262.0</ele><time>2026-05-01T09:11:28.248Z</time></trkpt><trkpt lat="46.1647388" lon="9.660992"><ele>262.0</ele><time>2026-05-01T09:11:29.253Z</time></trkpt><trkpt lat="46.1647731" lon="9.661308"><ele>262.3333333333333</ele><time>2026-05-01T09:11:30.247Z</time></trkpt><trkpt lat="46.1647889" lon="9.6616106"><ele>262.6666666666667</ele><time>2026-05-01T09:11:31.247Z</time></trkpt><trkpt lat="46.1647937" lon="9.6619336"><ele>263.0</ele><time>2026-05-01T09:11:32.249Z</time></trkpt><trkpt lat="46.164776" lon="9.6622352"><ele>263.0</ele><time>2026-05-01T09:11:33.241Z</time></trkpt><trkpt lat="46.1647686" lon="9.6625199"><ele>263.0</ele><time>2026-05-01T09:11:34.235Z</time></trkpt><trkpt lat="46.1647579" lon="9.6628193"><ele>263.0</ele><time>2026-05-01T09:11:35.242Z</time></trkpt><trkpt lat="46.164746" lon="9.6631216"><ele>262.6666666666667</ele><time>2026-05-01T09:11:36.253Z</time></trkpt><trkpt lat="46.1647314" lon="9.663399"><ele>262.3333333333333</ele><time>2026-05-01T09:11:37.24Z</time></trkpt><trkpt lat="46.1647222" lon="9.663681"><ele>262.0</ele><time>2026-05-01T09:11:38.246Z</time></trkpt><trkpt lat="46.16472" lon="9.6639705"><ele>262.0</ele><time>2026-05-01T09:11:39.246Z</time></trkpt><trkpt lat="46.1647072" lon="9.6642489"><ele>262.0</ele><time>2026-05-01T09:11:40.254Z</time></trkpt><trkpt lat="46.1647011" lon="9.6645281"><ele>262.0</ele><time>2026-05-01T09:11:41.247Z</time></trkpt><trkpt lat="46.1646909" lon="9.6648249"><ele>262.0</ele><time>2026-05-01T09:11:42.247Z</time></trkpt><trkpt lat="46.1646878" lon="9.6651188"><ele>262.0</ele><time>2026-05-01T09:11:43.244Z</time></trkpt><trkpt lat="46.1646757" lon="9.6654126"><ele>262.0</ele><time>2026-05-01T09:11:44.242Z</time></trkpt><trkpt lat="46.1646622" lon="9.6657111"><ele>261.66666666666663</ele><time>2026-05-01T09:11:45.242Z</time></trkpt><trkpt lat="46.1646492" lon="9.6659902"><ele>261.3333333333333</ele><time>2026-05-01T09:11:46.244Z</time></trkpt><trkpt lat="46.1646425" lon="9.6662687"><ele>261.0</ele><time>2026-05-01T09:11:47.243Z</time></trkpt><trkpt lat="46.1646244" lon="9.6665284"><ele>261.0</ele><time>2026-05-01T09:11:48.24Z</time></trkpt><trkpt lat="46.1646242" lon="9.6667949"><ele>261.0</ele><time>2026-05-01T09:11:49.235Z</time></trkpt><trkpt lat="46.1646167" lon="9.6670764"><ele>261.0</ele><time>2026-05-01T09:11:50.236Z</time></trkpt><trkpt lat="46.1646036" lon="9.6673674"><ele>262.0</ele><time>2026-05-01T09:11:51.236Z</time></trkpt><trkpt lat="46.1645948" lon="9.6676537"><ele>263.0</ele><time>2026-05-01T09:11:52.245Z</time></trkpt><trkpt lat="46.1645764" lon="9.6679456"><ele>264.0</ele><time>2026-05-01T09:11:53.244Z</time></trkpt><trkpt lat="46.1645736" lon="9.6682374"><ele>264.0</ele><time>2026-05-01T09:11:54.242Z</time></trkpt><trkpt lat="46.1645597" lon="9.6685334"><ele>264.0</ele><time>2026-05-01T09:11:55.242Z</time></trkpt><trkpt lat="46.1645514" lon="9.6688241"><ele>264.0</ele><time>2026-05-01T09:11:56.243Z</time></trkpt><trkpt lat="46.1645416" lon="9.6691027"><ele>263.6666666666667</ele><time>2026-05-01T09:11:57.244Z</time></trkpt><trkpt lat="46.1645284" lon="9.6693838"><ele>263.33333333333337</ele><time>2026-05-01T09:11:58.244Z</time></trkpt><trkpt lat="46.1645142" lon="9.6696693"><ele>263.0</ele><time>2026-05-01T09:11:59.247Z</time></trkpt><trkpt lat="46.1645034" lon="9.6699491"><ele>263.0</ele><time>2026-05-01T09:12:00.245Z</time></trkpt><trkpt lat="46.164495" lon="9.6702297"><ele>263.0</ele><time>2026-05-01T09:12:01.236Z</time></trkpt><trkpt lat="46.1644936" lon="9.6705122"><ele>263.0</ele><time>2026-05-01T09:12:02.246Z</time></trkpt><trkpt lat="46.1644851" lon="9.6708004"><ele>263.0</ele><time>2026-05-01T09:12:03.241Z</time></trkpt><trkpt lat="46.1644774" lon="9.6710674"><ele>263.0</ele><time>2026-05-01T09:12:04.239Z</time></trkpt><trkpt lat="46.1644716" lon="9.6713478"><ele>263.0</ele><time>2026-05-01T09:12:05.245Z</time></trkpt><trkpt lat="46.1644696" lon="9.6716561"><ele>263.0</ele><time>2026-05-01T09:12:06.237Z</time></trkpt><trkpt lat="46.164465" lon="9.6719795"><ele>263.0</ele><time>2026-05-01T09:12:07.248Z</time></trkpt><trkpt lat="46.1644614" lon="9.6723297"><ele>263.0</ele><time>2026-05-01T09:12:08.246Z</time></trkpt><trkpt lat="46.1644467" lon="9.6726851"><ele>263.0</ele><time>2026-05-01T09:12:09.238Z</time></trkpt><trkpt lat="46.1644386" lon="9.6730388"><ele>263.0</ele><time>2026-05-01T09:12:10.233Z</time></trkpt><trkpt lat="46.1644258" lon="9.6733619"><ele>263.0</ele><time>2026-05-01T09:12:11.242Z</time></trkpt><trkpt lat="46.164409" lon="9.6736761"><ele>263.0</ele><time>2026-05-01T09:12:12.241Z</time></trkpt><trkpt lat="46.1644098" lon="9.6740014"><ele>263.0</ele><time>2026-05-01T09:12:13.236Z</time></trkpt><trkpt lat="46.1644029" lon="9.6743266"><ele>263.0</ele><time>2026-05-01T09:12:14.244Z</time></trkpt><trkpt lat="46.1643921" lon="9.6746519"><ele>263.0</ele><time>2026-05-01T09:12:15.245Z</time></trkpt><trkpt lat="46.164381" lon="9.6749612"><ele>263.0</ele><time>2026-05-01T09:12:16.241Z</time></trkpt><trkpt lat="46.1643591" lon="9.6753082"><ele>263.0</ele><time>2026-05-01T09:12:17.25Z</time></trkpt><trkpt lat="46.1643352" lon="9.6756596"><ele>263.0</ele><time>2026-05-01T09:12:18.248Z</time></trkpt><trkpt lat="46.1643139" lon="9.6760096"><ele>262.5</ele><time>2026-05-01T09:12:19.237Z</time></trkpt><trkpt lat="46.1642975" lon="9.6763471"><ele>262.0</ele><time>2026-05-01T09:12:20.244Z</time></trkpt><trkpt lat="46.1642776" lon="9.6766764"><ele>262.0</ele><time>2026-05-01T09:12:21.244Z</time></trkpt><trkpt lat="46.1642591" lon="9.6770221"><ele>262.0</ele><time>2026-05-01T09:12:22.244Z</time></trkpt><trkpt lat="46.1642474" lon="9.6773571"><ele>262.0</ele><time>2026-05-01T09:12:23.252Z</time></trkpt><trkpt lat="46.1642378" lon="9.6776871"><ele>262.0</ele><time>2026-05-01T09:12:24.248Z</time></trkpt><trkpt lat="46.1642267" lon="9.6780062"><ele>262.66666666666663</ele><time>2026-05-01T09:12:25.25Z</time></trkpt><trkpt lat="46.1642187" lon="9.6783114"><ele>263.3333333333333</ele><time>2026-05-01T09:12:26.237Z</time></trkpt><trkpt lat="46.1642108" lon="9.6786293"><ele>264.0</ele><time>2026-05-01T09:12:27.237Z</time></trkpt><trkpt lat="46.1642167" lon="9.6789426"><ele>264.0</ele><time>2026-05-01T09:12:28.244Z</time></trkpt><trkpt lat="46.1642059" lon="9.679239"><ele>264.0</ele><time>2026-05-01T09:12:29.241Z</time></trkpt><trkpt lat="46.1641925" lon="9.6795263"><ele>264.0</ele><time>2026-05-01T09:12:30.254Z</time></trkpt><trkpt lat="46.1641746" lon="9.679814"><ele>263.6666666666667</ele><time>2026-05-01T09:12:31.245Z</time></trkpt><trkpt lat="46.1641676" lon="9.6800725"><ele>263.33333333333337</ele><time>2026-05-01T09:12:32.244Z</time></trkpt><trkpt lat="46.1641556" lon="9.6803152"><ele>263.0</ele><time>2026-05-01T09:12:33.245Z</time></trkpt><trkpt lat="46.1641541" lon="9.6805469"><ele>263.0</ele><time>2026-05-01T09:12:34.241Z</time></trkpt><trkpt lat="46.1641441" lon="9.6807845"><ele>263.0</ele><time>2026-05-01T09:12:35.247Z</time></trkpt><trkpt lat="46.1641328" lon="9.6810191"><ele>263.0</ele><time>2026-05-01T09:12:36.245Z</time></trkpt><trkpt lat="46.1641174" lon="9.6812295"><ele>263.25</ele><time>2026-05-01T09:12:37.236Z</time></trkpt><trkpt lat="46.1641121" lon="9.6814406"><ele>263.5</ele><time>2026-05-01T09:12:38.249Z</time></trkpt><trkpt lat="46.1641035" lon="9.6816363"><ele>263.75</ele><time>2026-05-01T09:12:39.243Z</time></trkpt><trkpt lat="46.1641015" lon="9.6818266"><ele>264.0</ele><time>2026-05-01T09:12:40.238Z</time></trkpt><trkpt lat="46.1640935" lon="9.6819997"><ele>264.25</ele><time>2026-05-01T09:12:41.248Z</time></trkpt><trkpt lat="46.1640923" lon="9.6821638"><ele>264.5</ele><time>2026-05-01T09:12:42.241Z</time></trkpt><trkpt lat="46.1640893" lon="9.6823164"><ele>264.75</ele><time>2026-05-01T09:12:43.248Z</time></trkpt><trkpt lat="46.1640842" lon="9.6824746"><ele>265.0</ele><time>2026-05-01T09:12:44.248Z</time></trkpt><trkpt lat="46.1640813" lon="9.6826536"><ele>265.0</ele><time>2026-05-01T09:12:45.244Z</time></trkpt><trkpt lat="46.1640744" lon="9.6828538"><ele>265.0</ele><time>2026-05-01T09:12:46.244Z</time></trkpt><trkpt lat="46.164062" lon="9.68307"><ele>265.0</ele><time>2026-05-01T09:12:47.247Z</time></trkpt><trkpt lat="46.1640563" lon="9.6832763"><ele>265.0</ele><time>2026-05-01T09:12:48.251Z</time></trkpt><trkpt lat="46.1640478" lon="9.6834368"><ele>265.0</ele><time>2026-05-01T09:12:49.249Z</time></trkpt><trkpt lat="46.1640428" lon="9.6835973"><ele>265.0</ele><time>2026-05-01T09:12:50.251Z</time></trkpt><trkpt lat="46.1640429" lon="9.6837483"><ele>265.0</ele><time>2026-05-01T09:12:51.242Z</time></trkpt><trkpt lat="46.1640333" lon="9.6839063"><ele>265.0</ele><time>2026-05-01T09:12:52.25Z</time></trkpt><trkpt lat="46.1640194" lon="9.6840722"><ele>265.0</ele><time>2026-05-01T09:12:53.247Z</time></trkpt><trkpt lat="46.1640129" lon="9.684237"><ele>265.0</ele><time>2026-05-01T09:12:54.249Z</time></trkpt><trkpt lat="46.1640052" lon="9.6844107"><ele>265.0</ele><time>2026-05-01T09:12:55.237Z</time></trkpt><trkpt lat="46.1639961" lon="9.6845993"><ele>265.0</ele><time>2026-05-01T09:12:56.249Z</time></trkpt><trkpt lat="46.1639894" lon="9.6847995"><ele>265.0</ele><time>2026-05-01T09:12:57.243Z</time></trkpt><trkpt lat="46.1639758" lon="9.6850271"><ele>265.3333333333333</ele><time>2026-05-01T09:12:58.241Z</time></trkpt><trkpt lat="46.1639633" lon="9.6852607"><ele>265.6666666666667</ele><time>2026-05-01T09:12:59.252Z</time></trkpt><trkpt lat="46.1639593" lon="9.685506"><ele>266.0</ele><time>2026-05-01T09:13:00.246Z</time></trkpt><trkpt lat="46.1639517" lon="9.6857745"><ele>266.0</ele><time>2026-05-01T09:13:01.244Z</time></trkpt><trkpt lat="46.1639404" lon="9.6860548"><ele>266.0</ele><time>2026-05-01T09:13:02.246Z</time></trkpt><trkpt lat="46.1639349" lon="9.6863448"><ele>266.0</ele><time>2026-05-01T09:13:03.246Z</time></trkpt><trkpt lat="46.1639169" lon="9.6866482"><ele>265.33333333333337</ele><time>2026-05-01T09:13:04.247Z</time></trkpt><trkpt lat="46.1639073" lon="9.686944"><ele>264.6666666666667</ele><time>2026-05-01T09:13:05.246Z</time></trkpt><trkpt lat="46.1638877" lon="9.6872412"><ele>264.0</ele><time>2026-05-01T09:13:06.249Z</time></trkpt><trkpt lat="46.1638859" lon="9.6875259"><ele>264.3333333333333</ele><time>2026-05-01T09:13:07.242Z</time></trkpt><trkpt lat="46.163875" lon="9.6878031"><ele>264.66666666666663</ele><time>2026-05-01T09:13:08.249Z</time></trkpt><trkpt lat="46.1638718" lon="9.6880842"><ele>265.0</ele><time>2026-05-01T09:13:09.247Z</time></trkpt><trkpt lat="46.1638564" lon="9.6883516"><ele>265.0</ele><time>2026-05-01T09:13:10.242Z</time></trkpt><trkpt lat="46.1638387" lon="9.6886234"><ele>265.0</ele><time>2026-05-01T09:13:11.25Z</time></trkpt><trkpt lat="46.1638303" lon="9.6888723"><ele>265.0</ele><time>2026-05-01T09:13:12.248Z</time></trkpt><trkpt lat="46.1638303" lon="9.689126"><ele>265.0</ele><time>2026-05-01T09:13:13.249Z</time></trkpt><trkpt lat="46.163825" lon="9.6893761"><ele>265.0</ele><time>2026-05-01T09:13:14.25Z</time></trkpt><trkpt lat="46.1638222" lon="9.6896375"><ele>265.0</ele><time>2026-05-01T09:13:15.251Z</time></trkpt><trkpt lat="46.1638139" lon="9.6898926"><ele>265.0</ele><time>2026-05-01T09:13:16.238Z</time></trkpt><trkpt lat="46.1638167" lon="9.6901626"><ele>265.0</ele><time>2026-05-01T09:13:17.253Z</time></trkpt><trkpt lat="46.163793" lon="9.6904128"><ele>265.0</ele><time>2026-05-01T09:13:18.247Z</time></trkpt><trkpt lat="46.1637819" lon="9.6906685"><ele>265.0</ele><time>2026-05-01T09:13:19.242Z</time></trkpt><trkpt lat="46.1637717" lon="9.6909014"><ele>265.0</ele><time>2026-05-01T09:13:20.249Z</time></trkpt><trkpt lat="46.1637686" lon="9.6911305"><ele>265.0</ele><time>2026-05-01T09:13:21.248Z</time></trkpt><trkpt lat="46.1637552" lon="9.6913096"><ele>265.0</ele><time>2026-05-01T09:13:22.243Z</time></trkpt><trkpt lat="46.163752" lon="9.6914896"><ele>265.0</ele><time>2026-05-01T09:13:23.247Z</time></trkpt><trkpt lat="46.1637447" lon="9.6916527"><ele>265.0</ele><time>2026-05-01T09:13:24.248Z</time></trkpt><trkpt lat="46.163737" lon="9.6918057"><ele>265.0</ele><time>2026-05-01T09:13:25.243Z</time></trkpt><trkpt lat="46.163734" lon="9.6919607"><ele>265.0</ele><time>2026-05-01T09:13:26.245Z</time></trkpt><trkpt lat="46.1637288" lon="9.6921102"><ele>265.0</ele><time>2026-05-01T09:13:27.25Z</time></trkpt><trkpt lat="46.1637206" lon="9.6922358"><ele>265.0</ele><time>2026-05-01T09:13:28.25Z</time></trkpt><trkpt lat="46.1637148" lon="9.6923626"><ele>265.0</ele><time>2026-05-01T09:13:29.254Z</time></trkpt><trkpt lat="46.1637123" lon="9.6925004"><ele>265.0</ele><time>2026-05-01T09:13:30.249Z</time></trkpt><trkpt lat="46.1637082" lon="9.6926565"><ele>265.0</ele><time>2026-05-01T09:13:31.246Z</time></trkpt><trkpt lat="46.1637021" lon="9.692815"><ele>265.0</ele><time>2026-05-01T09:13:32.245Z</time></trkpt><trkpt lat="46.1636973" lon="9.6929719"><ele>265.0</ele><time>2026-05-01T09:13:33.241Z</time></trkpt><trkpt lat="46.1636907" lon="9.6931193"><ele>265.0</ele><time>2026-05-01T09:13:34.24Z</time></trkpt><trkpt lat="46.1636865" lon="9.6932502"><ele>265.0</ele><time>2026-05-01T09:13:35.243Z</time></trkpt><trkpt lat="46.163681" lon="9.6933618"><ele>265.0</ele><time>2026-05-01T09:13:36.245Z</time></trkpt><trkpt lat="46.1636743" lon="9.6934565"><ele>265.0</ele><time>2026-05-01T09:13:37.246Z</time></trkpt><trkpt lat="46.1636672" lon="9.6936157"><ele>265.0</ele><time>2026-05-01T09:13:39.248Z</time></trkpt><trkpt lat="46.1636654" lon="9.6937476"><ele>265.0</ele><time>2026-05-01T09:13:41.25Z</time></trkpt><trkpt lat="46.1636676" lon="9.6939275"><ele>265.0</ele><time>2026-05-01T09:13:43.239Z</time></trkpt><trkpt lat="46.1636705" lon="9.6940577"><ele>265.0</ele><time>2026-05-01T09:13:44.257Z</time></trkpt><trkpt lat="46.1636733" lon="9.6942151"><ele>265.0</ele><time>2026-05-01T09:13:45.246Z</time></trkpt><trkpt lat="46.1636718" lon="9.6943884"><ele>265.0</ele><time>2026-05-01T09:13:46.247Z</time></trkpt><trkpt lat="46.1636622" lon="9.6945821"><ele>265.3333333333333</ele><time>2026-05-01T09:13:47.255Z</time></trkpt><trkpt lat="46.1636594" lon="9.6947866"><ele>265.6666666666667</ele><time>2026-05-01T09:13:48.247Z</time></trkpt><trkpt lat="46.1636585" lon="9.6950034"><ele>266.0</ele><time>2026-05-01T09:13:49.234Z</time></trkpt><trkpt lat="46.1636385" lon="9.6952492"><ele>266.0</ele><time>2026-05-01T09:13:50.254Z</time></trkpt><trkpt lat="46.1636176" lon="9.6954782"><ele>266.0</ele><time>2026-05-01T09:13:51.243Z</time></trkpt><trkpt lat="46.1635952" lon="9.6956881"><ele>266.0</ele><time>2026-05-01T09:13:52.246Z</time></trkpt><trkpt lat="46.1635903" lon="9.6958873"><ele>266.0</ele><time>2026-05-01T09:13:53.249Z</time></trkpt><trkpt lat="46.1635861" lon="9.696056"><ele>266.0</ele><time>2026-05-01T09:13:54.245Z</time></trkpt><trkpt lat="46.1635771" lon="9.6962373"><ele>266.0</ele><time>2026-05-01T09:13:55.25Z</time></trkpt><trkpt lat="46.1635734" lon="9.6964118"><ele>266.0</ele><time>2026-05-01T09:13:56.246Z</time></trkpt><trkpt lat="46.1635854" lon="9.6966127"><ele>266.0</ele><time>2026-05-01T09:13:57.25Z</time></trkpt><trkpt lat="46.1635784" lon="9.6967946"><ele>266.0</ele><time>2026-05-01T09:13:58.245Z</time></trkpt><trkpt lat="46.1635801" lon="9.6969782"><ele>266.0</ele><time>2026-05-01T09:13:59.249Z</time></trkpt><trkpt lat="46.1635823" lon="9.6971616"><ele>266.0</ele><time>2026-05-01T09:14:00.25Z</time></trkpt><trkpt lat="46.1635767" lon="9.6973351"><ele>266.0</ele><time>2026-05-01T09:14:01.247Z</time></trkpt><trkpt lat="46.1635697" lon="9.6975121"><ele>266.0</ele><time>2026-05-01T09:14:02.245Z</time></trkpt><trkpt lat="46.1635701" lon="9.697715"><ele>266.0</ele><time>2026-05-01T09:14:03.249Z</time></trkpt><trkpt lat="46.1635771" lon="9.6979542"><ele>266.0</ele><time>2026-05-01T09:14:04.248Z</time></trkpt><trkpt lat="46.1635531" lon="9.698216"><ele>266.0</ele><time>2026-05-01T09:14:05.251Z</time></trkpt><trkpt lat="46.1635448" lon="9.698485"><ele>266.0</ele><time>2026-05-01T09:14:06.248Z</time></trkpt><trkpt lat="46.1635293" lon="9.6986981"><ele>266.0</ele><time>2026-05-01T09:14:07.246Z</time></trkpt><trkpt lat="46.1635239" lon="9.6988936"><ele>266.0</ele><time>2026-05-01T09:14:08.246Z</time></trkpt><trkpt lat="46.1635206" lon="9.699082"><ele>266.0</ele><time>2026-05-01T09:14:09.245Z</time></trkpt><trkpt lat="46.1635115" lon="9.699253"><ele>266.0</ele><time>2026-05-01T09:14:10.239Z</time></trkpt><trkpt lat="46.1635088" lon="9.6994103"><ele>266.0</ele><time>2026-05-01T09:14:11.25Z</time></trkpt><trkpt lat="46.1635009" lon="9.6995598"><ele>266.0</ele><time>2026-05-01T09:14:12.247Z</time></trkpt><trkpt lat="46.1634833" lon="9.6996816"><ele>266.0</ele><time>2026-05-01T09:14:13.244Z</time></trkpt><trkpt lat="46.1634832" lon="9.699806"><ele>266.0</ele><time>2026-05-01T09:14:14.248Z</time></trkpt><trkpt lat="46.1634783" lon="9.6999241"><ele>266.0</ele><time>2026-05-01T09:14:15.249Z</time></trkpt><trkpt lat="46.1634698" lon="9.7000481"><ele>266.0</ele><time>2026-05-01T09:14:16.254Z</time></trkpt><trkpt lat="46.1634614" lon="9.7001739"><ele>266.0</ele><time>2026-05-01T09:14:17.251Z</time></trkpt><trkpt lat="46.1634543" lon="9.7003097"><ele>266.0</ele><time>2026-05-01T09:14:18.247Z</time></trkpt><trkpt lat="46.1634501" lon="9.7004544"><ele>266.0</ele><time>2026-05-01T09:14:19.239Z</time></trkpt><trkpt lat="46.1634453" lon="9.7006121"><ele>266.0</ele><time>2026-05-01T09:14:20.253Z</time></trkpt><trkpt lat="46.1634426" lon="9.7007786"><ele>266.0</ele><time>2026-05-01T09:14:21.248Z</time></trkpt><trkpt lat="46.1634373" lon="9.7009538"><ele>266.0</ele><time>2026-05-01T09:14:22.25Z</time></trkpt><trkpt lat="46.1634337" lon="9.7011393"><ele>266.33333333333337</ele><time>2026-05-01T09:14:23.252Z</time></trkpt><trkpt lat="46.1634251" lon="9.7013475"><ele>266.6666666666667</ele><time>2026-05-01T09:14:24.25Z</time></trkpt><trkpt lat="46.1634026" lon="9.7016"><ele>267.0</ele><time>2026-05-01T09:14:25.243Z</time></trkpt><trkpt lat="46.1633909" lon="9.7018303"><ele>266.75</ele><time>2026-05-01T09:14:26.252Z</time></trkpt><trkpt lat="46.1633758" lon="9.70206"><ele>266.5</ele><time>2026-05-01T09:14:27.247Z</time></trkpt><trkpt lat="46.1633907" lon="9.7022804"><ele>266.25</ele><time>2026-05-01T09:14:28.251Z</time></trkpt><trkpt lat="46.1633969" lon="9.702476"><ele>266.0</ele><time>2026-05-01T09:14:29.249Z</time></trkpt><trkpt lat="46.163394" lon="9.702652"><ele>265.5</ele><time>2026-05-01T09:14:30.248Z</time></trkpt><trkpt lat="46.1633881" lon="9.7028244"><ele>265.0</ele><time>2026-05-01T09:14:31.255Z</time></trkpt><trkpt lat="46.1633825" lon="9.703022"><ele>264.5</ele><time>2026-05-01T09:14:32.249Z</time></trkpt><trkpt lat="46.1633712" lon="9.7032177"><ele>264.0</ele><time>2026-05-01T09:14:33.246Z</time></trkpt><trkpt lat="46.1633601" lon="9.7034299"><ele>264.3333333333333</ele><time>2026-05-01T09:14:34.245Z</time></trkpt><trkpt lat="46.1633502" lon="9.7036446"><ele>264.66666666666663</ele><time>2026-05-01T09:14:35.244Z</time></trkpt><trkpt lat="46.1633391" lon="9.7038629"><ele>265.0</ele><time>2026-05-01T09:14:36.243Z</time></trkpt><trkpt lat="46.1633329" lon="9.7040815"><ele>265.0</ele><time>2026-05-01T09:14:37.236Z</time></trkpt><trkpt lat="46.1633289" lon="9.7043129"><ele>265.0</ele><time>2026-05-01T09:14:38.25Z</time></trkpt><trkpt lat="46.1633169" lon="9.7045088"><ele>265.0</ele><time>2026-05-01T09:14:39.248Z</time></trkpt><trkpt lat="46.1633045" lon="9.7046913"><ele>265.0</ele><time>2026-05-01T09:14:40.247Z</time></trkpt><trkpt lat="46.1633104" lon="9.7048572"><ele>265.0</ele><time>2026-05-01T09:14:41.243Z</time></trkpt><trkpt lat="46.1632993" lon="9.7049907"><ele>265.0</ele><time>2026-05-01T09:14:42.246Z</time></trkpt><trkpt lat="46.1632887" lon="9.7051553"><ele>265.0</ele><time>2026-05-01T09:14:43.24Z</time></trkpt><trkpt lat="46.1632837" lon="9.7053453"><ele>265.0</ele><time>2026-05-01T09:14:44.248Z</time></trkpt><trkpt lat="46.1632823" lon="9.7055596"><ele>265.0</ele><time>2026-05-01T09:14:45.246Z</time></trkpt><trkpt lat="46.1632734" lon="9.7057783"><ele>265.0</ele><time>2026-05-01T09:14:46.249Z</time></trkpt><trkpt lat="46.1632622" lon="9.7060121"><ele>265.0</ele><time>2026-05-01T09:14:47.255Z</time></trkpt><trkpt lat="46.1632513" lon="9.7062471"><ele>265.3333333333333</ele><time>2026-05-01T09:14:48.248Z</time></trkpt><trkpt lat="46.163243" lon="9.7064855"><ele>265.6666666666667</ele><time>2026-05-01T09:14:49.247Z</time></trkpt><trkpt lat="46.1632337" lon="9.7067258"><ele>266.0</ele><time>2026-05-01T09:14:50.247Z</time></trkpt><trkpt lat="46.1632263" lon="9.7069698"><ele>266.0</ele><time>2026-05-01T09:14:51.253Z</time></trkpt><trkpt lat="46.1632085" lon="9.7072163"><ele>266.0</ele><time>2026-05-01T09:14:52.246Z</time></trkpt><trkpt lat="46.1631849" lon="9.7074633"><ele>266.0</ele><time>2026-05-01T09:14:53.243Z</time></trkpt><trkpt lat="46.1631962" lon="9.7077075"><ele>266.0</ele><time>2026-05-01T09:14:54.252Z</time></trkpt><trkpt lat="46.163195" lon="9.7079675"><ele>266.0</ele><time>2026-05-01T09:14:55.252Z</time></trkpt><trkpt lat="46.1631815" lon="9.7082199"><ele>266.0</ele><time>2026-05-01T09:14:56.248Z</time></trkpt><trkpt lat="46.163179" lon="9.7084802"><ele>266.0</ele><time>2026-05-01T09:14:57.249Z</time></trkpt><trkpt lat="46.1631657" lon="9.7087208"><ele>266.0</ele><time>2026-05-01T09:14:58.255Z</time></trkpt><trkpt lat="46.1631578" lon="9.7089686"><ele>266.0</ele><time>2026-05-01T09:14:59.25Z</time></trkpt><trkpt lat="46.1631533" lon="9.7091768"><ele>266.0</ele><time>2026-05-01T09:15:00.244Z</time></trkpt><trkpt lat="46.1631473" lon="9.7093864"><ele>266.0</ele><time>2026-05-01T09:15:01.24Z</time></trkpt><trkpt lat="46.1631443" lon="9.7095859"><ele>266.0</ele><time>2026-05-01T09:15:02.249Z</time></trkpt><trkpt lat="46.1631194" lon="9.7097676"><ele>266.0</ele><time>2026-05-01T09:15:03.248Z</time></trkpt><trkpt lat="46.1631023" lon="9.7099604"><ele>266.0</ele><time>2026-05-01T09:15:04.245Z</time></trkpt><trkpt lat="46.1630875" lon="9.7101568"><ele>266.0</ele><time>2026-05-01T09:15:05.244Z</time></trkpt><trkpt lat="46.1630796" lon="9.7103858"><ele>266.0</ele><time>2026-05-01T09:15:06.248Z</time></trkpt><trkpt lat="46.1630676" lon="9.7105955"><ele>266.0</ele><time>2026-05-01T09:15:07.241Z</time></trkpt><trkpt lat="46.1630661" lon="9.7107913"><ele>266.0</ele><time>2026-05-01T09:15:08.244Z</time></trkpt><trkpt lat="46.1630581" lon="9.7109947"><ele>266.0</ele><time>2026-05-01T09:15:09.247Z</time></trkpt><trkpt lat="46.1630597" lon="9.7112195"><ele>266.0</ele><time>2026-05-01T09:15:10.241Z</time></trkpt><trkpt lat="46.1630497" lon="9.7114237"><ele>266.0</ele><time>2026-05-01T09:15:11.247Z</time></trkpt><trkpt lat="46.1630331" lon="9.7116338"><ele>266.0</ele><time>2026-05-01T09:15:12.247Z</time></trkpt><trkpt lat="46.1630255" lon="9.7118756"><ele>266.0</ele><time>2026-05-01T09:15:13.239Z</time></trkpt><trkpt lat="46.1630065" lon="9.7121222"><ele>266.0</ele><time>2026-05-01T09:15:14.254Z</time></trkpt><trkpt lat="46.1630065" lon="9.7123595"><ele>266.0</ele><time>2026-05-01T09:15:15.242Z</time></trkpt><trkpt lat="46.163012" lon="9.7125984"><ele>266.0</ele><time>2026-05-01T09:15:16.247Z</time></trkpt><trkpt lat="46.1630008" lon="9.7127904"><ele>266.0</ele><time>2026-05-01T09:15:17.253Z</time></trkpt><trkpt lat="46.1630008" lon="9.7129832"><ele>266.0</ele><time>2026-05-01T09:15:18.245Z</time></trkpt><trkpt lat="46.1630028" lon="9.7131817"><ele>266.0</ele><time>2026-05-01T09:15:19.246Z</time></trkpt><trkpt lat="46.1629891" lon="9.7133765"><ele>266.0</ele><time>2026-05-01T09:15:20.248Z</time></trkpt><trkpt lat="46.1629695" lon="9.7135762"><ele>266.0</ele><time>2026-05-01T09:15:21.246Z</time></trkpt><trkpt lat="46.1629545" lon="9.7137755"><ele>266.0</ele><time>2026-05-01T09:15:22.246Z</time></trkpt><trkpt lat="46.1629433" lon="9.713974"><ele>265.5</ele><time>2026-05-01T09:15:23.252Z</time></trkpt><trkpt lat="46.1629469" lon="9.7141553"><ele>265.0</ele><time>2026-05-01T09:15:24.244Z</time></trkpt><trkpt lat="46.1629298" lon="9.7143352"><ele>264.5</ele><time>2026-05-01T09:15:25.241Z</time></trkpt><trkpt lat="46.1629303" lon="9.7145041"><ele>264.0</ele><time>2026-05-01T09:15:26.246Z</time></trkpt><trkpt lat="46.1629286" lon="9.7146907"><ele>264.0</ele><time>2026-05-01T09:15:27.243Z</time></trkpt><trkpt lat="46.1629254" lon="9.7148767"><ele>264.0</ele><time>2026-05-01T09:15:28.239Z</time></trkpt><trkpt lat="46.1629197" lon="9.7150641"><ele>264.0</ele><time>2026-05-01T09:15:29.25Z</time></trkpt><trkpt lat="46.1629187" lon="9.7152403"><ele>264.0</ele><time>2026-05-01T09:15:30.246Z</time></trkpt><trkpt lat="46.1629083" lon="9.7153957"><ele>264.25</ele><time>2026-05-01T09:15:31.244Z</time></trkpt><trkpt lat="46.162899" lon="9.7155558"><ele>264.5</ele><time>2026-05-01T09:15:32.246Z</time></trkpt><trkpt lat="46.1628921" lon="9.7157309"><ele>264.75</ele><time>2026-05-01T09:15:33.251Z</time></trkpt><trkpt lat="46.162889" lon="9.7159288"><ele>265.0</ele><time>2026-05-01T09:15:34.256Z</time></trkpt><trkpt lat="46.1628847" lon="9.7161516"><ele>265.3333333333333</ele><time>2026-05-01T09:15:35.247Z</time></trkpt><trkpt lat="46.1628738" lon="9.7164368"><ele>265.6666666666667</ele><time>2026-05-01T09:15:36.255Z</time></trkpt><trkpt lat="46.162862" lon="9.7167112"><ele>266.0</ele><time>2026-05-01T09:15:37.271Z</time></trkpt><trkpt lat="46.1628475" lon="9.7169814"><ele>266.0</ele><time>2026-05-01T09:15:38.249Z</time></trkpt><trkpt lat="46.1628358" lon="9.7172224"><ele>266.0</ele><time>2026-05-01T09:15:39.252Z</time></trkpt><trkpt lat="46.1628278" lon="9.7174611"><ele>266.0</ele><time>2026-05-01T09:15:40.249Z</time></trkpt><trkpt lat="46.1628264" lon="9.7176797"><ele>265.75</ele><time>2026-05-01T09:15:41.249Z</time></trkpt><trkpt lat="46.1628143" lon="9.7178571"><ele>265.5</ele><time>2026-05-01T09:15:42.25Z</time></trkpt><trkpt lat="46.1628015" lon="9.7180379"><ele>265.25</ele><time>2026-05-01T09:15:43.249Z</time></trkpt><trkpt lat="46.1627852" lon="9.7182066"><ele>265.0</ele><time>2026-05-01T09:15:44.253Z</time></trkpt><trkpt lat="46.1627793" lon="9.7183828"><ele>265.0</ele><time>2026-05-01T09:15:45.253Z</time></trkpt><trkpt lat="46.1627775" lon="9.7185627"><ele>265.0</ele><time>2026-05-01T09:15:46.246Z</time></trkpt><trkpt lat="46.1627739" lon="9.7187444"><ele>265.0</ele><time>2026-05-01T09:15:47.257Z</time></trkpt><trkpt lat="46.1627702" lon="9.7189203"><ele>265.0</ele><time>2026-05-01T09:15:48.254Z</time></trkpt><trkpt lat="46.1627669" lon="9.7190974"><ele>265.75</ele><time>2026-05-01T09:15:49.254Z</time></trkpt><trkpt lat="46.1627631" lon="9.719277"><ele>266.5</ele><time>2026-05-01T09:15:50.249Z</time></trkpt><trkpt lat="46.1627604" lon="9.7194562"><ele>267.25</ele><time>2026-05-01T09:15:51.252Z</time></trkpt><trkpt lat="46.1627582" lon="9.7196225"><ele>268.0</ele><time>2026-05-01T09:15:52.251Z</time></trkpt><trkpt lat="46.1627537" lon="9.7197787"><ele>268.0</ele><time>2026-05-01T09:15:53.257Z</time></trkpt><trkpt lat="46.1627488" lon="9.7199324"><ele>268.0</ele><time>2026-05-01T09:15:54.252Z</time></trkpt><trkpt lat="46.1627454" lon="9.7200696"><ele>268.0</ele><time>2026-05-01T09:15:55.261Z</time></trkpt><trkpt lat="46.1627418" lon="9.7201969"><ele>268.0</ele><time>2026-05-01T09:15:56.249Z</time></trkpt><trkpt lat="46.1627332" lon="9.7203274"><ele>268.0</ele><time>2026-05-01T09:15:57.251Z</time></trkpt><trkpt lat="46.1627291" lon="9.7204746"><ele>267.5</ele><time>2026-05-01T09:15:58.254Z</time></trkpt><trkpt lat="46.1627242" lon="9.7206301"><ele>267.0</ele><time>2026-05-01T09:15:59.252Z</time></trkpt><trkpt lat="46.1627194" lon="9.7208114"><ele>266.5</ele><time>2026-05-01T09:16:00.252Z</time></trkpt><trkpt lat="46.1627139" lon="9.7210026"><ele>266.0</ele><time>2026-05-01T09:16:01.252Z</time></trkpt><trkpt lat="46.162704" lon="9.721212"><ele>266.0</ele><time>2026-05-01T09:16:02.254Z</time></trkpt><trkpt lat="46.1626876" lon="9.7214485"><ele>266.0</ele><time>2026-05-01T09:16:03.256Z</time></trkpt><trkpt lat="46.1626784" lon="9.7216852"><ele>266.0</ele><time>2026-05-01T09:16:04.248Z</time></trkpt><trkpt lat="46.1626732" lon="9.7219495"><ele>266.0</ele><time>2026-05-01T09:16:05.261Z</time></trkpt><trkpt lat="46.162662" lon="9.7222224"><ele>266.0</ele><time>2026-05-01T09:16:06.245Z</time></trkpt><trkpt lat="46.1626522" lon="9.7224962"><ele>266.0</ele><time>2026-05-01T09:16:07.243Z</time></trkpt><trkpt lat="46.1626393" lon="9.7227793"><ele>266.33333333333337</ele><time>2026-05-01T09:16:08.25Z</time></trkpt><trkpt lat="46.1626212" lon="9.7230664"><ele>266.6666666666667</ele><time>2026-05-01T09:16:09.247Z</time></trkpt><trkpt lat="46.1626047" lon="9.7233961"><ele>267.0</ele><time>2026-05-01T09:16:10.251Z</time></trkpt><trkpt lat="46.1626007" lon="9.7237463"><ele>267.0</ele><time>2026-05-01T09:16:11.251Z</time></trkpt><trkpt lat="46.1625833" lon="9.7241033"><ele>267.0</ele><time>2026-05-01T09:16:12.255Z</time></trkpt><trkpt lat="46.1625774" lon="9.7245041"><ele>267.0</ele><time>2026-05-01T09:16:13.249Z</time></trkpt><trkpt lat="46.1625521" lon="9.7248367"><ele>267.0</ele><time>2026-05-01T09:16:14.251Z</time></trkpt><trkpt lat="46.1625261" lon="9.725165"><ele>266.5</ele><time>2026-05-01T09:16:15.253Z</time></trkpt><trkpt lat="46.1625165" lon="9.7254951"><ele>266.0</ele><time>2026-05-01T09:16:16.245Z</time></trkpt><trkpt lat="46.1625085" lon="9.7258195"><ele>266.0</ele><time>2026-05-01T09:16:17.254Z</time></trkpt><trkpt lat="46.162496" lon="9.7261543"><ele>266.0</ele><time>2026-05-01T09:16:18.256Z</time></trkpt><trkpt lat="46.1624817" lon="9.7264706"><ele>266.0</ele><time>2026-05-01T09:16:19.247Z</time></trkpt><trkpt lat="46.1624646" lon="9.7267968"><ele>266.0</ele><time>2026-05-01T09:16:20.26Z</time></trkpt><trkpt lat="46.1624464" lon="9.7271453"><ele>266.5</ele><time>2026-05-01T09:16:21.25Z</time></trkpt><trkpt lat="46.1624241" lon="9.727465"><ele>267.0</ele><time>2026-05-01T09:16:22.246Z</time></trkpt><trkpt lat="46.16241" lon="9.727793"><ele>267.0</ele><time>2026-05-01T09:16:23.258Z</time></trkpt><trkpt lat="46.1623824" lon="9.7281192"><ele>267.0</ele><time>2026-05-01T09:16:24.251Z</time></trkpt><trkpt lat="46.162343" lon="9.7284444"><ele>266.5</ele><time>2026-05-01T09:16:25.258Z</time></trkpt><trkpt lat="46.1623185" lon="9.7287617"><ele>266.0</ele><time>2026-05-01T09:16:26.253Z</time></trkpt><trkpt lat="46.1623003" lon="9.7290957"><ele>266.33333333333337</ele><time>2026-05-01T09:16:27.254Z</time></trkpt><trkpt lat="46.1622681" lon="9.7294157"><ele>266.6666666666667</ele><time>2026-05-01T09:16:28.252Z</time></trkpt><trkpt lat="46.1622521" lon="9.7297369"><ele>267.0</ele><time>2026-05-01T09:16:29.257Z</time></trkpt><trkpt lat="46.162227" lon="9.730059"><ele>266.5</ele><time>2026-05-01T09:16:30.262Z</time></trkpt><trkpt lat="46.1621943" lon="9.7303803"><ele>266.0</ele><time>2026-05-01T09:16:31.247Z</time></trkpt><trkpt lat="46.1621631" lon="9.7307105"><ele>266.0</ele><time>2026-05-01T09:16:32.258Z</time></trkpt><trkpt lat="46.1621426" lon="9.7310289"><ele>266.0</ele><time>2026-05-01T09:16:33.252Z</time></trkpt><trkpt lat="46.1621101" lon="9.7313422"><ele>266.0</ele><time>2026-05-01T09:16:34.258Z</time></trkpt><trkpt lat="46.1620835" lon="9.7316525"><ele>266.0</ele><time>2026-05-01T09:16:35.256Z</time></trkpt><trkpt lat="46.1620725" lon="9.7319879"><ele>266.0</ele><time>2026-05-01T09:16:36.259Z</time></trkpt><trkpt lat="46.1620388" lon="9.7322992"><ele>266.0</ele><time>2026-05-01T09:16:37.256Z</time></trkpt><trkpt lat="46.162005" lon="9.7326244"><ele>266.0</ele><time>2026-05-01T09:16:38.257Z</time></trkpt><trkpt lat="46.1619842" lon="9.7329447"><ele>266.6666666666667</ele><time>2026-05-01T09:16:39.257Z</time></trkpt><trkpt lat="46.1619554" lon="9.7332523"><ele>267.3333333333333</ele><time>2026-05-01T09:16:40.256Z</time></trkpt><trkpt lat="46.1619344" lon="9.7335684"><ele>268.0</ele><time>2026-05-01T09:16:41.256Z</time></trkpt><trkpt lat="46.1619117" lon="9.7338778"><ele>268.0</ele><time>2026-05-01T09:16:42.26Z</time></trkpt><trkpt lat="46.1618912" lon="9.734187"><ele>268.0</ele><time>2026-05-01T09:16:43.253Z</time></trkpt><trkpt lat="46.1618621" lon="9.7344805"><ele>268.0</ele><time>2026-05-01T09:16:44.262Z</time></trkpt><trkpt lat="46.1618374" lon="9.7347768"><ele>267.66666666666663</ele><time>2026-05-01T09:16:45.252Z</time></trkpt><trkpt lat="46.1618097" lon="9.7350613"><ele>267.3333333333333</ele><time>2026-05-01T09:16:46.242Z</time></trkpt><trkpt lat="46.1617851" lon="9.7353386"><ele>267.0</ele><time>2026-05-01T09:16:47.256Z</time></trkpt><trkpt lat="46.1617773" lon="9.7356595"><ele>267.0</ele><time>2026-05-01T09:16:48.254Z</time></trkpt><trkpt lat="46.1617441" lon="9.7359433"><ele>267.0</ele><time>2026-05-01T09:16:49.248Z</time></trkpt><trkpt lat="46.1617131" lon="9.73624"><ele>267.0</ele><time>2026-05-01T09:16:50.256Z</time></trkpt><trkpt lat="46.1616959" lon="9.7365229"><ele>267.0</ele><time>2026-05-01T09:16:51.257Z</time></trkpt><trkpt lat="46.1616644" lon="9.7368163"><ele>267.0</ele><time>2026-05-01T09:16:52.251Z</time></trkpt><trkpt lat="46.1616384" lon="9.7371069"><ele>267.0</ele><time>2026-05-01T09:16:53.259Z</time></trkpt><trkpt lat="46.1616304" lon="9.737398"><ele>267.0</ele><time>2026-05-01T09:16:54.258Z</time></trkpt><trkpt lat="46.1615995" lon="9.7376829"><ele>267.0</ele><time>2026-05-01T09:16:55.252Z</time></trkpt><trkpt lat="46.1615867" lon="9.7379715"><ele>267.0</ele><time>2026-05-01T09:16:56.256Z</time></trkpt><trkpt lat="46.1615631" lon="9.7382457"><ele>267.6666666666667</ele><time>2026-05-01T09:16:57.258Z</time></trkpt><trkpt lat="46.1615374" lon="9.7385303"><ele>268.33333333333337</ele><time>2026-05-01T09:16:58.252Z</time></trkpt><trkpt lat="46.1615118" lon="9.7387961"><ele>269.0</ele><time>2026-05-01T09:16:59.258Z</time></trkpt><trkpt lat="46.1615025" lon="9.7390485"><ele>269.0</ele><time>2026-05-01T09:17:00.252Z</time></trkpt><trkpt lat="46.1614819" lon="9.739292"><ele>269.0</ele><time>2026-05-01T09:17:01.249Z</time></trkpt><trkpt lat="46.1614649" lon="9.739526"><ele>269.0</ele><time>2026-05-01T09:17:02.253Z</time></trkpt><trkpt lat="46.1614494" lon="9.7397453"><ele>269.25</ele><time>2026-05-01T09:17:03.252Z</time></trkpt><trkpt lat="46.1614251" lon="9.7399464"><ele>269.5</ele><time>2026-05-01T09:17:04.253Z</time></trkpt><trkpt lat="46.1614138" lon="9.740153"><ele>269.75</ele><time>2026-05-01T09:17:05.251Z</time></trkpt><trkpt lat="46.1614087" lon="9.7403853"><ele>270.0</ele><time>2026-05-01T09:17:06.253Z</time></trkpt><trkpt lat="46.161386" lon="9.7406167"><ele>270.0</ele><time>2026-05-01T09:17:07.265Z</time></trkpt><trkpt lat="46.1613721" lon="9.7408508"><ele>270.0</ele><time>2026-05-01T09:17:08.258Z</time></trkpt><trkpt lat="46.161365" lon="9.7410717"><ele>270.0</ele><time>2026-05-01T09:17:09.252Z</time></trkpt><trkpt lat="46.1613592" lon="9.741313"><ele>270.0</ele><time>2026-05-01T09:17:10.26Z</time></trkpt><trkpt lat="46.1613477" lon="9.741531"><ele>270.0</ele><time>2026-05-01T09:17:11.258Z</time></trkpt><trkpt lat="46.1613215" lon="9.7417043"><ele>270.0</ele><time>2026-05-01T09:17:12.261Z</time></trkpt><trkpt lat="46.1613084" lon="9.7418844"><ele>270.0</ele><time>2026-05-01T09:17:13.256Z</time></trkpt><trkpt lat="46.1613068" lon="9.7420682"><ele>270.0</ele><time>2026-05-01T09:17:14.257Z</time></trkpt><trkpt lat="46.1612934" lon="9.7422156"><ele>270.0</ele><time>2026-05-01T09:17:15.258Z</time></trkpt><trkpt lat="46.1612754" lon="9.7423668"><ele>270.0</ele><time>2026-05-01T09:17:16.26Z</time></trkpt><trkpt lat="46.1612563" lon="9.7425327"><ele>270.0</ele><time>2026-05-01T09:17:17.264Z</time></trkpt><trkpt lat="46.1612504" lon="9.742692"><ele>270.0</ele><time>2026-05-01T09:17:18.257Z</time></trkpt><trkpt lat="46.1612376" lon="9.7428681"><ele>270.0</ele><time>2026-05-01T09:17:19.261Z</time></trkpt><trkpt lat="46.161221" lon="9.7430513"><ele>270.0</ele><time>2026-05-01T09:17:20.262Z</time></trkpt><trkpt lat="46.1612091" lon="9.7432502"><ele>270.0</ele><time>2026-05-01T09:17:21.255Z</time></trkpt><trkpt lat="46.1611819" lon="9.7434726"><ele>270.0</ele><time>2026-05-01T09:17:22.26Z</time></trkpt><trkpt lat="46.1611677" lon="9.7436962"><ele>270.0</ele><time>2026-05-01T09:17:23.262Z</time></trkpt><trkpt lat="46.1611581" lon="9.7438989"><ele>270.0</ele><time>2026-05-01T09:17:24.266Z</time></trkpt><trkpt lat="46.1611522" lon="9.7441279"><ele>270.0</ele><time>2026-05-01T09:17:25.262Z</time></trkpt><trkpt lat="46.1611231" lon="9.744363"><ele>270.0</ele><time>2026-05-01T09:17:26.262Z</time></trkpt><trkpt lat="46.1610979" lon="9.7445807"><ele>270.0</ele><time>2026-05-01T09:17:27.26Z</time></trkpt><trkpt lat="46.1610848" lon="9.7447935"><ele>270.0</ele><time>2026-05-01T09:17:28.261Z</time></trkpt><trkpt lat="46.1610821" lon="9.7450111"><ele>270.5</ele><time>2026-05-01T09:17:29.258Z</time></trkpt><trkpt lat="46.1610606" lon="9.7452212"><ele>271.0</ele><time>2026-05-01T09:17:30.264Z</time></trkpt><trkpt lat="46.1610469" lon="9.7454167"><ele>271.5</ele><time>2026-05-01T09:17:31.261Z</time></trkpt><trkpt lat="46.1610348" lon="9.7456109"><ele>272.0</ele><time>2026-05-01T09:17:32.258Z</time></trkpt><trkpt lat="46.1610007" lon="9.7457972"><ele>272.0</ele><time>2026-05-01T09:17:33.259Z</time></trkpt><trkpt lat="46.16096" lon="9.7460176"><ele>272.0</ele><time>2026-05-01T09:17:34.255Z</time></trkpt><trkpt lat="46.1609348" lon="9.746277"><ele>272.0</ele><time>2026-05-01T09:17:35.262Z</time></trkpt><trkpt lat="46.160901" lon="9.7465429"><ele>271.6666666666667</ele><time>2026-05-01T09:17:36.26Z</time></trkpt><trkpt lat="46.1608464" lon="9.7468103"><ele>271.3333333333333</ele><time>2026-05-01T09:17:37.254Z</time></trkpt><trkpt lat="46.1608125" lon="9.7471149"><ele>271.0</ele><time>2026-05-01T09:17:38.254Z</time></trkpt><trkpt lat="46.1607616" lon="9.747428"><ele>271.0</ele><time>2026-05-01T09:17:39.259Z</time></trkpt><trkpt lat="46.1607062" lon="9.7477372"><ele>271.0</ele><time>2026-05-01T09:17:40.246Z</time></trkpt><trkpt lat="46.1606552" lon="9.7480465"><ele>271.0</ele><time>2026-05-01T09:17:41.257Z</time></trkpt><trkpt lat="46.1606246" lon="9.7483786"><ele>270.0</ele><time>2026-05-01T09:17:42.258Z</time></trkpt><trkpt lat="46.1605873" lon="9.7487044"><ele>269.0</ele><time>2026-05-01T09:17:43.252Z</time></trkpt><trkpt lat="46.1605496" lon="9.7490397"><ele>269.0</ele><time>2026-05-01T09:17:44.262Z</time></trkpt><trkpt lat="46.1605138" lon="9.7493762"><ele>269.0</ele><time>2026-05-01T09:17:45.259Z</time></trkpt><trkpt lat="46.1604556" lon="9.749694"><ele>269.0</ele><time>2026-05-01T09:17:46.255Z</time></trkpt><trkpt lat="46.1604102" lon="9.750019"><ele>269.0</ele><time>2026-05-01T09:17:47.263Z</time></trkpt><trkpt lat="46.1603637" lon="9.7503347"><ele>269.0</ele><time>2026-05-01T09:17:48.259Z</time></trkpt><trkpt lat="46.160307" lon="9.7506373"><ele>269.0</ele><time>2026-05-01T09:17:49.259Z</time></trkpt><trkpt lat="46.1602552" lon="9.7509508"><ele>269.0</ele><time>2026-05-01T09:17:50.258Z</time></trkpt><trkpt lat="46.1602103" lon="9.7512818"><ele>269.0</ele><time>2026-05-01T09:17:51.258Z</time></trkpt><trkpt lat="46.1601616" lon="9.7515992"><ele>269.0</ele><time>2026-05-01T09:17:52.259Z</time></trkpt><trkpt lat="46.160132" lon="9.7519308"><ele>269.0</ele><time>2026-05-01T09:17:53.26Z</time></trkpt><trkpt lat="46.1600869" lon="9.7522648"><ele>269.0</ele><time>2026-05-01T09:17:54.261Z</time></trkpt><trkpt lat="46.1600287" lon="9.7525759"><ele>269.5</ele><time>2026-05-01T09:17:55.254Z</time></trkpt><trkpt lat="46.1599884" lon="9.7529007"><ele>270.0</ele><time>2026-05-01T09:17:56.257Z</time></trkpt><trkpt lat="46.1599553" lon="9.7532456"><ele>270.0</ele><time>2026-05-01T09:17:57.26Z</time></trkpt><trkpt lat="46.1599099" lon="9.7535824"><ele>270.0</ele><time>2026-05-01T09:17:58.255Z</time></trkpt><trkpt lat="46.1598814" lon="9.7539488"><ele>269.5</ele><time>2026-05-01T09:17:59.26Z</time></trkpt><trkpt lat="46.1598423" lon="9.7543335"><ele>269.0</ele><time>2026-05-01T09:18:00.254Z</time></trkpt><trkpt lat="46.1597947" lon="9.7547222"><ele>269.0</ele><time>2026-05-01T09:18:01.252Z</time></trkpt><trkpt lat="46.1597362" lon="9.7551179"><ele>269.0</ele><time>2026-05-01T09:18:02.253Z</time></trkpt><trkpt lat="46.1596749" lon="9.7555127"><ele>269.0</ele><time>2026-05-01T09:18:03.255Z</time></trkpt><trkpt lat="46.1596079" lon="9.7558942"><ele>269.0</ele><time>2026-05-01T09:18:04.255Z</time></trkpt><trkpt lat="46.1595353" lon="9.7562697"><ele>269.0</ele><time>2026-05-01T09:18:05.257Z</time></trkpt><trkpt lat="46.1594893" lon="9.7566388"><ele>269.0</ele><time>2026-05-01T09:18:06.252Z</time></trkpt><trkpt lat="46.159429" lon="9.7570065"><ele>270.0</ele><time>2026-05-01T09:18:07.251Z</time></trkpt><trkpt lat="46.1593847" lon="9.757385"><ele>271.0</ele><time>2026-05-01T09:18:08.258Z</time></trkpt><trkpt lat="46.1593388" lon="9.7577484"><ele>271.0</ele><time>2026-05-01T09:18:09.264Z</time></trkpt><trkpt lat="46.1592916" lon="9.7581184"><ele>271.0</ele><time>2026-05-01T09:18:10.257Z</time></trkpt><trkpt lat="46.1592369" lon="9.758467"><ele>271.0</ele><time>2026-05-01T09:18:11.265Z</time></trkpt><trkpt lat="46.1591922" lon="9.7588058"><ele>271.0</ele><time>2026-05-01T09:18:12.266Z</time></trkpt><trkpt lat="46.1591417" lon="9.7591351"><ele>271.0</ele><time>2026-05-01T09:18:13.26Z</time></trkpt><trkpt lat="46.1591056" lon="9.7594612"><ele>271.0</ele><time>2026-05-01T09:18:14.262Z</time></trkpt><trkpt lat="46.1590565" lon="9.7597655"><ele>271.0</ele><time>2026-05-01T09:18:15.259Z</time></trkpt><trkpt lat="46.1590194" lon="9.7600671"><ele>270.66666666666663</ele><time>2026-05-01T09:18:16.256Z</time></trkpt><trkpt lat="46.158963" lon="9.7603427"><ele>270.3333333333333</ele><time>2026-05-01T09:18:17.262Z</time></trkpt><trkpt lat="46.1589248" lon="9.7606094"><ele>270.0</ele><time>2026-05-01T09:18:18.255Z</time></trkpt><trkpt lat="46.1588809" lon="9.7608591"><ele>270.3333333333333</ele><time>2026-05-01T09:18:19.265Z</time></trkpt><trkpt lat="46.1588516" lon="9.7611094"><ele>270.66666666666663</ele><time>2026-05-01T09:18:20.277Z</time></trkpt><trkpt lat="46.1588175" lon="9.7613521"><ele>271.0</ele><time>2026-05-01T09:18:21.262Z</time></trkpt><trkpt lat="46.1587952" lon="9.7615957"><ele>271.0</ele><time>2026-05-01T09:18:22.26Z</time></trkpt><trkpt lat="46.1587755" lon="9.7618462"><ele>271.0</ele><time>2026-05-01T09:18:23.266Z</time></trkpt><trkpt lat="46.1587432" lon="9.7621197"><ele>271.0</ele><time>2026-05-01T09:18:24.262Z</time></trkpt><trkpt lat="46.1586994" lon="9.7623937"><ele>271.3333333333333</ele><time>2026-05-01T09:18:25.26Z</time></trkpt><trkpt lat="46.1586512" lon="9.7626771"><ele>271.6666666666667</ele><time>2026-05-01T09:18:26.267Z</time></trkpt><trkpt lat="46.1586025" lon="9.7629605"><ele>272.0</ele><time>2026-05-01T09:18:27.266Z</time></trkpt><trkpt lat="46.1585588" lon="9.7632531"><ele>272.33333333333337</ele><time>2026-05-01T09:18:28.269Z</time></trkpt><trkpt lat="46.1585337" lon="9.7635651"><ele>272.6666666666667</ele><time>2026-05-01T09:18:29.266Z</time></trkpt><trkpt lat="46.1584984" lon="9.7638621"><ele>273.0</ele><time>2026-05-01T09:18:30.266Z</time></trkpt><trkpt lat="46.1584482" lon="9.7641634"><ele>273.0</ele><time>2026-05-01T09:18:31.266Z</time></trkpt><trkpt lat="46.1584083" lon="9.7644852"><ele>273.0</ele><time>2026-05-01T09:18:32.262Z</time></trkpt><trkpt lat="46.1583582" lon="9.7648003"><ele>273.0</ele><time>2026-05-01T09:18:33.266Z</time></trkpt><trkpt lat="46.1583138" lon="9.765119"><ele>273.0</ele><time>2026-05-01T09:18:34.269Z</time></trkpt><trkpt lat="46.1582723" lon="9.7654431"><ele>273.5</ele><time>2026-05-01T09:18:35.271Z</time></trkpt><trkpt lat="46.1582363" lon="9.7657575"><ele>274.0</ele><time>2026-05-01T09:18:36.268Z</time></trkpt><trkpt lat="46.1582022" lon="9.7660982"><ele>272.5</ele><time>2026-05-01T09:18:37.267Z</time></trkpt><trkpt lat="46.158151" lon="9.7664311"><ele>271.0</ele><time>2026-05-01T09:18:38.266Z</time></trkpt><trkpt lat="46.1580982" lon="9.766745"><ele>271.5</ele><time>2026-05-01T09:18:39.268Z</time></trkpt><trkpt lat="46.1580467" lon="9.7670745"><ele>272.0</ele><time>2026-05-01T09:18:40.263Z</time></trkpt><trkpt lat="46.1580062" lon="9.7674291"><ele>273.0</ele><time>2026-05-01T09:18:41.264Z</time></trkpt><trkpt lat="46.1579534" lon="9.7677537"><ele>274.0</ele><time>2026-05-01T09:18:42.272Z</time></trkpt><trkpt lat="46.1579069" lon="9.7680876"><ele>274.0</ele><time>2026-05-01T09:18:43.259Z</time></trkpt><trkpt lat="46.1578582" lon="9.7684217"><ele>274.0</ele><time>2026-05-01T09:18:44.261Z</time></trkpt><trkpt lat="46.1578186" lon="9.7687338"><ele>274.3333333333333</ele><time>2026-05-01T09:18:45.263Z</time></trkpt><trkpt lat="46.1577751" lon="9.7690329"><ele>274.6666666666667</ele><time>2026-05-01T09:18:46.265Z</time></trkpt><trkpt lat="46.1577375" lon="9.7693369"><ele>275.0</ele><time>2026-05-01T09:18:47.266Z</time></trkpt><trkpt lat="46.1577006" lon="9.7696073"><ele>275.33333333333337</ele><time>2026-05-01T09:18:48.267Z</time></trkpt><trkpt lat="46.1576622" lon="9.7698745"><ele>275.6666666666667</ele><time>2026-05-01T09:18:49.266Z</time></trkpt><trkpt lat="46.1576385" lon="9.7701275"><ele>276.0</ele><time>2026-05-01T09:18:50.271Z</time></trkpt><trkpt lat="46.1576178" lon="9.7703698"><ele>276.3333333333333</ele><time>2026-05-01T09:18:51.264Z</time></trkpt><trkpt lat="46.1575885" lon="9.770616"><ele>276.66666666666663</ele><time>2026-05-01T09:18:52.269Z</time></trkpt><trkpt lat="46.1575846" lon="9.7708634"><ele>277.0</ele><time>2026-05-01T09:18:53.269Z</time></trkpt><trkpt lat="46.1575857" lon="9.7711145"><ele>277.0</ele><time>2026-05-01T09:18:54.268Z</time></trkpt><trkpt lat="46.157595" lon="9.7713676"><ele>277.0</ele><time>2026-05-01T09:18:55.261Z</time></trkpt><trkpt lat="46.1576078" lon="9.7716269"><ele>277.0</ele><time>2026-05-01T09:18:56.269Z</time></trkpt><trkpt lat="46.1576346" lon="9.7718837"><ele>277.0</ele><time>2026-05-01T09:18:57.268Z</time></trkpt><trkpt lat="46.1576474" lon="9.7721128"><ele>277.0</ele><time>2026-05-01T09:18:58.264Z</time></trkpt><trkpt lat="46.157687" lon="9.7723494"><ele>277.0</ele><time>2026-05-01T09:18:59.267Z</time></trkpt><trkpt lat="46.1577272" lon="9.7725827"><ele>276.66666666666663</ele><time>2026-05-01T09:19:00.27Z</time></trkpt><trkpt lat="46.1577802" lon="9.7728208"><ele>276.3333333333333</ele><time>2026-05-01T09:19:01.266Z</time></trkpt><trkpt lat="46.1578371" lon="9.7730485"><ele>276.0</ele><time>2026-05-01T09:19:02.265Z</time></trkpt><trkpt lat="46.1578757" lon="9.7732724"><ele>276.0</ele><time>2026-05-01T09:19:03.269Z</time></trkpt><trkpt lat="46.157922" lon="9.7734942"><ele>276.0</ele><time>2026-05-01T09:19:04.265Z</time></trkpt><trkpt lat="46.1579843" lon="9.7737467"><ele>276.0</ele><time>2026-05-01T09:19:05.273Z</time></trkpt><trkpt lat="46.1580428" lon="9.7740119"><ele>276.3333333333333</ele><time>2026-05-01T09:19:06.262Z</time></trkpt><trkpt lat="46.1580949" lon="9.7742879"><ele>276.66666666666663</ele><time>2026-05-01T09:19:07.263Z</time></trkpt><trkpt lat="46.1581611" lon="9.7745605"><ele>277.0</ele><time>2026-05-01T09:19:08.258Z</time></trkpt><trkpt lat="46.1582236" lon="9.7748334"><ele>277.66666666666663</ele><time>2026-05-01T09:19:09.259Z</time></trkpt><trkpt lat="46.1582711" lon="9.7750911"><ele>278.3333333333333</ele><time>2026-05-01T09:19:10.263Z</time></trkpt><trkpt lat="46.1583352" lon="9.7753621"><ele>279.0</ele><time>2026-05-01T09:19:11.261Z</time></trkpt><trkpt lat="46.1583871" lon="9.7756161"><ele>279.0</ele><time>2026-05-01T09:19:12.264Z</time></trkpt><trkpt lat="46.1584283" lon="9.7758668"><ele>279.0</ele><time>2026-05-01T09:19:13.261Z</time></trkpt><trkpt lat="46.1584875" lon="9.7761167"><ele>279.0</ele><time>2026-05-01T09:19:14.265Z</time></trkpt><trkpt lat="46.1585537" lon="9.7763706"><ele>278.6666666666667</ele><time>2026-05-01T09:19:15.264Z</time></trkpt><trkpt lat="46.1586047" lon="9.7766032"><ele>278.33333333333337</ele><time>2026-05-01T09:19:16.26Z</time></trkpt><trkpt lat="46.158659" lon="9.7768198"><ele>278.0</ele><time>2026-05-01T09:19:17.263Z</time></trkpt><trkpt lat="46.1587191" lon="9.7770498"><ele>277.0</ele><time>2026-05-01T09:19:18.261Z</time></trkpt><trkpt lat="46.1587734" lon="9.7773006"><ele>276.0</ele><time>2026-05-01T09:19:19.265Z</time></trkpt><trkpt lat="46.1588264" lon="9.7775575"><ele>275.0</ele><time>2026-05-01T09:19:20.262Z</time></trkpt><trkpt lat="46.1588854" lon="9.7778331"><ele>275.0</ele><time>2026-05-01T09:19:21.263Z</time></trkpt><trkpt lat="46.1589467" lon="9.7781293"><ele>275.0</ele><time>2026-05-01T09:19:22.258Z</time></trkpt><trkpt lat="46.1590037" lon="9.7784065"><ele>275.0</ele><time>2026-05-01T09:19:23.262Z</time></trkpt><trkpt lat="46.1590822" lon="9.7787091"><ele>277.0</ele><time>2026-05-01T09:19:24.26Z</time></trkpt><trkpt lat="46.1591458" lon="9.77902"><ele>279.0</ele><time>2026-05-01T09:19:25.258Z</time></trkpt><trkpt lat="46.1592129" lon="9.7793332"><ele>279.5</ele><time>2026-05-01T09:19:26.261Z</time></trkpt><trkpt lat="46.1592846" lon="9.7796482"><ele>280.0</ele><time>2026-05-01T09:19:27.26Z</time></trkpt><trkpt lat="46.1593468" lon="9.7799675"><ele>279.5</ele><time>2026-05-01T09:19:28.265Z</time></trkpt><trkpt lat="46.1594024" lon="9.7802879"><ele>279.0</ele><time>2026-05-01T09:19:29.263Z</time></trkpt><trkpt lat="46.1594734" lon="9.7806041"><ele>279.0</ele><time>2026-05-01T09:19:30.262Z</time></trkpt><trkpt lat="46.159534" lon="9.7809373"><ele>279.0</ele><time>2026-05-01T09:19:31.257Z</time></trkpt><trkpt lat="46.1596071" lon="9.7812766"><ele>278.0</ele><time>2026-05-01T09:19:32.262Z</time></trkpt><trkpt lat="46.1596819" lon="9.7815999"><ele>277.0</ele><time>2026-05-01T09:19:33.262Z</time></trkpt><trkpt lat="46.1597529" lon="9.7819057"><ele>276.5</ele><time>2026-05-01T09:19:34.261Z</time></trkpt><trkpt lat="46.1598344" lon="9.782209"><ele>276.0</ele><time>2026-05-01T09:19:35.274Z</time></trkpt><trkpt lat="46.1598983" lon="9.7825332"><ele>279.0</ele><time>2026-05-01T09:19:36.27Z</time></trkpt><trkpt lat="46.1599601" lon="9.7828529"><ele>282.0</ele><time>2026-05-01T09:19:37.269Z</time></trkpt><trkpt lat="46.1600319" lon="9.7831663"><ele>282.0</ele><time>2026-05-01T09:19:38.268Z</time></trkpt><trkpt lat="46.1601012" lon="9.7834743"><ele>282.0</ele><time>2026-05-01T09:19:39.266Z</time></trkpt><trkpt lat="46.1601635" lon="9.7837749"><ele>282.0</ele><time>2026-05-01T09:19:40.259Z</time></trkpt><trkpt lat="46.1602378" lon="9.7840819"><ele>280.0</ele><time>2026-05-01T09:19:41.27Z</time></trkpt><trkpt lat="46.1603058" lon="9.7843928"><ele>278.0</ele><time>2026-05-01T09:19:42.268Z</time></trkpt><trkpt lat="46.160376" lon="9.7847085"><ele>278.0</ele><time>2026-05-01T09:19:43.269Z</time></trkpt><trkpt lat="46.1604525" lon="9.7850327"><ele>278.0</ele><time>2026-05-01T09:19:44.266Z</time></trkpt><trkpt lat="46.1605216" lon="9.7853505"><ele>277.0</ele><time>2026-05-01T09:19:45.27Z</time></trkpt><trkpt lat="46.1605825" lon="9.7856701"><ele>276.0</ele><time>2026-05-01T09:19:46.266Z</time></trkpt><trkpt lat="46.1606536" lon="9.7859799"><ele>278.5</ele><time>2026-05-01T09:19:47.27Z</time></trkpt><trkpt lat="46.1607339" lon="9.786292"><ele>281.0</ele><time>2026-05-01T09:19:48.262Z</time></trkpt><trkpt lat="46.1608006" lon="9.7866022"><ele>279.6666666666667</ele><time>2026-05-01T09:19:49.267Z</time></trkpt><trkpt lat="46.1608667" lon="9.7868933"><ele>278.3333333333333</ele><time>2026-05-01T09:19:50.269Z</time></trkpt><trkpt lat="46.1609257" lon="9.7871647"><ele>277.0</ele><time>2026-05-01T09:19:51.263Z</time></trkpt><trkpt lat="46.1609856" lon="9.7874222"><ele>276.0</ele><time>2026-05-01T09:19:52.264Z</time></trkpt><trkpt lat="46.1610394" lon="9.7876818"><ele>275.0</ele><time>2026-05-01T09:19:53.272Z</time></trkpt><trkpt lat="46.1610667" lon="9.7879267"><ele>274.0</ele><time>2026-05-01T09:19:54.27Z</time></trkpt><trkpt lat="46.1611142" lon="9.7881548"><ele>274.0</ele><time>2026-05-01T09:19:55.264Z</time></trkpt><trkpt lat="46.1611741" lon="9.7883827"><ele>274.0</ele><time>2026-05-01T09:19:56.274Z</time></trkpt><trkpt lat="46.161232" lon="9.7885877"><ele>274.0</ele><time>2026-05-01T09:19:57.263Z</time></trkpt><trkpt lat="46.1612731" lon="9.7887796"><ele>274.0</ele><time>2026-05-01T09:19:58.258Z</time></trkpt><trkpt lat="46.1613059" lon="9.7889597"><ele>274.0</ele><time>2026-05-01T09:19:59.263Z</time></trkpt><trkpt lat="46.1613588" lon="9.7891354"><ele>274.0</ele><time>2026-05-01T09:20:00.269Z</time></trkpt><trkpt lat="46.1613934" lon="9.7893"><ele>274.0</ele><time>2026-05-01T09:20:01.262Z</time></trkpt><trkpt lat="46.1614284" lon="9.7894822"><ele>274.0</ele><time>2026-05-01T09:20:02.274Z</time></trkpt><trkpt lat="46.1614749" lon="9.7896654"><ele>274.0</ele><time>2026-05-01T09:20:03.272Z</time></trkpt><trkpt lat="46.1615087" lon="9.7898472"><ele>274.0</ele><time>2026-05-01T09:20:04.267Z</time></trkpt><trkpt lat="46.1615463" lon="9.790021"><ele>274.0</ele><time>2026-05-01T09:20:05.262Z</time></trkpt><trkpt lat="46.1615815" lon="9.7902032"><ele>274.25</ele><time>2026-05-01T09:20:06.268Z</time></trkpt><trkpt lat="46.1616116" lon="9.790397"><ele>274.5</ele><time>2026-05-01T09:20:07.259Z</time></trkpt><trkpt lat="46.1616282" lon="9.7906126"><ele>274.75</ele><time>2026-05-01T09:20:08.266Z</time></trkpt><trkpt lat="46.1616374" lon="9.7908246"><ele>275.0</ele><time>2026-05-01T09:20:09.266Z</time></trkpt><trkpt lat="46.1616436" lon="9.7910388"><ele>275.0</ele><time>2026-05-01T09:20:10.255Z</time></trkpt><trkpt lat="46.1616597" lon="9.7912568"><ele>275.0</ele><time>2026-05-01T09:20:11.266Z</time></trkpt><trkpt lat="46.1616743" lon="9.7914588"><ele>275.0</ele><time>2026-05-01T09:20:12.269Z</time></trkpt><trkpt lat="46.1616726" lon="9.7916526"><ele>275.0</ele><time>2026-05-01T09:20:13.255Z</time></trkpt><trkpt lat="46.1616583" lon="9.7918466"><ele>275.25</ele><time>2026-05-01T09:20:14.264Z</time></trkpt><trkpt lat="46.1616694" lon="9.7920372"><ele>275.5</ele><time>2026-05-01T09:20:15.261Z</time></trkpt><trkpt lat="46.1616656" lon="9.7922329"><ele>275.75</ele><time>2026-05-01T09:20:16.263Z</time></trkpt><trkpt lat="46.1616738" lon="9.7924179"><ele>276.0</ele><time>2026-05-01T09:20:17.262Z</time></trkpt><trkpt lat="46.1616741" lon="9.7926162"><ele>275.3333333333333</ele><time>2026-05-01T09:20:18.271Z</time></trkpt><trkpt lat="46.1616867" lon="9.7928374"><ele>274.66666666666663</ele><time>2026-05-01T09:20:19.263Z</time></trkpt><trkpt lat="46.1616993" lon="9.7930649"><ele>274.0</ele><time>2026-05-01T09:20:20.263Z</time></trkpt><trkpt lat="46.1616983" lon="9.7933129"><ele>274.0</ele><time>2026-05-01T09:20:21.257Z</time></trkpt><trkpt lat="46.1616954" lon="9.7935804"><ele>274.0</ele><time>2026-05-01T09:20:22.265Z</time></trkpt><trkpt lat="46.1617056" lon="9.7938685"><ele>274.0</ele><time>2026-05-01T09:20:23.273Z</time></trkpt><trkpt lat="46.1617081" lon="9.7941439"><ele>274.3333333333333</ele><time>2026-05-01T09:20:24.267Z</time></trkpt><trkpt lat="46.1617137" lon="9.7944263"><ele>274.6666666666667</ele><time>2026-05-01T09:20:25.267Z</time></trkpt><trkpt lat="46.1617191" lon="9.79469"><ele>275.0</ele><time>2026-05-01T09:20:26.259Z</time></trkpt><trkpt lat="46.1617205" lon="9.7949397"><ele>274.6666666666667</ele><time>2026-05-01T09:20:27.261Z</time></trkpt><trkpt lat="46.1617111" lon="9.7951781"><ele>274.3333333333333</ele><time>2026-05-01T09:20:28.26Z</time></trkpt><trkpt lat="46.1617025" lon="9.7954158"><ele>274.0</ele><time>2026-05-01T09:20:29.26Z</time></trkpt><trkpt lat="46.1617008" lon="9.7956676"><ele>274.0</ele><time>2026-05-01T09:20:30.268Z</time></trkpt><trkpt lat="46.1616847" lon="9.7959217"><ele>274.0</ele><time>2026-05-01T09:20:31.263Z</time></trkpt><trkpt lat="46.161683" lon="9.7961788"><ele>274.0</ele><time>2026-05-01T09:20:32.263Z</time></trkpt><trkpt lat="46.1616943" lon="9.7964498"><ele>274.66666666666663</ele><time>2026-05-01T09:20:33.265Z</time></trkpt><trkpt lat="46.1616898" lon="9.796734"><ele>275.3333333333333</ele><time>2026-05-01T09:20:34.262Z</time></trkpt><trkpt lat="46.1617002" lon="9.7970047"><ele>276.0</ele><time>2026-05-01T09:20:35.266Z</time></trkpt><trkpt lat="46.1616894" lon="9.7972679"><ele>276.0</ele><time>2026-05-01T09:20:36.264Z</time></trkpt><trkpt lat="46.1616787" lon="9.7975397"><ele>276.0</ele><time>2026-05-01T09:20:37.26Z</time></trkpt><trkpt lat="46.1616834" lon="9.7978318"><ele>276.0</ele><time>2026-05-01T09:20:38.257Z</time></trkpt><trkpt lat="46.161698" lon="9.7981357"><ele>276.0</ele><time>2026-05-01T09:20:39.26Z</time></trkpt><trkpt lat="46.1616968" lon="9.7984489"><ele>276.0</ele><time>2026-05-01T09:20:40.258Z</time></trkpt><trkpt lat="46.1616941" lon="9.7987842"><ele>276.0</ele><time>2026-05-01T09:20:41.253Z</time></trkpt><trkpt lat="46.1617006" lon="9.7991297"><ele>275.5</ele><time>2026-05-01T09:20:42.259Z</time></trkpt><trkpt lat="46.1617116" lon="9.799484"><ele>275.0</ele><time>2026-05-01T09:20:43.268Z</time></trkpt><trkpt lat="46.1617092" lon="9.7997931"><ele>275.0</ele><time>2026-05-01T09:20:44.257Z</time></trkpt><trkpt lat="46.1617158" lon="9.8000965"><ele>275.0</ele><time>2026-05-01T09:20:45.263Z</time></trkpt><trkpt lat="46.161711" lon="9.8003759"><ele>275.0</ele><time>2026-05-01T09:20:46.252Z</time></trkpt><trkpt lat="46.1617133" lon="9.8006142"><ele>274.6666666666667</ele><time>2026-05-01T09:20:47.252Z</time></trkpt><trkpt lat="46.1617247" lon="9.8008599"><ele>274.3333333333333</ele><time>2026-05-01T09:20:48.254Z</time></trkpt><trkpt lat="46.1617186" lon="9.8010777"><ele>274.0</ele><time>2026-05-01T09:20:49.279Z</time></trkpt><trkpt lat="46.1617134" lon="9.8012821"><ele>273.75</ele><time>2026-05-01T09:20:50.252Z</time></trkpt><trkpt lat="46.1617238" lon="9.8015001"><ele>273.5</ele><time>2026-05-01T09:20:51.284Z</time></trkpt><trkpt lat="46.1617251" lon="9.8017097"><ele>273.25</ele><time>2026-05-01T09:20:52.269Z</time></trkpt><trkpt lat="46.1617389" lon="9.8019097"><ele>273.0</ele><time>2026-05-01T09:20:53.261Z</time></trkpt><trkpt lat="46.1617358" lon="9.8021013"><ele>273.5</ele><time>2026-05-01T09:20:54.254Z</time></trkpt><trkpt lat="46.1617221" lon="9.8022878"><ele>274.0</ele><time>2026-05-01T09:20:55.252Z</time></trkpt><trkpt lat="46.1617215" lon="9.8024859"><ele>274.5</ele><time>2026-05-01T09:20:56.258Z</time></trkpt><trkpt lat="46.1617211" lon="9.8026976"><ele>275.0</ele><time>2026-05-01T09:20:57.262Z</time></trkpt><trkpt lat="46.1617207" lon="9.8028899"><ele>275.0</ele><time>2026-05-01T09:20:58.262Z</time></trkpt><trkpt lat="46.1617197" lon="9.80307"><ele>275.0</ele><time>2026-05-01T09:20:59.26Z</time></trkpt><trkpt lat="46.161717" lon="9.803235"><ele>275.0</ele><time>2026-05-01T09:21:00.256Z</time></trkpt><trkpt lat="46.1617142" lon="9.8033816"><ele>275.0</ele><time>2026-05-01T09:21:01.261Z</time></trkpt><trkpt lat="46.1617122" lon="9.8035198"><ele>275.0</ele><time>2026-05-01T09:21:02.254Z</time></trkpt><trkpt lat="46.1617146" lon="9.8036431"><ele>275.0</ele><time>2026-05-01T09:21:03.259Z</time></trkpt><trkpt lat="46.1617174" lon="9.8037519"><ele>275.0</ele><time>2026-05-01T09:21:04.249Z</time></trkpt><trkpt lat="46.1617206" lon="9.8038513"><ele>275.0</ele><time>2026-05-01T09:21:05.258Z</time></trkpt><trkpt lat="46.1617237" lon="9.8039448"><ele>275.0</ele><time>2026-05-01T09:21:06.258Z</time></trkpt><trkpt lat="46.1617196" lon="9.8040909"><ele>275.0</ele><time>2026-05-01T09:21:08.259Z</time></trkpt><trkpt lat="46.1617257" lon="9.8042709"><ele>275.0</ele><time>2026-05-01T09:21:10.264Z</time></trkpt><trkpt lat="46.1617285" lon="9.8043692"><ele>275.0</ele><time>2026-05-01T09:21:11.258Z</time></trkpt><trkpt lat="46.1617384" lon="9.8044638"><ele>275.0</ele><time>2026-05-01T09:21:12.255Z</time></trkpt><trkpt lat="46.1617588" lon="9.8046242"><ele>275.0</ele><time>2026-05-01T09:21:14.265Z</time></trkpt><trkpt lat="46.161784" lon="9.8047507"><ele>275.0</ele><time>2026-05-01T09:21:16.256Z</time></trkpt><trkpt lat="46.1618029" lon="9.8048906"><ele>275.0</ele><time>2026-05-01T09:21:21.261Z</time></trkpt><trkpt lat="46.1618252" lon="9.8050364"><ele>275.0</ele><time>2026-05-01T09:21:23.268Z</time></trkpt><trkpt lat="46.1618065" lon="9.8051866"><ele>275.0</ele><time>2026-05-01T09:21:25.251Z</time></trkpt><trkpt lat="46.1617956" lon="9.8052765"><ele>275.0</ele><time>2026-05-01T09:21:26.262Z</time></trkpt><trkpt lat="46.1617884" lon="9.805398"><ele>275.0</ele><time>2026-05-01T09:21:27.26Z</time></trkpt><trkpt lat="46.1617771" lon="9.8055401"><ele>275.0</ele><time>2026-05-01T09:21:28.265Z</time></trkpt><trkpt lat="46.1617557" lon="9.805683"><ele>275.0</ele><time>2026-05-01T09:21:29.261Z</time></trkpt><trkpt lat="46.1617355" lon="9.8058359"><ele>275.0</ele><time>2026-05-01T09:21:30.261Z</time></trkpt><trkpt lat="46.1617191" lon="9.8059973"><ele>275.0</ele><time>2026-05-01T09:21:31.256Z</time></trkpt><trkpt lat="46.1617109" lon="9.8061736"><ele>275.0</ele><time>2026-05-01T09:21:32.26Z</time></trkpt><trkpt lat="46.1617078" lon="9.8063572"><ele>275.33333333333337</ele><time>2026-05-01T09:21:33.261Z</time></trkpt><trkpt lat="46.1617088" lon="9.806557"><ele>275.6666666666667</ele><time>2026-05-01T09:21:34.258Z</time></trkpt><trkpt lat="46.1617096" lon="9.8067733"><ele>276.0</ele><time>2026-05-01T09:21:35.26Z</time></trkpt><trkpt lat="46.1617082" lon="9.8070194"><ele>276.3333333333333</ele><time>2026-05-01T09:21:36.255Z</time></trkpt><trkpt lat="46.1617121" lon="9.8072453"><ele>276.66666666666663</ele><time>2026-05-01T09:21:37.256Z</time></trkpt><trkpt lat="46.1617128" lon="9.8074597"><ele>277.0</ele><time>2026-05-01T09:21:38.252Z</time></trkpt><trkpt lat="46.1617271" lon="9.8076846"><ele>277.0</ele><time>2026-05-01T09:21:39.281Z</time></trkpt><trkpt lat="46.1617322" lon="9.8079209"><ele>277.0</ele><time>2026-05-01T09:21:40.28Z</time></trkpt><trkpt lat="46.1617188" lon="9.8081774"><ele>277.0</ele><time>2026-05-01T09:21:41.257Z</time></trkpt><trkpt lat="46.1617218" lon="9.8084404"><ele>277.0</ele><time>2026-05-01T09:21:42.262Z</time></trkpt><trkpt lat="46.1617175" lon="9.8087038"><ele>277.0</ele><time>2026-05-01T09:21:43.259Z</time></trkpt><trkpt lat="46.1617183" lon="9.8089817"><ele>277.0</ele><time>2026-05-01T09:21:44.263Z</time></trkpt><trkpt lat="46.161719" lon="9.8092474"><ele>276.66666666666663</ele><time>2026-05-01T09:21:45.263Z</time></trkpt><trkpt lat="46.1617172" lon="9.8095342"><ele>276.3333333333333</ele><time>2026-05-01T09:21:46.258Z</time></trkpt><trkpt lat="46.161725" lon="9.8098077"><ele>276.0</ele><time>2026-05-01T09:21:47.269Z</time></trkpt><trkpt lat="46.1617276" lon="9.8100605"><ele>276.0</ele><time>2026-05-01T09:21:48.261Z</time></trkpt><trkpt lat="46.1617335" lon="9.8103346"><ele>276.0</ele><time>2026-05-01T09:21:49.257Z</time></trkpt><trkpt lat="46.1617299" lon="9.8106224"><ele>276.0</ele><time>2026-05-01T09:21:50.259Z</time></trkpt><trkpt lat="46.1617473" lon="9.8108845"><ele>276.0</ele><time>2026-05-01T09:21:51.276Z</time></trkpt><trkpt lat="46.161749" lon="9.8111664"><ele>276.0</ele><time>2026-05-01T09:21:52.253Z</time></trkpt><trkpt lat="46.1617512" lon="9.8114547"><ele>276.0</ele><time>2026-05-01T09:21:53.264Z</time></trkpt><trkpt lat="46.161749" lon="9.8117302"><ele>275.6666666666667</ele><time>2026-05-01T09:21:54.258Z</time></trkpt><trkpt lat="46.1617506" lon="9.8119986"><ele>275.33333333333337</ele><time>2026-05-01T09:21:55.27Z</time></trkpt><trkpt lat="46.1617467" lon="9.8122753"><ele>275.0</ele><time>2026-05-01T09:21:56.25Z</time></trkpt><trkpt lat="46.1617575" lon="9.8125492"><ele>275.0</ele><time>2026-05-01T09:21:57.251Z</time></trkpt><trkpt lat="46.1617616" lon="9.8128414"><ele>275.0</ele><time>2026-05-01T09:21:58.242Z</time></trkpt><trkpt lat="46.1617656" lon="9.8131345"><ele>275.0</ele><time>2026-05-01T09:21:59.257Z</time></trkpt><trkpt lat="46.161755" lon="9.8134339"><ele>275.33333333333337</ele><time>2026-05-01T09:22:00.245Z</time></trkpt><trkpt lat="46.1617551" lon="9.8137348"><ele>275.6666666666667</ele><time>2026-05-01T09:22:01.242Z</time></trkpt><trkpt lat="46.1617711" lon="9.8140379"><ele>276.0</ele><time>2026-05-01T09:22:02.248Z</time></trkpt><trkpt lat="46.1617845" lon="9.8143273"><ele>276.0</ele><time>2026-05-01T09:22:03.241Z</time></trkpt><trkpt lat="46.1617942" lon="9.8146221"><ele>276.0</ele><time>2026-05-01T09:22:04.246Z</time></trkpt><trkpt lat="46.1617896" lon="9.8149113"><ele>276.0</ele><time>2026-05-01T09:22:05.249Z</time></trkpt><trkpt lat="46.1617718" lon="9.8151776"><ele>276.3333333333333</ele><time>2026-05-01T09:22:06.248Z</time></trkpt><trkpt lat="46.161774" lon="9.8154269"><ele>276.66666666666663</ele><time>2026-05-01T09:22:07.242Z</time></trkpt><trkpt lat="46.1617761" lon="9.8156882"><ele>277.0</ele><time>2026-05-01T09:22:08.263Z</time></trkpt><trkpt lat="46.1617948" lon="9.815947"><ele>277.66666666666663</ele><time>2026-05-01T09:22:09.246Z</time></trkpt><trkpt lat="46.1617914" lon="9.8161853"><ele>278.3333333333333</ele><time>2026-05-01T09:22:10.267Z</time></trkpt><trkpt lat="46.1618064" lon="9.8164426"><ele>279.0</ele><time>2026-05-01T09:22:11.276Z</time></trkpt><trkpt lat="46.1617922" lon="9.8166979"><ele>278.3333333333333</ele><time>2026-05-01T09:22:12.246Z</time></trkpt><trkpt lat="46.1617836" lon="9.8169739"><ele>277.66666666666663</ele><time>2026-05-01T09:22:13.243Z</time></trkpt><trkpt lat="46.1617741" lon="9.8172672"><ele>277.0</ele><time>2026-05-01T09:22:14.268Z</time></trkpt><trkpt lat="46.1617774" lon="9.8175683"><ele>277.3333333333333</ele><time>2026-05-01T09:22:15.245Z</time></trkpt><trkpt lat="46.1617826" lon="9.8178633"><ele>277.6666666666667</ele><time>2026-05-01T09:22:16.245Z</time></trkpt><trkpt lat="46.1617891" lon="9.8181001"><ele>278.0</ele><time>2026-05-01T09:22:17.245Z</time></trkpt><trkpt lat="46.1617799" lon="9.8182946"><ele>278.25</ele><time>2026-05-01T09:22:18.241Z</time></trkpt><trkpt lat="46.1617689" lon="9.8185052"><ele>278.5</ele><time>2026-05-01T09:22:19.256Z</time></trkpt><trkpt lat="46.1617702" lon="9.818732"><ele>278.75</ele><time>2026-05-01T09:22:20.252Z</time></trkpt><trkpt lat="46.161764" lon="9.8189145"><ele>279.0</ele><time>2026-05-01T09:22:21.248Z</time></trkpt><trkpt lat="46.16177" lon="9.8190781"><ele>279.0</ele><time>2026-05-01T09:22:22.244Z</time></trkpt><trkpt lat="46.1617737" lon="9.8192372"><ele>279.0</ele><time>2026-05-01T09:22:23.256Z</time></trkpt><trkpt lat="46.1617752" lon="9.8193827"><ele>279.0</ele><time>2026-05-01T09:22:24.257Z</time></trkpt><trkpt lat="46.1617651" lon="9.8195203"><ele>279.0</ele><time>2026-05-01T09:22:25.249Z</time></trkpt><trkpt lat="46.161771" lon="9.8196718"><ele>279.0</ele><time>2026-05-01T09:22:26.256Z</time></trkpt><trkpt lat="46.1617773" lon="9.8197967"><ele>279.0</ele><time>2026-05-01T09:22:27.249Z</time></trkpt><trkpt lat="46.1617772" lon="9.8199142"><ele>279.0</ele><time>2026-05-01T09:22:28.244Z</time></trkpt><trkpt lat="46.1617756" lon="9.820018"><ele>279.0</ele><time>2026-05-01T09:22:29.251Z</time></trkpt><trkpt lat="46.1617809" lon="9.8201166"><ele>279.0</ele><time>2026-05-01T09:22:30.255Z</time></trkpt><trkpt lat="46.1617822" lon="9.8202238"><ele>279.0</ele><time>2026-05-01T09:22:31.269Z</time></trkpt><trkpt lat="46.1617851" lon="9.8203473"><ele>279.0</ele><time>2026-05-01T09:22:32.268Z</time></trkpt><trkpt lat="46.1617833" lon="9.8204892"><ele>279.0</ele><time>2026-05-01T09:22:33.246Z</time></trkpt><trkpt lat="46.1617783" lon="9.820645"><ele>279.0</ele><time>2026-05-01T09:22:34.268Z</time></trkpt><trkpt lat="46.1617758" lon="9.8208051"><ele>279.0</ele><time>2026-05-01T09:22:35.272Z</time></trkpt><trkpt lat="46.1617793" lon="9.8209718"><ele>279.0</ele><time>2026-05-01T09:22:36.249Z</time></trkpt><trkpt lat="46.1617799" lon="9.821154"><ele>279.0</ele><time>2026-05-01T09:22:37.249Z</time></trkpt><trkpt lat="46.161778" lon="9.8213436"><ele>279.0</ele><time>2026-05-01T09:22:38.243Z</time></trkpt><trkpt lat="46.1617738" lon="9.8215185"><ele>279.0</ele><time>2026-05-01T09:22:39.245Z</time></trkpt><trkpt lat="46.1617736" lon="9.8216804"><ele>279.0</ele><time>2026-05-01T09:22:40.245Z</time></trkpt><trkpt lat="46.161777" lon="9.8218363"><ele>279.0</ele><time>2026-05-01T09:22:41.252Z</time></trkpt><trkpt lat="46.1617827" lon="9.8219998"><ele>279.0</ele><time>2026-05-01T09:22:42.243Z</time></trkpt><trkpt lat="46.1617869" lon="9.8221865"><ele>279.0</ele><time>2026-05-01T09:22:43.255Z</time></trkpt><trkpt lat="46.1617892" lon="9.8223758"><ele>279.0</ele><time>2026-05-01T09:22:44.255Z</time></trkpt><trkpt lat="46.1617909" lon="9.822556"><ele>278.8</ele><time>2026-05-01T09:22:45.247Z</time></trkpt><trkpt lat="46.1617933" lon="9.8227176"><ele>278.59999999999997</ele><time>2026-05-01T09:22:46.249Z</time></trkpt><trkpt lat="46.161798" lon="9.8228691"><ele>278.4</ele><time>2026-05-01T09:22:47.252Z</time></trkpt><trkpt lat="46.1618033" lon="9.8230089"><ele>278.2</ele><time>2026-05-01T09:22:48.249Z</time></trkpt><trkpt lat="46.1618049" lon="9.8231356"><ele>278.0</ele><time>2026-05-01T09:22:49.243Z</time></trkpt><trkpt lat="46.1618055" lon="9.823256"><ele>278.0</ele><time>2026-05-01T09:22:50.262Z</time></trkpt><trkpt lat="46.1618081" lon="9.8233655"><ele>278.0</ele><time>2026-05-01T09:22:51.247Z</time></trkpt><trkpt lat="46.1618113" lon="9.8234744"><ele>278.0</ele><time>2026-05-01T09:22:52.229Z</time></trkpt><trkpt lat="46.1618158" lon="9.8236025"><ele>278.0</ele><time>2026-05-01T09:22:53.25Z</time></trkpt><trkpt lat="46.1618131" lon="9.8237349"><ele>278.0</ele><time>2026-05-01T09:22:54.238Z</time></trkpt><trkpt lat="46.1618077" lon="9.8238512"><ele>278.0</ele><time>2026-05-01T09:22:55.258Z</time></trkpt><trkpt lat="46.1618035" lon="9.8239453"><ele>278.0</ele><time>2026-05-01T09:22:56.238Z</time></trkpt><trkpt lat="46.1617986" lon="9.8241207"><ele>278.0</ele><time>2026-05-01T09:22:58.232Z</time></trkpt><trkpt lat="46.1617993" lon="9.8242241"><ele>278.0</ele><time>2026-05-01T09:22:59.249Z</time></trkpt><trkpt lat="46.1618021" lon="9.8243274"><ele>278.0</ele><time>2026-05-01T09:23:00.237Z</time></trkpt><trkpt lat="46.1617987" lon="9.824448"><ele>278.0</ele><time>2026-05-01T09:23:01.235Z</time></trkpt><trkpt lat="46.1617962" lon="9.8245766"><ele>278.0</ele><time>2026-05-01T09:23:02.236Z</time></trkpt><trkpt lat="46.1617956" lon="9.8247114"><ele>278.4</ele><time>2026-05-01T09:23:03.237Z</time></trkpt><trkpt lat="46.1617966" lon="9.8248522"><ele>278.8</ele><time>2026-05-01T09:23:04.238Z</time></trkpt><trkpt lat="46.1617994" lon="9.8249964"><ele>279.2</ele><time>2026-05-01T09:23:05.235Z</time></trkpt><trkpt lat="46.161802" lon="9.8251448"><ele>279.6</ele><time>2026-05-01T09:23:06.251Z</time></trkpt><trkpt lat="46.1618" lon="9.8252913"><ele>280.0</ele><time>2026-05-01T09:23:07.246Z</time></trkpt><trkpt lat="46.1617966" lon="9.8254405"><ele>280.0</ele><time>2026-05-01T09:23:08.249Z</time></trkpt><trkpt lat="46.1617935" lon="9.825586"><ele>280.0</ele><time>2026-05-01T09:23:09.248Z</time></trkpt><trkpt lat="46.1617941" lon="9.8257157"><ele>280.0</ele><time>2026-05-01T09:23:10.242Z</time></trkpt><trkpt lat="46.1617969" lon="9.8258375"><ele>280.0</ele><time>2026-05-01T09:23:11.246Z</time></trkpt><trkpt lat="46.1617974" lon="9.8259647"><ele>280.0</ele><time>2026-05-01T09:23:12.249Z</time></trkpt><trkpt lat="46.1617999" lon="9.8260945"><ele>279.8</ele><time>2026-05-01T09:23:13.245Z</time></trkpt><trkpt lat="46.1617998" lon="9.8262301"><ele>279.6</ele><time>2026-05-01T09:23:14.258Z</time></trkpt><trkpt lat="46.1617989" lon="9.826368"><ele>279.4</ele><time>2026-05-01T09:23:15.249Z</time></trkpt><trkpt lat="46.1617978" lon="9.8265078"><ele>279.2</ele><time>2026-05-01T09:23:16.243Z</time></trkpt><trkpt lat="46.1617958" lon="9.8266547"><ele>279.0</ele><time>2026-05-01T09:23:17.254Z</time></trkpt><trkpt lat="46.1617975" lon="9.8268035"><ele>279.0</ele><time>2026-05-01T09:23:18.246Z</time></trkpt><trkpt lat="46.1617987" lon="9.8269573"><ele>279.0</ele><time>2026-05-01T09:23:19.253Z</time></trkpt><trkpt lat="46.1617952" lon="9.827101"><ele>279.0</ele><time>2026-05-01T09:23:20.243Z</time></trkpt><trkpt lat="46.1617992" lon="9.8272253"><ele>279.0</ele><time>2026-05-01T09:23:21.249Z</time></trkpt><trkpt lat="46.1618044" lon="9.8273385"><ele>279.0</ele><time>2026-05-01T09:23:22.246Z</time></trkpt><trkpt lat="46.1618087" lon="9.8274475"><ele>279.0</ele><time>2026-05-01T09:23:23.251Z</time></trkpt><trkpt lat="46.1618114" lon="9.82756"><ele>279.1666666666667</ele><time>2026-05-01T09:23:24.245Z</time></trkpt><trkpt lat="46.1618109" lon="9.8276713"><ele>279.3333333333333</ele><time>2026-05-01T09:23:25.246Z</time></trkpt><trkpt lat="46.1618115" lon="9.8277822"><ele>279.5</ele><time>2026-05-01T09:23:26.249Z</time></trkpt><trkpt lat="46.1618136" lon="9.8279005"><ele>279.66666666666663</ele><time>2026-05-01T09:23:27.245Z</time></trkpt><trkpt lat="46.1618156" lon="9.8280059"><ele>279.8333333333333</ele><time>2026-05-01T09:23:28.247Z</time></trkpt><trkpt lat="46.1618133" lon="9.8281601"><ele>280.0</ele><time>2026-05-01T09:23:30.25Z</time></trkpt><trkpt lat="46.1618105" lon="9.8283203"><ele>280.0</ele><time>2026-05-01T09:23:32.241Z</time></trkpt><trkpt lat="46.1618028" lon="9.8284279"><ele>280.0</ele><time>2026-05-01T09:23:33.243Z</time></trkpt><trkpt lat="46.161795" lon="9.8285395"><ele>280.0</ele><time>2026-05-01T09:23:34.243Z</time></trkpt><trkpt lat="46.1617958" lon="9.8286324"><ele>280.0</ele><time>2026-05-01T09:23:35.243Z</time></trkpt><trkpt lat="46.1618024" lon="9.8288323"><ele>280.0</ele><time>2026-05-01T09:23:37.237Z</time></trkpt><trkpt lat="46.1618043" lon="9.8289493"><ele>280.0</ele><time>2026-05-01T09:23:38.247Z</time></trkpt><trkpt lat="46.1618118" lon="9.8290682"><ele>280.0</ele><time>2026-05-01T09:23:39.243Z</time></trkpt><trkpt lat="46.1618331" lon="9.8291934"><ele>280.0</ele><time>2026-05-01T09:23:40.246Z</time></trkpt><trkpt lat="46.1618569" lon="9.8293156"><ele>280.0</ele><time>2026-05-01T09:23:41.245Z</time></trkpt><trkpt lat="46.1618795" lon="9.8294186"><ele>280.0</ele><time>2026-05-01T09:23:42.248Z</time></trkpt><trkpt lat="46.1618955" lon="9.8295663"><ele>280.0</ele><time>2026-05-01T09:23:44.245Z</time></trkpt><trkpt lat="46.1618606" lon="9.8297196"><ele>280.16666666666663</ele><time>2026-05-01T09:23:46.24Z</time></trkpt><trkpt lat="46.1618386" lon="9.8298106"><ele>280.3333333333333</ele><time>2026-05-01T09:23:47.249Z</time></trkpt><trkpt lat="46.1618514" lon="9.8299186"><ele>280.5</ele><time>2026-05-01T09:23:48.254Z</time></trkpt><trkpt lat="46.1618757" lon="9.8300359"><ele>280.6666666666667</ele><time>2026-05-01T09:23:49.244Z</time></trkpt><trkpt lat="46.1618916" lon="9.8301674"><ele>280.83333333333337</ele><time>2026-05-01T09:23:50.253Z</time></trkpt><trkpt lat="46.1618878" lon="9.8303126"><ele>281.0</ele><time>2026-05-01T09:23:51.248Z</time></trkpt><trkpt lat="46.1618648" lon="9.8304568"><ele>280.6</ele><time>2026-05-01T09:23:52.244Z</time></trkpt><trkpt lat="46.1618413" lon="9.8306007"><ele>280.20000000000005</ele><time>2026-05-01T09:23:53.254Z</time></trkpt><trkpt lat="46.1618239" lon="9.8307486"><ele>279.79999999999995</ele><time>2026-05-01T09:23:54.25Z</time></trkpt><trkpt lat="46.1618102" lon="9.830906"><ele>279.4</ele><time>2026-05-01T09:23:55.251Z</time></trkpt><trkpt lat="46.1618065" lon="9.8310732"><ele>279.0</ele><time>2026-05-01T09:23:56.254Z</time></trkpt><trkpt lat="46.1618086" lon="9.8312531"><ele>278.75</ele><time>2026-05-01T09:23:57.248Z</time></trkpt><trkpt lat="46.161808" lon="9.8314402"><ele>278.5</ele><time>2026-05-01T09:23:58.251Z</time></trkpt><trkpt lat="46.1618081" lon="9.8316388"><ele>278.25</ele><time>2026-05-01T09:23:59.252Z</time></trkpt><trkpt lat="46.161808" lon="9.8318445"><ele>278.0</ele><time>2026-05-01T09:24:00.246Z</time></trkpt><trkpt lat="46.1618192" lon="9.8320557"><ele>278.0</ele><time>2026-05-01T09:24:01.253Z</time></trkpt><trkpt lat="46.1618145" lon="9.8322563"><ele>278.0</ele><time>2026-05-01T09:24:02.249Z</time></trkpt><trkpt lat="46.1618221" lon="9.8324645"><ele>278.0</ele><time>2026-05-01T09:24:03.253Z</time></trkpt><trkpt lat="46.1618313" lon="9.8326866"><ele>278.0</ele><time>2026-05-01T09:24:04.25Z</time></trkpt><trkpt lat="46.1618329" lon="9.8329011"><ele>278.25</ele><time>2026-05-01T09:24:05.257Z</time></trkpt><trkpt lat="46.1618335" lon="9.8331126"><ele>278.5</ele><time>2026-05-01T09:24:06.251Z</time></trkpt><trkpt lat="46.1618264" lon="9.8333373"><ele>278.75</ele><time>2026-05-01T09:24:07.246Z</time></trkpt><trkpt lat="46.1618122" lon="9.8335423"><ele>279.0</ele><time>2026-05-01T09:24:08.251Z</time></trkpt><trkpt lat="46.1618133" lon="9.833754"><ele>279.5</ele><time>2026-05-01T09:24:09.25Z</time></trkpt><trkpt lat="46.1618071" lon="9.8339648"><ele>280.0</ele><time>2026-05-01T09:24:10.245Z</time></trkpt><trkpt lat="46.1618193" lon="9.8341718"><ele>280.5</ele><time>2026-05-01T09:24:11.246Z</time></trkpt><trkpt lat="46.1618326" lon="9.834375"><ele>281.0</ele><time>2026-05-01T09:24:12.269Z</time></trkpt><trkpt lat="46.1618551" lon="9.8345849"><ele>281.0</ele><time>2026-05-01T09:24:13.262Z</time></trkpt><trkpt lat="46.1618929" lon="9.8347989"><ele>281.0</ele><time>2026-05-01T09:24:14.26Z</time></trkpt><trkpt lat="46.1619396" lon="9.8350148"><ele>281.0</ele><time>2026-05-01T09:24:15.25Z</time></trkpt><trkpt lat="46.1619782" lon="9.8352328"><ele>281.0</ele><time>2026-05-01T09:24:16.247Z</time></trkpt><trkpt lat="46.1620117" lon="9.8354245"><ele>281.0</ele><time>2026-05-01T09:24:17.252Z</time></trkpt><trkpt lat="46.1620617" lon="9.8356162"><ele>281.0</ele><time>2026-05-01T09:24:18.247Z</time></trkpt><trkpt lat="46.1620931" lon="9.8358016"><ele>281.0</ele><time>2026-05-01T09:24:19.253Z</time></trkpt><trkpt lat="46.162124" lon="9.8360111"><ele>280.75</ele><time>2026-05-01T09:24:20.245Z</time></trkpt><trkpt lat="46.162162" lon="9.8362035"><ele>280.5</ele><time>2026-05-01T09:24:21.241Z</time></trkpt><trkpt lat="46.1621921" lon="9.836393"><ele>280.25</ele><time>2026-05-01T09:24:22.245Z</time></trkpt><trkpt lat="46.1622298" lon="9.8365715"><ele>280.0</ele><time>2026-05-01T09:24:23.249Z</time></trkpt><trkpt lat="46.1622685" lon="9.8367501"><ele>279.5</ele><time>2026-05-01T09:24:24.246Z</time></trkpt><trkpt lat="46.162308" lon="9.8369304"><ele>279.0</ele><time>2026-05-01T09:24:25.243Z</time></trkpt><trkpt lat="46.1623435" lon="9.8371148"><ele>278.5</ele><time>2026-05-01T09:24:26.251Z</time></trkpt><trkpt lat="46.1623793" lon="9.8372966"><ele>278.0</ele><time>2026-05-01T09:24:27.242Z</time></trkpt><trkpt lat="46.1624143" lon="9.8374818"><ele>280.0</ele><time>2026-05-01T09:24:28.244Z</time></trkpt><trkpt lat="46.1624491" lon="9.8376686"><ele>282.0</ele><time>2026-05-01T09:24:29.241Z</time></trkpt><trkpt lat="46.1624836" lon="9.837861"><ele>284.0</ele><time>2026-05-01T09:24:30.251Z</time></trkpt><trkpt lat="46.1625263" lon="9.8380634"><ele>286.0</ele><time>2026-05-01T09:24:31.248Z</time></trkpt><trkpt lat="46.1625553" lon="9.8382489"><ele>286.0</ele><time>2026-05-01T09:24:32.241Z</time></trkpt><trkpt lat="46.1625963" lon="9.8384446"><ele>286.0</ele><time>2026-05-01T09:24:33.245Z</time></trkpt><trkpt lat="46.1626265" lon="9.8386313"><ele>286.0</ele><time>2026-05-01T09:24:34.243Z</time></trkpt><trkpt lat="46.1626622" lon="9.8388162"><ele>286.0</ele><time>2026-05-01T09:24:35.252Z</time></trkpt><trkpt lat="46.1627028" lon="9.8389887"><ele>285.5</ele><time>2026-05-01T09:24:36.246Z</time></trkpt><trkpt lat="46.1627465" lon="9.8391667"><ele>285.0</ele><time>2026-05-01T09:24:37.253Z</time></trkpt><trkpt lat="46.1627805" lon="9.8393488"><ele>284.5</ele><time>2026-05-01T09:24:38.25Z</time></trkpt><trkpt lat="46.1628126" lon="9.8395298"><ele>284.0</ele><time>2026-05-01T09:24:39.251Z</time></trkpt><trkpt lat="46.1628445" lon="9.839716"><ele>283.75</ele><time>2026-05-01T09:24:40.247Z</time></trkpt><trkpt lat="46.1628806" lon="9.8399021"><ele>283.5</ele><time>2026-05-01T09:24:41.246Z</time></trkpt><trkpt lat="46.1629137" lon="9.8401063"><ele>283.25</ele><time>2026-05-01T09:24:42.249Z</time></trkpt><trkpt lat="46.1629508" lon="9.8402918"><ele>283.0</ele><time>2026-05-01T09:24:43.244Z</time></trkpt><trkpt lat="46.1629875" lon="9.8404751"><ele>282.75</ele><time>2026-05-01T09:24:44.261Z</time></trkpt><trkpt lat="46.1630255" lon="9.8406789"><ele>282.5</ele><time>2026-05-01T09:24:45.245Z</time></trkpt><trkpt lat="46.1630715" lon="9.8408613"><ele>282.25</ele><time>2026-05-01T09:24:46.247Z</time></trkpt><trkpt lat="46.1631106" lon="9.8410566"><ele>282.0</ele><time>2026-05-01T09:24:47.251Z</time></trkpt><trkpt lat="46.1631469" lon="9.8412607"><ele>282.0</ele><time>2026-05-01T09:24:48.249Z</time></trkpt><trkpt lat="46.1631799" lon="9.8414631"><ele>282.0</ele><time>2026-05-01T09:24:49.252Z</time></trkpt><trkpt lat="46.1632233" lon="9.8416587"><ele>282.0</ele><time>2026-05-01T09:24:50.255Z</time></trkpt><trkpt lat="46.1632637" lon="9.841857"><ele>282.0</ele><time>2026-05-01T09:24:51.25Z</time></trkpt><trkpt lat="46.163304" lon="9.8420631"><ele>282.0</ele><time>2026-05-01T09:24:52.261Z</time></trkpt><trkpt lat="46.1633508" lon="9.8422534"><ele>282.0</ele><time>2026-05-01T09:24:53.252Z</time></trkpt><trkpt lat="46.1634104" lon="9.8424407"><ele>282.0</ele><time>2026-05-01T09:24:54.247Z</time></trkpt><trkpt lat="46.1634622" lon="9.842613"><ele>282.0</ele><time>2026-05-01T09:24:55.247Z</time></trkpt><trkpt lat="46.1635117" lon="9.8427821"><ele>282.0</ele><time>2026-05-01T09:24:56.246Z</time></trkpt><trkpt lat="46.1635674" lon="9.8429605"><ele>282.0</ele><time>2026-05-01T09:24:57.244Z</time></trkpt><trkpt lat="46.1636419" lon="9.8431372"><ele>282.0</ele><time>2026-05-01T09:24:58.25Z</time></trkpt><trkpt lat="46.1637045" lon="9.8433203"><ele>282.0</ele><time>2026-05-01T09:24:59.251Z</time></trkpt><trkpt lat="46.1637762" lon="9.8434811"><ele>281.6666666666667</ele><time>2026-05-01T09:25:00.249Z</time></trkpt><trkpt lat="46.1638469" lon="9.8436669"><ele>281.33333333333337</ele><time>2026-05-01T09:25:01.266Z</time></trkpt><trkpt lat="46.1639346" lon="9.8438701"><ele>281.0</ele><time>2026-05-01T09:25:02.256Z</time></trkpt><trkpt lat="46.1639966" lon="9.8440768"><ele>282.33333333333337</ele><time>2026-05-01T09:25:03.254Z</time></trkpt><trkpt lat="46.164038" lon="9.8442905"><ele>283.6666666666667</ele><time>2026-05-01T09:25:04.253Z</time></trkpt><trkpt lat="46.1640752" lon="9.8444946"><ele>285.0</ele><time>2026-05-01T09:25:05.246Z</time></trkpt><trkpt lat="46.1641015" lon="9.8447075"><ele>285.0</ele><time>2026-05-01T09:25:06.248Z</time></trkpt><trkpt lat="46.1641248" lon="9.8449136"><ele>285.0</ele><time>2026-05-01T09:25:07.243Z</time></trkpt><trkpt lat="46.164149" lon="9.8451292"><ele>285.0</ele><time>2026-05-01T09:25:08.259Z</time></trkpt><trkpt lat="46.1641645" lon="9.8453526"><ele>285.6666666666667</ele><time>2026-05-01T09:25:09.249Z</time></trkpt><trkpt lat="46.1642082" lon="9.8455708"><ele>286.33333333333337</ele><time>2026-05-01T09:25:10.244Z</time></trkpt><trkpt lat="46.1642815" lon="9.8458319"><ele>287.0</ele><time>2026-05-01T09:25:11.245Z</time></trkpt><trkpt lat="46.1643576" lon="9.8460339"><ele>287.0</ele><time>2026-05-01T09:25:12.25Z</time></trkpt><trkpt lat="46.1644255" lon="9.8462098"><ele>287.0</ele><time>2026-05-01T09:25:13.257Z</time></trkpt><trkpt lat="46.1644965" lon="9.8463803"><ele>287.0</ele><time>2026-05-01T09:25:14.25Z</time></trkpt><trkpt lat="46.1645409" lon="9.8465792"><ele>287.0</ele><time>2026-05-01T09:25:15.251Z</time></trkpt><trkpt lat="46.1645923" lon="9.8467559"><ele>286.75</ele><time>2026-05-01T09:25:16.243Z</time></trkpt><trkpt lat="46.1646189" lon="9.846948"><ele>286.5</ele><time>2026-05-01T09:25:17.25Z</time></trkpt><trkpt lat="46.1646683" lon="9.8471337"><ele>286.25</ele><time>2026-05-01T09:25:18.244Z</time></trkpt><trkpt lat="46.1647136" lon="9.8473066"><ele>286.0</ele><time>2026-05-01T09:25:19.248Z</time></trkpt><trkpt lat="46.1647641" lon="9.8474842"><ele>286.0</ele><time>2026-05-01T09:25:20.246Z</time></trkpt><trkpt lat="46.1648071" lon="9.8476444"><ele>286.0</ele><time>2026-05-01T09:25:21.248Z</time></trkpt><trkpt lat="46.1648434" lon="9.8478175"><ele>286.0</ele><time>2026-05-01T09:25:22.242Z</time></trkpt><trkpt lat="46.1648896" lon="9.848008"><ele>286.0</ele><time>2026-05-01T09:25:23.244Z</time></trkpt><trkpt lat="46.1649428" lon="9.8481854"><ele>285.5</ele><time>2026-05-01T09:25:24.253Z</time></trkpt><trkpt lat="46.164978" lon="9.8483572"><ele>285.0</ele><time>2026-05-01T09:25:25.25Z</time></trkpt><trkpt lat="46.1650266" lon="9.8485399"><ele>284.5</ele><time>2026-05-01T09:25:26.247Z</time></trkpt><trkpt lat="46.165078" lon="9.84872"><ele>284.0</ele><time>2026-05-01T09:25:27.25Z</time></trkpt><trkpt lat="46.1651259" lon="9.8489019"><ele>284.0</ele><time>2026-05-01T09:25:28.252Z</time></trkpt><trkpt lat="46.1651714" lon="9.849083"><ele>284.0</ele><time>2026-05-01T09:25:29.251Z</time></trkpt><trkpt lat="46.165217" lon="9.8492624"><ele>284.0</ele><time>2026-05-01T09:25:30.253Z</time></trkpt><trkpt lat="46.1652639" lon="9.849445"><ele>284.0</ele><time>2026-05-01T09:25:31.255Z</time></trkpt><trkpt lat="46.1653138" lon="9.8496234"><ele>284.25</ele><time>2026-05-01T09:25:32.248Z</time></trkpt><trkpt lat="46.1653689" lon="9.8498135"><ele>284.5</ele><time>2026-05-01T09:25:33.255Z</time></trkpt><trkpt lat="46.1654349" lon="9.8500126"><ele>284.75</ele><time>2026-05-01T09:25:34.248Z</time></trkpt><trkpt lat="46.1654876" lon="9.8501996"><ele>285.0</ele><time>2026-05-01T09:25:35.253Z</time></trkpt><trkpt lat="46.1655354" lon="9.8503904"><ele>285.6666666666667</ele><time>2026-05-01T09:25:36.249Z</time></trkpt><trkpt lat="46.1655869" lon="9.8506076"><ele>286.33333333333337</ele><time>2026-05-01T09:25:37.243Z</time></trkpt><trkpt lat="46.1656424" lon="9.8508124"><ele>287.0</ele><time>2026-05-01T09:25:38.249Z</time></trkpt><trkpt lat="46.1656915" lon="9.8510111"><ele>286.75</ele><time>2026-05-01T09:25:39.255Z</time></trkpt><trkpt lat="46.1657401" lon="9.8512117"><ele>286.5</ele><time>2026-05-01T09:25:40.247Z</time></trkpt><trkpt lat="46.1657952" lon="9.8514093"><ele>286.25</ele><time>2026-05-01T09:25:41.261Z</time></trkpt><trkpt lat="46.1658591" lon="9.8516122"><ele>286.0</ele><time>2026-05-01T09:25:42.252Z</time></trkpt><trkpt lat="46.1659044" lon="9.8518246"><ele>286.0</ele><time>2026-05-01T09:25:43.249Z</time></trkpt><trkpt lat="46.1659586" lon="9.8520075"><ele>286.0</ele><time>2026-05-01T09:25:44.252Z</time></trkpt><trkpt lat="46.1659997" lon="9.8521953"><ele>286.0</ele><time>2026-05-01T09:25:45.252Z</time></trkpt><trkpt lat="46.1660409" lon="9.8523988"><ele>286.0</ele><time>2026-05-01T09:25:46.253Z</time></trkpt><trkpt lat="46.1660962" lon="9.8525706"><ele>286.25</ele><time>2026-05-01T09:25:47.254Z</time></trkpt><trkpt lat="46.1661546" lon="9.8527542"><ele>286.5</ele><time>2026-05-01T09:25:48.249Z</time></trkpt><trkpt lat="46.1661993" lon="9.8529427"><ele>286.75</ele><time>2026-05-01T09:25:49.25Z</time></trkpt><trkpt lat="46.1662591" lon="9.8531284"><ele>287.0</ele><time>2026-05-01T09:25:50.25Z</time></trkpt><trkpt lat="46.1663086" lon="9.8533134"><ele>287.75</ele><time>2026-05-01T09:25:51.248Z</time></trkpt><trkpt lat="46.166354" lon="9.8535182"><ele>288.5</ele><time>2026-05-01T09:25:52.249Z</time></trkpt><trkpt lat="46.1664208" lon="9.8536927"><ele>289.25</ele><time>2026-05-01T09:25:53.254Z</time></trkpt><trkpt lat="46.1664863" lon="9.8538832"><ele>290.0</ele><time>2026-05-01T09:25:54.253Z</time></trkpt><trkpt lat="46.1665256" lon="9.854079"><ele>290.25</ele><time>2026-05-01T09:25:55.249Z</time></trkpt><trkpt lat="46.1665773" lon="9.8542633"><ele>290.5</ele><time>2026-05-01T09:25:56.261Z</time></trkpt><trkpt lat="46.1666331" lon="9.8544409"><ele>290.75</ele><time>2026-05-01T09:25:57.252Z</time></trkpt><trkpt lat="46.1666859" lon="9.8546376"><ele>291.0</ele><time>2026-05-01T09:25:58.252Z</time></trkpt><trkpt lat="46.1667415" lon="9.8548309"><ele>291.0</ele><time>2026-05-01T09:25:59.253Z</time></trkpt><trkpt lat="46.1667907" lon="9.8550197"><ele>291.0</ele><time>2026-05-01T09:26:00.255Z</time></trkpt><trkpt lat="46.166831" lon="9.8552041"><ele>291.0</ele><time>2026-05-01T09:26:01.255Z</time></trkpt><trkpt lat="46.1668782" lon="9.8553911"><ele>291.0</ele><time>2026-05-01T09:26:02.257Z</time></trkpt><trkpt lat="46.1669108" lon="9.8555823"><ele>291.0</ele><time>2026-05-01T09:26:03.251Z</time></trkpt><trkpt lat="46.1669573" lon="9.8557828"><ele>291.0</ele><time>2026-05-01T09:26:04.253Z</time></trkpt><trkpt lat="46.1669969" lon="9.8559729"><ele>291.0</ele><time>2026-05-01T09:26:05.253Z</time></trkpt><trkpt lat="46.1670272" lon="9.8561488"><ele>291.0</ele><time>2026-05-01T09:26:06.26Z</time></trkpt><trkpt lat="46.167087" lon="9.8563285"><ele>291.0</ele><time>2026-05-01T09:26:07.251Z</time></trkpt><trkpt lat="46.1671571" lon="9.8564958"><ele>291.0</ele><time>2026-05-01T09:26:08.256Z</time></trkpt><trkpt lat="46.1672235" lon="9.8566778"><ele>291.0</ele><time>2026-05-01T09:26:09.25Z</time></trkpt><trkpt lat="46.1672998" lon="9.856863"><ele>291.0</ele><time>2026-05-01T09:26:10.252Z</time></trkpt><trkpt lat="46.1673687" lon="9.8570334"><ele>292.0</ele><time>2026-05-01T09:26:11.248Z</time></trkpt><trkpt lat="46.1674414" lon="9.8572333"><ele>293.0</ele><time>2026-05-01T09:26:12.254Z</time></trkpt><trkpt lat="46.1675335" lon="9.8574178"><ele>294.0</ele><time>2026-05-01T09:26:13.256Z</time></trkpt><trkpt lat="46.1676152" lon="9.8575924"><ele>293.6666666666667</ele><time>2026-05-01T09:26:14.257Z</time></trkpt><trkpt lat="46.1676833" lon="9.8578057"><ele>293.33333333333337</ele><time>2026-05-01T09:26:15.253Z</time></trkpt><trkpt lat="46.1677426" lon="9.8579958"><ele>293.0</ele><time>2026-05-01T09:26:16.259Z</time></trkpt><trkpt lat="46.1678258" lon="9.8581708"><ele>293.0</ele><time>2026-05-01T09:26:17.259Z</time></trkpt><trkpt lat="46.1678786" lon="9.8583556"><ele>293.0</ele><time>2026-05-01T09:26:18.252Z</time></trkpt><trkpt lat="46.1679256" lon="9.8585158"><ele>293.0</ele><time>2026-05-01T09:26:19.261Z</time></trkpt><trkpt lat="46.1679843" lon="9.8586755"><ele>293.0</ele><time>2026-05-01T09:26:20.252Z</time></trkpt><trkpt lat="46.1680262" lon="9.8588132"><ele>293.0</ele><time>2026-05-01T09:26:21.26Z</time></trkpt><trkpt lat="46.1680774" lon="9.8589485"><ele>293.0</ele><time>2026-05-01T09:26:22.263Z</time></trkpt><trkpt lat="46.1681113" lon="9.8590694"><ele>293.0</ele><time>2026-05-01T09:26:23.27Z</time></trkpt><trkpt lat="46.168144" lon="9.8591903"><ele>293.0</ele><time>2026-05-01T09:26:24.253Z</time></trkpt><trkpt lat="46.1681674" lon="9.8593139"><ele>293.0</ele><time>2026-05-01T09:26:25.265Z</time></trkpt><trkpt lat="46.1681897" lon="9.8594382"><ele>293.6666666666667</ele><time>2026-05-01T09:26:26.258Z</time></trkpt><trkpt lat="46.1682133" lon="9.8595643"><ele>294.33333333333337</ele><time>2026-05-01T09:26:27.259Z</time></trkpt><trkpt lat="46.1682458" lon="9.859686"><ele>295.0</ele><time>2026-05-01T09:26:28.257Z</time></trkpt><trkpt lat="46.1682783" lon="9.859796"><ele>295.6666666666667</ele><time>2026-05-01T09:26:29.256Z</time></trkpt><trkpt lat="46.1683119" lon="9.8598994"><ele>296.3333333333333</ele><time>2026-05-01T09:26:30.253Z</time></trkpt><trkpt lat="46.1683649" lon="9.8599832"><ele>297.0</ele><time>2026-05-01T09:26:31.248Z</time></trkpt><trkpt lat="46.1684359" lon="9.8600479"><ele>297.0</ele><time>2026-05-01T09:26:32.254Z</time></trkpt><trkpt lat="46.1685097" lon="9.8601056"><ele>297.0</ele><time>2026-05-01T09:26:33.252Z</time></trkpt><trkpt lat="46.1685793" lon="9.8601865"><ele>297.0</ele><time>2026-05-01T09:26:34.25Z</time></trkpt><trkpt lat="46.1686404" lon="9.8602764"><ele>297.0</ele><time>2026-05-01T09:26:35.255Z</time></trkpt><trkpt lat="46.1686875" lon="9.8603901"><ele>297.0</ele><time>2026-05-01T09:26:36.244Z</time></trkpt><trkpt lat="46.1687292" lon="9.8605083"><ele>297.0</ele><time>2026-05-01T09:26:37.264Z</time></trkpt><trkpt lat="46.1687786" lon="9.8606272"><ele>296.8333333333333</ele><time>2026-05-01T09:26:38.247Z</time></trkpt><trkpt lat="46.1688235" lon="9.8607527"><ele>296.6666666666667</ele><time>2026-05-01T09:26:39.252Z</time></trkpt><trkpt lat="46.168872" lon="9.8608769"><ele>296.5</ele><time>2026-05-01T09:26:40.257Z</time></trkpt><trkpt lat="46.1689139" lon="9.8609889"><ele>296.33333333333337</ele><time>2026-05-01T09:26:41.258Z</time></trkpt><trkpt lat="46.1689448" lon="9.8611001"><ele>296.1666666666667</ele><time>2026-05-01T09:26:42.251Z</time></trkpt><trkpt lat="46.1689675" lon="9.8611945"><ele>296.0</ele><time>2026-05-01T09:26:43.262Z</time></trkpt><trkpt lat="46.1689855" lon="9.8613546"><ele>295.8</ele><time>2026-05-01T09:26:45.252Z</time></trkpt><trkpt lat="46.1690247" lon="9.8615131"><ele>295.6</ele><time>2026-05-01T09:26:47.24Z</time></trkpt><trkpt lat="46.1691393" lon="9.8615854"><ele>295.4</ele><time>2026-05-01T09:26:49.247Z</time></trkpt><trkpt lat="46.1692145" lon="9.8615392"><ele>295.2</ele><time>2026-05-01T09:26:50.263Z</time></trkpt><trkpt lat="46.1692817" lon="9.8614505"><ele>295.0</ele><time>2026-05-01T09:26:51.253Z</time></trkpt><trkpt lat="46.1693634" lon="9.861363"><ele>295.75</ele><time>2026-05-01T09:26:52.248Z</time></trkpt><trkpt lat="46.1694642" lon="9.8613165"><ele>296.5</ele><time>2026-05-01T09:26:53.247Z</time></trkpt><trkpt lat="46.169575" lon="9.8613027"><ele>297.25</ele><time>2026-05-01T09:26:54.241Z</time></trkpt><trkpt lat="46.1696993" lon="9.8613015"><ele>298.0</ele><time>2026-05-01T09:26:55.246Z</time></trkpt><trkpt lat="46.1698281" lon="9.8613101"><ele>298.0</ele><time>2026-05-01T09:26:56.24Z</time></trkpt><trkpt lat="46.1699607" lon="9.8613157"><ele>298.0</ele><time>2026-05-01T09:26:57.25Z</time></trkpt><trkpt lat="46.1700831" lon="9.8613176"><ele>298.0</ele><time>2026-05-01T09:26:58.238Z</time></trkpt><trkpt lat="46.1701886" lon="9.8613294"><ele>298.0</ele><time>2026-05-01T09:26:59.249Z</time></trkpt><trkpt lat="46.1702823" lon="9.8613411"><ele>298.0</ele><time>2026-05-01T09:27:00.243Z</time></trkpt><trkpt lat="46.1703795" lon="9.8613442"><ele>298.0</ele><time>2026-05-01T09:27:01.261Z</time></trkpt><trkpt lat="46.1704804" lon="9.8613404"><ele>298.0</ele><time>2026-05-01T09:27:02.242Z</time></trkpt><trkpt lat="46.1705822" lon="9.8613335"><ele>298.0</ele><time>2026-05-01T09:27:03.25Z</time></trkpt><trkpt lat="46.1706829" lon="9.8613297"><ele>298.0</ele><time>2026-05-01T09:27:04.25Z</time></trkpt><trkpt lat="46.1707859" lon="9.8613291"><ele>298.0</ele><time>2026-05-01T09:27:05.249Z</time></trkpt><trkpt lat="46.1708903" lon="9.8613332"><ele>298.0</ele><time>2026-05-01T09:27:06.246Z</time></trkpt><trkpt lat="46.1710007" lon="9.8613309"><ele>298.0</ele><time>2026-05-01T09:27:07.257Z</time></trkpt><trkpt lat="46.1711077" lon="9.86133"><ele>298.0</ele><time>2026-05-01T09:27:08.247Z</time></trkpt><trkpt lat="46.1712146" lon="9.8613248"><ele>298.0</ele><time>2026-05-01T09:27:09.251Z</time></trkpt><trkpt lat="46.1713213" lon="9.861335"><ele>298.0</ele><time>2026-05-01T09:27:10.249Z</time></trkpt><trkpt lat="46.1714267" lon="9.8613705"><ele>298.0</ele><time>2026-05-01T09:27:11.239Z</time></trkpt><trkpt lat="46.1715308" lon="9.8614454"><ele>298.0</ele><time>2026-05-01T09:27:12.246Z</time></trkpt><trkpt lat="46.1716044" lon="9.8615707"><ele>298.0</ele><time>2026-05-01T09:27:13.243Z</time></trkpt><trkpt lat="46.1716391" lon="9.8617219"><ele>298.0</ele><time>2026-05-01T09:27:14.25Z</time></trkpt><trkpt lat="46.1716486" lon="9.8618981"><ele>299.75</ele><time>2026-05-01T09:27:15.239Z</time></trkpt><trkpt lat="46.1716601" lon="9.8620896"><ele>301.5</ele><time>2026-05-01T09:27:16.245Z</time></trkpt><trkpt lat="46.1716815" lon="9.8622901"><ele>303.25</ele><time>2026-05-01T09:27:17.237Z</time></trkpt><trkpt lat="46.1717184" lon="9.8624969"><ele>305.0</ele><time>2026-05-01T09:27:18.243Z</time></trkpt><trkpt lat="46.1717355" lon="9.862751"><ele>305.0</ele><time>2026-05-01T09:27:19.249Z</time></trkpt><trkpt lat="46.1717764" lon="9.8629528"><ele>305.0</ele><time>2026-05-01T09:27:20.242Z</time></trkpt><trkpt lat="46.1718471" lon="9.8631554"><ele>305.0</ele><time>2026-05-01T09:27:21.253Z</time></trkpt><trkpt lat="46.1719237" lon="9.8633585"><ele>304.6666666666667</ele><time>2026-05-01T09:27:22.249Z</time></trkpt><trkpt lat="46.1719763" lon="9.8635691"><ele>304.3333333333333</ele><time>2026-05-01T09:27:23.246Z</time></trkpt><trkpt lat="46.1720306" lon="9.8638004"><ele>304.0</ele><time>2026-05-01T09:27:24.25Z</time></trkpt><trkpt lat="46.1721074" lon="9.8640198"><ele>304.0</ele><time>2026-05-01T09:27:25.247Z</time></trkpt><trkpt lat="46.1721741" lon="9.8642509"><ele>304.0</ele><time>2026-05-01T09:27:26.247Z</time></trkpt><trkpt lat="46.1722474" lon="9.8644691"><ele>304.0</ele><time>2026-05-01T09:27:27.235Z</time></trkpt><trkpt lat="46.172309" lon="9.8646721"><ele>303.5</ele><time>2026-05-01T09:27:28.241Z</time></trkpt><trkpt lat="46.1723416" lon="9.8648665"><ele>303.0</ele><time>2026-05-01T09:27:29.241Z</time></trkpt><trkpt lat="46.1723703" lon="9.8650426"><ele>302.5</ele><time>2026-05-01T09:27:30.247Z</time></trkpt><trkpt lat="46.1724072" lon="9.8651884"><ele>302.0</ele><time>2026-05-01T09:27:31.245Z</time></trkpt><trkpt lat="46.1724338" lon="9.8653041"><ele>306.8</ele><time>2026-05-01T09:27:32.247Z</time></trkpt><trkpt lat="46.1725066" lon="9.8654233"><ele>311.6</ele><time>2026-05-01T09:27:33.246Z</time></trkpt><trkpt lat="46.1725763" lon="9.865539"><ele>316.40000000000003</ele><time>2026-05-01T09:27:34.235Z</time></trkpt><trkpt lat="46.1726439" lon="9.8656521"><ele>321.2</ele><time>2026-05-01T09:27:35.256Z</time></trkpt><trkpt lat="46.1726935" lon="9.8657725"><ele>326.0</ele><time>2026-05-01T09:27:36.241Z</time></trkpt><trkpt lat="46.1726987" lon="9.8659081"><ele>327.20000000000005</ele><time>2026-05-01T09:27:37.242Z</time></trkpt><trkpt lat="46.1726853" lon="9.866047"><ele>328.40000000000003</ele><time>2026-05-01T09:27:38.248Z</time></trkpt><trkpt lat="46.1726389" lon="9.8661736"><ele>329.6</ele><time>2026-05-01T09:27:39.235Z</time></trkpt><trkpt lat="46.1725975" lon="9.8662829"><ele>330.8</ele><time>2026-05-01T09:27:40.254Z</time></trkpt><trkpt lat="46.1725696" lon="9.8664011"><ele>332.0</ele><time>2026-05-01T09:27:41.25Z</time></trkpt><trkpt lat="46.1725711" lon="9.8665345"><ele>332.0</ele><time>2026-05-01T09:27:42.246Z</time></trkpt><trkpt lat="46.172587" lon="9.8666859"><ele>332.0</ele><time>2026-05-01T09:27:43.238Z</time></trkpt><trkpt lat="46.172606" lon="9.8668484"><ele>332.0</ele><time>2026-05-01T09:27:44.247Z</time></trkpt><trkpt lat="46.1726275" lon="9.8670128"><ele>332.0</ele><time>2026-05-01T09:27:45.248Z</time></trkpt><trkpt lat="46.1726495" lon="9.8671881"><ele>331.75</ele><time>2026-05-01T09:27:46.244Z</time></trkpt><trkpt lat="46.1726676" lon="9.8673741"><ele>331.5</ele><time>2026-05-01T09:27:47.245Z</time></trkpt><trkpt lat="46.1726749" lon="9.8675682"><ele>331.25</ele><time>2026-05-01T09:27:48.245Z</time></trkpt><trkpt lat="46.1726826" lon="9.867764"><ele>331.0</ele><time>2026-05-01T09:27:49.242Z</time></trkpt><trkpt lat="46.172684" lon="9.8679445"><ele>330.20000000000005</ele><time>2026-05-01T09:27:50.248Z</time></trkpt><trkpt lat="46.1726854" lon="9.8681076"><ele>329.40000000000003</ele><time>2026-05-01T09:27:51.242Z</time></trkpt><trkpt lat="46.1726867" lon="9.8682556"><ele>328.6</ele><time>2026-05-01T09:27:52.258Z</time></trkpt><trkpt lat="46.1727038" lon="9.8683971"><ele>327.8</ele><time>2026-05-01T09:27:53.246Z</time></trkpt><trkpt lat="46.1727425" lon="9.8685294"><ele>327.0</ele><time>2026-05-01T09:27:54.242Z</time></trkpt><trkpt lat="46.1727953" lon="9.8686418"><ele>326.3333333333333</ele><time>2026-05-01T09:27:55.262Z</time></trkpt><trkpt lat="46.1728444" lon="9.8687378"><ele>325.6666666666667</ele><time>2026-05-01T09:27:56.251Z</time></trkpt><trkpt lat="46.1728881" lon="9.8688186"><ele>325.0</ele><time>2026-05-01T09:27:57.257Z</time></trkpt><trkpt lat="46.1729339" lon="9.8688859"><ele>324.33333333333337</ele><time>2026-05-01T09:27:58.246Z</time></trkpt><trkpt lat="46.1730434" lon="9.8688898"><ele>323.6666666666667</ele><time>2026-05-01T09:28:00.253Z</time></trkpt><trkpt lat="46.1731012" lon="9.8687932"><ele>323.0</ele><time>2026-05-01T09:28:01.248Z</time></trkpt><trkpt lat="46.1731529" lon="9.8686489"><ele>324.75</ele><time>2026-05-01T09:28:02.253Z</time></trkpt><trkpt lat="46.173196" lon="9.868464"><ele>326.5</ele><time>2026-05-01T09:28:03.249Z</time></trkpt><trkpt lat="46.1732413" lon="9.8682931"><ele>328.25</ele><time>2026-05-01T09:28:04.244Z</time></trkpt><trkpt lat="46.1732951" lon="9.8681062"><ele>330.0</ele><time>2026-05-01T09:28:05.247Z</time></trkpt><trkpt lat="46.1733553" lon="9.8679238"><ele>335.0</ele><time>2026-05-01T09:28:06.248Z</time></trkpt><trkpt lat="46.1734141" lon="9.867742"><ele>340.0</ele><time>2026-05-01T09:28:07.256Z</time></trkpt><trkpt lat="46.1734731" lon="9.8675657"><ele>345.0</ele><time>2026-05-01T09:28:08.246Z</time></trkpt><trkpt lat="46.1735288" lon="9.867384"><ele>350.0</ele><time>2026-05-01T09:28:09.243Z</time></trkpt><trkpt lat="46.1735553" lon="9.8672151"><ele>352.0</ele><time>2026-05-01T09:28:10.239Z</time></trkpt><trkpt lat="46.1735632" lon="9.867042"><ele>354.0</ele><time>2026-05-01T09:28:11.249Z</time></trkpt><trkpt lat="46.1735594" lon="9.8668712"><ele>356.0</ele><time>2026-05-01T09:28:12.246Z</time></trkpt><trkpt lat="46.1735555" lon="9.8667103"><ele>358.0</ele><time>2026-05-01T09:28:13.244Z</time></trkpt><trkpt lat="46.1735488" lon="9.866555"><ele>358.79999999999995</ele><time>2026-05-01T09:28:14.251Z</time></trkpt><trkpt lat="46.1735483" lon="9.8663972"><ele>359.6</ele><time>2026-05-01T09:28:15.252Z</time></trkpt><trkpt lat="46.1735442" lon="9.8662468"><ele>360.4</ele><time>2026-05-01T09:28:16.241Z</time></trkpt><trkpt lat="46.1735307" lon="9.8661022"><ele>361.20000000000005</ele><time>2026-05-01T09:28:17.255Z</time></trkpt><trkpt lat="46.1735036" lon="9.8659579"><ele>362.0</ele><time>2026-05-01T09:28:18.244Z</time></trkpt><trkpt lat="46.1734752" lon="9.8658054"><ele>362.0</ele><time>2026-05-01T09:28:19.249Z</time></trkpt><trkpt lat="46.1734487" lon="9.8656531"><ele>362.0</ele><time>2026-05-01T09:28:20.241Z</time></trkpt><trkpt lat="46.1734277" lon="9.8654981"><ele>362.0</ele><time>2026-05-01T09:28:21.25Z</time></trkpt><trkpt lat="46.1734121" lon="9.8653346"><ele>362.0</ele><time>2026-05-01T09:28:22.245Z</time></trkpt><trkpt lat="46.1733998" lon="9.8651666"><ele>362.0</ele><time>2026-05-01T09:28:23.245Z</time></trkpt><trkpt lat="46.1733844" lon="9.8649922"><ele>363.75</ele><time>2026-05-01T09:28:24.25Z</time></trkpt><trkpt lat="46.173375" lon="9.8648123"><ele>365.5</ele><time>2026-05-01T09:28:25.253Z</time></trkpt><trkpt lat="46.1733624" lon="9.864624"><ele>367.25</ele><time>2026-05-01T09:28:26.253Z</time></trkpt><trkpt lat="46.1733532" lon="9.8644358"><ele>369.0</ele><time>2026-05-01T09:28:27.254Z</time></trkpt><trkpt lat="46.1733489" lon="9.8642461"><ele>371.5</ele><time>2026-05-01T09:28:28.253Z</time></trkpt><trkpt lat="46.1733562" lon="9.8640655"><ele>374.0</ele><time>2026-05-01T09:28:29.259Z</time></trkpt><trkpt lat="46.173372" lon="9.8638846"><ele>376.5</ele><time>2026-05-01T09:28:30.255Z</time></trkpt><trkpt lat="46.1733841" lon="9.8637103"><ele>379.0</ele><time>2026-05-01T09:28:31.264Z</time></trkpt><trkpt lat="46.173375" lon="9.8635384"><ele>379.5</ele><time>2026-05-01T09:28:32.254Z</time></trkpt><trkpt lat="46.1733502" lon="9.8633976"><ele>380.0</ele><time>2026-05-01T09:28:33.253Z</time></trkpt><trkpt lat="46.173319" lon="9.863279"><ele>380.5</ele><time>2026-05-01T09:28:34.257Z</time></trkpt><trkpt lat="46.1732831" lon="9.863176"><ele>381.0</ele><time>2026-05-01T09:28:35.261Z</time></trkpt><trkpt lat="46.1732526" lon="9.8630925"><ele>381.5</ele><time>2026-05-01T09:28:36.253Z</time></trkpt><trkpt lat="46.173205" lon="9.8629561"><ele>382.0</ele><time>2026-05-01T09:28:38.262Z</time></trkpt><trkpt lat="46.173225" lon="9.8628414"><ele>382.0</ele><time>2026-05-01T09:28:40.255Z</time></trkpt><trkpt lat="46.1733117" lon="9.8628671"><ele>382.0</ele><time>2026-05-01T09:28:42.264Z</time></trkpt><trkpt lat="46.1733529" lon="9.862985"><ele>382.0</ele><time>2026-05-01T09:28:43.264Z</time></trkpt><trkpt lat="46.1733854" lon="9.8631452"><ele>382.0</ele><time>2026-05-01T09:28:44.252Z</time></trkpt><trkpt lat="46.1734156" lon="9.8633039"><ele>382.0</ele><time>2026-05-01T09:28:45.251Z</time></trkpt><trkpt lat="46.173436" lon="9.8634787"><ele>381.25</ele><time>2026-05-01T09:28:46.266Z</time></trkpt><trkpt lat="46.1734514" lon="9.8636493"><ele>380.5</ele><time>2026-05-01T09:28:47.258Z</time></trkpt><trkpt lat="46.173456" lon="9.863812"><ele>379.75</ele><time>2026-05-01T09:28:48.254Z</time></trkpt><trkpt lat="46.1734537" lon="9.8639687"><ele>379.0</ele><time>2026-05-01T09:28:49.254Z</time></trkpt><trkpt lat="46.1734525" lon="9.8641278"><ele>379.0</ele><time>2026-05-01T09:28:50.258Z</time></trkpt><trkpt lat="46.1734467" lon="9.8642765"><ele>379.0</ele><time>2026-05-01T09:28:51.259Z</time></trkpt><trkpt lat="46.1734428" lon="9.8644062"><ele>379.0</ele><time>2026-05-01T09:28:52.253Z</time></trkpt><trkpt lat="46.1734498" lon="9.8645127"><ele>379.0</ele><time>2026-05-01T09:28:53.261Z</time></trkpt><trkpt lat="46.1734739" lon="9.8646072"><ele>379.0</ele><time>2026-05-01T09:28:54.252Z</time></trkpt><trkpt lat="46.1735191" lon="9.864695"><ele>379.0</ele><time>2026-05-01T09:28:55.253Z</time></trkpt><trkpt lat="46.1735835" lon="9.8647461"><ele>377.3333333333333</ele><time>2026-05-01T09:28:56.256Z</time></trkpt><trkpt lat="46.1736547" lon="9.8647948"><ele>375.66666666666663</ele><time>2026-05-01T09:28:57.257Z</time></trkpt><trkpt lat="46.1737268" lon="9.8648539"><ele>374.0</ele><time>2026-05-01T09:28:58.254Z</time></trkpt><trkpt lat="46.1738042" lon="9.864917"><ele>372.3333333333333</ele><time>2026-05-01T09:28:59.258Z</time></trkpt><trkpt lat="46.1738745" lon="9.8649853"><ele>370.6666666666667</ele><time>2026-05-01T09:29:00.248Z</time></trkpt><trkpt lat="46.1739295" lon="9.8650762"><ele>369.0</ele><time>2026-05-01T09:29:01.255Z</time></trkpt><trkpt lat="46.1739788" lon="9.8651817"><ele>374.6</ele><time>2026-05-01T09:29:02.257Z</time></trkpt><trkpt lat="46.1740234" lon="9.8652975"><ele>380.2</ele><time>2026-05-01T09:29:03.253Z</time></trkpt><trkpt lat="46.1740653" lon="9.865413"><ele>385.8</ele><time>2026-05-01T09:29:04.259Z</time></trkpt><trkpt lat="46.1741131" lon="9.8655244"><ele>391.40000000000003</ele><time>2026-05-01T09:29:05.254Z</time></trkpt><trkpt lat="46.174178" lon="9.8656165"><ele>397.0</ele><time>2026-05-01T09:29:06.247Z</time></trkpt><trkpt lat="46.1742621" lon="9.86569"><ele>397.0</ele><time>2026-05-01T09:29:07.256Z</time></trkpt><trkpt lat="46.1743608" lon="9.8657425"><ele>397.0</ele><time>2026-05-01T09:29:08.248Z</time></trkpt><trkpt lat="46.1744678" lon="9.8657892"><ele>397.0</ele><time>2026-05-01T09:29:09.254Z</time></trkpt><trkpt lat="46.1745672" lon="9.8658328"><ele>397.0</ele><time>2026-05-01T09:29:10.249Z</time></trkpt><trkpt lat="46.1746552" lon="9.8658655"><ele>397.0</ele><time>2026-05-01T09:29:11.256Z</time></trkpt><trkpt lat="46.1747296" lon="9.86589"><ele>397.0</ele><time>2026-05-01T09:29:12.244Z</time></trkpt><trkpt lat="46.1748042" lon="9.865889"><ele>397.0</ele><time>2026-05-01T09:29:13.253Z</time></trkpt><trkpt lat="46.1748878" lon="9.86585"><ele>397.0</ele><time>2026-05-01T09:29:14.256Z</time></trkpt><trkpt lat="46.174962" lon="9.8657592"><ele>397.0</ele><time>2026-05-01T09:29:15.251Z</time></trkpt><trkpt lat="46.1750277" lon="9.8656405"><ele>397.0</ele><time>2026-05-01T09:29:16.25Z</time></trkpt><trkpt lat="46.1750874" lon="9.8655093"><ele>399.5</ele><time>2026-05-01T09:29:17.256Z</time></trkpt><trkpt lat="46.1751501" lon="9.8653732"><ele>402.0</ele><time>2026-05-01T09:29:18.252Z</time></trkpt><trkpt lat="46.1752151" lon="9.8652369"><ele>404.5</ele><time>2026-05-01T09:29:19.254Z</time></trkpt><trkpt lat="46.1752835" lon="9.8651025"><ele>407.0</ele><time>2026-05-01T09:29:20.26Z</time></trkpt><trkpt lat="46.1753544" lon="9.8649708"><ele>408.25</ele><time>2026-05-01T09:29:21.26Z</time></trkpt><trkpt lat="46.1754224" lon="9.864832"><ele>409.5</ele><time>2026-05-01T09:29:22.262Z</time></trkpt><trkpt lat="46.1754932" lon="9.8646971"><ele>410.75</ele><time>2026-05-01T09:29:23.266Z</time></trkpt><trkpt lat="46.1755666" lon="9.8645635"><ele>412.0</ele><time>2026-05-01T09:29:24.259Z</time></trkpt><trkpt lat="46.1756473" lon="9.8644394"><ele>411.40000000000003</ele><time>2026-05-01T09:29:25.266Z</time></trkpt><trkpt lat="46.1757385" lon="9.8643429"><ele>410.8</ele><time>2026-05-01T09:29:26.256Z</time></trkpt><trkpt lat="46.1758369" lon="9.8642909"><ele>410.2</ele><time>2026-05-01T09:29:27.25Z</time></trkpt><trkpt lat="46.1759362" lon="9.8642781"><ele>409.6</ele><time>2026-05-01T09:29:28.26Z</time></trkpt><trkpt lat="46.1760309" lon="9.8642799"><ele>409.0</ele><time>2026-05-01T09:29:29.259Z</time></trkpt><trkpt lat="46.1761252" lon="9.8642667"><ele>409.0</ele><time>2026-05-01T09:29:30.253Z</time></trkpt><trkpt lat="46.1762073" lon="9.8642366"><ele>409.0</ele><time>2026-05-01T09:29:31.262Z</time></trkpt><trkpt lat="46.1762855" lon="9.8641729"><ele>409.0</ele><time>2026-05-01T09:29:32.259Z</time></trkpt><trkpt lat="46.176361" lon="9.8640906"><ele>409.0</ele><time>2026-05-01T09:29:33.255Z</time></trkpt><trkpt lat="46.1764019" lon="9.8639736"><ele>409.0</ele><time>2026-05-01T09:29:34.26Z</time></trkpt><trkpt lat="46.1764125" lon="9.863831"><ele>409.0</ele><time>2026-05-01T09:29:35.259Z</time></trkpt><trkpt lat="46.1764097" lon="9.8636957"><ele>409.0</ele><time>2026-05-01T09:29:36.258Z</time></trkpt><trkpt lat="46.1763988" lon="9.8635713"><ele>409.0</ele><time>2026-05-01T09:29:37.259Z</time></trkpt><trkpt lat="46.1763859" lon="9.8634214"><ele>409.0</ele><time>2026-05-01T09:29:38.257Z</time></trkpt><trkpt lat="46.1763812" lon="9.8632541"><ele>409.0</ele><time>2026-05-01T09:29:39.268Z</time></trkpt><trkpt lat="46.1763724" lon="9.8630652"><ele>409.75</ele><time>2026-05-01T09:29:40.258Z</time></trkpt><trkpt lat="46.1763576" lon="9.8628851"><ele>410.5</ele><time>2026-05-01T09:29:41.258Z</time></trkpt><trkpt lat="46.1763442" lon="9.8626921"><ele>411.25</ele><time>2026-05-01T09:29:42.26Z</time></trkpt><trkpt lat="46.1763325" lon="9.8624873"><ele>412.0</ele><time>2026-05-01T09:29:43.26Z</time></trkpt><trkpt lat="46.1763248" lon="9.8622822"><ele>413.0</ele><time>2026-05-01T09:29:44.261Z</time></trkpt><trkpt lat="46.176317" lon="9.8620417"><ele>414.0</ele><time>2026-05-01T09:29:45.257Z</time></trkpt><trkpt lat="46.1763528" lon="9.861817"><ele>415.0</ele><time>2026-05-01T09:29:46.259Z</time></trkpt><trkpt lat="46.1764009" lon="9.8616202"><ele>415.25</ele><time>2026-05-01T09:29:47.262Z</time></trkpt><trkpt lat="46.1764306" lon="9.861418"><ele>415.5</ele><time>2026-05-01T09:29:48.266Z</time></trkpt><trkpt lat="46.1764675" lon="9.861209"><ele>415.75</ele><time>2026-05-01T09:29:49.263Z</time></trkpt><trkpt lat="46.1764981" lon="9.8610046"><ele>416.0</ele><time>2026-05-01T09:29:50.266Z</time></trkpt><trkpt lat="46.1765354" lon="9.8607958"><ele>416.75</ele><time>2026-05-01T09:29:51.26Z</time></trkpt><trkpt lat="46.1765629" lon="9.8606064"><ele>417.5</ele><time>2026-05-01T09:29:52.259Z</time></trkpt><trkpt lat="46.1765543" lon="9.8604294"><ele>418.25</ele><time>2026-05-01T09:29:53.253Z</time></trkpt><trkpt lat="46.1765185" lon="9.8602596"><ele>419.0</ele><time>2026-05-01T09:29:54.256Z</time></trkpt><trkpt lat="46.1764381" lon="9.8600714"><ele>420.3333333333333</ele><time>2026-05-01T09:29:55.269Z</time></trkpt><trkpt lat="46.1763112" lon="9.8599079"><ele>421.66666666666663</ele><time>2026-05-01T09:29:56.264Z</time></trkpt><trkpt lat="46.1762012" lon="9.8597523"><ele>423.0</ele><time>2026-05-01T09:29:57.273Z</time></trkpt><trkpt lat="46.1761128" lon="9.8595795"><ele>423.0</ele><time>2026-05-01T09:29:58.258Z</time></trkpt><trkpt lat="46.1760217" lon="9.8593971"><ele>423.0</ele><time>2026-05-01T09:29:59.273Z</time></trkpt><trkpt lat="46.1759354" lon="9.8592213"><ele>423.0</ele><time>2026-05-01T09:30:00.258Z</time></trkpt><trkpt lat="46.1758462" lon="9.8590573"><ele>423.0</ele><time>2026-05-01T09:30:01.253Z</time></trkpt><trkpt lat="46.1757525" lon="9.8589391"><ele>428.59999999999997</ele><time>2026-05-01T09:30:02.253Z</time></trkpt><trkpt lat="46.1756467" lon="9.8588684"><ele>434.2</ele><time>2026-05-01T09:30:03.261Z</time></trkpt><trkpt lat="46.1755461" lon="9.8588037"><ele>439.8</ele><time>2026-05-01T09:30:04.25Z</time></trkpt><trkpt lat="46.1754574" lon="9.858724"><ele>445.4</ele><time>2026-05-01T09:30:05.248Z</time></trkpt><trkpt lat="46.1753905" lon="9.8586448"><ele>451.0</ele><time>2026-05-01T09:30:06.254Z</time></trkpt><trkpt lat="46.1753636" lon="9.8585562"><ele>450.0</ele><time>2026-05-01T09:30:07.252Z</time></trkpt><trkpt lat="46.1754114" lon="9.8584366"><ele>449.0</ele><time>2026-05-01T09:30:08.242Z</time></trkpt><trkpt lat="46.1754849" lon="9.8583921"><ele>448.0</ele><time>2026-05-01T09:30:09.255Z</time></trkpt><trkpt lat="46.1755925" lon="9.8583815"><ele>447.0</ele><time>2026-05-01T09:30:10.239Z</time></trkpt><trkpt lat="46.1756995" lon="9.8584237"><ele>446.0</ele><time>2026-05-01T09:30:11.246Z</time></trkpt><trkpt lat="46.1758198" lon="9.8585042"><ele>442.0</ele><time>2026-05-01T09:30:12.257Z</time></trkpt><trkpt lat="46.1759551" lon="9.858614"><ele>438.0</ele><time>2026-05-01T09:30:13.25Z</time></trkpt><trkpt lat="46.1761346" lon="9.8587966"><ele>434.0</ele><time>2026-05-01T09:30:14.256Z</time></trkpt><trkpt lat="46.1763254" lon="9.858938"><ele>434.0</ele><time>2026-05-01T09:30:15.248Z</time></trkpt><trkpt lat="46.176496" lon="9.859055"><ele>434.0</ele><time>2026-05-01T09:30:16.247Z</time></trkpt><trkpt lat="46.1766296" lon="9.8592469"><ele>434.0</ele><time>2026-05-01T09:30:17.257Z</time></trkpt><trkpt lat="46.1767534" lon="9.8594448"><ele>434.66666666666663</ele><time>2026-05-01T09:30:18.262Z</time></trkpt><trkpt lat="46.1768586" lon="9.8596356"><ele>435.33333333333337</ele><time>2026-05-01T09:30:19.267Z</time></trkpt><trkpt lat="46.1769605" lon="9.8598308"><ele>436.0</ele><time>2026-05-01T09:30:20.261Z</time></trkpt><trkpt lat="46.1770462" lon="9.8600438"><ele>431.33333333333337</ele><time>2026-05-01T09:30:21.259Z</time></trkpt><trkpt lat="46.1771233" lon="9.8602569"><ele>426.66666666666663</ele><time>2026-05-01T09:30:22.261Z</time></trkpt><trkpt lat="46.1772272" lon="9.8604732"><ele>422.0</ele><time>2026-05-01T09:30:23.259Z</time></trkpt><trkpt lat="46.1773323" lon="9.8606763"><ele>426.0</ele><time>2026-05-01T09:30:24.273Z</time></trkpt><trkpt lat="46.1774115" lon="9.8608852"><ele>430.0</ele><time>2026-05-01T09:30:25.255Z</time></trkpt><trkpt lat="46.1775212" lon="9.8610906"><ele>434.0</ele><time>2026-05-01T09:30:26.259Z</time></trkpt><trkpt lat="46.1776363" lon="9.8612715"><ele>434.0</ele><time>2026-05-01T09:30:27.265Z</time></trkpt><trkpt lat="46.177753" lon="9.8614343"><ele>434.0</ele><time>2026-05-01T09:30:28.255Z</time></trkpt><trkpt lat="46.1778598" lon="9.8615788"><ele>434.0</ele><time>2026-05-01T09:30:29.265Z</time></trkpt><trkpt lat="46.1779845" lon="9.8617282"><ele>431.66666666666663</ele><time>2026-05-01T09:30:30.265Z</time></trkpt><trkpt lat="46.1781168" lon="9.8618839"><ele>429.33333333333337</ele><time>2026-05-01T09:30:31.255Z</time></trkpt><trkpt lat="46.1782444" lon="9.8620342"><ele>427.0</ele><time>2026-05-01T09:30:32.258Z</time></trkpt><trkpt lat="46.1783902" lon="9.8621819"><ele>431.6666666666667</ele><time>2026-05-01T09:30:33.262Z</time></trkpt><trkpt lat="46.1785293" lon="9.8623333"><ele>436.33333333333337</ele><time>2026-05-01T09:30:34.254Z</time></trkpt><trkpt lat="46.1786688" lon="9.8624973"><ele>441.0</ele><time>2026-05-01T09:30:35.256Z</time></trkpt><trkpt lat="46.1787982" lon="9.8626664"><ele>441.0</ele><time>2026-05-01T09:30:36.253Z</time></trkpt><trkpt lat="46.1789199" lon="9.8628357"><ele>441.0</ele><time>2026-05-01T09:30:37.258Z</time></trkpt><trkpt lat="46.1790514" lon="9.8629985"><ele>441.0</ele><time>2026-05-01T09:30:38.264Z</time></trkpt><trkpt lat="46.1791945" lon="9.863168"><ele>445.0</ele><time>2026-05-01T09:30:39.26Z</time></trkpt><trkpt lat="46.1793386" lon="9.863351"><ele>449.0</ele><time>2026-05-01T09:30:40.258Z</time></trkpt><trkpt lat="46.1794775" lon="9.8635019"><ele>453.0</ele><time>2026-05-01T09:30:41.264Z</time></trkpt><trkpt lat="46.1796055" lon="9.8636496"><ele>453.0</ele><time>2026-05-01T09:30:42.255Z</time></trkpt><trkpt lat="46.1797365" lon="9.8637821"><ele>453.0</ele><time>2026-05-01T09:30:43.258Z</time></trkpt><trkpt lat="46.1798489" lon="9.8639403"><ele>453.0</ele><time>2026-05-01T09:30:44.259Z</time></trkpt><trkpt lat="46.1799626" lon="9.8640893"><ele>457.25</ele><time>2026-05-01T09:30:45.256Z</time></trkpt><trkpt lat="46.180058" lon="9.8642403"><ele>461.5</ele><time>2026-05-01T09:30:46.261Z</time></trkpt><trkpt lat="46.1801569" lon="9.8643738"><ele>465.75</ele><time>2026-05-01T09:30:47.26Z</time></trkpt><trkpt lat="46.1802599" lon="9.8645165"><ele>470.0</ele><time>2026-05-01T09:30:48.257Z</time></trkpt><trkpt lat="46.1803687" lon="9.8646516"><ele>470.0</ele><time>2026-05-01T09:30:49.266Z</time></trkpt><trkpt lat="46.1804818" lon="9.8647783"><ele>470.0</ele><time>2026-05-01T09:30:50.257Z</time></trkpt><trkpt lat="46.1806056" lon="9.8648864"><ele>470.0</ele><time>2026-05-01T09:30:51.252Z</time></trkpt><trkpt lat="46.18072" lon="9.8649842"><ele>470.0</ele><time>2026-05-01T09:30:52.258Z</time></trkpt><trkpt lat="46.1808524" lon="9.8650747"><ele>469.25</ele><time>2026-05-01T09:30:53.261Z</time></trkpt><trkpt lat="46.1809851" lon="9.8651552"><ele>468.5</ele><time>2026-05-01T09:30:54.26Z</time></trkpt><trkpt lat="46.1811105" lon="9.8652082"><ele>467.75</ele><time>2026-05-01T09:30:55.254Z</time></trkpt><trkpt lat="46.1812584" lon="9.8652713"><ele>467.0</ele><time>2026-05-01T09:30:56.254Z</time></trkpt><trkpt lat="46.181403" lon="9.8653202"><ele>467.0</ele><time>2026-05-01T09:30:57.253Z</time></trkpt><trkpt lat="46.1815128" lon="9.8653847"><ele>467.0</ele><time>2026-05-01T09:30:58.258Z</time></trkpt><trkpt lat="46.1816463" lon="9.8653822"><ele>467.0</ele><time>2026-05-01T09:30:59.252Z</time></trkpt><trkpt lat="46.181781" lon="9.8653943"><ele>467.0</ele><time>2026-05-01T09:31:00.263Z</time></trkpt><trkpt lat="46.1819248" lon="9.8654029"><ele>468.25</ele><time>2026-05-01T09:31:01.264Z</time></trkpt><trkpt lat="46.1820802" lon="9.8654128"><ele>469.5</ele><time>2026-05-01T09:31:02.253Z</time></trkpt><trkpt lat="46.1822335" lon="9.8654123"><ele>470.75</ele><time>2026-05-01T09:31:03.258Z</time></trkpt><trkpt lat="46.1823734" lon="9.8654302"><ele>472.0</ele><time>2026-05-01T09:31:04.26Z</time></trkpt><trkpt lat="46.1825113" lon="9.8654301"><ele>473.75</ele><time>2026-05-01T09:31:05.254Z</time></trkpt><trkpt lat="46.1826611" lon="9.8654482"><ele>475.5</ele><time>2026-05-01T09:31:06.258Z</time></trkpt><trkpt lat="46.1827983" lon="9.8654604"><ele>477.25</ele><time>2026-05-01T09:31:07.252Z</time></trkpt><trkpt lat="46.1829254" lon="9.8654565"><ele>479.0</ele><time>2026-05-01T09:31:08.255Z</time></trkpt><trkpt lat="46.1830595" lon="9.8654642"><ele>480.5</ele><time>2026-05-01T09:31:09.258Z</time></trkpt><trkpt lat="46.183191" lon="9.8655069"><ele>482.0</ele><time>2026-05-01T09:31:10.251Z</time></trkpt><trkpt lat="46.1833295" lon="9.8655371"><ele>483.5</ele><time>2026-05-01T09:31:11.26Z</time></trkpt><trkpt lat="46.1834717" lon="9.8655565"><ele>485.0</ele><time>2026-05-01T09:31:12.258Z</time></trkpt><trkpt lat="46.1836355" lon="9.8655876"><ele>485.0</ele><time>2026-05-01T09:31:13.254Z</time></trkpt><trkpt lat="46.1837896" lon="9.8656187"><ele>485.0</ele><time>2026-05-01T09:31:14.259Z</time></trkpt><trkpt lat="46.1839582" lon="9.8656564"><ele>485.0</ele><time>2026-05-01T09:31:15.265Z</time></trkpt><trkpt lat="46.1841178" lon="9.8657252"><ele>488.3333333333333</ele><time>2026-05-01T09:31:16.258Z</time></trkpt><trkpt lat="46.1842882" lon="9.8657809"><ele>491.66666666666663</ele><time>2026-05-01T09:31:17.262Z</time></trkpt><trkpt lat="46.1844573" lon="9.8658278"><ele>495.0</ele><time>2026-05-01T09:31:18.265Z</time></trkpt><trkpt lat="46.1846144" lon="9.8658425"><ele>495.0</ele><time>2026-05-01T09:31:19.259Z</time></trkpt><trkpt lat="46.1847796" lon="9.8658169"><ele>495.0</ele><time>2026-05-01T09:31:20.254Z</time></trkpt><trkpt lat="46.18496" lon="9.8657968"><ele>495.0</ele><time>2026-05-01T09:31:21.261Z</time></trkpt><trkpt lat="46.1851349" lon="9.8657585"><ele>499.66666666666663</ele><time>2026-05-01T09:31:22.253Z</time></trkpt><trkpt lat="46.1853054" lon="9.8656999"><ele>504.3333333333333</ele><time>2026-05-01T09:31:23.258Z</time></trkpt><trkpt lat="46.1854736" lon="9.8656169"><ele>509.0</ele><time>2026-05-01T09:31:24.255Z</time></trkpt><trkpt lat="46.1856251" lon="9.8655718"><ele>510.0</ele><time>2026-05-01T09:31:25.248Z</time></trkpt><trkpt lat="46.1857756" lon="9.865543"><ele>511.0</ele><time>2026-05-01T09:31:26.248Z</time></trkpt><trkpt lat="46.1859135" lon="9.8655583"><ele>512.0</ele><time>2026-05-01T09:31:27.247Z</time></trkpt><trkpt lat="46.186054" lon="9.8655947"><ele>513.0</ele><time>2026-05-01T09:31:28.249Z</time></trkpt><trkpt lat="46.1862082" lon="9.8656187"><ele>513.0</ele><time>2026-05-01T09:31:29.246Z</time></trkpt><trkpt lat="46.1863749" lon="9.8656265"><ele>513.0</ele><time>2026-05-01T09:31:30.253Z</time></trkpt><trkpt lat="46.1865351" lon="9.8656574"><ele>513.0</ele><time>2026-05-01T09:31:31.25Z</time></trkpt><trkpt lat="46.1866516" lon="9.8657407"><ele>515.75</ele><time>2026-05-01T09:31:32.245Z</time></trkpt><trkpt lat="46.1867554" lon="9.8658147"><ele>518.5</ele><time>2026-05-01T09:31:33.246Z</time></trkpt><trkpt lat="46.1868782" lon="9.8658663"><ele>521.25</ele><time>2026-05-01T09:31:34.243Z</time></trkpt><trkpt lat="46.1870109" lon="9.8658734"><ele>524.0</ele><time>2026-05-01T09:31:35.244Z</time></trkpt><trkpt lat="46.1871617" lon="9.8658134"><ele>524.0</ele><time>2026-05-01T09:31:36.242Z</time></trkpt><trkpt lat="46.1873262" lon="9.8657926"><ele>524.0</ele><time>2026-05-01T09:31:37.246Z</time></trkpt><trkpt lat="46.1874975" lon="9.8657852"><ele>524.0</ele><time>2026-05-01T09:31:38.239Z</time></trkpt><trkpt lat="46.1876427" lon="9.8658283"><ele>527.3333333333333</ele><time>2026-05-01T09:31:39.251Z</time></trkpt><trkpt lat="46.1877643" lon="9.8658896"><ele>530.6666666666666</ele><time>2026-05-01T09:31:40.247Z</time></trkpt><trkpt lat="46.1879076" lon="9.8658485"><ele>534.0</ele><time>2026-05-01T09:31:41.244Z</time></trkpt><trkpt lat="46.1880822" lon="9.8658152"><ele>537.0</ele><time>2026-05-01T09:31:42.244Z</time></trkpt><trkpt lat="46.1882549" lon="9.8657753"><ele>540.0</ele><time>2026-05-01T09:31:43.239Z</time></trkpt><trkpt lat="46.1884288" lon="9.8657556"><ele>543.0</ele><time>2026-05-01T09:31:44.249Z</time></trkpt><trkpt lat="46.188604" lon="9.8657164"><ele>543.0</ele><time>2026-05-01T09:31:45.25Z</time></trkpt><trkpt lat="46.1887848" lon="9.8656736"><ele>543.0</ele><time>2026-05-01T09:31:46.243Z</time></trkpt><trkpt lat="46.1889525" lon="9.8657183"><ele>543.0</ele><time>2026-05-01T09:31:47.251Z</time></trkpt><trkpt lat="46.1890791" lon="9.8658493"><ele>545.6666666666666</ele><time>2026-05-01T09:31:48.254Z</time></trkpt><trkpt lat="46.1892399" lon="9.8659353"><ele>548.3333333333333</ele><time>2026-05-01T09:31:49.244Z</time></trkpt><trkpt lat="46.1893985" lon="9.8660406"><ele>551.0</ele><time>2026-05-01T09:31:50.252Z</time></trkpt><trkpt lat="46.1895594" lon="9.8661182"><ele>546.6666666666666</ele><time>2026-05-01T09:31:51.246Z</time></trkpt><trkpt lat="46.1897652" lon="9.8661416"><ele>542.3333333333334</ele><time>2026-05-01T09:31:52.251Z</time></trkpt><trkpt lat="46.1899754" lon="9.8661644"><ele>538.0</ele><time>2026-05-01T09:31:53.251Z</time></trkpt><trkpt lat="46.1901713" lon="9.8661946"><ele>538.0</ele><time>2026-05-01T09:31:54.246Z</time></trkpt><trkpt lat="46.1903574" lon="9.8662227"><ele>538.0</ele><time>2026-05-01T09:31:55.254Z</time></trkpt><trkpt lat="46.190525" lon="9.8662561"><ele>538.0</ele><time>2026-05-01T09:31:56.251Z</time></trkpt><trkpt lat="46.1907002" lon="9.8662188"><ele>540.3333333333334</ele><time>2026-05-01T09:31:57.239Z</time></trkpt><trkpt lat="46.1908559" lon="9.8661751"><ele>542.6666666666666</ele><time>2026-05-01T09:31:58.258Z</time></trkpt><trkpt lat="46.1910208" lon="9.8661117"><ele>545.0</ele><time>2026-05-01T09:31:59.249Z</time></trkpt><trkpt lat="46.1911773" lon="9.8660416"><ele>545.0</ele><time>2026-05-01T09:32:00.247Z</time></trkpt><trkpt lat="46.1913668" lon="9.8659791"><ele>545.0</ele><time>2026-05-01T09:32:01.25Z</time></trkpt><trkpt lat="46.1915555" lon="9.8659313"><ele>545.0</ele><time>2026-05-01T09:32:02.252Z</time></trkpt><trkpt lat="46.191722" lon="9.865891"><ele>552.25</ele><time>2026-05-01T09:32:03.248Z</time></trkpt><trkpt lat="46.1918902" lon="9.8658374"><ele>559.5</ele><time>2026-05-01T09:32:04.248Z</time></trkpt><trkpt lat="46.192042" lon="9.865805"><ele>566.75</ele><time>2026-05-01T09:32:05.244Z</time></trkpt><trkpt lat="46.192152" lon="9.8657327"><ele>574.0</ele><time>2026-05-01T09:32:06.248Z</time></trkpt><trkpt lat="46.1922397" lon="9.8656537"><ele>574.0</ele><time>2026-05-01T09:32:07.249Z</time></trkpt><trkpt lat="46.1923306" lon="9.8655666"><ele>574.0</ele><time>2026-05-01T09:32:08.246Z</time></trkpt><trkpt lat="46.1924223" lon="9.865547"><ele>574.0</ele><time>2026-05-01T09:32:09.251Z</time></trkpt><trkpt lat="46.1925152" lon="9.8655567"><ele>574.0</ele><time>2026-05-01T09:32:10.248Z</time></trkpt><trkpt lat="46.1926698" lon="9.8656622"><ele>573.5</ele><time>2026-05-01T09:32:12.241Z</time></trkpt><trkpt lat="46.1927633" lon="9.8658428"><ele>573.0</ele><time>2026-05-01T09:32:13.256Z</time></trkpt><trkpt lat="46.192818" lon="9.8659769"><ele>572.5</ele><time>2026-05-01T09:32:14.234Z</time></trkpt><trkpt lat="46.1928553" lon="9.8661415"><ele>572.0</ele><time>2026-05-01T09:32:15.24Z</time></trkpt><trkpt lat="46.1929042" lon="9.866276"><ele>568.75</ele><time>2026-05-01T09:32:16.242Z</time></trkpt><trkpt lat="46.1929708" lon="9.8663989"><ele>565.5</ele><time>2026-05-01T09:32:17.241Z</time></trkpt><trkpt lat="46.1930657" lon="9.8664855"><ele>562.25</ele><time>2026-05-01T09:32:18.244Z</time></trkpt><trkpt lat="46.1931827" lon="9.8665295"><ele>559.0</ele><time>2026-05-01T09:32:19.245Z</time></trkpt><trkpt lat="46.1933201" lon="9.8665451"><ele>559.0</ele><time>2026-05-01T09:32:20.248Z</time></trkpt><trkpt lat="46.1934725" lon="9.8665352"><ele>559.0</ele><time>2026-05-01T09:32:21.247Z</time></trkpt><trkpt lat="46.1936256" lon="9.8665042"><ele>559.0</ele><time>2026-05-01T09:32:22.241Z</time></trkpt><trkpt lat="46.1937866" lon="9.8664513"><ele>559.0</ele><time>2026-05-01T09:32:23.25Z</time></trkpt><trkpt lat="46.1939331" lon="9.8663705"><ele>559.0</ele><time>2026-05-01T09:32:24.241Z</time></trkpt><trkpt lat="46.1940614" lon="9.866255"><ele>559.0</ele><time>2026-05-01T09:32:25.245Z</time></trkpt><trkpt lat="46.1941982" lon="9.8661383"><ele>560.3333333333334</ele><time>2026-05-01T09:32:26.241Z</time></trkpt><trkpt lat="46.1943329" lon="9.866085"><ele>561.6666666666666</ele><time>2026-05-01T09:32:27.244Z</time></trkpt><trkpt lat="46.1944993" lon="9.8660314"><ele>563.0</ele><time>2026-05-01T09:32:28.24Z</time></trkpt><trkpt lat="46.1946372" lon="9.8659613"><ele>564.25</ele><time>2026-05-01T09:32:29.243Z</time></trkpt><trkpt lat="46.1947736" lon="9.8659422"><ele>565.5</ele><time>2026-05-01T09:32:30.241Z</time></trkpt><trkpt lat="46.1949366" lon="9.8659326"><ele>566.75</ele><time>2026-05-01T09:32:31.242Z</time></trkpt><trkpt lat="46.1950718" lon="9.8660036"><ele>568.0</ele><time>2026-05-01T09:32:32.244Z</time></trkpt><trkpt lat="46.1952117" lon="9.8660959"><ele>568.0</ele><time>2026-05-01T09:32:33.245Z</time></trkpt><trkpt lat="46.1953209" lon="9.8662227"><ele>568.0</ele><time>2026-05-01T09:32:34.244Z</time></trkpt><trkpt lat="46.1953993" lon="9.8663203"><ele>568.0</ele><time>2026-05-01T09:32:35.244Z</time></trkpt><trkpt lat="46.1954867" lon="9.8663731"><ele>568.0</ele><time>2026-05-01T09:32:36.24Z</time></trkpt><trkpt lat="46.1955907" lon="9.8663796"><ele>568.0</ele><time>2026-05-01T09:32:37.241Z</time></trkpt><trkpt lat="46.1956881" lon="9.8663584"><ele>568.5</ele><time>2026-05-01T09:32:38.241Z</time></trkpt><trkpt lat="46.1957979" lon="9.8662972"><ele>569.0</ele><time>2026-05-01T09:32:39.244Z</time></trkpt><trkpt lat="46.1959051" lon="9.8661779"><ele>569.5</ele><time>2026-05-01T09:32:40.245Z</time></trkpt><trkpt lat="46.1959918" lon="9.8660391"><ele>570.0</ele><time>2026-05-01T09:32:41.25Z</time></trkpt><trkpt lat="46.1960696" lon="9.8659223"><ele>570.0</ele><time>2026-05-01T09:32:42.243Z</time></trkpt><trkpt lat="46.1961467" lon="9.8659021"><ele>570.0</ele><time>2026-05-01T09:32:43.246Z</time></trkpt><trkpt lat="46.1962344" lon="9.8659335"><ele>570.0</ele><time>2026-05-01T09:32:44.242Z</time></trkpt><trkpt lat="46.1963178" lon="9.8660219"><ele>570.0</ele><time>2026-05-01T09:32:45.241Z</time></trkpt><trkpt lat="46.1963812" lon="9.866156"><ele>570.0</ele><time>2026-05-01T09:32:46.243Z</time></trkpt><trkpt lat="46.1964657" lon="9.8662426"><ele>571.8</ele><time>2026-05-01T09:32:47.238Z</time></trkpt><trkpt lat="46.196547" lon="9.8662885"><ele>573.6</ele><time>2026-05-01T09:32:48.246Z</time></trkpt><trkpt lat="46.1966357" lon="9.8662777"><ele>575.4</ele><time>2026-05-01T09:32:49.246Z</time></trkpt><trkpt lat="46.1967279" lon="9.8662113"><ele>577.2</ele><time>2026-05-01T09:32:50.242Z</time></trkpt><trkpt lat="46.1968291" lon="9.8661193"><ele>579.0</ele><time>2026-05-01T09:32:51.246Z</time></trkpt><trkpt lat="46.1969646" lon="9.8660171"><ele>588.0</ele><time>2026-05-01T09:32:52.237Z</time></trkpt><trkpt lat="46.1971432" lon="9.8659343"><ele>597.0</ele><time>2026-05-01T09:32:53.237Z</time></trkpt><trkpt lat="46.1973698" lon="9.8658985"><ele>606.0</ele><time>2026-05-01T09:32:54.24Z</time></trkpt><trkpt lat="46.19757" lon="9.8659067"><ele>598.3333333333334</ele><time>2026-05-01T09:32:55.233Z</time></trkpt><trkpt lat="46.1977739" lon="9.865957"><ele>590.6666666666667</ele><time>2026-05-01T09:32:56.236Z</time></trkpt><trkpt lat="46.1979882" lon="9.8659763"><ele>583.0</ele><time>2026-05-01T09:32:57.24Z</time></trkpt><trkpt lat="46.1981829" lon="9.8660259"><ele>583.0</ele><time>2026-05-01T09:32:58.243Z</time></trkpt><trkpt lat="46.1983631" lon="9.8661235"><ele>583.0</ele><time>2026-05-01T09:32:59.244Z</time></trkpt><trkpt lat="46.1985351" lon="9.8662228"><ele>583.0</ele><time>2026-05-01T09:33:00.244Z</time></trkpt><trkpt lat="46.1986851" lon="9.8662959"><ele>583.0</ele><time>2026-05-01T09:33:01.24Z</time></trkpt><trkpt lat="46.198831" lon="9.8663723"><ele>583.0</ele><time>2026-05-01T09:33:02.242Z</time></trkpt><trkpt lat="46.1989844" lon="9.8664267"><ele>583.0</ele><time>2026-05-01T09:33:03.248Z</time></trkpt><trkpt lat="46.1991493" lon="9.8664703"><ele>587.25</ele><time>2026-05-01T09:33:04.249Z</time></trkpt><trkpt lat="46.1992929" lon="9.8665141"><ele>591.5</ele><time>2026-05-01T09:33:05.236Z</time></trkpt><trkpt lat="46.1994432" lon="9.8664853"><ele>595.75</ele><time>2026-05-01T09:33:06.25Z</time></trkpt><trkpt lat="46.1995885" lon="9.8664697"><ele>600.0</ele><time>2026-05-01T09:33:07.247Z</time></trkpt><trkpt lat="46.1997426" lon="9.8664608"><ele>605.3333333333334</ele><time>2026-05-01T09:33:08.244Z</time></trkpt><trkpt lat="46.199889" lon="9.866506"><ele>610.6666666666667</ele><time>2026-05-01T09:33:09.244Z</time></trkpt><trkpt lat="46.2000468" lon="9.8665451"><ele>616.0</ele><time>2026-05-01T09:33:10.248Z</time></trkpt><trkpt lat="46.2001941" lon="9.8666491"><ele>613.0</ele><time>2026-05-01T09:33:11.244Z</time></trkpt><trkpt lat="46.2003165" lon="9.8668061"><ele>610.0</ele><time>2026-05-01T09:33:12.259Z</time></trkpt><trkpt lat="46.2004479" lon="9.8669168"><ele>607.0</ele><time>2026-05-01T09:33:13.256Z</time></trkpt><trkpt lat="46.2005991" lon="9.8670185"><ele>611.3333333333334</ele><time>2026-05-01T09:33:14.262Z</time></trkpt><trkpt lat="46.2007369" lon="9.8671457"><ele>615.6666666666666</ele><time>2026-05-01T09:33:15.255Z</time></trkpt><trkpt lat="46.2008908" lon="9.8672405"><ele>620.0</ele><time>2026-05-01T09:33:16.255Z</time></trkpt><trkpt lat="46.2010281" lon="9.8673681"><ele>620.0</ele><time>2026-05-01T09:33:17.256Z</time></trkpt><trkpt lat="46.2011873" lon="9.8674909"><ele>620.0</ele><time>2026-05-01T09:33:18.262Z</time></trkpt><trkpt lat="46.2013369" lon="9.8676407"><ele>620.0</ele><time>2026-05-01T09:33:19.247Z</time></trkpt><trkpt lat="46.2014832" lon="9.8678055"><ele>611.0</ele><time>2026-05-01T09:33:20.261Z</time></trkpt><trkpt lat="46.2016348" lon="9.8679709"><ele>602.0</ele><time>2026-05-01T09:33:21.242Z</time></trkpt><trkpt lat="46.2017946" lon="9.8681262"><ele>593.0</ele><time>2026-05-01T09:33:22.253Z</time></trkpt><trkpt lat="46.2019465" lon="9.8682838"><ele>593.0</ele><time>2026-05-01T09:33:23.25Z</time></trkpt><trkpt lat="46.2020939" lon="9.8684219"><ele>593.0</ele><time>2026-05-01T09:33:24.259Z</time></trkpt><trkpt lat="46.2022356" lon="9.8685686"><ele>593.0</ele><time>2026-05-01T09:33:25.253Z</time></trkpt><trkpt lat="46.2023692" lon="9.8687115"><ele>592.6666666666666</ele><time>2026-05-01T09:33:26.248Z</time></trkpt><trkpt lat="46.2025001" lon="9.8688324"><ele>592.3333333333334</ele><time>2026-05-01T09:33:27.247Z</time></trkpt><trkpt lat="46.2026281" lon="9.8689518"><ele>592.0</ele><time>2026-05-01T09:33:28.253Z</time></trkpt><trkpt lat="46.2027478" lon="9.869092"><ele>592.0</ele><time>2026-05-01T09:33:29.256Z</time></trkpt><trkpt lat="46.2028855" lon="9.8692281"><ele>592.0</ele><time>2026-05-01T09:33:30.257Z</time></trkpt><trkpt lat="46.2030188" lon="9.8693241"><ele>592.0</ele><time>2026-05-01T09:33:31.261Z</time></trkpt><trkpt lat="46.2031374" lon="9.8694084"><ele>592.0</ele><time>2026-05-01T09:33:32.255Z</time></trkpt><trkpt lat="46.2032792" lon="9.8694711"><ele>603.6666666666667</ele><time>2026-05-01T09:33:33.256Z</time></trkpt><trkpt lat="46.203436" lon="9.8695259"><ele>615.3333333333334</ele><time>2026-05-01T09:33:34.251Z</time></trkpt><trkpt lat="46.2035909" lon="9.8695888"><ele>627.0</ele><time>2026-05-01T09:33:35.254Z</time></trkpt><trkpt lat="46.2037284" lon="9.8696723"><ele>627.0</ele><time>2026-05-01T09:33:36.25Z</time></trkpt><trkpt lat="46.2038654" lon="9.8697519"><ele>627.0</ele><time>2026-05-01T09:33:37.254Z</time></trkpt><trkpt lat="46.2039866" lon="9.8698497"><ele>627.0</ele><time>2026-05-01T09:33:38.248Z</time></trkpt><trkpt lat="46.204103" lon="9.8699191"><ele>627.0</ele><time>2026-05-01T09:33:39.252Z</time></trkpt><trkpt lat="46.2042011" lon="9.8699332"><ele>630.75</ele><time>2026-05-01T09:33:40.241Z</time></trkpt><trkpt lat="46.204296" lon="9.8699225"><ele>634.5</ele><time>2026-05-01T09:33:41.248Z</time></trkpt><trkpt lat="46.2043997" lon="9.8698651"><ele>638.25</ele><time>2026-05-01T09:33:42.25Z</time></trkpt><trkpt lat="46.2045023" lon="9.8697715"><ele>642.0</ele><time>2026-05-01T09:33:43.25Z</time></trkpt><trkpt lat="46.2046166" lon="9.8696729"><ele>642.0</ele><time>2026-05-01T09:33:44.259Z</time></trkpt><trkpt lat="46.2047506" lon="9.8695367"><ele>642.0</ele><time>2026-05-01T09:33:45.245Z</time></trkpt><trkpt lat="46.2048909" lon="9.8694151"><ele>642.0</ele><time>2026-05-01T09:33:46.255Z</time></trkpt><trkpt lat="46.205043" lon="9.869327"><ele>642.6666666666666</ele><time>2026-05-01T09:33:47.249Z</time></trkpt><trkpt lat="46.2051912" lon="9.8692057"><ele>643.3333333333333</ele><time>2026-05-01T09:33:48.261Z</time></trkpt><trkpt lat="46.2053528" lon="9.8690928"><ele>644.0</ele><time>2026-05-01T09:33:49.25Z</time></trkpt><trkpt lat="46.2055232" lon="9.8689775"><ele>641.0</ele><time>2026-05-01T09:33:50.259Z</time></trkpt><trkpt lat="46.205689" lon="9.8688666"><ele>638.0</ele><time>2026-05-01T09:33:51.252Z</time></trkpt><trkpt lat="46.2058597" lon="9.8687425"><ele>635.0</ele><time>2026-05-01T09:33:52.257Z</time></trkpt><trkpt lat="46.2060311" lon="9.8686388"><ele>635.0</ele><time>2026-05-01T09:33:53.247Z</time></trkpt><trkpt lat="46.2062185" lon="9.8685164"><ele>635.0</ele><time>2026-05-01T09:33:54.281Z</time></trkpt><trkpt lat="46.2063933" lon="9.8683922"><ele>635.0</ele><time>2026-05-01T09:33:55.264Z</time></trkpt><trkpt lat="46.2065597" lon="9.8682547"><ele>640.3333333333333</ele><time>2026-05-01T09:33:56.257Z</time></trkpt><trkpt lat="46.2067177" lon="9.8681188"><ele>645.6666666666666</ele><time>2026-05-01T09:33:57.25Z</time></trkpt><trkpt lat="46.2069048" lon="9.8679993"><ele>651.0</ele><time>2026-05-01T09:33:58.257Z</time></trkpt><trkpt lat="46.2070928" lon="9.8678628"><ele>651.0</ele><time>2026-05-01T09:33:59.261Z</time></trkpt><trkpt lat="46.2072802" lon="9.8677388"><ele>651.0</ele><time>2026-05-01T09:34:00.252Z</time></trkpt><trkpt lat="46.2074595" lon="9.8676161"><ele>651.0</ele><time>2026-05-01T09:34:01.261Z</time></trkpt><trkpt lat="46.207615" lon="9.8674765"><ele>656.6666666666666</ele><time>2026-05-01T09:34:02.247Z</time></trkpt><trkpt lat="46.2077822" lon="9.8673892"><ele>662.3333333333333</ele><time>2026-05-01T09:34:03.247Z</time></trkpt><trkpt lat="46.2079202" lon="9.8673568"><ele>668.0</ele><time>2026-05-01T09:34:04.247Z</time></trkpt><trkpt lat="46.2080965" lon="9.8673477"><ele>666.6666666666666</ele><time>2026-05-01T09:34:05.247Z</time></trkpt><trkpt lat="46.2082692" lon="9.8673703"><ele>665.3333333333334</ele><time>2026-05-01T09:34:06.257Z</time></trkpt><trkpt lat="46.208441" lon="9.8673857"><ele>664.0</ele><time>2026-05-01T09:34:07.245Z</time></trkpt><trkpt lat="46.2086084" lon="9.8674076"><ele>664.0</ele><time>2026-05-01T09:34:08.253Z</time></trkpt><trkpt lat="46.2087797" lon="9.867395"><ele>664.0</ele><time>2026-05-01T09:34:09.245Z</time></trkpt><trkpt lat="46.2089873" lon="9.8673576"><ele>664.0</ele><time>2026-05-01T09:34:10.253Z</time></trkpt><trkpt lat="46.2091762" lon="9.8672726"><ele>662.3333333333334</ele><time>2026-05-01T09:34:11.239Z</time></trkpt><trkpt lat="46.2093611" lon="9.8672057"><ele>660.6666666666666</ele><time>2026-05-01T09:34:12.261Z</time></trkpt><trkpt lat="46.2095459" lon="9.8671493"><ele>659.0</ele><time>2026-05-01T09:34:13.39Z</time></trkpt><trkpt lat="46.2097422" lon="9.867072"><ele>653.0</ele><time>2026-05-01T09:34:14.389Z</time></trkpt><trkpt lat="46.2099332" lon="9.8669961"><ele>647.0</ele><time>2026-05-01T09:34:15.394Z</time></trkpt><trkpt lat="46.2101211" lon="9.8669228"><ele>641.0</ele><time>2026-05-01T09:34:16.398Z</time></trkpt><trkpt lat="46.2103266" lon="9.8668724"><ele>641.0</ele><time>2026-05-01T09:34:17.398Z</time></trkpt><trkpt lat="46.2105348" lon="9.8667836"><ele>641.0</ele><time>2026-05-01T09:34:18.398Z</time></trkpt><trkpt lat="46.2107301" lon="9.8667188"><ele>641.0</ele><time>2026-05-01T09:34:19.384Z</time></trkpt><trkpt lat="46.2109158" lon="9.8666638"><ele>648.3333333333333</ele><time>2026-05-01T09:34:20.39Z</time></trkpt><trkpt lat="46.2110784" lon="9.866619"><ele>655.6666666666666</ele><time>2026-05-01T09:34:21.396Z</time></trkpt><trkpt lat="46.211246" lon="9.8665597"><ele>663.0</ele><time>2026-05-01T09:34:22.394Z</time></trkpt><trkpt lat="46.2114084" lon="9.8664952"><ele>657.5</ele><time>2026-05-01T09:34:23.399Z</time></trkpt><trkpt lat="46.2115753" lon="9.8664461"><ele>652.0</ele><time>2026-05-01T09:34:24.394Z</time></trkpt><trkpt lat="46.211935" lon="9.8663519"><ele>652.0</ele><time>2026-05-01T09:34:26.405Z</time></trkpt><trkpt lat="46.2123129" lon="9.8662062"><ele>652.0</ele><time>2026-05-01T09:34:28.275Z</time></trkpt><trkpt lat="46.2124751" lon="9.866118"><ele>648.6666666666667</ele><time>2026-05-01T09:34:29.275Z</time></trkpt><trkpt lat="46.2126248" lon="9.8660492"><ele>645.3333333333334</ele><time>2026-05-01T09:34:30.252Z</time></trkpt><trkpt lat="46.2127962" lon="9.8659489"><ele>642.0</ele><time>2026-05-01T09:34:31.256Z</time></trkpt><trkpt lat="46.2129497" lon="9.8658712"><ele>644.0</ele><time>2026-05-01T09:34:32.244Z</time></trkpt><trkpt lat="46.2131211" lon="9.8657658"><ele>646.0</ele><time>2026-05-01T09:34:33.251Z</time></trkpt><trkpt lat="46.2132858" lon="9.8656549"><ele>648.0</ele><time>2026-05-01T09:34:34.248Z</time></trkpt><trkpt lat="46.2134522" lon="9.8655442"><ele>648.0</ele><time>2026-05-01T09:34:35.252Z</time></trkpt><trkpt lat="46.2136183" lon="9.8654218"><ele>648.0</ele><time>2026-05-01T09:34:36.257Z</time></trkpt><trkpt lat="46.2137743" lon="9.8652909"><ele>648.0</ele><time>2026-05-01T09:34:37.243Z</time></trkpt><trkpt lat="46.2139237" lon="9.8651464"><ele>650.0</ele><time>2026-05-01T09:34:38.259Z</time></trkpt><trkpt lat="46.2140671" lon="9.8649883"><ele>652.0</ele><time>2026-05-01T09:34:39.246Z</time></trkpt><trkpt lat="46.2142044" lon="9.8648199"><ele>654.0</ele><time>2026-05-01T09:34:40.25Z</time></trkpt><trkpt lat="46.2143491" lon="9.8646403"><ele>654.0</ele><time>2026-05-01T09:34:41.254Z</time></trkpt><trkpt lat="46.2144949" lon="9.8644615"><ele>654.0</ele><time>2026-05-01T09:34:42.248Z</time></trkpt><trkpt lat="46.2146354" lon="9.864304"><ele>654.0</ele><time>2026-05-01T09:34:43.249Z</time></trkpt><trkpt lat="46.2147713" lon="9.8641524"><ele>651.6666666666666</ele><time>2026-05-01T09:34:44.25Z</time></trkpt><trkpt lat="46.2149367" lon="9.8640426"><ele>649.3333333333333</ele><time>2026-05-01T09:34:45.246Z</time></trkpt><trkpt lat="46.2150898" lon="9.8639188"><ele>647.0</ele><time>2026-05-01T09:34:46.254Z</time></trkpt><trkpt lat="46.2152544" lon="9.8638116"><ele>647.0</ele><time>2026-05-01T09:34:47.253Z</time></trkpt><trkpt lat="46.2154296" lon="9.863708"><ele>647.0</ele><time>2026-05-01T09:34:48.253Z</time></trkpt><trkpt lat="46.2155988" lon="9.8636155"><ele>647.0</ele><time>2026-05-01T09:34:49.248Z</time></trkpt><trkpt lat="46.2157609" lon="9.8635603"><ele>645.3333333333333</ele><time>2026-05-01T09:34:50.253Z</time></trkpt><trkpt lat="46.2159301" lon="9.8634955"><ele>643.6666666666666</ele><time>2026-05-01T09:34:51.246Z</time></trkpt><trkpt lat="46.2160933" lon="9.8633985"><ele>642.0</ele><time>2026-05-01T09:34:52.25Z</time></trkpt><trkpt lat="46.2162621" lon="9.8633155"><ele>642.6666666666666</ele><time>2026-05-01T09:34:53.251Z</time></trkpt><trkpt lat="46.2164405" lon="9.8632495"><ele>643.3333333333333</ele><time>2026-05-01T09:34:54.259Z</time></trkpt><trkpt lat="46.2166254" lon="9.8631948"><ele>644.0</ele><time>2026-05-01T09:34:55.252Z</time></trkpt><trkpt lat="46.2168017" lon="9.8631489"><ele>644.0</ele><time>2026-05-01T09:34:56.249Z</time></trkpt><trkpt lat="46.216984" lon="9.8630826"><ele>644.0</ele><time>2026-05-01T09:34:57.254Z</time></trkpt><trkpt lat="46.2171479" lon="9.8630003"><ele>644.0</ele><time>2026-05-01T09:34:58.255Z</time></trkpt><trkpt lat="46.2173083" lon="9.8628839"><ele>645.0</ele><time>2026-05-01T09:34:59.249Z</time></trkpt><trkpt lat="46.2174425" lon="9.8627347"><ele>646.0</ele><time>2026-05-01T09:35:00.266Z</time></trkpt><trkpt lat="46.2175782" lon="9.8625515"><ele>647.0</ele><time>2026-05-01T09:35:01.264Z</time></trkpt><trkpt lat="46.2176946" lon="9.8623625"><ele>651.3333333333333</ele><time>2026-05-01T09:35:02.259Z</time></trkpt><trkpt lat="46.2178173" lon="9.8621728"><ele>655.6666666666666</ele><time>2026-05-01T09:35:03.257Z</time></trkpt><trkpt lat="46.2179497" lon="9.8619687"><ele>660.0</ele><time>2026-05-01T09:35:04.252Z</time></trkpt><trkpt lat="46.2180734" lon="9.8617772"><ele>662.6666666666666</ele><time>2026-05-01T09:35:05.249Z</time></trkpt><trkpt lat="46.2181871" lon="9.8615863"><ele>665.3333333333333</ele><time>2026-05-01T09:35:06.247Z</time></trkpt><trkpt lat="46.2182999" lon="9.8614085"><ele>668.0</ele><time>2026-05-01T09:35:07.242Z</time></trkpt><trkpt lat="46.218425" lon="9.8613134"><ele>668.0</ele><time>2026-05-01T09:35:08.251Z</time></trkpt><trkpt lat="46.2185475" lon="9.8612407"><ele>668.0</ele><time>2026-05-01T09:35:09.237Z</time></trkpt><trkpt lat="46.2187059" lon="9.8612373"><ele>668.0</ele><time>2026-05-01T09:35:10.24Z</time></trkpt><trkpt lat="46.218856" lon="9.8612088"><ele>668.0</ele><time>2026-05-01T09:35:11.248Z</time></trkpt><trkpt lat="46.2190176" lon="9.8611923"><ele>664.75</ele><time>2026-05-01T09:35:12.25Z</time></trkpt><trkpt lat="46.2191746" lon="9.8611904"><ele>661.5</ele><time>2026-05-01T09:35:13.256Z</time></trkpt><trkpt lat="46.2192886" lon="9.8612137"><ele>658.25</ele><time>2026-05-01T09:35:14.249Z</time></trkpt><trkpt lat="46.2194083" lon="9.8612084"><ele>655.0</ele><time>2026-05-01T09:35:15.254Z</time></trkpt><trkpt lat="46.2195162" lon="9.8612172"><ele>655.0</ele><time>2026-05-01T09:35:16.252Z</time></trkpt><trkpt lat="46.219637" lon="9.8611627"><ele>655.0</ele><time>2026-05-01T09:35:17.254Z</time></trkpt><trkpt lat="46.2197491" lon="9.8610983"><ele>655.0</ele><time>2026-05-01T09:35:18.257Z</time></trkpt><trkpt lat="46.2198564" lon="9.86101"><ele>655.0</ele><time>2026-05-01T09:35:19.247Z</time></trkpt><trkpt lat="46.2199656" lon="9.860937"><ele>659.0</ele><time>2026-05-01T09:35:20.245Z</time></trkpt><trkpt lat="46.2200877" lon="9.860874"><ele>663.0</ele><time>2026-05-01T09:35:21.249Z</time></trkpt><trkpt lat="46.2202185" lon="9.8608243"><ele>667.0</ele><time>2026-05-01T09:35:22.252Z</time></trkpt><trkpt lat="46.2203553" lon="9.8607935"><ele>671.0</ele><time>2026-05-01T09:35:23.258Z</time></trkpt><trkpt lat="46.2205004" lon="9.8607945"><ele>671.0</ele><time>2026-05-01T09:35:24.249Z</time></trkpt><trkpt lat="46.220633" lon="9.8607927"><ele>671.0</ele><time>2026-05-01T09:35:25.251Z</time></trkpt><trkpt lat="46.2207618" lon="9.8608021"><ele>671.0</ele><time>2026-05-01T09:35:26.25Z</time></trkpt><trkpt lat="46.2208891" lon="9.860805"><ele>671.0</ele><time>2026-05-01T09:35:27.24Z</time></trkpt><trkpt lat="46.2210269" lon="9.8607656"><ele>670.3333333333333</ele><time>2026-05-01T09:35:28.243Z</time></trkpt><trkpt lat="46.2211858" lon="9.8606754"><ele>669.6666666666666</ele><time>2026-05-01T09:35:29.237Z</time></trkpt><trkpt lat="46.2213898" lon="9.8605563"><ele>669.0</ele><time>2026-05-01T09:35:30.245Z</time></trkpt><trkpt lat="46.221593" lon="9.8604544"><ele>668.0</ele><time>2026-05-01T09:35:31.241Z</time></trkpt><trkpt lat="46.2217742" lon="9.8603654"><ele>667.0</ele><time>2026-05-01T09:35:32.241Z</time></trkpt><trkpt lat="46.2219744" lon="9.8602894"><ele>666.0</ele><time>2026-05-01T09:35:33.233Z</time></trkpt><trkpt lat="46.2221912" lon="9.8602"><ele>668.0</ele><time>2026-05-01T09:35:34.238Z</time></trkpt><trkpt lat="46.22239" lon="9.860129"><ele>670.0</ele><time>2026-05-01T09:35:35.235Z</time></trkpt><trkpt lat="46.2226028" lon="9.8600451"><ele>672.0</ele><time>2026-05-01T09:35:36.244Z</time></trkpt><trkpt lat="46.2228063" lon="9.8599547"><ele>675.0</ele><time>2026-05-01T09:35:37.237Z</time></trkpt><trkpt lat="46.2229999" lon="9.8598681"><ele>678.0</ele><time>2026-05-01T09:35:38.245Z</time></trkpt><trkpt lat="46.2231952" lon="9.8597819"><ele>681.0</ele><time>2026-05-01T09:35:39.248Z</time></trkpt><trkpt lat="46.2233909" lon="9.8596776"><ele>681.6666666666666</ele><time>2026-05-01T09:35:40.25Z</time></trkpt><trkpt lat="46.2235808" lon="9.8595668"><ele>682.3333333333333</ele><time>2026-05-01T09:35:41.243Z</time></trkpt><trkpt lat="46.2237625" lon="9.8594609"><ele>683.0</ele><time>2026-05-01T09:35:42.254Z</time></trkpt><trkpt lat="46.223935" lon="9.8593309"><ele>684.3333333333333</ele><time>2026-05-01T09:35:43.242Z</time></trkpt><trkpt lat="46.2241045" lon="9.8591926"><ele>685.6666666666666</ele><time>2026-05-01T09:35:44.255Z</time></trkpt><trkpt lat="46.224275" lon="9.8590524"><ele>687.0</ele><time>2026-05-01T09:35:45.246Z</time></trkpt><trkpt lat="46.2244461" lon="9.8589095"><ele>687.0</ele><time>2026-05-01T09:35:46.247Z</time></trkpt><trkpt lat="46.2246192" lon="9.8587713"><ele>687.0</ele><time>2026-05-01T09:35:47.244Z</time></trkpt><trkpt lat="46.2248012" lon="9.8586282"><ele>687.0</ele><time>2026-05-01T09:35:48.251Z</time></trkpt><trkpt lat="46.2249715" lon="9.8584818"><ele>690.6666666666666</ele><time>2026-05-01T09:35:49.245Z</time></trkpt><trkpt lat="46.2251437" lon="9.8583497"><ele>694.3333333333333</ele><time>2026-05-01T09:35:50.25Z</time></trkpt><trkpt lat="46.2253122" lon="9.858231"><ele>698.0</ele><time>2026-05-01T09:35:51.241Z</time></trkpt><trkpt lat="46.2254792" lon="9.858096"><ele>696.0</ele><time>2026-05-01T09:35:52.255Z</time></trkpt><trkpt lat="46.2256609" lon="9.8579633"><ele>694.0</ele><time>2026-05-01T09:35:53.239Z</time></trkpt><trkpt lat="46.2258283" lon="9.8577937"><ele>692.0</ele><time>2026-05-01T09:35:54.249Z</time></trkpt><trkpt lat="46.2259759" lon="9.8576298"><ele>696.0</ele><time>2026-05-01T09:35:55.249Z</time></trkpt><trkpt lat="46.2261207" lon="9.8574528"><ele>700.0</ele><time>2026-05-01T09:35:56.263Z</time></trkpt><trkpt lat="46.2262663" lon="9.857283"><ele>704.0</ele><time>2026-05-01T09:35:57.248Z</time></trkpt><trkpt lat="46.226395" lon="9.8571458"><ele>703.25</ele><time>2026-05-01T09:35:58.262Z</time></trkpt><trkpt lat="46.2265167" lon="9.8570092"><ele>702.5</ele><time>2026-05-01T09:35:59.256Z</time></trkpt><trkpt lat="46.2266288" lon="9.8568889"><ele>701.75</ele><time>2026-05-01T09:36:00.255Z</time></trkpt><trkpt lat="46.226736" lon="9.8567507"><ele>701.0</ele><time>2026-05-01T09:36:01.255Z</time></trkpt><trkpt lat="46.2268694" lon="9.8567034"><ele>701.0</ele><time>2026-05-01T09:36:02.254Z</time></trkpt><trkpt lat="46.2270068" lon="9.8566893"><ele>701.0</ele><time>2026-05-01T09:36:03.244Z</time></trkpt><trkpt lat="46.2271625" lon="9.8566931"><ele>701.0</ele><time>2026-05-01T09:36:04.253Z</time></trkpt><trkpt lat="46.2273122" lon="9.8566654"><ele>701.0</ele><time>2026-05-01T09:36:05.249Z</time></trkpt><trkpt lat="46.2274529" lon="9.8566605"><ele>701.0</ele><time>2026-05-01T09:36:06.26Z</time></trkpt><trkpt lat="46.2275805" lon="9.8566311"><ele>701.0</ele><time>2026-05-01T09:36:07.255Z</time></trkpt><trkpt lat="46.2276914" lon="9.85657"><ele>701.0</ele><time>2026-05-01T09:36:08.261Z</time></trkpt><trkpt lat="46.2278072" lon="9.8564781"><ele>701.0</ele><time>2026-05-01T09:36:09.264Z</time></trkpt><trkpt lat="46.2279217" lon="9.8563349"><ele>701.0</ele><time>2026-05-01T09:36:10.264Z</time></trkpt><trkpt lat="46.2280411" lon="9.8561756"><ele>701.0</ele><time>2026-05-01T09:36:11.259Z</time></trkpt><trkpt lat="46.2281588" lon="9.8560306"><ele>701.0</ele><time>2026-05-01T09:36:12.26Z</time></trkpt><trkpt lat="46.2282794" lon="9.855882"><ele>704.0</ele><time>2026-05-01T09:36:13.262Z</time></trkpt><trkpt lat="46.2283976" lon="9.8557304"><ele>707.0</ele><time>2026-05-01T09:36:14.259Z</time></trkpt><trkpt lat="46.2285263" lon="9.8555928"><ele>710.0</ele><time>2026-05-01T09:36:15.265Z</time></trkpt><trkpt lat="46.2286464" lon="9.8554772"><ele>710.0</ele><time>2026-05-01T09:36:16.265Z</time></trkpt><trkpt lat="46.2287617" lon="9.8553689"><ele>710.0</ele><time>2026-05-01T09:36:17.259Z</time></trkpt><trkpt lat="46.2289114" lon="9.8552805"><ele>710.0</ele><time>2026-05-01T09:36:18.265Z</time></trkpt><trkpt lat="46.2290513" lon="9.8552406"><ele>710.0</ele><time>2026-05-01T09:36:19.246Z</time></trkpt><trkpt lat="46.2292121" lon="9.855218"><ele>709.75</ele><time>2026-05-01T09:36:20.253Z</time></trkpt><trkpt lat="46.2293641" lon="9.8551973"><ele>709.5</ele><time>2026-05-01T09:36:21.251Z</time></trkpt><trkpt lat="46.2295028" lon="9.8551703"><ele>709.25</ele><time>2026-05-01T09:36:22.253Z</time></trkpt><trkpt lat="46.2296357" lon="9.8551489"><ele>709.0</ele><time>2026-05-01T09:36:23.264Z</time></trkpt><trkpt lat="46.229763" lon="9.8551415"><ele>708.25</ele><time>2026-05-01T09:36:24.258Z</time></trkpt><trkpt lat="46.2298844" lon="9.8551326"><ele>707.5</ele><time>2026-05-01T09:36:25.259Z</time></trkpt><trkpt lat="46.2300043" lon="9.8550823"><ele>706.75</ele><time>2026-05-01T09:36:26.259Z</time></trkpt><trkpt lat="46.2301274" lon="9.8549954"><ele>706.0</ele><time>2026-05-01T09:36:27.263Z</time></trkpt><trkpt lat="46.2302492" lon="9.8549083"><ele>709.0</ele><time>2026-05-01T09:36:28.254Z</time></trkpt><trkpt lat="46.2303859" lon="9.8548369"><ele>712.0</ele><time>2026-05-01T09:36:29.26Z</time></trkpt><trkpt lat="46.2305163" lon="9.8547896"><ele>715.0</ele><time>2026-05-01T09:36:30.255Z</time></trkpt><trkpt lat="46.2306351" lon="9.8547856"><ele>718.0</ele><time>2026-05-01T09:36:31.257Z</time></trkpt><trkpt lat="46.2307731" lon="9.8547965"><ele>718.0</ele><time>2026-05-01T09:36:32.257Z</time></trkpt><trkpt lat="46.2309042" lon="9.8548211"><ele>718.0</ele><time>2026-05-01T09:36:33.258Z</time></trkpt><trkpt lat="46.2310175" lon="9.8548661"><ele>718.0</ele><time>2026-05-01T09:36:34.256Z</time></trkpt><trkpt lat="46.231113" lon="9.854947"><ele>718.0</ele><time>2026-05-01T09:36:35.259Z</time></trkpt><trkpt lat="46.2312099" lon="9.8550795"><ele>718.25</ele><time>2026-05-01T09:36:36.244Z</time></trkpt><trkpt lat="46.2312971" lon="9.8552473"><ele>718.5</ele><time>2026-05-01T09:36:37.254Z</time></trkpt><trkpt lat="46.2313643" lon="9.8554268"><ele>718.75</ele><time>2026-05-01T09:36:38.256Z</time></trkpt><trkpt lat="46.2314438" lon="9.8556128"><ele>719.0</ele><time>2026-05-01T09:36:39.259Z</time></trkpt><trkpt lat="46.2315047" lon="9.8557962"><ele>719.0</ele><time>2026-05-01T09:36:40.259Z</time></trkpt><trkpt lat="46.2315697" lon="9.8559375"><ele>719.0</ele><time>2026-05-01T09:36:41.257Z</time></trkpt><trkpt lat="46.2316298" lon="9.8560719"><ele>719.0</ele><time>2026-05-01T09:36:42.26Z</time></trkpt><trkpt lat="46.2317042" lon="9.8561683"><ele>719.0</ele><time>2026-05-01T09:36:43.258Z</time></trkpt><trkpt lat="46.2318044" lon="9.8562091"><ele>719.0</ele><time>2026-05-01T09:36:44.254Z</time></trkpt><trkpt lat="46.2319078" lon="9.8562131"><ele>724.0</ele><time>2026-05-01T09:36:45.256Z</time></trkpt><trkpt lat="46.2320226" lon="9.8561783"><ele>729.0</ele><time>2026-05-01T09:36:46.251Z</time></trkpt><trkpt lat="46.2321243" lon="9.8560859"><ele>734.0</ele><time>2026-05-01T09:36:47.26Z</time></trkpt><trkpt lat="46.2322212" lon="9.8559853"><ele>739.0</ele><time>2026-05-01T09:36:48.251Z</time></trkpt><trkpt lat="46.2323225" lon="9.8558771"><ele>739.0</ele><time>2026-05-01T09:36:49.244Z</time></trkpt><trkpt lat="46.2324393" lon="9.8557649"><ele>739.0</ele><time>2026-05-01T09:36:50.248Z</time></trkpt><trkpt lat="46.2325623" lon="9.8556626"><ele>739.0</ele><time>2026-05-01T09:36:51.251Z</time></trkpt><trkpt lat="46.2326888" lon="9.8555892"><ele>739.0</ele><time>2026-05-01T09:36:52.252Z</time></trkpt><trkpt lat="46.2328254" lon="9.8555332"><ele>739.0</ele><time>2026-05-01T09:36:53.25Z</time></trkpt><trkpt lat="46.2329621" lon="9.8554766"><ele>739.0</ele><time>2026-05-01T09:36:54.254Z</time></trkpt><trkpt lat="46.2330991" lon="9.8554254"><ele>739.0</ele><time>2026-05-01T09:36:55.246Z</time></trkpt><trkpt lat="46.2332477" lon="9.8553295"><ele>739.0</ele><time>2026-05-01T09:36:56.259Z</time></trkpt><trkpt lat="46.2333764" lon="9.8551948"><ele>737.25</ele><time>2026-05-01T09:36:57.26Z</time></trkpt><trkpt lat="46.2334977" lon="9.8550956"><ele>735.5</ele><time>2026-05-01T09:36:58.255Z</time></trkpt><trkpt lat="46.2335951" lon="9.8550183"><ele>733.75</ele><time>2026-05-01T09:36:59.27Z</time></trkpt><trkpt lat="46.2337084" lon="9.8549413"><ele>732.0</ele><time>2026-05-01T09:37:00.26Z</time></trkpt><trkpt lat="46.2338446" lon="9.8549076"><ele>732.0</ele><time>2026-05-01T09:37:01.259Z</time></trkpt><trkpt lat="46.2339594" lon="9.854929"><ele>732.0</ele><time>2026-05-01T09:37:02.251Z</time></trkpt><trkpt lat="46.2340984" lon="9.8550398"><ele>732.0</ele><time>2026-05-01T09:37:03.274Z</time></trkpt><trkpt lat="46.2342297" lon="9.8551127"><ele>732.0</ele><time>2026-05-01T09:37:04.271Z</time></trkpt><trkpt lat="46.2343786" lon="9.8551243"><ele>738.6666666666666</ele><time>2026-05-01T09:37:05.267Z</time></trkpt><trkpt lat="46.2345556" lon="9.8550816"><ele>745.3333333333333</ele><time>2026-05-01T09:37:06.25Z</time></trkpt><trkpt lat="46.2347284" lon="9.8550367"><ele>752.0</ele><time>2026-05-01T09:37:07.246Z</time></trkpt><trkpt lat="46.2348958" lon="9.8549627"><ele>757.6666666666666</ele><time>2026-05-01T09:37:08.262Z</time></trkpt><trkpt lat="46.2350473" lon="9.8548851"><ele>763.3333333333333</ele><time>2026-05-01T09:37:09.254Z</time></trkpt><trkpt lat="46.2351989" lon="9.8547845"><ele>769.0</ele><time>2026-05-01T09:37:10.248Z</time></trkpt><trkpt lat="46.2353286" lon="9.8546543"><ele>769.0</ele><time>2026-05-01T09:37:11.266Z</time></trkpt><trkpt lat="46.2354697" lon="9.8545112"><ele>769.0</ele><time>2026-05-01T09:37:12.256Z</time></trkpt><trkpt lat="46.2356" lon="9.8543741"><ele>769.0</ele><time>2026-05-01T09:37:13.25Z</time></trkpt><trkpt lat="46.2357412" lon="9.8542365"><ele>770.0</ele><time>2026-05-01T09:37:14.26Z</time></trkpt><trkpt lat="46.2358743" lon="9.8541076"><ele>771.0</ele><time>2026-05-01T09:37:15.261Z</time></trkpt><trkpt lat="46.2359969" lon="9.8539803"><ele>772.0</ele><time>2026-05-01T09:37:16.256Z</time></trkpt><trkpt lat="46.2360908" lon="9.8538902"><ele>773.0</ele><time>2026-05-01T09:37:17.269Z</time></trkpt><trkpt lat="46.2361692" lon="9.8537442"><ele>773.0</ele><time>2026-05-01T09:37:18.266Z</time></trkpt><trkpt lat="46.2362449" lon="9.8535995"><ele>773.0</ele><time>2026-05-01T09:37:19.296Z</time></trkpt><trkpt lat="46.2363284" lon="9.8534236"><ele>773.0</ele><time>2026-05-01T09:37:20.256Z</time></trkpt><trkpt lat="46.2364185" lon="9.8532601"><ele>773.0</ele><time>2026-05-01T09:37:21.259Z</time></trkpt><trkpt lat="46.2365066" lon="9.8531041"><ele>773.25</ele><time>2026-05-01T09:37:22.262Z</time></trkpt><trkpt lat="46.2365974" lon="9.852945"><ele>773.5</ele><time>2026-05-01T09:37:23.257Z</time></trkpt><trkpt lat="46.236687" lon="9.8528196"><ele>773.75</ele><time>2026-05-01T09:37:24.264Z</time></trkpt><trkpt lat="46.2367877" lon="9.8527116"><ele>774.0</ele><time>2026-05-01T09:37:25.253Z</time></trkpt><trkpt lat="46.236889" lon="9.85261"><ele>774.0</ele><time>2026-05-01T09:37:26.253Z</time></trkpt><trkpt lat="46.2370127" lon="9.8525355"><ele>774.0</ele><time>2026-05-01T09:37:27.25Z</time></trkpt><trkpt lat="46.2371717" lon="9.8525013"><ele>774.0</ele><time>2026-05-01T09:37:28.255Z</time></trkpt><trkpt lat="46.2373846" lon="9.8525437"><ele>774.6666666666667</ele><time>2026-05-01T09:37:29.255Z</time></trkpt><trkpt lat="46.2375765" lon="9.8526056"><ele>775.3333333333334</ele><time>2026-05-01T09:37:30.253Z</time></trkpt><trkpt lat="46.2377362" lon="9.8526283"><ele>776.0</ele><time>2026-05-01T09:37:31.248Z</time></trkpt><trkpt lat="46.2379048" lon="9.8526831"><ele>782.6666666666667</ele><time>2026-05-01T09:37:32.268Z</time></trkpt><trkpt lat="46.2380406" lon="9.8527824"><ele>789.3333333333333</ele><time>2026-05-01T09:37:33.239Z</time></trkpt><trkpt lat="46.2381744" lon="9.8529012"><ele>796.0</ele><time>2026-05-01T09:37:34.25Z</time></trkpt><trkpt lat="46.2383509" lon="9.8529694"><ele>798.6666666666666</ele><time>2026-05-01T09:37:35.244Z</time></trkpt><trkpt lat="46.2385125" lon="9.8530614"><ele>801.3333333333333</ele><time>2026-05-01T09:37:36.251Z</time></trkpt><trkpt lat="46.2386778" lon="9.8531572"><ele>804.0</ele><time>2026-05-01T09:37:37.244Z</time></trkpt><trkpt lat="46.2388525" lon="9.8532175"><ele>801.0</ele><time>2026-05-01T09:37:38.245Z</time></trkpt><trkpt lat="46.2390348" lon="9.8532556"><ele>798.0</ele><time>2026-05-01T09:37:39.251Z</time></trkpt><trkpt lat="46.2392106" lon="9.8532772"><ele>795.0</ele><time>2026-05-01T09:37:40.251Z</time></trkpt><trkpt lat="46.2393928" lon="9.8532969"><ele>795.0</ele><time>2026-05-01T09:37:41.244Z</time></trkpt><trkpt lat="46.2395881" lon="9.8533216"><ele>795.0</ele><time>2026-05-01T09:37:42.252Z</time></trkpt><trkpt lat="46.2397646" lon="9.8533235"><ele>795.0</ele><time>2026-05-01T09:37:43.252Z</time></trkpt><trkpt lat="46.2399388" lon="9.8533155"><ele>794.0</ele><time>2026-05-01T09:37:44.25Z</time></trkpt><trkpt lat="46.2400677" lon="9.8533749"><ele>793.0</ele><time>2026-05-01T09:37:45.249Z</time></trkpt><trkpt lat="46.2401828" lon="9.8534553"><ele>792.0</ele><time>2026-05-01T09:37:46.25Z</time></trkpt><trkpt lat="46.2403122" lon="9.8534829"><ele>791.0</ele><time>2026-05-01T09:37:47.25Z</time></trkpt><trkpt lat="46.2404512" lon="9.8534762"><ele>791.0</ele><time>2026-05-01T09:37:48.245Z</time></trkpt><trkpt lat="46.2405892" lon="9.8534349"><ele>791.0</ele><time>2026-05-01T09:37:49.248Z</time></trkpt><trkpt lat="46.2407137" lon="9.8533518"><ele>791.0</ele><time>2026-05-01T09:37:50.252Z</time></trkpt><trkpt lat="46.2408561" lon="9.8532375"><ele>791.0</ele><time>2026-05-01T09:37:51.244Z</time></trkpt><trkpt lat="46.2410122" lon="9.853115"><ele>792.6666666666667</ele><time>2026-05-01T09:37:52.25Z</time></trkpt><trkpt lat="46.241181" lon="9.8530291"><ele>794.3333333333333</ele><time>2026-05-01T09:37:53.253Z</time></trkpt><trkpt lat="46.2413882" lon="9.8529495"><ele>796.0</ele><time>2026-05-01T09:37:54.25Z</time></trkpt><trkpt lat="46.2415655" lon="9.8528923"><ele>799.0</ele><time>2026-05-01T09:37:55.256Z</time></trkpt><trkpt lat="46.2417386" lon="9.8528188"><ele>802.0</ele><time>2026-05-01T09:37:56.247Z</time></trkpt><trkpt lat="46.2419181" lon="9.8527626"><ele>805.0</ele><time>2026-05-01T09:37:57.244Z</time></trkpt><trkpt lat="46.2420919" lon="9.8527042"><ele>805.0</ele><time>2026-05-01T09:37:58.26Z</time></trkpt><trkpt lat="46.2422558" lon="9.852635"><ele>805.0</ele><time>2026-05-01T09:37:59.251Z</time></trkpt><trkpt lat="46.2424208" lon="9.8525738"><ele>805.0</ele><time>2026-05-01T09:38:00.255Z</time></trkpt><trkpt lat="46.2425867" lon="9.8525226"><ele>801.6666666666666</ele><time>2026-05-01T09:38:01.258Z</time></trkpt><trkpt lat="46.2427597" lon="9.8524858"><ele>798.3333333333333</ele><time>2026-05-01T09:38:02.251Z</time></trkpt><trkpt lat="46.2429308" lon="9.8524337"><ele>795.0</ele><time>2026-05-01T09:38:03.252Z</time></trkpt><trkpt lat="46.2431006" lon="9.8523917"><ele>797.6666666666667</ele><time>2026-05-01T09:38:04.25Z</time></trkpt><trkpt lat="46.243258" lon="9.852354"><ele>800.3333333333334</ele><time>2026-05-01T09:38:05.264Z</time></trkpt><trkpt lat="46.2434275" lon="9.8523404"><ele>803.0</ele><time>2026-05-01T09:38:06.245Z</time></trkpt><trkpt lat="46.2435873" lon="9.8522945"><ele>803.0</ele><time>2026-05-01T09:38:07.258Z</time></trkpt><trkpt lat="46.2437446" lon="9.8522508"><ele>803.0</ele><time>2026-05-01T09:38:08.255Z</time></trkpt><trkpt lat="46.2439015" lon="9.8522007"><ele>803.0</ele><time>2026-05-01T09:38:09.252Z</time></trkpt><trkpt lat="46.2440572" lon="9.8521778"><ele>808.75</ele><time>2026-05-01T09:38:10.248Z</time></trkpt><trkpt lat="46.244204" lon="9.8521567"><ele>814.5</ele><time>2026-05-01T09:38:11.258Z</time></trkpt><trkpt lat="46.24435" lon="9.8521362"><ele>820.25</ele><time>2026-05-01T09:38:12.247Z</time></trkpt><trkpt lat="46.2444812" lon="9.8520857"><ele>826.0</ele><time>2026-05-01T09:38:13.263Z</time></trkpt><trkpt lat="46.2446139" lon="9.8520013"><ele>826.0</ele><time>2026-05-01T09:38:14.257Z</time></trkpt><trkpt lat="46.2447652" lon="9.8518851"><ele>826.0</ele><time>2026-05-01T09:38:15.248Z</time></trkpt><trkpt lat="46.2449125" lon="9.8517771"><ele>826.0</ele><time>2026-05-01T09:38:16.261Z</time></trkpt><trkpt lat="46.2450802" lon="9.8516483"><ele>820.3333333333333</ele><time>2026-05-01T09:38:17.249Z</time></trkpt><trkpt lat="46.2452261" lon="9.8515586"><ele>814.6666666666667</ele><time>2026-05-01T09:38:18.259Z</time></trkpt><trkpt lat="46.2453972" lon="9.8514627"><ele>809.0</ele><time>2026-05-01T09:38:19.25Z</time></trkpt><trkpt lat="46.2455667" lon="9.8513737"><ele>814.6666666666667</ele><time>2026-05-01T09:38:20.251Z</time></trkpt><trkpt lat="46.2457169" lon="9.8512583"><ele>820.3333333333333</ele><time>2026-05-01T09:38:21.247Z</time></trkpt><trkpt lat="46.2458526" lon="9.8511257"><ele>826.0</ele><time>2026-05-01T09:38:22.25Z</time></trkpt><trkpt lat="46.2460061" lon="9.8509673"><ele>826.0</ele><time>2026-05-01T09:38:23.252Z</time></trkpt><trkpt lat="46.2461368" lon="9.8508409"><ele>826.0</ele><time>2026-05-01T09:38:24.254Z</time></trkpt><trkpt lat="46.2462595" lon="9.8507301"><ele>826.0</ele><time>2026-05-01T09:38:25.249Z</time></trkpt><trkpt lat="46.2463673" lon="9.8506291"><ele>826.0</ele><time>2026-05-01T09:38:26.248Z</time></trkpt><trkpt lat="46.2464627" lon="9.8505615"><ele>826.0</ele><time>2026-05-01T09:38:27.25Z</time></trkpt><trkpt lat="46.2465708" lon="9.8504715"><ele>826.0</ele><time>2026-05-01T09:38:28.258Z</time></trkpt><trkpt lat="46.2467063" lon="9.8504651"><ele>826.0</ele><time>2026-05-01T09:38:29.245Z</time></trkpt><trkpt lat="46.2468467" lon="9.8504481"><ele>826.0</ele><time>2026-05-01T09:38:30.251Z</time></trkpt><trkpt lat="46.2470179" lon="9.8504838"><ele>826.0</ele><time>2026-05-01T09:38:31.25Z</time></trkpt><trkpt lat="46.2471814" lon="9.8504611"><ele>826.0</ele><time>2026-05-01T09:38:32.241Z</time></trkpt><trkpt lat="46.2473542" lon="9.8504667"><ele>826.0</ele><time>2026-05-01T09:38:33.259Z</time></trkpt><trkpt lat="46.24753" lon="9.8504244"><ele>828.3333333333333</ele><time>2026-05-01T09:38:34.249Z</time></trkpt><trkpt lat="46.2477409" lon="9.8504174"><ele>830.6666666666667</ele><time>2026-05-01T09:38:35.246Z</time></trkpt><trkpt lat="46.2479703" lon="9.8503935"><ele>833.0</ele><time>2026-05-01T09:38:36.304Z</time></trkpt><trkpt lat="46.2482137" lon="9.8503481"><ele>834.6666666666667</ele><time>2026-05-01T09:38:37.25Z</time></trkpt><trkpt lat="46.2484539" lon="9.8503216"><ele>836.3333333333333</ele><time>2026-05-01T09:38:38.255Z</time></trkpt><trkpt lat="46.2486539" lon="9.8503216"><ele>838.0</ele><time>2026-05-01T09:38:39.25Z</time></trkpt><trkpt lat="46.2488548" lon="9.8503264"><ele>841.0</ele><time>2026-05-01T09:38:40.243Z</time></trkpt><trkpt lat="46.2490201" lon="9.8503095"><ele>844.0</ele><time>2026-05-01T09:38:41.249Z</time></trkpt><trkpt lat="46.2491739" lon="9.8502519"><ele>847.0</ele><time>2026-05-01T09:38:42.244Z</time></trkpt><trkpt lat="46.2493145" lon="9.8502047"><ele>847.0</ele><time>2026-05-01T09:38:43.25Z</time></trkpt><trkpt lat="46.2494696" lon="9.8501811"><ele>847.0</ele><time>2026-05-01T09:38:44.257Z</time></trkpt><trkpt lat="46.2496118" lon="9.8502085"><ele>847.0</ele><time>2026-05-01T09:38:45.244Z</time></trkpt><trkpt lat="46.2497627" lon="9.8502654"><ele>847.5</ele><time>2026-05-01T09:38:46.248Z</time></trkpt><trkpt lat="46.2499018" lon="9.850335"><ele>848.0</ele><time>2026-05-01T09:38:47.25Z</time></trkpt><trkpt lat="46.2500506" lon="9.8503381"><ele>848.5</ele><time>2026-05-01T09:38:48.253Z</time></trkpt><trkpt lat="46.2501916" lon="9.8503823"><ele>849.0</ele><time>2026-05-01T09:38:49.241Z</time></trkpt><trkpt lat="46.2503424" lon="9.8503555"><ele>849.0</ele><time>2026-05-01T09:38:50.257Z</time></trkpt><trkpt lat="46.2504986" lon="9.850307"><ele>849.0</ele><time>2026-05-01T09:38:51.253Z</time></trkpt><trkpt lat="46.2506399" lon="9.8502644"><ele>849.0</ele><time>2026-05-01T09:38:52.244Z</time></trkpt><trkpt lat="46.2507735" lon="9.8501662"><ele>849.5</ele><time>2026-05-01T09:38:53.251Z</time></trkpt><trkpt lat="46.2509044" lon="9.8501549"><ele>850.0</ele><time>2026-05-01T09:38:54.258Z</time></trkpt><trkpt lat="46.251018" lon="9.8501802"><ele>850.5</ele><time>2026-05-01T09:38:55.243Z</time></trkpt><trkpt lat="46.2511625" lon="9.8502993"><ele>851.0</ele><time>2026-05-01T09:38:56.251Z</time></trkpt><trkpt lat="46.2513019" lon="9.8503764"><ele>851.0</ele><time>2026-05-01T09:38:57.246Z</time></trkpt><trkpt lat="46.2514277" lon="9.8504403"><ele>851.0</ele><time>2026-05-01T09:38:58.25Z</time></trkpt><trkpt lat="46.2515362" lon="9.8504626"><ele>851.0</ele><time>2026-05-01T09:38:59.248Z</time></trkpt><trkpt lat="46.251665" lon="9.8504215"><ele>851.0</ele><time>2026-05-01T09:39:00.25Z</time></trkpt><trkpt lat="46.2518099" lon="9.850363"><ele>851.75</ele><time>2026-05-01T09:39:01.258Z</time></trkpt><trkpt lat="46.2519433" lon="9.8502573"><ele>852.5</ele><time>2026-05-01T09:39:02.243Z</time></trkpt><trkpt lat="46.2520763" lon="9.8501516"><ele>853.25</ele><time>2026-05-01T09:39:03.256Z</time></trkpt><trkpt lat="46.252209" lon="9.8500767"><ele>854.0</ele><time>2026-05-01T09:39:04.245Z</time></trkpt><trkpt lat="46.2523243" lon="9.8500081"><ele>854.0</ele><time>2026-05-01T09:39:05.249Z</time></trkpt><trkpt lat="46.2524564" lon="9.8499804"><ele>854.0</ele><time>2026-05-01T09:39:06.252Z</time></trkpt><trkpt lat="46.2525737" lon="9.8500001"><ele>854.0</ele><time>2026-05-01T09:39:07.239Z</time></trkpt><trkpt lat="46.2527088" lon="9.8500212"><ele>854.0</ele><time>2026-05-01T09:39:08.253Z</time></trkpt><trkpt lat="46.2528525" lon="9.8499695"><ele>854.0</ele><time>2026-05-01T09:39:09.253Z</time></trkpt><trkpt lat="46.2529902" lon="9.8499325"><ele>854.0</ele><time>2026-05-01T09:39:10.252Z</time></trkpt><trkpt lat="46.253148" lon="9.8498273"><ele>854.0</ele><time>2026-05-01T09:39:11.248Z</time></trkpt><trkpt lat="46.2532783" lon="9.8497331"><ele>857.2</ele><time>2026-05-01T09:39:12.252Z</time></trkpt><trkpt lat="46.2533964" lon="9.8496657"><ele>860.4000000000001</ele><time>2026-05-01T09:39:13.246Z</time></trkpt><trkpt lat="46.2534844" lon="9.8496052"><ele>863.6</ele><time>2026-05-01T09:39:14.246Z</time></trkpt><trkpt lat="46.2535768" lon="9.8495125"><ele>866.8</ele><time>2026-05-01T09:39:15.249Z</time></trkpt><trkpt lat="46.2536431" lon="9.8494402"><ele>870.0</ele><time>2026-05-01T09:39:16.25Z</time></trkpt><trkpt lat="46.2537481" lon="9.8493569"><ele>870.0</ele><time>2026-05-01T09:39:17.255Z</time></trkpt><trkpt lat="46.2538717" lon="9.8493537"><ele>870.0</ele><time>2026-05-01T09:39:18.246Z</time></trkpt><trkpt lat="46.2539538" lon="9.8493274"><ele>870.0</ele><time>2026-05-01T09:39:19.253Z</time></trkpt><trkpt lat="46.2540779" lon="9.8493674"><ele>870.0</ele><time>2026-05-01T09:39:20.257Z</time></trkpt><trkpt lat="46.2541948" lon="9.8494148"><ele>873.75</ele><time>2026-05-01T09:39:21.246Z</time></trkpt><trkpt lat="46.254313" lon="9.8494611"><ele>877.5</ele><time>2026-05-01T09:39:22.255Z</time></trkpt><trkpt lat="46.2544268" lon="9.849518"><ele>881.25</ele><time>2026-05-01T09:39:23.259Z</time></trkpt><trkpt lat="46.2545377" lon="9.8495643"><ele>885.0</ele><time>2026-05-01T09:39:24.252Z</time></trkpt><trkpt lat="46.2546431" lon="9.8496105"><ele>885.0</ele><time>2026-05-01T09:39:25.256Z</time></trkpt><trkpt lat="46.2547462" lon="9.849655"><ele>885.0</ele><time>2026-05-01T09:39:26.251Z</time></trkpt><trkpt lat="46.2548524" lon="9.8496913"><ele>885.0</ele><time>2026-05-01T09:39:27.254Z</time></trkpt><trkpt lat="46.2549605" lon="9.8497294"><ele>885.0</ele><time>2026-05-01T09:39:28.247Z</time></trkpt><trkpt lat="46.2550717" lon="9.8497613"><ele>885.0</ele><time>2026-05-01T09:39:29.25Z</time></trkpt><trkpt lat="46.2551845" lon="9.8497961"><ele>887.5</ele><time>2026-05-01T09:39:30.253Z</time></trkpt><trkpt lat="46.2552927" lon="9.8498227"><ele>890.0</ele><time>2026-05-01T09:39:31.254Z</time></trkpt><trkpt lat="46.2554051" lon="9.8498385"><ele>892.5</ele><time>2026-05-01T09:39:32.244Z</time></trkpt><trkpt lat="46.2555165" lon="9.8498348"><ele>895.0</ele><time>2026-05-01T09:39:33.254Z</time></trkpt><trkpt lat="46.2556331" lon="9.8497997"><ele>898.6</ele><time>2026-05-01T09:39:34.243Z</time></trkpt><trkpt lat="46.2557478" lon="9.849749"><ele>902.2</ele><time>2026-05-01T09:39:35.249Z</time></trkpt><trkpt lat="46.2558529" lon="9.8497004"><ele>905.8</ele><time>2026-05-01T09:39:36.251Z</time></trkpt><trkpt lat="46.2559486" lon="9.8496337"><ele>909.4</ele><time>2026-05-01T09:39:37.252Z</time></trkpt><trkpt lat="46.2560346" lon="9.8495317"><ele>913.0</ele><time>2026-05-01T09:39:38.252Z</time></trkpt><trkpt lat="46.2561053" lon="9.8494252"><ele>906.4</ele><time>2026-05-01T09:39:39.249Z</time></trkpt><trkpt lat="46.2561463" lon="9.8492788"><ele>899.8</ele><time>2026-05-01T09:39:40.26Z</time></trkpt><trkpt lat="46.2561753" lon="9.8491496"><ele>893.2</ele><time>2026-05-01T09:39:41.243Z</time></trkpt><trkpt lat="46.2562126" lon="9.8490446"><ele>886.6</ele><time>2026-05-01T09:39:42.245Z</time></trkpt><trkpt lat="46.2562659" lon="9.8489323"><ele>880.0</ele><time>2026-05-01T09:39:43.241Z</time></trkpt><trkpt lat="46.2563273" lon="9.8488166"><ele>879.9999999999999</ele><time>2026-05-01T09:39:44.246Z</time></trkpt><trkpt lat="46.2563993" lon="9.848732"><ele>880.0</ele><time>2026-05-01T09:39:45.262Z</time></trkpt><trkpt lat="46.2564705" lon="9.8486674"><ele>880.0</ele><time>2026-05-01T09:39:46.254Z</time></trkpt><trkpt lat="46.2565476" lon="9.8486075"><ele>880.0</ele><time>2026-05-01T09:39:47.252Z</time></trkpt><trkpt lat="46.256616" lon="9.8485549"><ele>879.9999999999999</ele><time>2026-05-01T09:39:48.262Z</time></trkpt><trkpt lat="46.2566837" lon="9.8485001"><ele>880.0</ele><time>2026-05-01T09:39:49.257Z</time></trkpt><trkpt lat="46.2567523" lon="9.8484388"><ele>881.8333333333333</ele><time>2026-05-01T09:39:50.285Z</time></trkpt><trkpt lat="46.2568158" lon="9.8483804"><ele>883.6666666666666</ele><time>2026-05-01T09:39:51.276Z</time></trkpt><trkpt lat="46.2568667" lon="9.8483261"><ele>885.5</ele><time>2026-05-01T09:39:52.273Z</time></trkpt><trkpt lat="46.2569547" lon="9.8482582"><ele>887.3333333333333</ele><time>2026-05-01T09:39:54.256Z</time></trkpt><trkpt lat="46.2570168" lon="9.8483305"><ele>889.1666666666666</ele><time>2026-05-01T09:39:56.264Z</time></trkpt><trkpt lat="46.2569539" lon="9.8484616"><ele>891.0</ele><time>2026-05-01T09:39:58.268Z</time></trkpt><trkpt lat="46.2568872" lon="9.8485202"><ele>896.0</ele><time>2026-05-01T09:39:59.25Z</time></trkpt><trkpt lat="46.2568174" lon="9.8486036"><ele>900.9999999999999</ele><time>2026-05-01T09:40:00.252Z</time></trkpt><trkpt lat="46.2567552" lon="9.8487109"><ele>905.9999999999999</ele><time>2026-05-01T09:40:01.268Z</time></trkpt><trkpt lat="46.2567034" lon="9.8488546"><ele>911.0</ele><time>2026-05-01T09:40:02.256Z</time></trkpt><trkpt lat="46.2566652" lon="9.8490232"><ele>916.0</ele><time>2026-05-01T09:40:03.259Z</time></trkpt><trkpt lat="46.2566215" lon="9.849192"><ele>915.4</ele><time>2026-05-01T09:40:04.261Z</time></trkpt><trkpt lat="46.2565465" lon="9.8493341"><ele>914.8</ele><time>2026-05-01T09:40:05.256Z</time></trkpt><trkpt lat="46.2564543" lon="9.8494376"><ele>914.1999999999999</ele><time>2026-05-01T09:40:06.257Z</time></trkpt><trkpt lat="46.2563588" lon="9.8495015"><ele>913.5999999999999</ele><time>2026-05-01T09:40:07.255Z</time></trkpt><trkpt lat="46.2562695" lon="9.8495412"><ele>913.0</ele><time>2026-05-01T09:40:08.254Z</time></trkpt><trkpt lat="46.2561891" lon="9.849565"><ele>913.0</ele><time>2026-05-01T09:40:09.252Z</time></trkpt><trkpt lat="46.2561252" lon="9.8495872"><ele>913.0</ele><time>2026-05-01T09:40:10.255Z</time></trkpt><trkpt lat="46.2560659" lon="9.8497039"><ele>913.0</ele><time>2026-05-01T09:40:12.252Z</time></trkpt><trkpt lat="46.2561084" lon="9.8498514"><ele>913.0</ele><time>2026-05-01T09:40:14.273Z</time></trkpt><trkpt lat="46.2562421" lon="9.849835"><ele>913.0</ele><time>2026-05-01T09:40:16.252Z</time></trkpt><trkpt lat="46.2563262" lon="9.8497705"><ele>913.0</ele><time>2026-05-01T09:40:17.261Z</time></trkpt><trkpt lat="46.2564323" lon="9.8496862"><ele>913.0</ele><time>2026-05-01T09:40:18.257Z</time></trkpt><trkpt lat="46.2565474" lon="9.849609"><ele>913.0</ele><time>2026-05-01T09:40:19.261Z</time></trkpt><trkpt lat="46.2566496" lon="9.8495279"><ele>913.0</ele><time>2026-05-01T09:40:20.251Z</time></trkpt><trkpt lat="46.2567442" lon="9.8494319"><ele>913.75</ele><time>2026-05-01T09:40:21.247Z</time></trkpt><trkpt lat="46.2568422" lon="9.8493178"><ele>914.5</ele><time>2026-05-01T09:40:22.256Z</time></trkpt><trkpt lat="46.2569285" lon="9.8491806"><ele>915.25</ele><time>2026-05-01T09:40:23.256Z</time></trkpt><trkpt lat="46.2569995" lon="9.8490154"><ele>916.0</ele><time>2026-05-01T09:40:24.252Z</time></trkpt><trkpt lat="46.2570602" lon="9.8488421"><ele>916.0</ele><time>2026-05-01T09:40:25.256Z</time></trkpt><trkpt lat="46.2571238" lon="9.8486774"><ele>915.9999999999999</ele><time>2026-05-01T09:40:26.247Z</time></trkpt><trkpt lat="46.2571978" lon="9.8485421"><ele>915.9999999999999</ele><time>2026-05-01T09:40:27.246Z</time></trkpt><trkpt lat="46.2572712" lon="9.8484275"><ele>916.0</ele><time>2026-05-01T09:40:28.248Z</time></trkpt><trkpt lat="46.2573519" lon="9.8483912"><ele>916.0</ele><time>2026-05-01T09:40:29.242Z</time></trkpt><trkpt lat="46.2574395" lon="9.848407"><ele>922.75</ele><time>2026-05-01T09:40:30.249Z</time></trkpt><trkpt lat="46.2575429" lon="9.8484844"><ele>929.5</ele><time>2026-05-01T09:40:31.247Z</time></trkpt><trkpt lat="46.2576678" lon="9.84865"><ele>936.25</ele><time>2026-05-01T09:40:32.243Z</time></trkpt><trkpt lat="46.2577804" lon="9.8487876"><ele>943.0</ele><time>2026-05-01T09:40:33.242Z</time></trkpt><trkpt lat="46.2578801" lon="9.8488958"><ele>943.0</ele><time>2026-05-01T09:40:34.24Z</time></trkpt><trkpt lat="46.2579778" lon="9.848955"><ele>943.0</ele><time>2026-05-01T09:40:35.25Z</time></trkpt><trkpt lat="46.2580754" lon="9.8490263"><ele>943.0</ele><time>2026-05-01T09:40:36.23Z</time></trkpt><trkpt lat="46.2581598" lon="9.8490498"><ele>943.0</ele><time>2026-05-01T09:40:37.241Z</time></trkpt><trkpt lat="46.258244" lon="9.8490863"><ele>943.0</ele><time>2026-05-01T09:40:38.264Z</time></trkpt><trkpt lat="46.2583181" lon="9.8491264"><ele>943.8333333333333</ele><time>2026-05-01T09:40:39.251Z</time></trkpt><trkpt lat="46.2583796" lon="9.849183"><ele>944.6666666666666</ele><time>2026-05-01T09:40:40.259Z</time></trkpt><trkpt lat="46.2584262" lon="9.8492488"><ele>945.5</ele><time>2026-05-01T09:40:41.255Z</time></trkpt><trkpt lat="46.2584821" lon="9.8494046"><ele>946.3333333333333</ele><time>2026-05-01T09:40:43.251Z</time></trkpt><trkpt lat="46.2585123" lon="9.8494986"><ele>947.1666666666666</ele><time>2026-05-01T09:40:44.256Z</time></trkpt><trkpt lat="46.2585401" lon="9.8496106"><ele>948.0</ele><time>2026-05-01T09:40:45.251Z</time></trkpt><trkpt lat="46.2585702" lon="9.8497121"><ele>948.0</ele><time>2026-05-01T09:40:46.251Z</time></trkpt><trkpt lat="46.258597" lon="9.8498076"><ele>948.0</ele><time>2026-05-01T09:40:47.259Z</time></trkpt><trkpt lat="46.258604" lon="9.8499081"><ele>948.0</ele><time>2026-05-01T09:40:48.253Z</time></trkpt><trkpt lat="46.2586072" lon="9.8500227"><ele>948.0</ele><time>2026-05-01T09:40:49.255Z</time></trkpt><trkpt lat="46.258627" lon="9.8501343"><ele>948.0</ele><time>2026-05-01T09:40:50.253Z</time></trkpt><trkpt lat="46.2586776" lon="9.8502243"><ele>948.0</ele><time>2026-05-01T09:40:51.256Z</time></trkpt><trkpt lat="46.2587342" lon="9.8503105"><ele>947.6666666666666</ele><time>2026-05-01T09:40:52.255Z</time></trkpt><trkpt lat="46.2587949" lon="9.8503959"><ele>947.3333333333333</ele><time>2026-05-01T09:40:53.262Z</time></trkpt><trkpt lat="46.2588527" lon="9.8504833"><ele>947.0</ele><time>2026-05-01T09:40:54.259Z</time></trkpt><trkpt lat="46.2589037" lon="9.8505677"><ele>946.6666666666666</ele><time>2026-05-01T09:40:55.253Z</time></trkpt><trkpt lat="46.2589559" lon="9.8506467"><ele>946.3333333333333</ele><time>2026-05-01T09:40:56.254Z</time></trkpt><trkpt lat="46.2590099" lon="9.8507153"><ele>946.0</ele><time>2026-05-01T09:40:57.252Z</time></trkpt><trkpt lat="46.2590598" lon="9.8507723"><ele>946.0</ele><time>2026-05-01T09:40:58.268Z</time></trkpt><trkpt lat="46.2591452" lon="9.8508865"><ele>945.9999999999999</ele><time>2026-05-01T09:41:00.257Z</time></trkpt><trkpt lat="46.2592295" lon="9.8509831"><ele>945.9999999999999</ele><time>2026-05-01T09:41:02.252Z</time></trkpt><trkpt lat="46.2593222" lon="9.8510674"><ele>946.0</ele><time>2026-05-01T09:41:04.253Z</time></trkpt><trkpt lat="46.2593999" lon="9.8511551"><ele>946.0</ele><time>2026-05-01T09:41:06.274Z</time></trkpt><trkpt lat="46.2594541" lon="9.851211"><ele>947.5999999999999</ele><time>2026-05-01T09:41:08.258Z</time></trkpt><trkpt lat="46.2595057" lon="9.8512647"><ele>949.1999999999999</ele><time>2026-05-01T09:41:18.276Z</time></trkpt><trkpt lat="46.2595599" lon="9.8513225"><ele>950.8000000000001</ele><time>2026-05-01T09:41:21.257Z</time></trkpt><trkpt lat="46.2596634" lon="9.8514138"><ele>952.4000000000001</ele><time>2026-05-01T09:41:23.262Z</time></trkpt><trkpt lat="46.2597559" lon="9.8514784"><ele>954.0</ele><time>2026-05-01T09:41:24.256Z</time></trkpt><trkpt lat="46.2598618" lon="9.8515685"><ele>954.0</ele><time>2026-05-01T09:41:25.254Z</time></trkpt><trkpt lat="46.2599769" lon="9.851641"><ele>954.0</ele><time>2026-05-01T09:41:26.257Z</time></trkpt><trkpt lat="46.2601024" lon="9.8517142"><ele>954.0</ele><time>2026-05-01T09:41:27.25Z</time></trkpt><trkpt lat="46.2602215" lon="9.8517965"><ele>954.0</ele><time>2026-05-01T09:41:28.25Z</time></trkpt><trkpt lat="46.2603412" lon="9.8518451"><ele>956.75</ele><time>2026-05-01T09:41:29.25Z</time></trkpt><trkpt lat="46.2604656" lon="9.8518968"><ele>959.5</ele><time>2026-05-01T09:41:30.247Z</time></trkpt><trkpt lat="46.2605765" lon="9.8519789"><ele>962.25</ele><time>2026-05-01T09:41:31.257Z</time></trkpt><trkpt lat="46.2606916" lon="9.8520729"><ele>965.0</ele><time>2026-05-01T09:41:32.254Z</time></trkpt><trkpt lat="46.260802" lon="9.8521819"><ele>965.0</ele><time>2026-05-01T09:41:33.246Z</time></trkpt><trkpt lat="46.2609167" lon="9.8522788"><ele>965.0</ele><time>2026-05-01T09:41:34.264Z</time></trkpt><trkpt lat="46.2610361" lon="9.8523629"><ele>965.0</ele><time>2026-05-01T09:41:35.248Z</time></trkpt><trkpt lat="46.2611552" lon="9.8524435"><ele>965.0</ele><time>2026-05-01T09:41:36.251Z</time></trkpt><trkpt lat="46.261274" lon="9.8525176"><ele>965.0</ele><time>2026-05-01T09:41:37.246Z</time></trkpt><trkpt lat="46.2613947" lon="9.8525815"><ele>965.0</ele><time>2026-05-01T09:41:38.242Z</time></trkpt><trkpt lat="46.2615188" lon="9.8526409"><ele>965.0</ele><time>2026-05-01T09:41:39.249Z</time></trkpt><trkpt lat="46.2616406" lon="9.852701"><ele>965.0</ele><time>2026-05-01T09:41:40.244Z</time></trkpt><trkpt lat="46.2617685" lon="9.8527638"><ele>964.5</ele><time>2026-05-01T09:41:41.25Z</time></trkpt><trkpt lat="46.2618958" lon="9.8528208"><ele>964.0</ele><time>2026-05-01T09:41:42.249Z</time></trkpt><trkpt lat="46.2620232" lon="9.8528723"><ele>963.5</ele><time>2026-05-01T09:41:43.248Z</time></trkpt><trkpt lat="46.2621517" lon="9.8529224"><ele>963.0</ele><time>2026-05-01T09:41:44.262Z</time></trkpt><trkpt lat="46.2622854" lon="9.8529717"><ele>963.0</ele><time>2026-05-01T09:41:45.25Z</time></trkpt><trkpt lat="46.2624214" lon="9.8530282"><ele>963.0</ele><time>2026-05-01T09:41:46.256Z</time></trkpt><trkpt lat="46.2625439" lon="9.8530995"><ele>963.0</ele><time>2026-05-01T09:41:47.252Z</time></trkpt><trkpt lat="46.2626742" lon="9.8531661"><ele>963.0</ele><time>2026-05-01T09:41:48.254Z</time></trkpt><trkpt lat="46.2628025" lon="9.8531928"><ele>963.0</ele><time>2026-05-01T09:41:49.256Z</time></trkpt><trkpt lat="46.2629336" lon="9.8532166"><ele>963.0</ele><time>2026-05-01T09:41:50.256Z</time></trkpt><trkpt lat="46.2630574" lon="9.8532234"><ele>963.0</ele><time>2026-05-01T09:41:51.253Z</time></trkpt><trkpt lat="46.2631792" lon="9.853206"><ele>963.0</ele><time>2026-05-01T09:41:52.253Z</time></trkpt><trkpt lat="46.2632981" lon="9.8532119"><ele>960.0</ele><time>2026-05-01T09:41:53.255Z</time></trkpt><trkpt lat="46.2634195" lon="9.8532387"><ele>957.0</ele><time>2026-05-01T09:41:54.245Z</time></trkpt><trkpt lat="46.2635331" lon="9.8532954"><ele>954.0</ele><time>2026-05-01T09:41:55.257Z</time></trkpt><trkpt lat="46.2636487" lon="9.8533551"><ele>951.0</ele><time>2026-05-01T09:41:56.249Z</time></trkpt><trkpt lat="46.2637629" lon="9.8534113"><ele>956.4</ele><time>2026-05-01T09:41:57.253Z</time></trkpt><trkpt lat="46.2638698" lon="9.8534729"><ele>961.8</ele><time>2026-05-01T09:41:58.252Z</time></trkpt><trkpt lat="46.2639663" lon="9.8535361"><ele>967.1999999999999</ele><time>2026-05-01T09:41:59.258Z</time></trkpt><trkpt lat="46.2640633" lon="9.8535823"><ele>972.5999999999999</ele><time>2026-05-01T09:42:00.252Z</time></trkpt><trkpt lat="46.2641667" lon="9.8536144"><ele>978.0</ele><time>2026-05-01T09:42:01.246Z</time></trkpt><trkpt lat="46.2642867" lon="9.8536055"><ele>978.25</ele><time>2026-05-01T09:42:02.246Z</time></trkpt><trkpt lat="46.2644158" lon="9.8535835"><ele>978.5</ele><time>2026-05-01T09:42:03.244Z</time></trkpt><trkpt lat="46.264551" lon="9.853604"><ele>978.75</ele><time>2026-05-01T09:42:04.248Z</time></trkpt><trkpt lat="46.2646922" lon="9.8536202"><ele>979.0</ele><time>2026-05-01T09:42:05.243Z</time></trkpt><trkpt lat="46.2648392" lon="9.8536478"><ele>977.75</ele><time>2026-05-01T09:42:06.255Z</time></trkpt><trkpt lat="46.2649679" lon="9.8537012"><ele>976.5</ele><time>2026-05-01T09:42:07.249Z</time></trkpt><trkpt lat="46.2650982" lon="9.8537567"><ele>975.25</ele><time>2026-05-01T09:42:08.246Z</time></trkpt><trkpt lat="46.2652191" lon="9.8538292"><ele>974.0</ele><time>2026-05-01T09:42:09.242Z</time></trkpt><trkpt lat="46.2653316" lon="9.8539279"><ele>974.0</ele><time>2026-05-01T09:42:10.242Z</time></trkpt><trkpt lat="46.2654602" lon="9.8540304"><ele>974.0</ele><time>2026-05-01T09:42:11.241Z</time></trkpt><trkpt lat="46.2655823" lon="9.8541602"><ele>974.0</ele><time>2026-05-01T09:42:12.24Z</time></trkpt><trkpt lat="46.265686" lon="9.8542809"><ele>974.0</ele><time>2026-05-01T09:42:13.252Z</time></trkpt><trkpt lat="46.265781" lon="9.8544192"><ele>974.0</ele><time>2026-05-01T09:42:14.242Z</time></trkpt><trkpt lat="46.26583" lon="9.8546002"><ele>974.0</ele><time>2026-05-01T09:42:15.244Z</time></trkpt><trkpt lat="46.2658563" lon="9.854751"><ele>974.0</ele><time>2026-05-01T09:42:16.244Z</time></trkpt><trkpt lat="46.2659196" lon="9.8548972"><ele>974.0</ele><time>2026-05-01T09:42:17.252Z</time></trkpt><trkpt lat="46.2660014" lon="9.8550388"><ele>984.0</ele><time>2026-05-01T09:42:18.243Z</time></trkpt><trkpt lat="46.2661105" lon="9.8551705"><ele>994.0</ele><time>2026-05-01T09:42:19.233Z</time></trkpt><trkpt lat="46.2662623" lon="9.8552526"><ele>1004.0</ele><time>2026-05-01T09:42:20.249Z</time></trkpt><trkpt lat="46.2664098" lon="9.8553389"><ele>996.0</ele><time>2026-05-01T09:42:21.25Z</time></trkpt><trkpt lat="46.2665458" lon="9.8554318"><ele>988.0</ele><time>2026-05-01T09:42:22.241Z</time></trkpt><trkpt lat="46.2666831" lon="9.8555088"><ele>980.0</ele><time>2026-05-01T09:42:23.252Z</time></trkpt><trkpt lat="46.2668272" lon="9.8555507"><ele>972.0</ele><time>2026-05-01T09:42:24.246Z</time></trkpt><trkpt lat="46.2669503" lon="9.8556667"><ele>972.0</ele><time>2026-05-01T09:42:25.25Z</time></trkpt><trkpt lat="46.2670807" lon="9.8557777"><ele>972.0</ele><time>2026-05-01T09:42:26.249Z</time></trkpt><trkpt lat="46.2672074" lon="9.8558867"><ele>972.0</ele><time>2026-05-01T09:42:27.247Z</time></trkpt><trkpt lat="46.2673295" lon="9.8560012"><ele>972.0</ele><time>2026-05-01T09:42:28.256Z</time></trkpt><trkpt lat="46.2674462" lon="9.8561336"><ele>968.75</ele><time>2026-05-01T09:42:29.255Z</time></trkpt><trkpt lat="46.267556" lon="9.8562601"><ele>965.5</ele><time>2026-05-01T09:42:30.256Z</time></trkpt><trkpt lat="46.2676433" lon="9.8563939"><ele>962.25</ele><time>2026-05-01T09:42:31.254Z</time></trkpt><trkpt lat="46.2677293" lon="9.8564778"><ele>959.0</ele><time>2026-05-01T09:42:32.248Z</time></trkpt><trkpt lat="46.2678291" lon="9.8565386"><ele>959.0</ele><time>2026-05-01T09:42:33.251Z</time></trkpt><trkpt lat="46.2679584" lon="9.8565579"><ele>959.0</ele><time>2026-05-01T09:42:34.247Z</time></trkpt><trkpt lat="46.2680941" lon="9.8565523"><ele>959.0</ele><time>2026-05-01T09:42:35.246Z</time></trkpt><trkpt lat="46.2682451" lon="9.8565258"><ele>959.0</ele><time>2026-05-01T09:42:36.25Z</time></trkpt><trkpt lat="46.2683867" lon="9.856535"><ele>954.3333333333334</ele><time>2026-05-01T09:42:37.25Z</time></trkpt><trkpt lat="46.2685565" lon="9.8565088"><ele>949.6666666666667</ele><time>2026-05-01T09:42:38.249Z</time></trkpt><trkpt lat="46.2687305" lon="9.8564896"><ele>945.0</ele><time>2026-05-01T09:42:39.25Z</time></trkpt><trkpt lat="46.268887" lon="9.8564959"><ele>945.25</ele><time>2026-05-01T09:42:40.25Z</time></trkpt><trkpt lat="46.2690322" lon="9.8564949"><ele>945.5</ele><time>2026-05-01T09:42:41.25Z</time></trkpt><trkpt lat="46.2691743" lon="9.8565097"><ele>945.75</ele><time>2026-05-01T09:42:42.249Z</time></trkpt><trkpt lat="46.2692936" lon="9.8565698"><ele>946.0</ele><time>2026-05-01T09:42:43.244Z</time></trkpt><trkpt lat="46.2694254" lon="9.8566422"><ele>946.0</ele><time>2026-05-01T09:42:44.243Z</time></trkpt><trkpt lat="46.2695584" lon="9.8567214"><ele>946.0</ele><time>2026-05-01T09:42:45.252Z</time></trkpt><trkpt lat="46.2696849" lon="9.8567702"><ele>946.0</ele><time>2026-05-01T09:42:46.251Z</time></trkpt><trkpt lat="46.26981" lon="9.8568048"><ele>946.0</ele><time>2026-05-01T09:42:47.256Z</time></trkpt><trkpt lat="46.2699312" lon="9.856835"><ele>947.0</ele><time>2026-05-01T09:42:48.252Z</time></trkpt><trkpt lat="46.2700357" lon="9.8568787"><ele>947.9999999999999</ele><time>2026-05-01T09:42:49.254Z</time></trkpt><trkpt lat="46.2701253" lon="9.8569162"><ele>948.9999999999999</ele><time>2026-05-01T09:42:50.25Z</time></trkpt><trkpt lat="46.2701843" lon="9.8569634"><ele>950.0</ele><time>2026-05-01T09:42:51.248Z</time></trkpt><trkpt lat="46.270277" lon="9.8570178"><ele>951.0</ele><time>2026-05-01T09:42:53.253Z</time></trkpt><trkpt lat="46.2703501" lon="9.8571802"><ele>951.0</ele><time>2026-05-01T09:42:55.255Z</time></trkpt><trkpt lat="46.2703794" lon="9.8573023"><ele>950.9999999999999</ele><time>2026-05-01T09:42:56.255Z</time></trkpt><trkpt lat="46.270415" lon="9.857433"><ele>950.9999999999999</ele><time>2026-05-01T09:42:57.252Z</time></trkpt><trkpt lat="46.2704246" lon="9.85758"><ele>951.0</ele><time>2026-05-01T09:42:58.242Z</time></trkpt><trkpt lat="46.2704043" lon="9.8577242"><ele>951.0</ele><time>2026-05-01T09:42:59.252Z</time></trkpt><trkpt lat="46.2703556" lon="9.8578639"><ele>951.0</ele><time>2026-05-01T09:43:00.256Z</time></trkpt><trkpt lat="46.2703171" lon="9.8580068"><ele>950.9999999999999</ele><time>2026-05-01T09:43:01.26Z</time></trkpt><trkpt lat="46.2702823" lon="9.8581642"><ele>950.9999999999999</ele><time>2026-05-01T09:43:02.254Z</time></trkpt><trkpt lat="46.2702486" lon="9.858318"><ele>951.0</ele><time>2026-05-01T09:43:03.249Z</time></trkpt><trkpt lat="46.2702172" lon="9.8584721"><ele>951.0</ele><time>2026-05-01T09:43:04.25Z</time></trkpt><trkpt lat="46.2701928" lon="9.8586285"><ele>951.8</ele><time>2026-05-01T09:43:05.245Z</time></trkpt><trkpt lat="46.2701724" lon="9.8587808"><ele>952.5999999999999</ele><time>2026-05-01T09:43:06.251Z</time></trkpt><trkpt lat="46.2701499" lon="9.8589392"><ele>953.4</ele><time>2026-05-01T09:43:07.247Z</time></trkpt><trkpt lat="46.2701246" lon="9.8590915"><ele>954.2</ele><time>2026-05-01T09:43:08.255Z</time></trkpt><trkpt lat="46.2700948" lon="9.8592369"><ele>955.0</ele><time>2026-05-01T09:43:09.254Z</time></trkpt><trkpt lat="46.2700631" lon="9.8593837"><ele>955.6</ele><time>2026-05-01T09:43:10.251Z</time></trkpt><trkpt lat="46.2700346" lon="9.8595382"><ele>956.2</ele><time>2026-05-01T09:43:11.249Z</time></trkpt><trkpt lat="46.2700098" lon="9.8596835"><ele>956.8</ele><time>2026-05-01T09:43:12.256Z</time></trkpt><trkpt lat="46.2699792" lon="9.8598272"><ele>957.4</ele><time>2026-05-01T09:43:13.251Z</time></trkpt><trkpt lat="46.2699432" lon="9.8599719"><ele>958.0</ele><time>2026-05-01T09:43:14.259Z</time></trkpt><trkpt lat="46.2699094" lon="9.860117"><ele>956.5999999999999</ele><time>2026-05-01T09:43:15.255Z</time></trkpt><trkpt lat="46.2698837" lon="9.8602616"><ele>955.1999999999999</ele><time>2026-05-01T09:43:16.256Z</time></trkpt><trkpt lat="46.2698563" lon="9.8604091"><ele>953.8</ele><time>2026-05-01T09:43:17.255Z</time></trkpt><trkpt lat="46.2698205" lon="9.8605595"><ele>952.4</ele><time>2026-05-01T09:43:18.254Z</time></trkpt><trkpt lat="46.2697887" lon="9.8607134"><ele>951.0</ele><time>2026-05-01T09:43:19.251Z</time></trkpt><trkpt lat="46.2697551" lon="9.860869"><ele>952.5</ele><time>2026-05-01T09:43:20.254Z</time></trkpt><trkpt lat="46.2697213" lon="9.8610308"><ele>954.0</ele><time>2026-05-01T09:43:21.251Z</time></trkpt><trkpt lat="46.2696843" lon="9.8612007"><ele>955.5</ele><time>2026-05-01T09:43:22.265Z</time></trkpt><trkpt lat="46.2696538" lon="9.861374"><ele>957.0</ele><time>2026-05-01T09:43:23.25Z</time></trkpt><trkpt lat="46.269619" lon="9.8615493"><ele>957.0</ele><time>2026-05-01T09:43:24.245Z</time></trkpt><trkpt lat="46.2695745" lon="9.8617245"><ele>957.0</ele><time>2026-05-01T09:43:25.244Z</time></trkpt><trkpt lat="46.2695254" lon="9.8619026"><ele>957.0</ele><time>2026-05-01T09:43:26.243Z</time></trkpt><trkpt lat="46.2694748" lon="9.8620807"><ele>957.0</ele><time>2026-05-01T09:43:27.241Z</time></trkpt><trkpt lat="46.2694252" lon="9.8622578"><ele>958.0</ele><time>2026-05-01T09:43:28.245Z</time></trkpt><trkpt lat="46.269368" lon="9.8624245"><ele>959.0</ele><time>2026-05-01T09:43:29.247Z</time></trkpt><trkpt lat="46.2693159" lon="9.8625806"><ele>960.0</ele><time>2026-05-01T09:43:30.252Z</time></trkpt><trkpt lat="46.269276" lon="9.862737"><ele>961.0</ele><time>2026-05-01T09:43:31.26Z</time></trkpt><trkpt lat="46.2692514" lon="9.8628978"><ele>962.0</ele><time>2026-05-01T09:43:32.245Z</time></trkpt><trkpt lat="46.2692454" lon="9.863059"><ele>962.9999999999999</ele><time>2026-05-01T09:43:33.257Z</time></trkpt><trkpt lat="46.2692388" lon="9.8632174"><ele>963.9999999999999</ele><time>2026-05-01T09:43:34.248Z</time></trkpt><trkpt lat="46.2692236" lon="9.8633744"><ele>965.0</ele><time>2026-05-01T09:43:35.256Z</time></trkpt><trkpt lat="46.2691933" lon="9.8635306"><ele>966.0</ele><time>2026-05-01T09:43:36.25Z</time></trkpt><trkpt lat="46.269155" lon="9.863685"><ele>967.25</ele><time>2026-05-01T09:43:37.254Z</time></trkpt><trkpt lat="46.269113" lon="9.8638362"><ele>968.5</ele><time>2026-05-01T09:43:38.254Z</time></trkpt><trkpt lat="46.2690723" lon="9.8639969"><ele>969.75</ele><time>2026-05-01T09:43:39.25Z</time></trkpt><trkpt lat="46.2690272" lon="9.8641629"><ele>971.0</ele><time>2026-05-01T09:43:40.252Z</time></trkpt><trkpt lat="46.2689797" lon="9.8643334"><ele>967.25</ele><time>2026-05-01T09:43:41.269Z</time></trkpt><trkpt lat="46.2689331" lon="9.864501"><ele>963.5</ele><time>2026-05-01T09:43:42.258Z</time></trkpt><trkpt lat="46.2688905" lon="9.8646667"><ele>959.75</ele><time>2026-05-01T09:43:43.257Z</time></trkpt><trkpt lat="46.2688652" lon="9.8648411"><ele>956.0</ele><time>2026-05-01T09:43:44.256Z</time></trkpt><trkpt lat="46.2688492" lon="9.86502"><ele>957.0</ele><time>2026-05-01T09:43:45.271Z</time></trkpt><trkpt lat="46.2688479" lon="9.8651984"><ele>958.0</ele><time>2026-05-01T09:43:46.259Z</time></trkpt><trkpt lat="46.2688522" lon="9.8653848"><ele>959.0</ele><time>2026-05-01T09:43:47.255Z</time></trkpt><trkpt lat="46.2688566" lon="9.865571"><ele>960.0</ele><time>2026-05-01T09:43:48.258Z</time></trkpt><trkpt lat="46.2688549" lon="9.8657569"><ele>960.0</ele><time>2026-05-01T09:43:49.251Z</time></trkpt><trkpt lat="46.2688556" lon="9.8659347"><ele>960.0</ele><time>2026-05-01T09:43:50.256Z</time></trkpt><trkpt lat="46.2688577" lon="9.8661168"><ele>960.0</ele><time>2026-05-01T09:43:51.252Z</time></trkpt><trkpt lat="46.2688552" lon="9.8662894"><ele>960.0</ele><time>2026-05-01T09:43:52.244Z</time></trkpt><trkpt lat="46.2688558" lon="9.8664528"><ele>960.4</ele><time>2026-05-01T09:43:53.257Z</time></trkpt><trkpt lat="46.2688524" lon="9.866608"><ele>960.8</ele><time>2026-05-01T09:43:54.255Z</time></trkpt><trkpt lat="46.268852" lon="9.8667426"><ele>961.2</ele><time>2026-05-01T09:43:55.254Z</time></trkpt><trkpt lat="46.2688588" lon="9.8668726"><ele>961.6</ele><time>2026-05-01T09:43:56.256Z</time></trkpt><trkpt lat="46.2688638" lon="9.8669851"><ele>962.0</ele><time>2026-05-01T09:43:57.253Z</time></trkpt><trkpt lat="46.2688532" lon="9.867103"><ele>962.0</ele><time>2026-05-01T09:43:58.258Z</time></trkpt><trkpt lat="46.2688407" lon="9.8672345"><ele>962.0</ele><time>2026-05-01T09:43:59.259Z</time></trkpt><trkpt lat="46.2688399" lon="9.8673781"><ele>962.0</ele><time>2026-05-01T09:44:00.254Z</time></trkpt><trkpt lat="46.2688422" lon="9.8675357"><ele>962.0</ele><time>2026-05-01T09:44:01.253Z</time></trkpt><trkpt lat="46.2688381" lon="9.8677025"><ele>962.0</ele><time>2026-05-01T09:44:02.258Z</time></trkpt><trkpt lat="46.2688416" lon="9.8678453"><ele>962.4000000000001</ele><time>2026-05-01T09:44:03.257Z</time></trkpt><trkpt lat="46.2688505" lon="9.8679845"><ele>962.8000000000001</ele><time>2026-05-01T09:44:04.256Z</time></trkpt><trkpt lat="46.2688625" lon="9.8681295"><ele>963.2</ele><time>2026-05-01T09:44:05.25Z</time></trkpt><trkpt lat="46.2688636" lon="9.8682787"><ele>963.6</ele><time>2026-05-01T09:44:06.25Z</time></trkpt><trkpt lat="46.2688452" lon="9.8684314"><ele>964.0</ele><time>2026-05-01T09:44:07.255Z</time></trkpt><trkpt lat="46.2688039" lon="9.868585"><ele>964.0</ele><time>2026-05-01T09:44:08.256Z</time></trkpt><trkpt lat="46.2687617" lon="9.8687554"><ele>964.0</ele><time>2026-05-01T09:44:09.257Z</time></trkpt><trkpt lat="46.2687186" lon="9.8689337"><ele>964.0</ele><time>2026-05-01T09:44:10.251Z</time></trkpt><trkpt lat="46.2686953" lon="9.8691228"><ele>964.0</ele><time>2026-05-01T09:44:11.247Z</time></trkpt><trkpt lat="46.2686932" lon="9.8693087"><ele>964.0</ele><time>2026-05-01T09:44:12.254Z</time></trkpt><trkpt lat="46.2687066" lon="9.8694826"><ele>964.0</ele><time>2026-05-01T09:44:13.253Z</time></trkpt><trkpt lat="46.2687254" lon="9.8696517"><ele>964.0</ele><time>2026-05-01T09:44:14.252Z</time></trkpt><trkpt lat="46.2687404" lon="9.8698166"><ele>964.0</ele><time>2026-05-01T09:44:15.256Z</time></trkpt><trkpt lat="46.2687475" lon="9.8699743"><ele>963.75</ele><time>2026-05-01T09:44:16.247Z</time></trkpt><trkpt lat="46.2687625" lon="9.8701344"><ele>963.5</ele><time>2026-05-01T09:44:17.261Z</time></trkpt><trkpt lat="46.2687885" lon="9.8702898"><ele>963.25</ele><time>2026-05-01T09:44:18.248Z</time></trkpt><trkpt lat="46.2688301" lon="9.8704412"><ele>963.0</ele><time>2026-05-01T09:44:19.245Z</time></trkpt><trkpt lat="46.2688817" lon="9.8705911"><ele>963.0</ele><time>2026-05-01T09:44:20.25Z</time></trkpt><trkpt lat="46.2689344" lon="9.8707402"><ele>963.0</ele><time>2026-05-01T09:44:21.254Z</time></trkpt><trkpt lat="46.2689855" lon="9.8708917"><ele>963.0</ele><time>2026-05-01T09:44:22.257Z</time></trkpt><trkpt lat="46.2690391" lon="9.8710378"><ele>963.0</ele><time>2026-05-01T09:44:23.252Z</time></trkpt><trkpt lat="46.2690885" lon="9.8711862"><ele>965.2</ele><time>2026-05-01T09:44:24.266Z</time></trkpt><trkpt lat="46.2691306" lon="9.8713274"><ele>967.4</ele><time>2026-05-01T09:44:25.253Z</time></trkpt><trkpt lat="46.2691499" lon="9.8714657"><ele>969.6000000000001</ele><time>2026-05-01T09:44:26.245Z</time></trkpt><trkpt lat="46.2691566" lon="9.8716033"><ele>971.8000000000001</ele><time>2026-05-01T09:44:27.246Z</time></trkpt><trkpt lat="46.2691396" lon="9.8717443"><ele>974.0</ele><time>2026-05-01T09:44:28.257Z</time></trkpt><trkpt lat="46.2691065" lon="9.8718889"><ele>974.6</ele><time>2026-05-01T09:44:29.253Z</time></trkpt><trkpt lat="46.2690702" lon="9.8720389"><ele>975.2</ele><time>2026-05-01T09:44:30.249Z</time></trkpt><trkpt lat="46.2690282" lon="9.8721885"><ele>975.8000000000001</ele><time>2026-05-01T09:44:31.259Z</time></trkpt><trkpt lat="46.268998" lon="9.8723463"><ele>976.4000000000001</ele><time>2026-05-01T09:44:32.25Z</time></trkpt><trkpt lat="46.2689627" lon="9.872504"><ele>977.0</ele><time>2026-05-01T09:44:33.253Z</time></trkpt><trkpt lat="46.2689316" lon="9.8726691"><ele>975.25</ele><time>2026-05-01T09:44:34.252Z</time></trkpt><trkpt lat="46.2689027" lon="9.8728394"><ele>973.5</ele><time>2026-05-01T09:44:35.254Z</time></trkpt><trkpt lat="46.2688785" lon="9.8730168"><ele>971.75</ele><time>2026-05-01T09:44:36.244Z</time></trkpt><trkpt lat="46.2688481" lon="9.8731909"><ele>970.0</ele><time>2026-05-01T09:44:37.25Z</time></trkpt><trkpt lat="46.2688191" lon="9.8733655"><ele>970.2</ele><time>2026-05-01T09:44:38.246Z</time></trkpt><trkpt lat="46.2687929" lon="9.8735432"><ele>970.4</ele><time>2026-05-01T09:44:39.262Z</time></trkpt><trkpt lat="46.2687704" lon="9.8737156"><ele>970.5999999999999</ele><time>2026-05-01T09:44:40.252Z</time></trkpt><trkpt lat="46.2687544" lon="9.8738708"><ele>970.8</ele><time>2026-05-01T09:44:41.251Z</time></trkpt><trkpt lat="46.2687426" lon="9.8739921"><ele>971.0</ele><time>2026-05-01T09:44:42.256Z</time></trkpt><trkpt lat="46.2687476" lon="9.8741518"><ele>970.4</ele><time>2026-05-01T09:44:44.259Z</time></trkpt><trkpt lat="46.2688054" lon="9.8743136"><ele>969.8</ele><time>2026-05-01T09:44:46.244Z</time></trkpt><trkpt lat="46.2688508" lon="9.874406"><ele>969.1999999999999</ele><time>2026-05-01T09:44:47.259Z</time></trkpt><trkpt lat="46.268896" lon="9.8745119"><ele>968.5999999999999</ele><time>2026-05-01T09:44:48.254Z</time></trkpt><trkpt lat="46.2689457" lon="9.8746231"><ele>968.0</ele><time>2026-05-01T09:44:49.246Z</time></trkpt><trkpt lat="46.2690053" lon="9.8747382"><ele>968.5999999999999</ele><time>2026-05-01T09:44:50.253Z</time></trkpt><trkpt lat="46.2690634" lon="9.8748623"><ele>969.1999999999999</ele><time>2026-05-01T09:44:51.251Z</time></trkpt><trkpt lat="46.269114" lon="9.8749975"><ele>969.8</ele><time>2026-05-01T09:44:52.257Z</time></trkpt><trkpt lat="46.2691639" lon="9.8751372"><ele>970.4</ele><time>2026-05-01T09:44:53.253Z</time></trkpt><trkpt lat="46.2692094" lon="9.8752683"><ele>971.0</ele><time>2026-05-01T09:44:54.259Z</time></trkpt><trkpt lat="46.269256" lon="9.8753906"><ele>971.0000000000001</ele><time>2026-05-01T09:44:55.268Z</time></trkpt><trkpt lat="46.2692952" lon="9.8755065"><ele>971.0</ele><time>2026-05-01T09:44:56.252Z</time></trkpt><trkpt lat="46.2693305" lon="9.8756151"><ele>971.0</ele><time>2026-05-01T09:44:57.253Z</time></trkpt><trkpt lat="46.2693595" lon="9.8757126"><ele>971.0</ele><time>2026-05-01T09:44:58.257Z</time></trkpt><trkpt lat="46.2693906" lon="9.8757961"><ele>971.0000000000001</ele><time>2026-05-01T09:44:59.257Z</time></trkpt><trkpt lat="46.2694357" lon="9.8759128"><ele>971.0</ele><time>2026-05-01T09:45:01.249Z</time></trkpt><trkpt lat="46.2695077" lon="9.8760599"><ele>971.0</ele><time>2026-05-01T09:45:03.255Z</time></trkpt><trkpt lat="46.2695593" lon="9.8761665"><ele>970.9999999999999</ele><time>2026-05-01T09:45:04.243Z</time></trkpt><trkpt lat="46.269624" lon="9.8763036"><ele>970.9999999999999</ele><time>2026-05-01T09:45:05.253Z</time></trkpt><trkpt lat="46.2696899" lon="9.8764457"><ele>971.0</ele><time>2026-05-01T09:45:06.247Z</time></trkpt><trkpt lat="46.2697577" lon="9.8765832"><ele>971.0</ele><time>2026-05-01T09:45:07.243Z</time></trkpt><trkpt lat="46.2698224" lon="9.8767191"><ele>971.8</ele><time>2026-05-01T09:45:08.25Z</time></trkpt><trkpt lat="46.2698866" lon="9.8768492"><ele>972.5999999999999</ele><time>2026-05-01T09:45:09.248Z</time></trkpt><trkpt lat="46.2699468" lon="9.8769612"><ele>973.4</ele><time>2026-05-01T09:45:10.249Z</time></trkpt><trkpt lat="46.2700011" lon="9.8770714"><ele>974.2</ele><time>2026-05-01T09:45:11.252Z</time></trkpt><trkpt lat="46.270051" lon="9.8771855"><ele>975.0</ele><time>2026-05-01T09:45:12.246Z</time></trkpt><trkpt lat="46.2700991" lon="9.8772873"><ele>975.0</ele><time>2026-05-01T09:45:13.244Z</time></trkpt><trkpt lat="46.2701417" lon="9.8773831"><ele>975.0</ele><time>2026-05-01T09:45:14.248Z</time></trkpt><trkpt lat="46.2701761" lon="9.8774717"><ele>975.0</ele><time>2026-05-01T09:45:15.246Z</time></trkpt><trkpt lat="46.2701991" lon="9.8776177"><ele>975.0</ele><time>2026-05-01T09:45:17.251Z</time></trkpt><trkpt lat="46.2701421" lon="9.8776824"><ele>975.0</ele><time>2026-05-01T09:45:19.251Z</time></trkpt><trkpt lat="46.270037" lon="9.8776847"><ele>975.0</ele><time>2026-05-01T09:45:21.249Z</time></trkpt><trkpt lat="46.2699284" lon="9.8777014"><ele>975.0</ele><time>2026-05-01T09:45:23.252Z</time></trkpt><trkpt lat="46.2698215" lon="9.8777303"><ele>975.0</ele><time>2026-05-01T09:45:25.25Z</time></trkpt><trkpt lat="46.2697184" lon="9.8777723"><ele>975.0</ele><time>2026-05-01T09:45:27.25Z</time></trkpt><trkpt lat="46.2696302" lon="9.8778311"><ele>975.0</ele><time>2026-05-01T09:45:29.26Z</time></trkpt><trkpt lat="46.2695595" lon="9.8778828"><ele>975.0</ele><time>2026-05-01T09:45:31.268Z</time></trkpt><trkpt lat="46.2694924" lon="9.877903"><ele>975.1666666666666</ele><time>2026-05-01T09:45:33.285Z</time></trkpt><trkpt lat="46.2694124" lon="9.8779172"><ele>975.3333333333333</ele><time>2026-05-01T09:45:35.263Z</time></trkpt><trkpt lat="46.269334" lon="9.8779686"><ele>975.5</ele><time>2026-05-01T09:45:37.258Z</time></trkpt><trkpt lat="46.269267" lon="9.8779988"><ele>975.6666666666666</ele><time>2026-05-01T09:45:39.257Z</time></trkpt><trkpt lat="46.2692454" lon="9.8780906"><ele>975.8333333333333</ele><time>2026-05-01T09:45:57.261Z</time></trkpt><trkpt lat="46.2692913" lon="9.8781702"><ele>976.0</ele><time>2026-05-01T09:46:04.26Z</time></trkpt><trkpt lat="46.2693663" lon="9.8781113"><ele>976.0</ele><time>2026-05-01T09:46:07.258Z</time></trkpt><trkpt lat="46.269449" lon="9.8780102"><ele>976.0</ele><time>2026-05-01T09:46:09.249Z</time></trkpt><trkpt lat="46.2695189" lon="9.8779128"><ele>976.0</ele><time>2026-05-01T09:46:11.249Z</time></trkpt><trkpt lat="46.2695475" lon="9.8778305"><ele>976.0</ele><time>2026-05-01T09:46:13.251Z</time></trkpt></trkseg></trk></gpx>